<?xml version='1.0' encoding='UTF-8'?><gpx version="1.1" creator="JPX - https://github.com/jenetics/jpx" xmlns="http://www.topografix.com/GPX/1/1"><trk><trkseg><trkpt lat="43.2472717" lon="10.5296013"><ele>3.9999999999999996</ele><time>2026-04-04T12:20:49.962Z</time></trkpt><trkpt lat="43.2471972" lon="10.5295005"><ele>4.0</ele><time>2026-04-04T12:20:52.953Z</time></trkpt><trkpt lat="43.2471168" lon="10.5294622"><ele>4.0</ele><time>2026-04-04T12:20:54.956Z</time></trkpt><trkpt lat="43.2470202" lon="10.5294657"><ele>4.0</ele><time>2026-04-04T12:20:56.96Z</time></trkpt><trkpt lat="43.2469573" lon="10.5294968"><ele>3.9999999999999996</ele><time>2026-04-04T12:20:57.959Z</time></trkpt><trkpt lat="43.2468889" lon="10.5295312"><ele>4.0</ele><time>2026-04-04T12:20:58.95Z</time></trkpt><trkpt lat="43.2468185" lon="10.5296051"><ele>4.0</ele><time>2026-04-04T12:20:59.967Z</time></trkpt><trkpt lat="43.2467517" lon="10.5297105"><ele>4.0</ele><time>2026-04-04T12:21:00.958Z</time></trkpt><trkpt lat="43.2466896" lon="10.5298252"><ele>4.0</ele><time>2026-04-04T12:21:01.953Z</time></trkpt><trkpt lat="43.2466297" lon="10.5299405"><ele>4.0</ele><time>2026-04-04T12:21:02.951Z</time></trkpt><trkpt lat="43.2465724" lon="10.5300575"><ele>4.0</ele><time>2026-04-04T12:21:03.951Z</time></trkpt><trkpt lat="43.2465117" lon="10.5301831"><ele>4.25</ele><time>2026-04-04T12:21:04.958Z</time></trkpt><trkpt lat="43.2464575" lon="10.5303147"><ele>4.5</ele><time>2026-04-04T12:21:05.966Z</time></trkpt><trkpt lat="43.2463997" lon="10.5304523"><ele>4.75</ele><time>2026-04-04T12:21:06.966Z</time></trkpt><trkpt lat="43.2463431" lon="10.5305855"><ele>5.0</ele><time>2026-04-04T12:21:07.963Z</time></trkpt><trkpt lat="43.246286" lon="10.5307221"><ele>5.0</ele><time>2026-04-04T12:21:08.967Z</time></trkpt><trkpt lat="43.2462253" lon="10.5308588"><ele>5.0</ele><time>2026-04-04T12:21:09.947Z</time></trkpt><trkpt lat="43.2461651" lon="10.5309965"><ele>5.0</ele><time>2026-04-04T12:21:10.968Z</time></trkpt><trkpt lat="43.2461054" lon="10.5311326"><ele>5.0</ele><time>2026-04-04T12:21:11.95Z</time></trkpt><trkpt lat="43.2460438" lon="10.5312689"><ele>4.5</ele><time>2026-04-04T12:21:12.955Z</time></trkpt><trkpt lat="43.2459821" lon="10.5314055"><ele>4.0</ele><time>2026-04-04T12:21:13.957Z</time></trkpt><trkpt lat="43.2459189" lon="10.5315384"><ele>3.5</ele><time>2026-04-04T12:21:14.951Z</time></trkpt><trkpt lat="43.2458525" lon="10.5316755"><ele>3.0</ele><time>2026-04-04T12:21:15.946Z</time></trkpt><trkpt lat="43.2457838" lon="10.5318101"><ele>3.0</ele><time>2026-04-04T12:21:16.964Z</time></trkpt><trkpt lat="43.2457178" lon="10.5319431"><ele>3.0</ele><time>2026-04-04T12:21:17.96Z</time></trkpt><trkpt lat="43.2456537" lon="10.5320734"><ele>3.0</ele><time>2026-04-04T12:21:18.968Z</time></trkpt><trkpt lat="43.2455899" lon="10.532201"><ele>3.0</ele><time>2026-04-04T12:21:19.973Z</time></trkpt><trkpt lat="43.2455282" lon="10.5323309"><ele>3.2</ele><time>2026-04-04T12:21:20.964Z</time></trkpt><trkpt lat="43.2454687" lon="10.5324551"><ele>3.4</ele><time>2026-04-04T12:21:21.962Z</time></trkpt><trkpt lat="43.2454164" lon="10.5325703"><ele>3.6000000000000005</ele><time>2026-04-04T12:21:22.95Z</time></trkpt><trkpt lat="43.2453677" lon="10.5326747"><ele>3.8000000000000003</ele><time>2026-04-04T12:21:23.967Z</time></trkpt><trkpt lat="43.2453243" lon="10.5327711"><ele>4.0</ele><time>2026-04-04T12:21:24.956Z</time></trkpt><trkpt lat="43.2452776" lon="10.5328481"><ele>4.5</ele><time>2026-04-04T12:21:25.972Z</time></trkpt><trkpt lat="43.2452326" lon="10.532909"><ele>5.0</ele><time>2026-04-04T12:21:26.957Z</time></trkpt><trkpt lat="43.2451665" lon="10.5330047"><ele>5.5</ele><time>2026-04-04T12:21:28.968Z</time></trkpt><trkpt lat="43.2451436" lon="10.5331043"><ele>6.0</ele><time>2026-04-04T12:21:31.968Z</time></trkpt><trkpt lat="43.2451695" lon="10.5332132"><ele>6.500000000000001</ele><time>2026-04-04T12:21:33.97Z</time></trkpt><trkpt lat="43.2452026" lon="10.5332878"><ele>7.0</ele><time>2026-04-04T12:21:34.953Z</time></trkpt><trkpt lat="43.2452435" lon="10.5333678"><ele>7.000000000000001</ele><time>2026-04-04T12:21:35.981Z</time></trkpt><trkpt lat="43.245288" lon="10.5334578"><ele>7.0</ele><time>2026-04-04T12:21:36.966Z</time></trkpt><trkpt lat="43.2453393" lon="10.5335578"><ele>7.0</ele><time>2026-04-04T12:21:37.953Z</time></trkpt><trkpt lat="43.2453934" lon="10.53366"><ele>7.0</ele><time>2026-04-04T12:21:38.953Z</time></trkpt><trkpt lat="43.24545" lon="10.533762"><ele>7.000000000000001</ele><time>2026-04-04T12:21:39.945Z</time></trkpt><trkpt lat="43.2455057" lon="10.5338657"><ele>7.0</ele><time>2026-04-04T12:21:40.971Z</time></trkpt><trkpt lat="43.2455599" lon="10.5339745"><ele>7.0</ele><time>2026-04-04T12:21:41.96Z</time></trkpt><trkpt lat="43.2456081" lon="10.5340918"><ele>6.999999999999999</ele><time>2026-04-04T12:21:42.95Z</time></trkpt><trkpt lat="43.2456471" lon="10.5342183"><ele>6.999999999999999</ele><time>2026-04-04T12:21:43.965Z</time></trkpt><trkpt lat="43.2456853" lon="10.5343484"><ele>7.0</ele><time>2026-04-04T12:21:44.959Z</time></trkpt><trkpt lat="43.2457221" lon="10.5344812"><ele>7.0</ele><time>2026-04-04T12:21:45.955Z</time></trkpt><trkpt lat="43.2457604" lon="10.5346176"><ele>6.8</ele><time>2026-04-04T12:21:46.965Z</time></trkpt><trkpt lat="43.2457998" lon="10.5347548"><ele>6.6</ele><time>2026-04-04T12:21:47.954Z</time></trkpt><trkpt lat="43.2458424" lon="10.5348912"><ele>6.3999999999999995</ele><time>2026-04-04T12:21:48.969Z</time></trkpt><trkpt lat="43.2458831" lon="10.5350306"><ele>6.199999999999999</ele><time>2026-04-04T12:21:49.952Z</time></trkpt><trkpt lat="43.2459246" lon="10.5351738"><ele>6.0</ele><time>2026-04-04T12:21:50.969Z</time></trkpt><trkpt lat="43.245966" lon="10.5353211"><ele>5.75</ele><time>2026-04-04T12:21:51.965Z</time></trkpt><trkpt lat="43.2460093" lon="10.5354697"><ele>5.5</ele><time>2026-04-04T12:21:52.957Z</time></trkpt><trkpt lat="43.2460538" lon="10.5356196"><ele>5.25</ele><time>2026-04-04T12:21:53.963Z</time></trkpt><trkpt lat="43.246096" lon="10.5357703"><ele>5.0</ele><time>2026-04-04T12:21:54.952Z</time></trkpt><trkpt lat="43.2461382" lon="10.5359196"><ele>5.0</ele><time>2026-04-04T12:21:55.967Z</time></trkpt><trkpt lat="43.2461743" lon="10.5360703"><ele>5.0</ele><time>2026-04-04T12:21:56.969Z</time></trkpt><trkpt lat="43.2462108" lon="10.5362197"><ele>5.0</ele><time>2026-04-04T12:21:57.968Z</time></trkpt><trkpt lat="43.246248" lon="10.5363662"><ele>5.0</ele><time>2026-04-04T12:21:58.969Z</time></trkpt><trkpt lat="43.2462843" lon="10.5365081"><ele>4.8</ele><time>2026-04-04T12:21:59.971Z</time></trkpt><trkpt lat="43.2463203" lon="10.5366477"><ele>4.6</ele><time>2026-04-04T12:22:00.965Z</time></trkpt><trkpt lat="43.2463552" lon="10.5367822"><ele>4.4</ele><time>2026-04-04T12:22:01.956Z</time></trkpt><trkpt lat="43.2463899" lon="10.5369178"><ele>4.2</ele><time>2026-04-04T12:22:02.962Z</time></trkpt><trkpt lat="43.2464261" lon="10.5370552"><ele>4.0</ele><time>2026-04-04T12:22:03.952Z</time></trkpt><trkpt lat="43.2464637" lon="10.5371956"><ele>3.75</ele><time>2026-04-04T12:22:04.969Z</time></trkpt><trkpt lat="43.2465009" lon="10.5373397"><ele>3.5</ele><time>2026-04-04T12:22:05.968Z</time></trkpt><trkpt lat="43.2465391" lon="10.5374888"><ele>3.25</ele><time>2026-04-04T12:22:06.954Z</time></trkpt><trkpt lat="43.2465769" lon="10.5376419"><ele>3.0</ele><time>2026-04-04T12:22:07.966Z</time></trkpt><trkpt lat="43.2466148" lon="10.5377966"><ele>3.25</ele><time>2026-04-04T12:22:08.951Z</time></trkpt><trkpt lat="43.2466529" lon="10.5379514"><ele>3.5</ele><time>2026-04-04T12:22:09.972Z</time></trkpt><trkpt lat="43.2466914" lon="10.5381085"><ele>3.75</ele><time>2026-04-04T12:22:10.961Z</time></trkpt><trkpt lat="43.2467317" lon="10.5382659"><ele>4.0</ele><time>2026-04-04T12:22:11.949Z</time></trkpt><trkpt lat="43.2467721" lon="10.5384266"><ele>4.0</ele><time>2026-04-04T12:22:12.967Z</time></trkpt><trkpt lat="43.2468111" lon="10.5385922"><ele>4.0</ele><time>2026-04-04T12:22:13.953Z</time></trkpt><trkpt lat="43.2468557" lon="10.5387617"><ele>4.0</ele><time>2026-04-04T12:22:14.956Z</time></trkpt><trkpt lat="43.2469004" lon="10.5389318"><ele>4.0</ele><time>2026-04-04T12:22:15.958Z</time></trkpt><trkpt lat="43.2469434" lon="10.5391073"><ele>3.5</ele><time>2026-04-04T12:22:16.971Z</time></trkpt><trkpt lat="43.2469853" lon="10.5392833"><ele>3.0</ele><time>2026-04-04T12:22:17.969Z</time></trkpt><trkpt lat="43.247029" lon="10.5394596"><ele>2.5</ele><time>2026-04-04T12:22:18.974Z</time></trkpt><trkpt lat="43.2470752" lon="10.5396328"><ele>2.0</ele><time>2026-04-04T12:22:19.964Z</time></trkpt><trkpt lat="43.2471203" lon="10.5398069"><ele>2.0</ele><time>2026-04-04T12:22:20.967Z</time></trkpt><trkpt lat="43.2471575" lon="10.539961"><ele>2.0</ele><time>2026-04-04T12:22:21.968Z</time></trkpt><trkpt lat="43.2471926" lon="10.5401004"><ele>2.0</ele><time>2026-04-04T12:22:22.951Z</time></trkpt><trkpt lat="43.2472199" lon="10.5402346"><ele>2.0</ele><time>2026-04-04T12:22:23.971Z</time></trkpt><trkpt lat="43.2472248" lon="10.5403557"><ele>2.0</ele><time>2026-04-04T12:22:24.966Z</time></trkpt><trkpt lat="43.2472263" lon="10.5404633"><ele>2.1666666666666665</ele><time>2026-04-04T12:22:25.958Z</time></trkpt><trkpt lat="43.2472091" lon="10.5405523"><ele>2.333333333333333</ele><time>2026-04-04T12:22:26.969Z</time></trkpt><trkpt lat="43.2472065" lon="10.5406537"><ele>2.5</ele><time>2026-04-04T12:22:28.942Z</time></trkpt><trkpt lat="43.2472124" lon="10.5407631"><ele>2.6666666666666665</ele><time>2026-04-04T12:29:54.97Z</time></trkpt><trkpt lat="43.2472934" lon="10.5408256"><ele>2.8333333333333335</ele><time>2026-04-04T12:29:57.965Z</time></trkpt><trkpt lat="43.2473522" lon="10.540866"><ele>3.0</ele><time>2026-04-04T12:29:59.969Z</time></trkpt><trkpt lat="43.2474088" lon="10.5410088"><ele>3.0</ele><time>2026-04-04T12:30:01.969Z</time></trkpt><trkpt lat="43.2474394" lon="10.5411111"><ele>3.0</ele><time>2026-04-04T12:30:02.962Z</time></trkpt><trkpt lat="43.2474717" lon="10.5412273"><ele>3.0</ele><time>2026-04-04T12:30:03.968Z</time></trkpt><trkpt lat="43.2475049" lon="10.5413424"><ele>3.0</ele><time>2026-04-04T12:30:04.953Z</time></trkpt><trkpt lat="43.2475357" lon="10.5414737"><ele>3.0</ele><time>2026-04-04T12:30:05.958Z</time></trkpt><trkpt lat="43.2475691" lon="10.5416094"><ele>3.0</ele><time>2026-04-04T12:30:06.969Z</time></trkpt><trkpt lat="43.2476058" lon="10.541757"><ele>3.0</ele><time>2026-04-04T12:30:07.958Z</time></trkpt><trkpt lat="43.2476429" lon="10.541909"><ele>3.0</ele><time>2026-04-04T12:30:08.976Z</time></trkpt><trkpt lat="43.247684" lon="10.5420639"><ele>3.0</ele><time>2026-04-04T12:30:09.948Z</time></trkpt><trkpt lat="43.2477247" lon="10.5422179"><ele>3.0</ele><time>2026-04-04T12:30:10.962Z</time></trkpt><trkpt lat="43.247766" lon="10.5423731"><ele>3.0</ele><time>2026-04-04T12:30:11.978Z</time></trkpt><trkpt lat="43.2478062" lon="10.542529"><ele>3.0</ele><time>2026-04-04T12:30:12.955Z</time></trkpt><trkpt lat="43.2478461" lon="10.5426892"><ele>3.0</ele><time>2026-04-04T12:30:13.978Z</time></trkpt><trkpt lat="43.2478854" lon="10.5428487"><ele>3.25</ele><time>2026-04-04T12:30:14.971Z</time></trkpt><trkpt lat="43.2479253" lon="10.5430084"><ele>3.5</ele><time>2026-04-04T12:30:15.965Z</time></trkpt><trkpt lat="43.2479651" lon="10.5431695"><ele>3.75</ele><time>2026-04-04T12:30:16.973Z</time></trkpt><trkpt lat="43.2480065" lon="10.5433317"><ele>4.0</ele><time>2026-04-04T12:30:17.953Z</time></trkpt><trkpt lat="43.2480487" lon="10.543493"><ele>4.0</ele><time>2026-04-04T12:30:18.972Z</time></trkpt><trkpt lat="43.2480907" lon="10.5436482"><ele>4.0</ele><time>2026-04-04T12:30:19.947Z</time></trkpt><trkpt lat="43.2481309" lon="10.5438074"><ele>4.0</ele><time>2026-04-04T12:30:20.975Z</time></trkpt><trkpt lat="43.2481626" lon="10.5439499"><ele>4.0</ele><time>2026-04-04T12:30:21.974Z</time></trkpt><trkpt lat="43.2481852" lon="10.5440793"><ele>4.0</ele><time>2026-04-04T12:30:22.957Z</time></trkpt><trkpt lat="43.2482043" lon="10.5442071"><ele>4.0</ele><time>2026-04-04T12:30:23.962Z</time></trkpt><trkpt lat="43.2481864" lon="10.5443323"><ele>4.0</ele><time>2026-04-04T12:30:24.956Z</time></trkpt><trkpt lat="43.2481682" lon="10.54446"><ele>4.0</ele><time>2026-04-04T12:30:25.949Z</time></trkpt><trkpt lat="43.2481793" lon="10.5445893"><ele>4.0</ele><time>2026-04-04T12:30:26.961Z</time></trkpt><trkpt lat="43.2482267" lon="10.5447112"><ele>4.0</ele><time>2026-04-04T12:30:27.975Z</time></trkpt><trkpt lat="43.2482822" lon="10.5448383"><ele>3.75</ele><time>2026-04-04T12:30:28.956Z</time></trkpt><trkpt lat="43.2483371" lon="10.5449888"><ele>3.5</ele><time>2026-04-04T12:30:29.973Z</time></trkpt><trkpt lat="43.2483744" lon="10.5451608"><ele>3.25</ele><time>2026-04-04T12:30:30.955Z</time></trkpt><trkpt lat="43.2484096" lon="10.5453364"><ele>3.0</ele><time>2026-04-04T12:30:31.956Z</time></trkpt><trkpt lat="43.2484293" lon="10.5455269"><ele>3.5</ele><time>2026-04-04T12:30:32.957Z</time></trkpt><trkpt lat="43.248455" lon="10.5457225"><ele>4.0</ele><time>2026-04-04T12:30:33.962Z</time></trkpt><trkpt lat="43.2484813" lon="10.545918"><ele>4.5</ele><time>2026-04-04T12:30:34.971Z</time></trkpt><trkpt lat="43.2485079" lon="10.5461126"><ele>5.0</ele><time>2026-04-04T12:30:35.961Z</time></trkpt><trkpt lat="43.2485354" lon="10.5463146"><ele>5.25</ele><time>2026-04-04T12:30:36.966Z</time></trkpt><trkpt lat="43.2485635" lon="10.5465175"><ele>5.5</ele><time>2026-04-04T12:30:37.955Z</time></trkpt><trkpt lat="43.248592" lon="10.5467182"><ele>5.75</ele><time>2026-04-04T12:30:38.967Z</time></trkpt><trkpt lat="43.2486202" lon="10.5469128"><ele>6.0</ele><time>2026-04-04T12:30:39.967Z</time></trkpt><trkpt lat="43.2486488" lon="10.5470956"><ele>6.25</ele><time>2026-04-04T12:30:40.967Z</time></trkpt><trkpt lat="43.2486782" lon="10.5472803"><ele>6.5</ele><time>2026-04-04T12:30:41.961Z</time></trkpt><trkpt lat="43.2487056" lon="10.5474611"><ele>6.75</ele><time>2026-04-04T12:30:42.971Z</time></trkpt><trkpt lat="43.2487338" lon="10.5476461"><ele>7.0</ele><time>2026-04-04T12:30:43.971Z</time></trkpt><trkpt lat="43.2487587" lon="10.5478309"><ele>6.75</ele><time>2026-04-04T12:30:44.962Z</time></trkpt><trkpt lat="43.2487827" lon="10.5480146"><ele>6.5</ele><time>2026-04-04T12:30:45.973Z</time></trkpt><trkpt lat="43.2488106" lon="10.5482053"><ele>6.25</ele><time>2026-04-04T12:30:46.959Z</time></trkpt><trkpt lat="43.2488392" lon="10.5483978"><ele>6.0</ele><time>2026-04-04T12:30:47.948Z</time></trkpt><trkpt lat="43.2488671" lon="10.5485945"><ele>5.75</ele><time>2026-04-04T12:30:48.955Z</time></trkpt><trkpt lat="43.2488955" lon="10.5487912"><ele>5.5</ele><time>2026-04-04T12:30:49.971Z</time></trkpt><trkpt lat="43.2489238" lon="10.5489907"><ele>5.25</ele><time>2026-04-04T12:30:50.971Z</time></trkpt><trkpt lat="43.2489522" lon="10.5491925"><ele>5.0</ele><time>2026-04-04T12:30:51.968Z</time></trkpt><trkpt lat="43.24898" lon="10.5493838"><ele>5.75</ele><time>2026-04-04T12:30:52.954Z</time></trkpt><trkpt lat="43.249005" lon="10.5495598"><ele>6.5</ele><time>2026-04-04T12:30:53.947Z</time></trkpt><trkpt lat="43.2490271" lon="10.5497246"><ele>7.25</ele><time>2026-04-04T12:30:54.971Z</time></trkpt><trkpt lat="43.2490451" lon="10.5498796"><ele>8.0</ele><time>2026-04-04T12:30:55.957Z</time></trkpt><trkpt lat="43.2490562" lon="10.5500307"><ele>8.0</ele><time>2026-04-04T12:30:56.943Z</time></trkpt><trkpt lat="43.2490538" lon="10.5501791"><ele>8.0</ele><time>2026-04-04T12:30:57.97Z</time></trkpt><trkpt lat="43.2490358" lon="10.5503243"><ele>8.0</ele><time>2026-04-04T12:30:58.974Z</time></trkpt><trkpt lat="43.2490184" lon="10.5504624"><ele>8.0</ele><time>2026-04-04T12:30:59.952Z</time></trkpt><trkpt lat="43.2490014" lon="10.5505793"><ele>8.0</ele><time>2026-04-04T12:31:00.971Z</time></trkpt><trkpt lat="43.2490149" lon="10.5506765"><ele>8.166666666666666</ele><time>2026-04-04T12:31:01.964Z</time></trkpt><trkpt lat="43.2490584" lon="10.5507396"><ele>8.333333333333332</ele><time>2026-04-04T12:31:02.956Z</time></trkpt><trkpt lat="43.2491261" lon="10.550767"><ele>8.5</ele><time>2026-04-04T12:31:03.97Z</time></trkpt><trkpt lat="43.2492082" lon="10.5507499"><ele>8.666666666666666</ele><time>2026-04-04T12:31:04.954Z</time></trkpt><trkpt lat="43.2492983" lon="10.5507242"><ele>8.833333333333334</ele><time>2026-04-04T12:31:05.955Z</time></trkpt><trkpt lat="43.2493986" lon="10.55065"><ele>9.0</ele><time>2026-04-04T12:31:06.965Z</time></trkpt><trkpt lat="43.2495081" lon="10.5505748"><ele>9.0</ele><time>2026-04-04T12:31:07.973Z</time></trkpt><trkpt lat="43.24963" lon="10.5505159"><ele>9.0</ele><time>2026-04-04T12:31:08.968Z</time></trkpt><trkpt lat="43.2497611" lon="10.5504553"><ele>9.0</ele><time>2026-04-04T12:31:09.979Z</time></trkpt><trkpt lat="43.2499082" lon="10.5504029"><ele>9.0</ele><time>2026-04-04T12:31:10.973Z</time></trkpt><trkpt lat="43.2500576" lon="10.5503479"><ele>8.333333333333334</ele><time>2026-04-04T12:31:11.971Z</time></trkpt><trkpt lat="43.2502089" lon="10.5502929"><ele>7.666666666666667</ele><time>2026-04-04T12:31:12.963Z</time></trkpt><trkpt lat="43.2503623" lon="10.5502362"><ele>7.0</ele><time>2026-04-04T12:31:13.957Z</time></trkpt><trkpt lat="43.2505227" lon="10.5501766"><ele>7.333333333333334</ele><time>2026-04-04T12:31:14.967Z</time></trkpt><trkpt lat="43.2506895" lon="10.5501135"><ele>7.666666666666666</ele><time>2026-04-04T12:31:15.973Z</time></trkpt><trkpt lat="43.2508635" lon="10.5500467"><ele>8.0</ele><time>2026-04-04T12:31:16.944Z</time></trkpt><trkpt lat="43.2510435" lon="10.5499765"><ele>8.0</ele><time>2026-04-04T12:31:17.97Z</time></trkpt><trkpt lat="43.2512262" lon="10.5499074"><ele>8.0</ele><time>2026-04-04T12:31:18.97Z</time></trkpt><trkpt lat="43.2514079" lon="10.5498321"><ele>8.0</ele><time>2026-04-04T12:31:19.962Z</time></trkpt><trkpt lat="43.2515911" lon="10.5497701"><ele>7.333333333333333</ele><time>2026-04-04T12:31:20.968Z</time></trkpt><trkpt lat="43.251779" lon="10.5497022"><ele>6.666666666666666</ele><time>2026-04-04T12:31:21.972Z</time></trkpt><trkpt lat="43.2519738" lon="10.5496303"><ele>6.0</ele><time>2026-04-04T12:31:22.964Z</time></trkpt><trkpt lat="43.252163" lon="10.5495541"><ele>5.666666666666667</ele><time>2026-04-04T12:31:23.97Z</time></trkpt><trkpt lat="43.2523554" lon="10.5494815"><ele>5.333333333333334</ele><time>2026-04-04T12:31:24.953Z</time></trkpt><trkpt lat="43.2525458" lon="10.5494107"><ele>5.0</ele><time>2026-04-04T12:31:25.972Z</time></trkpt><trkpt lat="43.2527325" lon="10.5493413"><ele>5.0</ele><time>2026-04-04T12:31:26.953Z</time></trkpt><trkpt lat="43.252916" lon="10.5492689"><ele>5.0</ele><time>2026-04-04T12:31:27.967Z</time></trkpt><trkpt lat="43.2530984" lon="10.5491903"><ele>5.0</ele><time>2026-04-04T12:31:28.962Z</time></trkpt><trkpt lat="43.2532865" lon="10.5491095"><ele>5.333333333333334</ele><time>2026-04-04T12:31:29.949Z</time></trkpt><trkpt lat="43.2534698" lon="10.5490231"><ele>5.666666666666667</ele><time>2026-04-04T12:31:30.967Z</time></trkpt><trkpt lat="43.2536514" lon="10.5489238"><ele>6.0</ele><time>2026-04-04T12:31:31.968Z</time></trkpt><trkpt lat="43.2538353" lon="10.5488246"><ele>6.0</ele><time>2026-04-04T12:31:32.971Z</time></trkpt><trkpt lat="43.2540185" lon="10.5487235"><ele>6.0</ele><time>2026-04-04T12:31:33.956Z</time></trkpt><trkpt lat="43.2542022" lon="10.5486291"><ele>6.0</ele><time>2026-04-04T12:31:34.953Z</time></trkpt><trkpt lat="43.2543887" lon="10.5485461"><ele>6.0</ele><time>2026-04-04T12:31:35.972Z</time></trkpt><trkpt lat="43.2545767" lon="10.5484859"><ele>6.0</ele><time>2026-04-04T12:31:36.955Z</time></trkpt><trkpt lat="43.2547712" lon="10.5484373"><ele>6.0</ele><time>2026-04-04T12:31:37.968Z</time></trkpt><trkpt lat="43.2549715" lon="10.5483939"><ele>6.333333333333334</ele><time>2026-04-04T12:31:38.965Z</time></trkpt><trkpt lat="43.2551815" lon="10.5483209"><ele>6.666666666666667</ele><time>2026-04-04T12:31:39.971Z</time></trkpt><trkpt lat="43.255377" lon="10.5482559"><ele>7.0</ele><time>2026-04-04T12:31:40.943Z</time></trkpt><trkpt lat="43.2555732" lon="10.5481815"><ele>6.333333333333334</ele><time>2026-04-04T12:31:41.955Z</time></trkpt><trkpt lat="43.2557647" lon="10.5480955"><ele>5.666666666666667</ele><time>2026-04-04T12:31:42.964Z</time></trkpt><trkpt lat="43.2559538" lon="10.5480207"><ele>5.0</ele><time>2026-04-04T12:31:43.954Z</time></trkpt><trkpt lat="43.2561511" lon="10.5479582"><ele>5.0</ele><time>2026-04-04T12:31:44.958Z</time></trkpt><trkpt lat="43.2563457" lon="10.5479057"><ele>5.0</ele><time>2026-04-04T12:31:45.953Z</time></trkpt><trkpt lat="43.2565457" lon="10.5478791"><ele>5.0</ele><time>2026-04-04T12:31:46.969Z</time></trkpt><trkpt lat="43.256747" lon="10.5478573"><ele>5.0</ele><time>2026-04-04T12:31:47.975Z</time></trkpt><trkpt lat="43.2569464" lon="10.5478292"><ele>5.0</ele><time>2026-04-04T12:31:48.962Z</time></trkpt><trkpt lat="43.2571444" lon="10.5478032"><ele>5.0</ele><time>2026-04-04T12:31:49.974Z</time></trkpt><trkpt lat="43.2573353" lon="10.5477611"><ele>5.333333333333334</ele><time>2026-04-04T12:31:50.963Z</time></trkpt><trkpt lat="43.2575237" lon="10.5477058"><ele>5.666666666666667</ele><time>2026-04-04T12:31:51.963Z</time></trkpt><trkpt lat="43.2577072" lon="10.5476342"><ele>6.0</ele><time>2026-04-04T12:31:52.957Z</time></trkpt><trkpt lat="43.2578873" lon="10.5475515"><ele>6.0</ele><time>2026-04-04T12:31:53.951Z</time></trkpt><trkpt lat="43.2580686" lon="10.5474576"><ele>6.0</ele><time>2026-04-04T12:31:54.948Z</time></trkpt><trkpt lat="43.2582507" lon="10.5473685"><ele>6.0</ele><time>2026-04-04T12:31:55.971Z</time></trkpt><trkpt lat="43.258433" lon="10.5472777"><ele>6.0</ele><time>2026-04-04T12:31:56.96Z</time></trkpt><trkpt lat="43.2586129" lon="10.547187"><ele>6.0</ele><time>2026-04-04T12:31:57.972Z</time></trkpt><trkpt lat="43.2587956" lon="10.547096"><ele>6.0</ele><time>2026-04-04T12:31:58.968Z</time></trkpt><trkpt lat="43.2589783" lon="10.5470056"><ele>6.0</ele><time>2026-04-04T12:31:59.973Z</time></trkpt><trkpt lat="43.2591614" lon="10.5469162"><ele>6.0</ele><time>2026-04-04T12:32:00.964Z</time></trkpt><trkpt lat="43.2593438" lon="10.5468247"><ele>6.0</ele><time>2026-04-04T12:32:01.965Z</time></trkpt><trkpt lat="43.2595249" lon="10.5467344"><ele>6.0</ele><time>2026-04-04T12:32:02.958Z</time></trkpt><trkpt lat="43.2597043" lon="10.5466466"><ele>6.0</ele><time>2026-04-04T12:32:03.95Z</time></trkpt><trkpt lat="43.2598835" lon="10.5465676"><ele>6.0</ele><time>2026-04-04T12:32:04.956Z</time></trkpt><trkpt lat="43.260063" lon="10.5464977"><ele>6.333333333333334</ele><time>2026-04-04T12:32:05.949Z</time></trkpt><trkpt lat="43.2602427" lon="10.546442"><ele>6.666666666666667</ele><time>2026-04-04T12:32:06.963Z</time></trkpt><trkpt lat="43.2604221" lon="10.5463949"><ele>7.0</ele><time>2026-04-04T12:32:07.969Z</time></trkpt><trkpt lat="43.2606036" lon="10.5463557"><ele>7.0</ele><time>2026-04-04T12:32:08.949Z</time></trkpt><trkpt lat="43.260784" lon="10.5463249"><ele>7.0</ele><time>2026-04-04T12:32:09.966Z</time></trkpt><trkpt lat="43.2609656" lon="10.5463016"><ele>7.0</ele><time>2026-04-04T12:32:10.953Z</time></trkpt><trkpt lat="43.2611493" lon="10.5462853"><ele>7.0</ele><time>2026-04-04T12:32:11.971Z</time></trkpt><trkpt lat="43.2613318" lon="10.5462819"><ele>7.0</ele><time>2026-04-04T12:32:12.967Z</time></trkpt><trkpt lat="43.261507" lon="10.5462717"><ele>7.0</ele><time>2026-04-04T12:32:13.979Z</time></trkpt><trkpt lat="43.2616766" lon="10.5462596"><ele>6.666666666666667</ele><time>2026-04-04T12:32:14.953Z</time></trkpt><trkpt lat="43.2618354" lon="10.5462433"><ele>6.333333333333334</ele><time>2026-04-04T12:32:15.954Z</time></trkpt><trkpt lat="43.2619844" lon="10.5462284"><ele>6.0</ele><time>2026-04-04T12:32:16.976Z</time></trkpt><trkpt lat="43.2621306" lon="10.5462042"><ele>6.0</ele><time>2026-04-04T12:32:17.959Z</time></trkpt><trkpt lat="43.2622735" lon="10.5461699"><ele>6.0</ele><time>2026-04-04T12:32:18.963Z</time></trkpt><trkpt lat="43.2624153" lon="10.5461286"><ele>6.0</ele><time>2026-04-04T12:32:19.956Z</time></trkpt><trkpt lat="43.2625562" lon="10.5460869"><ele>6.0</ele><time>2026-04-04T12:32:20.962Z</time></trkpt><trkpt lat="43.2626678" lon="10.5460513"><ele>6.0</ele><time>2026-04-04T12:32:21.97Z</time></trkpt><trkpt lat="43.2627352" lon="10.5460259"><ele>6.0</ele><time>2026-04-04T12:32:22.952Z</time></trkpt><trkpt lat="43.2628052" lon="10.5460085"><ele>6.0</ele><time>2026-04-04T12:32:24.956Z</time></trkpt><trkpt lat="43.262863" lon="10.5460961"><ele>6.0</ele><time>2026-04-04T12:32:27.951Z</time></trkpt><trkpt lat="43.2628948" lon="10.5462247"><ele>6.0</ele><time>2026-04-04T12:32:29.953Z</time></trkpt><trkpt lat="43.262918" lon="10.546306"><ele>6.0</ele><time>2026-04-04T12:32:30.946Z</time></trkpt><trkpt lat="43.2629443" lon="10.5464002"><ele>5.8</ele><time>2026-04-04T12:32:31.965Z</time></trkpt><trkpt lat="43.2629755" lon="10.5465116"><ele>5.6</ele><time>2026-04-04T12:32:32.95Z</time></trkpt><trkpt lat="43.2630102" lon="10.546638"><ele>5.4</ele><time>2026-04-04T12:32:33.958Z</time></trkpt><trkpt lat="43.2630474" lon="10.5467806"><ele>5.2</ele><time>2026-04-04T12:32:34.975Z</time></trkpt><trkpt lat="43.2630872" lon="10.5469372"><ele>5.0</ele><time>2026-04-04T12:32:35.961Z</time></trkpt><trkpt lat="43.26313" lon="10.5471002"><ele>5.0</ele><time>2026-04-04T12:32:36.957Z</time></trkpt><trkpt lat="43.2631743" lon="10.5472681"><ele>5.0</ele><time>2026-04-04T12:32:37.955Z</time></trkpt><trkpt lat="43.263219" lon="10.5474473"><ele>5.0</ele><time>2026-04-04T12:32:38.97Z</time></trkpt><trkpt lat="43.2632682" lon="10.5476305"><ele>5.0</ele><time>2026-04-04T12:32:39.944Z</time></trkpt><trkpt lat="43.2633201" lon="10.5478126"><ele>5.5</ele><time>2026-04-04T12:32:40.959Z</time></trkpt><trkpt lat="43.2633725" lon="10.5479941"><ele>6.0</ele><time>2026-04-04T12:32:41.955Z</time></trkpt><trkpt lat="43.2634216" lon="10.5481756"><ele>6.5</ele><time>2026-04-04T12:32:42.955Z</time></trkpt><trkpt lat="43.263473" lon="10.5483643"><ele>7.0</ele><time>2026-04-04T12:32:43.956Z</time></trkpt><trkpt lat="43.2635245" lon="10.5485553"><ele>7.0</ele><time>2026-04-04T12:32:44.965Z</time></trkpt><trkpt lat="43.2635749" lon="10.5487448"><ele>7.0</ele><time>2026-04-04T12:32:45.963Z</time></trkpt><trkpt lat="43.2636301" lon="10.5489366"><ele>7.0</ele><time>2026-04-04T12:32:46.955Z</time></trkpt><trkpt lat="43.2636836" lon="10.5491309"><ele>7.0</ele><time>2026-04-04T12:32:47.968Z</time></trkpt><trkpt lat="43.2637395" lon="10.5493275"><ele>7.0</ele><time>2026-04-04T12:32:48.954Z</time></trkpt><trkpt lat="43.2637855" lon="10.549499"><ele>7.0</ele><time>2026-04-04T12:32:49.957Z</time></trkpt><trkpt lat="43.2638251" lon="10.5496442"><ele>7.0</ele><time>2026-04-04T12:32:50.965Z</time></trkpt><trkpt lat="43.2638657" lon="10.5497854"><ele>7.0</ele><time>2026-04-04T12:32:51.968Z</time></trkpt><trkpt lat="43.2639111" lon="10.5499356"><ele>7.25</ele><time>2026-04-04T12:32:52.953Z</time></trkpt><trkpt lat="43.2639551" lon="10.5501009"><ele>7.5</ele><time>2026-04-04T12:32:53.957Z</time></trkpt><trkpt lat="43.2640017" lon="10.5502716"><ele>7.75</ele><time>2026-04-04T12:32:54.973Z</time></trkpt><trkpt lat="43.2640506" lon="10.5504475"><ele>8.0</ele><time>2026-04-04T12:32:55.956Z</time></trkpt><trkpt lat="43.2640987" lon="10.5506214"><ele>8.25</ele><time>2026-04-04T12:32:56.957Z</time></trkpt><trkpt lat="43.2641465" lon="10.5507978"><ele>8.5</ele><time>2026-04-04T12:32:57.959Z</time></trkpt><trkpt lat="43.2641923" lon="10.5509762"><ele>8.75</ele><time>2026-04-04T12:32:58.961Z</time></trkpt><trkpt lat="43.264241" lon="10.5511611"><ele>9.0</ele><time>2026-04-04T12:32:59.953Z</time></trkpt><trkpt lat="43.2642916" lon="10.5513486"><ele>9.0</ele><time>2026-04-04T12:33:00.97Z</time></trkpt><trkpt lat="43.2643425" lon="10.5515401"><ele>9.0</ele><time>2026-04-04T12:33:01.967Z</time></trkpt><trkpt lat="43.2643961" lon="10.5517325"><ele>9.0</ele><time>2026-04-04T12:33:02.957Z</time></trkpt><trkpt lat="43.2644486" lon="10.5519224"><ele>9.0</ele><time>2026-04-04T12:33:03.974Z</time></trkpt><trkpt lat="43.2645017" lon="10.5521097"><ele>9.0</ele><time>2026-04-04T12:33:04.965Z</time></trkpt><trkpt lat="43.264555" lon="10.5522941"><ele>9.0</ele><time>2026-04-04T12:33:05.966Z</time></trkpt><trkpt lat="43.2646096" lon="10.5524798"><ele>9.0</ele><time>2026-04-04T12:33:06.97Z</time></trkpt><trkpt lat="43.2646618" lon="10.5526689"><ele>9.0</ele><time>2026-04-04T12:33:07.954Z</time></trkpt><trkpt lat="43.2647157" lon="10.552862"><ele>9.0</ele><time>2026-04-04T12:33:08.958Z</time></trkpt><trkpt lat="43.2647703" lon="10.5530541"><ele>9.0</ele><time>2026-04-04T12:33:09.968Z</time></trkpt><trkpt lat="43.2648242" lon="10.5532433"><ele>9.0</ele><time>2026-04-04T12:33:10.954Z</time></trkpt><trkpt lat="43.2648759" lon="10.5534228"><ele>9.0</ele><time>2026-04-04T12:33:11.973Z</time></trkpt><trkpt lat="43.2649312" lon="10.5535979"><ele>9.0</ele><time>2026-04-04T12:33:12.948Z</time></trkpt><trkpt lat="43.2649936" lon="10.5537648"><ele>9.0</ele><time>2026-04-04T12:33:13.97Z</time></trkpt><trkpt lat="43.2650626" lon="10.5539245"><ele>9.0</ele><time>2026-04-04T12:33:14.962Z</time></trkpt><trkpt lat="43.2651397" lon="10.5540809"><ele>9.0</ele><time>2026-04-04T12:33:15.963Z</time></trkpt><trkpt lat="43.2652209" lon="10.5542387"><ele>9.0</ele><time>2026-04-04T12:33:16.967Z</time></trkpt><trkpt lat="43.2653034" lon="10.5543989"><ele>9.0</ele><time>2026-04-04T12:33:17.968Z</time></trkpt><trkpt lat="43.2653872" lon="10.5545599"><ele>9.0</ele><time>2026-04-04T12:33:18.961Z</time></trkpt><trkpt lat="43.2654701" lon="10.554721"><ele>9.0</ele><time>2026-04-04T12:33:19.961Z</time></trkpt><trkpt lat="43.2655513" lon="10.5548906"><ele>9.0</ele><time>2026-04-04T12:33:20.951Z</time></trkpt><trkpt lat="43.2656318" lon="10.5550466"><ele>9.0</ele><time>2026-04-04T12:33:21.951Z</time></trkpt><trkpt lat="43.26571" lon="10.555189"><ele>9.0</ele><time>2026-04-04T12:33:22.958Z</time></trkpt><trkpt lat="43.2657818" lon="10.5553229"><ele>9.0</ele><time>2026-04-04T12:33:23.97Z</time></trkpt><trkpt lat="43.2658483" lon="10.5554483"><ele>9.0</ele><time>2026-04-04T12:33:24.967Z</time></trkpt><trkpt lat="43.2659139" lon="10.5555723"><ele>9.0</ele><time>2026-04-04T12:33:25.96Z</time></trkpt><trkpt lat="43.2659786" lon="10.5557007"><ele>9.0</ele><time>2026-04-04T12:33:26.961Z</time></trkpt><trkpt lat="43.2660422" lon="10.5558421"><ele>9.0</ele><time>2026-04-04T12:33:27.954Z</time></trkpt><trkpt lat="43.266111" lon="10.5559893"><ele>9.0</ele><time>2026-04-04T12:33:28.96Z</time></trkpt><trkpt lat="43.266187" lon="10.5561425"><ele>9.0</ele><time>2026-04-04T12:33:29.967Z</time></trkpt><trkpt lat="43.2662679" lon="10.5563008"><ele>9.0</ele><time>2026-04-04T12:33:30.97Z</time></trkpt><trkpt lat="43.2663521" lon="10.5564668"><ele>9.0</ele><time>2026-04-04T12:33:31.967Z</time></trkpt><trkpt lat="43.26644" lon="10.5566401"><ele>9.333333333333334</ele><time>2026-04-04T12:33:32.946Z</time></trkpt><trkpt lat="43.2665295" lon="10.5568169"><ele>9.666666666666668</ele><time>2026-04-04T12:33:33.957Z</time></trkpt><trkpt lat="43.2666215" lon="10.556997"><ele>10.0</ele><time>2026-04-04T12:33:34.957Z</time></trkpt><trkpt lat="43.2667121" lon="10.5571905"><ele>11.0</ele><time>2026-04-04T12:33:35.947Z</time></trkpt><trkpt lat="43.2668074" lon="10.5573795"><ele>12.0</ele><time>2026-04-04T12:33:36.968Z</time></trkpt><trkpt lat="43.266902" lon="10.5575701"><ele>13.0</ele><time>2026-04-04T12:33:37.956Z</time></trkpt><trkpt lat="43.2669969" lon="10.5577603"><ele>12.666666666666666</ele><time>2026-04-04T12:33:38.965Z</time></trkpt><trkpt lat="43.2670907" lon="10.557946"><ele>12.333333333333332</ele><time>2026-04-04T12:33:39.956Z</time></trkpt><trkpt lat="43.2671832" lon="10.5581302"><ele>12.0</ele><time>2026-04-04T12:33:40.949Z</time></trkpt><trkpt lat="43.2672737" lon="10.5583113"><ele>12.25</ele><time>2026-04-04T12:33:41.961Z</time></trkpt><trkpt lat="43.2673617" lon="10.5584864"><ele>12.5</ele><time>2026-04-04T12:33:42.963Z</time></trkpt><trkpt lat="43.2674427" lon="10.5586501"><ele>12.75</ele><time>2026-04-04T12:33:43.957Z</time></trkpt><trkpt lat="43.2675171" lon="10.5588001"><ele>13.0</ele><time>2026-04-04T12:33:44.952Z</time></trkpt><trkpt lat="43.2675837" lon="10.5589323"><ele>12.999999999999998</ele><time>2026-04-04T12:33:45.963Z</time></trkpt><trkpt lat="43.267643" lon="10.5590498"><ele>13.0</ele><time>2026-04-04T12:33:46.969Z</time></trkpt><trkpt lat="43.2676922" lon="10.5591561"><ele>13.0</ele><time>2026-04-04T12:33:47.967Z</time></trkpt><trkpt lat="43.2677254" lon="10.5592581"><ele>13.0</ele><time>2026-04-04T12:33:48.974Z</time></trkpt><trkpt lat="43.2677381" lon="10.5593519"><ele>12.999999999999998</ele><time>2026-04-04T12:33:49.967Z</time></trkpt><trkpt lat="43.2677403" lon="10.5594585"><ele>13.0</ele><time>2026-04-04T12:33:50.968Z</time></trkpt><trkpt lat="43.2677607" lon="10.5595821"><ele>13.25</ele><time>2026-04-04T12:33:51.975Z</time></trkpt><trkpt lat="43.2677943" lon="10.5597308"><ele>13.5</ele><time>2026-04-04T12:33:52.953Z</time></trkpt><trkpt lat="43.2678437" lon="10.5599056"><ele>13.75</ele><time>2026-04-04T12:33:53.968Z</time></trkpt><trkpt lat="43.2678947" lon="10.5600939"><ele>14.0</ele><time>2026-04-04T12:33:54.962Z</time></trkpt><trkpt lat="43.2679433" lon="10.5602845"><ele>14.0</ele><time>2026-04-04T12:33:55.957Z</time></trkpt><trkpt lat="43.2679911" lon="10.5604698"><ele>14.0</ele><time>2026-04-04T12:33:56.965Z</time></trkpt><trkpt lat="43.2680387" lon="10.5606506"><ele>14.0</ele><time>2026-04-04T12:33:57.942Z</time></trkpt><trkpt lat="43.2680814" lon="10.560824"><ele>14.0</ele><time>2026-04-04T12:33:58.959Z</time></trkpt><trkpt lat="43.2681238" lon="10.5609968"><ele>14.0</ele><time>2026-04-04T12:33:59.972Z</time></trkpt><trkpt lat="43.2681615" lon="10.5611672"><ele>14.0</ele><time>2026-04-04T12:34:00.97Z</time></trkpt><trkpt lat="43.2681967" lon="10.56133"><ele>14.0</ele><time>2026-04-04T12:34:01.951Z</time></trkpt><trkpt lat="43.2682341" lon="10.5614818"><ele>14.0</ele><time>2026-04-04T12:34:02.966Z</time></trkpt><trkpt lat="43.2682792" lon="10.5616357"><ele>14.25</ele><time>2026-04-04T12:34:03.955Z</time></trkpt><trkpt lat="43.2683249" lon="10.5617966"><ele>14.5</ele><time>2026-04-04T12:34:04.954Z</time></trkpt><trkpt lat="43.2683686" lon="10.561961"><ele>14.75</ele><time>2026-04-04T12:34:05.958Z</time></trkpt><trkpt lat="43.2684091" lon="10.5621197"><ele>15.0</ele><time>2026-04-04T12:34:06.962Z</time></trkpt><trkpt lat="43.2684467" lon="10.5622689"><ele>15.166666666666666</ele><time>2026-04-04T12:34:07.961Z</time></trkpt><trkpt lat="43.2684799" lon="10.5624031"><ele>15.333333333333332</ele><time>2026-04-04T12:34:08.952Z</time></trkpt><trkpt lat="43.2685122" lon="10.562525"><ele>15.5</ele><time>2026-04-04T12:34:09.968Z</time></trkpt><trkpt lat="43.268544" lon="10.5626337"><ele>15.666666666666666</ele><time>2026-04-04T12:34:10.949Z</time></trkpt><trkpt lat="43.2685872" lon="10.5627212"><ele>15.833333333333332</ele><time>2026-04-04T12:34:11.971Z</time></trkpt><trkpt lat="43.2686395" lon="10.5628045"><ele>16.0</ele><time>2026-04-04T12:34:12.945Z</time></trkpt><trkpt lat="43.2686923" lon="10.5628844"><ele>15.999999999999998</ele><time>2026-04-04T12:34:13.971Z</time></trkpt><trkpt lat="43.268743" lon="10.5629722"><ele>16.0</ele><time>2026-04-04T12:34:14.963Z</time></trkpt><trkpt lat="43.2687831" lon="10.5630826"><ele>16.0</ele><time>2026-04-04T12:34:15.948Z</time></trkpt><trkpt lat="43.2688179" lon="10.5632037"><ele>16.0</ele><time>2026-04-04T12:34:16.962Z</time></trkpt><trkpt lat="43.2688474" lon="10.5633271"><ele>15.999999999999998</ele><time>2026-04-04T12:34:17.967Z</time></trkpt><trkpt lat="43.2688781" lon="10.5634364"><ele>16.0</ele><time>2026-04-04T12:34:18.956Z</time></trkpt><trkpt lat="43.2689045" lon="10.5635426"><ele>16.0</ele><time>2026-04-04T12:34:19.968Z</time></trkpt><trkpt lat="43.2689295" lon="10.5636613"><ele>16.0</ele><time>2026-04-04T12:34:20.969Z</time></trkpt><trkpt lat="43.2689527" lon="10.5637814"><ele>16.0</ele><time>2026-04-04T12:34:21.969Z</time></trkpt><trkpt lat="43.2689794" lon="10.5639017"><ele>16.0</ele><time>2026-04-04T12:34:22.949Z</time></trkpt><trkpt lat="43.2690081" lon="10.5640276"><ele>16.0</ele><time>2026-04-04T12:34:23.951Z</time></trkpt><trkpt lat="43.26904" lon="10.5641571"><ele>16.166666666666664</ele><time>2026-04-04T12:34:24.956Z</time></trkpt><trkpt lat="43.2690694" lon="10.5642816"><ele>16.333333333333332</ele><time>2026-04-04T12:34:25.965Z</time></trkpt><trkpt lat="43.2691043" lon="10.5644055"><ele>16.5</ele><time>2026-04-04T12:34:26.958Z</time></trkpt><trkpt lat="43.2691346" lon="10.5645236"><ele>16.666666666666668</ele><time>2026-04-04T12:34:27.975Z</time></trkpt><trkpt lat="43.2691562" lon="10.5646309"><ele>16.833333333333336</ele><time>2026-04-04T12:34:28.968Z</time></trkpt><trkpt lat="43.2691759" lon="10.5647305"><ele>17.0</ele><time>2026-04-04T12:34:29.97Z</time></trkpt><trkpt lat="43.2692045" lon="10.5648131"><ele>17.2</ele><time>2026-04-04T12:34:30.958Z</time></trkpt><trkpt lat="43.2692412" lon="10.5648883"><ele>17.4</ele><time>2026-04-04T12:34:31.948Z</time></trkpt><trkpt lat="43.2692696" lon="10.5649974"><ele>17.6</ele><time>2026-04-04T12:34:32.951Z</time></trkpt><trkpt lat="43.2693031" lon="10.5651161"><ele>17.8</ele><time>2026-04-04T12:34:33.971Z</time></trkpt><trkpt lat="43.269336" lon="10.565244"><ele>18.0</ele><time>2026-04-04T12:34:34.97Z</time></trkpt><trkpt lat="43.2693689" lon="10.5653851"><ele>18.25</ele><time>2026-04-04T12:34:35.951Z</time></trkpt><trkpt lat="43.2694026" lon="10.5655419"><ele>18.5</ele><time>2026-04-04T12:34:36.967Z</time></trkpt><trkpt lat="43.2694385" lon="10.5656969"><ele>18.75</ele><time>2026-04-04T12:34:37.968Z</time></trkpt><trkpt lat="43.2694737" lon="10.5658477"><ele>19.0</ele><time>2026-04-04T12:34:38.963Z</time></trkpt><trkpt lat="43.2695041" lon="10.5659936"><ele>19.0</ele><time>2026-04-04T12:34:39.952Z</time></trkpt><trkpt lat="43.2695389" lon="10.5661378"><ele>19.0</ele><time>2026-04-04T12:34:40.969Z</time></trkpt><trkpt lat="43.269573" lon="10.5662648"><ele>19.0</ele><time>2026-04-04T12:34:41.958Z</time></trkpt><trkpt lat="43.2696025" lon="10.5663832"><ele>19.0</ele><time>2026-04-04T12:34:42.952Z</time></trkpt><trkpt lat="43.2696254" lon="10.5664889"><ele>19.0</ele><time>2026-04-04T12:34:43.953Z</time></trkpt><trkpt lat="43.2696437" lon="10.5665845"><ele>19.333333333333332</ele><time>2026-04-04T12:34:44.956Z</time></trkpt><trkpt lat="43.2696572" lon="10.5666724"><ele>19.666666666666664</ele><time>2026-04-04T12:34:45.965Z</time></trkpt><trkpt lat="43.26967" lon="10.5667703"><ele>20.0</ele><time>2026-04-04T12:34:46.949Z</time></trkpt><trkpt lat="43.2696672" lon="10.5668764"><ele>20.333333333333332</ele><time>2026-04-04T12:34:47.969Z</time></trkpt><trkpt lat="43.2696583" lon="10.5669946"><ele>20.666666666666668</ele><time>2026-04-04T12:34:48.955Z</time></trkpt><trkpt lat="43.269649" lon="10.5671192"><ele>21.0</ele><time>2026-04-04T12:34:49.969Z</time></trkpt><trkpt lat="43.2696266" lon="10.5672416"><ele>21.333333333333332</ele><time>2026-04-04T12:34:50.968Z</time></trkpt><trkpt lat="43.2696146" lon="10.5673575"><ele>21.666666666666668</ele><time>2026-04-04T12:34:51.96Z</time></trkpt><trkpt lat="43.2696297" lon="10.5674774"><ele>22.0</ele><time>2026-04-04T12:34:52.975Z</time></trkpt><trkpt lat="43.2696481" lon="10.5675927"><ele>22.333333333333336</ele><time>2026-04-04T12:34:53.963Z</time></trkpt><trkpt lat="43.2696896" lon="10.5676886"><ele>22.666666666666668</ele><time>2026-04-04T12:34:54.96Z</time></trkpt><trkpt lat="43.2697311" lon="10.5677725"><ele>23.0</ele><time>2026-04-04T12:34:55.967Z</time></trkpt><trkpt lat="43.2697699" lon="10.5678522"><ele>22.4</ele><time>2026-04-04T12:34:56.95Z</time></trkpt><trkpt lat="43.2698254" lon="10.5679812"><ele>21.799999999999997</ele><time>2026-04-04T12:34:58.967Z</time></trkpt><trkpt lat="43.2698728" lon="10.568061"><ele>21.2</ele><time>2026-04-04T12:35:01.956Z</time></trkpt><trkpt lat="43.2699494" lon="10.568074"><ele>20.6</ele><time>2026-04-04T12:35:03.953Z</time></trkpt><trkpt lat="43.2700695" lon="10.5680474"><ele>20.0</ele><time>2026-04-04T12:35:05.963Z</time></trkpt><trkpt lat="43.2701513" lon="10.5680274"><ele>20.0</ele><time>2026-04-04T12:35:06.96Z</time></trkpt><trkpt lat="43.2702436" lon="10.5680045"><ele>20.0</ele><time>2026-04-04T12:35:07.955Z</time></trkpt><trkpt lat="43.2703427" lon="10.5679836"><ele>20.0</ele><time>2026-04-04T12:35:08.966Z</time></trkpt><trkpt lat="43.2704454" lon="10.5679622"><ele>20.0</ele><time>2026-04-04T12:35:09.962Z</time></trkpt><trkpt lat="43.2705518" lon="10.5679392"><ele>20.0</ele><time>2026-04-04T12:35:10.967Z</time></trkpt><trkpt lat="43.2706617" lon="10.5679134"><ele>19.6</ele><time>2026-04-04T12:35:11.957Z</time></trkpt><trkpt lat="43.2707741" lon="10.5678866"><ele>19.2</ele><time>2026-04-04T12:35:12.971Z</time></trkpt><trkpt lat="43.2708876" lon="10.5678619"><ele>18.8</ele><time>2026-04-04T12:35:13.951Z</time></trkpt><trkpt lat="43.2709966" lon="10.5678394"><ele>18.4</ele><time>2026-04-04T12:35:14.953Z</time></trkpt><trkpt lat="43.2710971" lon="10.5678176"><ele>18.0</ele><time>2026-04-04T12:35:15.966Z</time></trkpt><trkpt lat="43.2711851" lon="10.567801"><ele>17.833333333333332</ele><time>2026-04-04T12:35:16.97Z</time></trkpt><trkpt lat="43.2712664" lon="10.5677856"><ele>17.666666666666668</ele><time>2026-04-04T12:35:17.963Z</time></trkpt><trkpt lat="43.2713353" lon="10.5677786"><ele>17.5</ele><time>2026-04-04T12:35:18.953Z</time></trkpt><trkpt lat="43.2714035" lon="10.5677747"><ele>17.333333333333336</ele><time>2026-04-04T12:35:19.954Z</time></trkpt><trkpt lat="43.2715028" lon="10.5677854"><ele>17.166666666666668</ele><time>2026-04-04T12:35:21.951Z</time></trkpt><trkpt lat="43.2715711" lon="10.5677726"><ele>17.0</ele><time>2026-04-04T12:35:30.971Z</time></trkpt><trkpt lat="43.2716405" lon="10.5676993"><ele>17.4</ele><time>2026-04-04T12:35:32.979Z</time></trkpt><trkpt lat="43.271687" lon="10.5676373"><ele>17.799999999999997</ele><time>2026-04-04T12:35:33.963Z</time></trkpt><trkpt lat="43.2717461" lon="10.5675558"><ele>18.2</ele><time>2026-04-04T12:35:34.952Z</time></trkpt><trkpt lat="43.2718148" lon="10.5674568"><ele>18.599999999999998</ele><time>2026-04-04T12:35:35.952Z</time></trkpt><trkpt lat="43.2718898" lon="10.5673497"><ele>19.0</ele><time>2026-04-04T12:35:36.966Z</time></trkpt><trkpt lat="43.2719702" lon="10.5672393"><ele>19.0</ele><time>2026-04-04T12:35:37.949Z</time></trkpt><trkpt lat="43.2720542" lon="10.5671219"><ele>19.0</ele><time>2026-04-04T12:35:38.972Z</time></trkpt><trkpt lat="43.2721423" lon="10.5669959"><ele>19.0</ele><time>2026-04-04T12:35:39.954Z</time></trkpt><trkpt lat="43.272231" lon="10.5668711"><ele>19.0</ele><time>2026-04-04T12:35:40.957Z</time></trkpt><trkpt lat="43.2723191" lon="10.5667446"><ele>18.75</ele><time>2026-04-04T12:35:41.961Z</time></trkpt><trkpt lat="43.2724069" lon="10.5666208"><ele>18.5</ele><time>2026-04-04T12:35:42.97Z</time></trkpt><trkpt lat="43.2724952" lon="10.5664949"><ele>18.25</ele><time>2026-04-04T12:35:43.961Z</time></trkpt><trkpt lat="43.2725863" lon="10.5663641"><ele>18.0</ele><time>2026-04-04T12:35:44.956Z</time></trkpt><trkpt lat="43.2726843" lon="10.5662274"><ele>18.0</ele><time>2026-04-04T12:35:45.959Z</time></trkpt><trkpt lat="43.2727828" lon="10.5660844"><ele>18.0</ele><time>2026-04-04T12:35:46.952Z</time></trkpt><trkpt lat="43.2728853" lon="10.5659341"><ele>18.0</ele><time>2026-04-04T12:35:47.953Z</time></trkpt><trkpt lat="43.2729873" lon="10.5657843"><ele>18.0</ele><time>2026-04-04T12:35:48.963Z</time></trkpt><trkpt lat="43.2730919" lon="10.5656358"><ele>18.0</ele><time>2026-04-04T12:35:49.964Z</time></trkpt><trkpt lat="43.2731953" lon="10.5654886"><ele>18.0</ele><time>2026-04-04T12:35:50.966Z</time></trkpt><trkpt lat="43.2732974" lon="10.5653444"><ele>18.0</ele><time>2026-04-04T12:35:51.953Z</time></trkpt><trkpt lat="43.2733993" lon="10.5652008"><ele>18.0</ele><time>2026-04-04T12:35:52.963Z</time></trkpt><trkpt lat="43.2735006" lon="10.565055"><ele>17.75</ele><time>2026-04-04T12:35:53.963Z</time></trkpt><trkpt lat="43.2736011" lon="10.5649075"><ele>17.5</ele><time>2026-04-04T12:35:54.961Z</time></trkpt><trkpt lat="43.2737023" lon="10.5647617"><ele>17.25</ele><time>2026-04-04T12:35:55.967Z</time></trkpt><trkpt lat="43.2738052" lon="10.5646168"><ele>17.0</ele><time>2026-04-04T12:35:56.955Z</time></trkpt><trkpt lat="43.2739089" lon="10.5644716"><ele>17.333333333333336</ele><time>2026-04-04T12:35:57.963Z</time></trkpt><trkpt lat="43.2740147" lon="10.5643239"><ele>17.666666666666668</ele><time>2026-04-04T12:35:58.962Z</time></trkpt><trkpt lat="43.2741219" lon="10.5641721"><ele>18.0</ele><time>2026-04-04T12:35:59.97Z</time></trkpt><trkpt lat="43.27423" lon="10.5640179"><ele>18.0</ele><time>2026-04-04T12:36:00.942Z</time></trkpt><trkpt lat="43.2743389" lon="10.5638626"><ele>18.0</ele><time>2026-04-04T12:36:01.968Z</time></trkpt><trkpt lat="43.2744497" lon="10.5637062"><ele>18.0</ele><time>2026-04-04T12:36:02.957Z</time></trkpt><trkpt lat="43.2745614" lon="10.5635456"><ele>17.666666666666668</ele><time>2026-04-04T12:36:03.95Z</time></trkpt><trkpt lat="43.274675" lon="10.563385"><ele>17.333333333333336</ele><time>2026-04-04T12:36:04.969Z</time></trkpt><trkpt lat="43.2747906" lon="10.5632215"><ele>17.0</ele><time>2026-04-04T12:36:05.954Z</time></trkpt><trkpt lat="43.2749078" lon="10.5630528"><ele>17.0</ele><time>2026-04-04T12:36:06.973Z</time></trkpt><trkpt lat="43.2750283" lon="10.5628789"><ele>17.0</ele><time>2026-04-04T12:36:07.957Z</time></trkpt><trkpt lat="43.2751489" lon="10.5627052"><ele>17.0</ele><time>2026-04-04T12:36:08.955Z</time></trkpt><trkpt lat="43.2752694" lon="10.5625312"><ele>17.0</ele><time>2026-04-04T12:36:09.959Z</time></trkpt><trkpt lat="43.2753934" lon="10.5623529"><ele>17.0</ele><time>2026-04-04T12:36:10.954Z</time></trkpt><trkpt lat="43.2755191" lon="10.5621728"><ele>17.0</ele><time>2026-04-04T12:36:11.966Z</time></trkpt><trkpt lat="43.2756473" lon="10.5619858"><ele>16.666666666666668</ele><time>2026-04-04T12:36:12.964Z</time></trkpt><trkpt lat="43.275777" lon="10.5618007"><ele>16.333333333333332</ele><time>2026-04-04T12:36:13.961Z</time></trkpt><trkpt lat="43.2759075" lon="10.5616131"><ele>16.0</ele><time>2026-04-04T12:36:14.967Z</time></trkpt><trkpt lat="43.2760356" lon="10.5614228"><ele>16.0</ele><time>2026-04-04T12:36:15.962Z</time></trkpt><trkpt lat="43.276163" lon="10.5612292"><ele>16.0</ele><time>2026-04-04T12:36:16.964Z</time></trkpt><trkpt lat="43.2762869" lon="10.5610319"><ele>16.0</ele><time>2026-04-04T12:36:17.954Z</time></trkpt><trkpt lat="43.2764137" lon="10.5608337"><ele>16.666666666666664</ele><time>2026-04-04T12:36:18.967Z</time></trkpt><trkpt lat="43.2765411" lon="10.5606332"><ele>17.333333333333332</ele><time>2026-04-04T12:36:19.97Z</time></trkpt><trkpt lat="43.276671" lon="10.5604357"><ele>18.0</ele><time>2026-04-04T12:36:20.956Z</time></trkpt><trkpt lat="43.2768036" lon="10.5602411"><ele>18.0</ele><time>2026-04-04T12:36:21.952Z</time></trkpt><trkpt lat="43.2769374" lon="10.5600495"><ele>18.0</ele><time>2026-04-04T12:36:22.971Z</time></trkpt><trkpt lat="43.2770733" lon="10.5598617"><ele>18.0</ele><time>2026-04-04T12:36:23.944Z</time></trkpt><trkpt lat="43.2772094" lon="10.5596746"><ele>17.666666666666668</ele><time>2026-04-04T12:36:24.959Z</time></trkpt><trkpt lat="43.2773461" lon="10.5594885"><ele>17.333333333333336</ele><time>2026-04-04T12:36:25.965Z</time></trkpt><trkpt lat="43.2774791" lon="10.55931"><ele>17.0</ele><time>2026-04-04T12:36:26.955Z</time></trkpt><trkpt lat="43.2776137" lon="10.5591244"><ele>17.0</ele><time>2026-04-04T12:36:27.969Z</time></trkpt><trkpt lat="43.2777492" lon="10.5589408"><ele>17.0</ele><time>2026-04-04T12:36:28.966Z</time></trkpt><trkpt lat="43.2778857" lon="10.5587574"><ele>17.0</ele><time>2026-04-04T12:36:29.954Z</time></trkpt><trkpt lat="43.278026" lon="10.5585812"><ele>18.0</ele><time>2026-04-04T12:36:30.974Z</time></trkpt><trkpt lat="43.2781746" lon="10.5584192"><ele>19.0</ele><time>2026-04-04T12:36:31.955Z</time></trkpt><trkpt lat="43.2783382" lon="10.5582837"><ele>20.0</ele><time>2026-04-04T12:36:32.951Z</time></trkpt><trkpt lat="43.2785081" lon="10.5581673"><ele>20.0</ele><time>2026-04-04T12:36:33.97Z</time></trkpt><trkpt lat="43.2786878" lon="10.558066"><ele>20.0</ele><time>2026-04-04T12:36:34.953Z</time></trkpt><trkpt lat="43.2788705" lon="10.5579784"><ele>20.0</ele><time>2026-04-04T12:36:35.966Z</time></trkpt><trkpt lat="43.2790515" lon="10.5578935"><ele>20.666666666666668</ele><time>2026-04-04T12:36:36.963Z</time></trkpt><trkpt lat="43.2792314" lon="10.5577945"><ele>21.333333333333332</ele><time>2026-04-04T12:36:37.957Z</time></trkpt><trkpt lat="43.2794125" lon="10.5576937"><ele>22.0</ele><time>2026-04-04T12:36:38.97Z</time></trkpt><trkpt lat="43.2795984" lon="10.5575964"><ele>22.0</ele><time>2026-04-04T12:36:39.953Z</time></trkpt><trkpt lat="43.2797868" lon="10.5574978"><ele>22.0</ele><time>2026-04-04T12:36:40.971Z</time></trkpt><trkpt lat="43.2799747" lon="10.5573988"><ele>22.0</ele><time>2026-04-04T12:36:41.957Z</time></trkpt><trkpt lat="43.2801619" lon="10.5573008"><ele>22.0</ele><time>2026-04-04T12:36:42.961Z</time></trkpt><trkpt lat="43.2803472" lon="10.557202"><ele>22.0</ele><time>2026-04-04T12:36:43.953Z</time></trkpt><trkpt lat="43.2805296" lon="10.5571044"><ele>22.0</ele><time>2026-04-04T12:36:44.971Z</time></trkpt><trkpt lat="43.2807105" lon="10.5570086"><ele>21.333333333333332</ele><time>2026-04-04T12:36:45.953Z</time></trkpt><trkpt lat="43.2808868" lon="10.5569171"><ele>20.666666666666668</ele><time>2026-04-04T12:36:46.97Z</time></trkpt><trkpt lat="43.2810531" lon="10.5568311"><ele>20.0</ele><time>2026-04-04T12:36:47.962Z</time></trkpt><trkpt lat="43.281209" lon="10.5567493"><ele>20.0</ele><time>2026-04-04T12:36:48.951Z</time></trkpt><trkpt lat="43.2813532" lon="10.5566709"><ele>20.0</ele><time>2026-04-04T12:36:49.952Z</time></trkpt><trkpt lat="43.2814817" lon="10.5566008"><ele>20.0</ele><time>2026-04-04T12:36:50.955Z</time></trkpt><trkpt lat="43.2815931" lon="10.55654"><ele>20.0</ele><time>2026-04-04T12:36:51.952Z</time></trkpt><trkpt lat="43.2816889" lon="10.5564863"><ele>20.0</ele><time>2026-04-04T12:36:52.97Z</time></trkpt><trkpt lat="43.2817672" lon="10.5564465"><ele>20.0</ele><time>2026-04-04T12:36:53.955Z</time></trkpt><trkpt lat="43.2818308" lon="10.5564266"><ele>20.0</ele><time>2026-04-04T12:36:54.961Z</time></trkpt><trkpt lat="43.2819192" lon="10.55651"><ele>20.0</ele><time>2026-04-04T12:36:56.966Z</time></trkpt><trkpt lat="43.2819546" lon="10.5565942"><ele>20.0</ele><time>2026-04-04T12:36:57.962Z</time></trkpt><trkpt lat="43.2819761" lon="10.5566983"><ele>20.0</ele><time>2026-04-04T12:36:58.965Z</time></trkpt><trkpt lat="43.2820032" lon="10.5568093"><ele>20.0</ele><time>2026-04-04T12:36:59.95Z</time></trkpt><trkpt lat="43.2820333" lon="10.556929"><ele>20.0</ele><time>2026-04-04T12:37:00.974Z</time></trkpt><trkpt lat="43.2820705" lon="10.5570485"><ele>20.0</ele><time>2026-04-04T12:37:01.959Z</time></trkpt><trkpt lat="43.2821144" lon="10.5571785"><ele>20.0</ele><time>2026-04-04T12:37:02.954Z</time></trkpt><trkpt lat="43.282155" lon="10.5573143"><ele>20.0</ele><time>2026-04-04T12:37:03.97Z</time></trkpt><trkpt lat="43.2821979" lon="10.5574666"><ele>20.75</ele><time>2026-04-04T12:37:04.95Z</time></trkpt><trkpt lat="43.2822369" lon="10.557623"><ele>21.5</ele><time>2026-04-04T12:37:05.957Z</time></trkpt><trkpt lat="43.2822773" lon="10.5577734"><ele>22.25</ele><time>2026-04-04T12:37:06.951Z</time></trkpt><trkpt lat="43.282323" lon="10.5579295"><ele>23.0</ele><time>2026-04-04T12:37:07.957Z</time></trkpt><trkpt lat="43.282376" lon="10.5580878"><ele>23.5</ele><time>2026-04-04T12:37:08.969Z</time></trkpt><trkpt lat="43.2824241" lon="10.5582488"><ele>24.0</ele><time>2026-04-04T12:37:09.968Z</time></trkpt><trkpt lat="43.2824729" lon="10.5584124"><ele>24.5</ele><time>2026-04-04T12:37:10.968Z</time></trkpt><trkpt lat="43.282525" lon="10.5585807"><ele>25.0</ele><time>2026-04-04T12:37:11.967Z</time></trkpt><trkpt lat="43.2825739" lon="10.5587495"><ele>25.25</ele><time>2026-04-04T12:37:12.954Z</time></trkpt><trkpt lat="43.2826176" lon="10.5589102"><ele>25.5</ele><time>2026-04-04T12:37:13.955Z</time></trkpt><trkpt lat="43.2826627" lon="10.5590711"><ele>25.75</ele><time>2026-04-04T12:37:14.957Z</time></trkpt><trkpt lat="43.2827064" lon="10.5592275"><ele>26.0</ele><time>2026-04-04T12:37:15.955Z</time></trkpt><trkpt lat="43.282751" lon="10.5593826"><ele>26.5</ele><time>2026-04-04T12:37:16.965Z</time></trkpt><trkpt lat="43.2827906" lon="10.5595373"><ele>27.0</ele><time>2026-04-04T12:37:17.973Z</time></trkpt><trkpt lat="43.2828322" lon="10.5596932"><ele>27.5</ele><time>2026-04-04T12:37:18.955Z</time></trkpt><trkpt lat="43.2828778" lon="10.5598474"><ele>28.0</ele><time>2026-04-04T12:37:19.97Z</time></trkpt><trkpt lat="43.2829231" lon="10.560003"><ele>28.0</ele><time>2026-04-04T12:37:20.961Z</time></trkpt><trkpt lat="43.2829664" lon="10.5601689"><ele>28.0</ele><time>2026-04-04T12:37:21.964Z</time></trkpt><trkpt lat="43.2830119" lon="10.5603282"><ele>28.0</ele><time>2026-04-04T12:37:22.954Z</time></trkpt><trkpt lat="43.2830588" lon="10.56049"><ele>28.0</ele><time>2026-04-04T12:37:23.951Z</time></trkpt><trkpt lat="43.283107" lon="10.5606505"><ele>28.25</ele><time>2026-04-04T12:37:24.964Z</time></trkpt><trkpt lat="43.2831542" lon="10.5608108"><ele>28.5</ele><time>2026-04-04T12:37:25.953Z</time></trkpt><trkpt lat="43.2832078" lon="10.5609717"><ele>28.75</ele><time>2026-04-04T12:37:26.965Z</time></trkpt><trkpt lat="43.2832572" lon="10.5611346"><ele>29.0</ele><time>2026-04-04T12:37:27.954Z</time></trkpt><trkpt lat="43.2833019" lon="10.5613036"><ele>29.25</ele><time>2026-04-04T12:37:28.952Z</time></trkpt><trkpt lat="43.2833488" lon="10.5614675"><ele>29.5</ele><time>2026-04-04T12:37:29.961Z</time></trkpt><trkpt lat="43.2834008" lon="10.5616332"><ele>29.75</ele><time>2026-04-04T12:37:30.971Z</time></trkpt><trkpt lat="43.2834488" lon="10.5617993"><ele>30.0</ele><time>2026-04-04T12:37:31.967Z</time></trkpt><trkpt lat="43.2834954" lon="10.5619674"><ele>30.0</ele><time>2026-04-04T12:37:32.966Z</time></trkpt><trkpt lat="43.2835416" lon="10.5621356"><ele>30.0</ele><time>2026-04-04T12:37:33.952Z</time></trkpt><trkpt lat="43.2835858" lon="10.5623014"><ele>30.0</ele><time>2026-04-04T12:37:34.967Z</time></trkpt><trkpt lat="43.2836323" lon="10.5624692"><ele>30.0</ele><time>2026-04-04T12:37:35.964Z</time></trkpt><trkpt lat="43.2836759" lon="10.5626448"><ele>30.0</ele><time>2026-04-04T12:37:36.951Z</time></trkpt><trkpt lat="43.2837175" lon="10.5628033"><ele>30.0</ele><time>2026-04-04T12:37:37.977Z</time></trkpt><trkpt lat="43.2837539" lon="10.5629301"><ele>30.0</ele><time>2026-04-04T12:37:38.965Z</time></trkpt><trkpt lat="43.2837853" lon="10.5630316"><ele>30.0</ele><time>2026-04-04T12:37:39.959Z</time></trkpt><trkpt lat="43.2838193" lon="10.5631061"><ele>30.0</ele><time>2026-04-04T12:37:40.966Z</time></trkpt><trkpt lat="43.283904" lon="10.563171"><ele>31.2</ele><time>2026-04-04T12:37:42.972Z</time></trkpt><trkpt lat="43.2840178" lon="10.5631299"><ele>32.4</ele><time>2026-04-04T12:37:44.966Z</time></trkpt><trkpt lat="43.2840975" lon="10.5630894"><ele>33.6</ele><time>2026-04-04T12:37:45.969Z</time></trkpt><trkpt lat="43.2841859" lon="10.5630406"><ele>34.8</ele><time>2026-04-04T12:37:46.968Z</time></trkpt><trkpt lat="43.2842848" lon="10.5629892"><ele>36.0</ele><time>2026-04-04T12:37:47.957Z</time></trkpt><trkpt lat="43.2843727" lon="10.5629416"><ele>36.0</ele><time>2026-04-04T12:37:48.966Z</time></trkpt><trkpt lat="43.2844482" lon="10.5629039"><ele>36.0</ele><time>2026-04-04T12:37:49.973Z</time></trkpt><trkpt lat="43.2845161" lon="10.5628708"><ele>36.0</ele><time>2026-04-04T12:37:50.962Z</time></trkpt><trkpt lat="43.2846248" lon="10.562849"><ele>36.0</ele><time>2026-04-04T12:37:52.969Z</time></trkpt><trkpt lat="43.284701" lon="10.5629357"><ele>36.0</ele><time>2026-04-04T12:37:54.953Z</time></trkpt><trkpt lat="43.2847232" lon="10.5630245"><ele>36.0</ele><time>2026-04-04T12:37:55.97Z</time></trkpt><trkpt lat="43.2847563" lon="10.5631393"><ele>36.2</ele><time>2026-04-04T12:37:56.967Z</time></trkpt><trkpt lat="43.2848073" lon="10.5632778"><ele>36.400000000000006</ele><time>2026-04-04T12:37:57.97Z</time></trkpt><trkpt lat="43.2848557" lon="10.5634113"><ele>36.6</ele><time>2026-04-04T12:37:58.952Z</time></trkpt><trkpt lat="43.2848989" lon="10.5635359"><ele>36.800000000000004</ele><time>2026-04-04T12:37:59.966Z</time></trkpt><trkpt lat="43.2849399" lon="10.5636633"><ele>37.0</ele><time>2026-04-04T12:38:00.965Z</time></trkpt><trkpt lat="43.2849823" lon="10.5637872"><ele>37.6</ele><time>2026-04-04T12:38:01.968Z</time></trkpt><trkpt lat="43.2850269" lon="10.5639158"><ele>38.2</ele><time>2026-04-04T12:38:02.959Z</time></trkpt><trkpt lat="43.285072" lon="10.5640471"><ele>38.8</ele><time>2026-04-04T12:38:03.962Z</time></trkpt><trkpt lat="43.2851204" lon="10.5641848"><ele>39.4</ele><time>2026-04-04T12:38:04.971Z</time></trkpt><trkpt lat="43.2851688" lon="10.5643272"><ele>40.0</ele><time>2026-04-04T12:38:05.958Z</time></trkpt><trkpt lat="43.2852177" lon="10.5644685"><ele>39.75</ele><time>2026-04-04T12:38:06.972Z</time></trkpt><trkpt lat="43.285272" lon="10.5646116"><ele>39.5</ele><time>2026-04-04T12:38:07.956Z</time></trkpt><trkpt lat="43.2853262" lon="10.5647553"><ele>39.25</ele><time>2026-04-04T12:38:08.968Z</time></trkpt><trkpt lat="43.2853774" lon="10.5649061"><ele>39.0</ele><time>2026-04-04T12:38:09.97Z</time></trkpt><trkpt lat="43.2854235" lon="10.5650611"><ele>39.0</ele><time>2026-04-04T12:38:10.974Z</time></trkpt><trkpt lat="43.2854749" lon="10.5652113"><ele>39.0</ele><time>2026-04-04T12:38:11.954Z</time></trkpt><trkpt lat="43.2855263" lon="10.5653604"><ele>39.0</ele><time>2026-04-04T12:38:12.958Z</time></trkpt><trkpt lat="43.2855738" lon="10.56551"><ele>39.0</ele><time>2026-04-04T12:38:13.96Z</time></trkpt><trkpt lat="43.2856185" lon="10.5656558"><ele>39.6</ele><time>2026-04-04T12:38:14.958Z</time></trkpt><trkpt lat="43.2856623" lon="10.5657981"><ele>40.2</ele><time>2026-04-04T12:38:15.97Z</time></trkpt><trkpt lat="43.285706" lon="10.5659435"><ele>40.800000000000004</ele><time>2026-04-04T12:38:16.966Z</time></trkpt><trkpt lat="43.2857487" lon="10.5660829"><ele>41.4</ele><time>2026-04-04T12:38:17.969Z</time></trkpt><trkpt lat="43.2857905" lon="10.5662224"><ele>42.0</ele><time>2026-04-04T12:38:18.964Z</time></trkpt><trkpt lat="43.2858336" lon="10.5663467"><ele>42.2</ele><time>2026-04-04T12:38:19.956Z</time></trkpt><trkpt lat="43.285873" lon="10.5664845"><ele>42.400000000000006</ele><time>2026-04-04T12:38:20.962Z</time></trkpt><trkpt lat="43.2859077" lon="10.5666016"><ele>42.599999999999994</ele><time>2026-04-04T12:38:21.948Z</time></trkpt><trkpt lat="43.2859455" lon="10.5667168"><ele>42.8</ele><time>2026-04-04T12:38:22.968Z</time></trkpt><trkpt lat="43.2859813" lon="10.5668315"><ele>43.0</ele><time>2026-04-04T12:38:23.954Z</time></trkpt><trkpt lat="43.2860176" lon="10.5669486"><ele>43.4</ele><time>2026-04-04T12:38:24.964Z</time></trkpt><trkpt lat="43.2860572" lon="10.5670694"><ele>43.8</ele><time>2026-04-04T12:38:25.97Z</time></trkpt><trkpt lat="43.2861021" lon="10.5671963"><ele>44.2</ele><time>2026-04-04T12:38:26.961Z</time></trkpt><trkpt lat="43.2861469" lon="10.5673254"><ele>44.6</ele><time>2026-04-04T12:38:27.969Z</time></trkpt><trkpt lat="43.2861928" lon="10.5674587"><ele>45.0</ele><time>2026-04-04T12:38:28.968Z</time></trkpt><trkpt lat="43.286239" lon="10.5675947"><ele>45.0</ele><time>2026-04-04T12:38:29.972Z</time></trkpt><trkpt lat="43.2862877" lon="10.5677346"><ele>45.0</ele><time>2026-04-04T12:38:30.971Z</time></trkpt><trkpt lat="43.2863393" lon="10.5678771"><ele>45.0</ele><time>2026-04-04T12:38:31.949Z</time></trkpt><trkpt lat="43.2863891" lon="10.568024"><ele>45.0</ele><time>2026-04-04T12:38:32.959Z</time></trkpt><trkpt lat="43.2864391" lon="10.5681714"><ele>45.5</ele><time>2026-04-04T12:38:33.952Z</time></trkpt><trkpt lat="43.2864903" lon="10.5683219"><ele>46.0</ele><time>2026-04-04T12:38:34.95Z</time></trkpt><trkpt lat="43.2865411" lon="10.5684746"><ele>46.5</ele><time>2026-04-04T12:38:35.956Z</time></trkpt><trkpt lat="43.2865968" lon="10.5686381"><ele>47.0</ele><time>2026-04-04T12:38:36.966Z</time></trkpt><trkpt lat="43.2866514" lon="10.5687987"><ele>47.25</ele><time>2026-04-04T12:38:37.959Z</time></trkpt><trkpt lat="43.2867065" lon="10.5689603"><ele>47.5</ele><time>2026-04-04T12:38:38.965Z</time></trkpt><trkpt lat="43.2867625" lon="10.5691238"><ele>47.75</ele><time>2026-04-04T12:38:39.968Z</time></trkpt><trkpt lat="43.2868195" lon="10.5692897"><ele>48.0</ele><time>2026-04-04T12:38:40.965Z</time></trkpt><trkpt lat="43.2868753" lon="10.5694544"><ele>48.5</ele><time>2026-04-04T12:38:41.991Z</time></trkpt><trkpt lat="43.28693" lon="10.5696142"><ele>49.0</ele><time>2026-04-04T12:38:42.957Z</time></trkpt><trkpt lat="43.2869865" lon="10.5697731"><ele>49.5</ele><time>2026-04-04T12:38:44Z</time></trkpt><trkpt lat="43.2870408" lon="10.5699306"><ele>50.0</ele><time>2026-04-04T12:38:44.986Z</time></trkpt><trkpt lat="43.2870922" lon="10.5700881"><ele>50.0</ele><time>2026-04-04T12:38:45.956Z</time></trkpt><trkpt lat="43.2871423" lon="10.5702419"><ele>50.0</ele><time>2026-04-04T12:38:46.95Z</time></trkpt><trkpt lat="43.2871943" lon="10.5704023"><ele>50.0</ele><time>2026-04-04T12:38:47.963Z</time></trkpt><trkpt lat="43.2872469" lon="10.5705602"><ele>50.0</ele><time>2026-04-04T12:38:48.948Z</time></trkpt><trkpt lat="43.2872976" lon="10.5707061"><ele>50.5</ele><time>2026-04-04T12:38:49.974Z</time></trkpt><trkpt lat="43.287347" lon="10.5708473"><ele>51.0</ele><time>2026-04-04T12:38:50.971Z</time></trkpt><trkpt lat="43.2874" lon="10.5710014"><ele>51.5</ele><time>2026-04-04T12:38:51.955Z</time></trkpt><trkpt lat="43.2874505" lon="10.5711463"><ele>52.0</ele><time>2026-04-04T12:38:52.967Z</time></trkpt><trkpt lat="43.2874984" lon="10.5712852"><ele>52.6</ele><time>2026-04-04T12:38:53.976Z</time></trkpt><trkpt lat="43.2875445" lon="10.5714178"><ele>53.2</ele><time>2026-04-04T12:38:54.95Z</time></trkpt><trkpt lat="43.2875915" lon="10.5715519"><ele>53.8</ele><time>2026-04-04T12:38:55.981Z</time></trkpt><trkpt lat="43.2876394" lon="10.5716894"><ele>54.4</ele><time>2026-04-04T12:38:56.959Z</time></trkpt><trkpt lat="43.2876887" lon="10.5718373"><ele>55.0</ele><time>2026-04-04T12:38:57.973Z</time></trkpt><trkpt lat="43.2877383" lon="10.571989"><ele>55.2</ele><time>2026-04-04T12:38:58.953Z</time></trkpt><trkpt lat="43.2877898" lon="10.5721371"><ele>55.4</ele><time>2026-04-04T12:38:59.971Z</time></trkpt><trkpt lat="43.2878392" lon="10.572284"><ele>55.599999999999994</ele><time>2026-04-04T12:39:00.962Z</time></trkpt><trkpt lat="43.287886" lon="10.5724226"><ele>55.8</ele><time>2026-04-04T12:39:01.966Z</time></trkpt><trkpt lat="43.2879281" lon="10.5725482"><ele>56.0</ele><time>2026-04-04T12:39:02.97Z</time></trkpt><trkpt lat="43.2879666" lon="10.5726618"><ele>56.00000000000001</ele><time>2026-04-04T12:39:03.948Z</time></trkpt><trkpt lat="43.2880072" lon="10.5727766"><ele>56.0</ele><time>2026-04-04T12:39:04.956Z</time></trkpt><trkpt lat="43.288047" lon="10.5728901"><ele>56.0</ele><time>2026-04-04T12:39:05.948Z</time></trkpt><trkpt lat="43.28808" lon="10.5729957"><ele>56.0</ele><time>2026-04-04T12:39:06.968Z</time></trkpt><trkpt lat="43.2881098" lon="10.5730882"><ele>56.00000000000001</ele><time>2026-04-04T12:39:07.951Z</time></trkpt><trkpt lat="43.2881359" lon="10.5731722"><ele>56.0</ele><time>2026-04-04T12:39:08.964Z</time></trkpt><trkpt lat="43.2881872" lon="10.5732995"><ele>56.66666666666667</ele><time>2026-04-04T12:39:10.965Z</time></trkpt><trkpt lat="43.2882793" lon="10.5733379"><ele>57.333333333333336</ele><time>2026-04-04T12:39:12.96Z</time></trkpt><trkpt lat="43.2883444" lon="10.5733114"><ele>58.0</ele><time>2026-04-04T12:39:13.969Z</time></trkpt><trkpt lat="43.2884192" lon="10.573257"><ele>58.66666666666667</ele><time>2026-04-04T12:39:14.966Z</time></trkpt><trkpt lat="43.2885056" lon="10.5731954"><ele>59.333333333333336</ele><time>2026-04-04T12:39:15.962Z</time></trkpt><trkpt lat="43.2885906" lon="10.5731454"><ele>60.0</ele><time>2026-04-04T12:39:16.957Z</time></trkpt><trkpt lat="43.288673" lon="10.5730984"><ele>60.0</ele><time>2026-04-04T12:39:17.969Z</time></trkpt><trkpt lat="43.2887538" lon="10.5730501"><ele>60.0</ele><time>2026-04-04T12:39:18.957Z</time></trkpt><trkpt lat="43.2888363" lon="10.5730014"><ele>60.0</ele><time>2026-04-04T12:39:19.973Z</time></trkpt><trkpt lat="43.2889204" lon="10.5729589"><ele>60.0</ele><time>2026-04-04T12:39:20.957Z</time></trkpt><trkpt lat="43.289005" lon="10.5729166"><ele>60.0</ele><time>2026-04-04T12:39:21.949Z</time></trkpt><trkpt lat="43.2890882" lon="10.5728698"><ele>60.0</ele><time>2026-04-04T12:39:22.971Z</time></trkpt><trkpt lat="43.2891615" lon="10.572827"><ele>59.833333333333336</ele><time>2026-04-04T12:39:23.958Z</time></trkpt><trkpt lat="43.2892227" lon="10.5727924"><ele>59.66666666666667</ele><time>2026-04-04T12:39:24.973Z</time></trkpt><trkpt lat="43.2893126" lon="10.5727482"><ele>59.5</ele><time>2026-04-04T12:39:26.952Z</time></trkpt><trkpt lat="43.2893881" lon="10.572719"><ele>59.333333333333336</ele><time>2026-04-04T12:39:29.959Z</time></trkpt><trkpt lat="43.2894599" lon="10.5728354"><ele>59.16666666666667</ele><time>2026-04-04T12:39:32.968Z</time></trkpt><trkpt lat="43.2894855" lon="10.5729248"><ele>59.0</ele><time>2026-04-04T12:39:33.967Z</time></trkpt><trkpt lat="43.2895141" lon="10.5730262"><ele>59.5</ele><time>2026-04-04T12:39:34.975Z</time></trkpt><trkpt lat="43.2895562" lon="10.5731498"><ele>60.0</ele><time>2026-04-04T12:39:35.958Z</time></trkpt><trkpt lat="43.2896106" lon="10.5733017"><ele>60.5</ele><time>2026-04-04T12:39:36.955Z</time></trkpt><trkpt lat="43.2896639" lon="10.5734585"><ele>61.0</ele><time>2026-04-04T12:39:37.969Z</time></trkpt><trkpt lat="43.2897147" lon="10.5736172"><ele>61.5</ele><time>2026-04-04T12:39:38.952Z</time></trkpt><trkpt lat="43.2897663" lon="10.5737843"><ele>62.0</ele><time>2026-04-04T12:39:39.958Z</time></trkpt><trkpt lat="43.2898188" lon="10.5739519"><ele>62.5</ele><time>2026-04-04T12:39:40.968Z</time></trkpt><trkpt lat="43.2898712" lon="10.5741193"><ele>63.0</ele><time>2026-04-04T12:39:41.953Z</time></trkpt><trkpt lat="43.289928" lon="10.5742869"><ele>63.0</ele><time>2026-04-04T12:39:42.954Z</time></trkpt><trkpt lat="43.2899871" lon="10.5744519"><ele>63.0</ele><time>2026-04-04T12:39:43.955Z</time></trkpt><trkpt lat="43.2900457" lon="10.5746152"><ele>63.0</ele><time>2026-04-04T12:39:44.967Z</time></trkpt><trkpt lat="43.2901021" lon="10.57478"><ele>63.0</ele><time>2026-04-04T12:39:45.971Z</time></trkpt><trkpt lat="43.2901549" lon="10.5749461"><ele>63.0</ele><time>2026-04-04T12:39:46.981Z</time></trkpt><trkpt lat="43.2902063" lon="10.5751141"><ele>63.0</ele><time>2026-04-04T12:39:47.951Z</time></trkpt><trkpt lat="43.2902607" lon="10.5752832"><ele>63.0</ele><time>2026-04-04T12:39:48.948Z</time></trkpt><trkpt lat="43.2903195" lon="10.5754533"><ele>63.0</ele><time>2026-04-04T12:39:49.956Z</time></trkpt><trkpt lat="43.2903776" lon="10.5756224"><ele>63.0</ele><time>2026-04-04T12:39:50.973Z</time></trkpt><trkpt lat="43.2904347" lon="10.5757884"><ele>63.0</ele><time>2026-04-04T12:39:51.956Z</time></trkpt><trkpt lat="43.2904914" lon="10.5759522"><ele>63.0</ele><time>2026-04-04T12:39:52.957Z</time></trkpt><trkpt lat="43.2905471" lon="10.5761149"><ele>63.0</ele><time>2026-04-04T12:39:53.969Z</time></trkpt><trkpt lat="43.290601" lon="10.5762747"><ele>63.75</ele><time>2026-04-04T12:39:54.962Z</time></trkpt><trkpt lat="43.2906527" lon="10.576434"><ele>64.5</ele><time>2026-04-04T12:39:55.977Z</time></trkpt><trkpt lat="43.2907029" lon="10.576594"><ele>65.25</ele><time>2026-04-04T12:39:56.96Z</time></trkpt><trkpt lat="43.2907502" lon="10.576745"><ele>66.0</ele><time>2026-04-04T12:39:57.955Z</time></trkpt><trkpt lat="43.2907947" lon="10.576879"><ele>66.0</ele><time>2026-04-04T12:39:58.969Z</time></trkpt><trkpt lat="43.2908328" lon="10.5769916"><ele>66.0</ele><time>2026-04-04T12:39:59.96Z</time></trkpt><trkpt lat="43.2908645" lon="10.5770833"><ele>66.0</ele><time>2026-04-04T12:40:00.976Z</time></trkpt><trkpt lat="43.2909134" lon="10.5771765"><ele>66.0</ele><time>2026-04-04T12:40:02.97Z</time></trkpt><trkpt lat="43.2909974" lon="10.5771775"><ele>66.0</ele><time>2026-04-04T12:40:05.976Z</time></trkpt><trkpt lat="43.2911198" lon="10.5771393"><ele>66.5</ele><time>2026-04-04T12:40:07.97Z</time></trkpt><trkpt lat="43.2911991" lon="10.5771284"><ele>67.0</ele><time>2026-04-04T12:40:08.955Z</time></trkpt><trkpt lat="43.2912795" lon="10.5771195"><ele>67.5</ele><time>2026-04-04T12:40:09.969Z</time></trkpt><trkpt lat="43.2913559" lon="10.5771113"><ele>68.0</ele><time>2026-04-04T12:40:10.96Z</time></trkpt><trkpt lat="43.2914244" lon="10.5771143"><ele>68.5</ele><time>2026-04-04T12:40:11.974Z</time></trkpt><trkpt lat="43.2915355" lon="10.5771056"><ele>69.0</ele><time>2026-04-04T12:40:13.968Z</time></trkpt><trkpt lat="43.2916332" lon="10.5770926"><ele>69.4</ele><time>2026-04-04T12:40:15.962Z</time></trkpt><trkpt lat="43.2917388" lon="10.5770909"><ele>69.80000000000001</ele><time>2026-04-04T12:40:17.977Z</time></trkpt><trkpt lat="43.2918502" lon="10.5771025"><ele>70.19999999999999</ele><time>2026-04-04T12:40:19.973Z</time></trkpt><trkpt lat="43.2919612" lon="10.577111"><ele>70.6</ele><time>2026-04-04T12:40:21.954Z</time></trkpt><trkpt lat="43.2920298" lon="10.5771169"><ele>71.0</ele><time>2026-04-04T12:40:22.973Z</time></trkpt><trkpt lat="43.2921128" lon="10.5771363"><ele>71.0</ele><time>2026-04-04T12:40:23.964Z</time></trkpt><trkpt lat="43.2922076" lon="10.5771547"><ele>71.0</ele><time>2026-04-04T12:40:24.963Z</time></trkpt><trkpt lat="43.2923065" lon="10.5771761"><ele>71.0</ele><time>2026-04-04T12:40:25.974Z</time></trkpt><trkpt lat="43.2923993" lon="10.5771865"><ele>71.0</ele><time>2026-04-04T12:40:26.959Z</time></trkpt><trkpt lat="43.2924833" lon="10.5771952"><ele>71.0</ele><time>2026-04-04T12:40:27.969Z</time></trkpt><trkpt lat="43.2925622" lon="10.5772003"><ele>71.28571428571428</ele><time>2026-04-04T12:40:28.97Z</time></trkpt><trkpt lat="43.2926383" lon="10.5772091"><ele>71.57142857142857</ele><time>2026-04-04T12:40:29.953Z</time></trkpt><trkpt lat="43.2927142" lon="10.5772254"><ele>71.85714285714286</ele><time>2026-04-04T12:40:30.951Z</time></trkpt><trkpt lat="43.292788" lon="10.5772502"><ele>72.14285714285714</ele><time>2026-04-04T12:40:31.968Z</time></trkpt><trkpt lat="43.2928611" lon="10.5772717"><ele>72.42857142857143</ele><time>2026-04-04T12:40:32.957Z</time></trkpt><trkpt lat="43.2929306" lon="10.5772963"><ele>72.71428571428571</ele><time>2026-04-04T12:40:33.954Z</time></trkpt><trkpt lat="43.2929919" lon="10.5773444"><ele>73.0</ele><time>2026-04-04T12:40:34.976Z</time></trkpt><trkpt lat="43.2930493" lon="10.5774356"><ele>73.4</ele><time>2026-04-04T12:40:35.959Z</time></trkpt><trkpt lat="43.2931122" lon="10.5775502"><ele>73.8</ele><time>2026-04-04T12:40:36.958Z</time></trkpt><trkpt lat="43.2931755" lon="10.5776771"><ele>74.2</ele><time>2026-04-04T12:40:37.969Z</time></trkpt><trkpt lat="43.2932361" lon="10.5777981"><ele>74.6</ele><time>2026-04-04T12:40:38.969Z</time></trkpt><trkpt lat="43.2933009" lon="10.5779168"><ele>75.0</ele><time>2026-04-04T12:40:39.974Z</time></trkpt><trkpt lat="43.2933699" lon="10.5780391"><ele>75.25</ele><time>2026-04-04T12:40:40.968Z</time></trkpt><trkpt lat="43.29344" lon="10.5781667"><ele>75.5</ele><time>2026-04-04T12:40:41.953Z</time></trkpt><trkpt lat="43.2935117" lon="10.5782962"><ele>75.75</ele><time>2026-04-04T12:40:42.97Z</time></trkpt><trkpt lat="43.2935861" lon="10.578429"><ele>76.0</ele><time>2026-04-04T12:40:43.956Z</time></trkpt><trkpt lat="43.293664" lon="10.5785645"><ele>76.25</ele><time>2026-04-04T12:40:44.958Z</time></trkpt><trkpt lat="43.2937436" lon="10.578702"><ele>76.5</ele><time>2026-04-04T12:40:45.962Z</time></trkpt><trkpt lat="43.2938254" lon="10.5788452"><ele>76.75</ele><time>2026-04-04T12:40:46.957Z</time></trkpt><trkpt lat="43.2939093" lon="10.5789933"><ele>77.0</ele><time>2026-04-04T12:40:47.957Z</time></trkpt><trkpt lat="43.2939978" lon="10.5791504"><ele>77.5</ele><time>2026-04-04T12:40:48.963Z</time></trkpt><trkpt lat="43.2940859" lon="10.5793086"><ele>78.0</ele><time>2026-04-04T12:40:49.973Z</time></trkpt><trkpt lat="43.2941707" lon="10.5794637"><ele>78.5</ele><time>2026-04-04T12:40:50.959Z</time></trkpt><trkpt lat="43.2942501" lon="10.5796111"><ele>79.0</ele><time>2026-04-04T12:40:51.969Z</time></trkpt><trkpt lat="43.2943268" lon="10.5797476"><ele>79.25</ele><time>2026-04-04T12:40:52.967Z</time></trkpt><trkpt lat="43.2944076" lon="10.5798752"><ele>79.5</ele><time>2026-04-04T12:40:53.971Z</time></trkpt><trkpt lat="43.2944941" lon="10.5799914"><ele>79.75</ele><time>2026-04-04T12:40:54.974Z</time></trkpt><trkpt lat="43.2945792" lon="10.5801054"><ele>80.0</ele><time>2026-04-04T12:40:55.972Z</time></trkpt><trkpt lat="43.2946644" lon="10.5802077"><ele>80.0</ele><time>2026-04-04T12:40:56.958Z</time></trkpt><trkpt lat="43.2947417" lon="10.5803015"><ele>80.0</ele><time>2026-04-04T12:40:57.974Z</time></trkpt><trkpt lat="43.2948114" lon="10.5803881"><ele>80.0</ele><time>2026-04-04T12:40:58.972Z</time></trkpt><trkpt lat="43.2948722" lon="10.5804718"><ele>80.0</ele><time>2026-04-04T12:40:59.973Z</time></trkpt><trkpt lat="43.2949269" lon="10.5805594"><ele>80.0</ele><time>2026-04-04T12:41:00.965Z</time></trkpt><trkpt lat="43.2949799" lon="10.5806582"><ele>80.75</ele><time>2026-04-04T12:41:01.957Z</time></trkpt><trkpt lat="43.2950383" lon="10.5807677"><ele>81.5</ele><time>2026-04-04T12:41:02.952Z</time></trkpt><trkpt lat="43.295099" lon="10.5809006"><ele>82.25</ele><time>2026-04-04T12:41:03.966Z</time></trkpt><trkpt lat="43.2951639" lon="10.5810421"><ele>83.0</ele><time>2026-04-04T12:41:04.952Z</time></trkpt><trkpt lat="43.2952297" lon="10.5811987"><ele>83.0</ele><time>2026-04-04T12:41:05.959Z</time></trkpt><trkpt lat="43.2952961" lon="10.5813566"><ele>83.0</ele><time>2026-04-04T12:41:06.963Z</time></trkpt><trkpt lat="43.2953617" lon="10.5815173"><ele>83.0</ele><time>2026-04-04T12:41:07.956Z</time></trkpt><trkpt lat="43.2954276" lon="10.5816807"><ele>83.0</ele><time>2026-04-04T12:41:08.969Z</time></trkpt><trkpt lat="43.2954939" lon="10.5818442"><ele>83.0</ele><time>2026-04-04T12:41:09.963Z</time></trkpt><trkpt lat="43.2955709" lon="10.5820101"><ele>83.0</ele><time>2026-04-04T12:41:10.961Z</time></trkpt><trkpt lat="43.2956492" lon="10.5821788"><ele>83.0</ele><time>2026-04-04T12:41:11.952Z</time></trkpt><trkpt lat="43.2957269" lon="10.5823527"><ele>83.0</ele><time>2026-04-04T12:41:12.977Z</time></trkpt><trkpt lat="43.2958047" lon="10.5825268"><ele>85.0</ele><time>2026-04-04T12:41:13.971Z</time></trkpt><trkpt lat="43.2958823" lon="10.5827041"><ele>87.0</ele><time>2026-04-04T12:41:14.961Z</time></trkpt><trkpt lat="43.2959589" lon="10.5828823"><ele>89.0</ele><time>2026-04-04T12:41:15.955Z</time></trkpt><trkpt lat="43.2960365" lon="10.5830609"><ele>90.0</ele><time>2026-04-04T12:41:16.961Z</time></trkpt><trkpt lat="43.2961146" lon="10.5832402"><ele>91.0</ele><time>2026-04-04T12:41:17.956Z</time></trkpt><trkpt lat="43.2961927" lon="10.5834213"><ele>92.0</ele><time>2026-04-04T12:41:18.974Z</time></trkpt><trkpt lat="43.2962698" lon="10.5836007"><ele>93.0</ele><time>2026-04-04T12:41:19.967Z</time></trkpt><trkpt lat="43.2963443" lon="10.5837875"><ele>94.0</ele><time>2026-04-04T12:41:20.974Z</time></trkpt><trkpt lat="43.2964192" lon="10.5839749"><ele>95.0</ele><time>2026-04-04T12:41:21.958Z</time></trkpt><trkpt lat="43.2964944" lon="10.5841598"><ele>95.0</ele><time>2026-04-04T12:41:22.954Z</time></trkpt><trkpt lat="43.2965718" lon="10.5843413"><ele>95.0</ele><time>2026-04-04T12:41:23.954Z</time></trkpt><trkpt lat="43.2966466" lon="10.5845202"><ele>95.0</ele><time>2026-04-04T12:41:24.975Z</time></trkpt><trkpt lat="43.2967231" lon="10.5846996"><ele>96.66666666666667</ele><time>2026-04-04T12:41:25.962Z</time></trkpt><trkpt lat="43.2968041" lon="10.5848746"><ele>98.33333333333334</ele><time>2026-04-04T12:41:26.956Z</time></trkpt><trkpt lat="43.2968826" lon="10.585053"><ele>100.0</ele><time>2026-04-04T12:41:27.97Z</time></trkpt><trkpt lat="43.2969603" lon="10.5852299"><ele>100.25</ele><time>2026-04-04T12:41:28.962Z</time></trkpt><trkpt lat="43.2970387" lon="10.5854056"><ele>100.5</ele><time>2026-04-04T12:41:29.955Z</time></trkpt><trkpt lat="43.2971158" lon="10.5855811"><ele>100.75</ele><time>2026-04-04T12:41:30.972Z</time></trkpt><trkpt lat="43.2971916" lon="10.5857545"><ele>101.0</ele><time>2026-04-04T12:41:31.966Z</time></trkpt><trkpt lat="43.2972702" lon="10.585927"><ele>101.75</ele><time>2026-04-04T12:41:32.972Z</time></trkpt><trkpt lat="43.2973475" lon="10.5860965"><ele>102.5</ele><time>2026-04-04T12:41:33.954Z</time></trkpt><trkpt lat="43.2974217" lon="10.5862624"><ele>103.25</ele><time>2026-04-04T12:41:34.972Z</time></trkpt><trkpt lat="43.2974913" lon="10.5864338"><ele>104.0</ele><time>2026-04-04T12:41:35.961Z</time></trkpt><trkpt lat="43.2975632" lon="10.5865934"><ele>104.0</ele><time>2026-04-04T12:41:36.963Z</time></trkpt><trkpt lat="43.297632" lon="10.5867394"><ele>104.0</ele><time>2026-04-04T12:41:37.966Z</time></trkpt><trkpt lat="43.297695" lon="10.5868732"><ele>104.0</ele><time>2026-04-04T12:41:38.957Z</time></trkpt><trkpt lat="43.2977524" lon="10.5869989"><ele>104.0</ele><time>2026-04-04T12:41:39.963Z</time></trkpt><trkpt lat="43.2978053" lon="10.5871187"><ele>104.0</ele><time>2026-04-04T12:41:40.965Z</time></trkpt><trkpt lat="43.2978587" lon="10.5872337"><ele>104.0</ele><time>2026-04-04T12:41:41.963Z</time></trkpt><trkpt lat="43.2979154" lon="10.5873486"><ele>104.0</ele><time>2026-04-04T12:41:42.963Z</time></trkpt><trkpt lat="43.2979788" lon="10.5874679"><ele>104.0</ele><time>2026-04-04T12:41:43.973Z</time></trkpt><trkpt lat="43.2980464" lon="10.5875901"><ele>104.0</ele><time>2026-04-04T12:41:44.967Z</time></trkpt><trkpt lat="43.2981254" lon="10.5877125"><ele>104.25</ele><time>2026-04-04T12:41:45.969Z</time></trkpt><trkpt lat="43.2982145" lon="10.5878417"><ele>104.5</ele><time>2026-04-04T12:41:46.962Z</time></trkpt><trkpt lat="43.2983034" lon="10.5879681"><ele>104.75</ele><time>2026-04-04T12:41:47.973Z</time></trkpt><trkpt lat="43.2983969" lon="10.5880927"><ele>105.0</ele><time>2026-04-04T12:41:48.969Z</time></trkpt><trkpt lat="43.2984927" lon="10.5882183"><ele>105.0</ele><time>2026-04-04T12:41:49.97Z</time></trkpt><trkpt lat="43.2985913" lon="10.5883441"><ele>105.0</ele><time>2026-04-04T12:41:50.967Z</time></trkpt><trkpt lat="43.2986943" lon="10.5884627"><ele>105.0</ele><time>2026-04-04T12:41:51.956Z</time></trkpt><trkpt lat="43.2988037" lon="10.5885724"><ele>105.0</ele><time>2026-04-04T12:41:52.966Z</time></trkpt><trkpt lat="43.2989171" lon="10.5886743"><ele>105.8</ele><time>2026-04-04T12:41:53.964Z</time></trkpt><trkpt lat="43.2990304" lon="10.5887658"><ele>106.6</ele><time>2026-04-04T12:41:54.976Z</time></trkpt><trkpt lat="43.2991368" lon="10.5888461"><ele>107.4</ele><time>2026-04-04T12:41:55.96Z</time></trkpt><trkpt lat="43.2992266" lon="10.5889047"><ele>108.2</ele><time>2026-04-04T12:41:56.969Z</time></trkpt><trkpt lat="43.2992976" lon="10.5889424"><ele>109.0</ele><time>2026-04-04T12:41:57.964Z</time></trkpt><trkpt lat="43.2994047" lon="10.5890094"><ele>109.00000000000001</ele><time>2026-04-04T12:41:59.953Z</time></trkpt><trkpt lat="43.2994814" lon="10.5891355"><ele>109.0</ele><time>2026-04-04T12:42:01.961Z</time></trkpt><trkpt lat="43.2995164" lon="10.5892157"><ele>109.0</ele><time>2026-04-04T12:42:02.971Z</time></trkpt><trkpt lat="43.2995551" lon="10.5893039"><ele>109.0</ele><time>2026-04-04T12:42:03.982Z</time></trkpt><trkpt lat="43.2995963" lon="10.5894048"><ele>109.00000000000001</ele><time>2026-04-04T12:42:04.963Z</time></trkpt><trkpt lat="43.2996407" lon="10.5895177"><ele>109.0</ele><time>2026-04-04T12:42:05.969Z</time></trkpt><trkpt lat="43.2996858" lon="10.589635"><ele>110.0</ele><time>2026-04-04T12:42:06.959Z</time></trkpt><trkpt lat="43.2997309" lon="10.5897532"><ele>111.0</ele><time>2026-04-04T12:42:07.958Z</time></trkpt><trkpt lat="43.2997749" lon="10.5898708"><ele>112.0</ele><time>2026-04-04T12:42:08.968Z</time></trkpt><trkpt lat="43.2998174" lon="10.5899883"><ele>113.0</ele><time>2026-04-04T12:42:09.948Z</time></trkpt><trkpt lat="43.2998585" lon="10.5901026"><ele>114.0</ele><time>2026-04-04T12:42:10.958Z</time></trkpt><trkpt lat="43.2998957" lon="10.5902041"><ele>114.4</ele><time>2026-04-04T12:42:11.959Z</time></trkpt><trkpt lat="43.2999236" lon="10.5902832"><ele>114.80000000000001</ele><time>2026-04-04T12:42:12.962Z</time></trkpt><trkpt lat="43.2999617" lon="10.5903847"><ele>115.19999999999999</ele><time>2026-04-04T12:42:14.97Z</time></trkpt><trkpt lat="43.3000181" lon="10.5904702"><ele>115.6</ele><time>2026-04-04T12:42:16.968Z</time></trkpt><trkpt lat="43.3000953" lon="10.590569"><ele>116.0</ele><time>2026-04-04T12:42:18.956Z</time></trkpt><trkpt lat="43.300179" lon="10.5906738"><ele>116.66666666666666</ele><time>2026-04-04T12:42:20.961Z</time></trkpt><trkpt lat="43.3002284" lon="10.5907334"><ele>117.33333333333333</ele><time>2026-04-04T12:42:21.955Z</time></trkpt><trkpt lat="43.3002821" lon="10.5907969"><ele>118.0</ele><time>2026-04-04T12:42:22.957Z</time></trkpt><trkpt lat="43.3003395" lon="10.5908614"><ele>118.66666666666666</ele><time>2026-04-04T12:42:23.967Z</time></trkpt><trkpt lat="43.3004" lon="10.5909295"><ele>119.33333333333333</ele><time>2026-04-04T12:42:24.97Z</time></trkpt><trkpt lat="43.3004587" lon="10.5910061"><ele>120.0</ele><time>2026-04-04T12:42:25.968Z</time></trkpt><trkpt lat="43.3005145" lon="10.5910912"><ele>120.6</ele><time>2026-04-04T12:42:26.968Z</time></trkpt><trkpt lat="43.3005668" lon="10.5911804"><ele>121.2</ele><time>2026-04-04T12:42:27.971Z</time></trkpt><trkpt lat="43.30062" lon="10.5912777"><ele>121.80000000000001</ele><time>2026-04-04T12:42:28.967Z</time></trkpt><trkpt lat="43.3006782" lon="10.5913809"><ele>122.4</ele><time>2026-04-04T12:42:29.949Z</time></trkpt><trkpt lat="43.3007426" lon="10.5914851"><ele>123.0</ele><time>2026-04-04T12:42:30.953Z</time></trkpt><trkpt lat="43.3008116" lon="10.5915899"><ele>123.75</ele><time>2026-04-04T12:42:31.963Z</time></trkpt><trkpt lat="43.3008848" lon="10.5917006"><ele>124.5</ele><time>2026-04-04T12:42:32.963Z</time></trkpt><trkpt lat="43.3009553" lon="10.5918192"><ele>125.25</ele><time>2026-04-04T12:42:33.974Z</time></trkpt><trkpt lat="43.3010219" lon="10.5919455"><ele>126.0</ele><time>2026-04-04T12:42:34.974Z</time></trkpt><trkpt lat="43.3010861" lon="10.5920842"><ele>126.25</ele><time>2026-04-04T12:42:35.966Z</time></trkpt><trkpt lat="43.3011537" lon="10.5922157"><ele>126.5</ele><time>2026-04-04T12:42:36.971Z</time></trkpt><trkpt lat="43.3012288" lon="10.5923323"><ele>126.75</ele><time>2026-04-04T12:42:37.976Z</time></trkpt><trkpt lat="43.3013151" lon="10.5924441"><ele>127.0</ele><time>2026-04-04T12:42:38.962Z</time></trkpt><trkpt lat="43.3014027" lon="10.592553"><ele>127.75</ele><time>2026-04-04T12:42:39.972Z</time></trkpt><trkpt lat="43.3014882" lon="10.5926659"><ele>128.5</ele><time>2026-04-04T12:42:40.957Z</time></trkpt><trkpt lat="43.3015696" lon="10.59278"><ele>129.25</ele><time>2026-04-04T12:42:41.977Z</time></trkpt><trkpt lat="43.301652" lon="10.5928887"><ele>130.0</ele><time>2026-04-04T12:42:42.963Z</time></trkpt><trkpt lat="43.30173" lon="10.5929867"><ele>130.4</ele><time>2026-04-04T12:42:43.965Z</time></trkpt><trkpt lat="43.3018167" lon="10.5930679"><ele>130.8</ele><time>2026-04-04T12:42:44.973Z</time></trkpt><trkpt lat="43.3019024" lon="10.5931513"><ele>131.2</ele><time>2026-04-04T12:42:45.966Z</time></trkpt><trkpt lat="43.30198" lon="10.5932424"><ele>131.6</ele><time>2026-04-04T12:42:46.967Z</time></trkpt><trkpt lat="43.3020487" lon="10.593332"><ele>132.0</ele><time>2026-04-04T12:42:47.969Z</time></trkpt><trkpt lat="43.3021126" lon="10.5934165"><ele>132.0</ele><time>2026-04-04T12:42:48.955Z</time></trkpt><trkpt lat="43.3021708" lon="10.5935016"><ele>132.0</ele><time>2026-04-04T12:42:49.974Z</time></trkpt><trkpt lat="43.3022233" lon="10.593594"><ele>132.0</ele><time>2026-04-04T12:42:50.956Z</time></trkpt><trkpt lat="43.3022625" lon="10.5937004"><ele>132.0</ele><time>2026-04-04T12:42:51.965Z</time></trkpt><trkpt lat="43.3022898" lon="10.5938208"><ele>132.0</ele><time>2026-04-04T12:42:52.973Z</time></trkpt><trkpt lat="43.3023045" lon="10.5939513"><ele>132.0</ele><time>2026-04-04T12:42:53.956Z</time></trkpt><trkpt lat="43.302307" lon="10.5940869"><ele>132.83333333333334</ele><time>2026-04-04T12:42:54.956Z</time></trkpt><trkpt lat="43.3022999" lon="10.5942166"><ele>133.66666666666666</ele><time>2026-04-04T12:42:55.97Z</time></trkpt><trkpt lat="43.3022923" lon="10.594333"><ele>134.5</ele><time>2026-04-04T12:42:56.971Z</time></trkpt><trkpt lat="43.302288" lon="10.5944281"><ele>135.33333333333331</ele><time>2026-04-04T12:42:57.967Z</time></trkpt><trkpt lat="43.3022875" lon="10.5945462"><ele>136.16666666666666</ele><time>2026-04-04T12:42:59.957Z</time></trkpt><trkpt lat="43.302293" lon="10.594662"><ele>137.0</ele><time>2026-04-04T12:43:02.949Z</time></trkpt><trkpt lat="43.3022725" lon="10.5947763"><ele>136.79999999999998</ele><time>2026-04-04T12:47:01.957Z</time></trkpt><trkpt lat="43.3022638" lon="10.5948973"><ele>136.6</ele><time>2026-04-04T12:47:03.967Z</time></trkpt><trkpt lat="43.3022513" lon="10.595074"><ele>136.39999999999998</ele><time>2026-04-04T12:47:05.95Z</time></trkpt><trkpt lat="43.302247" lon="10.5951771"><ele>136.2</ele><time>2026-04-04T12:47:06.976Z</time></trkpt><trkpt lat="43.3022413" lon="10.5952913"><ele>136.0</ele><time>2026-04-04T12:47:07.97Z</time></trkpt><trkpt lat="43.3022342" lon="10.5954169"><ele>136.6</ele><time>2026-04-04T12:47:08.973Z</time></trkpt><trkpt lat="43.3022268" lon="10.5955549"><ele>137.2</ele><time>2026-04-04T12:47:09.967Z</time></trkpt><trkpt lat="43.302224" lon="10.5956945"><ele>137.8</ele><time>2026-04-04T12:47:10.971Z</time></trkpt><trkpt lat="43.3022255" lon="10.595843"><ele>138.4</ele><time>2026-04-04T12:47:11.956Z</time></trkpt><trkpt lat="43.3022339" lon="10.5960045"><ele>139.0</ele><time>2026-04-04T12:47:12.959Z</time></trkpt><trkpt lat="43.3022476" lon="10.5961782"><ele>140.75</ele><time>2026-04-04T12:47:13.968Z</time></trkpt><trkpt lat="43.3022661" lon="10.5963618"><ele>142.5</ele><time>2026-04-04T12:47:14.949Z</time></trkpt><trkpt lat="43.3022893" lon="10.5965518"><ele>144.25</ele><time>2026-04-04T12:47:15.958Z</time></trkpt><trkpt lat="43.3023176" lon="10.5967485"><ele>146.0</ele><time>2026-04-04T12:47:16.97Z</time></trkpt><trkpt lat="43.3023466" lon="10.5969443"><ele>147.0</ele><time>2026-04-04T12:47:17.969Z</time></trkpt><trkpt lat="43.3023789" lon="10.5971456"><ele>148.0</ele><time>2026-04-04T12:47:18.973Z</time></trkpt><trkpt lat="43.3024112" lon="10.5973602"><ele>149.0</ele><time>2026-04-04T12:47:19.97Z</time></trkpt><trkpt lat="43.3024443" lon="10.5975859"><ele>149.0</ele><time>2026-04-04T12:47:20.967Z</time></trkpt><trkpt lat="43.3024779" lon="10.5978171"><ele>149.0</ele><time>2026-04-04T12:47:21.975Z</time></trkpt><trkpt lat="43.3025121" lon="10.5980565"><ele>149.0</ele><time>2026-04-04T12:47:22.968Z</time></trkpt><trkpt lat="43.3025476" lon="10.5983"><ele>149.0</ele><time>2026-04-04T12:47:23.957Z</time></trkpt><trkpt lat="43.3025824" lon="10.5985419"><ele>149.0</ele><time>2026-04-04T12:47:24.967Z</time></trkpt><trkpt lat="43.3026186" lon="10.5987909"><ele>149.0</ele><time>2026-04-04T12:47:25.961Z</time></trkpt><trkpt lat="43.3026537" lon="10.5990361"><ele>149.0</ele><time>2026-04-04T12:47:26.967Z</time></trkpt><trkpt lat="43.3026964" lon="10.5993002"><ele>149.0</ele><time>2026-04-04T12:47:27.96Z</time></trkpt><trkpt lat="43.3027349" lon="10.5995641"><ele>149.0</ele><time>2026-04-04T12:47:28.954Z</time></trkpt><trkpt lat="43.3027713" lon="10.5998323"><ele>145.0</ele><time>2026-04-04T12:47:29.951Z</time></trkpt><trkpt lat="43.3028055" lon="10.6001119"><ele>141.0</ele><time>2026-04-04T12:47:30.951Z</time></trkpt><trkpt lat="43.3028361" lon="10.6003828"><ele>137.0</ele><time>2026-04-04T12:47:31.966Z</time></trkpt><trkpt lat="43.3028611" lon="10.6006469"><ele>136.33333333333331</ele><time>2026-04-04T12:47:32.97Z</time></trkpt><trkpt lat="43.3028774" lon="10.6009076"><ele>135.66666666666666</ele><time>2026-04-04T12:47:33.978Z</time></trkpt><trkpt lat="43.3028813" lon="10.6011693"><ele>135.0</ele><time>2026-04-04T12:47:34.97Z</time></trkpt><trkpt lat="43.3028744" lon="10.6014296"><ele>135.0</ele><time>2026-04-04T12:47:35.967Z</time></trkpt><trkpt lat="43.3028582" lon="10.6016916"><ele>135.0</ele><time>2026-04-04T12:47:36.963Z</time></trkpt><trkpt lat="43.3028394" lon="10.6019497"><ele>135.0</ele><time>2026-04-04T12:47:37.976Z</time></trkpt><trkpt lat="43.3028201" lon="10.6022057"><ele>136.66666666666666</ele><time>2026-04-04T12:47:38.97Z</time></trkpt><trkpt lat="43.3028006" lon="10.6024587"><ele>138.33333333333331</ele><time>2026-04-04T12:47:39.948Z</time></trkpt><trkpt lat="43.3027822" lon="10.6027129"><ele>140.0</ele><time>2026-04-04T12:47:40.961Z</time></trkpt><trkpt lat="43.3027666" lon="10.6029583"><ele>142.0</ele><time>2026-04-04T12:47:41.977Z</time></trkpt><trkpt lat="43.3027481" lon="10.6032127"><ele>144.0</ele><time>2026-04-04T12:47:42.953Z</time></trkpt><trkpt lat="43.3027293" lon="10.6034602"><ele>146.0</ele><time>2026-04-04T12:47:43.978Z</time></trkpt><trkpt lat="43.3027067" lon="10.6036887"><ele>148.0</ele><time>2026-04-04T12:47:44.959Z</time></trkpt><trkpt lat="43.3026856" lon="10.6039042"><ele>150.0</ele><time>2026-04-04T12:47:45.972Z</time></trkpt><trkpt lat="43.3026621" lon="10.6041115"><ele>152.0</ele><time>2026-04-04T12:47:46.966Z</time></trkpt><trkpt lat="43.3026337" lon="10.6043118"><ele>152.5</ele><time>2026-04-04T12:47:47.957Z</time></trkpt><trkpt lat="43.3026009" lon="10.6045057"><ele>153.0</ele><time>2026-04-04T12:47:48.978Z</time></trkpt><trkpt lat="43.3025665" lon="10.6046944"><ele>153.5</ele><time>2026-04-04T12:47:49.972Z</time></trkpt><trkpt lat="43.3025293" lon="10.6048787"><ele>154.0</ele><time>2026-04-04T12:47:50.969Z</time></trkpt><trkpt lat="43.3024885" lon="10.605057"><ele>154.0</ele><time>2026-04-04T12:47:51.962Z</time></trkpt><trkpt lat="43.3024482" lon="10.6052218"><ele>154.0</ele><time>2026-04-04T12:47:52.958Z</time></trkpt><trkpt lat="43.3024099" lon="10.6053758"><ele>154.0</ele><time>2026-04-04T12:47:53.963Z</time></trkpt><trkpt lat="43.3023714" lon="10.6055219"><ele>154.0</ele><time>2026-04-04T12:47:54.951Z</time></trkpt><trkpt lat="43.3023321" lon="10.605657"><ele>154.2</ele><time>2026-04-04T12:47:55.983Z</time></trkpt><trkpt lat="43.3022924" lon="10.605783"><ele>154.4</ele><time>2026-04-04T12:47:56.968Z</time></trkpt><trkpt lat="43.302253" lon="10.6058961"><ele>154.6</ele><time>2026-04-04T12:47:57.956Z</time></trkpt><trkpt lat="43.3022208" lon="10.6059957"><ele>154.8</ele><time>2026-04-04T12:47:58.957Z</time></trkpt><trkpt lat="43.3022094" lon="10.6060863"><ele>155.0</ele><time>2026-04-04T12:47:59.975Z</time></trkpt><trkpt lat="43.3022695" lon="10.6062368"><ele>156.0</ele><time>2026-04-04T12:48:01.98Z</time></trkpt><trkpt lat="43.3023271" lon="10.6062891"><ele>157.0</ele><time>2026-04-04T12:48:02.969Z</time></trkpt><trkpt lat="43.3023816" lon="10.606336"><ele>158.0</ele><time>2026-04-04T12:48:03.965Z</time></trkpt><trkpt lat="43.3024398" lon="10.6063783"><ele>159.0</ele><time>2026-04-04T12:48:04.96Z</time></trkpt><trkpt lat="43.302503" lon="10.6064243"><ele>160.0</ele><time>2026-04-04T12:48:05.972Z</time></trkpt><trkpt lat="43.3025724" lon="10.6064786"><ele>161.0</ele><time>2026-04-04T12:48:06.971Z</time></trkpt><trkpt lat="43.3026484" lon="10.6065355"><ele>162.0</ele><time>2026-04-04T12:48:07.969Z</time></trkpt><trkpt lat="43.3027207" lon="10.6065918"><ele>162.0</ele><time>2026-04-04T12:48:08.96Z</time></trkpt><trkpt lat="43.3027765" lon="10.6066407"><ele>162.0</ele><time>2026-04-04T12:48:09.962Z</time></trkpt><trkpt lat="43.3028449" lon="10.6067535"><ele>162.0</ele><time>2026-04-04T12:48:11.972Z</time></trkpt><trkpt lat="43.3028711" lon="10.6068364"><ele>162.0</ele><time>2026-04-04T12:48:12.958Z</time></trkpt><trkpt lat="43.3028977" lon="10.6069456"><ele>162.0</ele><time>2026-04-04T12:48:13.972Z</time></trkpt><trkpt lat="43.3029411" lon="10.6070538"><ele>162.0</ele><time>2026-04-04T12:48:14.962Z</time></trkpt><trkpt lat="43.303" lon="10.6071595"><ele>163.0</ele><time>2026-04-04T12:48:15.973Z</time></trkpt><trkpt lat="43.3030642" lon="10.6072585"><ele>164.0</ele><time>2026-04-04T12:48:16.97Z</time></trkpt><trkpt lat="43.3031143" lon="10.6073479"><ele>165.0</ele><time>2026-04-04T12:48:17.961Z</time></trkpt><trkpt lat="43.3031336" lon="10.607439"><ele>166.0</ele><time>2026-04-04T12:48:18.97Z</time></trkpt><trkpt lat="43.3031039" lon="10.6075304"><ele>167.0</ele><time>2026-04-04T12:48:19.971Z</time></trkpt><trkpt lat="43.3030642" lon="10.6076299"><ele>168.0</ele><time>2026-04-04T12:48:20.948Z</time></trkpt><trkpt lat="43.3030183" lon="10.607728"><ele>169.60000000000002</ele><time>2026-04-04T12:48:21.965Z</time></trkpt><trkpt lat="43.3029732" lon="10.6078346"><ele>171.20000000000002</ele><time>2026-04-04T12:48:22.965Z</time></trkpt><trkpt lat="43.3029255" lon="10.6079483"><ele>172.8</ele><time>2026-04-04T12:48:23.967Z</time></trkpt><trkpt lat="43.3028741" lon="10.6080744"><ele>174.4</ele><time>2026-04-04T12:48:24.957Z</time></trkpt><trkpt lat="43.3028193" lon="10.6082075"><ele>176.0</ele><time>2026-04-04T12:48:25.952Z</time></trkpt><trkpt lat="43.3027655" lon="10.6083428"><ele>176.0</ele><time>2026-04-04T12:48:26.951Z</time></trkpt><trkpt lat="43.3027098" lon="10.6084869"><ele>176.0</ele><time>2026-04-04T12:48:27.974Z</time></trkpt><trkpt lat="43.3026494" lon="10.6086401"><ele>176.0</ele><time>2026-04-04T12:48:28.968Z</time></trkpt><trkpt lat="43.3025872" lon="10.6087983"><ele>176.0</ele><time>2026-04-04T12:48:29.955Z</time></trkpt><trkpt lat="43.3025277" lon="10.6089601"><ele>178.0</ele><time>2026-04-04T12:48:30.952Z</time></trkpt><trkpt lat="43.3024685" lon="10.6091226"><ele>180.0</ele><time>2026-04-04T12:48:31.956Z</time></trkpt><trkpt lat="43.3024102" lon="10.6092816"><ele>182.0</ele><time>2026-04-04T12:48:32.972Z</time></trkpt><trkpt lat="43.3023518" lon="10.6094301"><ele>184.0</ele><time>2026-04-04T12:48:33.969Z</time></trkpt><trkpt lat="43.3022844" lon="10.6095834"><ele>185.0</ele><time>2026-04-04T12:48:34.964Z</time></trkpt><trkpt lat="43.3022217" lon="10.6097332"><ele>186.0</ele><time>2026-04-04T12:48:35.968Z</time></trkpt><trkpt lat="43.3021827" lon="10.6098737"><ele>187.0</ele><time>2026-04-04T12:48:36.967Z</time></trkpt><trkpt lat="43.3021547" lon="10.6100241"><ele>188.0</ele><time>2026-04-04T12:48:37.957Z</time></trkpt><trkpt lat="43.3021402" lon="10.6101636"><ele>188.0</ele><time>2026-04-04T12:48:38.976Z</time></trkpt><trkpt lat="43.3021268" lon="10.6103026"><ele>188.0</ele><time>2026-04-04T12:48:39.971Z</time></trkpt><trkpt lat="43.3021162" lon="10.6104356"><ele>188.0</ele><time>2026-04-04T12:48:40.97Z</time></trkpt><trkpt lat="43.3021074" lon="10.610573"><ele>188.0</ele><time>2026-04-04T12:48:41.967Z</time></trkpt><trkpt lat="43.3020988" lon="10.6107105"><ele>188.0</ele><time>2026-04-04T12:48:42.96Z</time></trkpt><trkpt lat="43.3020883" lon="10.6108507"><ele>189.0</ele><time>2026-04-04T12:48:43.961Z</time></trkpt><trkpt lat="43.3020771" lon="10.6110013"><ele>190.0</ele><time>2026-04-04T12:48:44.955Z</time></trkpt><trkpt lat="43.3020635" lon="10.6111548"><ele>191.0</ele><time>2026-04-04T12:48:45.966Z</time></trkpt><trkpt lat="43.3020458" lon="10.6113054"><ele>192.0</ele><time>2026-04-04T12:48:46.969Z</time></trkpt><trkpt lat="43.3020275" lon="10.6114568"><ele>193.0</ele><time>2026-04-04T12:48:47.965Z</time></trkpt><trkpt lat="43.3020144" lon="10.6116028"><ele>194.60000000000002</ele><time>2026-04-04T12:48:48.967Z</time></trkpt><trkpt lat="43.3020019" lon="10.6117512"><ele>196.20000000000002</ele><time>2026-04-04T12:48:49.967Z</time></trkpt><trkpt lat="43.3019879" lon="10.6118947"><ele>197.8</ele><time>2026-04-04T12:48:50.962Z</time></trkpt><trkpt lat="43.3019815" lon="10.612041"><ele>199.4</ele><time>2026-04-04T12:48:51.955Z</time></trkpt><trkpt lat="43.3019804" lon="10.612193"><ele>201.0</ele><time>2026-04-04T12:48:52.96Z</time></trkpt><trkpt lat="43.3019795" lon="10.6123484"><ele>202.20000000000002</ele><time>2026-04-04T12:48:53.965Z</time></trkpt><trkpt lat="43.3019764" lon="10.6125056"><ele>203.4</ele><time>2026-04-04T12:48:54.965Z</time></trkpt><trkpt lat="43.3019772" lon="10.6126592"><ele>204.6</ele><time>2026-04-04T12:48:55.971Z</time></trkpt><trkpt lat="43.3019631" lon="10.6127995"><ele>205.8</ele><time>2026-04-04T12:48:56.961Z</time></trkpt><trkpt lat="43.3019242" lon="10.6129375"><ele>207.0</ele><time>2026-04-04T12:48:57.957Z</time></trkpt><trkpt lat="43.301885" lon="10.6130755"><ele>208.2</ele><time>2026-04-04T12:48:58.97Z</time></trkpt><trkpt lat="43.3018531" lon="10.61322"><ele>209.39999999999998</ele><time>2026-04-04T12:48:59.967Z</time></trkpt><trkpt lat="43.3018304" lon="10.6133501"><ele>210.60000000000002</ele><time>2026-04-04T12:49:00.97Z</time></trkpt><trkpt lat="43.3018176" lon="10.6134767"><ele>211.8</ele><time>2026-04-04T12:49:01.954Z</time></trkpt><trkpt lat="43.3017987" lon="10.6136425"><ele>213.0</ele><time>2026-04-04T12:49:02.958Z</time></trkpt><trkpt lat="43.3017815" lon="10.6138041"><ele>213.8</ele><time>2026-04-04T12:49:03.96Z</time></trkpt><trkpt lat="43.3017696" lon="10.6139637"><ele>214.60000000000002</ele><time>2026-04-04T12:49:04.952Z</time></trkpt><trkpt lat="43.3017638" lon="10.6141"><ele>215.39999999999998</ele><time>2026-04-04T12:49:05.96Z</time></trkpt><trkpt lat="43.3017535" lon="10.6142467"><ele>216.2</ele><time>2026-04-04T12:49:06.955Z</time></trkpt><trkpt lat="43.3017332" lon="10.614412"><ele>217.0</ele><time>2026-04-04T12:49:07.963Z</time></trkpt><trkpt lat="43.301717" lon="10.614575"><ele>218.75</ele><time>2026-04-04T12:49:08.963Z</time></trkpt><trkpt lat="43.3017012" lon="10.6147578"><ele>220.5</ele><time>2026-04-04T12:49:09.967Z</time></trkpt><trkpt lat="43.3016819" lon="10.6149078"><ele>222.25</ele><time>2026-04-04T12:49:10.966Z</time></trkpt><trkpt lat="43.3016642" lon="10.6150664"><ele>224.0</ele><time>2026-04-04T12:49:11.95Z</time></trkpt><trkpt lat="43.3016521" lon="10.6152124"><ele>224.75</ele><time>2026-04-04T12:49:12.97Z</time></trkpt><trkpt lat="43.3016482" lon="10.6153704"><ele>225.5</ele><time>2026-04-04T12:49:13.967Z</time></trkpt><trkpt lat="43.3016503" lon="10.6155349"><ele>226.25</ele><time>2026-04-04T12:49:14.975Z</time></trkpt><trkpt lat="43.3016547" lon="10.6157009"><ele>227.0</ele><time>2026-04-04T12:49:15.967Z</time></trkpt><trkpt lat="43.3016598" lon="10.615868"><ele>227.0</ele><time>2026-04-04T12:49:16.967Z</time></trkpt><trkpt lat="43.3016669" lon="10.616037"><ele>227.0</ele><time>2026-04-04T12:49:17.949Z</time></trkpt><trkpt lat="43.3016648" lon="10.6162067"><ele>227.0</ele><time>2026-04-04T12:49:18.96Z</time></trkpt><trkpt lat="43.3016589" lon="10.6163723"><ele>227.0</ele><time>2026-04-04T12:49:19.956Z</time></trkpt><trkpt lat="43.3016333" lon="10.6165433"><ele>227.5</ele><time>2026-04-04T12:49:20.966Z</time></trkpt><trkpt lat="43.3016142" lon="10.616717"><ele>228.0</ele><time>2026-04-04T12:49:21.96Z</time></trkpt><trkpt lat="43.3015967" lon="10.6168908"><ele>228.5</ele><time>2026-04-04T12:49:22.957Z</time></trkpt><trkpt lat="43.3015861" lon="10.6170696"><ele>229.0</ele><time>2026-04-04T12:49:23.949Z</time></trkpt><trkpt lat="43.30158" lon="10.617249"><ele>229.25</ele><time>2026-04-04T12:49:24.971Z</time></trkpt><trkpt lat="43.3015749" lon="10.6174424"><ele>229.5</ele><time>2026-04-04T12:49:25.965Z</time></trkpt><trkpt lat="43.3015699" lon="10.6176283"><ele>229.75</ele><time>2026-04-04T12:49:26.957Z</time></trkpt><trkpt lat="43.3015623" lon="10.6178173"><ele>230.0</ele><time>2026-04-04T12:49:27.96Z</time></trkpt><trkpt lat="43.3015604" lon="10.6180033"><ele>229.75</ele><time>2026-04-04T12:49:28.961Z</time></trkpt><trkpt lat="43.3015571" lon="10.6181883"><ele>229.5</ele><time>2026-04-04T12:49:29.961Z</time></trkpt><trkpt lat="43.3015705" lon="10.6183775"><ele>229.25</ele><time>2026-04-04T12:49:30.962Z</time></trkpt><trkpt lat="43.3015886" lon="10.6185659"><ele>229.0</ele><time>2026-04-04T12:49:31.97Z</time></trkpt><trkpt lat="43.3016097" lon="10.6187558"><ele>229.0</ele><time>2026-04-04T12:49:32.956Z</time></trkpt><trkpt lat="43.3016327" lon="10.6189458"><ele>229.0</ele><time>2026-04-04T12:49:33.955Z</time></trkpt><trkpt lat="43.3016628" lon="10.6191339"><ele>229.0</ele><time>2026-04-04T12:49:34.969Z</time></trkpt><trkpt lat="43.3016927" lon="10.6193255"><ele>229.0</ele><time>2026-04-04T12:49:35.963Z</time></trkpt><trkpt lat="43.3017431" lon="10.6195112"><ele>228.75</ele><time>2026-04-04T12:49:36.958Z</time></trkpt><trkpt lat="43.301811" lon="10.6196836"><ele>228.5</ele><time>2026-04-04T12:49:37.979Z</time></trkpt><trkpt lat="43.3018804" lon="10.6198513"><ele>228.25</ele><time>2026-04-04T12:49:38.966Z</time></trkpt><trkpt lat="43.3019579" lon="10.6200234"><ele>228.0</ele><time>2026-04-04T12:49:39.958Z</time></trkpt><trkpt lat="43.3020406" lon="10.620197"><ele>227.33333333333331</ele><time>2026-04-04T12:49:40.958Z</time></trkpt><trkpt lat="43.3021235" lon="10.6203688"><ele>226.66666666666666</ele><time>2026-04-04T12:49:41.966Z</time></trkpt><trkpt lat="43.3022064" lon="10.6205405"><ele>226.0</ele><time>2026-04-04T12:49:42.954Z</time></trkpt><trkpt lat="43.3022911" lon="10.6207145"><ele>226.0</ele><time>2026-04-04T12:49:43.973Z</time></trkpt><trkpt lat="43.3023735" lon="10.6208844"><ele>226.0</ele><time>2026-04-04T12:49:44.951Z</time></trkpt><trkpt lat="43.3024626" lon="10.6210438"><ele>226.0</ele><time>2026-04-04T12:49:45.957Z</time></trkpt><trkpt lat="43.3025612" lon="10.6211957"><ele>226.0</ele><time>2026-04-04T12:49:46.974Z</time></trkpt><trkpt lat="43.3026626" lon="10.6213323"><ele>226.25</ele><time>2026-04-04T12:49:47.961Z</time></trkpt><trkpt lat="43.3027614" lon="10.6214615"><ele>226.5</ele><time>2026-04-04T12:49:48.975Z</time></trkpt><trkpt lat="43.3028429" lon="10.6215857"><ele>226.75</ele><time>2026-04-04T12:49:49.951Z</time></trkpt><trkpt lat="43.3029049" lon="10.6217279"><ele>227.0</ele><time>2026-04-04T12:49:50.967Z</time></trkpt><trkpt lat="43.3029462" lon="10.6218869"><ele>226.25</ele><time>2026-04-04T12:49:51.948Z</time></trkpt><trkpt lat="43.302971" lon="10.6220561"><ele>225.5</ele><time>2026-04-04T12:49:52.956Z</time></trkpt><trkpt lat="43.3029958" lon="10.6222288"><ele>224.75</ele><time>2026-04-04T12:49:53.963Z</time></trkpt><trkpt lat="43.3030138" lon="10.6224128"><ele>224.0</ele><time>2026-04-04T12:49:54.972Z</time></trkpt><trkpt lat="43.3030417" lon="10.6225975"><ele>224.0</ele><time>2026-04-04T12:49:55.968Z</time></trkpt><trkpt lat="43.3030722" lon="10.6227852"><ele>224.0</ele><time>2026-04-04T12:49:56.977Z</time></trkpt><trkpt lat="43.3031064" lon="10.62298"><ele>224.0</ele><time>2026-04-04T12:49:57.974Z</time></trkpt><trkpt lat="43.3031369" lon="10.6231669"><ele>224.0</ele><time>2026-04-04T12:49:58.967Z</time></trkpt><trkpt lat="43.3031657" lon="10.6233435"><ele>226.25</ele><time>2026-04-04T12:49:59.971Z</time></trkpt><trkpt lat="43.3031953" lon="10.6235149"><ele>228.5</ele><time>2026-04-04T12:50:00.955Z</time></trkpt><trkpt lat="43.3032269" lon="10.6236824"><ele>230.75</ele><time>2026-04-04T12:50:01.957Z</time></trkpt><trkpt lat="43.3032512" lon="10.6238503"><ele>233.0</ele><time>2026-04-04T12:50:02.96Z</time></trkpt><trkpt lat="43.3032751" lon="10.6240215"><ele>234.0</ele><time>2026-04-04T12:50:03.956Z</time></trkpt><trkpt lat="43.3032965" lon="10.6241986"><ele>235.0</ele><time>2026-04-04T12:50:04.955Z</time></trkpt><trkpt lat="43.3033198" lon="10.6243715"><ele>236.0</ele><time>2026-04-04T12:50:05.958Z</time></trkpt><trkpt lat="43.3033432" lon="10.6245439"><ele>237.0</ele><time>2026-04-04T12:50:06.958Z</time></trkpt><trkpt lat="43.3033703" lon="10.6247139"><ele>237.25</ele><time>2026-04-04T12:50:07.972Z</time></trkpt><trkpt lat="43.3034106" lon="10.6248859"><ele>237.5</ele><time>2026-04-04T12:50:08.974Z</time></trkpt><trkpt lat="43.3034478" lon="10.6250605"><ele>237.75</ele><time>2026-04-04T12:50:09.959Z</time></trkpt><trkpt lat="43.3034829" lon="10.6252399"><ele>238.0</ele><time>2026-04-04T12:50:10.966Z</time></trkpt><trkpt lat="43.3034996" lon="10.6254239"><ele>238.0</ele><time>2026-04-04T12:50:11.974Z</time></trkpt><trkpt lat="43.3035071" lon="10.6255879"><ele>238.0</ele><time>2026-04-04T12:50:12.959Z</time></trkpt><trkpt lat="43.3035105" lon="10.6257284"><ele>238.0</ele><time>2026-04-04T12:50:13.974Z</time></trkpt><trkpt lat="43.3035069" lon="10.6258509"><ele>238.0</ele><time>2026-04-04T12:50:14.972Z</time></trkpt><trkpt lat="43.3034993" lon="10.625945"><ele>238.0</ele><time>2026-04-04T12:50:15.958Z</time></trkpt><trkpt lat="43.3034742" lon="10.6260918"><ele>238.4</ele><time>2026-04-04T12:50:17.955Z</time></trkpt><trkpt lat="43.3034626" lon="10.6261973"><ele>238.8</ele><time>2026-04-04T12:50:19.959Z</time></trkpt><trkpt lat="43.3034904" lon="10.6263689"><ele>239.2</ele><time>2026-04-04T12:50:21.977Z</time></trkpt><trkpt lat="43.3035335" lon="10.6264726"><ele>239.6</ele><time>2026-04-04T12:50:22.952Z</time></trkpt><trkpt lat="43.3035842" lon="10.6265821"><ele>240.0</ele><time>2026-04-04T12:50:23.956Z</time></trkpt><trkpt lat="43.3036352" lon="10.6267121"><ele>240.0</ele><time>2026-04-04T12:50:24.954Z</time></trkpt><trkpt lat="43.303682" lon="10.6268655"><ele>240.0</ele><time>2026-04-04T12:50:25.956Z</time></trkpt><trkpt lat="43.3037261" lon="10.6270298"><ele>240.0</ele><time>2026-04-04T12:50:26.969Z</time></trkpt><trkpt lat="43.3037717" lon="10.6272061"><ele>240.0</ele><time>2026-04-04T12:50:27.974Z</time></trkpt><trkpt lat="43.3038214" lon="10.6273914"><ele>240.33333333333331</ele><time>2026-04-04T12:50:28.964Z</time></trkpt><trkpt lat="43.3038753" lon="10.6275871"><ele>240.66666666666666</ele><time>2026-04-04T12:50:29.962Z</time></trkpt><trkpt lat="43.3039351" lon="10.6277887"><ele>241.0</ele><time>2026-04-04T12:50:30.968Z</time></trkpt><trkpt lat="43.3040066" lon="10.6279918"><ele>241.0</ele><time>2026-04-04T12:50:31.957Z</time></trkpt><trkpt lat="43.3040889" lon="10.6281925"><ele>241.0</ele><time>2026-04-04T12:50:32.965Z</time></trkpt><trkpt lat="43.3041826" lon="10.6283854"><ele>241.0</ele><time>2026-04-04T12:50:33.972Z</time></trkpt><trkpt lat="43.3042835" lon="10.6285696"><ele>244.33333333333331</ele><time>2026-04-04T12:50:34.969Z</time></trkpt><trkpt lat="43.3043944" lon="10.6287452"><ele>247.66666666666669</ele><time>2026-04-04T12:50:35.97Z</time></trkpt><trkpt lat="43.3045118" lon="10.6289147"><ele>251.0</ele><time>2026-04-04T12:50:36.967Z</time></trkpt><trkpt lat="43.3046351" lon="10.6290747"><ele>246.33333333333334</ele><time>2026-04-04T12:50:37.972Z</time></trkpt><trkpt lat="43.3047641" lon="10.6292246"><ele>241.66666666666669</ele><time>2026-04-04T12:50:38.972Z</time></trkpt><trkpt lat="43.3049006" lon="10.6293626"><ele>237.0</ele><time>2026-04-04T12:50:39.955Z</time></trkpt><trkpt lat="43.3050417" lon="10.6294855"><ele>237.0</ele><time>2026-04-04T12:50:40.971Z</time></trkpt><trkpt lat="43.3051836" lon="10.6295905"><ele>237.0</ele><time>2026-04-04T12:50:41.97Z</time></trkpt><trkpt lat="43.305326" lon="10.6296828"><ele>237.0</ele><time>2026-04-04T12:50:42.954Z</time></trkpt><trkpt lat="43.3054726" lon="10.6297663"><ele>234.0</ele><time>2026-04-04T12:50:43.97Z</time></trkpt><trkpt lat="43.3056231" lon="10.6298484"><ele>231.0</ele><time>2026-04-04T12:50:44.971Z</time></trkpt><trkpt lat="43.3057787" lon="10.6299313"><ele>228.0</ele><time>2026-04-04T12:50:45.97Z</time></trkpt><trkpt lat="43.3059391" lon="10.6300167"><ele>228.0</ele><time>2026-04-04T12:50:46.952Z</time></trkpt><trkpt lat="43.3061042" lon="10.6301046"><ele>228.0</ele><time>2026-04-04T12:50:47.97Z</time></trkpt><trkpt lat="43.3062733" lon="10.6301953"><ele>228.0</ele><time>2026-04-04T12:50:48.966Z</time></trkpt><trkpt lat="43.3064465" lon="10.6302868"><ele>226.33333333333331</ele><time>2026-04-04T12:50:49.957Z</time></trkpt><trkpt lat="43.3066236" lon="10.6303791"><ele>224.66666666666666</ele><time>2026-04-04T12:50:50.968Z</time></trkpt><trkpt lat="43.3068026" lon="10.6304727"><ele>223.0</ele><time>2026-04-04T12:50:51.964Z</time></trkpt><trkpt lat="43.306982" lon="10.6305667"><ele>223.0</ele><time>2026-04-04T12:50:52.971Z</time></trkpt><trkpt lat="43.3071607" lon="10.6306587"><ele>223.0</ele><time>2026-04-04T12:50:53.956Z</time></trkpt><trkpt lat="43.3073377" lon="10.6307502"><ele>223.0</ele><time>2026-04-04T12:50:54.971Z</time></trkpt><trkpt lat="43.3075118" lon="10.6308422"><ele>228.66666666666666</ele><time>2026-04-04T12:50:55.955Z</time></trkpt><trkpt lat="43.3076822" lon="10.6309342"><ele>234.33333333333331</ele><time>2026-04-04T12:50:56.971Z</time></trkpt><trkpt lat="43.3078479" lon="10.6310249"><ele>240.0</ele><time>2026-04-04T12:50:57.956Z</time></trkpt><trkpt lat="43.3080095" lon="10.6311077"><ele>236.33333333333331</ele><time>2026-04-04T12:50:58.971Z</time></trkpt><trkpt lat="43.3081638" lon="10.6311673"><ele>232.66666666666666</ele><time>2026-04-04T12:50:59.974Z</time></trkpt><trkpt lat="43.3083146" lon="10.6312162"><ele>229.0</ele><time>2026-04-04T12:51:00.97Z</time></trkpt><trkpt lat="43.3084603" lon="10.631182"><ele>231.0</ele><time>2026-04-04T12:51:01.957Z</time></trkpt><trkpt lat="43.3085915" lon="10.6310975"><ele>233.0</ele><time>2026-04-04T12:51:02.964Z</time></trkpt><trkpt lat="43.3087126" lon="10.6309857"><ele>235.0</ele><time>2026-04-04T12:51:03.963Z</time></trkpt><trkpt lat="43.3088122" lon="10.6308178"><ele>237.0</ele><time>2026-04-04T12:51:04.957Z</time></trkpt><trkpt lat="43.3089123" lon="10.6306399"><ele>237.0</ele><time>2026-04-04T12:51:05.951Z</time></trkpt><trkpt lat="43.3090151" lon="10.6304657"><ele>237.0</ele><time>2026-04-04T12:51:06.958Z</time></trkpt><trkpt lat="43.309117" lon="10.630297"><ele>237.0</ele><time>2026-04-04T12:51:07.956Z</time></trkpt><trkpt lat="43.3092199" lon="10.6301352"><ele>239.66666666666669</ele><time>2026-04-04T12:51:08.965Z</time></trkpt><trkpt lat="43.3093227" lon="10.6299761"><ele>242.33333333333334</ele><time>2026-04-04T12:51:09.965Z</time></trkpt><trkpt lat="43.3094319" lon="10.6298253"><ele>245.0</ele><time>2026-04-04T12:51:10.967Z</time></trkpt><trkpt lat="43.3095518" lon="10.6296923"><ele>245.0</ele><time>2026-04-04T12:51:11.969Z</time></trkpt><trkpt lat="43.3096749" lon="10.6295719"><ele>245.0</ele><time>2026-04-04T12:51:12.967Z</time></trkpt><trkpt lat="43.3098195" lon="10.6295024"><ele>245.0</ele><time>2026-04-04T12:51:13.964Z</time></trkpt><trkpt lat="43.3099664" lon="10.6294508"><ele>245.0</ele><time>2026-04-04T12:51:14.957Z</time></trkpt><trkpt lat="43.3101132" lon="10.6294234"><ele>245.0</ele><time>2026-04-04T12:51:15.953Z</time></trkpt><trkpt lat="43.3102612" lon="10.6294041"><ele>245.0</ele><time>2026-04-04T12:51:16.97Z</time></trkpt><trkpt lat="43.3104054" lon="10.6294012"><ele>245.0</ele><time>2026-04-04T12:51:17.96Z</time></trkpt><trkpt lat="43.3105483" lon="10.6293917"><ele>247.25</ele><time>2026-04-04T12:51:18.975Z</time></trkpt><trkpt lat="43.3106879" lon="10.6293882"><ele>249.5</ele><time>2026-04-04T12:51:19.966Z</time></trkpt><trkpt lat="43.3108115" lon="10.6294067"><ele>251.75</ele><time>2026-04-04T12:51:20.951Z</time></trkpt><trkpt lat="43.3109173" lon="10.6294413"><ele>254.0</ele><time>2026-04-04T12:51:21.961Z</time></trkpt><trkpt lat="43.3110088" lon="10.6294921"><ele>254.50000000000003</ele><time>2026-04-04T12:51:22.955Z</time></trkpt><trkpt lat="43.3110641" lon="10.629573"><ele>255.0</ele><time>2026-04-04T12:51:23.971Z</time></trkpt><trkpt lat="43.3110987" lon="10.6296638"><ele>255.5</ele><time>2026-04-04T12:51:24.972Z</time></trkpt><trkpt lat="43.3111242" lon="10.6297582"><ele>256.0</ele><time>2026-04-04T12:51:25.955Z</time></trkpt><trkpt lat="43.3111411" lon="10.6298653"><ele>256.5</ele><time>2026-04-04T12:51:26.969Z</time></trkpt><trkpt lat="43.3111439" lon="10.6299918"><ele>257.0</ele><time>2026-04-04T12:51:27.954Z</time></trkpt><trkpt lat="43.3111336" lon="10.6301392"><ele>257.0</ele><time>2026-04-04T12:51:28.969Z</time></trkpt><trkpt lat="43.3111201" lon="10.6303039"><ele>257.0</ele><time>2026-04-04T12:51:29.971Z</time></trkpt><trkpt lat="43.3111077" lon="10.6304763"><ele>257.0</ele><time>2026-04-04T12:51:30.975Z</time></trkpt><trkpt lat="43.3110978" lon="10.6306554"><ele>257.0</ele><time>2026-04-04T12:51:31.96Z</time></trkpt><trkpt lat="43.3110891" lon="10.6308428"><ele>255.33333333333334</ele><time>2026-04-04T12:51:32.956Z</time></trkpt><trkpt lat="43.3110834" lon="10.6310439"><ele>253.66666666666669</ele><time>2026-04-04T12:51:33.974Z</time></trkpt><trkpt lat="43.3110833" lon="10.6312599"><ele>252.0</ele><time>2026-04-04T12:51:34.966Z</time></trkpt><trkpt lat="43.3110871" lon="10.6314879"><ele>250.33333333333331</ele><time>2026-04-04T12:51:35.959Z</time></trkpt><trkpt lat="43.3110917" lon="10.6317246"><ele>248.66666666666666</ele><time>2026-04-04T12:51:36.967Z</time></trkpt><trkpt lat="43.3110988" lon="10.6319789"><ele>247.0</ele><time>2026-04-04T12:51:37.97Z</time></trkpt><trkpt lat="43.3111081" lon="10.6322405"><ele>246.0</ele><time>2026-04-04T12:51:38.956Z</time></trkpt><trkpt lat="43.3111109" lon="10.6324837"><ele>245.0</ele><time>2026-04-04T12:51:39.974Z</time></trkpt><trkpt lat="43.3111098" lon="10.6327304"><ele>244.0</ele><time>2026-04-04T12:51:40.96Z</time></trkpt><trkpt lat="43.311101" lon="10.6329595"><ele>242.0</ele><time>2026-04-04T12:51:41.967Z</time></trkpt><trkpt lat="43.3110908" lon="10.6332013"><ele>240.0</ele><time>2026-04-04T12:51:42.967Z</time></trkpt><trkpt lat="43.3110806" lon="10.6334395"><ele>238.0</ele><time>2026-04-04T12:51:43.971Z</time></trkpt><trkpt lat="43.3110707" lon="10.6336801"><ele>236.33333333333331</ele><time>2026-04-04T12:51:44.954Z</time></trkpt><trkpt lat="43.3110608" lon="10.6339206"><ele>234.66666666666669</ele><time>2026-04-04T12:51:45.967Z</time></trkpt><trkpt lat="43.3110506" lon="10.6341551"><ele>233.0</ele><time>2026-04-04T12:51:46.975Z</time></trkpt><trkpt lat="43.3110392" lon="10.634388"><ele>231.33333333333334</ele><time>2026-04-04T12:51:47.965Z</time></trkpt><trkpt lat="43.3110271" lon="10.6346077"><ele>229.66666666666669</ele><time>2026-04-04T12:51:48.966Z</time></trkpt><trkpt lat="43.3110167" lon="10.6348171"><ele>228.0</ele><time>2026-04-04T12:51:49.962Z</time></trkpt><trkpt lat="43.3110065" lon="10.6350214"><ele>228.0</ele><time>2026-04-04T12:51:50.96Z</time></trkpt><trkpt lat="43.3110549" lon="10.6352189"><ele>228.0</ele><time>2026-04-04T12:51:51.951Z</time></trkpt><trkpt lat="43.3111397" lon="10.6354046"><ele>228.0</ele><time>2026-04-04T12:51:52.958Z</time></trkpt><trkpt lat="43.3112495" lon="10.6355606"><ele>228.66666666666669</ele><time>2026-04-04T12:51:53.969Z</time></trkpt><trkpt lat="43.3113726" lon="10.6356931"><ele>229.33333333333334</ele><time>2026-04-04T12:51:54.96Z</time></trkpt><trkpt lat="43.3114963" lon="10.6358215"><ele>230.0</ele><time>2026-04-04T12:51:55.971Z</time></trkpt><trkpt lat="43.3116117" lon="10.6359665"><ele>230.0</ele><time>2026-04-04T12:51:56.966Z</time></trkpt><trkpt lat="43.3117094" lon="10.6361321"><ele>230.0</ele><time>2026-04-04T12:51:57.956Z</time></trkpt><trkpt lat="43.3117838" lon="10.6363175"><ele>230.0</ele><time>2026-04-04T12:51:58.97Z</time></trkpt><trkpt lat="43.3118298" lon="10.6365234"><ele>226.33333333333334</ele><time>2026-04-04T12:51:59.97Z</time></trkpt><trkpt lat="43.3118577" lon="10.6367347"><ele>222.66666666666669</ele><time>2026-04-04T12:52:00.956Z</time></trkpt><trkpt lat="43.3118851" lon="10.6369438"><ele>219.0</ele><time>2026-04-04T12:52:01.955Z</time></trkpt><trkpt lat="43.311913" lon="10.6371519"><ele>215.33333333333331</ele><time>2026-04-04T12:52:02.973Z</time></trkpt><trkpt lat="43.3119375" lon="10.6373643"><ele>211.66666666666666</ele><time>2026-04-04T12:52:03.957Z</time></trkpt><trkpt lat="43.3119613" lon="10.6375792"><ele>208.0</ele><time>2026-04-04T12:52:04.976Z</time></trkpt><trkpt lat="43.3119882" lon="10.6377912"><ele>207.75</ele><time>2026-04-04T12:52:05.973Z</time></trkpt><trkpt lat="43.312024" lon="10.6379872"><ele>207.5</ele><time>2026-04-04T12:52:06.968Z</time></trkpt><trkpt lat="43.3120837" lon="10.6381595"><ele>207.25</ele><time>2026-04-04T12:52:07.972Z</time></trkpt><trkpt lat="43.3121729" lon="10.6382923"><ele>207.0</ele><time>2026-04-04T12:52:08.951Z</time></trkpt><trkpt lat="43.3122911" lon="10.638384"><ele>207.0</ele><time>2026-04-04T12:52:09.968Z</time></trkpt><trkpt lat="43.3124303" lon="10.6384385"><ele>207.0</ele><time>2026-04-04T12:52:10.974Z</time></trkpt><trkpt lat="43.312584" lon="10.6384709"><ele>207.0</ele><time>2026-04-04T12:52:11.964Z</time></trkpt><trkpt lat="43.3127474" lon="10.6385052"><ele>207.0</ele><time>2026-04-04T12:52:12.977Z</time></trkpt><trkpt lat="43.3129178" lon="10.6385515"><ele>207.0</ele><time>2026-04-04T12:52:13.972Z</time></trkpt><trkpt lat="43.3130961" lon="10.6385944"><ele>207.0</ele><time>2026-04-04T12:52:14.969Z</time></trkpt><trkpt lat="43.3132781" lon="10.6386282"><ele>199.66666666666666</ele><time>2026-04-04T12:52:15.955Z</time></trkpt><trkpt lat="43.3134549" lon="10.6386688"><ele>192.33333333333331</ele><time>2026-04-04T12:52:16.952Z</time></trkpt><trkpt lat="43.3136252" lon="10.6387154"><ele>185.0</ele><time>2026-04-04T12:52:17.968Z</time></trkpt><trkpt lat="43.3137855" lon="10.6387565"><ele>184.5</ele><time>2026-04-04T12:52:18.975Z</time></trkpt><trkpt lat="43.3139398" lon="10.6387788"><ele>184.0</ele><time>2026-04-04T12:52:19.971Z</time></trkpt><trkpt lat="43.3140838" lon="10.6387515"><ele>183.5</ele><time>2026-04-04T12:52:20.974Z</time></trkpt><trkpt lat="43.3142186" lon="10.6386679"><ele>183.0</ele><time>2026-04-04T12:52:21.956Z</time></trkpt><trkpt lat="43.314332" lon="10.6385538"><ele>181.75</ele><time>2026-04-04T12:52:22.968Z</time></trkpt><trkpt lat="43.31444" lon="10.6384447"><ele>180.5</ele><time>2026-04-04T12:52:23.968Z</time></trkpt><trkpt lat="43.3145593" lon="10.6383722"><ele>179.25</ele><time>2026-04-04T12:52:24.967Z</time></trkpt><trkpt lat="43.3146873" lon="10.6383525"><ele>178.0</ele><time>2026-04-04T12:52:25.965Z</time></trkpt><trkpt lat="43.3148135" lon="10.6383899"><ele>178.0</ele><time>2026-04-04T12:52:26.968Z</time></trkpt><trkpt lat="43.3149208" lon="10.638484"><ele>178.0</ele><time>2026-04-04T12:52:27.971Z</time></trkpt><trkpt lat="43.3149944" lon="10.6386224"><ele>178.0</ele><time>2026-04-04T12:52:28.965Z</time></trkpt><trkpt lat="43.3150296" lon="10.6387876"><ele>178.0</ele><time>2026-04-04T12:52:29.967Z</time></trkpt><trkpt lat="43.3150239" lon="10.6389645"><ele>176.75</ele><time>2026-04-04T12:52:30.965Z</time></trkpt><trkpt lat="43.3149819" lon="10.639145"><ele>175.5</ele><time>2026-04-04T12:52:31.956Z</time></trkpt><trkpt lat="43.3149181" lon="10.6393316"><ele>174.25</ele><time>2026-04-04T12:52:32.958Z</time></trkpt><trkpt lat="43.3148477" lon="10.6395278"><ele>173.0</ele><time>2026-04-04T12:52:33.96Z</time></trkpt><trkpt lat="43.3147748" lon="10.6397334"><ele>172.33333333333331</ele><time>2026-04-04T12:52:34.961Z</time></trkpt><trkpt lat="43.3147019" lon="10.6399419"><ele>171.66666666666666</ele><time>2026-04-04T12:52:35.971Z</time></trkpt><trkpt lat="43.3146291" lon="10.6401489"><ele>171.0</ele><time>2026-04-04T12:52:36.954Z</time></trkpt><trkpt lat="43.314563" lon="10.6403464"><ele>168.25</ele><time>2026-04-04T12:52:37.971Z</time></trkpt><trkpt lat="43.3145041" lon="10.6405372"><ele>165.5</ele><time>2026-04-04T12:52:38.956Z</time></trkpt><trkpt lat="43.3144622" lon="10.6407308"><ele>162.75</ele><time>2026-04-04T12:52:39.961Z</time></trkpt><trkpt lat="43.3144512" lon="10.6409244"><ele>160.0</ele><time>2026-04-04T12:52:40.968Z</time></trkpt><trkpt lat="43.3144745" lon="10.6411155"><ele>158.25</ele><time>2026-04-04T12:52:41.972Z</time></trkpt><trkpt lat="43.31453" lon="10.641292"><ele>156.5</ele><time>2026-04-04T12:52:42.968Z</time></trkpt><trkpt lat="43.3146144" lon="10.6414446"><ele>154.75</ele><time>2026-04-04T12:52:43.953Z</time></trkpt><trkpt lat="43.3147237" lon="10.6415653"><ele>153.0</ele><time>2026-04-04T12:52:44.955Z</time></trkpt><trkpt lat="43.314853" lon="10.6416484"><ele>153.0</ele><time>2026-04-04T12:52:45.965Z</time></trkpt><trkpt lat="43.3149902" lon="10.6417216"><ele>153.0</ele><time>2026-04-04T12:52:46.958Z</time></trkpt><trkpt lat="43.3151476" lon="10.6417677"><ele>153.0</ele><time>2026-04-04T12:52:47.977Z</time></trkpt><trkpt lat="43.3153058" lon="10.641821"><ele>153.0</ele><time>2026-04-04T12:52:48.953Z</time></trkpt><trkpt lat="43.3154658" lon="10.64188"><ele>153.0</ele><time>2026-04-04T12:52:49.972Z</time></trkpt><trkpt lat="43.3156222" lon="10.641945"><ele>153.0</ele><time>2026-04-04T12:52:50.966Z</time></trkpt><trkpt lat="43.3157766" lon="10.6420097"><ele>150.0</ele><time>2026-04-04T12:52:51.965Z</time></trkpt><trkpt lat="43.3159174" lon="10.6420686"><ele>147.0</ele><time>2026-04-04T12:52:52.953Z</time></trkpt><trkpt lat="43.3160407" lon="10.6421312"><ele>144.0</ele><time>2026-04-04T12:52:53.971Z</time></trkpt><trkpt lat="43.3161469" lon="10.6422144"><ele>141.0</ele><time>2026-04-04T12:52:54.958Z</time></trkpt><trkpt lat="43.3162513" lon="10.6422993"><ele>141.0</ele><time>2026-04-04T12:52:55.969Z</time></trkpt><trkpt lat="43.3163027" lon="10.6424701"><ele>141.0</ele><time>2026-04-04T12:52:56.957Z</time></trkpt><trkpt lat="43.3163141" lon="10.6426522"><ele>141.0</ele><time>2026-04-04T12:52:57.969Z</time></trkpt><trkpt lat="43.3162799" lon="10.642822"><ele>141.0</ele><time>2026-04-04T12:52:58.968Z</time></trkpt><trkpt lat="43.3162055" lon="10.64298"><ele>138.0</ele><time>2026-04-04T12:52:59.972Z</time></trkpt><trkpt lat="43.3161123" lon="10.6431297"><ele>135.0</ele><time>2026-04-04T12:53:00.951Z</time></trkpt><trkpt lat="43.3160208" lon="10.6432731"><ele>132.0</ele><time>2026-04-04T12:53:01.976Z</time></trkpt><trkpt lat="43.3159509" lon="10.6434265"><ele>129.0</ele><time>2026-04-04T12:53:02.972Z</time></trkpt><trkpt lat="43.3159004" lon="10.6435867"><ele>126.0</ele><time>2026-04-04T12:53:03.963Z</time></trkpt><trkpt lat="43.3159125" lon="10.6437652"><ele>123.0</ele><time>2026-04-04T12:53:04.964Z</time></trkpt><trkpt lat="43.3159567" lon="10.6439307"><ele>120.0</ele><time>2026-04-04T12:53:05.96Z</time></trkpt><trkpt lat="43.3160312" lon="10.6440724"><ele>117.0</ele><time>2026-04-04T12:53:06.967Z</time></trkpt><trkpt lat="43.3161362" lon="10.6441808"><ele>117.0</ele><time>2026-04-04T12:53:07.97Z</time></trkpt><trkpt lat="43.3162646" lon="10.6442462"><ele>117.0</ele><time>2026-04-04T12:53:08.977Z</time></trkpt><trkpt lat="43.3164113" lon="10.6442689"><ele>117.0</ele><time>2026-04-04T12:53:09.959Z</time></trkpt><trkpt lat="43.3165676" lon="10.6442685"><ele>117.0</ele><time>2026-04-04T12:53:10.964Z</time></trkpt><trkpt lat="43.3167231" lon="10.644269"><ele>116.0</ele><time>2026-04-04T12:53:11.969Z</time></trkpt><trkpt lat="43.3168678" lon="10.6442727"><ele>115.0</ele><time>2026-04-04T12:53:12.969Z</time></trkpt><trkpt lat="43.3169991" lon="10.6442765"><ele>114.0</ele><time>2026-04-04T12:53:13.973Z</time></trkpt><trkpt lat="43.3171201" lon="10.6442854"><ele>113.0</ele><time>2026-04-04T12:53:14.973Z</time></trkpt><trkpt lat="43.3172312" lon="10.6443073"><ele>111.2</ele><time>2026-04-04T12:53:15.956Z</time></trkpt><trkpt lat="43.3173108" lon="10.644387"><ele>109.4</ele><time>2026-04-04T12:53:16.968Z</time></trkpt><trkpt lat="43.3173463" lon="10.6444997"><ele>107.60000000000001</ele><time>2026-04-04T12:53:17.975Z</time></trkpt><trkpt lat="43.3173324" lon="10.6446212"><ele>105.80000000000001</ele><time>2026-04-04T12:53:18.967Z</time></trkpt><trkpt lat="43.3172772" lon="10.6447326"><ele>104.0</ele><time>2026-04-04T12:53:19.969Z</time></trkpt><trkpt lat="43.3171926" lon="10.6448266"><ele>104.0</ele><time>2026-04-04T12:53:20.963Z</time></trkpt><trkpt lat="43.3171004" lon="10.6449203"><ele>104.0</ele><time>2026-04-04T12:53:21.959Z</time></trkpt><trkpt lat="43.3170096" lon="10.6450182"><ele>104.0</ele><time>2026-04-04T12:53:22.966Z</time></trkpt><trkpt lat="43.3169879" lon="10.6451748"><ele>104.0</ele><time>2026-04-04T12:53:23.955Z</time></trkpt><trkpt lat="43.3170087" lon="10.6453367"><ele>101.25</ele><time>2026-04-04T12:53:24.957Z</time></trkpt><trkpt lat="43.3170634" lon="10.6455037"><ele>98.5</ele><time>2026-04-04T12:53:25.969Z</time></trkpt><trkpt lat="43.3171262" lon="10.6456926"><ele>95.75</ele><time>2026-04-04T12:53:26.947Z</time></trkpt><trkpt lat="43.3171933" lon="10.6458873"><ele>93.0</ele><time>2026-04-04T12:53:27.968Z</time></trkpt><trkpt lat="43.3172624" lon="10.6460948"><ele>90.66666666666667</ele><time>2026-04-04T12:53:28.965Z</time></trkpt><trkpt lat="43.3173335" lon="10.6463075"><ele>88.33333333333334</ele><time>2026-04-04T12:53:29.964Z</time></trkpt><trkpt lat="43.3174066" lon="10.6465274"><ele>86.0</ele><time>2026-04-04T12:53:30.959Z</time></trkpt><trkpt lat="43.3174667" lon="10.6467661"><ele>85.33333333333334</ele><time>2026-04-04T12:53:31.978Z</time></trkpt><trkpt lat="43.3175017" lon="10.6470167"><ele>84.66666666666667</ele><time>2026-04-04T12:53:32.955Z</time></trkpt><trkpt lat="43.31752" lon="10.6472798"><ele>84.0</ele><time>2026-04-04T12:53:33.971Z</time></trkpt><trkpt lat="43.3175234" lon="10.6475492"><ele>82.33333333333333</ele><time>2026-04-04T12:53:34.963Z</time></trkpt><trkpt lat="43.3175148" lon="10.6478341"><ele>80.66666666666666</ele><time>2026-04-04T12:53:35.959Z</time></trkpt><trkpt lat="43.3174994" lon="10.6481164"><ele>79.0</ele><time>2026-04-04T12:53:36.97Z</time></trkpt><trkpt lat="43.3174906" lon="10.6483972"><ele>78.66666666666666</ele><time>2026-04-04T12:53:37.969Z</time></trkpt><trkpt lat="43.3174849" lon="10.6486634"><ele>78.33333333333333</ele><time>2026-04-04T12:53:38.971Z</time></trkpt><trkpt lat="43.3174777" lon="10.6489388"><ele>78.0</ele><time>2026-04-04T12:53:39.965Z</time></trkpt><trkpt lat="43.3174703" lon="10.649216"><ele>77.66666666666667</ele><time>2026-04-04T12:53:40.96Z</time></trkpt><trkpt lat="43.3174632" lon="10.6495018"><ele>77.33333333333334</ele><time>2026-04-04T12:53:41.955Z</time></trkpt><trkpt lat="43.3174551" lon="10.6497915"><ele>77.0</ele><time>2026-04-04T12:53:42.952Z</time></trkpt><trkpt lat="43.3174481" lon="10.650088"><ele>77.66666666666667</ele><time>2026-04-04T12:53:43.955Z</time></trkpt><trkpt lat="43.3174398" lon="10.6503883"><ele>78.33333333333333</ele><time>2026-04-04T12:53:44.975Z</time></trkpt><trkpt lat="43.3174316" lon="10.6506888"><ele>79.0</ele><time>2026-04-04T12:53:45.96Z</time></trkpt><trkpt lat="43.317424" lon="10.6509907"><ele>79.0</ele><time>2026-04-04T12:53:46.959Z</time></trkpt><trkpt lat="43.317416" lon="10.6512919"><ele>79.0</ele><time>2026-04-04T12:53:47.953Z</time></trkpt><trkpt lat="43.3174087" lon="10.6515921"><ele>79.0</ele><time>2026-04-04T12:53:48.96Z</time></trkpt><trkpt lat="43.3174011" lon="10.651891"><ele>78.0</ele><time>2026-04-04T12:53:49.955Z</time></trkpt><trkpt lat="43.3173922" lon="10.6521878"><ele>77.0</ele><time>2026-04-04T12:53:50.964Z</time></trkpt><trkpt lat="43.3173822" lon="10.6524816"><ele>76.0</ele><time>2026-04-04T12:53:51.968Z</time></trkpt><trkpt lat="43.3173704" lon="10.6527744"><ele>74.66666666666666</ele><time>2026-04-04T12:53:52.966Z</time></trkpt><trkpt lat="43.3173577" lon="10.6530646"><ele>73.33333333333333</ele><time>2026-04-04T12:53:53.965Z</time></trkpt><trkpt lat="43.3173462" lon="10.6533484"><ele>72.0</ele><time>2026-04-04T12:53:54.978Z</time></trkpt><trkpt lat="43.317341" lon="10.6536256"><ele>70.66666666666667</ele><time>2026-04-04T12:53:55.967Z</time></trkpt><trkpt lat="43.3173515" lon="10.6538963"><ele>69.33333333333334</ele><time>2026-04-04T12:53:56.965Z</time></trkpt><trkpt lat="43.3173922" lon="10.6541573"><ele>68.0</ele><time>2026-04-04T12:53:57.968Z</time></trkpt><trkpt lat="43.3174626" lon="10.6544051"><ele>67.33333333333334</ele><time>2026-04-04T12:53:58.973Z</time></trkpt><trkpt lat="43.3175586" lon="10.6546343"><ele>66.66666666666667</ele><time>2026-04-04T12:53:59.97Z</time></trkpt><trkpt lat="43.3176797" lon="10.6548393"><ele>66.0</ele><time>2026-04-04T12:54:00.968Z</time></trkpt><trkpt lat="43.3178225" lon="10.6550149"><ele>66.0</ele><time>2026-04-04T12:54:01.958Z</time></trkpt><trkpt lat="43.3179763" lon="10.6551715"><ele>66.0</ele><time>2026-04-04T12:54:02.976Z</time></trkpt><trkpt lat="43.3181253" lon="10.6553368"><ele>66.0</ele><time>2026-04-04T12:54:03.955Z</time></trkpt><trkpt lat="43.3182561" lon="10.6555302"><ele>64.33333333333333</ele><time>2026-04-04T12:54:04.969Z</time></trkpt><trkpt lat="43.3183664" lon="10.6557516"><ele>62.666666666666664</ele><time>2026-04-04T12:54:05.966Z</time></trkpt><trkpt lat="43.3184577" lon="10.6559934"><ele>61.0</ele><time>2026-04-04T12:54:06.967Z</time></trkpt><trkpt lat="43.3185363" lon="10.6562485"><ele>59.666666666666664</ele><time>2026-04-04T12:54:07.961Z</time></trkpt><trkpt lat="43.3186146" lon="10.6565067"><ele>58.33333333333333</ele><time>2026-04-04T12:54:08.954Z</time></trkpt><trkpt lat="43.3186968" lon="10.6567663"><ele>57.0</ele><time>2026-04-04T12:54:09.957Z</time></trkpt><trkpt lat="43.3187802" lon="10.6570291"><ele>56.0</ele><time>2026-04-04T12:54:10.971Z</time></trkpt><trkpt lat="43.3188625" lon="10.6572966"><ele>55.0</ele><time>2026-04-04T12:54:11.968Z</time></trkpt><trkpt lat="43.3189452" lon="10.6575673"><ele>54.0</ele><time>2026-04-04T12:54:12.967Z</time></trkpt><trkpt lat="43.3190296" lon="10.6578407"><ele>51.0</ele><time>2026-04-04T12:54:13.972Z</time></trkpt><trkpt lat="43.3191156" lon="10.6581162"><ele>48.0</ele><time>2026-04-04T12:54:14.971Z</time></trkpt><trkpt lat="43.3192028" lon="10.6583941"><ele>45.0</ele><time>2026-04-04T12:54:15.956Z</time></trkpt><trkpt lat="43.3192897" lon="10.6586757"><ele>43.0</ele><time>2026-04-04T12:54:16.966Z</time></trkpt><trkpt lat="43.3193762" lon="10.6589614"><ele>41.0</ele><time>2026-04-04T12:54:17.954Z</time></trkpt><trkpt lat="43.3194625" lon="10.6592503"><ele>40.5</ele><time>2026-04-04T12:54:18.975Z</time></trkpt><trkpt lat="43.3195505" lon="10.6595399"><ele>40.0</ele><time>2026-04-04T12:54:19.954Z</time></trkpt><trkpt lat="43.3196408" lon="10.6598301"><ele>40.0</ele><time>2026-04-04T12:54:20.957Z</time></trkpt><trkpt lat="43.3197312" lon="10.6601204"><ele>40.0</ele><time>2026-04-04T12:54:21.967Z</time></trkpt><trkpt lat="43.3198105" lon="10.6604153"><ele>38.0</ele><time>2026-04-04T12:54:22.957Z</time></trkpt><trkpt lat="43.3198677" lon="10.6607186"><ele>36.0</ele><time>2026-04-04T12:54:23.95Z</time></trkpt><trkpt lat="43.3198964" lon="10.6610289"><ele>36.0</ele><time>2026-04-04T12:54:24.972Z</time></trkpt><trkpt lat="43.3199006" lon="10.6613426"><ele>36.0</ele><time>2026-04-04T12:54:25.972Z</time></trkpt><trkpt lat="43.3198917" lon="10.6616566"><ele>35.0</ele><time>2026-04-04T12:54:26.976Z</time></trkpt><trkpt lat="43.3198811" lon="10.6619708"><ele>34.0</ele><time>2026-04-04T12:54:27.967Z</time></trkpt><trkpt lat="43.3198728" lon="10.6622859"><ele>34.0</ele><time>2026-04-04T12:54:28.959Z</time></trkpt><trkpt lat="43.3198663" lon="10.6626017"><ele>34.0</ele><time>2026-04-04T12:54:29.966Z</time></trkpt><trkpt lat="43.3198602" lon="10.6629184"><ele>33.5</ele><time>2026-04-04T12:54:30.97Z</time></trkpt><trkpt lat="43.3198531" lon="10.6632352"><ele>33.0</ele><time>2026-04-04T12:54:31.96Z</time></trkpt><trkpt lat="43.3198449" lon="10.6635522"><ele>33.0</ele><time>2026-04-04T12:54:32.972Z</time></trkpt><trkpt lat="43.3198375" lon="10.6638691"><ele>33.0</ele><time>2026-04-04T12:54:33.968Z</time></trkpt><trkpt lat="43.3198311" lon="10.6641857"><ele>34.5</ele><time>2026-04-04T12:54:34.97Z</time></trkpt><trkpt lat="43.3198224" lon="10.6644939"><ele>36.0</ele><time>2026-04-04T12:54:35.961Z</time></trkpt><trkpt lat="43.3198182" lon="10.6648086"><ele>36.0</ele><time>2026-04-04T12:54:36.963Z</time></trkpt><trkpt lat="43.3198118" lon="10.6651219"><ele>36.0</ele><time>2026-04-04T12:54:37.956Z</time></trkpt><trkpt lat="43.3198028" lon="10.6654378"><ele>36.0</ele><time>2026-04-04T12:54:38.974Z</time></trkpt><trkpt lat="43.3197948" lon="10.6657561"><ele>36.0</ele><time>2026-04-04T12:54:39.973Z</time></trkpt><trkpt lat="43.3197887" lon="10.6660767"><ele>36.0</ele><time>2026-04-04T12:54:40.974Z</time></trkpt><trkpt lat="43.3197838" lon="10.6663995"><ele>36.0</ele><time>2026-04-04T12:54:41.973Z</time></trkpt><trkpt lat="43.3197873" lon="10.6667224"><ele>36.0</ele><time>2026-04-04T12:54:42.954Z</time></trkpt><trkpt lat="43.3198083" lon="10.6670405"><ele>36.0</ele><time>2026-04-04T12:54:43.972Z</time></trkpt><trkpt lat="43.3198438" lon="10.6673514"><ele>36.0</ele><time>2026-04-04T12:54:44.966Z</time></trkpt><trkpt lat="43.3198817" lon="10.6676566"><ele>36.0</ele><time>2026-04-04T12:54:45.962Z</time></trkpt><trkpt lat="43.3199174" lon="10.6679507"><ele>36.0</ele><time>2026-04-04T12:54:46.956Z</time></trkpt><trkpt lat="43.3199506" lon="10.6682277"><ele>35.666666666666664</ele><time>2026-04-04T12:54:47.957Z</time></trkpt><trkpt lat="43.3199839" lon="10.6684893"><ele>35.33333333333333</ele><time>2026-04-04T12:54:48.951Z</time></trkpt><trkpt lat="43.3200153" lon="10.6687367"><ele>35.0</ele><time>2026-04-04T12:54:49.971Z</time></trkpt><trkpt lat="43.3200424" lon="10.6689708"><ele>34.75</ele><time>2026-04-04T12:54:50.954Z</time></trkpt><trkpt lat="43.3200664" lon="10.6691902"><ele>34.5</ele><time>2026-04-04T12:54:51.976Z</time></trkpt><trkpt lat="43.3200875" lon="10.6693869"><ele>34.25</ele><time>2026-04-04T12:54:52.965Z</time></trkpt><trkpt lat="43.3201062" lon="10.6695596"><ele>34.0</ele><time>2026-04-04T12:54:53.969Z</time></trkpt><trkpt lat="43.3201229" lon="10.669704"><ele>34.6</ele><time>2026-04-04T12:54:54.956Z</time></trkpt><trkpt lat="43.3201382" lon="10.6698188"><ele>35.2</ele><time>2026-04-04T12:54:55.964Z</time></trkpt><trkpt lat="43.3201528" lon="10.6699059"><ele>35.800000000000004</ele><time>2026-04-04T12:54:56.953Z</time></trkpt><trkpt lat="43.3202" lon="10.6700111"><ele>36.4</ele><time>2026-04-04T12:54:58.97Z</time></trkpt><trkpt lat="43.3203391" lon="10.6700316"><ele>37.0</ele><time>2026-04-04T12:55:00.955Z</time></trkpt><trkpt lat="43.3204416" lon="10.6700103"><ele>37.0</ele><time>2026-04-04T12:55:01.953Z</time></trkpt><trkpt lat="43.3205577" lon="10.6699681"><ele>37.0</ele><time>2026-04-04T12:55:02.956Z</time></trkpt><trkpt lat="43.3206878" lon="10.6699422"><ele>37.0</ele><time>2026-04-04T12:55:03.968Z</time></trkpt><trkpt lat="43.3208296" lon="10.6699262"><ele>37.0</ele><time>2026-04-04T12:55:04.971Z</time></trkpt><trkpt lat="43.3209817" lon="10.6699164"><ele>37.0</ele><time>2026-04-04T12:55:05.956Z</time></trkpt><trkpt lat="43.3211365" lon="10.6699108"><ele>37.0</ele><time>2026-04-04T12:55:06.957Z</time></trkpt><trkpt lat="43.3212945" lon="10.6699072"><ele>37.0</ele><time>2026-04-04T12:55:07.953Z</time></trkpt><trkpt lat="43.3214559" lon="10.6699025"><ele>37.0</ele><time>2026-04-04T12:55:08.969Z</time></trkpt><trkpt lat="43.32162" lon="10.6698993"><ele>37.0</ele><time>2026-04-04T12:55:09.964Z</time></trkpt><trkpt lat="43.3217863" lon="10.6698958"><ele>37.0</ele><time>2026-04-04T12:55:10.967Z</time></trkpt><trkpt lat="43.3219528" lon="10.6698929"><ele>37.0</ele><time>2026-04-04T12:55:11.971Z</time></trkpt><trkpt lat="43.3221173" lon="10.6698897"><ele>37.0</ele><time>2026-04-04T12:55:12.971Z</time></trkpt><trkpt lat="43.3222786" lon="10.6698878"><ele>37.0</ele><time>2026-04-04T12:55:13.961Z</time></trkpt><trkpt lat="43.3224361" lon="10.6698866"><ele>37.333333333333336</ele><time>2026-04-04T12:55:14.97Z</time></trkpt><trkpt lat="43.3225902" lon="10.6698836"><ele>37.666666666666664</ele><time>2026-04-04T12:55:15.955Z</time></trkpt><trkpt lat="43.3227404" lon="10.6698815"><ele>38.0</ele><time>2026-04-04T12:55:16.971Z</time></trkpt><trkpt lat="43.3228883" lon="10.6698795"><ele>38.0</ele><time>2026-04-04T12:55:17.971Z</time></trkpt><trkpt lat="43.3230375" lon="10.6698746"><ele>38.0</ele><time>2026-04-04T12:55:18.975Z</time></trkpt><trkpt lat="43.3231893" lon="10.6698671"><ele>38.0</ele><time>2026-04-04T12:55:19.968Z</time></trkpt><trkpt lat="43.3233466" lon="10.6698603"><ele>36.666666666666664</ele><time>2026-04-04T12:55:20.972Z</time></trkpt><trkpt lat="43.3235111" lon="10.6698514"><ele>35.333333333333336</ele><time>2026-04-04T12:55:21.953Z</time></trkpt><trkpt lat="43.3236783" lon="10.6698493"><ele>34.0</ele><time>2026-04-04T12:55:22.959Z</time></trkpt><trkpt lat="43.3238515" lon="10.6698464"><ele>34.66666666666667</ele><time>2026-04-04T12:55:23.972Z</time></trkpt><trkpt lat="43.3240259" lon="10.6698454"><ele>35.333333333333336</ele><time>2026-04-04T12:55:24.969Z</time></trkpt><trkpt lat="43.3242008" lon="10.6698513"><ele>36.0</ele><time>2026-04-04T12:55:25.975Z</time></trkpt><trkpt lat="43.324375" lon="10.6698668"><ele>36.0</ele><time>2026-04-04T12:55:26.954Z</time></trkpt><trkpt lat="43.3245516" lon="10.6698863"><ele>36.0</ele><time>2026-04-04T12:55:27.956Z</time></trkpt><trkpt lat="43.3247315" lon="10.6699078"><ele>36.0</ele><time>2026-04-04T12:55:28.958Z</time></trkpt><trkpt lat="43.3249149" lon="10.669941"><ele>36.0</ele><time>2026-04-04T12:55:29.968Z</time></trkpt><trkpt lat="43.3250995" lon="10.669988"><ele>36.0</ele><time>2026-04-04T12:55:30.965Z</time></trkpt><trkpt lat="43.3252856" lon="10.6700372"><ele>36.0</ele><time>2026-04-04T12:55:31.974Z</time></trkpt><trkpt lat="43.3254737" lon="10.6700787"><ele>36.0</ele><time>2026-04-04T12:55:32.972Z</time></trkpt><trkpt lat="43.325661" lon="10.6701164"><ele>36.0</ele><time>2026-04-04T12:55:33.954Z</time></trkpt><trkpt lat="43.3258462" lon="10.6701514"><ele>36.0</ele><time>2026-04-04T12:55:34.957Z</time></trkpt><trkpt lat="43.3260262" lon="10.6701985"><ele>36.0</ele><time>2026-04-04T12:55:35.969Z</time></trkpt><trkpt lat="43.3262148" lon="10.6702347"><ele>36.0</ele><time>2026-04-04T12:55:36.954Z</time></trkpt><trkpt lat="43.3264016" lon="10.6702706"><ele>36.0</ele><time>2026-04-04T12:55:37.969Z</time></trkpt><trkpt lat="43.326587" lon="10.6703073"><ele>36.666666666666664</ele><time>2026-04-04T12:55:38.97Z</time></trkpt><trkpt lat="43.3267708" lon="10.6703432"><ele>37.33333333333333</ele><time>2026-04-04T12:55:39.967Z</time></trkpt><trkpt lat="43.3269513" lon="10.6703778"><ele>38.0</ele><time>2026-04-04T12:55:40.953Z</time></trkpt><trkpt lat="43.3271243" lon="10.6704122"><ele>37.666666666666664</ele><time>2026-04-04T12:55:41.957Z</time></trkpt><trkpt lat="43.3272862" lon="10.6704421"><ele>37.333333333333336</ele><time>2026-04-04T12:55:42.97Z</time></trkpt><trkpt lat="43.3274388" lon="10.6704708"><ele>37.0</ele><time>2026-04-04T12:55:43.961Z</time></trkpt><trkpt lat="43.3275812" lon="10.6704983"><ele>37.0</ele><time>2026-04-04T12:55:44.968Z</time></trkpt><trkpt lat="43.3277157" lon="10.6705261"><ele>37.0</ele><time>2026-04-04T12:55:45.954Z</time></trkpt><trkpt lat="43.3278464" lon="10.6705525"><ele>37.0</ele><time>2026-04-04T12:55:46.953Z</time></trkpt><trkpt lat="43.327977" lon="10.6705765"><ele>37.0</ele><time>2026-04-04T12:55:47.968Z</time></trkpt><trkpt lat="43.328105" lon="10.6705994"><ele>36.800000000000004</ele><time>2026-04-04T12:55:48.956Z</time></trkpt><trkpt lat="43.3282243" lon="10.6706222"><ele>36.6</ele><time>2026-04-04T12:55:49.974Z</time></trkpt><trkpt lat="43.3283373" lon="10.6706432"><ele>36.400000000000006</ele><time>2026-04-04T12:55:50.957Z</time></trkpt><trkpt lat="43.3284446" lon="10.6706562"><ele>36.2</ele><time>2026-04-04T12:55:51.977Z</time></trkpt><trkpt lat="43.3285456" lon="10.6706535"><ele>36.0</ele><time>2026-04-04T12:55:52.975Z</time></trkpt><trkpt lat="43.3286438" lon="10.6706323"><ele>36.0</ele><time>2026-04-04T12:55:53.955Z</time></trkpt><trkpt lat="43.3287381" lon="10.6706006"><ele>36.0</ele><time>2026-04-04T12:55:54.964Z</time></trkpt><trkpt lat="43.3288295" lon="10.6705696"><ele>36.0</ele><time>2026-04-04T12:55:55.958Z</time></trkpt><trkpt lat="43.3289171" lon="10.6705555"><ele>36.0</ele><time>2026-04-04T12:55:56.968Z</time></trkpt><trkpt lat="43.3290006" lon="10.6705716"><ele>36.0</ele><time>2026-04-04T12:55:57.954Z</time></trkpt><trkpt lat="43.3290805" lon="10.6706004"><ele>36.0</ele><time>2026-04-04T12:55:58.972Z</time></trkpt><trkpt lat="43.3291573" lon="10.6706136"><ele>36.166666666666664</ele><time>2026-04-04T12:55:59.967Z</time></trkpt><trkpt lat="43.3292276" lon="10.6705995"><ele>36.333333333333336</ele><time>2026-04-04T12:56:00.97Z</time></trkpt><trkpt lat="43.3292846" lon="10.6705514"><ele>36.5</ele><time>2026-04-04T12:56:01.964Z</time></trkpt><trkpt lat="43.3293194" lon="10.6704703"><ele>36.66666666666667</ele><time>2026-04-04T12:56:02.951Z</time></trkpt><trkpt lat="43.3293467" lon="10.6703654"><ele>36.833333333333336</ele><time>2026-04-04T12:56:03.961Z</time></trkpt><trkpt lat="43.329321" lon="10.6702524"><ele>37.0</ele><time>2026-04-04T12:56:04.968Z</time></trkpt><trkpt lat="43.3292778" lon="10.6701303"><ele>36.5</ele><time>2026-04-04T12:56:05.958Z</time></trkpt><trkpt lat="43.3292372" lon="10.669995"><ele>36.0</ele><time>2026-04-04T12:56:06.967Z</time></trkpt><trkpt lat="43.3292046" lon="10.6698454"><ele>35.5</ele><time>2026-04-04T12:56:07.964Z</time></trkpt><trkpt lat="43.3291766" lon="10.6696825"><ele>35.0</ele><time>2026-04-04T12:56:08.971Z</time></trkpt><trkpt lat="43.3291491" lon="10.669512"><ele>34.75</ele><time>2026-04-04T12:56:09.963Z</time></trkpt><trkpt lat="43.329122" lon="10.6693396"><ele>34.5</ele><time>2026-04-04T12:56:10.962Z</time></trkpt><trkpt lat="43.3290959" lon="10.6691719"><ele>34.25</ele><time>2026-04-04T12:56:11.972Z</time></trkpt><trkpt lat="43.3290749" lon="10.6690212"><ele>34.0</ele><time>2026-04-04T12:56:12.966Z</time></trkpt><trkpt lat="43.3290609" lon="10.6689032"><ele>34.0</ele><time>2026-04-04T12:56:13.974Z</time></trkpt><trkpt lat="43.3290523" lon="10.6688163"><ele>34.0</ele><time>2026-04-04T12:56:14.962Z</time></trkpt><trkpt lat="43.3290619" lon="10.6686864"><ele>34.0</ele><time>2026-04-04T12:56:16.959Z</time></trkpt><trkpt lat="43.329089" lon="10.6685725"><ele>34.0</ele><time>2026-04-04T12:56:18.974Z</time></trkpt><trkpt lat="43.3291049" lon="10.6684477"><ele>34.0</ele><time>2026-04-04T12:56:20.955Z</time></trkpt><trkpt lat="43.3290997" lon="10.6683148"><ele>34.0</ele><time>2026-04-04T12:56:22.951Z</time></trkpt><trkpt lat="43.3290779" lon="10.668171"><ele>34.333333333333336</ele><time>2026-04-04T12:56:24.967Z</time></trkpt><trkpt lat="43.3290551" lon="10.6680394"><ele>34.66666666666667</ele><time>2026-04-04T12:56:26.969Z</time></trkpt><trkpt lat="43.3290186" lon="10.6679202"><ele>35.0</ele><time>2026-04-04T12:56:28.974Z</time></trkpt><trkpt lat="43.3289606" lon="10.6678827"><ele>35.333333333333336</ele><time>2026-04-04T12:56:30.953Z</time></trkpt><trkpt lat="43.3288862" lon="10.6679499"><ele>35.666666666666664</ele><time>2026-04-04T12:57:33.969Z</time></trkpt><trkpt lat="43.3288874" lon="10.6680908"><ele>36.0</ele><time>2026-04-04T12:57:35.965Z</time></trkpt><trkpt lat="43.3289027" lon="10.6681831"><ele>36.0</ele><time>2026-04-04T12:57:36.967Z</time></trkpt><trkpt lat="43.3289221" lon="10.6682952"><ele>36.0</ele><time>2026-04-04T12:57:37.954Z</time></trkpt><trkpt lat="43.3289415" lon="10.6684153"><ele>36.0</ele><time>2026-04-04T12:57:38.97Z</time></trkpt><trkpt lat="43.3289613" lon="10.6685436"><ele>36.0</ele><time>2026-04-04T12:57:39.964Z</time></trkpt><trkpt lat="43.3289841" lon="10.668682"><ele>36.0</ele><time>2026-04-04T12:57:40.966Z</time></trkpt><trkpt lat="43.3290076" lon="10.6688235"><ele>35.75</ele><time>2026-04-04T12:57:41.971Z</time></trkpt><trkpt lat="43.3290336" lon="10.6689734"><ele>35.5</ele><time>2026-04-04T12:57:42.969Z</time></trkpt><trkpt lat="43.3290656" lon="10.6691364"><ele>35.25</ele><time>2026-04-04T12:57:43.956Z</time></trkpt><trkpt lat="43.3290999" lon="10.6693105"><ele>35.0</ele><time>2026-04-04T12:57:44.951Z</time></trkpt><trkpt lat="43.3291299" lon="10.6694933"><ele>35.0</ele><time>2026-04-04T12:57:45.955Z</time></trkpt><trkpt lat="43.329154" lon="10.6696796"><ele>35.0</ele><time>2026-04-04T12:57:46.957Z</time></trkpt><trkpt lat="43.3291687" lon="10.6698591"><ele>35.0</ele><time>2026-04-04T12:57:47.95Z</time></trkpt><trkpt lat="43.3291585" lon="10.670023"><ele>35.0</ele><time>2026-04-04T12:57:48.967Z</time></trkpt><trkpt lat="43.3291214" lon="10.6701622"><ele>35.4</ele><time>2026-04-04T12:57:49.957Z</time></trkpt><trkpt lat="43.3290811" lon="10.6702835"><ele>35.8</ele><time>2026-04-04T12:57:50.969Z</time></trkpt><trkpt lat="43.3290676" lon="10.6704014"><ele>36.2</ele><time>2026-04-04T12:57:51.972Z</time></trkpt><trkpt lat="43.3290894" lon="10.6705207"><ele>36.6</ele><time>2026-04-04T12:57:52.966Z</time></trkpt><trkpt lat="43.3291138" lon="10.6706431"><ele>37.0</ele><time>2026-04-04T12:57:53.956Z</time></trkpt><trkpt lat="43.3291843" lon="10.6707524"><ele>37.0</ele><time>2026-04-04T12:57:54.96Z</time></trkpt><trkpt lat="43.3292528" lon="10.670867"><ele>37.0</ele><time>2026-04-04T12:57:55.962Z</time></trkpt><trkpt lat="43.329323" lon="10.6709884"><ele>37.0</ele><time>2026-04-04T12:57:56.967Z</time></trkpt><trkpt lat="43.3293567" lon="10.6711648"><ele>37.0</ele><time>2026-04-04T12:57:57.961Z</time></trkpt><trkpt lat="43.3293834" lon="10.671357"><ele>37.333333333333336</ele><time>2026-04-04T12:57:58.955Z</time></trkpt><trkpt lat="43.3294116" lon="10.6715513"><ele>37.666666666666664</ele><time>2026-04-04T12:57:59.967Z</time></trkpt><trkpt lat="43.3294426" lon="10.6717568"><ele>38.0</ele><time>2026-04-04T12:58:00.967Z</time></trkpt><trkpt lat="43.3294739" lon="10.6719706"><ele>38.0</ele><time>2026-04-04T12:58:01.973Z</time></trkpt><trkpt lat="43.3295071" lon="10.672191"><ele>38.0</ele><time>2026-04-04T12:58:02.975Z</time></trkpt><trkpt lat="43.3295392" lon="10.6724197"><ele>38.0</ele><time>2026-04-04T12:58:03.967Z</time></trkpt><trkpt lat="43.3295705" lon="10.6726558"><ele>37.666666666666664</ele><time>2026-04-04T12:58:04.97Z</time></trkpt><trkpt lat="43.3295976" lon="10.672892"><ele>37.333333333333336</ele><time>2026-04-04T12:58:05.956Z</time></trkpt><trkpt lat="43.3296224" lon="10.6731317"><ele>37.0</ele><time>2026-04-04T12:58:06.951Z</time></trkpt><trkpt lat="43.329648" lon="10.6733763"><ele>37.333333333333336</ele><time>2026-04-04T12:58:07.961Z</time></trkpt><trkpt lat="43.3296724" lon="10.6736249"><ele>37.666666666666664</ele><time>2026-04-04T12:58:08.958Z</time></trkpt><trkpt lat="43.3296952" lon="10.6738784"><ele>38.0</ele><time>2026-04-04T12:58:09.966Z</time></trkpt><trkpt lat="43.3297161" lon="10.6741356"><ele>38.0</ele><time>2026-04-04T12:58:10.966Z</time></trkpt><trkpt lat="43.3297355" lon="10.6743956"><ele>38.0</ele><time>2026-04-04T12:58:11.956Z</time></trkpt><trkpt lat="43.3297527" lon="10.6746578"><ele>38.0</ele><time>2026-04-04T12:58:12.976Z</time></trkpt><trkpt lat="43.3297669" lon="10.6749231"><ele>38.0</ele><time>2026-04-04T12:58:13.96Z</time></trkpt><trkpt lat="43.3297792" lon="10.6751929"><ele>38.0</ele><time>2026-04-04T12:58:14.965Z</time></trkpt><trkpt lat="43.3297903" lon="10.6754671"><ele>38.0</ele><time>2026-04-04T12:58:15.971Z</time></trkpt><trkpt lat="43.3297998" lon="10.675746"><ele>38.0</ele><time>2026-04-04T12:58:16.961Z</time></trkpt><trkpt lat="43.3298087" lon="10.676029"><ele>38.0</ele><time>2026-04-04T12:58:17.971Z</time></trkpt><trkpt lat="43.3298148" lon="10.6763177"><ele>38.0</ele><time>2026-04-04T12:58:18.969Z</time></trkpt><trkpt lat="43.3298171" lon="10.6766124"><ele>37.666666666666664</ele><time>2026-04-04T12:58:19.956Z</time></trkpt><trkpt lat="43.3298138" lon="10.6769116"><ele>37.333333333333336</ele><time>2026-04-04T12:58:20.964Z</time></trkpt><trkpt lat="43.3298066" lon="10.6772132"><ele>37.0</ele><time>2026-04-04T12:58:21.956Z</time></trkpt><trkpt lat="43.3297972" lon="10.6775151"><ele>41.0</ele><time>2026-04-04T12:58:22.974Z</time></trkpt><trkpt lat="43.3297854" lon="10.6778144"><ele>45.0</ele><time>2026-04-04T12:58:23.966Z</time></trkpt><trkpt lat="43.3297699" lon="10.678119"><ele>49.0</ele><time>2026-04-04T12:58:24.963Z</time></trkpt><trkpt lat="43.3297505" lon="10.6784282"><ele>48.5</ele><time>2026-04-04T12:58:25.965Z</time></trkpt><trkpt lat="43.3297274" lon="10.6787406"><ele>48.0</ele><time>2026-04-04T12:58:26.976Z</time></trkpt><trkpt lat="43.3297023" lon="10.6790548"><ele>43.5</ele><time>2026-04-04T12:58:27.953Z</time></trkpt><trkpt lat="43.3296747" lon="10.6793669"><ele>39.0</ele><time>2026-04-04T12:58:28.957Z</time></trkpt><trkpt lat="43.3296445" lon="10.6796741"><ele>39.0</ele><time>2026-04-04T12:58:29.961Z</time></trkpt><trkpt lat="43.3296114" lon="10.6799774"><ele>39.0</ele><time>2026-04-04T12:58:30.965Z</time></trkpt><trkpt lat="43.3295755" lon="10.680277"><ele>39.0</ele><time>2026-04-04T12:58:31.953Z</time></trkpt><trkpt lat="43.3295372" lon="10.6805736"><ele>38.666666666666664</ele><time>2026-04-04T12:58:32.96Z</time></trkpt><trkpt lat="43.3294965" lon="10.6808684"><ele>38.33333333333333</ele><time>2026-04-04T12:58:33.958Z</time></trkpt><trkpt lat="43.329453" lon="10.6811632"><ele>38.0</ele><time>2026-04-04T12:58:34.952Z</time></trkpt><trkpt lat="43.329407" lon="10.6814663"><ele>38.0</ele><time>2026-04-04T12:58:35.963Z</time></trkpt><trkpt lat="43.3293524" lon="10.6817671"><ele>38.0</ele><time>2026-04-04T12:58:36.956Z</time></trkpt><trkpt lat="43.329295" lon="10.6820646"><ele>38.0</ele><time>2026-04-04T12:58:37.951Z</time></trkpt><trkpt lat="43.3292361" lon="10.6823617"><ele>38.666666666666664</ele><time>2026-04-04T12:58:38.967Z</time></trkpt><trkpt lat="43.3291739" lon="10.6826536"><ele>39.333333333333336</ele><time>2026-04-04T12:58:39.974Z</time></trkpt><trkpt lat="43.3291101" lon="10.6829452"><ele>40.0</ele><time>2026-04-04T12:58:40.967Z</time></trkpt><trkpt lat="43.3290431" lon="10.6832359"><ele>40.66666666666667</ele><time>2026-04-04T12:58:41.974Z</time></trkpt><trkpt lat="43.3289739" lon="10.6835236"><ele>41.333333333333336</ele><time>2026-04-04T12:58:42.968Z</time></trkpt><trkpt lat="43.3289043" lon="10.6838065"><ele>42.0</ele><time>2026-04-04T12:58:43.953Z</time></trkpt><trkpt lat="43.3288346" lon="10.6840845"><ele>42.0</ele><time>2026-04-04T12:58:44.96Z</time></trkpt><trkpt lat="43.3287627" lon="10.6843594"><ele>42.0</ele><time>2026-04-04T12:58:45.952Z</time></trkpt><trkpt lat="43.32869" lon="10.6846326"><ele>42.0</ele><time>2026-04-04T12:58:46.965Z</time></trkpt><trkpt lat="43.3286209" lon="10.6849039"><ele>42.666666666666664</ele><time>2026-04-04T12:58:47.967Z</time></trkpt><trkpt lat="43.3285513" lon="10.6851732"><ele>43.33333333333333</ele><time>2026-04-04T12:58:48.962Z</time></trkpt><trkpt lat="43.3284921" lon="10.6854427"><ele>44.0</ele><time>2026-04-04T12:58:49.951Z</time></trkpt><trkpt lat="43.3284417" lon="10.6857129"><ele>44.33333333333333</ele><time>2026-04-04T12:58:50.968Z</time></trkpt><trkpt lat="43.3283984" lon="10.6859899"><ele>44.666666666666664</ele><time>2026-04-04T12:58:51.95Z</time></trkpt><trkpt lat="43.3283657" lon="10.6862718"><ele>45.0</ele><time>2026-04-04T12:58:52.972Z</time></trkpt><trkpt lat="43.3283464" lon="10.6865581"><ele>45.0</ele><time>2026-04-04T12:58:53.969Z</time></trkpt><trkpt lat="43.3283403" lon="10.6868424"><ele>45.0</ele><time>2026-04-04T12:58:54.962Z</time></trkpt><trkpt lat="43.3283472" lon="10.6871261"><ele>45.0</ele><time>2026-04-04T12:58:55.955Z</time></trkpt><trkpt lat="43.3283672" lon="10.6874061"><ele>44.666666666666664</ele><time>2026-04-04T12:58:56.97Z</time></trkpt><trkpt lat="43.3284017" lon="10.6876834"><ele>44.33333333333333</ele><time>2026-04-04T12:58:57.965Z</time></trkpt><trkpt lat="43.328451" lon="10.6879552"><ele>44.0</ele><time>2026-04-04T12:58:58.962Z</time></trkpt><trkpt lat="43.3285133" lon="10.6882216"><ele>43.666666666666664</ele><time>2026-04-04T12:58:59.96Z</time></trkpt><trkpt lat="43.32858" lon="10.6884798"><ele>43.333333333333336</ele><time>2026-04-04T12:59:00.97Z</time></trkpt><trkpt lat="43.3286684" lon="10.6887361"><ele>43.0</ele><time>2026-04-04T12:59:01.974Z</time></trkpt><trkpt lat="43.328757" lon="10.6889921"><ele>42.66666666666667</ele><time>2026-04-04T12:59:02.952Z</time></trkpt><trkpt lat="43.3288496" lon="10.6892446"><ele>42.333333333333336</ele><time>2026-04-04T12:59:03.973Z</time></trkpt><trkpt lat="43.328946" lon="10.6894961"><ele>42.0</ele><time>2026-04-04T12:59:04.975Z</time></trkpt><trkpt lat="43.3290443" lon="10.6897406"><ele>42.0</ele><time>2026-04-04T12:59:05.95Z</time></trkpt><trkpt lat="43.3291447" lon="10.6899882"><ele>42.0</ele><time>2026-04-04T12:59:06.966Z</time></trkpt><trkpt lat="43.3292441" lon="10.6902342"><ele>42.0</ele><time>2026-04-04T12:59:07.955Z</time></trkpt><trkpt lat="43.3293437" lon="10.6904819"><ele>41.666666666666664</ele><time>2026-04-04T12:59:08.954Z</time></trkpt><trkpt lat="43.3294412" lon="10.690728"><ele>41.33333333333333</ele><time>2026-04-04T12:59:09.967Z</time></trkpt><trkpt lat="43.3295352" lon="10.6909641"><ele>41.0</ele><time>2026-04-04T12:59:10.959Z</time></trkpt><trkpt lat="43.3296237" lon="10.6911881"><ele>40.666666666666664</ele><time>2026-04-04T12:59:11.963Z</time></trkpt><trkpt lat="43.3297009" lon="10.6914019"><ele>40.333333333333336</ele><time>2026-04-04T12:59:12.975Z</time></trkpt><trkpt lat="43.3297646" lon="10.6916062"><ele>40.0</ele><time>2026-04-04T12:59:13.975Z</time></trkpt><trkpt lat="43.3298191" lon="10.6917971"><ele>41.2</ele><time>2026-04-04T12:59:14.961Z</time></trkpt><trkpt lat="43.3298632" lon="10.6919673"><ele>42.4</ele><time>2026-04-04T12:59:15.955Z</time></trkpt><trkpt lat="43.3298988" lon="10.6921155"><ele>43.599999999999994</ele><time>2026-04-04T12:59:16.969Z</time></trkpt><trkpt lat="43.3299301" lon="10.6922356"><ele>44.8</ele><time>2026-04-04T12:59:17.955Z</time></trkpt><trkpt lat="43.3299664" lon="10.6923291"><ele>46.0</ele><time>2026-04-04T12:59:18.955Z</time></trkpt><trkpt lat="43.3300185" lon="10.6923837"><ele>46.0</ele><time>2026-04-04T12:59:19.965Z</time></trkpt><trkpt lat="43.3300856" lon="10.6924028"><ele>46.0</ele><time>2026-04-04T12:59:20.966Z</time></trkpt><trkpt lat="43.3301551" lon="10.6923848"><ele>46.0</ele><time>2026-04-04T12:59:21.971Z</time></trkpt><trkpt lat="43.3302267" lon="10.6923498"><ele>46.0</ele><time>2026-04-04T12:59:22.966Z</time></trkpt><trkpt lat="43.3303019" lon="10.6923157"><ele>46.0</ele><time>2026-04-04T12:59:23.974Z</time></trkpt><trkpt lat="43.3303813" lon="10.6922833"><ele>46.0</ele><time>2026-04-04T12:59:24.971Z</time></trkpt><trkpt lat="43.330469" lon="10.6922528"><ele>48.8</ele><time>2026-04-04T12:59:25.967Z</time></trkpt><trkpt lat="43.3305613" lon="10.6922247"><ele>51.599999999999994</ele><time>2026-04-04T12:59:26.963Z</time></trkpt><trkpt lat="43.330663" lon="10.692193"><ele>54.4</ele><time>2026-04-04T12:59:27.972Z</time></trkpt><trkpt lat="43.3307721" lon="10.692156"><ele>57.2</ele><time>2026-04-04T12:59:28.956Z</time></trkpt><trkpt lat="43.3308887" lon="10.6921174"><ele>60.0</ele><time>2026-04-04T12:59:29.969Z</time></trkpt><trkpt lat="43.3310085" lon="10.6920775"><ele>60.0</ele><time>2026-04-04T12:59:30.954Z</time></trkpt><trkpt lat="43.3311285" lon="10.6920374"><ele>60.0</ele><time>2026-04-04T12:59:31.969Z</time></trkpt><trkpt lat="43.3312474" lon="10.692004"><ele>60.0</ele><time>2026-04-04T12:59:32.974Z</time></trkpt><trkpt lat="43.3313705" lon="10.691985"><ele>60.0</ele><time>2026-04-04T12:59:33.965Z</time></trkpt><trkpt lat="43.3315017" lon="10.6919998"><ele>61.75</ele><time>2026-04-04T12:59:34.968Z</time></trkpt><trkpt lat="43.3316343" lon="10.6920526"><ele>63.5</ele><time>2026-04-04T12:59:35.969Z</time></trkpt><trkpt lat="43.3317721" lon="10.6921167"><ele>65.25</ele><time>2026-04-04T12:59:36.967Z</time></trkpt><trkpt lat="43.3319227" lon="10.6921639"><ele>67.0</ele><time>2026-04-04T12:59:37.969Z</time></trkpt><trkpt lat="43.332077" lon="10.692192"><ele>68.0</ele><time>2026-04-04T12:59:38.975Z</time></trkpt><trkpt lat="43.3322293" lon="10.692206"><ele>69.0</ele><time>2026-04-04T12:59:39.97Z</time></trkpt><trkpt lat="43.3323855" lon="10.6922122"><ele>70.0</ele><time>2026-04-04T12:59:40.953Z</time></trkpt><trkpt lat="43.3325428" lon="10.6922172"><ele>70.0</ele><time>2026-04-04T12:59:41.964Z</time></trkpt><trkpt lat="43.3327009" lon="10.6922268"><ele>70.0</ele><time>2026-04-04T12:59:42.966Z</time></trkpt><trkpt lat="43.33286" lon="10.6922536"><ele>70.0</ele><time>2026-04-04T12:59:43.969Z</time></trkpt><trkpt lat="43.333014" lon="10.6923059"><ele>70.0</ele><time>2026-04-04T12:59:44.97Z</time></trkpt><trkpt lat="43.3331588" lon="10.6923814"><ele>70.0</ele><time>2026-04-04T12:59:45.97Z</time></trkpt><trkpt lat="43.3332881" lon="10.6924841"><ele>70.0</ele><time>2026-04-04T12:59:46.975Z</time></trkpt><trkpt lat="43.3333984" lon="10.6926163"><ele>72.66666666666666</ele><time>2026-04-04T12:59:47.962Z</time></trkpt><trkpt lat="43.3335071" lon="10.6927628"><ele>75.33333333333333</ele><time>2026-04-04T12:59:48.968Z</time></trkpt><trkpt lat="43.3335995" lon="10.6929337"><ele>78.0</ele><time>2026-04-04T12:59:49.949Z</time></trkpt><trkpt lat="43.3336902" lon="10.6931174"><ele>78.0</ele><time>2026-04-04T12:59:50.962Z</time></trkpt><trkpt lat="43.3337773" lon="10.6933065"><ele>78.0</ele><time>2026-04-04T12:59:51.968Z</time></trkpt><trkpt lat="43.3338704" lon="10.6934839"><ele>78.0</ele><time>2026-04-04T12:59:52.962Z</time></trkpt><trkpt lat="43.3339817" lon="10.6936369"><ele>78.0</ele><time>2026-04-04T12:59:53.97Z</time></trkpt><trkpt lat="43.3340996" lon="10.6937732"><ele>78.0</ele><time>2026-04-04T12:59:54.972Z</time></trkpt><trkpt lat="43.3342438" lon="10.6938738"><ele>78.0</ele><time>2026-04-04T12:59:55.966Z</time></trkpt><trkpt lat="43.3343642" lon="10.6939835"><ele>78.0</ele><time>2026-04-04T12:59:56.966Z</time></trkpt><trkpt lat="43.3344508" lon="10.6941228"><ele>78.0</ele><time>2026-04-04T12:59:57.978Z</time></trkpt><trkpt lat="43.3345113" lon="10.6942883"><ele>78.0</ele><time>2026-04-04T12:59:58.963Z</time></trkpt><trkpt lat="43.3345646" lon="10.6944666"><ele>78.0</ele><time>2026-04-04T12:59:59.97Z</time></trkpt><trkpt lat="43.3346244" lon="10.6946495"><ele>76.0</ele><time>2026-04-04T13:00:00.969Z</time></trkpt><trkpt lat="43.3346909" lon="10.6948389"><ele>74.0</ele><time>2026-04-04T13:00:01.954Z</time></trkpt><trkpt lat="43.3347613" lon="10.6950304"><ele>72.0</ele><time>2026-04-04T13:00:02.965Z</time></trkpt><trkpt lat="43.3348326" lon="10.6952239"><ele>74.33333333333333</ele><time>2026-04-04T13:00:03.957Z</time></trkpt><trkpt lat="43.334905" lon="10.6954185"><ele>76.66666666666666</ele><time>2026-04-04T13:00:04.951Z</time></trkpt><trkpt lat="43.334976" lon="10.6956129"><ele>79.0</ele><time>2026-04-04T13:00:05.952Z</time></trkpt><trkpt lat="43.3350437" lon="10.6957956"><ele>79.0</ele><time>2026-04-04T13:00:06.971Z</time></trkpt><trkpt lat="43.335094" lon="10.6959686"><ele>79.0</ele><time>2026-04-04T13:00:07.955Z</time></trkpt><trkpt lat="43.335143" lon="10.696123"><ele>79.0</ele><time>2026-04-04T13:00:08.972Z</time></trkpt><trkpt lat="43.3352135" lon="10.6962596"><ele>79.0</ele><time>2026-04-04T13:00:09.968Z</time></trkpt><trkpt lat="43.335312" lon="10.6963672"><ele>79.75</ele><time>2026-04-04T13:00:10.962Z</time></trkpt><trkpt lat="43.3354272" lon="10.6964621"><ele>80.5</ele><time>2026-04-04T13:00:11.971Z</time></trkpt><trkpt lat="43.335552" lon="10.6965581"><ele>81.25</ele><time>2026-04-04T13:00:12.965Z</time></trkpt><trkpt lat="43.3356797" lon="10.6966585"><ele>82.0</ele><time>2026-04-04T13:00:13.966Z</time></trkpt><trkpt lat="43.3358094" lon="10.6967604"><ele>82.0</ele><time>2026-04-04T13:00:14.974Z</time></trkpt><trkpt lat="43.3359437" lon="10.6968659"><ele>82.0</ele><time>2026-04-04T13:00:15.968Z</time></trkpt><trkpt lat="43.3360798" lon="10.6969727"><ele>82.0</ele><time>2026-04-04T13:00:16.968Z</time></trkpt><trkpt lat="43.3362127" lon="10.6970783"><ele>85.25</ele><time>2026-04-04T13:00:17.955Z</time></trkpt><trkpt lat="43.3363397" lon="10.697166"><ele>88.5</ele><time>2026-04-04T13:00:18.949Z</time></trkpt><trkpt lat="43.3364672" lon="10.697218"><ele>91.75</ele><time>2026-04-04T13:00:19.956Z</time></trkpt><trkpt lat="43.3366" lon="10.6972272"><ele>95.0</ele><time>2026-04-04T13:00:20.963Z</time></trkpt><trkpt lat="43.3367357" lon="10.6971944"><ele>95.0</ele><time>2026-04-04T13:00:21.959Z</time></trkpt><trkpt lat="43.3368698" lon="10.6971426"><ele>95.0</ele><time>2026-04-04T13:00:22.974Z</time></trkpt><trkpt lat="43.3370026" lon="10.6971058"><ele>95.0</ele><time>2026-04-04T13:00:23.969Z</time></trkpt><trkpt lat="43.3371274" lon="10.6970764"><ele>95.0</ele><time>2026-04-04T13:00:24.966Z</time></trkpt><trkpt lat="43.3372519" lon="10.6971241"><ele>94.75</ele><time>2026-04-04T13:00:25.948Z</time></trkpt><trkpt lat="43.3373847" lon="10.697181"><ele>94.5</ele><time>2026-04-04T13:00:26.971Z</time></trkpt><trkpt lat="43.3375121" lon="10.6972713"><ele>94.25</ele><time>2026-04-04T13:00:27.955Z</time></trkpt><trkpt lat="43.3376462" lon="10.6973383"><ele>94.0</ele><time>2026-04-04T13:00:28.979Z</time></trkpt><trkpt lat="43.3377915" lon="10.6973629"><ele>94.0</ele><time>2026-04-04T13:00:29.969Z</time></trkpt><trkpt lat="43.3379384" lon="10.697355"><ele>94.0</ele><time>2026-04-04T13:00:30.965Z</time></trkpt><trkpt lat="43.3380845" lon="10.6973438"><ele>94.0</ele><time>2026-04-04T13:00:31.961Z</time></trkpt><trkpt lat="43.3382273" lon="10.697358"><ele>94.0</ele><time>2026-04-04T13:00:32.958Z</time></trkpt><trkpt lat="43.3383674" lon="10.6973814"><ele>94.25</ele><time>2026-04-04T13:00:33.97Z</time></trkpt><trkpt lat="43.338502" lon="10.6974636"><ele>94.5</ele><time>2026-04-04T13:00:34.968Z</time></trkpt><trkpt lat="43.3386408" lon="10.6975416"><ele>94.75</ele><time>2026-04-04T13:00:35.958Z</time></trkpt><trkpt lat="43.3387885" lon="10.6975501"><ele>95.0</ele><time>2026-04-04T13:00:36.969Z</time></trkpt><trkpt lat="43.3389479" lon="10.6975275"><ele>95.0</ele><time>2026-04-04T13:00:37.96Z</time></trkpt><trkpt lat="43.3391091" lon="10.6974992"><ele>95.0</ele><time>2026-04-04T13:00:38.969Z</time></trkpt><trkpt lat="43.3392705" lon="10.6974847"><ele>95.0</ele><time>2026-04-04T13:00:39.961Z</time></trkpt><trkpt lat="43.3394316" lon="10.6974937"><ele>95.0</ele><time>2026-04-04T13:00:40.956Z</time></trkpt><trkpt lat="43.3395886" lon="10.6975314"><ele>95.0</ele><time>2026-04-04T13:00:41.969Z</time></trkpt><trkpt lat="43.3397398" lon="10.6975989"><ele>95.0</ele><time>2026-04-04T13:00:42.958Z</time></trkpt><trkpt lat="43.3398871" lon="10.6976811"><ele>102.33333333333334</ele><time>2026-04-04T13:00:43.972Z</time></trkpt><trkpt lat="43.3400319" lon="10.6977606"><ele>109.66666666666667</ele><time>2026-04-04T13:00:44.95Z</time></trkpt><trkpt lat="43.3401792" lon="10.697841"><ele>117.0</ele><time>2026-04-04T13:00:45.958Z</time></trkpt><trkpt lat="43.3403138" lon="10.6979287"><ele>117.0</ele><time>2026-04-04T13:00:46.959Z</time></trkpt><trkpt lat="43.3404342" lon="10.6980265"><ele>117.0</ele><time>2026-04-04T13:00:47.962Z</time></trkpt><trkpt lat="43.3405161" lon="10.6981514"><ele>117.0</ele><time>2026-04-04T13:00:48.974Z</time></trkpt><trkpt lat="43.3405514" lon="10.6983002"><ele>117.0</ele><time>2026-04-04T13:00:49.962Z</time></trkpt><trkpt lat="43.3405549" lon="10.6984716"><ele>119.25</ele><time>2026-04-04T13:00:50.964Z</time></trkpt><trkpt lat="43.3405457" lon="10.69866"><ele>121.5</ele><time>2026-04-04T13:00:51.956Z</time></trkpt><trkpt lat="43.3405366" lon="10.6988652"><ele>123.75</ele><time>2026-04-04T13:00:52.962Z</time></trkpt><trkpt lat="43.3405294" lon="10.6990835"><ele>126.0</ele><time>2026-04-04T13:00:53.962Z</time></trkpt><trkpt lat="43.3405254" lon="10.6993113"><ele>126.66666666666666</ele><time>2026-04-04T13:00:54.966Z</time></trkpt><trkpt lat="43.3405175" lon="10.6995458"><ele>127.33333333333333</ele><time>2026-04-04T13:00:55.959Z</time></trkpt><trkpt lat="43.340508" lon="10.69978"><ele>128.0</ele><time>2026-04-04T13:00:56.965Z</time></trkpt><trkpt lat="43.3404937" lon="10.7000098"><ele>128.0</ele><time>2026-04-04T13:00:57.953Z</time></trkpt><trkpt lat="43.3404826" lon="10.700237"><ele>128.0</ele><time>2026-04-04T13:00:58.964Z</time></trkpt><trkpt lat="43.3404708" lon="10.700458"><ele>128.0</ele><time>2026-04-04T13:00:59.959Z</time></trkpt><trkpt lat="43.3404661" lon="10.7006723"><ele>126.75</ele><time>2026-04-04T13:01:00.972Z</time></trkpt><trkpt lat="43.3404747" lon="10.7008724"><ele>125.5</ele><time>2026-04-04T13:01:01.949Z</time></trkpt><trkpt lat="43.3404903" lon="10.7010599"><ele>124.25</ele><time>2026-04-04T13:01:02.973Z</time></trkpt><trkpt lat="43.3405643" lon="10.7012152"><ele>123.0</ele><time>2026-04-04T13:01:03.959Z</time></trkpt><trkpt lat="43.3406694" lon="10.7013367"><ele>121.75</ele><time>2026-04-04T13:01:04.965Z</time></trkpt><trkpt lat="43.3407965" lon="10.7014198"><ele>120.5</ele><time>2026-04-04T13:01:05.964Z</time></trkpt><trkpt lat="43.3409388" lon="10.7014709"><ele>119.25</ele><time>2026-04-04T13:01:06.953Z</time></trkpt><trkpt lat="43.3410846" lon="10.7015124"><ele>118.0</ele><time>2026-04-04T13:01:07.957Z</time></trkpt><trkpt lat="43.3412297" lon="10.7015881"><ele>118.0</ele><time>2026-04-04T13:01:08.961Z</time></trkpt><trkpt lat="43.3413814" lon="10.7016704"><ele>118.0</ele><time>2026-04-04T13:01:09.965Z</time></trkpt><trkpt lat="43.3415296" lon="10.7017311"><ele>118.0</ele><time>2026-04-04T13:01:10.958Z</time></trkpt><trkpt lat="43.3416768" lon="10.7017766"><ele>118.33333333333334</ele><time>2026-04-04T13:01:11.964Z</time></trkpt><trkpt lat="43.3418283" lon="10.7018039"><ele>118.66666666666666</ele><time>2026-04-04T13:01:12.97Z</time></trkpt><trkpt lat="43.3419817" lon="10.7017784"><ele>119.0</ele><time>2026-04-04T13:01:13.97Z</time></trkpt><trkpt lat="43.342131" lon="10.7017428"><ele>122.33333333333333</ele><time>2026-04-04T13:01:14.968Z</time></trkpt><trkpt lat="43.3422842" lon="10.7017105"><ele>125.66666666666666</ele><time>2026-04-04T13:01:15.971Z</time></trkpt><trkpt lat="43.3424383" lon="10.7016823"><ele>129.0</ele><time>2026-04-04T13:01:16.968Z</time></trkpt><trkpt lat="43.342592" lon="10.701654"><ele>129.0</ele><time>2026-04-04T13:01:17.965Z</time></trkpt><trkpt lat="43.3427479" lon="10.7016247"><ele>129.0</ele><time>2026-04-04T13:01:18.965Z</time></trkpt><trkpt lat="43.342899" lon="10.7015914"><ele>129.0</ele><time>2026-04-04T13:01:19.963Z</time></trkpt><trkpt lat="43.343046" lon="10.7015357"><ele>132.0</ele><time>2026-04-04T13:01:20.967Z</time></trkpt><trkpt lat="43.3431906" lon="10.7014555"><ele>135.0</ele><time>2026-04-04T13:01:21.969Z</time></trkpt><trkpt lat="43.3433298" lon="10.70136"><ele>138.0</ele><time>2026-04-04T13:01:22.952Z</time></trkpt><trkpt lat="43.3434673" lon="10.7012582"><ele>138.0</ele><time>2026-04-04T13:01:23.974Z</time></trkpt><trkpt lat="43.3436021" lon="10.7011538"><ele>138.0</ele><time>2026-04-04T13:01:24.955Z</time></trkpt><trkpt lat="43.3437401" lon="10.7010501"><ele>138.0</ele><time>2026-04-04T13:01:25.963Z</time></trkpt><trkpt lat="43.3438779" lon="10.7009483"><ele>137.0</ele><time>2026-04-04T13:01:26.952Z</time></trkpt><trkpt lat="43.3440185" lon="10.7008653"><ele>136.0</ele><time>2026-04-04T13:01:27.96Z</time></trkpt><trkpt lat="43.3441674" lon="10.7008039"><ele>135.0</ele><time>2026-04-04T13:01:28.959Z</time></trkpt><trkpt lat="43.3443292" lon="10.7007626"><ele>135.0</ele><time>2026-04-04T13:01:29.955Z</time></trkpt><trkpt lat="43.3445023" lon="10.700732"><ele>135.0</ele><time>2026-04-04T13:01:30.971Z</time></trkpt><trkpt lat="43.3446857" lon="10.7007036"><ele>135.0</ele><time>2026-04-04T13:01:31.966Z</time></trkpt><trkpt lat="43.3448739" lon="10.7006772"><ele>137.33333333333334</ele><time>2026-04-04T13:01:32.975Z</time></trkpt><trkpt lat="43.345059" lon="10.7006539"><ele>139.66666666666669</ele><time>2026-04-04T13:01:33.967Z</time></trkpt><trkpt lat="43.3452365" lon="10.7006307"><ele>142.0</ele><time>2026-04-04T13:01:34.961Z</time></trkpt><trkpt lat="43.3454073" lon="10.7006061"><ele>142.75</ele><time>2026-04-04T13:01:35.974Z</time></trkpt><trkpt lat="43.3455619" lon="10.7005847"><ele>143.5</ele><time>2026-04-04T13:01:36.953Z</time></trkpt><trkpt lat="43.3457047" lon="10.7005702"><ele>144.25</ele><time>2026-04-04T13:01:37.957Z</time></trkpt><trkpt lat="43.345822" lon="10.7006043"><ele>145.0</ele><time>2026-04-04T13:01:38.965Z</time></trkpt><trkpt lat="43.3459281" lon="10.7006906"><ele>145.0</ele><time>2026-04-04T13:01:39.951Z</time></trkpt><trkpt lat="43.3460261" lon="10.7008169"><ele>145.0</ele><time>2026-04-04T13:01:40.967Z</time></trkpt><trkpt lat="43.346129" lon="10.7009541"><ele>145.0</ele><time>2026-04-04T13:01:41.965Z</time></trkpt><trkpt lat="43.3462484" lon="10.7010877"><ele>145.0</ele><time>2026-04-04T13:01:42.958Z</time></trkpt><trkpt lat="43.3463796" lon="10.7012206"><ele>147.0</ele><time>2026-04-04T13:01:43.974Z</time></trkpt><trkpt lat="43.3465151" lon="10.7013586"><ele>149.0</ele><time>2026-04-04T13:01:44.957Z</time></trkpt><trkpt lat="43.3466423" lon="10.7015062"><ele>151.0</ele><time>2026-04-04T13:01:45.96Z</time></trkpt><trkpt lat="43.3467515" lon="10.7016747"><ele>151.0</ele><time>2026-04-04T13:01:46.954Z</time></trkpt><trkpt lat="43.3468473" lon="10.7018644"><ele>151.0</ele><time>2026-04-04T13:01:47.95Z</time></trkpt><trkpt lat="43.3469342" lon="10.7020575"><ele>151.0</ele><time>2026-04-04T13:01:48.972Z</time></trkpt><trkpt lat="43.3470138" lon="10.7022362"><ele>153.25</ele><time>2026-04-04T13:01:49.951Z</time></trkpt><trkpt lat="43.3470797" lon="10.7024052"><ele>155.5</ele><time>2026-04-04T13:01:50.968Z</time></trkpt><trkpt lat="43.3471179" lon="10.7025725"><ele>157.75</ele><time>2026-04-04T13:01:51.953Z</time></trkpt><trkpt lat="43.34712" lon="10.7027443"><ele>160.0</ele><time>2026-04-04T13:01:52.953Z</time></trkpt><trkpt lat="43.3470877" lon="10.7029178"><ele>160.75</ele><time>2026-04-04T13:01:53.955Z</time></trkpt><trkpt lat="43.3470248" lon="10.7030905"><ele>161.5</ele><time>2026-04-04T13:01:54.966Z</time></trkpt><trkpt lat="43.3469453" lon="10.7032629"><ele>162.25</ele><time>2026-04-04T13:01:55.968Z</time></trkpt><trkpt lat="43.3468733" lon="10.7034511"><ele>163.0</ele><time>2026-04-04T13:01:56.962Z</time></trkpt><trkpt lat="43.3468265" lon="10.70366"><ele>163.0</ele><time>2026-04-04T13:01:57.972Z</time></trkpt><trkpt lat="43.3467931" lon="10.7038827"><ele>163.0</ele><time>2026-04-04T13:01:58.967Z</time></trkpt><trkpt lat="43.3467461" lon="10.7041039"><ele>163.0</ele><time>2026-04-04T13:01:59.968Z</time></trkpt><trkpt lat="43.3466744" lon="10.7043112"><ele>161.66666666666669</ele><time>2026-04-04T13:02:00.953Z</time></trkpt><trkpt lat="43.3466029" lon="10.7045103"><ele>160.33333333333334</ele><time>2026-04-04T13:02:01.954Z</time></trkpt><trkpt lat="43.346555" lon="10.7047062"><ele>159.0</ele><time>2026-04-04T13:02:02.959Z</time></trkpt><trkpt lat="43.3465412" lon="10.7048992"><ele>159.0</ele><time>2026-04-04T13:02:03.965Z</time></trkpt><trkpt lat="43.3465647" lon="10.7050713"><ele>159.0</ele><time>2026-04-04T13:02:04.95Z</time></trkpt><trkpt lat="43.3466224" lon="10.7052156"><ele>159.0</ele><time>2026-04-04T13:02:05.97Z</time></trkpt><trkpt lat="43.3467094" lon="10.7053459"><ele>159.0</ele><time>2026-04-04T13:02:06.967Z</time></trkpt><trkpt lat="43.3468138" lon="10.705478"><ele>159.66666666666666</ele><time>2026-04-04T13:02:07.964Z</time></trkpt><trkpt lat="43.3469258" lon="10.7056197"><ele>160.33333333333331</ele><time>2026-04-04T13:02:08.968Z</time></trkpt><trkpt lat="43.3470431" lon="10.7057713"><ele>161.0</ele><time>2026-04-04T13:02:09.956Z</time></trkpt><trkpt lat="43.3471655" lon="10.7059291"><ele>163.0</ele><time>2026-04-04T13:02:10.955Z</time></trkpt><trkpt lat="43.3472913" lon="10.7060905"><ele>165.0</ele><time>2026-04-04T13:02:11.96Z</time></trkpt><trkpt lat="43.3474178" lon="10.7062543"><ele>167.0</ele><time>2026-04-04T13:02:12.954Z</time></trkpt><trkpt lat="43.3475429" lon="10.7064168"><ele>167.0</ele><time>2026-04-04T13:02:13.965Z</time></trkpt><trkpt lat="43.3476641" lon="10.7065748"><ele>167.0</ele><time>2026-04-04T13:02:14.95Z</time></trkpt><trkpt lat="43.347787" lon="10.7067228"><ele>167.0</ele><time>2026-04-04T13:02:15.95Z</time></trkpt><trkpt lat="43.3479211" lon="10.7068453"><ele>171.66666666666666</ele><time>2026-04-04T13:02:16.966Z</time></trkpt><trkpt lat="43.3480691" lon="10.706934"><ele>176.33333333333334</ele><time>2026-04-04T13:02:17.955Z</time></trkpt><trkpt lat="43.348226" lon="10.7069942"><ele>181.0</ele><time>2026-04-04T13:02:18.976Z</time></trkpt><trkpt lat="43.3483872" lon="10.7070392"><ele>181.0</ele><time>2026-04-04T13:02:19.959Z</time></trkpt><trkpt lat="43.3485487" lon="10.7070865"><ele>181.0</ele><time>2026-04-04T13:02:20.954Z</time></trkpt><trkpt lat="43.3487061" lon="10.7071502"><ele>181.0</ele><time>2026-04-04T13:02:21.95Z</time></trkpt><trkpt lat="43.3488584" lon="10.707235"><ele>182.0</ele><time>2026-04-04T13:02:22.977Z</time></trkpt><trkpt lat="43.3490063" lon="10.7073367"><ele>183.0</ele><time>2026-04-04T13:02:23.968Z</time></trkpt><trkpt lat="43.3491512" lon="10.7074454"><ele>184.0</ele><time>2026-04-04T13:02:24.971Z</time></trkpt><trkpt lat="43.3492927" lon="10.7075547"><ele>184.0</ele><time>2026-04-04T13:02:25.982Z</time></trkpt><trkpt lat="43.3494238" lon="10.7076723"><ele>184.0</ele><time>2026-04-04T13:02:26.966Z</time></trkpt><trkpt lat="43.3495275" lon="10.7078123"><ele>184.0</ele><time>2026-04-04T13:02:27.954Z</time></trkpt><trkpt lat="43.3496055" lon="10.7079853"><ele>184.33333333333334</ele><time>2026-04-04T13:02:28.96Z</time></trkpt><trkpt lat="43.3496642" lon="10.7081845"><ele>184.66666666666666</ele><time>2026-04-04T13:02:29.964Z</time></trkpt><trkpt lat="43.3497152" lon="10.7083995"><ele>185.0</ele><time>2026-04-04T13:02:30.95Z</time></trkpt><trkpt lat="43.349762" lon="10.7086191"><ele>187.0</ele><time>2026-04-04T13:02:31.965Z</time></trkpt><trkpt lat="43.349797" lon="10.7088382"><ele>189.0</ele><time>2026-04-04T13:02:32.962Z</time></trkpt><trkpt lat="43.3498093" lon="10.70906"><ele>191.0</ele><time>2026-04-04T13:02:33.963Z</time></trkpt><trkpt lat="43.3497986" lon="10.7092801"><ele>192.33333333333331</ele><time>2026-04-04T13:02:34.967Z</time></trkpt><trkpt lat="43.3497814" lon="10.7094982"><ele>193.66666666666666</ele><time>2026-04-04T13:02:35.968Z</time></trkpt><trkpt lat="43.3497511" lon="10.7097092"><ele>195.0</ele><time>2026-04-04T13:02:36.961Z</time></trkpt><trkpt lat="43.3497253" lon="10.7099073"><ele>195.0</ele><time>2026-04-04T13:02:37.956Z</time></trkpt><trkpt lat="43.3497002" lon="10.7100812"><ele>195.0</ele><time>2026-04-04T13:02:38.95Z</time></trkpt><trkpt lat="43.3497099" lon="10.710237"><ele>195.0</ele><time>2026-04-04T13:02:39.958Z</time></trkpt><trkpt lat="43.3497545" lon="10.7103733"><ele>195.0</ele><time>2026-04-04T13:02:40.973Z</time></trkpt><trkpt lat="43.3498049" lon="10.7105042"><ele>198.5</ele><time>2026-04-04T13:02:41.949Z</time></trkpt><trkpt lat="43.3499036" lon="10.7105768"><ele>202.0</ele><time>2026-04-04T13:02:42.973Z</time></trkpt><trkpt lat="43.3500372" lon="10.7106364"><ele>205.5</ele><time>2026-04-04T13:02:43.965Z</time></trkpt><trkpt lat="43.350173" lon="10.7107105"><ele>209.0</ele><time>2026-04-04T13:02:44.963Z</time></trkpt><trkpt lat="43.3502871" lon="10.7108184"><ele>209.0</ele><time>2026-04-04T13:02:45.952Z</time></trkpt><trkpt lat="43.3503749" lon="10.7109671"><ele>209.0</ele><time>2026-04-04T13:02:46.957Z</time></trkpt><trkpt lat="43.3504503" lon="10.7111401"><ele>209.0</ele><time>2026-04-04T13:02:47.962Z</time></trkpt><trkpt lat="43.3505376" lon="10.711303"><ele>209.0</ele><time>2026-04-04T13:02:48.972Z</time></trkpt><trkpt lat="43.3506331" lon="10.7114503"><ele>208.75</ele><time>2026-04-04T13:02:49.977Z</time></trkpt><trkpt lat="43.3507309" lon="10.7115947"><ele>208.5</ele><time>2026-04-04T13:02:50.968Z</time></trkpt><trkpt lat="43.3507835" lon="10.7117722"><ele>208.25</ele><time>2026-04-04T13:02:51.97Z</time></trkpt><trkpt lat="43.3508057" lon="10.7119724"><ele>208.0</ele><time>2026-04-04T13:02:52.96Z</time></trkpt><trkpt lat="43.350816" lon="10.7121918"><ele>208.0</ele><time>2026-04-04T13:02:53.962Z</time></trkpt><trkpt lat="43.3508268" lon="10.712429"><ele>208.0</ele><time>2026-04-04T13:02:54.953Z</time></trkpt><trkpt lat="43.3508384" lon="10.7126708"><ele>208.0</ele><time>2026-04-04T13:02:55.969Z</time></trkpt><trkpt lat="43.3508484" lon="10.7129192"><ele>208.66666666666666</ele><time>2026-04-04T13:02:56.951Z</time></trkpt><trkpt lat="43.3508618" lon="10.7131663"><ele>209.33333333333331</ele><time>2026-04-04T13:02:57.976Z</time></trkpt><trkpt lat="43.350877" lon="10.7134049"><ele>210.0</ele><time>2026-04-04T13:02:58.971Z</time></trkpt><trkpt lat="43.3508968" lon="10.713617"><ele>210.0</ele><time>2026-04-04T13:02:59.971Z</time></trkpt><trkpt lat="43.3509307" lon="10.7137979"><ele>210.0</ele><time>2026-04-04T13:03:00.957Z</time></trkpt><trkpt lat="43.3509917" lon="10.7139527"><ele>210.0</ele><time>2026-04-04T13:03:01.976Z</time></trkpt><trkpt lat="43.3510822" lon="10.7140764"><ele>210.0</ele><time>2026-04-04T13:03:02.966Z</time></trkpt><trkpt lat="43.3511751" lon="10.7141912"><ele>210.0</ele><time>2026-04-04T13:03:03.955Z</time></trkpt><trkpt lat="43.3513252" lon="10.7142223"><ele>210.0</ele><time>2026-04-04T13:03:04.958Z</time></trkpt><trkpt lat="43.3514845" lon="10.7142275"><ele>210.0</ele><time>2026-04-04T13:03:05.951Z</time></trkpt><trkpt lat="43.3516465" lon="10.7142398"><ele>208.66666666666669</ele><time>2026-04-04T13:03:06.96Z</time></trkpt><trkpt lat="43.3518072" lon="10.7142738"><ele>207.33333333333334</ele><time>2026-04-04T13:03:07.964Z</time></trkpt><trkpt lat="43.3519677" lon="10.7143332"><ele>206.0</ele><time>2026-04-04T13:03:08.972Z</time></trkpt><trkpt lat="43.3521291" lon="10.7144077"><ele>205.66666666666669</ele><time>2026-04-04T13:03:09.954Z</time></trkpt><trkpt lat="43.3522977" lon="10.7144896"><ele>205.33333333333331</ele><time>2026-04-04T13:03:10.959Z</time></trkpt><trkpt lat="43.3524724" lon="10.7145743"><ele>205.0</ele><time>2026-04-04T13:03:11.956Z</time></trkpt><trkpt lat="43.3526505" lon="10.7146595"><ele>205.0</ele><time>2026-04-04T13:03:12.965Z</time></trkpt><trkpt lat="43.3528329" lon="10.714747"><ele>205.0</ele><time>2026-04-04T13:03:13.961Z</time></trkpt><trkpt lat="43.3530174" lon="10.7148371"><ele>205.0</ele><time>2026-04-04T13:03:14.965Z</time></trkpt><trkpt lat="43.3532094" lon="10.7149237"><ele>206.33333333333331</ele><time>2026-04-04T13:03:15.973Z</time></trkpt><trkpt lat="43.353394" lon="10.7150073"><ele>207.66666666666669</ele><time>2026-04-04T13:03:16.967Z</time></trkpt><trkpt lat="43.3535779" lon="10.7150752"><ele>209.0</ele><time>2026-04-04T13:03:17.976Z</time></trkpt><trkpt lat="43.3537606" lon="10.7151363"><ele>210.66666666666669</ele><time>2026-04-04T13:03:18.966Z</time></trkpt><trkpt lat="43.3539479" lon="10.7151757"><ele>212.33333333333331</ele><time>2026-04-04T13:03:19.972Z</time></trkpt><trkpt lat="43.3541336" lon="10.7152144"><ele>214.0</ele><time>2026-04-04T13:03:20.968Z</time></trkpt><trkpt lat="43.3543166" lon="10.7152676"><ele>214.0</ele><time>2026-04-04T13:03:21.974Z</time></trkpt><trkpt lat="43.3544869" lon="10.7153391"><ele>214.0</ele><time>2026-04-04T13:03:22.969Z</time></trkpt><trkpt lat="43.3546415" lon="10.7154285"><ele>214.0</ele><time>2026-04-04T13:03:23.97Z</time></trkpt><trkpt lat="43.3547915" lon="10.7155044"><ele>217.66666666666666</ele><time>2026-04-04T13:03:24.961Z</time></trkpt><trkpt lat="43.3549483" lon="10.7155331"><ele>221.33333333333331</ele><time>2026-04-04T13:03:25.969Z</time></trkpt><trkpt lat="43.3551076" lon="10.7155562"><ele>225.0</ele><time>2026-04-04T13:03:26.972Z</time></trkpt><trkpt lat="43.355258" lon="10.7155405"><ele>225.0</ele><time>2026-04-04T13:03:27.967Z</time></trkpt><trkpt lat="43.355378" lon="10.7155757"><ele>225.0</ele><time>2026-04-04T13:03:28.976Z</time></trkpt><trkpt lat="43.3554651" lon="10.7156632"><ele>225.0</ele><time>2026-04-04T13:03:29.964Z</time></trkpt><trkpt lat="43.355557" lon="10.7157662"><ele>225.0</ele><time>2026-04-04T13:03:30.958Z</time></trkpt><trkpt lat="43.3556246" lon="10.7159233"><ele>225.5</ele><time>2026-04-04T13:03:31.971Z</time></trkpt><trkpt lat="43.3557099" lon="10.7160679"><ele>226.0</ele><time>2026-04-04T13:03:32.974Z</time></trkpt><trkpt lat="43.3557943" lon="10.7161981"><ele>226.5</ele><time>2026-04-04T13:03:33.959Z</time></trkpt><trkpt lat="43.3559239" lon="10.7162554"><ele>227.0</ele><time>2026-04-04T13:03:34.971Z</time></trkpt><trkpt lat="43.3560627" lon="10.7162595"><ele>230.0</ele><time>2026-04-04T13:03:35.971Z</time></trkpt><trkpt lat="43.3561793" lon="10.7163296"><ele>233.0</ele><time>2026-04-04T13:03:36.968Z</time></trkpt><trkpt lat="43.3562658" lon="10.7164427"><ele>236.0</ele><time>2026-04-04T13:03:37.955Z</time></trkpt><trkpt lat="43.3563074" lon="10.7165902"><ele>239.0</ele><time>2026-04-04T13:03:38.962Z</time></trkpt><trkpt lat="43.3563058" lon="10.7167579"><ele>238.75</ele><time>2026-04-04T13:03:39.958Z</time></trkpt><trkpt lat="43.3562917" lon="10.716942"><ele>238.5</ele><time>2026-04-04T13:03:40.964Z</time></trkpt><trkpt lat="43.3562946" lon="10.7171367"><ele>238.25</ele><time>2026-04-04T13:03:41.956Z</time></trkpt><trkpt lat="43.3563003" lon="10.717338"><ele>238.0</ele><time>2026-04-04T13:03:42.954Z</time></trkpt><trkpt lat="43.3563811" lon="10.7175309"><ele>238.0</ele><time>2026-04-04T13:03:43.967Z</time></trkpt><trkpt lat="43.3564669" lon="10.7177245"><ele>238.0</ele><time>2026-04-04T13:03:44.967Z</time></trkpt><trkpt lat="43.356547" lon="10.7179239"><ele>238.0</ele><time>2026-04-04T13:03:45.974Z</time></trkpt><trkpt lat="43.356589" lon="10.7181453"><ele>240.0</ele><time>2026-04-04T13:03:46.972Z</time></trkpt><trkpt lat="43.3566" lon="10.7183817"><ele>242.0</ele><time>2026-04-04T13:03:47.96Z</time></trkpt><trkpt lat="43.3566107" lon="10.7186182"><ele>244.0</ele><time>2026-04-04T13:03:48.965Z</time></trkpt><trkpt lat="43.3566147" lon="10.7188516"><ele>244.75</ele><time>2026-04-04T13:03:49.962Z</time></trkpt><trkpt lat="43.3566215" lon="10.7190684"><ele>245.5</ele><time>2026-04-04T13:03:50.976Z</time></trkpt><trkpt lat="43.3566125" lon="10.719263"><ele>246.25</ele><time>2026-04-04T13:03:51.971Z</time></trkpt><trkpt lat="43.3565883" lon="10.7194324"><ele>247.0</ele><time>2026-04-04T13:03:52.965Z</time></trkpt><trkpt lat="43.356591" lon="10.7195856"><ele>247.0</ele><time>2026-04-04T13:03:53.973Z</time></trkpt><trkpt lat="43.3566393" lon="10.7197303"><ele>247.0</ele><time>2026-04-04T13:03:54.965Z</time></trkpt><trkpt lat="43.3567257" lon="10.7198676"><ele>247.0</ele><time>2026-04-04T13:03:55.974Z</time></trkpt><trkpt lat="43.3568289" lon="10.7200053"><ele>247.0</ele><time>2026-04-04T13:03:56.97Z</time></trkpt><trkpt lat="43.3569327" lon="10.7201499"><ele>246.75</ele><time>2026-04-04T13:03:57.965Z</time></trkpt><trkpt lat="43.3570165" lon="10.7203015"><ele>246.5</ele><time>2026-04-04T13:03:58.97Z</time></trkpt><trkpt lat="43.3570639" lon="10.7204683"><ele>246.25</ele><time>2026-04-04T13:03:59.97Z</time></trkpt><trkpt lat="43.3570754" lon="10.7206542"><ele>246.0</ele><time>2026-04-04T13:04:00.968Z</time></trkpt><trkpt lat="43.3570657" lon="10.7208562"><ele>247.0</ele><time>2026-04-04T13:04:01.972Z</time></trkpt><trkpt lat="43.3570591" lon="10.7210706"><ele>248.0</ele><time>2026-04-04T13:04:02.966Z</time></trkpt><trkpt lat="43.3570462" lon="10.7212877"><ele>249.0</ele><time>2026-04-04T13:04:03.971Z</time></trkpt><trkpt lat="43.3570342" lon="10.7214942"><ele>249.0</ele><time>2026-04-04T13:04:04.971Z</time></trkpt><trkpt lat="43.3570326" lon="10.7216777"><ele>249.0</ele><time>2026-04-04T13:04:05.952Z</time></trkpt><trkpt lat="43.357061" lon="10.721851"><ele>249.0</ele><time>2026-04-04T13:04:06.956Z</time></trkpt><trkpt lat="43.3571272" lon="10.7220184"><ele>249.0</ele><time>2026-04-04T13:04:07.972Z</time></trkpt><trkpt lat="43.3571997" lon="10.7221941"><ele>252.33333333333331</ele><time>2026-04-04T13:04:08.968Z</time></trkpt><trkpt lat="43.3572941" lon="10.7223735"><ele>255.66666666666666</ele><time>2026-04-04T13:04:09.978Z</time></trkpt><trkpt lat="43.3573861" lon="10.7225689"><ele>259.0</ele><time>2026-04-04T13:04:10.971Z</time></trkpt><trkpt lat="43.357478" lon="10.7227709"><ele>259.0</ele><time>2026-04-04T13:04:11.966Z</time></trkpt><trkpt lat="43.3575637" lon="10.7229749"><ele>259.0</ele><time>2026-04-04T13:04:12.969Z</time></trkpt><trkpt lat="43.3576396" lon="10.7231641"><ele>259.0</ele><time>2026-04-04T13:04:13.977Z</time></trkpt><trkpt lat="43.3577087" lon="10.7233348"><ele>259.0</ele><time>2026-04-04T13:04:14.964Z</time></trkpt><trkpt lat="43.3577968" lon="10.7234551"><ele>259.0</ele><time>2026-04-04T13:04:15.966Z</time></trkpt><trkpt lat="43.357903" lon="10.7235253"><ele>259.0</ele><time>2026-04-04T13:04:16.975Z</time></trkpt><trkpt lat="43.358018" lon="10.7235505"><ele>259.0</ele><time>2026-04-04T13:04:17.972Z</time></trkpt><trkpt lat="43.3581322" lon="10.7235653"><ele>260.25</ele><time>2026-04-04T13:04:18.973Z</time></trkpt><trkpt lat="43.3582152" lon="10.7234679"><ele>261.5</ele><time>2026-04-04T13:04:19.969Z</time></trkpt><trkpt lat="43.3582823" lon="10.7233322"><ele>262.75</ele><time>2026-04-04T13:04:20.97Z</time></trkpt><trkpt lat="43.3583454" lon="10.7231903"><ele>264.0</ele><time>2026-04-04T13:04:21.957Z</time></trkpt><trkpt lat="43.3584096" lon="10.7230676"><ele>264.0</ele><time>2026-04-04T13:04:22.962Z</time></trkpt><trkpt lat="43.358488" lon="10.7229826"><ele>264.0</ele><time>2026-04-04T13:04:23.972Z</time></trkpt><trkpt lat="43.3585658" lon="10.7229192"><ele>264.0</ele><time>2026-04-04T13:04:24.967Z</time></trkpt><trkpt lat="43.3586814" lon="10.7229649"><ele>264.0</ele><time>2026-04-04T13:04:25.973Z</time></trkpt><trkpt lat="43.3588017" lon="10.7230413"><ele>264.0</ele><time>2026-04-04T13:04:26.968Z</time></trkpt><trkpt lat="43.3589324" lon="10.7231195"><ele>265.6666666666667</ele><time>2026-04-04T13:04:27.971Z</time></trkpt><trkpt lat="43.3590762" lon="10.7232036"><ele>267.33333333333337</ele><time>2026-04-04T13:04:28.97Z</time></trkpt><trkpt lat="43.3592296" lon="10.7232947"><ele>269.0</ele><time>2026-04-04T13:04:29.957Z</time></trkpt><trkpt lat="43.3593856" lon="10.7233887"><ele>269.0</ele><time>2026-04-04T13:04:30.956Z</time></trkpt><trkpt lat="43.3595314" lon="10.7234824"><ele>269.0</ele><time>2026-04-04T13:04:31.964Z</time></trkpt><trkpt lat="43.3596622" lon="10.7235873"><ele>269.0</ele><time>2026-04-04T13:04:32.975Z</time></trkpt><trkpt lat="43.3597724" lon="10.7237204"><ele>270.0</ele><time>2026-04-04T13:04:33.956Z</time></trkpt><trkpt lat="43.3598548" lon="10.7238893"><ele>271.0</ele><time>2026-04-04T13:04:34.969Z</time></trkpt><trkpt lat="43.3599368" lon="10.7240676"><ele>272.0</ele><time>2026-04-04T13:04:35.958Z</time></trkpt><trkpt lat="43.359998" lon="10.7242819"><ele>271.6666666666667</ele><time>2026-04-04T13:04:36.958Z</time></trkpt><trkpt lat="43.3600698" lon="10.7245077"><ele>271.3333333333333</ele><time>2026-04-04T13:04:37.957Z</time></trkpt><trkpt lat="43.3601428" lon="10.7247304"><ele>271.0</ele><time>2026-04-04T13:04:38.967Z</time></trkpt><trkpt lat="43.3602165" lon="10.7249364"><ele>271.0</ele><time>2026-04-04T13:04:39.981Z</time></trkpt><trkpt lat="43.3602824" lon="10.7251303"><ele>271.0</ele><time>2026-04-04T13:04:40.956Z</time></trkpt><trkpt lat="43.3603149" lon="10.7253289"><ele>271.0</ele><time>2026-04-04T13:04:41.978Z</time></trkpt><trkpt lat="43.3603425" lon="10.7255308"><ele>270.75</ele><time>2026-04-04T13:04:42.973Z</time></trkpt><trkpt lat="43.3603454" lon="10.7257206"><ele>270.5</ele><time>2026-04-04T13:04:43.974Z</time></trkpt><trkpt lat="43.360381" lon="10.7259026"><ele>270.25</ele><time>2026-04-04T13:04:44.973Z</time></trkpt><trkpt lat="43.3604514" lon="10.7260777"><ele>270.0</ele><time>2026-04-04T13:04:45.974Z</time></trkpt><trkpt lat="43.3605325" lon="10.726249"><ele>275.6666666666667</ele><time>2026-04-04T13:04:46.967Z</time></trkpt><trkpt lat="43.3606163" lon="10.7264175"><ele>281.33333333333337</ele><time>2026-04-04T13:04:47.961Z</time></trkpt><trkpt lat="43.3606802" lon="10.7266049"><ele>287.0</ele><time>2026-04-04T13:04:48.964Z</time></trkpt><trkpt lat="43.3607211" lon="10.7268168"><ele>286.6666666666667</ele><time>2026-04-04T13:04:49.962Z</time></trkpt><trkpt lat="43.3607465" lon="10.7270365"><ele>286.3333333333333</ele><time>2026-04-04T13:04:50.958Z</time></trkpt><trkpt lat="43.3607679" lon="10.7272567"><ele>286.0</ele><time>2026-04-04T13:04:51.97Z</time></trkpt><trkpt lat="43.3607927" lon="10.7274717"><ele>286.0</ele><time>2026-04-04T13:04:52.964Z</time></trkpt><trkpt lat="43.360823" lon="10.7276665"><ele>286.0</ele><time>2026-04-04T13:04:53.971Z</time></trkpt><trkpt lat="43.3608739" lon="10.7278291"><ele>286.0</ele><time>2026-04-04T13:04:54.974Z</time></trkpt><trkpt lat="43.3609271" lon="10.7279762"><ele>286.0</ele><time>2026-04-04T13:04:55.961Z</time></trkpt><trkpt lat="43.3610403" lon="10.7280893"><ele>284.66666666666663</ele><time>2026-04-04T13:04:56.971Z</time></trkpt><trkpt lat="43.3611606" lon="10.7282028"><ele>283.3333333333333</ele><time>2026-04-04T13:04:57.964Z</time></trkpt><trkpt lat="43.3612763" lon="10.7283348"><ele>282.0</ele><time>2026-04-04T13:04:58.972Z</time></trkpt><trkpt lat="43.3613665" lon="10.7285082"><ele>284.3333333333333</ele><time>2026-04-04T13:04:59.973Z</time></trkpt><trkpt lat="43.3614402" lon="10.7287039"><ele>286.66666666666663</ele><time>2026-04-04T13:05:00.971Z</time></trkpt><trkpt lat="43.3615415" lon="10.7288574"><ele>289.0</ele><time>2026-04-04T13:05:01.956Z</time></trkpt><trkpt lat="43.3616433" lon="10.7289974"><ele>289.0</ele><time>2026-04-04T13:05:02.975Z</time></trkpt><trkpt lat="43.3617444" lon="10.7291536"><ele>289.0</ele><time>2026-04-04T13:05:03.957Z</time></trkpt><trkpt lat="43.3618271" lon="10.729313"><ele>289.0</ele><time>2026-04-04T13:05:04.972Z</time></trkpt><trkpt lat="43.3619004" lon="10.7294567"><ele>289.0</ele><time>2026-04-04T13:05:05.956Z</time></trkpt><trkpt lat="43.362025" lon="10.7295458"><ele>290.66666666666663</ele><time>2026-04-04T13:05:06.957Z</time></trkpt><trkpt lat="43.3621607" lon="10.7296355"><ele>292.3333333333333</ele><time>2026-04-04T13:05:07.968Z</time></trkpt><trkpt lat="43.3623135" lon="10.7297192"><ele>294.0</ele><time>2026-04-04T13:05:08.958Z</time></trkpt><trkpt lat="43.3624559" lon="10.7298413"><ele>294.0</ele><time>2026-04-04T13:05:09.977Z</time></trkpt><trkpt lat="43.3625934" lon="10.7299711"><ele>294.0</ele><time>2026-04-04T13:05:10.957Z</time></trkpt><trkpt lat="43.3627318" lon="10.730066"><ele>294.0</ele><time>2026-04-04T13:05:11.964Z</time></trkpt><trkpt lat="43.36287" lon="10.7301171"><ele>294.0</ele><time>2026-04-04T13:05:12.965Z</time></trkpt><trkpt lat="43.3629992" lon="10.7301571"><ele>294.0</ele><time>2026-04-04T13:05:13.967Z</time></trkpt><trkpt lat="43.3631176" lon="10.7301312"><ele>294.0</ele><time>2026-04-04T13:05:14.973Z</time></trkpt><trkpt lat="43.3632368" lon="10.730069"><ele>294.0</ele><time>2026-04-04T13:05:15.969Z</time></trkpt><trkpt lat="43.363327" lon="10.7299473"><ele>294.0</ele><time>2026-04-04T13:05:16.966Z</time></trkpt><trkpt lat="43.3634253" lon="10.7298084"><ele>294.0</ele><time>2026-04-04T13:05:17.966Z</time></trkpt><trkpt lat="43.3634912" lon="10.7296138"><ele>294.0</ele><time>2026-04-04T13:05:18.958Z</time></trkpt><trkpt lat="43.363543" lon="10.729399"><ele>297.3333333333333</ele><time>2026-04-04T13:05:19.973Z</time></trkpt><trkpt lat="43.3635955" lon="10.7291786"><ele>300.66666666666663</ele><time>2026-04-04T13:05:20.967Z</time></trkpt><trkpt lat="43.3636481" lon="10.7289526"><ele>304.0</ele><time>2026-04-04T13:05:21.961Z</time></trkpt><trkpt lat="43.363697" lon="10.7287215"><ele>306.66666666666663</ele><time>2026-04-04T13:05:22.966Z</time></trkpt><trkpt lat="43.3637554" lon="10.7285048"><ele>309.3333333333333</ele><time>2026-04-04T13:05:23.955Z</time></trkpt><trkpt lat="43.3638109" lon="10.7282997"><ele>312.0</ele><time>2026-04-04T13:05:24.979Z</time></trkpt><trkpt lat="43.3638628" lon="10.7281096"><ele>309.75</ele><time>2026-04-04T13:05:25.964Z</time></trkpt><trkpt lat="43.3639118" lon="10.7279237"><ele>307.5</ele><time>2026-04-04T13:05:26.958Z</time></trkpt><trkpt lat="43.3639231" lon="10.7277263"><ele>305.25</ele><time>2026-04-04T13:05:27.957Z</time></trkpt><trkpt lat="43.3639102" lon="10.7275248"><ele>303.0</ele><time>2026-04-04T13:05:28.968Z</time></trkpt><trkpt lat="43.3639" lon="10.7273187"><ele>303.0</ele><time>2026-04-04T13:05:29.967Z</time></trkpt><trkpt lat="43.363905" lon="10.7271093"><ele>303.0</ele><time>2026-04-04T13:05:30.972Z</time></trkpt><trkpt lat="43.3639227" lon="10.726904"><ele>303.0</ele><time>2026-04-04T13:05:31.957Z</time></trkpt><trkpt lat="43.363955" lon="10.7267122"><ele>303.0</ele><time>2026-04-04T13:05:32.957Z</time></trkpt><trkpt lat="43.3640057" lon="10.7265416"><ele>303.75</ele><time>2026-04-04T13:05:33.967Z</time></trkpt><trkpt lat="43.3640846" lon="10.7264028"><ele>304.5</ele><time>2026-04-04T13:05:34.951Z</time></trkpt><trkpt lat="43.364155" lon="10.7262798"><ele>305.25</ele><time>2026-04-04T13:05:35.951Z</time></trkpt><trkpt lat="43.3642763" lon="10.726215"><ele>306.0</ele><time>2026-04-04T13:05:36.97Z</time></trkpt><trkpt lat="43.3644277" lon="10.7261729"><ele>306.0</ele><time>2026-04-04T13:05:37.977Z</time></trkpt><trkpt lat="43.3645851" lon="10.7261103"><ele>306.0</ele><time>2026-04-04T13:05:38.98Z</time></trkpt><trkpt lat="43.3647469" lon="10.7260427"><ele>306.0</ele><time>2026-04-04T13:05:39.968Z</time></trkpt><trkpt lat="43.3649146" lon="10.7259676"><ele>307.0</ele><time>2026-04-04T13:05:40.955Z</time></trkpt><trkpt lat="43.3650818" lon="10.7258862"><ele>308.0</ele><time>2026-04-04T13:05:41.957Z</time></trkpt><trkpt lat="43.3652422" lon="10.7258073"><ele>309.0</ele><time>2026-04-04T13:05:42.957Z</time></trkpt><trkpt lat="43.3653949" lon="10.7257377"><ele>310.3333333333333</ele><time>2026-04-04T13:05:43.964Z</time></trkpt><trkpt lat="43.3655426" lon="10.7256716"><ele>311.66666666666663</ele><time>2026-04-04T13:05:44.97Z</time></trkpt><trkpt lat="43.3656916" lon="10.7256474"><ele>313.0</ele><time>2026-04-04T13:05:45.952Z</time></trkpt><trkpt lat="43.3658478" lon="10.7256636"><ele>313.0</ele><time>2026-04-04T13:05:46.972Z</time></trkpt><trkpt lat="43.366001" lon="10.7257505"><ele>313.0</ele><time>2026-04-04T13:05:47.973Z</time></trkpt><trkpt lat="43.3661375" lon="10.7258889"><ele>313.0</ele><time>2026-04-04T13:05:48.967Z</time></trkpt><trkpt lat="43.3662794" lon="10.7260203"><ele>311.3333333333333</ele><time>2026-04-04T13:05:49.975Z</time></trkpt><trkpt lat="43.3664195" lon="10.7261321"><ele>309.6666666666667</ele><time>2026-04-04T13:05:50.967Z</time></trkpt><trkpt lat="43.3665645" lon="10.7262303"><ele>308.0</ele><time>2026-04-04T13:05:51.958Z</time></trkpt><trkpt lat="43.3667177" lon="10.7262911"><ele>308.0</ele><time>2026-04-04T13:05:52.962Z</time></trkpt><trkpt lat="43.3668688" lon="10.7263492"><ele>308.0</ele><time>2026-04-04T13:05:53.968Z</time></trkpt><trkpt lat="43.3670151" lon="10.7263854"><ele>308.0</ele><time>2026-04-04T13:05:54.966Z</time></trkpt><trkpt lat="43.3671499" lon="10.7263996"><ele>308.0</ele><time>2026-04-04T13:05:55.95Z</time></trkpt><trkpt lat="43.3672677" lon="10.726391"><ele>308.0</ele><time>2026-04-04T13:05:56.967Z</time></trkpt><trkpt lat="43.3673785" lon="10.7263172"><ele>308.0</ele><time>2026-04-04T13:05:57.971Z</time></trkpt><trkpt lat="43.3674853" lon="10.726185"><ele>308.0</ele><time>2026-04-04T13:05:58.965Z</time></trkpt><trkpt lat="43.3675873" lon="10.7260675"><ele>308.0</ele><time>2026-04-04T13:05:59.963Z</time></trkpt><trkpt lat="43.3676875" lon="10.7259426"><ele>312.75</ele><time>2026-04-04T13:06:00.967Z</time></trkpt><trkpt lat="43.3677608" lon="10.7257855"><ele>317.5</ele><time>2026-04-04T13:06:01.969Z</time></trkpt><trkpt lat="43.3678339" lon="10.7256118"><ele>322.25</ele><time>2026-04-04T13:06:02.963Z</time></trkpt><trkpt lat="43.3679138" lon="10.7254228"><ele>327.0</ele><time>2026-04-04T13:06:03.965Z</time></trkpt><trkpt lat="43.3679942" lon="10.7252361"><ele>327.25</ele><time>2026-04-04T13:06:04.958Z</time></trkpt><trkpt lat="43.3680971" lon="10.7250765"><ele>327.5</ele><time>2026-04-04T13:06:05.97Z</time></trkpt><trkpt lat="43.3681898" lon="10.7249349"><ele>327.75</ele><time>2026-04-04T13:06:06.962Z</time></trkpt><trkpt lat="43.3682755" lon="10.7247964"><ele>328.0</ele><time>2026-04-04T13:06:07.963Z</time></trkpt><trkpt lat="43.3683131" lon="10.7246255"><ele>328.0</ele><time>2026-04-04T13:06:08.956Z</time></trkpt><trkpt lat="43.3683237" lon="10.7244428"><ele>328.0</ele><time>2026-04-04T13:06:09.965Z</time></trkpt><trkpt lat="43.3683285" lon="10.7242736"><ele>328.0</ele><time>2026-04-04T13:06:10.967Z</time></trkpt><trkpt lat="43.3683442" lon="10.7241225"><ele>328.0</ele><time>2026-04-04T13:06:11.973Z</time></trkpt><trkpt lat="43.3683939" lon="10.7240034"><ele>330.75</ele><time>2026-04-04T13:06:12.953Z</time></trkpt><trkpt lat="43.3684484" lon="10.7238868"><ele>333.5</ele><time>2026-04-04T13:06:13.959Z</time></trkpt><trkpt lat="43.3685542" lon="10.7238223"><ele>336.25</ele><time>2026-04-04T13:06:14.955Z</time></trkpt><trkpt lat="43.3686909" lon="10.7237851"><ele>339.0</ele><time>2026-04-04T13:06:15.954Z</time></trkpt><trkpt lat="43.3688548" lon="10.7237495"><ele>341.6666666666667</ele><time>2026-04-04T13:06:16.967Z</time></trkpt><trkpt lat="43.3690173" lon="10.7236894"><ele>344.33333333333337</ele><time>2026-04-04T13:06:17.963Z</time></trkpt><trkpt lat="43.3691677" lon="10.7235955"><ele>347.0</ele><time>2026-04-04T13:06:18.961Z</time></trkpt><trkpt lat="43.3693115" lon="10.7234974"><ele>347.0</ele><time>2026-04-04T13:06:19.953Z</time></trkpt><trkpt lat="43.3694399" lon="10.7234228"><ele>347.0</ele><time>2026-04-04T13:06:20.97Z</time></trkpt><trkpt lat="43.3695746" lon="10.7233822"><ele>347.0</ele><time>2026-04-04T13:06:21.956Z</time></trkpt><trkpt lat="43.3697124" lon="10.7233468"><ele>347.0</ele><time>2026-04-04T13:06:22.966Z</time></trkpt><trkpt lat="43.3698372" lon="10.7232788"><ele>344.75</ele><time>2026-04-04T13:06:23.955Z</time></trkpt><trkpt lat="43.369936" lon="10.723134"><ele>342.5</ele><time>2026-04-04T13:06:24.964Z</time></trkpt><trkpt lat="43.3700094" lon="10.7229583"><ele>340.25</ele><time>2026-04-04T13:06:25.962Z</time></trkpt><trkpt lat="43.37008" lon="10.7227776"><ele>338.0</ele><time>2026-04-04T13:06:26.971Z</time></trkpt><trkpt lat="43.3701649" lon="10.7225904"><ele>344.33333333333337</ele><time>2026-04-04T13:06:27.972Z</time></trkpt><trkpt lat="43.3702563" lon="10.7223978"><ele>350.6666666666667</ele><time>2026-04-04T13:06:28.952Z</time></trkpt><trkpt lat="43.3703379" lon="10.7222073"><ele>357.0</ele><time>2026-04-04T13:06:29.977Z</time></trkpt><trkpt lat="43.3704135" lon="10.7220423"><ele>357.0</ele><time>2026-04-04T13:06:30.974Z</time></trkpt><trkpt lat="43.3705131" lon="10.7219178"><ele>357.0</ele><time>2026-04-04T13:06:31.97Z</time></trkpt><trkpt lat="43.3706448" lon="10.7218471"><ele>357.0</ele><time>2026-04-04T13:06:32.968Z</time></trkpt><trkpt lat="43.370792" lon="10.7218234"><ele>357.0</ele><time>2026-04-04T13:06:33.963Z</time></trkpt><trkpt lat="43.3709497" lon="10.7217902"><ele>356.75</ele><time>2026-04-04T13:06:34.971Z</time></trkpt><trkpt lat="43.3710949" lon="10.7217662"><ele>356.5</ele><time>2026-04-04T13:06:35.966Z</time></trkpt><trkpt lat="43.3712253" lon="10.7217253"><ele>356.25</ele><time>2026-04-04T13:06:36.953Z</time></trkpt><trkpt lat="43.3713412" lon="10.721661"><ele>356.0</ele><time>2026-04-04T13:06:37.962Z</time></trkpt><trkpt lat="43.3714357" lon="10.7215676"><ele>356.0</ele><time>2026-04-04T13:06:38.958Z</time></trkpt><trkpt lat="43.3715015" lon="10.7214387"><ele>356.0</ele><time>2026-04-04T13:06:39.972Z</time></trkpt><trkpt lat="43.3715289" lon="10.7212811"><ele>356.0</ele><time>2026-04-04T13:06:40.959Z</time></trkpt><trkpt lat="43.3715308" lon="10.7211043"><ele>356.0</ele><time>2026-04-04T13:06:41.975Z</time></trkpt><trkpt lat="43.3715332" lon="10.720923"><ele>358.0</ele><time>2026-04-04T13:06:42.97Z</time></trkpt><trkpt lat="43.3715456" lon="10.7207355"><ele>360.0</ele><time>2026-04-04T13:06:43.986Z</time></trkpt><trkpt lat="43.3715773" lon="10.7205603"><ele>362.0</ele><time>2026-04-04T13:06:44.957Z</time></trkpt><trkpt lat="43.3716321" lon="10.7203991"><ele>364.0</ele><time>2026-04-04T13:06:45.961Z</time></trkpt><trkpt lat="43.3717144" lon="10.7202664"><ele>364.2</ele><time>2026-04-04T13:06:46.97Z</time></trkpt><trkpt lat="43.3718152" lon="10.7201716"><ele>364.4</ele><time>2026-04-04T13:06:47.954Z</time></trkpt><trkpt lat="43.3719097" lon="10.720098"><ele>364.6</ele><time>2026-04-04T13:06:48.967Z</time></trkpt><trkpt lat="43.3720091" lon="10.7201035"><ele>364.8</ele><time>2026-04-04T13:06:49.969Z</time></trkpt><trkpt lat="43.3721032" lon="10.720162"><ele>365.0</ele><time>2026-04-04T13:06:50.968Z</time></trkpt><trkpt lat="43.3722015" lon="10.7202529"><ele>365.0</ele><time>2026-04-04T13:06:51.959Z</time></trkpt><trkpt lat="43.3723088" lon="10.7203599"><ele>365.0</ele><time>2026-04-04T13:06:52.962Z</time></trkpt><trkpt lat="43.3724286" lon="10.7204724"><ele>365.0</ele><time>2026-04-04T13:06:53.969Z</time></trkpt><trkpt lat="43.3725576" lon="10.7205919"><ele>365.0</ele><time>2026-04-04T13:06:54.979Z</time></trkpt><trkpt lat="43.3726896" lon="10.7207137"><ele>365.0</ele><time>2026-04-04T13:06:55.974Z</time></trkpt><trkpt lat="43.3728151" lon="10.7208293"><ele>365.0</ele><time>2026-04-04T13:06:56.965Z</time></trkpt><trkpt lat="43.3729311" lon="10.7209302"><ele>365.0</ele><time>2026-04-04T13:06:57.961Z</time></trkpt><trkpt lat="43.3730464" lon="10.7209907"><ele>365.0</ele><time>2026-04-04T13:06:58.97Z</time></trkpt><trkpt lat="43.3731683" lon="10.7209931"><ele>366.0</ele><time>2026-04-04T13:06:59.955Z</time></trkpt><trkpt lat="43.373296" lon="10.7209716"><ele>367.0</ele><time>2026-04-04T13:07:00.956Z</time></trkpt><trkpt lat="43.3734188" lon="10.7208673"><ele>368.0</ele><time>2026-04-04T13:07:01.972Z</time></trkpt><trkpt lat="43.3735502" lon="10.7207591"><ele>369.0</ele><time>2026-04-04T13:07:02.96Z</time></trkpt><trkpt lat="43.3736998" lon="10.7206505"><ele>368.3333333333333</ele><time>2026-04-04T13:07:03.959Z</time></trkpt><trkpt lat="43.3738603" lon="10.7205421"><ele>367.66666666666663</ele><time>2026-04-04T13:07:04.953Z</time></trkpt><trkpt lat="43.374027" lon="10.7204417"><ele>367.0</ele><time>2026-04-04T13:07:05.974Z</time></trkpt><trkpt lat="43.3741945" lon="10.7203477"><ele>367.0</ele><time>2026-04-04T13:07:06.972Z</time></trkpt><trkpt lat="43.3743638" lon="10.7202498"><ele>367.0</ele><time>2026-04-04T13:07:07.956Z</time></trkpt><trkpt lat="43.3745303" lon="10.7201547"><ele>367.0</ele><time>2026-04-04T13:07:08.974Z</time></trkpt><trkpt lat="43.3746908" lon="10.7200637"><ele>369.66666666666663</ele><time>2026-04-04T13:07:09.963Z</time></trkpt><trkpt lat="43.374851" lon="10.7199708"><ele>372.3333333333333</ele><time>2026-04-04T13:07:10.971Z</time></trkpt><trkpt lat="43.3750124" lon="10.7199019"><ele>375.0</ele><time>2026-04-04T13:07:11.973Z</time></trkpt><trkpt lat="43.3751551" lon="10.7198383"><ele>375.0</ele><time>2026-04-04T13:07:12.974Z</time></trkpt><trkpt lat="43.3752868" lon="10.7197941"><ele>375.0</ele><time>2026-04-04T13:07:13.959Z</time></trkpt><trkpt lat="43.3754099" lon="10.7197666"><ele>375.0</ele><time>2026-04-04T13:07:14.95Z</time></trkpt><trkpt lat="43.3755446" lon="10.7197485"><ele>375.0</ele><time>2026-04-04T13:07:15.955Z</time></trkpt><trkpt lat="43.3756922" lon="10.7197518"><ele>376.0</ele><time>2026-04-04T13:07:16.963Z</time></trkpt><trkpt lat="43.3758481" lon="10.7197839"><ele>377.0</ele><time>2026-04-04T13:07:17.958Z</time></trkpt><trkpt lat="43.3760145" lon="10.7198304"><ele>378.0</ele><time>2026-04-04T13:07:18.957Z</time></trkpt><trkpt lat="43.3761805" lon="10.7198809"><ele>378.0</ele><time>2026-04-04T13:07:19.967Z</time></trkpt><trkpt lat="43.3763498" lon="10.719931"><ele>378.0</ele><time>2026-04-04T13:07:20.968Z</time></trkpt><trkpt lat="43.3765208" lon="10.719979"><ele>378.0</ele><time>2026-04-04T13:07:21.954Z</time></trkpt><trkpt lat="43.3766915" lon="10.7200263"><ele>379.6666666666667</ele><time>2026-04-04T13:07:22.975Z</time></trkpt><trkpt lat="43.3768582" lon="10.720073"><ele>381.33333333333337</ele><time>2026-04-04T13:07:23.96Z</time></trkpt><trkpt lat="43.377018" lon="10.7201159"><ele>383.0</ele><time>2026-04-04T13:07:24.961Z</time></trkpt><trkpt lat="43.377175" lon="10.7201633"><ele>384.6666666666667</ele><time>2026-04-04T13:07:25.971Z</time></trkpt><trkpt lat="43.3773182" lon="10.7202404"><ele>386.33333333333337</ele><time>2026-04-04T13:07:26.957Z</time></trkpt><trkpt lat="43.3774584" lon="10.7203188"><ele>388.0</ele><time>2026-04-04T13:07:27.966Z</time></trkpt><trkpt lat="43.37757" lon="10.7204692"><ele>388.0</ele><time>2026-04-04T13:07:28.97Z</time></trkpt><trkpt lat="43.377685" lon="10.7206091"><ele>388.0</ele><time>2026-04-04T13:07:29.958Z</time></trkpt><trkpt lat="43.3778006" lon="10.7207357"><ele>388.0</ele><time>2026-04-04T13:07:30.965Z</time></trkpt><trkpt lat="43.3779065" lon="10.7208643"><ele>388.0</ele><time>2026-04-04T13:07:31.97Z</time></trkpt><trkpt lat="43.3779939" lon="10.7210071"><ele>388.79999999999995</ele><time>2026-04-04T13:07:32.96Z</time></trkpt><trkpt lat="43.3780624" lon="10.7211569"><ele>389.6</ele><time>2026-04-04T13:07:33.962Z</time></trkpt><trkpt lat="43.3781205" lon="10.7212895"><ele>390.4</ele><time>2026-04-04T13:07:34.971Z</time></trkpt><trkpt lat="43.378176" lon="10.7214038"><ele>391.20000000000005</ele><time>2026-04-04T13:07:35.967Z</time></trkpt><trkpt lat="43.3782593" lon="10.7214713"><ele>392.0</ele><time>2026-04-04T13:07:36.958Z</time></trkpt><trkpt lat="43.3783495" lon="10.7214963"><ele>392.0</ele><time>2026-04-04T13:07:37.958Z</time></trkpt><trkpt lat="43.378443" lon="10.7215201"><ele>392.0</ele><time>2026-04-04T13:07:38.961Z</time></trkpt><trkpt lat="43.3785206" lon="10.7214498"><ele>392.0</ele><time>2026-04-04T13:07:39.972Z</time></trkpt><trkpt lat="43.3785915" lon="10.7213563"><ele>392.0</ele><time>2026-04-04T13:07:40.971Z</time></trkpt><trkpt lat="43.3786649" lon="10.7212612"><ele>392.0</ele><time>2026-04-04T13:07:41.963Z</time></trkpt><trkpt lat="43.3787499" lon="10.7212289"><ele>392.0</ele><time>2026-04-04T13:07:42.979Z</time></trkpt><trkpt lat="43.3788392" lon="10.7212025"><ele>392.0</ele><time>2026-04-04T13:07:43.958Z</time></trkpt><trkpt lat="43.3789245" lon="10.7212372"><ele>392.0</ele><time>2026-04-04T13:07:44.957Z</time></trkpt><trkpt lat="43.3790165" lon="10.7213183"><ele>392.0</ele><time>2026-04-04T13:07:45.959Z</time></trkpt><trkpt lat="43.379126" lon="10.7213999"><ele>392.0</ele><time>2026-04-04T13:07:46.958Z</time></trkpt><trkpt lat="43.3792417" lon="10.7214589"><ele>392.75</ele><time>2026-04-04T13:07:47.958Z</time></trkpt><trkpt lat="43.3793679" lon="10.7215288"><ele>393.5</ele><time>2026-04-04T13:07:48.969Z</time></trkpt><trkpt lat="43.3794931" lon="10.7215973"><ele>394.25</ele><time>2026-04-04T13:07:49.96Z</time></trkpt><trkpt lat="43.3796146" lon="10.7216687"><ele>395.0</ele><time>2026-04-04T13:07:50.956Z</time></trkpt><trkpt lat="43.3797284" lon="10.7217315"><ele>396.5</ele><time>2026-04-04T13:07:51.966Z</time></trkpt><trkpt lat="43.3798425" lon="10.7217874"><ele>398.0</ele><time>2026-04-04T13:07:52.97Z</time></trkpt><trkpt lat="43.3799679" lon="10.7217958"><ele>399.5</ele><time>2026-04-04T13:07:53.972Z</time></trkpt><trkpt lat="43.3800916" lon="10.7217986"><ele>401.0</ele><time>2026-04-04T13:07:54.975Z</time></trkpt><trkpt lat="43.380219" lon="10.7217802"><ele>401.0</ele><time>2026-04-04T13:07:55.957Z</time></trkpt><trkpt lat="43.380347" lon="10.7217655"><ele>401.0</ele><time>2026-04-04T13:07:56.959Z</time></trkpt><trkpt lat="43.3804833" lon="10.7217408"><ele>401.0</ele><time>2026-04-04T13:07:57.966Z</time></trkpt><trkpt lat="43.3806132" lon="10.7217088"><ele>401.0</ele><time>2026-04-04T13:07:58.969Z</time></trkpt><trkpt lat="43.3807437" lon="10.7216833"><ele>400.75</ele><time>2026-04-04T13:07:59.955Z</time></trkpt><trkpt lat="43.3808746" lon="10.7216455"><ele>400.5</ele><time>2026-04-04T13:08:00.957Z</time></trkpt><trkpt lat="43.381007" lon="10.7216057"><ele>400.25</ele><time>2026-04-04T13:08:01.97Z</time></trkpt><trkpt lat="43.3811393" lon="10.7215441"><ele>400.0</ele><time>2026-04-04T13:08:02.966Z</time></trkpt><trkpt lat="43.3812498" lon="10.7215072"><ele>398.4</ele><time>2026-04-04T13:08:03.961Z</time></trkpt><trkpt lat="43.3813638" lon="10.7214379"><ele>396.8</ele><time>2026-04-04T13:08:04.953Z</time></trkpt><trkpt lat="43.3814675" lon="10.7214087"><ele>395.20000000000005</ele><time>2026-04-04T13:08:05.962Z</time></trkpt><trkpt lat="43.3815771" lon="10.72142"><ele>393.6</ele><time>2026-04-04T13:08:06.963Z</time></trkpt><trkpt lat="43.3816751" lon="10.7214584"><ele>392.0</ele><time>2026-04-04T13:08:07.961Z</time></trkpt><trkpt lat="43.3817718" lon="10.7214944"><ele>392.0</ele><time>2026-04-04T13:08:08.954Z</time></trkpt><trkpt lat="43.3818667" lon="10.7215183"><ele>392.0</ele><time>2026-04-04T13:08:09.961Z</time></trkpt><trkpt lat="43.3819646" lon="10.7215428"><ele>392.0</ele><time>2026-04-04T13:08:10.972Z</time></trkpt><trkpt lat="43.3820646" lon="10.7215722"><ele>392.0</ele><time>2026-04-04T13:08:11.972Z</time></trkpt><trkpt lat="43.3821667" lon="10.7216136"><ele>392.0</ele><time>2026-04-04T13:08:12.956Z</time></trkpt><trkpt lat="43.3822653" lon="10.7216763"><ele>391.40000000000003</ele><time>2026-04-04T13:08:13.96Z</time></trkpt><trkpt lat="43.3823568" lon="10.7217596"><ele>390.8</ele><time>2026-04-04T13:08:14.975Z</time></trkpt><trkpt lat="43.3824285" lon="10.721865"><ele>390.2</ele><time>2026-04-04T13:08:15.974Z</time></trkpt><trkpt lat="43.3824849" lon="10.7219899"><ele>389.6</ele><time>2026-04-04T13:08:16.962Z</time></trkpt><trkpt lat="43.3825351" lon="10.7221218"><ele>389.0</ele><time>2026-04-04T13:08:17.959Z</time></trkpt><trkpt lat="43.3825847" lon="10.7222566"><ele>389.0</ele><time>2026-04-04T13:08:18.953Z</time></trkpt><trkpt lat="43.382641" lon="10.7223883"><ele>389.0</ele><time>2026-04-04T13:08:19.975Z</time></trkpt><trkpt lat="43.3827063" lon="10.7225101"><ele>389.0</ele><time>2026-04-04T13:08:20.964Z</time></trkpt><trkpt lat="43.3827852" lon="10.7226115"><ele>389.0</ele><time>2026-04-04T13:08:21.974Z</time></trkpt><trkpt lat="43.3828789" lon="10.7226829"><ele>389.0</ele><time>2026-04-04T13:08:22.972Z</time></trkpt><trkpt lat="43.3829848" lon="10.7227293"><ele>388.75</ele><time>2026-04-04T13:08:23.957Z</time></trkpt><trkpt lat="43.3831006" lon="10.7227623"><ele>388.5</ele><time>2026-04-04T13:08:24.98Z</time></trkpt><trkpt lat="43.3832245" lon="10.7227994"><ele>388.25</ele><time>2026-04-04T13:08:25.968Z</time></trkpt><trkpt lat="43.3833534" lon="10.7228541"><ele>388.0</ele><time>2026-04-04T13:08:26.971Z</time></trkpt><trkpt lat="43.3834768" lon="10.7229246"><ele>388.0</ele><time>2026-04-04T13:08:27.96Z</time></trkpt><trkpt lat="43.3835923" lon="10.7229968"><ele>388.0</ele><time>2026-04-04T13:08:28.974Z</time></trkpt><trkpt lat="43.3837006" lon="10.7230639"><ele>388.0</ele><time>2026-04-04T13:08:29.973Z</time></trkpt><trkpt lat="43.3838007" lon="10.7231241"><ele>388.0</ele><time>2026-04-04T13:08:30.965Z</time></trkpt><trkpt lat="43.3838966" lon="10.7231711"><ele>389.0</ele><time>2026-04-04T13:08:31.962Z</time></trkpt><trkpt lat="43.3839953" lon="10.7232084"><ele>390.0</ele><time>2026-04-04T13:08:32.967Z</time></trkpt><trkpt lat="43.3840946" lon="10.7232266"><ele>391.0</ele><time>2026-04-04T13:08:33.952Z</time></trkpt><trkpt lat="43.3841947" lon="10.7232473"><ele>392.0</ele><time>2026-04-04T13:08:34.971Z</time></trkpt><trkpt lat="43.3842805" lon="10.7232915"><ele>393.0</ele><time>2026-04-04T13:08:35.96Z</time></trkpt><trkpt lat="43.3843518" lon="10.7233623"><ele>393.0</ele><time>2026-04-04T13:08:36.959Z</time></trkpt><trkpt lat="43.384407" lon="10.7234518"><ele>393.0</ele><time>2026-04-04T13:08:37.951Z</time></trkpt><trkpt lat="43.3844449" lon="10.7235518"><ele>393.0</ele><time>2026-04-04T13:08:38.961Z</time></trkpt><trkpt lat="43.3844693" lon="10.7236699"><ele>393.0</ele><time>2026-04-04T13:08:39.949Z</time></trkpt><trkpt lat="43.3844805" lon="10.7237959"><ele>393.0</ele><time>2026-04-04T13:08:40.972Z</time></trkpt><trkpt lat="43.3844919" lon="10.7239195"><ele>393.0</ele><time>2026-04-04T13:08:41.955Z</time></trkpt><trkpt lat="43.3845058" lon="10.7240312"><ele>392.59999999999997</ele><time>2026-04-04T13:08:42.968Z</time></trkpt><trkpt lat="43.3845318" lon="10.7241362"><ele>392.2</ele><time>2026-04-04T13:08:43.969Z</time></trkpt><trkpt lat="43.3845745" lon="10.7242409"><ele>391.8</ele><time>2026-04-04T13:08:44.961Z</time></trkpt><trkpt lat="43.3846308" lon="10.7243358"><ele>391.4</ele><time>2026-04-04T13:08:45.956Z</time></trkpt><trkpt lat="43.3847017" lon="10.7244309"><ele>391.0</ele><time>2026-04-04T13:08:46.975Z</time></trkpt><trkpt lat="43.3847781" lon="10.7245236"><ele>393.0</ele><time>2026-04-04T13:08:47.96Z</time></trkpt><trkpt lat="43.3848567" lon="10.7246226"><ele>395.0</ele><time>2026-04-04T13:08:48.959Z</time></trkpt><trkpt lat="43.3849256" lon="10.7247323"><ele>397.0</ele><time>2026-04-04T13:08:49.958Z</time></trkpt><trkpt lat="43.384989" lon="10.724853"><ele>399.0</ele><time>2026-04-04T13:08:50.952Z</time></trkpt><trkpt lat="43.3850061" lon="10.7250003"><ele>401.0</ele><time>2026-04-04T13:08:51.975Z</time></trkpt><trkpt lat="43.3850137" lon="10.7251278"><ele>399.8333333333333</ele><time>2026-04-04T13:08:52.961Z</time></trkpt><trkpt lat="43.3850193" lon="10.7252339"><ele>398.66666666666663</ele><time>2026-04-04T13:08:53.969Z</time></trkpt><trkpt lat="43.3850567" lon="10.7253102"><ele>397.5</ele><time>2026-04-04T13:08:54.972Z</time></trkpt><trkpt lat="43.3851056" lon="10.7253777"><ele>396.33333333333337</ele><time>2026-04-04T13:08:55.965Z</time></trkpt><trkpt lat="43.3851648" lon="10.7254406"><ele>395.1666666666667</ele><time>2026-04-04T13:08:56.974Z</time></trkpt><trkpt lat="43.3852429" lon="10.7255006"><ele>394.0</ele><time>2026-04-04T13:08:57.97Z</time></trkpt><trkpt lat="43.3853374" lon="10.7255597"><ele>394.0</ele><time>2026-04-04T13:08:58.96Z</time></trkpt><trkpt lat="43.38544" lon="10.7256178"><ele>394.0</ele><time>2026-04-04T13:08:59.972Z</time></trkpt><trkpt lat="43.3855392" lon="10.7256807"><ele>394.0</ele><time>2026-04-04T13:09:00.962Z</time></trkpt><trkpt lat="43.3856317" lon="10.725743"><ele>394.0</ele><time>2026-04-04T13:09:01.975Z</time></trkpt><trkpt lat="43.3857153" lon="10.7257987"><ele>394.0</ele><time>2026-04-04T13:09:02.97Z</time></trkpt><trkpt lat="43.3857857" lon="10.725856"><ele>395.8571428571429</ele><time>2026-04-04T13:09:03.971Z</time></trkpt><trkpt lat="43.3858435" lon="10.7259178"><ele>397.7142857142857</ele><time>2026-04-04T13:09:04.97Z</time></trkpt><trkpt lat="43.385889" lon="10.7259879"><ele>399.57142857142856</ele><time>2026-04-04T13:09:05.971Z</time></trkpt><trkpt lat="43.3859176" lon="10.7260704"><ele>401.42857142857144</ele><time>2026-04-04T13:09:06.954Z</time></trkpt><trkpt lat="43.3859225" lon="10.7261624"><ele>403.2857142857143</ele><time>2026-04-04T13:09:07.962Z</time></trkpt><trkpt lat="43.3859007" lon="10.7262573"><ele>405.14285714285717</ele><time>2026-04-04T13:09:08.967Z</time></trkpt><trkpt lat="43.3858535" lon="10.7263448"><ele>407.0</ele><time>2026-04-04T13:09:09.959Z</time></trkpt><trkpt lat="43.3857933" lon="10.7264214"><ele>407.3333333333333</ele><time>2026-04-04T13:09:10.975Z</time></trkpt><trkpt lat="43.3857321" lon="10.726494"><ele>407.66666666666663</ele><time>2026-04-04T13:09:11.966Z</time></trkpt><trkpt lat="43.3856722" lon="10.7265657"><ele>408.0</ele><time>2026-04-04T13:09:12.955Z</time></trkpt><trkpt lat="43.3856409" lon="10.7266812"><ele>408.33333333333337</ele><time>2026-04-04T13:09:13.961Z</time></trkpt><trkpt lat="43.3856221" lon="10.7268077"><ele>408.6666666666667</ele><time>2026-04-04T13:09:14.955Z</time></trkpt><trkpt lat="43.385611" lon="10.7269432"><ele>409.0</ele><time>2026-04-04T13:09:15.968Z</time></trkpt><trkpt lat="43.3856035" lon="10.7270885"><ele>411.0</ele><time>2026-04-04T13:09:16.973Z</time></trkpt><trkpt lat="43.3855927" lon="10.727239"><ele>413.0</ele><time>2026-04-04T13:09:17.956Z</time></trkpt><trkpt lat="43.3855733" lon="10.7274014"><ele>415.0</ele><time>2026-04-04T13:09:18.971Z</time></trkpt><trkpt lat="43.3855363" lon="10.7275663"><ele>417.0</ele><time>2026-04-04T13:09:19.955Z</time></trkpt><trkpt lat="43.3854794" lon="10.7277247"><ele>412.75</ele><time>2026-04-04T13:09:20.957Z</time></trkpt><trkpt lat="43.3854254" lon="10.7278812"><ele>408.5</ele><time>2026-04-04T13:09:21.971Z</time></trkpt><trkpt lat="43.3853899" lon="10.7280484"><ele>404.25</ele><time>2026-04-04T13:09:22.969Z</time></trkpt><trkpt lat="43.3853741" lon="10.7282224"><ele>400.0</ele><time>2026-04-04T13:09:23.967Z</time></trkpt><trkpt lat="43.3853771" lon="10.7283919"><ele>400.0</ele><time>2026-04-04T13:09:24.973Z</time></trkpt><trkpt lat="43.3853955" lon="10.7285541"><ele>400.0</ele><time>2026-04-04T13:09:25.965Z</time></trkpt><trkpt lat="43.3854161" lon="10.7287153"><ele>400.0</ele><time>2026-04-04T13:09:26.962Z</time></trkpt><trkpt lat="43.3854709" lon="10.728857"><ele>400.0</ele><time>2026-04-04T13:09:27.972Z</time></trkpt><trkpt lat="43.3855298" lon="10.7289847"><ele>400.8</ele><time>2026-04-04T13:09:28.973Z</time></trkpt><trkpt lat="43.3855905" lon="10.729119"><ele>401.6</ele><time>2026-04-04T13:09:29.963Z</time></trkpt><trkpt lat="43.3856102" lon="10.7292704"><ele>402.4</ele><time>2026-04-04T13:09:30.974Z</time></trkpt><trkpt lat="43.3855942" lon="10.7294136"><ele>403.2</ele><time>2026-04-04T13:09:31.97Z</time></trkpt><trkpt lat="43.3855472" lon="10.7295372"><ele>404.0</ele><time>2026-04-04T13:09:32.966Z</time></trkpt><trkpt lat="43.3854904" lon="10.7296452"><ele>404.0</ele><time>2026-04-04T13:09:33.967Z</time></trkpt><trkpt lat="43.385438" lon="10.7297476"><ele>404.0</ele><time>2026-04-04T13:09:34.964Z</time></trkpt><trkpt lat="43.3853948" lon="10.7298559"><ele>404.0</ele><time>2026-04-04T13:09:35.97Z</time></trkpt><trkpt lat="43.385387" lon="10.7299841"><ele>404.0</ele><time>2026-04-04T13:09:36.961Z</time></trkpt><trkpt lat="43.3854112" lon="10.7301398"><ele>404.0</ele><time>2026-04-04T13:09:37.968Z</time></trkpt><trkpt lat="43.3854462" lon="10.7303056"><ele>403.75</ele><time>2026-04-04T13:09:38.965Z</time></trkpt><trkpt lat="43.3854814" lon="10.7304871"><ele>403.5</ele><time>2026-04-04T13:09:39.972Z</time></trkpt><trkpt lat="43.3855095" lon="10.7306797"><ele>403.25</ele><time>2026-04-04T13:09:40.956Z</time></trkpt><trkpt lat="43.3855317" lon="10.730874"><ele>403.0</ele><time>2026-04-04T13:09:41.97Z</time></trkpt><trkpt lat="43.3855541" lon="10.7310637"><ele>406.75</ele><time>2026-04-04T13:09:42.977Z</time></trkpt><trkpt lat="43.3856009" lon="10.7312467"><ele>410.5</ele><time>2026-04-04T13:09:43.971Z</time></trkpt><trkpt lat="43.3856689" lon="10.7314236"><ele>414.25</ele><time>2026-04-04T13:09:44.977Z</time></trkpt><trkpt lat="43.385748" lon="10.7316018"><ele>418.0</ele><time>2026-04-04T13:09:45.973Z</time></trkpt><trkpt lat="43.3858213" lon="10.7317898"><ele>418.0</ele><time>2026-04-04T13:09:46.975Z</time></trkpt><trkpt lat="43.385876" lon="10.73199"><ele>418.0</ele><time>2026-04-04T13:09:47.969Z</time></trkpt><trkpt lat="43.3859147" lon="10.7321941"><ele>418.0</ele><time>2026-04-04T13:09:48.971Z</time></trkpt><trkpt lat="43.3859451" lon="10.7323907"><ele>418.0</ele><time>2026-04-04T13:09:49.96Z</time></trkpt><trkpt lat="43.3859704" lon="10.7325758"><ele>418.0</ele><time>2026-04-04T13:09:50.972Z</time></trkpt><trkpt lat="43.3859839" lon="10.732753"><ele>418.0</ele><time>2026-04-04T13:09:51.972Z</time></trkpt><trkpt lat="43.3859976" lon="10.7329266"><ele>418.0</ele><time>2026-04-04T13:09:52.958Z</time></trkpt><trkpt lat="43.3859883" lon="10.7331066"><ele>418.5</ele><time>2026-04-04T13:09:53.953Z</time></trkpt><trkpt lat="43.3859762" lon="10.7332931"><ele>419.0</ele><time>2026-04-04T13:09:54.966Z</time></trkpt><trkpt lat="43.3859844" lon="10.7334851"><ele>419.5</ele><time>2026-04-04T13:09:55.959Z</time></trkpt><trkpt lat="43.3860027" lon="10.7336804"><ele>420.0</ele><time>2026-04-04T13:09:56.968Z</time></trkpt><trkpt lat="43.3860289" lon="10.7338708"><ele>420.75</ele><time>2026-04-04T13:09:57.958Z</time></trkpt><trkpt lat="43.3860436" lon="10.7340495"><ele>421.5</ele><time>2026-04-04T13:09:58.965Z</time></trkpt><trkpt lat="43.3860592" lon="10.7342266"><ele>422.25</ele><time>2026-04-04T13:09:59.965Z</time></trkpt><trkpt lat="43.3860127" lon="10.7343933"><ele>423.0</ele><time>2026-04-04T13:10:00.973Z</time></trkpt><trkpt lat="43.3859477" lon="10.7345506"><ele>426.0</ele><time>2026-04-04T13:10:01.973Z</time></trkpt><trkpt lat="43.3858779" lon="10.7347061"><ele>429.0</ele><time>2026-04-04T13:10:02.959Z</time></trkpt><trkpt lat="43.3858009" lon="10.7348622"><ele>432.0</ele><time>2026-04-04T13:10:03.96Z</time></trkpt><trkpt lat="43.3857106" lon="10.7350122"><ele>435.0</ele><time>2026-04-04T13:10:04.972Z</time></trkpt><trkpt lat="43.3856062" lon="10.7351476"><ele>433.5</ele><time>2026-04-04T13:10:05.969Z</time></trkpt><trkpt lat="43.3854924" lon="10.7352668"><ele>432.0</ele><time>2026-04-04T13:10:06.972Z</time></trkpt><trkpt lat="43.3853762" lon="10.7353741"><ele>430.5</ele><time>2026-04-04T13:10:07.958Z</time></trkpt><trkpt lat="43.3852714" lon="10.7354906"><ele>429.0</ele><time>2026-04-04T13:10:08.972Z</time></trkpt><trkpt lat="43.3851878" lon="10.7356334"><ele>429.0</ele><time>2026-04-04T13:10:09.964Z</time></trkpt><trkpt lat="43.3851166" lon="10.7357945"><ele>429.0</ele><time>2026-04-04T13:10:10.971Z</time></trkpt><trkpt lat="43.385046" lon="10.7359556"><ele>429.0</ele><time>2026-04-04T13:10:11.962Z</time></trkpt><trkpt lat="43.3849841" lon="10.7361332"><ele>429.0</ele><time>2026-04-04T13:10:12.973Z</time></trkpt><trkpt lat="43.3849297" lon="10.7363123"><ele>431.4</ele><time>2026-04-04T13:10:13.961Z</time></trkpt><trkpt lat="43.3848836" lon="10.7364802"><ele>433.79999999999995</ele><time>2026-04-04T13:10:14.968Z</time></trkpt><trkpt lat="43.3848482" lon="10.7366255"><ele>436.20000000000005</ele><time>2026-04-04T13:10:15.971Z</time></trkpt><trkpt lat="43.3848212" lon="10.7367511"><ele>438.6</ele><time>2026-04-04T13:10:16.963Z</time></trkpt><trkpt lat="43.3848067" lon="10.7368701"><ele>441.0</ele><time>2026-04-04T13:10:17.957Z</time></trkpt><trkpt lat="43.3848048" lon="10.7369929"><ele>442.0</ele><time>2026-04-04T13:10:18.969Z</time></trkpt><trkpt lat="43.3848104" lon="10.7371192"><ele>443.0</ele><time>2026-04-04T13:10:19.974Z</time></trkpt><trkpt lat="43.3848106" lon="10.7372479"><ele>444.0</ele><time>2026-04-04T13:10:20.976Z</time></trkpt><trkpt lat="43.3848078" lon="10.737374"><ele>445.0</ele><time>2026-04-04T13:10:21.964Z</time></trkpt><trkpt lat="43.384808" lon="10.7374996"><ele>446.0</ele><time>2026-04-04T13:10:22.975Z</time></trkpt><trkpt lat="43.3848177" lon="10.7376245"><ele>445.0</ele><time>2026-04-04T13:10:23.969Z</time></trkpt><trkpt lat="43.3848342" lon="10.7377505"><ele>444.0</ele><time>2026-04-04T13:10:24.977Z</time></trkpt><trkpt lat="43.3848532" lon="10.7378847"><ele>443.0</ele><time>2026-04-04T13:10:25.97Z</time></trkpt><trkpt lat="43.3848769" lon="10.7380286"><ele>442.0</ele><time>2026-04-04T13:10:26.976Z</time></trkpt><trkpt lat="43.3849076" lon="10.7381762"><ele>441.0</ele><time>2026-04-04T13:10:27.965Z</time></trkpt><trkpt lat="43.3849425" lon="10.7383227"><ele>441.0</ele><time>2026-04-04T13:10:28.969Z</time></trkpt><trkpt lat="43.3849784" lon="10.7384594"><ele>441.0</ele><time>2026-04-04T13:10:29.971Z</time></trkpt><trkpt lat="43.3850115" lon="10.738585"><ele>441.0</ele><time>2026-04-04T13:10:30.973Z</time></trkpt><trkpt lat="43.385042" lon="10.7386772"><ele>441.0</ele><time>2026-04-04T13:10:31.967Z</time></trkpt><trkpt lat="43.385125" lon="10.7387597"><ele>441.0</ele><time>2026-04-04T13:10:33.958Z</time></trkpt><trkpt lat="43.3852411" lon="10.738781"><ele>441.8</ele><time>2026-04-04T13:10:35.961Z</time></trkpt><trkpt lat="43.3853611" lon="10.7387402"><ele>442.6</ele><time>2026-04-04T13:10:37.959Z</time></trkpt><trkpt lat="43.3854293" lon="10.7386952"><ele>443.4</ele><time>2026-04-04T13:10:38.974Z</time></trkpt><trkpt lat="43.3855039" lon="10.7386258"><ele>444.2</ele><time>2026-04-04T13:10:39.975Z</time></trkpt><trkpt lat="43.3855803" lon="10.7385325"><ele>445.0</ele><time>2026-04-04T13:10:40.957Z</time></trkpt><trkpt lat="43.3856578" lon="10.7384372"><ele>445.00000000000006</ele><time>2026-04-04T13:10:41.969Z</time></trkpt><trkpt lat="43.3857305" lon="10.7383437"><ele>445.0</ele><time>2026-04-04T13:10:42.958Z</time></trkpt><trkpt lat="43.3858048" lon="10.7382596"><ele>445.0</ele><time>2026-04-04T13:10:43.97Z</time></trkpt><trkpt lat="43.3858714" lon="10.7381833"><ele>445.0</ele><time>2026-04-04T13:10:44.971Z</time></trkpt><trkpt lat="43.3859371" lon="10.7381338"><ele>445.00000000000006</ele><time>2026-04-04T13:10:45.965Z</time></trkpt><trkpt lat="43.3860033" lon="10.7381005"><ele>445.0</ele><time>2026-04-04T13:10:46.965Z</time></trkpt><trkpt lat="43.3861272" lon="10.738038"><ele>445.0</ele><time>2026-04-04T13:10:48.972Z</time></trkpt><trkpt lat="43.3862045" lon="10.7379955"><ele>445.0</ele><time>2026-04-04T13:10:49.954Z</time></trkpt><trkpt lat="43.3862905" lon="10.7379447"><ele>445.0</ele><time>2026-04-04T13:10:50.965Z</time></trkpt><trkpt lat="43.3863831" lon="10.7378814"><ele>445.0</ele><time>2026-04-04T13:10:51.973Z</time></trkpt><trkpt lat="43.3864769" lon="10.737813"><ele>445.0</ele><time>2026-04-04T13:10:52.965Z</time></trkpt><trkpt lat="43.3865693" lon="10.7377397"><ele>446.6</ele><time>2026-04-04T13:10:53.966Z</time></trkpt><trkpt lat="43.3866617" lon="10.7376669"><ele>448.2</ele><time>2026-04-04T13:10:54.964Z</time></trkpt><trkpt lat="43.3867559" lon="10.7376037"><ele>449.79999999999995</ele><time>2026-04-04T13:10:55.973Z</time></trkpt><trkpt lat="43.3868477" lon="10.7375448"><ele>451.4</ele><time>2026-04-04T13:10:56.964Z</time></trkpt><trkpt lat="43.3869456" lon="10.7374972"><ele>453.0</ele><time>2026-04-04T13:10:57.974Z</time></trkpt><trkpt lat="43.3870533" lon="10.7374449"><ele>453.0</ele><time>2026-04-04T13:10:58.971Z</time></trkpt><trkpt lat="43.3871677" lon="10.7373902"><ele>453.0</ele><time>2026-04-04T13:10:59.967Z</time></trkpt><trkpt lat="43.3872833" lon="10.7373383"><ele>453.0</ele><time>2026-04-04T13:11:00.963Z</time></trkpt><trkpt lat="43.3873942" lon="10.7372934"><ele>453.0</ele><time>2026-04-04T13:11:01.956Z</time></trkpt><trkpt lat="43.3874963" lon="10.7372658"><ele>451.0</ele><time>2026-04-04T13:11:02.957Z</time></trkpt><trkpt lat="43.3875924" lon="10.7372687"><ele>448.99999999999994</ele><time>2026-04-04T13:11:03.972Z</time></trkpt><trkpt lat="43.3876893" lon="10.7372724"><ele>446.99999999999994</ele><time>2026-04-04T13:11:04.955Z</time></trkpt><trkpt lat="43.3877739" lon="10.7373351"><ele>445.0</ele><time>2026-04-04T13:11:05.952Z</time></trkpt><trkpt lat="43.3878528" lon="10.737422"><ele>443.0</ele><time>2026-04-04T13:11:06.965Z</time></trkpt><trkpt lat="43.38794" lon="10.737524"><ele>444.25</ele><time>2026-04-04T13:11:07.955Z</time></trkpt><trkpt lat="43.3880303" lon="10.7376268"><ele>445.5</ele><time>2026-04-04T13:11:08.98Z</time></trkpt><trkpt lat="43.388124" lon="10.7377329"><ele>446.75</ele><time>2026-04-04T13:11:09.961Z</time></trkpt><trkpt lat="43.38822" lon="10.7378373"><ele>448.0</ele><time>2026-04-04T13:11:10.961Z</time></trkpt><trkpt lat="43.3883123" lon="10.7379376"><ele>445.83333333333337</ele><time>2026-04-04T13:11:11.981Z</time></trkpt><trkpt lat="43.3883954" lon="10.7380327"><ele>443.6666666666667</ele><time>2026-04-04T13:11:12.959Z</time></trkpt><trkpt lat="43.3884681" lon="10.7381193"><ele>441.5</ele><time>2026-04-04T13:11:13.965Z</time></trkpt><trkpt lat="43.3885261" lon="10.7381851"><ele>439.33333333333337</ele><time>2026-04-04T13:11:14.978Z</time></trkpt><trkpt lat="43.3885915" lon="10.7382497"><ele>437.1666666666667</ele><time>2026-04-04T13:11:16.974Z</time></trkpt><trkpt lat="43.3886514" lon="10.7382776"><ele>435.0</ele><time>2026-04-04T13:11:19.973Z</time></trkpt><trkpt lat="43.3887253" lon="10.7382658"><ele>435.0</ele><time>2026-04-04T13:12:00.971Z</time></trkpt><trkpt lat="43.3888407" lon="10.7382822"><ele>435.0</ele><time>2026-04-04T13:12:02.971Z</time></trkpt><trkpt lat="43.3889091" lon="10.7382983"><ele>435.0</ele><time>2026-04-04T13:12:03.976Z</time></trkpt><trkpt lat="43.3889815" lon="10.7383217"><ele>435.0</ele><time>2026-04-04T13:12:04.962Z</time></trkpt><trkpt lat="43.3890522" lon="10.7383495"><ele>435.0</ele><time>2026-04-04T13:12:05.972Z</time></trkpt><trkpt lat="43.3891252" lon="10.738378"><ele>435.0</ele><time>2026-04-04T13:12:06.973Z</time></trkpt><trkpt lat="43.3892082" lon="10.7383995"><ele>437.1666666666667</ele><time>2026-04-04T13:12:07.959Z</time></trkpt><trkpt lat="43.3892982" lon="10.7384144"><ele>439.33333333333337</ele><time>2026-04-04T13:12:08.973Z</time></trkpt><trkpt lat="43.3893891" lon="10.738415"><ele>441.5</ele><time>2026-04-04T13:12:09.958Z</time></trkpt><trkpt lat="43.3894787" lon="10.7384018"><ele>443.6666666666667</ele><time>2026-04-04T13:12:10.958Z</time></trkpt><trkpt lat="43.389565" lon="10.7383833"><ele>445.83333333333337</ele><time>2026-04-04T13:12:11.954Z</time></trkpt><trkpt lat="43.3896453" lon="10.7383604"><ele>448.0</ele><time>2026-04-04T13:12:12.96Z</time></trkpt><trkpt lat="43.3897241" lon="10.7383313"><ele>448.7142857142857</ele><time>2026-04-04T13:12:13.977Z</time></trkpt><trkpt lat="43.389799" lon="10.738302"><ele>449.42857142857144</ele><time>2026-04-04T13:12:14.971Z</time></trkpt><trkpt lat="43.3898681" lon="10.7382737"><ele>450.1428571428571</ele><time>2026-04-04T13:12:15.963Z</time></trkpt><trkpt lat="43.3899333" lon="10.7382544"><ele>450.85714285714283</ele><time>2026-04-04T13:12:16.954Z</time></trkpt><trkpt lat="43.3899986" lon="10.7382353"><ele>451.57142857142856</ele><time>2026-04-04T13:12:17.963Z</time></trkpt><trkpt lat="43.3900644" lon="10.7382166"><ele>452.2857142857142</ele><time>2026-04-04T13:12:18.962Z</time></trkpt><trkpt lat="43.3901303" lon="10.7382007"><ele>452.99999999999994</ele><time>2026-04-04T13:12:19.97Z</time></trkpt><trkpt lat="43.3902292" lon="10.7382018"><ele>453.0</ele><time>2026-04-04T13:12:21.971Z</time></trkpt><trkpt lat="43.3902838" lon="10.7382723"><ele>452.99999999999994</ele><time>2026-04-04T13:12:26.96Z</time></trkpt><trkpt lat="43.3903329" lon="10.7383673"><ele>452.99999999999994</ele><time>2026-04-04T13:12:28.954Z</time></trkpt><trkpt lat="43.3904205" lon="10.7384838"><ele>453.0</ele><time>2026-04-04T13:12:30.973Z</time></trkpt><trkpt lat="43.3904823" lon="10.7385057"><ele>453.0</ele><time>2026-04-04T13:12:31.969Z</time></trkpt><trkpt lat="43.3906022" lon="10.7385361"><ele>452.79999999999995</ele><time>2026-04-04T13:12:33.957Z</time></trkpt><trkpt lat="43.3906988" lon="10.738668"><ele>452.59999999999997</ele><time>2026-04-04T13:12:35.952Z</time></trkpt><trkpt lat="43.3907401" lon="10.7387779"><ele>452.40000000000003</ele><time>2026-04-04T13:12:36.954Z</time></trkpt><trkpt lat="43.390777" lon="10.7388983"><ele>452.20000000000005</ele><time>2026-04-04T13:12:37.961Z</time></trkpt><trkpt lat="43.3908151" lon="10.7390183"><ele>452.0</ele><time>2026-04-04T13:12:38.965Z</time></trkpt><trkpt lat="43.3908567" lon="10.7391439"><ele>452.0</ele><time>2026-04-04T13:12:39.966Z</time></trkpt><trkpt lat="43.3908974" lon="10.7392764"><ele>452.00000000000006</ele><time>2026-04-04T13:12:40.957Z</time></trkpt><trkpt lat="43.3909406" lon="10.739418"><ele>452.00000000000006</ele><time>2026-04-04T13:12:41.958Z</time></trkpt><trkpt lat="43.3909833" lon="10.7395627"><ele>452.0</ele><time>2026-04-04T13:12:42.978Z</time></trkpt><trkpt lat="43.3910275" lon="10.7397075"><ele>452.0</ele><time>2026-04-04T13:12:43.972Z</time></trkpt><trkpt lat="43.3910681" lon="10.7398514"><ele>451.6</ele><time>2026-04-04T13:12:44.959Z</time></trkpt><trkpt lat="43.3911088" lon="10.7399926"><ele>451.20000000000005</ele><time>2026-04-04T13:12:45.967Z</time></trkpt><trkpt lat="43.3911483" lon="10.7401321"><ele>450.8</ele><time>2026-04-04T13:12:46.955Z</time></trkpt><trkpt lat="43.3911877" lon="10.740267"><ele>450.4</ele><time>2026-04-04T13:12:47.96Z</time></trkpt><trkpt lat="43.3912272" lon="10.7403903"><ele>450.0</ele><time>2026-04-04T13:12:48.961Z</time></trkpt><trkpt lat="43.3912668" lon="10.7405023"><ele>449.6666666666667</ele><time>2026-04-04T13:12:49.957Z</time></trkpt><trkpt lat="43.3913102" lon="10.740602"><ele>449.33333333333337</ele><time>2026-04-04T13:12:50.973Z</time></trkpt><trkpt lat="43.3913554" lon="10.7406858"><ele>449.0</ele><time>2026-04-04T13:12:51.956Z</time></trkpt><trkpt lat="43.391398" lon="10.7407502"><ele>448.6666666666667</ele><time>2026-04-04T13:12:52.954Z</time></trkpt><trkpt lat="43.3914635" lon="10.7408199"><ele>448.33333333333337</ele><time>2026-04-04T13:12:54.975Z</time></trkpt><trkpt lat="43.3915198" lon="10.7407385"><ele>448.0</ele><time>2026-04-04T13:12:57.976Z</time></trkpt><trkpt lat="43.3914726" lon="10.7405998"><ele>448.33333333333337</ele><time>2026-04-04T13:12:59.964Z</time></trkpt><trkpt lat="43.3914202" lon="10.7404406"><ele>448.6666666666667</ele><time>2026-04-04T13:13:01.971Z</time></trkpt><trkpt lat="43.3913906" lon="10.7403571"><ele>449.0</ele><time>2026-04-04T13:13:02.97Z</time></trkpt><trkpt lat="43.3913539" lon="10.7402571"><ele>449.33333333333337</ele><time>2026-04-04T13:13:03.964Z</time></trkpt><trkpt lat="43.3913202" lon="10.7401529"><ele>449.6666666666667</ele><time>2026-04-04T13:13:04.953Z</time></trkpt><trkpt lat="43.3912867" lon="10.7400395"><ele>450.0</ele><time>2026-04-04T13:13:05.955Z</time></trkpt><trkpt lat="43.391257" lon="10.7399301"><ele>450.0</ele><time>2026-04-04T13:13:06.967Z</time></trkpt><trkpt lat="43.3912259" lon="10.7398287"><ele>450.0</ele><time>2026-04-04T13:13:07.973Z</time></trkpt><trkpt lat="43.3912027" lon="10.739747"><ele>450.0</ele><time>2026-04-04T13:13:08.968Z</time></trkpt><trkpt lat="43.391196" lon="10.7396333"><ele>450.0</ele><time>2026-04-04T13:13:10.968Z</time></trkpt><trkpt lat="43.3913" lon="10.7395833"><ele>450.0</ele><time>2026-04-04T13:13:12.973Z</time></trkpt><trkpt lat="43.3913686" lon="10.7395652"><ele>450.0</ele><time>2026-04-04T13:13:13.962Z</time></trkpt><trkpt lat="43.391431" lon="10.7395263"><ele>452.0</ele><time>2026-04-04T13:13:14.972Z</time></trkpt><trkpt lat="43.3914645" lon="10.7394492"><ele>454.0</ele><time>2026-04-04T13:13:15.956Z</time></trkpt><trkpt lat="43.3915088" lon="10.7393598"><ele>456.0</ele><time>2026-04-04T13:13:16.967Z</time></trkpt><trkpt lat="43.3915386" lon="10.7392647"><ele>458.0</ele><time>2026-04-04T13:13:17.955Z</time></trkpt><trkpt lat="43.3915597" lon="10.7391623"><ele>460.0</ele><time>2026-04-04T13:13:18.971Z</time></trkpt><trkpt lat="43.3915784" lon="10.7390595"><ele>462.0</ele><time>2026-04-04T13:13:19.953Z</time></trkpt><trkpt lat="43.3915965" lon="10.7389474"><ele>462.40000000000003</ele><time>2026-04-04T13:13:20.96Z</time></trkpt><trkpt lat="43.3916197" lon="10.7388226"><ele>462.80000000000007</ele><time>2026-04-04T13:13:21.954Z</time></trkpt><trkpt lat="43.3916396" lon="10.7386998"><ele>463.2</ele><time>2026-04-04T13:13:22.972Z</time></trkpt><trkpt lat="43.3916542" lon="10.7385776"><ele>463.6</ele><time>2026-04-04T13:13:23.953Z</time></trkpt><trkpt lat="43.3916574" lon="10.7384542"><ele>464.0</ele><time>2026-04-04T13:13:24.97Z</time></trkpt><trkpt lat="43.3916466" lon="10.7383302"><ele>464.79999999999995</ele><time>2026-04-04T13:13:25.972Z</time></trkpt><trkpt lat="43.391628" lon="10.738202"><ele>465.59999999999997</ele><time>2026-04-04T13:13:26.959Z</time></trkpt><trkpt lat="43.3916149" lon="10.7380694"><ele>466.4</ele><time>2026-04-04T13:13:27.979Z</time></trkpt><trkpt lat="43.3916012" lon="10.7379437"><ele>467.2</ele><time>2026-04-04T13:13:28.961Z</time></trkpt><trkpt lat="43.3915979" lon="10.7378119"><ele>468.0</ele><time>2026-04-04T13:13:29.96Z</time></trkpt><trkpt lat="43.391613" lon="10.7376824"><ele>469.79999999999995</ele><time>2026-04-04T13:13:30.956Z</time></trkpt><trkpt lat="43.391639" lon="10.7375338"><ele>471.59999999999997</ele><time>2026-04-04T13:13:31.973Z</time></trkpt><trkpt lat="43.3916749" lon="10.7373915"><ele>473.40000000000003</ele><time>2026-04-04T13:13:32.954Z</time></trkpt><trkpt lat="43.3917109" lon="10.7372539"><ele>475.20000000000005</ele><time>2026-04-04T13:13:33.97Z</time></trkpt><trkpt lat="43.3917434" lon="10.737117"><ele>477.0</ele><time>2026-04-04T13:13:34.974Z</time></trkpt><trkpt lat="43.3917615" lon="10.7369693"><ele>478.8</ele><time>2026-04-04T13:13:35.963Z</time></trkpt><trkpt lat="43.3917792" lon="10.73682"><ele>480.6</ele><time>2026-04-04T13:13:36.969Z</time></trkpt><trkpt lat="43.39177" lon="10.7366784"><ele>482.40000000000003</ele><time>2026-04-04T13:13:37.961Z</time></trkpt><trkpt lat="43.3917611" lon="10.7365461"><ele>484.20000000000005</ele><time>2026-04-04T13:13:38.965Z</time></trkpt><trkpt lat="43.3917191" lon="10.7364457"><ele>486.0</ele><time>2026-04-04T13:13:39.954Z</time></trkpt><trkpt lat="43.3916565" lon="10.7363734"><ele>486.0</ele><time>2026-04-04T13:13:40.959Z</time></trkpt><trkpt lat="43.3915834" lon="10.7363294"><ele>486.0</ele><time>2026-04-04T13:13:41.968Z</time></trkpt><trkpt lat="43.3915029" lon="10.7363056"><ele>486.0</ele><time>2026-04-04T13:13:42.948Z</time></trkpt><trkpt lat="43.3914194" lon="10.7362922"><ele>486.0</ele><time>2026-04-04T13:13:43.952Z</time></trkpt><trkpt lat="43.3913361" lon="10.7362764"><ele>486.0</ele><time>2026-04-04T13:13:44.952Z</time></trkpt><trkpt lat="43.3912503" lon="10.736259"><ele>486.0</ele><time>2026-04-04T13:13:45.963Z</time></trkpt><trkpt lat="43.3911631" lon="10.7362565"><ele>485.0</ele><time>2026-04-04T13:13:46.95Z</time></trkpt><trkpt lat="43.391072" lon="10.7362591"><ele>484.0</ele><time>2026-04-04T13:13:47.956Z</time></trkpt><trkpt lat="43.3909812" lon="10.7362393"><ele>483.0</ele><time>2026-04-04T13:13:48.972Z</time></trkpt><trkpt lat="43.3908953" lon="10.7361869"><ele>482.0</ele><time>2026-04-04T13:13:49.97Z</time></trkpt><trkpt lat="43.390822" lon="10.7361284"><ele>481.0</ele><time>2026-04-04T13:13:50.971Z</time></trkpt><trkpt lat="43.3907498" lon="10.7361002"><ele>480.0</ele><time>2026-04-04T13:13:51.968Z</time></trkpt><trkpt lat="43.3906766" lon="10.7360774"><ele>480.0</ele><time>2026-04-04T13:13:52.972Z</time></trkpt><trkpt lat="43.3906061" lon="10.7361422"><ele>480.0</ele><time>2026-04-04T13:13:53.96Z</time></trkpt><trkpt lat="43.3905323" lon="10.7362092"><ele>480.0</ele><time>2026-04-04T13:13:54.953Z</time></trkpt><trkpt lat="43.390445" lon="10.7362404"><ele>480.0</ele><time>2026-04-04T13:13:55.963Z</time></trkpt><trkpt lat="43.3903517" lon="10.7362249"><ele>480.0</ele><time>2026-04-04T13:13:56.965Z</time></trkpt><trkpt lat="43.3902592" lon="10.736169"><ele>479.8</ele><time>2026-04-04T13:13:57.959Z</time></trkpt><trkpt lat="43.3901733" lon="10.7360856"><ele>479.6</ele><time>2026-04-04T13:13:58.952Z</time></trkpt><trkpt lat="43.3900936" lon="10.7359858"><ele>479.4</ele><time>2026-04-04T13:13:59.971Z</time></trkpt><trkpt lat="43.3900204" lon="10.7358754"><ele>479.2</ele><time>2026-04-04T13:14:00.959Z</time></trkpt><trkpt lat="43.3899485" lon="10.7357669"><ele>479.0</ele><time>2026-04-04T13:14:01.971Z</time></trkpt><trkpt lat="43.3898985" lon="10.7356396"><ele>480.85714285714283</ele><time>2026-04-04T13:14:02.956Z</time></trkpt><trkpt lat="43.3898642" lon="10.7355246"><ele>482.7142857142858</ele><time>2026-04-04T13:14:03.966Z</time></trkpt><trkpt lat="43.3898402" lon="10.7354292"><ele>484.5714285714286</ele><time>2026-04-04T13:14:04.973Z</time></trkpt><trkpt lat="43.3898255" lon="10.7353434"><ele>486.42857142857144</ele><time>2026-04-04T13:14:05.959Z</time></trkpt><trkpt lat="43.3898224" lon="10.7352568"><ele>488.28571428571433</ele><time>2026-04-04T13:14:06.977Z</time></trkpt><trkpt lat="43.3898403" lon="10.7351713"><ele>490.1428571428572</ele><time>2026-04-04T13:14:07.97Z</time></trkpt><trkpt lat="43.389877" lon="10.7350905"><ele>492.00000000000006</ele><time>2026-04-04T13:14:08.974Z</time></trkpt><trkpt lat="43.3899247" lon="10.7350111"><ele>493.0</ele><time>2026-04-04T13:14:09.962Z</time></trkpt><trkpt lat="43.3899757" lon="10.7349286"><ele>494.0</ele><time>2026-04-04T13:14:10.971Z</time></trkpt><trkpt lat="43.3900322" lon="10.7348427"><ele>495.0</ele><time>2026-04-04T13:14:11.957Z</time></trkpt><trkpt lat="43.3900932" lon="10.7347606"><ele>496.0</ele><time>2026-04-04T13:14:12.968Z</time></trkpt><trkpt lat="43.3901576" lon="10.734675"><ele>497.0</ele><time>2026-04-04T13:14:13.956Z</time></trkpt><trkpt lat="43.3902273" lon="10.7345852"><ele>498.0</ele><time>2026-04-04T13:14:14.962Z</time></trkpt><trkpt lat="43.390296" lon="10.7344916"><ele>498.0</ele><time>2026-04-04T13:14:15.961Z</time></trkpt><trkpt lat="43.3903655" lon="10.7343906"><ele>497.99999999999994</ele><time>2026-04-04T13:14:16.969Z</time></trkpt><trkpt lat="43.3904364" lon="10.7342873"><ele>497.99999999999994</ele><time>2026-04-04T13:14:17.969Z</time></trkpt><trkpt lat="43.3905077" lon="10.7341801"><ele>498.0</ele><time>2026-04-04T13:14:18.952Z</time></trkpt><trkpt lat="43.3905769" lon="10.7340647"><ele>498.0</ele><time>2026-04-04T13:14:19.959Z</time></trkpt><trkpt lat="43.3906426" lon="10.7339416"><ele>500.4</ele><time>2026-04-04T13:14:20.956Z</time></trkpt><trkpt lat="43.3907086" lon="10.7338186"><ele>502.79999999999995</ele><time>2026-04-04T13:14:21.953Z</time></trkpt><trkpt lat="43.3907769" lon="10.7336987"><ele>505.2</ele><time>2026-04-04T13:14:22.954Z</time></trkpt><trkpt lat="43.3908489" lon="10.7335828"><ele>507.6</ele><time>2026-04-04T13:14:23.957Z</time></trkpt><trkpt lat="43.3909242" lon="10.7334684"><ele>510.0</ele><time>2026-04-04T13:14:24.974Z</time></trkpt><trkpt lat="43.3910051" lon="10.7333524"><ele>510.0</ele><time>2026-04-04T13:14:25.969Z</time></trkpt><trkpt lat="43.3910832" lon="10.7332397"><ele>510.0</ele><time>2026-04-04T13:14:26.964Z</time></trkpt><trkpt lat="43.3911608" lon="10.7331316"><ele>510.0</ele><time>2026-04-04T13:14:27.975Z</time></trkpt><trkpt lat="43.391238" lon="10.7330239"><ele>510.0</ele><time>2026-04-04T13:14:28.956Z</time></trkpt><trkpt lat="43.3913124" lon="10.7329199"><ele>510.0</ele><time>2026-04-04T13:14:29.972Z</time></trkpt><trkpt lat="43.3913798" lon="10.7328183"><ele>514.5</ele><time>2026-04-04T13:14:30.971Z</time></trkpt><trkpt lat="43.3914336" lon="10.732689"><ele>519.0</ele><time>2026-04-04T13:14:31.964Z</time></trkpt><trkpt lat="43.3914838" lon="10.7325465"><ele>523.5</ele><time>2026-04-04T13:14:32.97Z</time></trkpt><trkpt lat="43.3915329" lon="10.732394"><ele>528.0</ele><time>2026-04-04T13:14:33.957Z</time></trkpt><trkpt lat="43.3915825" lon="10.7322349"><ele>528.0</ele><time>2026-04-04T13:14:34.973Z</time></trkpt><trkpt lat="43.3916272" lon="10.7320729"><ele>528.0</ele><time>2026-04-04T13:14:35.953Z</time></trkpt><trkpt lat="43.3916691" lon="10.7319085"><ele>528.0</ele><time>2026-04-04T13:14:36.971Z</time></trkpt><trkpt lat="43.3917061" lon="10.7317431"><ele>528.0</ele><time>2026-04-04T13:14:37.967Z</time></trkpt><trkpt lat="43.3917401" lon="10.7315802"><ele>528.5</ele><time>2026-04-04T13:14:38.956Z</time></trkpt><trkpt lat="43.3917727" lon="10.7314213"><ele>529.0</ele><time>2026-04-04T13:14:39.958Z</time></trkpt><trkpt lat="43.3918047" lon="10.7312584"><ele>529.5</ele><time>2026-04-04T13:14:40.97Z</time></trkpt><trkpt lat="43.3918398" lon="10.7310875"><ele>530.0</ele><time>2026-04-04T13:14:41.968Z</time></trkpt><trkpt lat="43.3918754" lon="10.7309148"><ele>531.0</ele><time>2026-04-04T13:14:42.962Z</time></trkpt><trkpt lat="43.3919097" lon="10.7307475"><ele>532.0</ele><time>2026-04-04T13:14:43.958Z</time></trkpt><trkpt lat="43.3919408" lon="10.7305859"><ele>533.0</ele><time>2026-04-04T13:14:44.952Z</time></trkpt><trkpt lat="43.3919689" lon="10.7304297"><ele>534.0</ele><time>2026-04-04T13:14:45.967Z</time></trkpt><trkpt lat="43.3919963" lon="10.7302729"><ele>534.25</ele><time>2026-04-04T13:14:46.97Z</time></trkpt><trkpt lat="43.3920243" lon="10.7301044"><ele>534.5</ele><time>2026-04-04T13:14:47.969Z</time></trkpt><trkpt lat="43.3920522" lon="10.7299223"><ele>534.75</ele><time>2026-04-04T13:14:48.953Z</time></trkpt><trkpt lat="43.3920739" lon="10.7297326"><ele>535.0</ele><time>2026-04-04T13:14:49.954Z</time></trkpt><trkpt lat="43.3920875" lon="10.7295399"><ele>534.25</ele><time>2026-04-04T13:14:50.973Z</time></trkpt><trkpt lat="43.3920951" lon="10.7293556"><ele>533.5</ele><time>2026-04-04T13:14:51.963Z</time></trkpt><trkpt lat="43.3921005" lon="10.7291832"><ele>532.75</ele><time>2026-04-04T13:14:52.968Z</time></trkpt><trkpt lat="43.3921042" lon="10.7290212"><ele>532.0</ele><time>2026-04-04T13:14:53.97Z</time></trkpt><trkpt lat="43.3921048" lon="10.7288678"><ele>532.0</ele><time>2026-04-04T13:14:54.967Z</time></trkpt><trkpt lat="43.3921051" lon="10.7287299"><ele>532.0</ele><time>2026-04-04T13:14:55.966Z</time></trkpt><trkpt lat="43.3921097" lon="10.7286027"><ele>532.0</ele><time>2026-04-04T13:14:56.962Z</time></trkpt><trkpt lat="43.3921252" lon="10.7284773"><ele>532.0</ele><time>2026-04-04T13:14:57.961Z</time></trkpt><trkpt lat="43.3921583" lon="10.7283473"><ele>532.0</ele><time>2026-04-04T13:14:58.97Z</time></trkpt><trkpt lat="43.3922094" lon="10.7282171"><ele>532.0</ele><time>2026-04-04T13:14:59.974Z</time></trkpt><trkpt lat="43.3922697" lon="10.7280804"><ele>532.0</ele><time>2026-04-04T13:15:00.972Z</time></trkpt><trkpt lat="43.3923251" lon="10.7279403"><ele>532.0</ele><time>2026-04-04T13:15:01.977Z</time></trkpt><trkpt lat="43.3923686" lon="10.7277939"><ele>532.0</ele><time>2026-04-04T13:15:02.975Z</time></trkpt><trkpt lat="43.3924031" lon="10.727639"><ele>530.25</ele><time>2026-04-04T13:15:03.962Z</time></trkpt><trkpt lat="43.3924308" lon="10.727484"><ele>528.5</ele><time>2026-04-04T13:15:04.977Z</time></trkpt><trkpt lat="43.3924546" lon="10.7273296"><ele>526.75</ele><time>2026-04-04T13:15:05.972Z</time></trkpt><trkpt lat="43.3924836" lon="10.7271746"><ele>525.0</ele><time>2026-04-04T13:15:06.981Z</time></trkpt><trkpt lat="43.3925232" lon="10.7270258"><ele>522.75</ele><time>2026-04-04T13:15:07.968Z</time></trkpt><trkpt lat="43.3925751" lon="10.7268762"><ele>520.5</ele><time>2026-04-04T13:15:08.97Z</time></trkpt><trkpt lat="43.3926314" lon="10.7267255"><ele>518.25</ele><time>2026-04-04T13:15:09.967Z</time></trkpt><trkpt lat="43.3926836" lon="10.7265801"><ele>516.0</ele><time>2026-04-04T13:15:10.972Z</time></trkpt><trkpt lat="43.3927335" lon="10.7264401"><ele>516.0</ele><time>2026-04-04T13:15:11.974Z</time></trkpt><trkpt lat="43.3927879" lon="10.726304"><ele>516.0</ele><time>2026-04-04T13:15:12.961Z</time></trkpt><trkpt lat="43.3928479" lon="10.7261749"><ele>516.0</ele><time>2026-04-04T13:15:13.973Z</time></trkpt><trkpt lat="43.3929089" lon="10.7260513"><ele>516.0</ele><time>2026-04-04T13:15:14.964Z</time></trkpt><trkpt lat="43.3929642" lon="10.7259281"><ele>516.0</ele><time>2026-04-04T13:15:15.972Z</time></trkpt><trkpt lat="43.3930082" lon="10.7258086"><ele>515.2</ele><time>2026-04-04T13:15:16.978Z</time></trkpt><trkpt lat="43.3930365" lon="10.7256925"><ele>514.4000000000001</ele><time>2026-04-04T13:15:17.974Z</time></trkpt><trkpt lat="43.3930469" lon="10.7255715"><ele>513.6</ele><time>2026-04-04T13:15:18.974Z</time></trkpt><trkpt lat="43.3930382" lon="10.7254402"><ele>512.8000000000001</ele><time>2026-04-04T13:15:19.957Z</time></trkpt><trkpt lat="43.3930087" lon="10.725294"><ele>512.0</ele><time>2026-04-04T13:15:20.965Z</time></trkpt><trkpt lat="43.392963" lon="10.7251329"><ele>510.5</ele><time>2026-04-04T13:15:21.971Z</time></trkpt><trkpt lat="43.3929075" lon="10.7249601"><ele>509.0</ele><time>2026-04-04T13:15:22.962Z</time></trkpt><trkpt lat="43.3928437" lon="10.7247871"><ele>507.5</ele><time>2026-04-04T13:15:23.961Z</time></trkpt><trkpt lat="43.3927721" lon="10.7246173"><ele>506.0</ele><time>2026-04-04T13:15:24.975Z</time></trkpt><trkpt lat="43.3927017" lon="10.7244549"><ele>507.25</ele><time>2026-04-04T13:15:25.973Z</time></trkpt><trkpt lat="43.3926225" lon="10.7243042"><ele>508.5</ele><time>2026-04-04T13:15:26.981Z</time></trkpt><trkpt lat="43.3925444" lon="10.7241583"><ele>509.75</ele><time>2026-04-04T13:15:27.962Z</time></trkpt><trkpt lat="43.3924683" lon="10.7240162"><ele>511.0</ele><time>2026-04-04T13:15:28.952Z</time></trkpt><trkpt lat="43.3923963" lon="10.7238769"><ele>511.0</ele><time>2026-04-04T13:15:29.973Z</time></trkpt><trkpt lat="43.3923375" lon="10.723726"><ele>511.0</ele><time>2026-04-04T13:15:30.973Z</time></trkpt><trkpt lat="43.3922759" lon="10.7235664"><ele>511.0</ele><time>2026-04-04T13:15:31.965Z</time></trkpt><trkpt lat="43.3922143" lon="10.7234059"><ele>511.0</ele><time>2026-04-04T13:15:32.977Z</time></trkpt><trkpt lat="43.3921551" lon="10.7232502"><ele>512.75</ele><time>2026-04-04T13:15:33.969Z</time></trkpt><trkpt lat="43.3921028" lon="10.7230936"><ele>514.5</ele><time>2026-04-04T13:15:34.973Z</time></trkpt><trkpt lat="43.3920511" lon="10.7229406"><ele>516.25</ele><time>2026-04-04T13:15:35.957Z</time></trkpt><trkpt lat="43.3920156" lon="10.7227716"><ele>518.0</ele><time>2026-04-04T13:15:36.968Z</time></trkpt><trkpt lat="43.391985" lon="10.722597"><ele>519.5</ele><time>2026-04-04T13:15:37.953Z</time></trkpt><trkpt lat="43.3919559" lon="10.7224237"><ele>521.0</ele><time>2026-04-04T13:15:38.962Z</time></trkpt><trkpt lat="43.3919285" lon="10.7222454"><ele>522.5</ele><time>2026-04-04T13:15:39.953Z</time></trkpt><trkpt lat="43.3919024" lon="10.7220739"><ele>524.0</ele><time>2026-04-04T13:15:40.971Z</time></trkpt><trkpt lat="43.3918791" lon="10.7219052"><ele>525.0</ele><time>2026-04-04T13:15:41.971Z</time></trkpt><trkpt lat="43.3918615" lon="10.7217382"><ele>526.0</ele><time>2026-04-04T13:15:42.974Z</time></trkpt><trkpt lat="43.3918543" lon="10.7215791"><ele>527.0</ele><time>2026-04-04T13:15:43.973Z</time></trkpt><trkpt lat="43.3918628" lon="10.7214311"><ele>528.0</ele><time>2026-04-04T13:15:44.965Z</time></trkpt><trkpt lat="43.3918857" lon="10.7212849"><ele>528.0</ele><time>2026-04-04T13:15:45.98Z</time></trkpt><trkpt lat="43.3919246" lon="10.721135"><ele>528.0</ele><time>2026-04-04T13:15:46.96Z</time></trkpt><trkpt lat="43.3919745" lon="10.7209794"><ele>528.0</ele><time>2026-04-04T13:15:47.965Z</time></trkpt><trkpt lat="43.3920261" lon="10.7208174"><ele>528.0</ele><time>2026-04-04T13:15:48.974Z</time></trkpt><trkpt lat="43.392075" lon="10.7206539"><ele>528.25</ele><time>2026-04-04T13:15:49.968Z</time></trkpt><trkpt lat="43.3921253" lon="10.7204907"><ele>528.5</ele><time>2026-04-04T13:15:50.967Z</time></trkpt><trkpt lat="43.3921781" lon="10.7203283"><ele>528.75</ele><time>2026-04-04T13:15:51.957Z</time></trkpt><trkpt lat="43.3922392" lon="10.7201652"><ele>529.0</ele><time>2026-04-04T13:15:52.954Z</time></trkpt><trkpt lat="43.3923076" lon="10.7200108"><ele>532.75</ele><time>2026-04-04T13:15:53.958Z</time></trkpt><trkpt lat="43.3923869" lon="10.7198646"><ele>536.5</ele><time>2026-04-04T13:15:54.974Z</time></trkpt><trkpt lat="43.3924712" lon="10.7197232"><ele>540.25</ele><time>2026-04-04T13:15:55.977Z</time></trkpt><trkpt lat="43.3925557" lon="10.7195797"><ele>544.0</ele><time>2026-04-04T13:15:56.988Z</time></trkpt><trkpt lat="43.3926396" lon="10.7194346"><ele>545.75</ele><time>2026-04-04T13:15:57.958Z</time></trkpt><trkpt lat="43.3927223" lon="10.7192886"><ele>547.5</ele><time>2026-04-04T13:15:58.972Z</time></trkpt><trkpt lat="43.3928038" lon="10.7191438"><ele>549.25</ele><time>2026-04-04T13:15:59.964Z</time></trkpt><trkpt lat="43.392878" lon="10.7189765"><ele>551.0</ele><time>2026-04-04T13:16:00.962Z</time></trkpt><trkpt lat="43.3929473" lon="10.7187981"><ele>551.5</ele><time>2026-04-04T13:16:01.965Z</time></trkpt><trkpt lat="43.3930137" lon="10.7186178"><ele>552.0</ele><time>2026-04-04T13:16:02.968Z</time></trkpt><trkpt lat="43.3930785" lon="10.7184396"><ele>552.5</ele><time>2026-04-04T13:16:03.967Z</time></trkpt><trkpt lat="43.3931399" lon="10.7182632"><ele>553.0</ele><time>2026-04-04T13:16:04.975Z</time></trkpt><trkpt lat="43.3931975" lon="10.7180885"><ele>553.0</ele><time>2026-04-04T13:16:05.962Z</time></trkpt><trkpt lat="43.3932508" lon="10.7179132"><ele>553.0</ele><time>2026-04-04T13:16:06.958Z</time></trkpt><trkpt lat="43.3933007" lon="10.7177382"><ele>553.0</ele><time>2026-04-04T13:16:07.97Z</time></trkpt><trkpt lat="43.3933434" lon="10.7175608"><ele>553.0</ele><time>2026-04-04T13:16:08.957Z</time></trkpt><trkpt lat="43.3933779" lon="10.7173765"><ele>554.25</ele><time>2026-04-04T13:16:09.973Z</time></trkpt><trkpt lat="43.3934068" lon="10.7171863"><ele>555.5</ele><time>2026-04-04T13:16:10.957Z</time></trkpt><trkpt lat="43.3934318" lon="10.7169921"><ele>556.75</ele><time>2026-04-04T13:16:11.973Z</time></trkpt><trkpt lat="43.3934555" lon="10.7167997"><ele>558.0</ele><time>2026-04-04T13:16:12.954Z</time></trkpt><trkpt lat="43.3934711" lon="10.7166046"><ele>558.25</ele><time>2026-04-04T13:16:13.969Z</time></trkpt><trkpt lat="43.3934905" lon="10.7164156"><ele>558.5</ele><time>2026-04-04T13:16:14.963Z</time></trkpt><trkpt lat="43.3935237" lon="10.7162407"><ele>558.75</ele><time>2026-04-04T13:16:15.964Z</time></trkpt><trkpt lat="43.3935773" lon="10.7160773"><ele>559.0</ele><time>2026-04-04T13:16:16.958Z</time></trkpt><trkpt lat="43.393649" lon="10.7159228"><ele>558.5</ele><time>2026-04-04T13:16:17.962Z</time></trkpt><trkpt lat="43.3937382" lon="10.7157843"><ele>558.0</ele><time>2026-04-04T13:16:18.958Z</time></trkpt><trkpt lat="43.3938425" lon="10.7156597"><ele>557.5</ele><time>2026-04-04T13:16:19.967Z</time></trkpt><trkpt lat="43.3939538" lon="10.7155387"><ele>557.0</ele><time>2026-04-04T13:16:20.975Z</time></trkpt><trkpt lat="43.3940615" lon="10.7154164"><ele>555.75</ele><time>2026-04-04T13:16:21.974Z</time></trkpt><trkpt lat="43.3941633" lon="10.7152916"><ele>554.5</ele><time>2026-04-04T13:16:22.976Z</time></trkpt><trkpt lat="43.394253" lon="10.7151615"><ele>553.25</ele><time>2026-04-04T13:16:23.973Z</time></trkpt><trkpt lat="43.3943272" lon="10.7150182"><ele>552.0</ele><time>2026-04-04T13:16:24.972Z</time></trkpt><trkpt lat="43.3943855" lon="10.7148607"><ele>551.75</ele><time>2026-04-04T13:16:25.973Z</time></trkpt><trkpt lat="43.3944349" lon="10.7146956"><ele>551.5</ele><time>2026-04-04T13:16:26.968Z</time></trkpt><trkpt lat="43.394481" lon="10.7145321"><ele>551.25</ele><time>2026-04-04T13:16:27.976Z</time></trkpt><trkpt lat="43.3945234" lon="10.7143775"><ele>551.0</ele><time>2026-04-04T13:16:28.978Z</time></trkpt><trkpt lat="43.3945588" lon="10.7142401"><ele>551.0</ele><time>2026-04-04T13:16:29.956Z</time></trkpt><trkpt lat="43.3945877" lon="10.7141245"><ele>551.0</ele><time>2026-04-04T13:16:30.972Z</time></trkpt><trkpt lat="43.3946133" lon="10.7140289"><ele>551.0</ele><time>2026-04-04T13:16:31.971Z</time></trkpt><trkpt lat="43.3946362" lon="10.7139451"><ele>551.0</ele><time>2026-04-04T13:16:32.963Z</time></trkpt><trkpt lat="43.3947366" lon="10.7138951"><ele>551.0</ele><time>2026-04-04T13:16:34.971Z</time></trkpt><trkpt lat="43.3948001" lon="10.7138894"><ele>551.0</ele><time>2026-04-04T13:16:35.967Z</time></trkpt><trkpt lat="43.3948726" lon="10.7139242"><ele>551.5</ele><time>2026-04-04T13:16:36.954Z</time></trkpt><trkpt lat="43.3949491" lon="10.7139595"><ele>552.0</ele><time>2026-04-04T13:16:37.961Z</time></trkpt><trkpt lat="43.3950244" lon="10.7139919"><ele>552.5</ele><time>2026-04-04T13:16:38.966Z</time></trkpt><trkpt lat="43.3950893" lon="10.7140169"><ele>553.0</ele><time>2026-04-04T13:16:39.973Z</time></trkpt><trkpt lat="43.3951713" lon="10.714034"><ele>553.5</ele><time>2026-04-04T13:16:41.959Z</time></trkpt><trkpt lat="43.3952347" lon="10.7140854"><ele>554.0</ele><time>2026-04-04T13:23:34.96Z</time></trkpt><trkpt lat="43.3953054" lon="10.7141168"><ele>554.0</ele><time>2026-04-04T13:23:36.975Z</time></trkpt><trkpt lat="43.3954189" lon="10.7141625"><ele>554.0</ele><time>2026-04-04T13:23:38.965Z</time></trkpt><trkpt lat="43.3954983" lon="10.714195"><ele>554.0</ele><time>2026-04-04T13:23:39.986Z</time></trkpt><trkpt lat="43.3955801" lon="10.7142287"><ele>554.0</ele><time>2026-04-04T13:23:40.978Z</time></trkpt><trkpt lat="43.3956733" lon="10.7142673"><ele>554.0</ele><time>2026-04-04T13:23:41.972Z</time></trkpt><trkpt lat="43.3957675" lon="10.7143073"><ele>554.6</ele><time>2026-04-04T13:23:42.968Z</time></trkpt><trkpt lat="43.3958665" lon="10.7143537"><ele>555.2</ele><time>2026-04-04T13:23:43.983Z</time></trkpt><trkpt lat="43.3959652" lon="10.7144048"><ele>555.8000000000001</ele><time>2026-04-04T13:23:44.968Z</time></trkpt><trkpt lat="43.3960585" lon="10.7144599"><ele>556.4</ele><time>2026-04-04T13:23:45.969Z</time></trkpt><trkpt lat="43.396151" lon="10.7145207"><ele>557.0</ele><time>2026-04-04T13:23:46.97Z</time></trkpt><trkpt lat="43.3962357" lon="10.7145827"><ele>556.4</ele><time>2026-04-04T13:23:47.963Z</time></trkpt><trkpt lat="43.3963129" lon="10.7146496"><ele>555.8000000000001</ele><time>2026-04-04T13:23:48.981Z</time></trkpt><trkpt lat="43.396386" lon="10.7147132"><ele>555.2</ele><time>2026-04-04T13:23:49.978Z</time></trkpt><trkpt lat="43.3964498" lon="10.7147966"><ele>554.6</ele><time>2026-04-04T13:23:50.963Z</time></trkpt><trkpt lat="43.3965166" lon="10.7148785"><ele>554.0</ele><time>2026-04-04T13:23:51.974Z</time></trkpt><trkpt lat="43.3965938" lon="10.7149598"><ele>554.0</ele><time>2026-04-04T13:23:52.969Z</time></trkpt><trkpt lat="43.3966748" lon="10.7150364"><ele>554.0</ele><time>2026-04-04T13:23:53.967Z</time></trkpt><trkpt lat="43.39675" lon="10.7151081"><ele>554.0</ele><time>2026-04-04T13:23:54.96Z</time></trkpt><trkpt lat="43.3968203" lon="10.7151661"><ele>554.0</ele><time>2026-04-04T13:23:55.975Z</time></trkpt><trkpt lat="43.3968835" lon="10.7152202"><ele>554.0</ele><time>2026-04-04T13:23:56.955Z</time></trkpt><trkpt lat="43.3969642" lon="10.7152323"><ele>554.0</ele><time>2026-04-04T13:23:57.979Z</time></trkpt><trkpt lat="43.3970534" lon="10.7152175"><ele>554.0</ele><time>2026-04-04T13:23:58.959Z</time></trkpt><trkpt lat="43.3971463" lon="10.7151805"><ele>554.0</ele><time>2026-04-04T13:23:59.978Z</time></trkpt><trkpt lat="43.3972423" lon="10.7151318"><ele>554.0</ele><time>2026-04-04T13:24:00.971Z</time></trkpt><trkpt lat="43.3973396" lon="10.7150802"><ele>554.0</ele><time>2026-04-04T13:24:01.963Z</time></trkpt><trkpt lat="43.3974404" lon="10.7150269"><ele>554.0</ele><time>2026-04-04T13:24:02.964Z</time></trkpt><trkpt lat="43.3975456" lon="10.7149767"><ele>554.0</ele><time>2026-04-04T13:24:03.965Z</time></trkpt><trkpt lat="43.3976447" lon="10.7149278"><ele>554.0</ele><time>2026-04-04T13:24:04.973Z</time></trkpt><trkpt lat="43.3977382" lon="10.7149086"><ele>554.0</ele><time>2026-04-04T13:24:05.957Z</time></trkpt><trkpt lat="43.3978286" lon="10.7148819"><ele>554.0</ele><time>2026-04-04T13:24:06.977Z</time></trkpt><trkpt lat="43.3979174" lon="10.7148541"><ele>554.0</ele><time>2026-04-04T13:24:07.977Z</time></trkpt><trkpt lat="43.398001" lon="10.7147935"><ele>551.8</ele><time>2026-04-04T13:24:08.959Z</time></trkpt><trkpt lat="43.3980825" lon="10.714735"><ele>549.5999999999999</ele><time>2026-04-04T13:24:09.978Z</time></trkpt><trkpt lat="43.3981632" lon="10.7146664"><ele>547.4</ele><time>2026-04-04T13:24:10.956Z</time></trkpt><trkpt lat="43.3982407" lon="10.7146057"><ele>545.1999999999999</ele><time>2026-04-04T13:24:11.958Z</time></trkpt><trkpt lat="43.3983204" lon="10.7145553"><ele>543.0</ele><time>2026-04-04T13:24:12.972Z</time></trkpt><trkpt lat="43.3983921" lon="10.7144718"><ele>543.0</ele><time>2026-04-04T13:24:13.957Z</time></trkpt><trkpt lat="43.3984701" lon="10.7144171"><ele>543.0</ele><time>2026-04-04T13:24:14.961Z</time></trkpt><trkpt lat="43.3985349" lon="10.7143277"><ele>543.0</ele><time>2026-04-04T13:24:15.954Z</time></trkpt><trkpt lat="43.3985932" lon="10.7142206"><ele>543.0</ele><time>2026-04-04T13:24:16.965Z</time></trkpt><trkpt lat="43.39864" lon="10.7140986"><ele>543.0</ele><time>2026-04-04T13:24:17.976Z</time></trkpt><trkpt lat="43.3986899" lon="10.7139764"><ele>542.0</ele><time>2026-04-04T13:24:18.956Z</time></trkpt><trkpt lat="43.3987423" lon="10.7138647"><ele>541.0</ele><time>2026-04-04T13:24:19.964Z</time></trkpt><trkpt lat="43.3988072" lon="10.7137699"><ele>540.0</ele><time>2026-04-04T13:24:20.953Z</time></trkpt><trkpt lat="43.3988749" lon="10.7136809"><ele>539.0</ele><time>2026-04-04T13:24:21.956Z</time></trkpt><trkpt lat="43.3989419" lon="10.7136053"><ele>538.0</ele><time>2026-04-04T13:24:22.969Z</time></trkpt><trkpt lat="43.3990113" lon="10.7135317"><ele>539.6666666666667</ele><time>2026-04-04T13:24:23.964Z</time></trkpt><trkpt lat="43.3990829" lon="10.7134634"><ele>541.3333333333334</ele><time>2026-04-04T13:24:24.954Z</time></trkpt><trkpt lat="43.3991597" lon="10.7134038"><ele>543.0</ele><time>2026-04-04T13:24:25.963Z</time></trkpt><trkpt lat="43.3992305" lon="10.7133349"><ele>544.6666666666666</ele><time>2026-04-04T13:24:26.955Z</time></trkpt><trkpt lat="43.3992891" lon="10.7132419"><ele>546.3333333333333</ele><time>2026-04-04T13:24:27.958Z</time></trkpt><trkpt lat="43.3993507" lon="10.713144"><ele>548.0</ele><time>2026-04-04T13:24:28.966Z</time></trkpt><trkpt lat="43.3994081" lon="10.7130328"><ele>548.0</ele><time>2026-04-04T13:24:29.965Z</time></trkpt><trkpt lat="43.3994731" lon="10.712943"><ele>548.0</ele><time>2026-04-04T13:24:30.97Z</time></trkpt><trkpt lat="43.3995447" lon="10.7128838"><ele>548.0</ele><time>2026-04-04T13:24:31.968Z</time></trkpt><trkpt lat="43.3996233" lon="10.7128477"><ele>548.0</ele><time>2026-04-04T13:24:32.968Z</time></trkpt><trkpt lat="43.3997112" lon="10.7128184"><ele>548.0</ele><time>2026-04-04T13:24:33.964Z</time></trkpt><trkpt lat="43.3998073" lon="10.7127826"><ele>548.0</ele><time>2026-04-04T13:24:34.967Z</time></trkpt><trkpt lat="43.3999119" lon="10.7127424"><ele>546.75</ele><time>2026-04-04T13:24:35.974Z</time></trkpt><trkpt lat="43.4000205" lon="10.7126932"><ele>545.5</ele><time>2026-04-04T13:24:36.975Z</time></trkpt><trkpt lat="43.4001328" lon="10.7126355"><ele>544.25</ele><time>2026-04-04T13:24:37.97Z</time></trkpt><trkpt lat="43.4002499" lon="10.7125857"><ele>543.0</ele><time>2026-04-04T13:24:38.971Z</time></trkpt><trkpt lat="43.4003626" lon="10.7125368"><ele>543.0</ele><time>2026-04-04T13:24:39.953Z</time></trkpt><trkpt lat="43.4004781" lon="10.7124833"><ele>543.0</ele><time>2026-04-04T13:24:40.961Z</time></trkpt><trkpt lat="43.4005938" lon="10.7124319"><ele>543.0</ele><time>2026-04-04T13:24:41.97Z</time></trkpt><trkpt lat="43.4007026" lon="10.7123825"><ele>543.0</ele><time>2026-04-04T13:24:42.979Z</time></trkpt><trkpt lat="43.4007992" lon="10.7123416"><ele>543.0</ele><time>2026-04-04T13:24:43.978Z</time></trkpt><trkpt lat="43.4008889" lon="10.7123093"><ele>543.0</ele><time>2026-04-04T13:24:44.967Z</time></trkpt><trkpt lat="43.4009763" lon="10.7122761"><ele>543.0</ele><time>2026-04-04T13:24:45.97Z</time></trkpt><trkpt lat="43.401055" lon="10.7122398"><ele>543.0</ele><time>2026-04-04T13:24:46.967Z</time></trkpt><trkpt lat="43.4011359" lon="10.7122084"><ele>543.0</ele><time>2026-04-04T13:24:47.967Z</time></trkpt><trkpt lat="43.4012255" lon="10.7121781"><ele>543.0</ele><time>2026-04-04T13:24:48.971Z</time></trkpt><trkpt lat="43.401323" lon="10.7121818"><ele>543.0</ele><time>2026-04-04T13:24:49.957Z</time></trkpt><trkpt lat="43.4014361" lon="10.7121928"><ele>543.0</ele><time>2026-04-04T13:24:50.971Z</time></trkpt><trkpt lat="43.4015557" lon="10.7122104"><ele>543.0</ele><time>2026-04-04T13:24:51.978Z</time></trkpt><trkpt lat="43.4016726" lon="10.7122256"><ele>543.0</ele><time>2026-04-04T13:24:52.971Z</time></trkpt><trkpt lat="43.4017783" lon="10.7122389"><ele>543.0</ele><time>2026-04-04T13:24:53.959Z</time></trkpt><trkpt lat="43.4018781" lon="10.712251"><ele>543.0</ele><time>2026-04-04T13:24:54.973Z</time></trkpt><trkpt lat="43.4019667" lon="10.7122609"><ele>543.0</ele><time>2026-04-04T13:24:55.966Z</time></trkpt><trkpt lat="43.4020589" lon="10.7122684"><ele>543.0</ele><time>2026-04-04T13:24:56.956Z</time></trkpt><trkpt lat="43.4021573" lon="10.7122768"><ele>543.0</ele><time>2026-04-04T13:24:57.966Z</time></trkpt><trkpt lat="43.4022554" lon="10.712292"><ele>542.8</ele><time>2026-04-04T13:24:58.967Z</time></trkpt><trkpt lat="43.4023468" lon="10.712352"><ele>542.5999999999999</ele><time>2026-04-04T13:24:59.971Z</time></trkpt><trkpt lat="43.4024359" lon="10.7124155"><ele>542.4000000000001</ele><time>2026-04-04T13:25:00.957Z</time></trkpt><trkpt lat="43.4025222" lon="10.7124934"><ele>542.2</ele><time>2026-04-04T13:25:01.968Z</time></trkpt><trkpt lat="43.4025927" lon="10.7125794"><ele>542.0</ele><time>2026-04-04T13:25:02.953Z</time></trkpt><trkpt lat="43.4026485" lon="10.712685"><ele>538.8000000000001</ele><time>2026-04-04T13:25:03.97Z</time></trkpt><trkpt lat="43.4027034" lon="10.7127918"><ele>535.6</ele><time>2026-04-04T13:25:04.973Z</time></trkpt><trkpt lat="43.4027445" lon="10.7129074"><ele>532.4000000000001</ele><time>2026-04-04T13:25:05.971Z</time></trkpt><trkpt lat="43.4027749" lon="10.7130415"><ele>529.2</ele><time>2026-04-04T13:25:06.972Z</time></trkpt><trkpt lat="43.4028033" lon="10.7131795"><ele>526.0</ele><time>2026-04-04T13:25:07.958Z</time></trkpt><trkpt lat="43.4028338" lon="10.7133156"><ele>526.0</ele><time>2026-04-04T13:25:08.965Z</time></trkpt><trkpt lat="43.4028722" lon="10.7134452"><ele>526.0</ele><time>2026-04-04T13:25:09.974Z</time></trkpt><trkpt lat="43.4029191" lon="10.7135683"><ele>526.0</ele><time>2026-04-04T13:25:10.957Z</time></trkpt><trkpt lat="43.4029714" lon="10.7136902"><ele>526.0</ele><time>2026-04-04T13:25:11.971Z</time></trkpt><trkpt lat="43.4030238" lon="10.713812"><ele>526.0</ele><time>2026-04-04T13:25:12.966Z</time></trkpt><trkpt lat="43.4030745" lon="10.7139445"><ele>526.2</ele><time>2026-04-04T13:25:13.967Z</time></trkpt><trkpt lat="43.4031198" lon="10.7140854"><ele>526.4000000000001</ele><time>2026-04-04T13:25:14.959Z</time></trkpt><trkpt lat="43.4031603" lon="10.7142298"><ele>526.6</ele><time>2026-04-04T13:25:15.959Z</time></trkpt><trkpt lat="43.4031956" lon="10.7143766"><ele>526.8000000000001</ele><time>2026-04-04T13:25:16.97Z</time></trkpt><trkpt lat="43.4032212" lon="10.7145212"><ele>527.0</ele><time>2026-04-04T13:25:17.956Z</time></trkpt><trkpt lat="43.4032319" lon="10.7146598"><ele>525.6666666666666</ele><time>2026-04-04T13:25:18.971Z</time></trkpt><trkpt lat="43.4032331" lon="10.7147951"><ele>524.3333333333333</ele><time>2026-04-04T13:25:19.968Z</time></trkpt><trkpt lat="43.403228" lon="10.7149236"><ele>523.0</ele><time>2026-04-04T13:25:20.961Z</time></trkpt><trkpt lat="43.4032189" lon="10.7150425"><ele>521.6666666666666</ele><time>2026-04-04T13:25:21.957Z</time></trkpt><trkpt lat="43.4032112" lon="10.7151499"><ele>520.3333333333334</ele><time>2026-04-04T13:25:22.966Z</time></trkpt><trkpt lat="43.4032065" lon="10.715256"><ele>519.0</ele><time>2026-04-04T13:25:23.967Z</time></trkpt><trkpt lat="43.4032008" lon="10.7153614"><ele>517.0</ele><time>2026-04-04T13:25:24.968Z</time></trkpt><trkpt lat="43.403213" lon="10.7154758"><ele>515.0</ele><time>2026-04-04T13:25:25.966Z</time></trkpt><trkpt lat="43.4032388" lon="10.7155945"><ele>513.0</ele><time>2026-04-04T13:25:26.969Z</time></trkpt><trkpt lat="43.4032737" lon="10.715708"><ele>511.0</ele><time>2026-04-04T13:25:27.977Z</time></trkpt><trkpt lat="43.4033086" lon="10.7158176"><ele>509.0</ele><time>2026-04-04T13:25:28.959Z</time></trkpt><trkpt lat="43.4033391" lon="10.715928"><ele>507.0</ele><time>2026-04-04T13:25:29.977Z</time></trkpt><trkpt lat="43.4033656" lon="10.7160423"><ele>504.5</ele><time>2026-04-04T13:25:30.971Z</time></trkpt><trkpt lat="43.4033869" lon="10.7161552"><ele>502.0</ele><time>2026-04-04T13:25:31.974Z</time></trkpt><trkpt lat="43.40341" lon="10.7162663"><ele>499.5</ele><time>2026-04-04T13:25:32.973Z</time></trkpt><trkpt lat="43.4034386" lon="10.7163749"><ele>497.0</ele><time>2026-04-04T13:25:33.972Z</time></trkpt><trkpt lat="43.4034625" lon="10.7164835"><ele>494.5</ele><time>2026-04-04T13:25:34.972Z</time></trkpt><trkpt lat="43.4034972" lon="10.7165925"><ele>492.0</ele><time>2026-04-04T13:25:35.972Z</time></trkpt><trkpt lat="43.4035425" lon="10.7166955"><ele>492.0</ele><time>2026-04-04T13:25:36.956Z</time></trkpt><trkpt lat="43.4035863" lon="10.7167927"><ele>492.0</ele><time>2026-04-04T13:25:37.975Z</time></trkpt><trkpt lat="43.4036317" lon="10.716896"><ele>492.0</ele><time>2026-04-04T13:25:38.972Z</time></trkpt><trkpt lat="43.403677" lon="10.7169962"><ele>492.0</ele><time>2026-04-04T13:25:39.967Z</time></trkpt><trkpt lat="43.403719" lon="10.7170849"><ele>492.0</ele><time>2026-04-04T13:25:40.966Z</time></trkpt><trkpt lat="43.4037594" lon="10.7171554"><ele>492.0</ele><time>2026-04-04T13:25:41.971Z</time></trkpt><trkpt lat="43.403833" lon="10.7172529"><ele>492.5</ele><time>2026-04-04T13:25:43.971Z</time></trkpt><trkpt lat="43.4039047" lon="10.7173065"><ele>493.0</ele><time>2026-04-04T13:25:45.975Z</time></trkpt><trkpt lat="43.4039941" lon="10.7172727"><ele>493.5</ele><time>2026-04-04T13:25:47.957Z</time></trkpt><trkpt lat="43.4040377" lon="10.7171481"><ele>494.0</ele><time>2026-04-04T13:25:49.967Z</time></trkpt><trkpt lat="43.4040411" lon="10.717058"><ele>494.5</ele><time>2026-04-04T13:25:50.963Z</time></trkpt><trkpt lat="43.4040391" lon="10.7169583"><ele>495.0</ele><time>2026-04-04T13:25:51.961Z</time></trkpt><trkpt lat="43.4040449" lon="10.7168603"><ele>495.0</ele><time>2026-04-04T13:25:52.951Z</time></trkpt><trkpt lat="43.4040654" lon="10.7167779"><ele>495.0</ele><time>2026-04-04T13:25:53.969Z</time></trkpt><trkpt lat="43.4041013" lon="10.716698"><ele>495.0</ele><time>2026-04-04T13:25:54.961Z</time></trkpt><trkpt lat="43.4041531" lon="10.7166255"><ele>495.0</ele><time>2026-04-04T13:25:55.955Z</time></trkpt><trkpt lat="43.4042069" lon="10.7165508"><ele>495.0</ele><time>2026-04-04T13:25:56.962Z</time></trkpt><trkpt lat="43.4042819" lon="10.7165004"><ele>495.0</ele><time>2026-04-04T13:25:57.964Z</time></trkpt><trkpt lat="43.4043665" lon="10.7164594"><ele>495.0</ele><time>2026-04-04T13:25:58.97Z</time></trkpt><trkpt lat="43.4044548" lon="10.7164148"><ele>495.0</ele><time>2026-04-04T13:25:59.972Z</time></trkpt><trkpt lat="43.404546" lon="10.7163639"><ele>495.0</ele><time>2026-04-04T13:26:00.964Z</time></trkpt><trkpt lat="43.4046416" lon="10.7163101"><ele>495.0</ele><time>2026-04-04T13:26:01.959Z</time></trkpt><trkpt lat="43.404741" lon="10.7162575"><ele>495.0</ele><time>2026-04-04T13:26:02.96Z</time></trkpt><trkpt lat="43.4048381" lon="10.7162142"><ele>496.5</ele><time>2026-04-04T13:26:03.955Z</time></trkpt><trkpt lat="43.404926" lon="10.7161754"><ele>498.0</ele><time>2026-04-04T13:26:04.971Z</time></trkpt><trkpt lat="43.4050155" lon="10.7161379"><ele>499.5</ele><time>2026-04-04T13:26:05.958Z</time></trkpt><trkpt lat="43.4050966" lon="10.7161092"><ele>501.0</ele><time>2026-04-04T13:26:06.971Z</time></trkpt><trkpt lat="43.405164" lon="10.7160785"><ele>502.5</ele><time>2026-04-04T13:26:07.97Z</time></trkpt><trkpt lat="43.4052228" lon="10.7160352"><ele>504.0</ele><time>2026-04-04T13:26:08.97Z</time></trkpt><trkpt lat="43.4052863" lon="10.7158809"><ele>504.0</ele><time>2026-04-04T13:26:10.97Z</time></trkpt><trkpt lat="43.4053107" lon="10.715784"><ele>504.0</ele><time>2026-04-04T13:26:11.96Z</time></trkpt><trkpt lat="43.4053282" lon="10.715664"><ele>504.0</ele><time>2026-04-04T13:26:12.955Z</time></trkpt><trkpt lat="43.4053406" lon="10.7155461"><ele>504.0</ele><time>2026-04-04T13:26:13.97Z</time></trkpt><trkpt lat="43.4053544" lon="10.7154419"><ele>504.0</ele><time>2026-04-04T13:26:14.969Z</time></trkpt><trkpt lat="43.4053685" lon="10.7153335"><ele>504.0</ele><time>2026-04-04T13:26:15.97Z</time></trkpt><trkpt lat="43.4053819" lon="10.7152335"><ele>506.3333333333333</ele><time>2026-04-04T13:26:16.97Z</time></trkpt><trkpt lat="43.4053957" lon="10.7151323"><ele>508.66666666666663</ele><time>2026-04-04T13:26:17.971Z</time></trkpt><trkpt lat="43.4054094" lon="10.7150299"><ele>511.0</ele><time>2026-04-04T13:26:18.969Z</time></trkpt><trkpt lat="43.4054206" lon="10.7149237"><ele>513.3333333333333</ele><time>2026-04-04T13:26:19.968Z</time></trkpt><trkpt lat="43.4054243" lon="10.7148149"><ele>515.6666666666666</ele><time>2026-04-04T13:26:20.959Z</time></trkpt><trkpt lat="43.4054271" lon="10.7147032"><ele>518.0</ele><time>2026-04-04T13:26:21.97Z</time></trkpt><trkpt lat="43.405431" lon="10.7145851"><ele>518.0</ele><time>2026-04-04T13:26:22.959Z</time></trkpt><trkpt lat="43.4054403" lon="10.7144663"><ele>518.0</ele><time>2026-04-04T13:26:23.959Z</time></trkpt><trkpt lat="43.4054549" lon="10.7143525"><ele>518.0</ele><time>2026-04-04T13:26:24.962Z</time></trkpt><trkpt lat="43.4054802" lon="10.714251"><ele>518.0</ele><time>2026-04-04T13:26:25.955Z</time></trkpt><trkpt lat="43.4055042" lon="10.7141585"><ele>518.0</ele><time>2026-04-04T13:26:26.971Z</time></trkpt><trkpt lat="43.4055291" lon="10.7140759"><ele>518.0</ele><time>2026-04-04T13:26:27.957Z</time></trkpt><trkpt lat="43.405581" lon="10.7139409"><ele>515.4</ele><time>2026-04-04T13:26:29.96Z</time></trkpt><trkpt lat="43.4056436" lon="10.7137789"><ele>512.8</ele><time>2026-04-04T13:26:31.955Z</time></trkpt><trkpt lat="43.4056878" lon="10.7136642"><ele>510.2</ele><time>2026-04-04T13:26:32.958Z</time></trkpt><trkpt lat="43.4057346" lon="10.7135379"><ele>507.6</ele><time>2026-04-04T13:26:33.958Z</time></trkpt><trkpt lat="43.4057784" lon="10.7134212"><ele>505.0</ele><time>2026-04-04T13:26:34.959Z</time></trkpt><trkpt lat="43.405817" lon="10.7133184"><ele>505.00000000000006</ele><time>2026-04-04T13:26:35.95Z</time></trkpt><trkpt lat="43.405851" lon="10.7132197"><ele>505.0</ele><time>2026-04-04T13:26:36.959Z</time></trkpt><trkpt lat="43.4058927" lon="10.7131179"><ele>505.0</ele><time>2026-04-04T13:26:37.955Z</time></trkpt><trkpt lat="43.4059358" lon="10.713022"><ele>505.0</ele><time>2026-04-04T13:26:38.974Z</time></trkpt><trkpt lat="43.405978" lon="10.7129331"><ele>505.00000000000006</ele><time>2026-04-04T13:26:39.952Z</time></trkpt><trkpt lat="43.4060228" lon="10.7128476"><ele>505.0</ele><time>2026-04-04T13:26:40.963Z</time></trkpt><trkpt lat="43.4060771" lon="10.7127835"><ele>503.6666666666667</ele><time>2026-04-04T13:26:41.973Z</time></trkpt><trkpt lat="43.4061304" lon="10.7127145"><ele>502.33333333333337</ele><time>2026-04-04T13:26:42.954Z</time></trkpt><trkpt lat="43.4061855" lon="10.7126273"><ele>501.0</ele><time>2026-04-04T13:26:43.959Z</time></trkpt><trkpt lat="43.4062321" lon="10.7125133"><ele>499.66666666666663</ele><time>2026-04-04T13:26:44.962Z</time></trkpt><trkpt lat="43.4062757" lon="10.7123942"><ele>498.3333333333333</ele><time>2026-04-04T13:26:45.965Z</time></trkpt><trkpt lat="43.4063106" lon="10.7122893"><ele>497.0</ele><time>2026-04-04T13:26:46.957Z</time></trkpt><trkpt lat="43.4063416" lon="10.712189"><ele>496.99999999999994</ele><time>2026-04-04T13:26:47.966Z</time></trkpt><trkpt lat="43.406381" lon="10.7121079"><ele>497.0</ele><time>2026-04-04T13:26:48.957Z</time></trkpt><trkpt lat="43.4064317" lon="10.7120333"><ele>497.0</ele><time>2026-04-04T13:26:49.965Z</time></trkpt><trkpt lat="43.4064942" lon="10.7119652"><ele>497.0</ele><time>2026-04-04T13:26:50.954Z</time></trkpt><trkpt lat="43.4065622" lon="10.7119012"><ele>496.99999999999994</ele><time>2026-04-04T13:26:51.962Z</time></trkpt><trkpt lat="43.4066232" lon="10.7118449"><ele>497.0</ele><time>2026-04-04T13:26:52.97Z</time></trkpt><trkpt lat="43.4066842" lon="10.7117907"><ele>498.8333333333333</ele><time>2026-04-04T13:26:53.97Z</time></trkpt><trkpt lat="43.4067505" lon="10.7117414"><ele>500.66666666666663</ele><time>2026-04-04T13:26:54.967Z</time></trkpt><trkpt lat="43.4068159" lon="10.7116919"><ele>502.5</ele><time>2026-04-04T13:26:55.97Z</time></trkpt><trkpt lat="43.4068923" lon="10.7116337"><ele>504.33333333333337</ele><time>2026-04-04T13:26:56.96Z</time></trkpt><trkpt lat="43.4069683" lon="10.7115702"><ele>506.1666666666667</ele><time>2026-04-04T13:26:57.974Z</time></trkpt><trkpt lat="43.4070345" lon="10.7115143"><ele>508.0</ele><time>2026-04-04T13:26:58.955Z</time></trkpt><trkpt lat="43.4070955" lon="10.7114769"><ele>505.0</ele><time>2026-04-04T13:26:59.955Z</time></trkpt><trkpt lat="43.4072268" lon="10.7114398"><ele>501.99999999999994</ele><time>2026-04-04T13:27:01.961Z</time></trkpt><trkpt lat="43.4073064" lon="10.7114458"><ele>498.99999999999994</ele><time>2026-04-04T13:27:02.972Z</time></trkpt><trkpt lat="43.4073921" lon="10.7114432"><ele>496.0</ele><time>2026-04-04T13:27:03.974Z</time></trkpt><trkpt lat="43.4074798" lon="10.7114457"><ele>493.0</ele><time>2026-04-04T13:27:04.967Z</time></trkpt><trkpt lat="43.4075671" lon="10.7114132"><ele>493.0</ele><time>2026-04-04T13:27:05.967Z</time></trkpt><trkpt lat="43.4076566" lon="10.7113606"><ele>492.99999999999994</ele><time>2026-04-04T13:27:06.96Z</time></trkpt><trkpt lat="43.4077507" lon="10.7113089"><ele>492.99999999999994</ele><time>2026-04-04T13:27:07.967Z</time></trkpt><trkpt lat="43.4078425" lon="10.7112566"><ele>493.0</ele><time>2026-04-04T13:27:08.971Z</time></trkpt><trkpt lat="43.4079318" lon="10.7112154"><ele>493.0</ele><time>2026-04-04T13:27:09.95Z</time></trkpt><trkpt lat="43.4080122" lon="10.7111858"><ele>493.6666666666667</ele><time>2026-04-04T13:27:10.963Z</time></trkpt><trkpt lat="43.4080875" lon="10.7111506"><ele>494.33333333333337</ele><time>2026-04-04T13:27:11.963Z</time></trkpt><trkpt lat="43.4081651" lon="10.7111154"><ele>495.0</ele><time>2026-04-04T13:27:12.966Z</time></trkpt><trkpt lat="43.4082397" lon="10.711078"><ele>495.66666666666663</ele><time>2026-04-04T13:27:13.957Z</time></trkpt><trkpt lat="43.4083173" lon="10.7110377"><ele>496.3333333333333</ele><time>2026-04-04T13:27:14.968Z</time></trkpt><trkpt lat="43.4083878" lon="10.7109921"><ele>497.0</ele><time>2026-04-04T13:27:15.957Z</time></trkpt><trkpt lat="43.4084566" lon="10.7109473"><ele>496.99999999999994</ele><time>2026-04-04T13:27:16.956Z</time></trkpt><trkpt lat="43.4085288" lon="10.7109093"><ele>497.0</ele><time>2026-04-04T13:27:17.956Z</time></trkpt><trkpt lat="43.4086133" lon="10.7108935"><ele>497.0</ele><time>2026-04-04T13:27:18.966Z</time></trkpt><trkpt lat="43.4086939" lon="10.7108751"><ele>497.0</ele><time>2026-04-04T13:27:19.966Z</time></trkpt><trkpt lat="43.4087581" lon="10.7108441"><ele>496.99999999999994</ele><time>2026-04-04T13:27:20.954Z</time></trkpt><trkpt lat="43.4088117" lon="10.7107717"><ele>497.0</ele><time>2026-04-04T13:27:21.962Z</time></trkpt><trkpt lat="43.4088594" lon="10.7106592"><ele>496.49999999999994</ele><time>2026-04-04T13:27:22.953Z</time></trkpt><trkpt lat="43.4088988" lon="10.7105385"><ele>496.0</ele><time>2026-04-04T13:27:23.953Z</time></trkpt><trkpt lat="43.408928" lon="10.7104137"><ele>495.5</ele><time>2026-04-04T13:27:24.957Z</time></trkpt><trkpt lat="43.4089544" lon="10.7102917"><ele>495.0</ele><time>2026-04-04T13:27:25.962Z</time></trkpt><trkpt lat="43.4089694" lon="10.7101811"><ele>494.49999999999994</ele><time>2026-04-04T13:27:26.965Z</time></trkpt><trkpt lat="43.4089846" lon="10.7100804"><ele>494.0</ele><time>2026-04-04T13:27:27.96Z</time></trkpt><trkpt lat="43.4090018" lon="10.7099816"><ele>494.0</ele><time>2026-04-04T13:27:28.957Z</time></trkpt><trkpt lat="43.4090387" lon="10.7098802"><ele>494.0</ele><time>2026-04-04T13:27:29.954Z</time></trkpt><trkpt lat="43.4090764" lon="10.7097674"><ele>494.0</ele><time>2026-04-04T13:27:30.97Z</time></trkpt><trkpt lat="43.4091127" lon="10.7096464"><ele>494.0</ele><time>2026-04-04T13:27:31.958Z</time></trkpt><trkpt lat="43.4091456" lon="10.7095219"><ele>494.0</ele><time>2026-04-04T13:27:32.968Z</time></trkpt><trkpt lat="43.409176" lon="10.7093991"><ele>494.66666666666663</ele><time>2026-04-04T13:27:33.963Z</time></trkpt><trkpt lat="43.4091958" lon="10.7092779"><ele>495.3333333333333</ele><time>2026-04-04T13:27:34.969Z</time></trkpt><trkpt lat="43.4092136" lon="10.709168"><ele>496.0</ele><time>2026-04-04T13:27:35.953Z</time></trkpt><trkpt lat="43.4091999" lon="10.7090753"><ele>496.66666666666663</ele><time>2026-04-04T13:27:36.952Z</time></trkpt><trkpt lat="43.4091754" lon="10.708978"><ele>497.3333333333333</ele><time>2026-04-04T13:27:37.961Z</time></trkpt><trkpt lat="43.4091499" lon="10.7088689"><ele>498.0</ele><time>2026-04-04T13:27:38.972Z</time></trkpt><trkpt lat="43.409132" lon="10.7087548"><ele>498.0</ele><time>2026-04-04T13:27:39.965Z</time></trkpt><trkpt lat="43.4091155" lon="10.7086369"><ele>498.0</ele><time>2026-04-04T13:27:40.959Z</time></trkpt><trkpt lat="43.4090983" lon="10.7085297"><ele>498.0</ele><time>2026-04-04T13:27:41.969Z</time></trkpt><trkpt lat="43.4090835" lon="10.7084356"><ele>498.0</ele><time>2026-04-04T13:27:42.97Z</time></trkpt><trkpt lat="43.4090719" lon="10.7083197"><ele>498.0</ele><time>2026-04-04T13:27:44.963Z</time></trkpt><trkpt lat="43.4090721" lon="10.7082044"><ele>498.0</ele><time>2026-04-04T13:27:46.956Z</time></trkpt><trkpt lat="43.4090746" lon="10.7080622"><ele>498.5</ele><time>2026-04-04T13:27:48.957Z</time></trkpt><trkpt lat="43.409078" lon="10.7079721"><ele>499.0</ele><time>2026-04-04T13:27:49.963Z</time></trkpt><trkpt lat="43.4090908" lon="10.70787"><ele>499.5</ele><time>2026-04-04T13:27:50.957Z</time></trkpt><trkpt lat="43.4091001" lon="10.7077654"><ele>500.0</ele><time>2026-04-04T13:27:51.965Z</time></trkpt><trkpt lat="43.4091087" lon="10.7076775"><ele>500.5</ele><time>2026-04-04T13:27:52.961Z</time></trkpt><trkpt lat="43.4091249" lon="10.7075264"><ele>501.0</ele><time>2026-04-04T13:27:54.968Z</time></trkpt><trkpt lat="43.4091718" lon="10.7073569"><ele>501.7142857142857</ele><time>2026-04-04T13:27:56.967Z</time></trkpt><trkpt lat="43.4091972" lon="10.7072605"><ele>502.42857142857144</ele><time>2026-04-04T13:27:57.951Z</time></trkpt><trkpt lat="43.4092362" lon="10.7071792"><ele>503.14285714285717</ele><time>2026-04-04T13:27:58.966Z</time></trkpt><trkpt lat="43.409277" lon="10.7071071"><ele>503.8571428571429</ele><time>2026-04-04T13:27:59.954Z</time></trkpt><trkpt lat="43.4093242" lon="10.7070399"><ele>504.57142857142856</ele><time>2026-04-04T13:28:00.961Z</time></trkpt><trkpt lat="43.4093878" lon="10.706983"><ele>505.28571428571433</ele><time>2026-04-04T13:28:01.964Z</time></trkpt><trkpt lat="43.4094638" lon="10.7069193"><ele>506.00000000000006</ele><time>2026-04-04T13:28:02.951Z</time></trkpt><trkpt lat="43.4095236" lon="10.7068632"><ele>505.4</ele><time>2026-04-04T13:28:03.973Z</time></trkpt><trkpt lat="43.4096151" lon="10.7067606"><ele>504.8</ele><time>2026-04-04T13:28:05.97Z</time></trkpt><trkpt lat="43.4096934" lon="10.7066222"><ele>504.19999999999993</ele><time>2026-04-04T13:28:07.968Z</time></trkpt><trkpt lat="43.4097424" lon="10.7065309"><ele>503.59999999999997</ele><time>2026-04-04T13:28:08.962Z</time></trkpt><trkpt lat="43.4097906" lon="10.7064654"><ele>503.0</ele><time>2026-04-04T13:28:09.965Z</time></trkpt><trkpt lat="43.4098768" lon="10.7063831"><ele>502.99999999999994</ele><time>2026-04-04T13:28:11.963Z</time></trkpt><trkpt lat="43.4099589" lon="10.7063527"><ele>503.0</ele><time>2026-04-04T13:28:13.969Z</time></trkpt><trkpt lat="43.4100566" lon="10.7063271"><ele>503.0</ele><time>2026-04-04T13:28:15.962Z</time></trkpt><trkpt lat="43.4101277" lon="10.706328"><ele>503.0</ele><time>2026-04-04T13:28:16.967Z</time></trkpt><trkpt lat="43.4101995" lon="10.7063323"><ele>502.99999999999994</ele><time>2026-04-04T13:28:17.969Z</time></trkpt><trkpt lat="43.4102662" lon="10.7063449"><ele>503.0</ele><time>2026-04-04T13:28:18.961Z</time></trkpt><trkpt lat="43.4103686" lon="10.7063376"><ele>503.0</ele><time>2026-04-04T13:28:20.975Z</time></trkpt><trkpt lat="43.4104316" lon="10.7062976"><ele>503.00000000000006</ele><time>2026-04-04T13:28:21.966Z</time></trkpt><trkpt lat="43.4104977" lon="10.7062422"><ele>503.0</ele><time>2026-04-04T13:28:22.968Z</time></trkpt><trkpt lat="43.4105592" lon="10.7061848"><ele>503.0</ele><time>2026-04-04T13:28:23.954Z</time></trkpt><trkpt lat="43.4106261" lon="10.706134"><ele>503.00000000000006</ele><time>2026-04-04T13:28:24.967Z</time></trkpt><trkpt lat="43.4106834" lon="10.7060854"><ele>503.0</ele><time>2026-04-04T13:28:25.971Z</time></trkpt><trkpt lat="43.4107388" lon="10.7060298"><ele>503.0</ele><time>2026-04-04T13:28:26.964Z</time></trkpt><trkpt lat="43.4107899" lon="10.7059745"><ele>502.99999999999994</ele><time>2026-04-04T13:28:27.965Z</time></trkpt><trkpt lat="43.4108423" lon="10.7059096"><ele>503.0</ele><time>2026-04-04T13:28:28.97Z</time></trkpt><trkpt lat="43.4108908" lon="10.7058206"><ele>503.0</ele><time>2026-04-04T13:28:29.969Z</time></trkpt><trkpt lat="43.4109444" lon="10.7057227"><ele>503.0</ele><time>2026-04-04T13:28:30.962Z</time></trkpt><trkpt lat="43.4110005" lon="10.7056252"><ele>502.99999999999994</ele><time>2026-04-04T13:28:31.968Z</time></trkpt><trkpt lat="43.4110582" lon="10.7055272"><ele>503.0</ele><time>2026-04-04T13:28:32.969Z</time></trkpt><trkpt lat="43.411123" lon="10.7054555"><ele>502.99999999999994</ele><time>2026-04-04T13:28:33.979Z</time></trkpt><trkpt lat="43.4111831" lon="10.7053927"><ele>503.0</ele><time>2026-04-04T13:28:34.965Z</time></trkpt><trkpt lat="43.4112427" lon="10.7053372"><ele>503.0</ele><time>2026-04-04T13:28:35.974Z</time></trkpt><trkpt lat="43.4113053" lon="10.7053022"><ele>503.0</ele><time>2026-04-04T13:28:36.973Z</time></trkpt><trkpt lat="43.4113745" lon="10.7052772"><ele>502.99999999999994</ele><time>2026-04-04T13:28:37.97Z</time></trkpt><trkpt lat="43.411454" lon="10.7052654"><ele>503.0</ele><time>2026-04-04T13:28:38.967Z</time></trkpt><trkpt lat="43.4115421" lon="10.7052784"><ele>501.5714285714286</ele><time>2026-04-04T13:28:39.968Z</time></trkpt><trkpt lat="43.4116207" lon="10.7052985"><ele>500.1428571428572</ele><time>2026-04-04T13:28:40.966Z</time></trkpt><trkpt lat="43.4116981" lon="10.7053262"><ele>498.7142857142857</ele><time>2026-04-04T13:28:41.966Z</time></trkpt><trkpt lat="43.4117668" lon="10.7053523"><ele>497.28571428571433</ele><time>2026-04-04T13:28:42.967Z</time></trkpt><trkpt lat="43.4118284" lon="10.7053798"><ele>495.8571428571429</ele><time>2026-04-04T13:28:43.954Z</time></trkpt><trkpt lat="43.4118911" lon="10.7054037"><ele>494.42857142857144</ele><time>2026-04-04T13:28:44.962Z</time></trkpt><trkpt lat="43.4119554" lon="10.7054316"><ele>493.0</ele><time>2026-04-04T13:28:45.961Z</time></trkpt><trkpt lat="43.4120262" lon="10.7054625"><ele>493.00000000000006</ele><time>2026-04-04T13:28:46.967Z</time></trkpt><trkpt lat="43.4120924" lon="10.7054958"><ele>493.0</ele><time>2026-04-04T13:28:47.966Z</time></trkpt><trkpt lat="43.4121837" lon="10.7055514"><ele>493.0</ele><time>2026-04-04T13:28:49.956Z</time></trkpt><trkpt lat="43.412246" lon="10.7055307"><ele>493.0</ele><time>2026-04-04T13:28:51.962Z</time></trkpt><trkpt lat="43.4123126" lon="10.7055298"><ele>493.00000000000006</ele><time>2026-04-04T13:29:05.974Z</time></trkpt><trkpt lat="43.412373" lon="10.705465"><ele>493.0</ele><time>2026-04-04T13:29:13.974Z</time></trkpt><trkpt lat="43.4124155" lon="10.7053849"><ele>493.2</ele><time>2026-04-04T13:29:16.953Z</time></trkpt><trkpt lat="43.4124777" lon="10.7052825"><ele>493.4</ele><time>2026-04-04T13:29:18.965Z</time></trkpt><trkpt lat="43.4125891" lon="10.7052476"><ele>493.59999999999997</ele><time>2026-04-04T13:29:20.968Z</time></trkpt><trkpt lat="43.4126835" lon="10.7052349"><ele>493.79999999999995</ele><time>2026-04-04T13:29:22.956Z</time></trkpt><trkpt lat="43.4127864" lon="10.705236"><ele>494.0</ele><time>2026-04-04T13:29:24.957Z</time></trkpt><trkpt lat="43.4129181" lon="10.7052805"><ele>493.99999999999994</ele><time>2026-04-04T13:29:26.974Z</time></trkpt><trkpt lat="43.4129887" lon="10.7053106"><ele>494.0</ele><time>2026-04-04T13:29:27.973Z</time></trkpt><trkpt lat="43.4130656" lon="10.7053179"><ele>494.0</ele><time>2026-04-04T13:29:28.97Z</time></trkpt><trkpt lat="43.4131308" lon="10.7053281"><ele>494.0</ele><time>2026-04-04T13:29:29.955Z</time></trkpt><trkpt lat="43.4132466" lon="10.7053992"><ele>493.99999999999994</ele><time>2026-04-04T13:29:31.953Z</time></trkpt><trkpt lat="43.4132949" lon="10.705462"><ele>494.0</ele><time>2026-04-04T13:29:32.977Z</time></trkpt><trkpt lat="43.4133477" lon="10.7055341"><ele>495.0</ele><time>2026-04-04T13:29:33.953Z</time></trkpt><trkpt lat="43.4134069" lon="10.7056118"><ele>496.0</ele><time>2026-04-04T13:29:34.968Z</time></trkpt><trkpt lat="43.4134703" lon="10.7057011"><ele>497.0</ele><time>2026-04-04T13:29:35.955Z</time></trkpt><trkpt lat="43.4135416" lon="10.7057969"><ele>498.0</ele><time>2026-04-04T13:29:36.962Z</time></trkpt><trkpt lat="43.4136156" lon="10.7058991"><ele>499.0</ele><time>2026-04-04T13:29:37.956Z</time></trkpt><trkpt lat="43.4136882" lon="10.7059939"><ele>499.00000000000006</ele><time>2026-04-04T13:29:38.952Z</time></trkpt><trkpt lat="43.4137529" lon="10.7060766"><ele>499.0</ele><time>2026-04-04T13:29:39.955Z</time></trkpt><trkpt lat="43.4138139" lon="10.706154"><ele>499.0</ele><time>2026-04-04T13:29:40.967Z</time></trkpt><trkpt lat="43.4138708" lon="10.7062238"><ele>499.0</ele><time>2026-04-04T13:29:41.965Z</time></trkpt><trkpt lat="43.4139315" lon="10.706291"><ele>499.00000000000006</ele><time>2026-04-04T13:29:42.968Z</time></trkpt><trkpt lat="43.4139912" lon="10.7063354"><ele>499.0</ele><time>2026-04-04T13:29:43.959Z</time></trkpt><trkpt lat="43.4141302" lon="10.7063771"><ele>498.50000000000006</ele><time>2026-04-04T13:29:45.971Z</time></trkpt><trkpt lat="43.4142199" lon="10.7063847"><ele>498.0</ele><time>2026-04-04T13:29:46.962Z</time></trkpt><trkpt lat="43.4143068" lon="10.7063813"><ele>497.5</ele><time>2026-04-04T13:29:47.968Z</time></trkpt><trkpt lat="43.4143901" lon="10.7063744"><ele>497.0</ele><time>2026-04-04T13:29:48.96Z</time></trkpt><trkpt lat="43.4144653" lon="10.7063663"><ele>496.50000000000006</ele><time>2026-04-04T13:29:49.96Z</time></trkpt><trkpt lat="43.4145359" lon="10.7063634"><ele>496.0</ele><time>2026-04-04T13:29:50.953Z</time></trkpt><trkpt lat="43.4146008" lon="10.7063794"><ele>498.6</ele><time>2026-04-04T13:29:51.961Z</time></trkpt><trkpt lat="43.4146669" lon="10.706442"><ele>501.20000000000005</ele><time>2026-04-04T13:29:52.974Z</time></trkpt><trkpt lat="43.4147322" lon="10.7065357"><ele>503.79999999999995</ele><time>2026-04-04T13:29:53.964Z</time></trkpt><trkpt lat="43.4147869" lon="10.7066377"><ele>506.4</ele><time>2026-04-04T13:29:54.96Z</time></trkpt><trkpt lat="43.4148246" lon="10.7067271"><ele>509.0</ele><time>2026-04-04T13:29:55.971Z</time></trkpt><trkpt lat="43.4148909" lon="10.7068832"><ele>507.3333333333333</ele><time>2026-04-04T13:29:57.965Z</time></trkpt><trkpt lat="43.4149327" lon="10.7069757"><ele>505.66666666666663</ele><time>2026-04-04T13:29:58.966Z</time></trkpt><trkpt lat="43.4149954" lon="10.7070628"><ele>504.0</ele><time>2026-04-04T13:29:59.963Z</time></trkpt><trkpt lat="43.4150616" lon="10.7071376"><ele>502.33333333333337</ele><time>2026-04-04T13:30:00.966Z</time></trkpt><trkpt lat="43.415118" lon="10.7072135"><ele>500.6666666666667</ele><time>2026-04-04T13:30:01.962Z</time></trkpt><trkpt lat="43.4151676" lon="10.7072993"><ele>499.0</ele><time>2026-04-04T13:30:02.951Z</time></trkpt><trkpt lat="43.4152229" lon="10.7073749"><ele>499.00000000000006</ele><time>2026-04-04T13:30:03.959Z</time></trkpt><trkpt lat="43.4152805" lon="10.7074258"><ele>499.0</ele><time>2026-04-04T13:30:04.971Z</time></trkpt><trkpt lat="43.4153413" lon="10.7074593"><ele>499.0</ele><time>2026-04-04T13:30:05.968Z</time></trkpt><trkpt lat="43.4154165" lon="10.7074779"><ele>499.0</ele><time>2026-04-04T13:30:06.961Z</time></trkpt><trkpt lat="43.4155029" lon="10.7074895"><ele>499.00000000000006</ele><time>2026-04-04T13:30:07.971Z</time></trkpt><trkpt lat="43.4155923" lon="10.7075026"><ele>499.0</ele><time>2026-04-04T13:30:08.973Z</time></trkpt><trkpt lat="43.4156771" lon="10.7075188"><ele>499.33333333333337</ele><time>2026-04-04T13:30:09.971Z</time></trkpt><trkpt lat="43.415756" lon="10.7075577"><ele>499.6666666666667</ele><time>2026-04-04T13:30:10.967Z</time></trkpt><trkpt lat="43.4158259" lon="10.7076081"><ele>500.0</ele><time>2026-04-04T13:30:11.953Z</time></trkpt><trkpt lat="43.4158845" lon="10.7076518"><ele>500.33333333333337</ele><time>2026-04-04T13:30:12.971Z</time></trkpt><trkpt lat="43.4159439" lon="10.7077029"><ele>500.6666666666667</ele><time>2026-04-04T13:30:14.963Z</time></trkpt><trkpt lat="43.4160127" lon="10.7077383"><ele>501.0</ele><time>2026-04-04T13:30:40.953Z</time></trkpt><trkpt lat="43.4160835" lon="10.7077971"><ele>501.0</ele><time>2026-04-04T13:30:45.976Z</time></trkpt><trkpt lat="43.4161449" lon="10.7078572"><ele>501.0</ele><time>2026-04-04T13:30:47.96Z</time></trkpt><trkpt lat="43.4162041" lon="10.7079023"><ele>501.0</ele><time>2026-04-04T13:30:48.961Z</time></trkpt><trkpt lat="43.4162718" lon="10.7079709"><ele>501.0</ele><time>2026-04-04T13:30:49.969Z</time></trkpt><trkpt lat="43.4163318" lon="10.7080324"><ele>501.0</ele><time>2026-04-04T13:30:50.957Z</time></trkpt><trkpt lat="43.41639" lon="10.7080891"><ele>501.0</ele><time>2026-04-04T13:30:51.966Z</time></trkpt><trkpt lat="43.4164724" lon="10.7081509"><ele>502.5</ele><time>2026-04-04T13:30:53.972Z</time></trkpt><trkpt lat="43.4165445" lon="10.7082263"><ele>504.0</ele><time>2026-04-04T13:30:56.973Z</time></trkpt><trkpt lat="43.4166372" lon="10.7082837"><ele>505.5</ele><time>2026-04-04T13:30:58.956Z</time></trkpt><trkpt lat="43.4167225" lon="10.708261"><ele>507.0</ele><time>2026-04-04T13:31:00.961Z</time></trkpt><trkpt lat="43.4167771" lon="10.7082051"><ele>508.5</ele><time>2026-04-04T13:31:04.961Z</time></trkpt><trkpt lat="43.416828" lon="10.7081408"><ele>510.0</ele><time>2026-04-04T13:31:08.969Z</time></trkpt><trkpt lat="43.4169114" lon="10.7081167"><ele>510.0</ele><time>2026-04-04T13:31:12.964Z</time></trkpt><trkpt lat="43.4169817" lon="10.7081424"><ele>510.0</ele><time>2026-04-04T13:31:37.956Z</time></trkpt><trkpt lat="43.4170372" lon="10.7081944"><ele>510.0</ele><time>2026-04-04T13:31:39.98Z</time></trkpt><trkpt lat="43.4171196" lon="10.7082801"><ele>510.0</ele><time>2026-04-04T13:31:41.963Z</time></trkpt><trkpt lat="43.4171993" lon="10.7083536"><ele>510.0</ele><time>2026-04-04T13:31:43.965Z</time></trkpt><trkpt lat="43.4172782" lon="10.7083845"><ele>510.0</ele><time>2026-04-04T13:31:45.965Z</time></trkpt><trkpt lat="43.4173605" lon="10.7083696"><ele>510.5</ele><time>2026-04-04T13:31:47.981Z</time></trkpt><trkpt lat="43.4174496" lon="10.7083777"><ele>511.0</ele><time>2026-04-04T13:31:49.971Z</time></trkpt><trkpt lat="43.4175298" lon="10.7084626"><ele>511.5</ele><time>2026-04-04T13:31:51.971Z</time></trkpt><trkpt lat="43.4175719" lon="10.7085999"><ele>512.0</ele><time>2026-04-04T13:31:53.967Z</time></trkpt><trkpt lat="43.4175911" lon="10.708683"><ele>512.5</ele><time>2026-04-04T13:31:54.98Z</time></trkpt><trkpt lat="43.4176102" lon="10.7087785"><ele>513.0</ele><time>2026-04-04T13:31:55.969Z</time></trkpt><trkpt lat="43.4176289" lon="10.7088722"><ele>513.0000000000001</ele><time>2026-04-04T13:31:56.968Z</time></trkpt><trkpt lat="43.4176517" lon="10.7089666"><ele>513.0</ele><time>2026-04-04T13:31:57.959Z</time></trkpt><trkpt lat="43.4176755" lon="10.7090515"><ele>513.0</ele><time>2026-04-04T13:31:58.968Z</time></trkpt><trkpt lat="43.4177147" lon="10.7091259"><ele>513.0</ele><time>2026-04-04T13:31:59.961Z</time></trkpt><trkpt lat="43.417751" lon="10.7092062"><ele>513.0</ele><time>2026-04-04T13:32:00.961Z</time></trkpt><trkpt lat="43.4177792" lon="10.7093006"><ele>513.0000000000001</ele><time>2026-04-04T13:32:01.968Z</time></trkpt><trkpt lat="43.4178074" lon="10.7093955"><ele>513.0</ele><time>2026-04-04T13:32:02.972Z</time></trkpt><trkpt lat="43.4178402" lon="10.7094915"><ele>512.3333333333334</ele><time>2026-04-04T13:32:03.97Z</time></trkpt><trkpt lat="43.417879" lon="10.709581"><ele>511.66666666666663</ele><time>2026-04-04T13:32:04.949Z</time></trkpt><trkpt lat="43.4179127" lon="10.7096674"><ele>511.0</ele><time>2026-04-04T13:32:05.966Z</time></trkpt><trkpt lat="43.4179462" lon="10.7097474"><ele>510.3333333333333</ele><time>2026-04-04T13:32:06.971Z</time></trkpt><trkpt lat="43.4180021" lon="10.709884"><ele>509.66666666666663</ele><time>2026-04-04T13:32:08.966Z</time></trkpt><trkpt lat="43.4180845" lon="10.7100063"><ele>509.0</ele><time>2026-04-04T13:32:10.968Z</time></trkpt><trkpt lat="43.4181412" lon="10.7100834"><ele>509.8333333333333</ele><time>2026-04-04T13:32:11.963Z</time></trkpt><trkpt lat="43.4181957" lon="10.7101729"><ele>510.66666666666663</ele><time>2026-04-04T13:32:12.971Z</time></trkpt><trkpt lat="43.4182474" lon="10.710254"><ele>511.5</ele><time>2026-04-04T13:32:13.972Z</time></trkpt><trkpt lat="43.4182981" lon="10.710332"><ele>512.3333333333334</ele><time>2026-04-04T13:32:14.957Z</time></trkpt><trkpt lat="43.4183847" lon="10.7104541"><ele>513.1666666666667</ele><time>2026-04-04T13:32:16.974Z</time></trkpt><trkpt lat="43.4184342" lon="10.7105183"><ele>514.0</ele><time>2026-04-04T13:32:17.957Z</time></trkpt><trkpt lat="43.4184969" lon="10.7105792"><ele>514.0</ele><time>2026-04-04T13:32:18.962Z</time></trkpt><trkpt lat="43.4185621" lon="10.7106158"><ele>514.0</ele><time>2026-04-04T13:32:19.97Z</time></trkpt><trkpt lat="43.4186779" lon="10.7106573"><ele>514.0</ele><time>2026-04-04T13:32:21.972Z</time></trkpt><trkpt lat="43.4187562" lon="10.7107785"><ele>514.0</ele><time>2026-04-04T13:32:23.958Z</time></trkpt><trkpt lat="43.4187833" lon="10.7108721"><ele>514.0</ele><time>2026-04-04T13:32:24.978Z</time></trkpt><trkpt lat="43.4187946" lon="10.7109776"><ele>515.0</ele><time>2026-04-04T13:32:25.956Z</time></trkpt><trkpt lat="43.4188111" lon="10.7110799"><ele>516.0</ele><time>2026-04-04T13:32:26.976Z</time></trkpt><trkpt lat="43.418823" lon="10.7111824"><ele>517.0</ele><time>2026-04-04T13:32:27.956Z</time></trkpt><trkpt lat="43.4188316" lon="10.7112939"><ele>518.0</ele><time>2026-04-04T13:32:28.976Z</time></trkpt><trkpt lat="43.4188394" lon="10.7113964"><ele>519.0</ele><time>2026-04-04T13:32:29.978Z</time></trkpt><trkpt lat="43.4188489" lon="10.7114944"><ele>520.0</ele><time>2026-04-04T13:32:30.973Z</time></trkpt><trkpt lat="43.4188956" lon="10.7116313"><ele>520.0</ele><time>2026-04-04T13:32:32.978Z</time></trkpt><trkpt lat="43.4189745" lon="10.711723"><ele>520.0</ele><time>2026-04-04T13:32:34.974Z</time></trkpt><trkpt lat="43.4190766" lon="10.7118359"><ele>520.0</ele><time>2026-04-04T13:32:36.971Z</time></trkpt><trkpt lat="43.4191323" lon="10.7118963"><ele>520.0</ele><time>2026-04-04T13:32:37.958Z</time></trkpt><trkpt lat="43.4192011" lon="10.7119499"><ele>520.0</ele><time>2026-04-04T13:32:38.971Z</time></trkpt><trkpt lat="43.4192691" lon="10.7120069"><ele>518.4285714285714</ele><time>2026-04-04T13:32:39.961Z</time></trkpt><trkpt lat="43.4193304" lon="10.7120649"><ele>516.8571428571429</ele><time>2026-04-04T13:32:40.965Z</time></trkpt><trkpt lat="43.4193888" lon="10.7121259"><ele>515.2857142857142</ele><time>2026-04-04T13:32:41.966Z</time></trkpt><trkpt lat="43.4194555" lon="10.7121871"><ele>513.7142857142858</ele><time>2026-04-04T13:32:42.968Z</time></trkpt><trkpt lat="43.4195142" lon="10.7122431"><ele>512.1428571428571</ele><time>2026-04-04T13:32:43.972Z</time></trkpt><trkpt lat="43.4195667" lon="10.7123126"><ele>510.5714285714285</ele><time>2026-04-04T13:32:44.959Z</time></trkpt><trkpt lat="43.4196082" lon="10.7123931"><ele>508.99999999999994</ele><time>2026-04-04T13:32:45.978Z</time></trkpt><trkpt lat="43.4196461" lon="10.7124828"><ele>508.99999999999994</ele><time>2026-04-04T13:32:46.961Z</time></trkpt><trkpt lat="43.4196797" lon="10.7125648"><ele>509.0</ele><time>2026-04-04T13:32:47.965Z</time></trkpt><trkpt lat="43.4197528" lon="10.7127069"><ele>509.0</ele><time>2026-04-04T13:32:49.961Z</time></trkpt><trkpt lat="43.4197915" lon="10.7127879"><ele>509.0</ele><time>2026-04-04T13:32:50.958Z</time></trkpt><trkpt lat="43.4198397" lon="10.7128716"><ele>508.99999999999994</ele><time>2026-04-04T13:32:51.958Z</time></trkpt><trkpt lat="43.4198927" lon="10.7129517"><ele>509.0</ele><time>2026-04-04T13:32:52.974Z</time></trkpt><trkpt lat="43.419944" lon="10.7130322"><ele>508.99999999999994</ele><time>2026-04-04T13:32:53.958Z</time></trkpt><trkpt lat="43.419996" lon="10.7131076"><ele>509.0</ele><time>2026-04-04T13:32:54.966Z</time></trkpt><trkpt lat="43.4200541" lon="10.713175"><ele>509.0</ele><time>2026-04-04T13:32:55.965Z</time></trkpt><trkpt lat="43.4201119" lon="10.7132362"><ele>509.0</ele><time>2026-04-04T13:32:56.972Z</time></trkpt><trkpt lat="43.4201741" lon="10.7132982"><ele>508.99999999999994</ele><time>2026-04-04T13:32:57.967Z</time></trkpt><trkpt lat="43.4202436" lon="10.7133488"><ele>509.0</ele><time>2026-04-04T13:32:58.97Z</time></trkpt><trkpt lat="43.4203278" lon="10.713394"><ele>508.99999999999994</ele><time>2026-04-04T13:32:59.964Z</time></trkpt><trkpt lat="43.4204089" lon="10.7134403"><ele>509.0</ele><time>2026-04-04T13:33:00.974Z</time></trkpt><trkpt lat="43.4204817" lon="10.7134789"><ele>508.99999999999994</ele><time>2026-04-04T13:33:01.954Z</time></trkpt><trkpt lat="43.4205463" lon="10.7135073"><ele>508.99999999999994</ele><time>2026-04-04T13:33:02.974Z</time></trkpt><trkpt lat="43.4206105" lon="10.7135341"><ele>509.0</ele><time>2026-04-04T13:33:03.965Z</time></trkpt><trkpt lat="43.4206778" lon="10.713568"><ele>508.99999999999994</ele><time>2026-04-04T13:33:04.972Z</time></trkpt><trkpt lat="43.4207468" lon="10.7136133"><ele>508.99999999999994</ele><time>2026-04-04T13:33:05.978Z</time></trkpt><trkpt lat="43.4208061" lon="10.7136882"><ele>508.8333333333333</ele><time>2026-04-04T13:33:06.976Z</time></trkpt><trkpt lat="43.4208628" lon="10.7137715"><ele>508.66666666666663</ele><time>2026-04-04T13:33:07.967Z</time></trkpt><trkpt lat="43.4209073" lon="10.7138647"><ele>508.5</ele><time>2026-04-04T13:33:08.968Z</time></trkpt><trkpt lat="43.4209478" lon="10.7139648"><ele>508.33333333333337</ele><time>2026-04-04T13:33:09.972Z</time></trkpt><trkpt lat="43.4209896" lon="10.7140796"><ele>508.1666666666667</ele><time>2026-04-04T13:33:10.971Z</time></trkpt><trkpt lat="43.421032" lon="10.714184"><ele>508.0</ele><time>2026-04-04T13:33:11.972Z</time></trkpt><trkpt lat="43.421072" lon="10.7142822"><ele>508.0</ele><time>2026-04-04T13:33:12.964Z</time></trkpt><trkpt lat="43.4211201" lon="10.714357"><ele>508.0</ele><time>2026-04-04T13:33:13.96Z</time></trkpt><trkpt lat="43.4211682" lon="10.7144294"><ele>508.0</ele><time>2026-04-04T13:33:14.961Z</time></trkpt><trkpt lat="43.421218" lon="10.7144959"><ele>508.0</ele><time>2026-04-04T13:33:15.962Z</time></trkpt><trkpt lat="43.4212696" lon="10.7145613"><ele>508.0</ele><time>2026-04-04T13:33:16.957Z</time></trkpt><trkpt lat="43.4213301" lon="10.714611"><ele>508.0</ele><time>2026-04-04T13:33:17.96Z</time></trkpt><trkpt lat="43.4213939" lon="10.7146482"><ele>508.0</ele><time>2026-04-04T13:33:18.962Z</time></trkpt><trkpt lat="43.4214596" lon="10.714685"><ele>508.0</ele><time>2026-04-04T13:33:19.974Z</time></trkpt><trkpt lat="43.4215297" lon="10.7147084"><ele>508.0</ele><time>2026-04-04T13:33:20.967Z</time></trkpt><trkpt lat="43.4216092" lon="10.7147191"><ele>508.0</ele><time>2026-04-04T13:33:21.969Z</time></trkpt><trkpt lat="43.4216748" lon="10.714734"><ele>508.0</ele><time>2026-04-04T13:33:22.965Z</time></trkpt><trkpt lat="43.4217399" lon="10.7147444"><ele>508.0</ele><time>2026-04-04T13:33:23.962Z</time></trkpt><trkpt lat="43.4218112" lon="10.7147533"><ele>508.0</ele><time>2026-04-04T13:33:24.961Z</time></trkpt><trkpt lat="43.421879" lon="10.7147443"><ele>508.0</ele><time>2026-04-04T13:33:25.961Z</time></trkpt><trkpt lat="43.4219526" lon="10.7147248"><ele>508.00000000000006</ele><time>2026-04-04T13:33:26.968Z</time></trkpt><trkpt lat="43.4220328" lon="10.7146889"><ele>508.0</ele><time>2026-04-04T13:33:27.969Z</time></trkpt><trkpt lat="43.4221063" lon="10.7146283"><ele>508.0</ele><time>2026-04-04T13:33:28.961Z</time></trkpt><trkpt lat="43.4221864" lon="10.714566"><ele>508.0</ele><time>2026-04-04T13:33:29.968Z</time></trkpt><trkpt lat="43.4222498" lon="10.7145111"><ele>508.00000000000006</ele><time>2026-04-04T13:33:30.959Z</time></trkpt><trkpt lat="43.4223104" lon="10.7144623"><ele>508.0</ele><time>2026-04-04T13:33:31.97Z</time></trkpt><trkpt lat="43.422374" lon="10.7144095"><ele>508.33333333333337</ele><time>2026-04-04T13:33:32.957Z</time></trkpt><trkpt lat="43.422437" lon="10.7143585"><ele>508.6666666666667</ele><time>2026-04-04T13:33:33.959Z</time></trkpt><trkpt lat="43.4225054" lon="10.7143097"><ele>509.0</ele><time>2026-04-04T13:33:34.956Z</time></trkpt><trkpt lat="43.4225805" lon="10.7142724"><ele>509.33333333333337</ele><time>2026-04-04T13:33:35.966Z</time></trkpt><trkpt lat="43.4226611" lon="10.7142593"><ele>509.6666666666667</ele><time>2026-04-04T13:33:36.96Z</time></trkpt><trkpt lat="43.4227444" lon="10.7142587"><ele>510.0</ele><time>2026-04-04T13:33:37.958Z</time></trkpt><trkpt lat="43.4228187" lon="10.7142612"><ele>510.0</ele><time>2026-04-04T13:33:38.966Z</time></trkpt><trkpt lat="43.4228922" lon="10.7142777"><ele>510.0</ele><time>2026-04-04T13:33:39.956Z</time></trkpt><trkpt lat="43.42297" lon="10.7142874"><ele>510.0</ele><time>2026-04-04T13:33:40.959Z</time></trkpt><trkpt lat="43.42305" lon="10.7142783"><ele>510.0</ele><time>2026-04-04T13:33:41.955Z</time></trkpt><trkpt lat="43.423138" lon="10.7142613"><ele>510.0</ele><time>2026-04-04T13:33:42.963Z</time></trkpt><trkpt lat="43.4232194" lon="10.7142398"><ele>510.0</ele><time>2026-04-04T13:33:43.972Z</time></trkpt><trkpt lat="43.4232992" lon="10.714224"><ele>509.1666666666667</ele><time>2026-04-04T13:33:44.964Z</time></trkpt><trkpt lat="43.4233757" lon="10.7142121"><ele>508.33333333333337</ele><time>2026-04-04T13:33:45.974Z</time></trkpt><trkpt lat="43.4234566" lon="10.7142124"><ele>507.5</ele><time>2026-04-04T13:33:46.968Z</time></trkpt><trkpt lat="43.4235268" lon="10.7142259"><ele>506.6666666666667</ele><time>2026-04-04T13:33:47.976Z</time></trkpt><trkpt lat="43.4236033" lon="10.7142432"><ele>505.83333333333337</ele><time>2026-04-04T13:33:48.971Z</time></trkpt><trkpt lat="43.4236808" lon="10.7142562"><ele>505.0</ele><time>2026-04-04T13:33:49.956Z</time></trkpt><trkpt lat="43.4237515" lon="10.714271"><ele>504.2857142857143</ele><time>2026-04-04T13:33:50.97Z</time></trkpt><trkpt lat="43.4238239" lon="10.7142859"><ele>503.57142857142856</ele><time>2026-04-04T13:33:51.957Z</time></trkpt><trkpt lat="43.4238905" lon="10.7142992"><ele>502.85714285714283</ele><time>2026-04-04T13:33:52.96Z</time></trkpt><trkpt lat="43.4239629" lon="10.7143088"><ele>502.1428571428571</ele><time>2026-04-04T13:33:53.965Z</time></trkpt><trkpt lat="43.4240381" lon="10.7143198"><ele>501.42857142857144</ele><time>2026-04-04T13:33:54.957Z</time></trkpt><trkpt lat="43.4241201" lon="10.7143296"><ele>500.71428571428567</ele><time>2026-04-04T13:33:55.965Z</time></trkpt><trkpt lat="43.4241942" lon="10.7143578"><ele>500.0</ele><time>2026-04-04T13:33:56.954Z</time></trkpt><trkpt lat="43.4242733" lon="10.7144099"><ele>497.3333333333333</ele><time>2026-04-04T13:33:57.963Z</time></trkpt><trkpt lat="43.4243647" lon="10.7144695"><ele>494.66666666666663</ele><time>2026-04-04T13:33:58.967Z</time></trkpt><trkpt lat="43.4244446" lon="10.714526"><ele>492.0</ele><time>2026-04-04T13:33:59.959Z</time></trkpt><trkpt lat="43.4245237" lon="10.7145778"><ele>489.33333333333337</ele><time>2026-04-04T13:34:00.968Z</time></trkpt><trkpt lat="43.4245991" lon="10.7146246"><ele>486.6666666666667</ele><time>2026-04-04T13:34:01.976Z</time></trkpt><trkpt lat="43.4246682" lon="10.7146589"><ele>484.0</ele><time>2026-04-04T13:34:02.97Z</time></trkpt><trkpt lat="43.4247801" lon="10.7147054"><ele>483.33333333333337</ele><time>2026-04-04T13:34:04.965Z</time></trkpt><trkpt lat="43.4249031" lon="10.7147064"><ele>482.6666666666667</ele><time>2026-04-04T13:34:06.965Z</time></trkpt><trkpt lat="43.4249651" lon="10.7146892"><ele>482.0</ele><time>2026-04-04T13:34:07.962Z</time></trkpt><trkpt lat="43.4250317" lon="10.7146495"><ele>481.33333333333337</ele><time>2026-04-04T13:34:08.971Z</time></trkpt><trkpt lat="43.4251107" lon="10.7146157"><ele>480.6666666666667</ele><time>2026-04-04T13:34:09.961Z</time></trkpt><trkpt lat="43.4251896" lon="10.7145849"><ele>480.0</ele><time>2026-04-04T13:34:10.957Z</time></trkpt><trkpt lat="43.4252788" lon="10.7145794"><ele>480.0</ele><time>2026-04-04T13:34:11.966Z</time></trkpt><trkpt lat="43.4253527" lon="10.7145877"><ele>480.0</ele><time>2026-04-04T13:34:12.96Z</time></trkpt><trkpt lat="43.4254222" lon="10.7145935"><ele>480.0</ele><time>2026-04-04T13:34:13.972Z</time></trkpt><trkpt lat="43.4254884" lon="10.7145959"><ele>480.0</ele><time>2026-04-04T13:34:14.953Z</time></trkpt><trkpt lat="43.425559" lon="10.7146038"><ele>480.0</ele><time>2026-04-04T13:34:15.973Z</time></trkpt><trkpt lat="43.4256265" lon="10.7146318"><ele>480.0</ele><time>2026-04-04T13:34:16.966Z</time></trkpt><trkpt lat="43.4256881" lon="10.71466"><ele>480.0</ele><time>2026-04-04T13:34:17.971Z</time></trkpt><trkpt lat="43.4257389" lon="10.7147143"><ele>478.8333333333333</ele><time>2026-04-04T13:34:18.966Z</time></trkpt><trkpt lat="43.4257985" lon="10.7147761"><ele>477.66666666666663</ele><time>2026-04-04T13:34:19.959Z</time></trkpt><trkpt lat="43.4258607" lon="10.7148393"><ele>476.5</ele><time>2026-04-04T13:34:20.954Z</time></trkpt><trkpt lat="43.4259239" lon="10.7149092"><ele>475.3333333333333</ele><time>2026-04-04T13:34:21.959Z</time></trkpt><trkpt lat="43.4259809" lon="10.7149632"><ele>474.16666666666663</ele><time>2026-04-04T13:34:22.963Z</time></trkpt><trkpt lat="43.4260739" lon="10.7150461"><ele>473.0</ele><time>2026-04-04T13:34:24.968Z</time></trkpt><trkpt lat="43.4261518" lon="10.7150861"><ele>473.0</ele><time>2026-04-04T13:34:26.968Z</time></trkpt><trkpt lat="43.42622" lon="10.7150501"><ele>472.99999999999994</ele><time>2026-04-04T13:34:28.973Z</time></trkpt><trkpt lat="43.426297" lon="10.7149395"><ele>472.99999999999994</ele><time>2026-04-04T13:34:30.957Z</time></trkpt><trkpt lat="43.4263637" lon="10.7148236"><ele>473.0</ele><time>2026-04-04T13:34:32.958Z</time></trkpt><trkpt lat="43.426421" lon="10.7147105"><ele>473.0</ele><time>2026-04-04T13:34:34.964Z</time></trkpt><trkpt lat="43.4265113" lon="10.7145999"><ele>472.0</ele><time>2026-04-04T13:34:36.958Z</time></trkpt><trkpt lat="43.4265664" lon="10.7145508"><ele>471.0</ele><time>2026-04-04T13:34:37.962Z</time></trkpt><trkpt lat="43.4266381" lon="10.7145241"><ele>470.0</ele><time>2026-04-04T13:34:38.958Z</time></trkpt><trkpt lat="43.4267081" lon="10.7144964"><ele>469.0</ele><time>2026-04-04T13:34:39.961Z</time></trkpt><trkpt lat="43.4267724" lon="10.7144693"><ele>468.0</ele><time>2026-04-04T13:34:40.959Z</time></trkpt><trkpt lat="43.4268386" lon="10.7144418"><ele>467.0</ele><time>2026-04-04T13:34:41.96Z</time></trkpt><trkpt lat="43.4268983" lon="10.7144067"><ele>466.0</ele><time>2026-04-04T13:34:42.96Z</time></trkpt><trkpt lat="43.4269657" lon="10.7143699"><ele>466.0</ele><time>2026-04-04T13:34:43.968Z</time></trkpt><trkpt lat="43.4270352" lon="10.7143362"><ele>466.0</ele><time>2026-04-04T13:34:44.971Z</time></trkpt><trkpt lat="43.4271083" lon="10.7143184"><ele>466.0</ele><time>2026-04-04T13:34:45.958Z</time></trkpt><trkpt lat="43.4271773" lon="10.7143193"><ele>466.0</ele><time>2026-04-04T13:34:46.963Z</time></trkpt><trkpt lat="43.4272447" lon="10.7143436"><ele>466.0</ele><time>2026-04-04T13:34:47.963Z</time></trkpt><trkpt lat="43.427315" lon="10.7143857"><ele>466.0</ele><time>2026-04-04T13:34:48.954Z</time></trkpt><trkpt lat="43.4273869" lon="10.7144314"><ele>466.0</ele><time>2026-04-04T13:34:49.972Z</time></trkpt><trkpt lat="43.4274651" lon="10.7144953"><ele>464.00000000000006</ele><time>2026-04-04T13:34:50.969Z</time></trkpt><trkpt lat="43.427545" lon="10.7145717"><ele>462.0</ele><time>2026-04-04T13:34:51.96Z</time></trkpt><trkpt lat="43.4276143" lon="10.7146489"><ele>460.0</ele><time>2026-04-04T13:34:52.956Z</time></trkpt><trkpt lat="43.4276819" lon="10.7147223"><ele>458.0</ele><time>2026-04-04T13:34:53.967Z</time></trkpt><trkpt lat="43.4277501" lon="10.7147837"><ele>456.00000000000006</ele><time>2026-04-04T13:34:54.956Z</time></trkpt><trkpt lat="43.4278294" lon="10.7148302"><ele>454.0</ele><time>2026-04-04T13:34:55.975Z</time></trkpt><trkpt lat="43.427917" lon="10.7148742"><ele>453.6</ele><time>2026-04-04T13:34:56.968Z</time></trkpt><trkpt lat="43.428009" lon="10.7149243"><ele>453.2</ele><time>2026-04-04T13:34:57.967Z</time></trkpt><trkpt lat="43.4281012" lon="10.7149817"><ele>452.80000000000007</ele><time>2026-04-04T13:34:58.976Z</time></trkpt><trkpt lat="43.4281879" lon="10.7150533"><ele>452.40000000000003</ele><time>2026-04-04T13:34:59.967Z</time></trkpt><trkpt lat="43.4282627" lon="10.7151323"><ele>452.0</ele><time>2026-04-04T13:35:00.967Z</time></trkpt><trkpt lat="43.4283424" lon="10.7152127"><ele>450.8</ele><time>2026-04-04T13:35:01.959Z</time></trkpt><trkpt lat="43.4284201" lon="10.715289"><ele>449.6</ele><time>2026-04-04T13:35:02.968Z</time></trkpt><trkpt lat="43.4285029" lon="10.7153679"><ele>448.40000000000003</ele><time>2026-04-04T13:35:03.963Z</time></trkpt><trkpt lat="43.4285782" lon="10.7154479"><ele>447.20000000000005</ele><time>2026-04-04T13:35:04.971Z</time></trkpt><trkpt lat="43.4286568" lon="10.7155277"><ele>446.0</ele><time>2026-04-04T13:35:05.966Z</time></trkpt><trkpt lat="43.4287368" lon="10.7155995"><ele>446.66666666666663</ele><time>2026-04-04T13:35:06.97Z</time></trkpt><trkpt lat="43.4288131" lon="10.7156644"><ele>447.3333333333333</ele><time>2026-04-04T13:35:07.972Z</time></trkpt><trkpt lat="43.4288919" lon="10.7157083"><ele>448.0</ele><time>2026-04-04T13:35:08.96Z</time></trkpt><trkpt lat="43.4289728" lon="10.7157448"><ele>448.66666666666663</ele><time>2026-04-04T13:35:09.964Z</time></trkpt><trkpt lat="43.4290488" lon="10.7157637"><ele>449.3333333333333</ele><time>2026-04-04T13:35:10.97Z</time></trkpt><trkpt lat="43.4291563" lon="10.7157428"><ele>450.0</ele><time>2026-04-04T13:35:12.971Z</time></trkpt><trkpt lat="43.4292092" lon="10.715692"><ele>450.0</ele><time>2026-04-04T13:35:13.972Z</time></trkpt><trkpt lat="43.4292584" lon="10.7156076"><ele>450.0</ele><time>2026-04-04T13:35:14.965Z</time></trkpt><trkpt lat="43.4293181" lon="10.7155388"><ele>450.0</ele><time>2026-04-04T13:35:15.961Z</time></trkpt><trkpt lat="43.4293901" lon="10.7154842"><ele>450.0</ele><time>2026-04-04T13:35:16.965Z</time></trkpt><trkpt lat="43.4294702" lon="10.7154235"><ele>450.0</ele><time>2026-04-04T13:35:17.965Z</time></trkpt><trkpt lat="43.4295535" lon="10.715358"><ele>450.0</ele><time>2026-04-04T13:35:18.952Z</time></trkpt><trkpt lat="43.4296396" lon="10.71529"><ele>448.3333333333333</ele><time>2026-04-04T13:35:19.961Z</time></trkpt><trkpt lat="43.4297225" lon="10.7152347"><ele>446.66666666666663</ele><time>2026-04-04T13:35:20.975Z</time></trkpt><trkpt lat="43.4298009" lon="10.7151797"><ele>445.0</ele><time>2026-04-04T13:35:21.966Z</time></trkpt><trkpt lat="43.4298689" lon="10.7151308"><ele>443.3333333333333</ele><time>2026-04-04T13:35:22.967Z</time></trkpt><trkpt lat="43.429932" lon="10.7150841"><ele>441.66666666666663</ele><time>2026-04-04T13:35:23.962Z</time></trkpt><trkpt lat="43.4299885" lon="10.7150418"><ele>440.0</ele><time>2026-04-04T13:35:24.974Z</time></trkpt><trkpt lat="43.4300887" lon="10.7149656"><ele>440.0</ele><time>2026-04-04T13:35:26.963Z</time></trkpt><trkpt lat="43.4302152" lon="10.7149071"><ele>440.0</ele><time>2026-04-04T13:35:28.959Z</time></trkpt><trkpt lat="43.4302953" lon="10.7148942"><ele>440.0</ele><time>2026-04-04T13:35:29.968Z</time></trkpt><trkpt lat="43.4303762" lon="10.714892"><ele>440.0</ele><time>2026-04-04T13:35:30.97Z</time></trkpt><trkpt lat="43.4304605" lon="10.7148855"><ele>440.0</ele><time>2026-04-04T13:35:31.971Z</time></trkpt><trkpt lat="43.4305431" lon="10.7148736"><ele>438.99999999999994</ele><time>2026-04-04T13:35:32.967Z</time></trkpt><trkpt lat="43.4306291" lon="10.7148651"><ele>438.0</ele><time>2026-04-04T13:35:33.972Z</time></trkpt><trkpt lat="43.4307143" lon="10.7148565"><ele>437.0</ele><time>2026-04-04T13:35:34.973Z</time></trkpt><trkpt lat="43.43079" lon="10.7148441"><ele>436.0</ele><time>2026-04-04T13:35:35.957Z</time></trkpt><trkpt lat="43.4308514" lon="10.7148249"><ele>435.0</ele><time>2026-04-04T13:35:36.969Z</time></trkpt><trkpt lat="43.4309068" lon="10.7147817"><ele>433.99999999999994</ele><time>2026-04-04T13:35:37.974Z</time></trkpt><trkpt lat="43.4309627" lon="10.7147336"><ele>433.0</ele><time>2026-04-04T13:35:38.969Z</time></trkpt><trkpt lat="43.4310146" lon="10.7146491"><ele>433.00000000000006</ele><time>2026-04-04T13:35:39.963Z</time></trkpt><trkpt lat="43.4310702" lon="10.7145557"><ele>433.0</ele><time>2026-04-04T13:35:40.979Z</time></trkpt><trkpt lat="43.4311322" lon="10.7144566"><ele>433.0</ele><time>2026-04-04T13:35:41.97Z</time></trkpt><trkpt lat="43.431188" lon="10.7143681"><ele>433.0</ele><time>2026-04-04T13:35:42.967Z</time></trkpt><trkpt lat="43.4312472" lon="10.7142854"><ele>433.00000000000006</ele><time>2026-04-04T13:35:43.971Z</time></trkpt><trkpt lat="43.4313059" lon="10.7142058"><ele>433.0</ele><time>2026-04-04T13:35:44.954Z</time></trkpt><trkpt lat="43.4313554" lon="10.7141389"><ele>429.2</ele><time>2026-04-04T13:35:45.957Z</time></trkpt><trkpt lat="43.4314294" lon="10.7140202"><ele>425.4</ele><time>2026-04-04T13:35:47.963Z</time></trkpt><trkpt lat="43.4314817" lon="10.7139142"><ele>421.59999999999997</ele><time>2026-04-04T13:35:49.971Z</time></trkpt><trkpt lat="43.4315437" lon="10.7138522"><ele>417.79999999999995</ele><time>2026-04-04T13:35:51.961Z</time></trkpt><trkpt lat="43.4316205" lon="10.7138605"><ele>414.0</ele><time>2026-04-04T13:35:53.963Z</time></trkpt><trkpt lat="43.431717" lon="10.7139991"><ele>414.0</ele><time>2026-04-04T13:35:55.973Z</time></trkpt><trkpt lat="43.4317911" lon="10.7141127"><ele>414.0</ele><time>2026-04-04T13:35:56.958Z</time></trkpt><trkpt lat="43.4318691" lon="10.7142102"><ele>414.0</ele><time>2026-04-04T13:35:57.969Z</time></trkpt><trkpt lat="43.4319408" lon="10.7143027"><ele>414.0</ele><time>2026-04-04T13:35:58.955Z</time></trkpt><trkpt lat="43.4320142" lon="10.714374"><ele>414.0</ele><time>2026-04-04T13:35:59.958Z</time></trkpt><trkpt lat="43.4320891" lon="10.7144448"><ele>412.79999999999995</ele><time>2026-04-04T13:36:00.959Z</time></trkpt><trkpt lat="43.4321689" lon="10.7145118"><ele>411.59999999999997</ele><time>2026-04-04T13:36:01.961Z</time></trkpt><trkpt lat="43.4322525" lon="10.7145856"><ele>410.4</ele><time>2026-04-04T13:36:02.958Z</time></trkpt><trkpt lat="43.4323262" lon="10.7146827"><ele>409.2</ele><time>2026-04-04T13:36:03.97Z</time></trkpt><trkpt lat="43.4324057" lon="10.7147819"><ele>408.0</ele><time>2026-04-04T13:36:04.97Z</time></trkpt><trkpt lat="43.4324848" lon="10.7148793"><ele>408.0</ele><time>2026-04-04T13:36:05.954Z</time></trkpt><trkpt lat="43.4325626" lon="10.7149755"><ele>408.0</ele><time>2026-04-04T13:36:06.974Z</time></trkpt><trkpt lat="43.4326375" lon="10.7150819"><ele>408.0</ele><time>2026-04-04T13:36:07.956Z</time></trkpt><trkpt lat="43.4327106" lon="10.7151921"><ele>408.0</ele><time>2026-04-04T13:36:08.975Z</time></trkpt><trkpt lat="43.4327841" lon="10.7152929"><ele>408.0</ele><time>2026-04-04T13:36:09.963Z</time></trkpt><trkpt lat="43.4328695" lon="10.7153839"><ele>407.2</ele><time>2026-04-04T13:36:10.958Z</time></trkpt><trkpt lat="43.432953" lon="10.7154745"><ele>406.4</ele><time>2026-04-04T13:36:11.959Z</time></trkpt><trkpt lat="43.4330327" lon="10.715557"><ele>405.59999999999997</ele><time>2026-04-04T13:36:12.954Z</time></trkpt><trkpt lat="43.4331252" lon="10.7156269"><ele>404.79999999999995</ele><time>2026-04-04T13:36:13.971Z</time></trkpt><trkpt lat="43.4332341" lon="10.7156725"><ele>404.0</ele><time>2026-04-04T13:36:14.972Z</time></trkpt><trkpt lat="43.4333476" lon="10.7157053"><ele>404.0</ele><time>2026-04-04T13:36:15.956Z</time></trkpt><trkpt lat="43.433454" lon="10.7157356"><ele>404.0</ele><time>2026-04-04T13:36:16.969Z</time></trkpt><trkpt lat="43.4335583" lon="10.7157676"><ele>404.0</ele><time>2026-04-04T13:36:17.97Z</time></trkpt><trkpt lat="43.4336576" lon="10.7158021"><ele>404.0</ele><time>2026-04-04T13:36:18.96Z</time></trkpt><trkpt lat="43.4337497" lon="10.7158362"><ele>404.0</ele><time>2026-04-04T13:36:19.959Z</time></trkpt><trkpt lat="43.4338311" lon="10.7158671"><ele>402.3333333333333</ele><time>2026-04-04T13:36:20.97Z</time></trkpt><trkpt lat="43.4339155" lon="10.7158916"><ele>400.66666666666663</ele><time>2026-04-04T13:36:21.973Z</time></trkpt><trkpt lat="43.4340047" lon="10.7159132"><ele>399.0</ele><time>2026-04-04T13:36:22.969Z</time></trkpt><trkpt lat="43.4340913" lon="10.7159433"><ele>397.33333333333337</ele><time>2026-04-04T13:36:23.968Z</time></trkpt><trkpt lat="43.4341662" lon="10.7159844"><ele>395.6666666666667</ele><time>2026-04-04T13:36:24.968Z</time></trkpt><trkpt lat="43.4342351" lon="10.716048"><ele>394.0</ele><time>2026-04-04T13:36:25.976Z</time></trkpt><trkpt lat="43.4343019" lon="10.7161399"><ele>393.4</ele><time>2026-04-04T13:36:26.977Z</time></trkpt><trkpt lat="43.4343695" lon="10.716236"><ele>392.79999999999995</ele><time>2026-04-04T13:36:27.971Z</time></trkpt><trkpt lat="43.4344286" lon="10.7163436"><ele>392.20000000000005</ele><time>2026-04-04T13:36:28.96Z</time></trkpt><trkpt lat="43.4344876" lon="10.7164557"><ele>391.6</ele><time>2026-04-04T13:36:29.953Z</time></trkpt><trkpt lat="43.4345387" lon="10.7165593"><ele>391.0</ele><time>2026-04-04T13:36:30.957Z</time></trkpt><trkpt lat="43.4345765" lon="10.7166531"><ele>391.00000000000006</ele><time>2026-04-04T13:36:31.977Z</time></trkpt><trkpt lat="43.4345983" lon="10.7167455"><ele>391.0</ele><time>2026-04-04T13:36:32.963Z</time></trkpt><trkpt lat="43.4346079" lon="10.7168452"><ele>391.0</ele><time>2026-04-04T13:36:33.964Z</time></trkpt><trkpt lat="43.434619" lon="10.7169577"><ele>391.0</ele><time>2026-04-04T13:36:34.975Z</time></trkpt><trkpt lat="43.4346287" lon="10.7170941"><ele>391.00000000000006</ele><time>2026-04-04T13:36:35.97Z</time></trkpt><trkpt lat="43.4346512" lon="10.7172309"><ele>391.0</ele><time>2026-04-04T13:36:36.969Z</time></trkpt><trkpt lat="43.434679" lon="10.7173529"><ele>387.20000000000005</ele><time>2026-04-04T13:36:37.98Z</time></trkpt><trkpt lat="43.4347046" lon="10.7174594"><ele>383.40000000000003</ele><time>2026-04-04T13:36:38.977Z</time></trkpt><trkpt lat="43.4347296" lon="10.7175668"><ele>379.6</ele><time>2026-04-04T13:36:39.958Z</time></trkpt><trkpt lat="43.4347662" lon="10.717663"><ele>375.8</ele><time>2026-04-04T13:36:40.979Z</time></trkpt><trkpt lat="43.4348107" lon="10.7177753"><ele>372.0</ele><time>2026-04-04T13:36:41.977Z</time></trkpt><trkpt lat="43.4348606" lon="10.717922"><ele>371.25</ele><time>2026-04-04T13:36:42.982Z</time></trkpt><trkpt lat="43.4349094" lon="10.7181009"><ele>370.5</ele><time>2026-04-04T13:36:43.973Z</time></trkpt><trkpt lat="43.4349646" lon="10.7182772"><ele>369.75</ele><time>2026-04-04T13:36:44.973Z</time></trkpt><trkpt lat="43.4350165" lon="10.7184378"><ele>369.0</ele><time>2026-04-04T13:36:45.969Z</time></trkpt><trkpt lat="43.4350636" lon="10.7185811"><ele>368.0</ele><time>2026-04-04T13:36:46.957Z</time></trkpt><trkpt lat="43.435111" lon="10.7187234"><ele>367.0</ele><time>2026-04-04T13:36:47.953Z</time></trkpt><trkpt lat="43.4351532" lon="10.7188591"><ele>366.0</ele><time>2026-04-04T13:36:48.968Z</time></trkpt><trkpt lat="43.435186" lon="10.7190037"><ele>365.0</ele><time>2026-04-04T13:36:49.963Z</time></trkpt><trkpt lat="43.4352162" lon="10.7191506"><ele>364.0</ele><time>2026-04-04T13:36:50.966Z</time></trkpt><trkpt lat="43.4352499" lon="10.7193015"><ele>362.6</ele><time>2026-04-04T13:36:51.964Z</time></trkpt><trkpt lat="43.4352616" lon="10.7194567"><ele>361.2</ele><time>2026-04-04T13:36:52.952Z</time></trkpt><trkpt lat="43.4352485" lon="10.7195997"><ele>359.8</ele><time>2026-04-04T13:36:53.961Z</time></trkpt><trkpt lat="43.43521" lon="10.7197322"><ele>358.40000000000003</ele><time>2026-04-04T13:36:54.958Z</time></trkpt><trkpt lat="43.4351723" lon="10.7198663"><ele>357.0</ele><time>2026-04-04T13:36:55.969Z</time></trkpt><trkpt lat="43.4351575" lon="10.7200108"><ele>357.0</ele><time>2026-04-04T13:36:56.963Z</time></trkpt><trkpt lat="43.4351714" lon="10.7201622"><ele>357.0</ele><time>2026-04-04T13:36:57.955Z</time></trkpt><trkpt lat="43.4351897" lon="10.7203213"><ele>357.0</ele><time>2026-04-04T13:36:58.96Z</time></trkpt><trkpt lat="43.4352198" lon="10.7204862"><ele>357.0</ele><time>2026-04-04T13:36:59.957Z</time></trkpt><trkpt lat="43.4352347" lon="10.7206512"><ele>356.40000000000003</ele><time>2026-04-04T13:37:00.953Z</time></trkpt><trkpt lat="43.4352484" lon="10.7208011"><ele>355.8</ele><time>2026-04-04T13:37:01.956Z</time></trkpt><trkpt lat="43.4352649" lon="10.7209249"><ele>355.2</ele><time>2026-04-04T13:37:02.956Z</time></trkpt><trkpt lat="43.4352887" lon="10.7210194"><ele>354.6</ele><time>2026-04-04T13:37:03.966Z</time></trkpt><trkpt lat="43.4353279" lon="10.7211501"><ele>354.0</ele><time>2026-04-04T13:37:05.955Z</time></trkpt><trkpt lat="43.4353138" lon="10.7212655"><ele>352.8333333333333</ele><time>2026-04-04T13:37:07.956Z</time></trkpt><trkpt lat="43.4352971" lon="10.7213606"><ele>351.6666666666667</ele><time>2026-04-04T13:37:09.965Z</time></trkpt><trkpt lat="43.4352972" lon="10.7214583"><ele>350.5</ele><time>2026-04-04T13:37:17.956Z</time></trkpt><trkpt lat="43.4352743" lon="10.7215456"><ele>349.33333333333337</ele><time>2026-04-04T13:37:25.953Z</time></trkpt><trkpt lat="43.435299" lon="10.7214646"><ele>348.1666666666667</ele><time>2026-04-04T13:37:31.972Z</time></trkpt><trkpt lat="43.4353106" lon="10.721292"><ele>347.0</ele><time>2026-04-04T13:37:33.965Z</time></trkpt><trkpt lat="43.4353273" lon="10.7212"><ele>347.0</ele><time>2026-04-04T13:37:34.973Z</time></trkpt><trkpt lat="43.4353489" lon="10.7211119"><ele>347.0</ele><time>2026-04-04T13:37:35.969Z</time></trkpt><trkpt lat="43.4354016" lon="10.7209697"><ele>347.0</ele><time>2026-04-04T13:37:37.972Z</time></trkpt><trkpt lat="43.435456" lon="10.7208725"><ele>347.0</ele><time>2026-04-04T13:37:39.955Z</time></trkpt><trkpt lat="43.435495" lon="10.7207748"><ele>347.0</ele><time>2026-04-04T13:37:41.955Z</time></trkpt><trkpt lat="43.4355329" lon="10.720691"><ele>347.0</ele><time>2026-04-04T13:37:44.972Z</time></trkpt><trkpt lat="43.4354934" lon="10.7208091"><ele>347.0</ele><time>2026-04-04T13:37:55.954Z</time></trkpt><trkpt lat="43.43544" lon="10.7209296"><ele>347.0</ele><time>2026-04-04T13:37:57.974Z</time></trkpt><trkpt lat="43.4353804" lon="10.7210302"><ele>347.0</ele><time>2026-04-04T13:37:59.971Z</time></trkpt><trkpt lat="43.4353382" lon="10.7211386"><ele>347.0</ele><time>2026-04-04T13:38:01.966Z</time></trkpt><trkpt lat="43.4353076" lon="10.721298"><ele>347.0</ele><time>2026-04-04T13:38:03.967Z</time></trkpt><trkpt lat="43.4353" lon="10.7213957"><ele>347.0</ele><time>2026-04-04T13:38:04.955Z</time></trkpt><trkpt lat="43.4352944" lon="10.7214977"><ele>347.0</ele><time>2026-04-04T13:38:05.953Z</time></trkpt><trkpt lat="43.4352876" lon="10.721615"><ele>347.0</ele><time>2026-04-04T13:38:07.972Z</time></trkpt><trkpt lat="43.4353478" lon="10.7216785"><ele>347.0</ele><time>2026-04-04T13:38:11.967Z</time></trkpt><trkpt lat="43.4354387" lon="10.7216436"><ele>347.0</ele><time>2026-04-04T13:38:13.958Z</time></trkpt><trkpt lat="43.4355679" lon="10.721622"><ele>343.6666666666667</ele><time>2026-04-04T13:38:15.954Z</time></trkpt><trkpt lat="43.4356438" lon="10.7216276"><ele>340.33333333333337</ele><time>2026-04-04T13:38:16.963Z</time></trkpt><trkpt lat="43.4357108" lon="10.7216367"><ele>337.0</ele><time>2026-04-04T13:38:17.966Z</time></trkpt><trkpt lat="43.4358163" lon="10.7216449"><ele>333.6666666666667</ele><time>2026-04-04T13:38:19.968Z</time></trkpt><trkpt lat="43.435883" lon="10.7216417"><ele>330.3333333333333</ele><time>2026-04-04T13:38:22.962Z</time></trkpt><trkpt lat="43.4359586" lon="10.7216341"><ele>327.0</ele><time>2026-04-04T13:39:18.951Z</time></trkpt><trkpt lat="43.4360252" lon="10.7216638"><ele>327.0</ele><time>2026-04-04T13:40:10.974Z</time></trkpt><trkpt lat="43.4360448" lon="10.721765"><ele>327.0</ele><time>2026-04-04T13:41:57.96Z</time></trkpt><trkpt lat="43.4361048" lon="10.7218505"><ele>327.0</ele><time>2026-04-04T13:42:00.969Z</time></trkpt><trkpt lat="43.4361471" lon="10.7219169"><ele>327.0</ele><time>2026-04-04T13:42:03.957Z</time></trkpt><trkpt lat="43.4361594" lon="10.7220143"><ele>327.0</ele><time>2026-04-04T13:42:09.971Z</time></trkpt><trkpt lat="43.4361351" lon="10.7221105"><ele>327.0</ele><time>2026-04-04T13:42:14.967Z</time></trkpt><trkpt lat="43.4361133" lon="10.7221924"><ele>327.0</ele><time>2026-04-04T13:42:19.973Z</time></trkpt><trkpt lat="43.4360993" lon="10.7222875"><ele>326.1666666666667</ele><time>2026-04-04T13:42:24.963Z</time></trkpt><trkpt lat="43.4360905" lon="10.7223947"><ele>325.3333333333333</ele><time>2026-04-04T13:42:28.97Z</time></trkpt><trkpt lat="43.4360587" lon="10.72247"><ele>324.5</ele><time>2026-04-04T13:42:31.962Z</time></trkpt><trkpt lat="43.4361407" lon="10.7225052"><ele>323.66666666666663</ele><time>2026-04-04T13:42:35.969Z</time></trkpt><trkpt lat="43.4362139" lon="10.7224876"><ele>322.8333333333333</ele><time>2026-04-04T13:42:37.973Z</time></trkpt><trkpt lat="43.4363341" lon="10.722457"><ele>322.0</ele><time>2026-04-04T13:42:39.964Z</time></trkpt><trkpt lat="43.4364112" lon="10.7224374"><ele>318.8333333333333</ele><time>2026-04-04T13:42:40.969Z</time></trkpt><trkpt lat="43.4364949" lon="10.722409"><ele>315.66666666666663</ele><time>2026-04-04T13:42:41.955Z</time></trkpt><trkpt lat="43.4365784" lon="10.7223783"><ele>312.5</ele><time>2026-04-04T13:42:42.967Z</time></trkpt><trkpt lat="43.4366528" lon="10.7223216"><ele>309.3333333333333</ele><time>2026-04-04T13:42:43.98Z</time></trkpt><trkpt lat="43.4367151" lon="10.7222438"><ele>306.1666666666667</ele><time>2026-04-04T13:42:44.962Z</time></trkpt><trkpt lat="43.4367654" lon="10.7221432"><ele>303.0</ele><time>2026-04-04T13:42:45.97Z</time></trkpt><trkpt lat="43.4368093" lon="10.7220234"><ele>304.2</ele><time>2026-04-04T13:42:46.956Z</time></trkpt><trkpt lat="43.4368513" lon="10.7218917"><ele>305.4</ele><time>2026-04-04T13:42:47.955Z</time></trkpt><trkpt lat="43.4368967" lon="10.7217613"><ele>306.59999999999997</ele><time>2026-04-04T13:42:48.97Z</time></trkpt><trkpt lat="43.4369446" lon="10.7216416"><ele>307.8</ele><time>2026-04-04T13:42:49.969Z</time></trkpt><trkpt lat="43.4369983" lon="10.721531"><ele>309.0</ele><time>2026-04-04T13:42:50.97Z</time></trkpt><trkpt lat="43.4370646" lon="10.7214295"><ele>305.2</ele><time>2026-04-04T13:42:51.967Z</time></trkpt><trkpt lat="43.437144" lon="10.7213381"><ele>301.4</ele><time>2026-04-04T13:42:52.958Z</time></trkpt><trkpt lat="43.4372363" lon="10.7212683"><ele>297.6</ele><time>2026-04-04T13:42:53.97Z</time></trkpt><trkpt lat="43.4373321" lon="10.7211987"><ele>293.8</ele><time>2026-04-04T13:42:54.967Z</time></trkpt><trkpt lat="43.4374481" lon="10.7211611"><ele>290.0</ele><time>2026-04-04T13:42:55.965Z</time></trkpt><trkpt lat="43.4375668" lon="10.7211207"><ele>290.0</ele><time>2026-04-04T13:42:56.97Z</time></trkpt><trkpt lat="43.4376829" lon="10.7210714"><ele>290.0</ele><time>2026-04-04T13:42:57.976Z</time></trkpt><trkpt lat="43.4377868" lon="10.7210044"><ele>290.0</ele><time>2026-04-04T13:42:58.962Z</time></trkpt><trkpt lat="43.4378862" lon="10.7209375"><ele>290.0</ele><time>2026-04-04T13:42:59.975Z</time></trkpt><trkpt lat="43.4379486" lon="10.7208121"><ele>288.75</ele><time>2026-04-04T13:43:00.967Z</time></trkpt><trkpt lat="43.4380108" lon="10.7206847"><ele>287.5</ele><time>2026-04-04T13:43:01.958Z</time></trkpt><trkpt lat="43.4380411" lon="10.720538"><ele>286.25</ele><time>2026-04-04T13:43:02.952Z</time></trkpt><trkpt lat="43.438058" lon="10.7203874"><ele>285.0</ele><time>2026-04-04T13:43:03.971Z</time></trkpt><trkpt lat="43.4380698" lon="10.7202167"><ele>284.75</ele><time>2026-04-04T13:43:04.961Z</time></trkpt><trkpt lat="43.4380683" lon="10.7200527"><ele>284.5</ele><time>2026-04-04T13:43:05.955Z</time></trkpt><trkpt lat="43.4380584" lon="10.7198896"><ele>284.25</ele><time>2026-04-04T13:43:06.976Z</time></trkpt><trkpt lat="43.4380459" lon="10.7197268"><ele>284.0</ele><time>2026-04-04T13:43:07.967Z</time></trkpt><trkpt lat="43.4380302" lon="10.7195708"><ele>284.0</ele><time>2026-04-04T13:43:08.959Z</time></trkpt><trkpt lat="43.4380236" lon="10.7194235"><ele>284.0</ele><time>2026-04-04T13:43:09.965Z</time></trkpt><trkpt lat="43.4380373" lon="10.7192999"><ele>284.0</ele><time>2026-04-04T13:43:10.96Z</time></trkpt><trkpt lat="43.4381129" lon="10.7192256"><ele>284.0</ele><time>2026-04-04T13:43:11.964Z</time></trkpt><trkpt lat="43.4382107" lon="10.7191865"><ele>284.0</ele><time>2026-04-04T13:43:12.967Z</time></trkpt><trkpt lat="43.4383247" lon="10.7191823"><ele>283.75</ele><time>2026-04-04T13:43:13.969Z</time></trkpt><trkpt lat="43.438448" lon="10.7192006"><ele>283.5</ele><time>2026-04-04T13:43:14.968Z</time></trkpt><trkpt lat="43.4385764" lon="10.7192197"><ele>283.25</ele><time>2026-04-04T13:43:15.963Z</time></trkpt><trkpt lat="43.4387112" lon="10.7192275"><ele>283.0</ele><time>2026-04-04T13:43:16.958Z</time></trkpt><trkpt lat="43.4388457" lon="10.7192105"><ele>283.0</ele><time>2026-04-04T13:43:17.965Z</time></trkpt><trkpt lat="43.4389804" lon="10.7191924"><ele>283.0</ele><time>2026-04-04T13:43:18.962Z</time></trkpt><trkpt lat="43.4391085" lon="10.7191585"><ele>283.0</ele><time>2026-04-04T13:43:19.974Z</time></trkpt><trkpt lat="43.4392283" lon="10.7191308"><ele>283.0</ele><time>2026-04-04T13:43:20.954Z</time></trkpt><trkpt lat="43.4393413" lon="10.7191351"><ele>283.0</ele><time>2026-04-04T13:43:21.97Z</time></trkpt><trkpt lat="43.4394586" lon="10.7191877"><ele>283.0</ele><time>2026-04-04T13:43:22.956Z</time></trkpt><trkpt lat="43.4395772" lon="10.7192934"><ele>283.0</ele><time>2026-04-04T13:43:23.96Z</time></trkpt><trkpt lat="43.439681" lon="10.7194223"><ele>283.0</ele><time>2026-04-04T13:43:24.967Z</time></trkpt><trkpt lat="43.4397794" lon="10.7195435"><ele>278.25</ele><time>2026-04-04T13:43:25.969Z</time></trkpt><trkpt lat="43.4398828" lon="10.7196322"><ele>273.5</ele><time>2026-04-04T13:43:26.972Z</time></trkpt><trkpt lat="43.4399868" lon="10.719718"><ele>268.75</ele><time>2026-04-04T13:43:27.956Z</time></trkpt><trkpt lat="43.4400899" lon="10.7197509"><ele>264.0</ele><time>2026-04-04T13:43:28.965Z</time></trkpt><trkpt lat="43.4401955" lon="10.7197284"><ele>264.0</ele><time>2026-04-04T13:43:29.955Z</time></trkpt><trkpt lat="43.4403094" lon="10.7196623"><ele>264.0</ele><time>2026-04-04T13:43:30.979Z</time></trkpt><trkpt lat="43.4404237" lon="10.7195659"><ele>264.0</ele><time>2026-04-04T13:43:31.975Z</time></trkpt><trkpt lat="43.4405366" lon="10.7194961"><ele>264.0</ele><time>2026-04-04T13:43:32.962Z</time></trkpt><trkpt lat="43.4406495" lon="10.7194772"><ele>261.75</ele><time>2026-04-04T13:43:33.96Z</time></trkpt><trkpt lat="43.4407607" lon="10.7195142"><ele>259.5</ele><time>2026-04-04T13:43:34.972Z</time></trkpt><trkpt lat="43.4408759" lon="10.7195521"><ele>257.25</ele><time>2026-04-04T13:43:35.953Z</time></trkpt><trkpt lat="43.440991" lon="10.7196287"><ele>255.0</ele><time>2026-04-04T13:43:36.958Z</time></trkpt><trkpt lat="43.4411117" lon="10.7197096"><ele>255.0</ele><time>2026-04-04T13:43:37.967Z</time></trkpt><trkpt lat="43.4412226" lon="10.7197954"><ele>255.0</ele><time>2026-04-04T13:43:38.977Z</time></trkpt><trkpt lat="43.4413221" lon="10.7199017"><ele>255.0</ele><time>2026-04-04T13:43:39.978Z</time></trkpt><trkpt lat="43.44141" lon="10.7200171"><ele>255.0</ele><time>2026-04-04T13:43:40.961Z</time></trkpt><trkpt lat="43.441507" lon="10.720123"><ele>253.5</ele><time>2026-04-04T13:43:41.979Z</time></trkpt><trkpt lat="43.4416181" lon="10.7202052"><ele>252.0</ele><time>2026-04-04T13:43:42.977Z</time></trkpt><trkpt lat="43.441736" lon="10.7202567"><ele>250.5</ele><time>2026-04-04T13:43:43.963Z</time></trkpt><trkpt lat="43.4418596" lon="10.7202702"><ele>249.0</ele><time>2026-04-04T13:43:44.971Z</time></trkpt><trkpt lat="43.441984" lon="10.7202453"><ele>249.0</ele><time>2026-04-04T13:43:45.97Z</time></trkpt><trkpt lat="43.4421084" lon="10.7201922"><ele>249.0</ele><time>2026-04-04T13:43:46.958Z</time></trkpt><trkpt lat="43.4422363" lon="10.7201331"><ele>249.0</ele><time>2026-04-04T13:43:47.961Z</time></trkpt><trkpt lat="43.4423682" lon="10.7200813"><ele>249.0</ele><time>2026-04-04T13:43:48.977Z</time></trkpt><trkpt lat="43.4424981" lon="10.7200423"><ele>247.6</ele><time>2026-04-04T13:43:49.978Z</time></trkpt><trkpt lat="43.4426119" lon="10.7200188"><ele>246.2</ele><time>2026-04-04T13:43:50.976Z</time></trkpt><trkpt lat="43.4427055" lon="10.7200054"><ele>244.79999999999998</ele><time>2026-04-04T13:43:51.972Z</time></trkpt><trkpt lat="43.442787" lon="10.7200114"><ele>243.39999999999998</ele><time>2026-04-04T13:43:52.961Z</time></trkpt><trkpt lat="43.4428503" lon="10.7200535"><ele>242.0</ele><time>2026-04-04T13:43:53.96Z</time></trkpt><trkpt lat="43.4428704" lon="10.7202315"><ele>241.39999999999998</ele><time>2026-04-04T13:43:55.958Z</time></trkpt><trkpt lat="43.442857" lon="10.7203476"><ele>240.79999999999998</ele><time>2026-04-04T13:43:56.976Z</time></trkpt><trkpt lat="43.4427993" lon="10.7204555"><ele>240.2</ele><time>2026-04-04T13:43:57.96Z</time></trkpt><trkpt lat="43.4427362" lon="10.720567"><ele>239.6</ele><time>2026-04-04T13:43:58.956Z</time></trkpt><trkpt lat="43.4426671" lon="10.7206669"><ele>239.0</ele><time>2026-04-04T13:43:59.969Z</time></trkpt><trkpt lat="43.4425953" lon="10.7207598"><ele>239.0</ele><time>2026-04-04T13:44:00.969Z</time></trkpt><trkpt lat="43.4425253" lon="10.720854"><ele>238.99999999999997</ele><time>2026-04-04T13:44:01.954Z</time></trkpt><trkpt lat="43.4424644" lon="10.7209562"><ele>238.99999999999997</ele><time>2026-04-04T13:44:02.975Z</time></trkpt><trkpt lat="43.4424188" lon="10.72107"><ele>239.0</ele><time>2026-04-04T13:44:03.962Z</time></trkpt><trkpt lat="43.4423883" lon="10.7211883"><ele>239.0</ele><time>2026-04-04T13:44:04.961Z</time></trkpt><trkpt lat="43.4423684" lon="10.7213046"><ele>237.33333333333334</ele><time>2026-04-04T13:44:05.971Z</time></trkpt><trkpt lat="43.4423535" lon="10.7214207"><ele>235.66666666666669</ele><time>2026-04-04T13:44:06.966Z</time></trkpt><trkpt lat="43.4423383" lon="10.7215356"><ele>234.0</ele><time>2026-04-04T13:44:07.961Z</time></trkpt><trkpt lat="43.4423163" lon="10.7216464"><ele>232.33333333333331</ele><time>2026-04-04T13:44:08.976Z</time></trkpt><trkpt lat="43.4422808" lon="10.7217451"><ele>230.66666666666666</ele><time>2026-04-04T13:44:09.959Z</time></trkpt><trkpt lat="43.4422439" lon="10.7218245"><ele>229.0</ele><time>2026-04-04T13:44:10.968Z</time></trkpt><trkpt lat="43.442215" lon="10.7219713"><ele>229.0</ele><time>2026-04-04T13:44:12.963Z</time></trkpt><trkpt lat="43.4422689" lon="10.722089"><ele>228.99999999999997</ele><time>2026-04-04T13:44:14.959Z</time></trkpt><trkpt lat="43.442329" lon="10.7220618"><ele>228.99999999999997</ele><time>2026-04-04T13:44:15.96Z</time></trkpt><trkpt lat="43.4423957" lon="10.7219965"><ele>229.0</ele><time>2026-04-04T13:44:16.971Z</time></trkpt><trkpt lat="43.4424757" lon="10.7219139"><ele>229.0</ele><time>2026-04-04T13:44:17.961Z</time></trkpt><trkpt lat="43.4425781" lon="10.7218274"><ele>229.0</ele><time>2026-04-04T13:44:18.972Z</time></trkpt><trkpt lat="43.4426944" lon="10.7217519"><ele>229.0</ele><time>2026-04-04T13:44:19.96Z</time></trkpt><trkpt lat="43.4428222" lon="10.7216788"><ele>229.0</ele><time>2026-04-04T13:44:20.964Z</time></trkpt><trkpt lat="43.4429644" lon="10.72159"><ele>229.0</ele><time>2026-04-04T13:44:21.966Z</time></trkpt><trkpt lat="43.4431182" lon="10.7214931"><ele>226.0</ele><time>2026-04-04T13:44:22.966Z</time></trkpt><trkpt lat="43.4432652" lon="10.7213958"><ele>223.0</ele><time>2026-04-04T13:44:23.965Z</time></trkpt><trkpt lat="43.4434057" lon="10.7212935"><ele>220.0</ele><time>2026-04-04T13:44:24.971Z</time></trkpt><trkpt lat="43.4435497" lon="10.7212017"><ele>220.0</ele><time>2026-04-04T13:44:25.972Z</time></trkpt><trkpt lat="43.4436972" lon="10.7211368"><ele>220.0</ele><time>2026-04-04T13:44:26.964Z</time></trkpt><trkpt lat="43.443844" lon="10.7211038"><ele>220.0</ele><time>2026-04-04T13:44:27.964Z</time></trkpt><trkpt lat="43.4439864" lon="10.7210886"><ele>220.0</ele><time>2026-04-04T13:44:28.955Z</time></trkpt><trkpt lat="43.4441236" lon="10.7210715"><ele>219.25</ele><time>2026-04-04T13:44:29.975Z</time></trkpt><trkpt lat="43.4442539" lon="10.7210446"><ele>218.5</ele><time>2026-04-04T13:44:30.955Z</time></trkpt><trkpt lat="43.4443789" lon="10.7210039"><ele>217.75</ele><time>2026-04-04T13:44:31.977Z</time></trkpt><trkpt lat="43.4444979" lon="10.720949"><ele>217.0</ele><time>2026-04-04T13:44:32.966Z</time></trkpt><trkpt lat="43.4446042" lon="10.7208716"><ele>213.5</ele><time>2026-04-04T13:44:33.973Z</time></trkpt><trkpt lat="43.4447082" lon="10.7207919"><ele>210.0</ele><time>2026-04-04T13:44:34.972Z</time></trkpt><trkpt lat="43.4447879" lon="10.7206633"><ele>206.5</ele><time>2026-04-04T13:44:35.974Z</time></trkpt><trkpt lat="43.4448336" lon="10.7205116"><ele>203.0</ele><time>2026-04-04T13:44:36.969Z</time></trkpt><trkpt lat="43.4448827" lon="10.7203624"><ele>203.0</ele><time>2026-04-04T13:44:37.97Z</time></trkpt><trkpt lat="43.4449484" lon="10.7202392"><ele>203.0</ele><time>2026-04-04T13:44:38.963Z</time></trkpt><trkpt lat="43.4450479" lon="10.7201619"><ele>203.0</ele><time>2026-04-04T13:44:39.959Z</time></trkpt><trkpt lat="43.4451504" lon="10.7200831"><ele>203.0</ele><time>2026-04-04T13:44:40.956Z</time></trkpt><trkpt lat="43.4452504" lon="10.7200202"><ele>203.8</ele><time>2026-04-04T13:44:41.965Z</time></trkpt><trkpt lat="43.4453515" lon="10.7199976"><ele>204.60000000000002</ele><time>2026-04-04T13:44:42.956Z</time></trkpt><trkpt lat="43.4454443" lon="10.7200406"><ele>205.39999999999998</ele><time>2026-04-04T13:44:43.968Z</time></trkpt><trkpt lat="43.4455371" lon="10.7200917"><ele>206.2</ele><time>2026-04-04T13:44:44.964Z</time></trkpt><trkpt lat="43.4455944" lon="10.7202273"><ele>207.0</ele><time>2026-04-04T13:44:45.967Z</time></trkpt><trkpt lat="43.4456268" lon="10.7203814"><ele>204.25</ele><time>2026-04-04T13:44:46.96Z</time></trkpt><trkpt lat="43.445631" lon="10.7205447"><ele>201.5</ele><time>2026-04-04T13:44:47.974Z</time></trkpt><trkpt lat="43.4456315" lon="10.7207157"><ele>198.75</ele><time>2026-04-04T13:44:48.973Z</time></trkpt><trkpt lat="43.4455885" lon="10.7208975"><ele>196.0</ele><time>2026-04-04T13:44:49.974Z</time></trkpt><trkpt lat="43.4455533" lon="10.7210928"><ele>194.0</ele><time>2026-04-04T13:44:50.974Z</time></trkpt><trkpt lat="43.4455356" lon="10.7212982"><ele>192.0</ele><time>2026-04-04T13:44:51.973Z</time></trkpt><trkpt lat="43.4455441" lon="10.7215055"><ele>190.0</ele><time>2026-04-04T13:44:52.974Z</time></trkpt><trkpt lat="43.4455829" lon="10.721706"><ele>190.0</ele><time>2026-04-04T13:44:53.96Z</time></trkpt><trkpt lat="43.4456478" lon="10.7218931"><ele>190.0</ele><time>2026-04-04T13:44:54.976Z</time></trkpt><trkpt lat="43.4457388" lon="10.7220631"><ele>190.0</ele><time>2026-04-04T13:44:55.967Z</time></trkpt><trkpt lat="43.4458308" lon="10.7222303"><ele>190.0</ele><time>2026-04-04T13:44:56.972Z</time></trkpt><trkpt lat="43.4459341" lon="10.7223946"><ele>190.0</ele><time>2026-04-04T13:44:57.968Z</time></trkpt><trkpt lat="43.4460249" lon="10.72258"><ele>190.0</ele><time>2026-04-04T13:44:58.966Z</time></trkpt><trkpt lat="43.4461036" lon="10.7227791"><ele>190.33333333333334</ele><time>2026-04-04T13:44:59.96Z</time></trkpt><trkpt lat="43.4461768" lon="10.7229851"><ele>190.66666666666666</ele><time>2026-04-04T13:45:00.97Z</time></trkpt><trkpt lat="43.446252" lon="10.7231939"><ele>191.0</ele><time>2026-04-04T13:45:01.975Z</time></trkpt><trkpt lat="43.4463263" lon="10.7233959"><ele>188.0</ele><time>2026-04-04T13:45:02.974Z</time></trkpt><trkpt lat="43.4463954" lon="10.7235806"><ele>185.0</ele><time>2026-04-04T13:45:03.959Z</time></trkpt><trkpt lat="43.4464553" lon="10.7237529"><ele>182.0</ele><time>2026-04-04T13:45:04.985Z</time></trkpt><trkpt lat="43.4464939" lon="10.723932"><ele>179.0</ele><time>2026-04-04T13:45:05.972Z</time></trkpt><trkpt lat="43.4465011" lon="10.7241233"><ele>179.0</ele><time>2026-04-04T13:45:06.972Z</time></trkpt><trkpt lat="43.4464774" lon="10.7243201"><ele>179.0</ele><time>2026-04-04T13:45:07.968Z</time></trkpt><trkpt lat="43.4464332" lon="10.7245192"><ele>179.0</ele><time>2026-04-04T13:45:08.971Z</time></trkpt><trkpt lat="43.4463934" lon="10.7247213"><ele>179.0</ele><time>2026-04-04T13:45:09.959Z</time></trkpt><trkpt lat="43.4463806" lon="10.7249269"><ele>177.33333333333331</ele><time>2026-04-04T13:45:10.971Z</time></trkpt><trkpt lat="43.4464047" lon="10.7251358"><ele>175.66666666666666</ele><time>2026-04-04T13:45:11.975Z</time></trkpt><trkpt lat="43.4464586" lon="10.7253475"><ele>174.0</ele><time>2026-04-04T13:45:12.977Z</time></trkpt><trkpt lat="43.4465264" lon="10.7255646"><ele>174.0</ele><time>2026-04-04T13:45:13.971Z</time></trkpt><trkpt lat="43.4465976" lon="10.7257867"><ele>174.0</ele><time>2026-04-04T13:45:14.97Z</time></trkpt><trkpt lat="43.4466667" lon="10.7260123"><ele>174.0</ele><time>2026-04-04T13:45:15.975Z</time></trkpt><trkpt lat="43.4467325" lon="10.7262409"><ele>174.0</ele><time>2026-04-04T13:45:16.961Z</time></trkpt><trkpt lat="43.4467978" lon="10.7264711"><ele>174.0</ele><time>2026-04-04T13:45:17.976Z</time></trkpt><trkpt lat="43.4468649" lon="10.7267002"><ele>174.0</ele><time>2026-04-04T13:45:18.972Z</time></trkpt><trkpt lat="43.446937" lon="10.7269262"><ele>173.33333333333334</ele><time>2026-04-04T13:45:19.963Z</time></trkpt><trkpt lat="43.4470156" lon="10.7271493"><ele>172.66666666666669</ele><time>2026-04-04T13:45:20.975Z</time></trkpt><trkpt lat="43.4470972" lon="10.7273715"><ele>172.0</ele><time>2026-04-04T13:45:21.959Z</time></trkpt><trkpt lat="43.4471802" lon="10.7275964"><ele>169.66666666666669</ele><time>2026-04-04T13:45:22.981Z</time></trkpt><trkpt lat="43.447262" lon="10.7278238"><ele>167.33333333333334</ele><time>2026-04-04T13:45:23.969Z</time></trkpt><trkpt lat="43.4473441" lon="10.7280515"><ele>165.0</ele><time>2026-04-04T13:45:24.957Z</time></trkpt><trkpt lat="43.4474286" lon="10.728279"><ele>165.0</ele><time>2026-04-04T13:45:25.974Z</time></trkpt><trkpt lat="43.4475162" lon="10.7285051"><ele>165.0</ele><time>2026-04-04T13:45:26.959Z</time></trkpt><trkpt lat="43.4476126" lon="10.7287238"><ele>165.0</ele><time>2026-04-04T13:45:27.969Z</time></trkpt><trkpt lat="43.4477226" lon="10.7289297"><ele>165.0</ele><time>2026-04-04T13:45:28.975Z</time></trkpt><trkpt lat="43.4478463" lon="10.7291218"><ele>165.0</ele><time>2026-04-04T13:45:29.969Z</time></trkpt><trkpt lat="43.4479778" lon="10.7293051"><ele>165.0</ele><time>2026-04-04T13:45:30.971Z</time></trkpt><trkpt lat="43.4481137" lon="10.7294818"><ele>162.66666666666666</ele><time>2026-04-04T13:45:31.966Z</time></trkpt><trkpt lat="43.448251" lon="10.7296505"><ele>160.33333333333331</ele><time>2026-04-04T13:45:32.977Z</time></trkpt><trkpt lat="43.4483904" lon="10.7298004"><ele>158.0</ele><time>2026-04-04T13:45:33.975Z</time></trkpt><trkpt lat="43.448536" lon="10.7299273"><ele>158.0</ele><time>2026-04-04T13:45:34.958Z</time></trkpt><trkpt lat="43.4486816" lon="10.7300308"><ele>158.0</ele><time>2026-04-04T13:45:35.977Z</time></trkpt><trkpt lat="43.4488332" lon="10.7301141"><ele>158.0</ele><time>2026-04-04T13:45:36.967Z</time></trkpt><trkpt lat="43.4489771" lon="10.7301897"><ele>157.0</ele><time>2026-04-04T13:45:37.975Z</time></trkpt><trkpt lat="43.4491045" lon="10.7302554"><ele>156.0</ele><time>2026-04-04T13:45:38.969Z</time></trkpt><trkpt lat="43.4492225" lon="10.7303103"><ele>155.0</ele><time>2026-04-04T13:45:39.956Z</time></trkpt><trkpt lat="43.4493281" lon="10.7303341"><ele>154.0</ele><time>2026-04-04T13:45:40.964Z</time></trkpt><trkpt lat="43.4494245" lon="10.730311"><ele>154.0</ele><time>2026-04-04T13:45:41.971Z</time></trkpt><trkpt lat="43.4495079" lon="10.7302347"><ele>154.0</ele><time>2026-04-04T13:45:42.959Z</time></trkpt><trkpt lat="43.4495675" lon="10.7301068"><ele>154.0</ele><time>2026-04-04T13:45:43.978Z</time></trkpt><trkpt lat="43.4496054" lon="10.7299392"><ele>154.0</ele><time>2026-04-04T13:45:44.968Z</time></trkpt><trkpt lat="43.4496381" lon="10.7297628"><ele>153.0</ele><time>2026-04-04T13:45:45.956Z</time></trkpt><trkpt lat="43.4496946" lon="10.729599"><ele>152.0</ele><time>2026-04-04T13:45:46.959Z</time></trkpt><trkpt lat="43.449785" lon="10.7294581"><ele>151.0</ele><time>2026-04-04T13:45:47.969Z</time></trkpt><trkpt lat="43.4499045" lon="10.7293424"><ele>150.0</ele><time>2026-04-04T13:45:48.967Z</time></trkpt><trkpt lat="43.4500376" lon="10.7292455"><ele>147.66666666666666</ele><time>2026-04-04T13:45:49.955Z</time></trkpt><trkpt lat="43.4501788" lon="10.7291463"><ele>145.33333333333331</ele><time>2026-04-04T13:45:50.973Z</time></trkpt><trkpt lat="43.4503263" lon="10.7290387"><ele>143.0</ele><time>2026-04-04T13:45:51.97Z</time></trkpt><trkpt lat="43.450475" lon="10.7289293"><ele>142.0</ele><time>2026-04-04T13:45:52.971Z</time></trkpt><trkpt lat="43.4506247" lon="10.7288217"><ele>141.0</ele><time>2026-04-04T13:45:53.969Z</time></trkpt><trkpt lat="43.4507741" lon="10.7287177"><ele>140.0</ele><time>2026-04-04T13:45:54.969Z</time></trkpt><trkpt lat="43.4509302" lon="10.7286286"><ele>140.0</ele><time>2026-04-04T13:45:55.976Z</time></trkpt><trkpt lat="43.451096" lon="10.7285758"><ele>140.0</ele><time>2026-04-04T13:45:56.961Z</time></trkpt><trkpt lat="43.45127" lon="10.7285612"><ele>140.0</ele><time>2026-04-04T13:45:57.966Z</time></trkpt><trkpt lat="43.451447" lon="10.7285855"><ele>138.0</ele><time>2026-04-04T13:45:58.969Z</time></trkpt><trkpt lat="43.4516247" lon="10.7286465"><ele>136.0</ele><time>2026-04-04T13:45:59.962Z</time></trkpt><trkpt lat="43.4518044" lon="10.7287288"><ele>134.0</ele><time>2026-04-04T13:46:00.973Z</time></trkpt><trkpt lat="43.4519861" lon="10.7288135"><ele>133.33333333333331</ele><time>2026-04-04T13:46:01.964Z</time></trkpt><trkpt lat="43.4521703" lon="10.7288953"><ele>132.66666666666666</ele><time>2026-04-04T13:46:02.972Z</time></trkpt><trkpt lat="43.4523581" lon="10.7289802"><ele>132.0</ele><time>2026-04-04T13:46:03.975Z</time></trkpt><trkpt lat="43.4525439" lon="10.729067"><ele>132.0</ele><time>2026-04-04T13:46:04.974Z</time></trkpt><trkpt lat="43.4527218" lon="10.729153"><ele>132.0</ele><time>2026-04-04T13:46:05.961Z</time></trkpt><trkpt lat="43.4528848" lon="10.7292336"><ele>132.0</ele><time>2026-04-04T13:46:06.975Z</time></trkpt><trkpt lat="43.4530405" lon="10.7293098"><ele>130.66666666666666</ele><time>2026-04-04T13:46:07.974Z</time></trkpt><trkpt lat="43.4531936" lon="10.7294026"><ele>129.33333333333331</ele><time>2026-04-04T13:46:08.972Z</time></trkpt><trkpt lat="43.4533447" lon="10.729526"><ele>128.0</ele><time>2026-04-04T13:46:09.973Z</time></trkpt><trkpt lat="43.4534992" lon="10.7296645"><ele>128.0</ele><time>2026-04-04T13:46:10.969Z</time></trkpt><trkpt lat="43.4536602" lon="10.7298056"><ele>128.0</ele><time>2026-04-04T13:46:11.962Z</time></trkpt><trkpt lat="43.4538292" lon="10.7299485"><ele>128.0</ele><time>2026-04-04T13:46:12.97Z</time></trkpt><trkpt lat="43.4540061" lon="10.7300949"><ele>127.0</ele><time>2026-04-04T13:46:13.964Z</time></trkpt><trkpt lat="43.4541864" lon="10.7302459"><ele>126.0</ele><time>2026-04-04T13:46:14.975Z</time></trkpt><trkpt lat="43.4543684" lon="10.7303963"><ele>125.0</ele><time>2026-04-04T13:46:15.958Z</time></trkpt><trkpt lat="43.4545575" lon="10.7305462"><ele>125.33333333333333</ele><time>2026-04-04T13:46:16.961Z</time></trkpt><trkpt lat="43.4547439" lon="10.730702"><ele>125.66666666666666</ele><time>2026-04-04T13:46:17.978Z</time></trkpt><trkpt lat="43.4549295" lon="10.7308601"><ele>126.0</ele><time>2026-04-04T13:46:18.975Z</time></trkpt><trkpt lat="43.4551148" lon="10.7310209"><ele>125.66666666666666</ele><time>2026-04-04T13:46:19.965Z</time></trkpt><trkpt lat="43.4553016" lon="10.7311825"><ele>125.33333333333333</ele><time>2026-04-04T13:46:20.962Z</time></trkpt><trkpt lat="43.4554892" lon="10.7313408"><ele>125.0</ele><time>2026-04-04T13:46:21.968Z</time></trkpt><trkpt lat="43.4556755" lon="10.7314999"><ele>125.0</ele><time>2026-04-04T13:46:22.959Z</time></trkpt><trkpt lat="43.4558571" lon="10.7316583"><ele>125.0</ele><time>2026-04-04T13:46:23.958Z</time></trkpt><trkpt lat="43.4560372" lon="10.7318138"><ele>125.0</ele><time>2026-04-04T13:46:24.972Z</time></trkpt><trkpt lat="43.4562155" lon="10.7319699"><ele>124.0</ele><time>2026-04-04T13:46:25.96Z</time></trkpt><trkpt lat="43.4563914" lon="10.7321246"><ele>123.0</ele><time>2026-04-04T13:46:26.977Z</time></trkpt><trkpt lat="43.4565597" lon="10.7322728"><ele>122.0</ele><time>2026-04-04T13:46:27.972Z</time></trkpt><trkpt lat="43.4567194" lon="10.7324069"><ele>122.0</ele><time>2026-04-04T13:46:28.98Z</time></trkpt><trkpt lat="43.4568761" lon="10.7325178"><ele>122.0</ele><time>2026-04-04T13:46:29.965Z</time></trkpt><trkpt lat="43.4570351" lon="10.7325927"><ele>122.0</ele><time>2026-04-04T13:46:30.98Z</time></trkpt><trkpt lat="43.4571912" lon="10.7326418"><ele>121.5</ele><time>2026-04-04T13:46:31.973Z</time></trkpt><trkpt lat="43.4573367" lon="10.7326949"><ele>121.0</ele><time>2026-04-04T13:46:32.96Z</time></trkpt><trkpt lat="43.4574664" lon="10.7327799"><ele>120.5</ele><time>2026-04-04T13:46:33.957Z</time></trkpt><trkpt lat="43.4575764" lon="10.7329092"><ele>120.0</ele><time>2026-04-04T13:46:34.961Z</time></trkpt><trkpt lat="43.4576799" lon="10.7330565"><ele>120.0</ele><time>2026-04-04T13:46:35.967Z</time></trkpt><trkpt lat="43.4577309" lon="10.7332618"><ele>120.0</ele><time>2026-04-04T13:46:36.969Z</time></trkpt><trkpt lat="43.4577984" lon="10.7334575"><ele>120.0</ele><time>2026-04-04T13:46:37.973Z</time></trkpt><trkpt lat="43.4578981" lon="10.7336329"><ele>119.0</ele><time>2026-04-04T13:46:38.975Z</time></trkpt><trkpt lat="43.4580271" lon="10.7337825"><ele>118.0</ele><time>2026-04-04T13:46:39.967Z</time></trkpt><trkpt lat="43.4581653" lon="10.7339091"><ele>117.0</ele><time>2026-04-04T13:46:40.96Z</time></trkpt><trkpt lat="43.4582971" lon="10.7340128"><ele>117.0</ele><time>2026-04-04T13:46:41.96Z</time></trkpt><trkpt lat="43.4584302" lon="10.7341048"><ele>117.0</ele><time>2026-04-04T13:46:42.975Z</time></trkpt><trkpt lat="43.4585683" lon="10.7341945"><ele>117.0</ele><time>2026-04-04T13:46:43.959Z</time></trkpt><trkpt lat="43.4587081" lon="10.7342886"><ele>117.5</ele><time>2026-04-04T13:46:44.977Z</time></trkpt><trkpt lat="43.4588461" lon="10.7343834"><ele>118.0</ele><time>2026-04-04T13:46:45.962Z</time></trkpt><trkpt lat="43.4589779" lon="10.7344752"><ele>118.5</ele><time>2026-04-04T13:46:46.962Z</time></trkpt><trkpt lat="43.4590957" lon="10.7345591"><ele>119.0</ele><time>2026-04-04T13:46:47.974Z</time></trkpt><trkpt lat="43.4591962" lon="10.7346314"><ele>119.0</ele><time>2026-04-04T13:46:48.961Z</time></trkpt><trkpt lat="43.4592782" lon="10.7346851"><ele>119.0</ele><time>2026-04-04T13:46:49.96Z</time></trkpt><trkpt lat="43.45935" lon="10.7347168"><ele>119.0</ele><time>2026-04-04T13:46:50.972Z</time></trkpt><trkpt lat="43.4594767" lon="10.7346215"><ele>119.0</ele><time>2026-04-04T13:46:52.968Z</time></trkpt><trkpt lat="43.4595633" lon="10.7345326"><ele>119.0</ele><time>2026-04-04T13:46:53.957Z</time></trkpt><trkpt lat="43.4596769" lon="10.7344574"><ele>120.33333333333333</ele><time>2026-04-04T13:46:54.96Z</time></trkpt><trkpt lat="43.4598215" lon="10.7344144"><ele>121.66666666666666</ele><time>2026-04-04T13:46:55.976Z</time></trkpt><trkpt lat="43.4599823" lon="10.7343874"><ele>123.0</ele><time>2026-04-04T13:46:56.974Z</time></trkpt><trkpt lat="43.4601528" lon="10.7343399"><ele>123.0</ele><time>2026-04-04T13:46:57.959Z</time></trkpt><trkpt lat="43.4603361" lon="10.7342667"><ele>123.0</ele><time>2026-04-04T13:46:58.975Z</time></trkpt><trkpt lat="43.4605419" lon="10.7341928"><ele>123.0</ele><time>2026-04-04T13:46:59.978Z</time></trkpt><trkpt lat="43.4607651" lon="10.7341436"><ele>124.66666666666666</ele><time>2026-04-04T13:47:00.951Z</time></trkpt><trkpt lat="43.4609914" lon="10.7341286"><ele>126.33333333333333</ele><time>2026-04-04T13:47:01.97Z</time></trkpt><trkpt lat="43.4612089" lon="10.7341344"><ele>128.0</ele><time>2026-04-04T13:47:02.973Z</time></trkpt><trkpt lat="43.4614069" lon="10.7341357"><ele>130.0</ele><time>2026-04-04T13:47:03.96Z</time></trkpt><trkpt lat="43.4615799" lon="10.7341081"><ele>132.0</ele><time>2026-04-04T13:47:04.957Z</time></trkpt><trkpt lat="43.4617314" lon="10.7340335"><ele>134.0</ele><time>2026-04-04T13:47:05.959Z</time></trkpt><trkpt lat="43.461882" lon="10.7339336"><ele>134.0</ele><time>2026-04-04T13:47:06.964Z</time></trkpt><trkpt lat="43.4619885" lon="10.733746"><ele>134.0</ele><time>2026-04-04T13:47:07.966Z</time></trkpt><trkpt lat="43.462077" lon="10.733532"><ele>134.0</ele><time>2026-04-04T13:47:08.97Z</time></trkpt><trkpt lat="43.4621451" lon="10.7332866"><ele>137.66666666666666</ele><time>2026-04-04T13:47:09.958Z</time></trkpt><trkpt lat="43.4621886" lon="10.7330179"><ele>141.33333333333334</ele><time>2026-04-04T13:47:10.978Z</time></trkpt><trkpt lat="43.4622074" lon="10.7327471"><ele>145.0</ele><time>2026-04-04T13:47:11.968Z</time></trkpt><trkpt lat="43.462215" lon="10.7324871"><ele>145.66666666666669</ele><time>2026-04-04T13:47:12.973Z</time></trkpt><trkpt lat="43.4621606" lon="10.73224"><ele>146.33333333333334</ele><time>2026-04-04T13:47:13.963Z</time></trkpt><trkpt lat="43.4620807" lon="10.7319976"><ele>147.0</ele><time>2026-04-04T13:47:14.973Z</time></trkpt><trkpt lat="43.4620074" lon="10.7317778"><ele>144.75</ele><time>2026-04-04T13:47:15.963Z</time></trkpt><trkpt lat="43.4619495" lon="10.7315778"><ele>142.5</ele><time>2026-04-04T13:47:16.97Z</time></trkpt><trkpt lat="43.461927" lon="10.7313925"><ele>140.25</ele><time>2026-04-04T13:47:17.957Z</time></trkpt><trkpt lat="43.4619453" lon="10.7312225"><ele>138.0</ele><time>2026-04-04T13:47:18.965Z</time></trkpt><trkpt lat="43.4620035" lon="10.7310815"><ele>138.0</ele><time>2026-04-04T13:47:19.965Z</time></trkpt><trkpt lat="43.4620958" lon="10.7309793"><ele>138.0</ele><time>2026-04-04T13:47:20.973Z</time></trkpt><trkpt lat="43.4622166" lon="10.7309212"><ele>138.0</ele><time>2026-04-04T13:47:21.967Z</time></trkpt><trkpt lat="43.4623581" lon="10.7309062"><ele>138.0</ele><time>2026-04-04T13:47:22.966Z</time></trkpt><trkpt lat="43.4625169" lon="10.7309408"><ele>141.66666666666666</ele><time>2026-04-04T13:47:23.966Z</time></trkpt><trkpt lat="43.4626908" lon="10.7310211"><ele>145.33333333333331</ele><time>2026-04-04T13:47:24.965Z</time></trkpt><trkpt lat="43.4628741" lon="10.7311381"><ele>149.0</ele><time>2026-04-04T13:47:25.973Z</time></trkpt><trkpt lat="43.4630587" lon="10.7312632"><ele>152.33333333333331</ele><time>2026-04-04T13:47:26.955Z</time></trkpt><trkpt lat="43.4632326" lon="10.7313638"><ele>155.66666666666666</ele><time>2026-04-04T13:47:27.959Z</time></trkpt><trkpt lat="43.4633893" lon="10.7314314"><ele>159.0</ele><time>2026-04-04T13:47:28.965Z</time></trkpt><trkpt lat="43.4635304" lon="10.7314598"><ele>159.0</ele><time>2026-04-04T13:47:29.963Z</time></trkpt><trkpt lat="43.4636651" lon="10.7314667"><ele>159.0</ele><time>2026-04-04T13:47:30.959Z</time></trkpt><trkpt lat="43.4637891" lon="10.7313921"><ele>159.0</ele><time>2026-04-04T13:47:31.955Z</time></trkpt><trkpt lat="43.4638952" lon="10.7312775"><ele>159.0</ele><time>2026-04-04T13:47:32.977Z</time></trkpt><trkpt lat="43.4639846" lon="10.7311183"><ele>159.0</ele><time>2026-04-04T13:47:33.968Z</time></trkpt><trkpt lat="43.4640605" lon="10.7309267"><ele>159.0</ele><time>2026-04-04T13:47:34.963Z</time></trkpt><trkpt lat="43.4641399" lon="10.7307166"><ele>159.0</ele><time>2026-04-04T13:47:35.97Z</time></trkpt><trkpt lat="43.4642142" lon="10.7304772"><ele>160.0</ele><time>2026-04-04T13:47:36.966Z</time></trkpt><trkpt lat="43.4642945" lon="10.7302204"><ele>161.0</ele><time>2026-04-04T13:47:37.968Z</time></trkpt><trkpt lat="43.4643849" lon="10.7299392"><ele>162.0</ele><time>2026-04-04T13:47:38.97Z</time></trkpt><trkpt lat="43.4644827" lon="10.7296343"><ele>159.5</ele><time>2026-04-04T13:47:39.968Z</time></trkpt><trkpt lat="43.4645875" lon="10.7293112"><ele>157.0</ele><time>2026-04-04T13:47:40.966Z</time></trkpt><trkpt lat="43.4646927" lon="10.7289766"><ele>157.0</ele><time>2026-04-04T13:47:41.964Z</time></trkpt><trkpt lat="43.4647972" lon="10.728646"><ele>157.0</ele><time>2026-04-04T13:47:42.962Z</time></trkpt><trkpt lat="43.4648956" lon="10.728325"><ele>158.5</ele><time>2026-04-04T13:47:43.975Z</time></trkpt><trkpt lat="43.4649935" lon="10.7280122"><ele>160.0</ele><time>2026-04-04T13:47:44.957Z</time></trkpt><trkpt lat="43.4650889" lon="10.7277097"><ele>161.0</ele><time>2026-04-04T13:47:45.974Z</time></trkpt><trkpt lat="43.465183" lon="10.7274161"><ele>162.0</ele><time>2026-04-04T13:47:46.958Z</time></trkpt><trkpt lat="43.4652734" lon="10.7271309"><ele>161.66666666666666</ele><time>2026-04-04T13:47:47.97Z</time></trkpt><trkpt lat="43.465361" lon="10.7268512"><ele>161.33333333333331</ele><time>2026-04-04T13:47:48.968Z</time></trkpt><trkpt lat="43.4654447" lon="10.7265783"><ele>161.0</ele><time>2026-04-04T13:47:49.955Z</time></trkpt><trkpt lat="43.4655278" lon="10.7263129"><ele>162.0</ele><time>2026-04-04T13:47:50.974Z</time></trkpt><trkpt lat="43.4656096" lon="10.726056"><ele>163.0</ele><time>2026-04-04T13:47:51.97Z</time></trkpt><trkpt lat="43.4656858" lon="10.7258091"><ele>164.0</ele><time>2026-04-04T13:47:52.974Z</time></trkpt><trkpt lat="43.4657601" lon="10.7255727"><ele>164.0</ele><time>2026-04-04T13:47:53.959Z</time></trkpt><trkpt lat="43.4658326" lon="10.7253433"><ele>164.0</ele><time>2026-04-04T13:47:54.97Z</time></trkpt><trkpt lat="43.4659053" lon="10.7251192"><ele>164.0</ele><time>2026-04-04T13:47:55.967Z</time></trkpt><trkpt lat="43.465989" lon="10.7249021"><ele>163.33333333333331</ele><time>2026-04-04T13:47:56.965Z</time></trkpt><trkpt lat="43.4660972" lon="10.7247069"><ele>162.66666666666666</ele><time>2026-04-04T13:47:57.964Z</time></trkpt><trkpt lat="43.4662155" lon="10.7245263"><ele>162.0</ele><time>2026-04-04T13:47:58.96Z</time></trkpt><trkpt lat="43.4663298" lon="10.7243519"><ele>162.0</ele><time>2026-04-04T13:47:59.955Z</time></trkpt><trkpt lat="43.4664398" lon="10.7241889"><ele>162.0</ele><time>2026-04-04T13:48:00.967Z</time></trkpt><trkpt lat="43.4665421" lon="10.7240298"><ele>162.0</ele><time>2026-04-04T13:48:01.972Z</time></trkpt><trkpt lat="43.466626" lon="10.723849"><ele>162.0</ele><time>2026-04-04T13:48:02.958Z</time></trkpt><trkpt lat="43.4666866" lon="10.7236414"><ele>162.0</ele><time>2026-04-04T13:48:03.957Z</time></trkpt><trkpt lat="43.4667275" lon="10.7234134"><ele>162.0</ele><time>2026-04-04T13:48:04.966Z</time></trkpt><trkpt lat="43.4667632" lon="10.7231784"><ele>164.0</ele><time>2026-04-04T13:48:05.962Z</time></trkpt><trkpt lat="43.4668058" lon="10.7229407"><ele>166.0</ele><time>2026-04-04T13:48:06.976Z</time></trkpt><trkpt lat="43.4668597" lon="10.7227075"><ele>168.0</ele><time>2026-04-04T13:48:07.959Z</time></trkpt><trkpt lat="43.4669255" lon="10.7224805"><ele>167.33333333333334</ele><time>2026-04-04T13:48:08.958Z</time></trkpt><trkpt lat="43.4669974" lon="10.7222618"><ele>166.66666666666669</ele><time>2026-04-04T13:48:09.968Z</time></trkpt><trkpt lat="43.46707" lon="10.722057"><ele>166.0</ele><time>2026-04-04T13:48:10.957Z</time></trkpt><trkpt lat="43.4671377" lon="10.721873"><ele>166.0</ele><time>2026-04-04T13:48:11.967Z</time></trkpt><trkpt lat="43.4672018" lon="10.721717"><ele>166.0</ele><time>2026-04-04T13:48:12.97Z</time></trkpt><trkpt lat="43.4672664" lon="10.721587"><ele>166.0</ele><time>2026-04-04T13:48:13.966Z</time></trkpt><trkpt lat="43.467337" lon="10.7214923"><ele>166.0</ele><time>2026-04-04T13:48:14.956Z</time></trkpt><trkpt lat="43.4674214" lon="10.7214346"><ele>166.0</ele><time>2026-04-04T13:48:15.966Z</time></trkpt><trkpt lat="43.4675176" lon="10.7214196"><ele>166.0</ele><time>2026-04-04T13:48:16.953Z</time></trkpt><trkpt lat="43.4676148" lon="10.7214485"><ele>166.0</ele><time>2026-04-04T13:48:17.966Z</time></trkpt><trkpt lat="43.4677034" lon="10.721503"><ele>166.0</ele><time>2026-04-04T13:48:18.961Z</time></trkpt><trkpt lat="43.4677905" lon="10.7215681"><ele>166.0</ele><time>2026-04-04T13:48:19.959Z</time></trkpt><trkpt lat="43.4678863" lon="10.7216354"><ele>166.0</ele><time>2026-04-04T13:48:20.976Z</time></trkpt><trkpt lat="43.4679941" lon="10.7217068"><ele>166.0</ele><time>2026-04-04T13:48:21.962Z</time></trkpt><trkpt lat="43.4681142" lon="10.7217838"><ele>166.0</ele><time>2026-04-04T13:48:22.974Z</time></trkpt><trkpt lat="43.4682447" lon="10.7218684"><ele>166.0</ele><time>2026-04-04T13:48:23.972Z</time></trkpt><trkpt lat="43.4683849" lon="10.7219616"><ele>166.0</ele><time>2026-04-04T13:48:24.976Z</time></trkpt><trkpt lat="43.4685344" lon="10.7220537"><ele>166.0</ele><time>2026-04-04T13:48:25.971Z</time></trkpt><trkpt lat="43.4686882" lon="10.7221371"><ele>166.0</ele><time>2026-04-04T13:48:26.97Z</time></trkpt><trkpt lat="43.468845" lon="10.7221931"><ele>166.0</ele><time>2026-04-04T13:48:27.974Z</time></trkpt><trkpt lat="43.4690055" lon="10.7222145"><ele>168.0</ele><time>2026-04-04T13:48:28.969Z</time></trkpt><trkpt lat="43.4691628" lon="10.7222211"><ele>170.0</ele><time>2026-04-04T13:48:29.957Z</time></trkpt><trkpt lat="43.4692984" lon="10.7222492"><ele>172.0</ele><time>2026-04-04T13:48:30.966Z</time></trkpt><trkpt lat="43.4694242" lon="10.7223212"><ele>174.0</ele><time>2026-04-04T13:48:31.97Z</time></trkpt><trkpt lat="43.4695435" lon="10.7224122"><ele>173.5</ele><time>2026-04-04T13:48:32.96Z</time></trkpt><trkpt lat="43.4696252" lon="10.7225455"><ele>173.0</ele><time>2026-04-04T13:48:33.974Z</time></trkpt><trkpt lat="43.4696737" lon="10.7226978"><ele>172.5</ele><time>2026-04-04T13:48:34.966Z</time></trkpt><trkpt lat="43.4696988" lon="10.7228824"><ele>172.0</ele><time>2026-04-04T13:48:35.953Z</time></trkpt><trkpt lat="43.4697181" lon="10.7230739"><ele>172.0</ele><time>2026-04-04T13:48:36.969Z</time></trkpt><trkpt lat="43.4697092" lon="10.7232882"><ele>172.0</ele><time>2026-04-04T13:48:37.969Z</time></trkpt><trkpt lat="43.4697088" lon="10.7235"><ele>172.0</ele><time>2026-04-04T13:48:38.973Z</time></trkpt><trkpt lat="43.4697184" lon="10.7237041"><ele>171.75</ele><time>2026-04-04T13:48:39.972Z</time></trkpt><trkpt lat="43.4697318" lon="10.7239006"><ele>171.5</ele><time>2026-04-04T13:48:40.973Z</time></trkpt><trkpt lat="43.4697584" lon="10.7240898"><ele>171.25</ele><time>2026-04-04T13:48:41.96Z</time></trkpt><trkpt lat="43.4698041" lon="10.7242768"><ele>171.0</ele><time>2026-04-04T13:48:42.968Z</time></trkpt><trkpt lat="43.4698589" lon="10.7244627"><ele>171.0</ele><time>2026-04-04T13:48:43.973Z</time></trkpt><trkpt lat="43.4699138" lon="10.7246496"><ele>171.0</ele><time>2026-04-04T13:48:44.961Z</time></trkpt><trkpt lat="43.4699727" lon="10.7248353"><ele>171.0</ele><time>2026-04-04T13:48:45.968Z</time></trkpt><trkpt lat="43.4700344" lon="10.7250152"><ele>171.0</ele><time>2026-04-04T13:48:46.972Z</time></trkpt><trkpt lat="43.470099" lon="10.7251894"><ele>172.0</ele><time>2026-04-04T13:48:47.97Z</time></trkpt><trkpt lat="43.4701685" lon="10.7253574"><ele>173.0</ele><time>2026-04-04T13:48:48.954Z</time></trkpt><trkpt lat="43.4702463" lon="10.7255177"><ele>174.0</ele><time>2026-04-04T13:48:49.976Z</time></trkpt><trkpt lat="43.470336" lon="10.7256653"><ele>175.0</ele><time>2026-04-04T13:48:50.962Z</time></trkpt><trkpt lat="43.4704391" lon="10.7258019"><ele>175.0</ele><time>2026-04-04T13:48:51.957Z</time></trkpt><trkpt lat="43.4705507" lon="10.7259345"><ele>175.0</ele><time>2026-04-04T13:48:52.958Z</time></trkpt><trkpt lat="43.4706667" lon="10.7260692"><ele>175.0</ele><time>2026-04-04T13:48:53.957Z</time></trkpt><trkpt lat="43.4707856" lon="10.7262036"><ele>178.0</ele><time>2026-04-04T13:48:54.976Z</time></trkpt><trkpt lat="43.4709097" lon="10.7263248"><ele>181.0</ele><time>2026-04-04T13:48:55.969Z</time></trkpt><trkpt lat="43.4710354" lon="10.7264294"><ele>184.0</ele><time>2026-04-04T13:48:56.966Z</time></trkpt><trkpt lat="43.4711861" lon="10.7264872"><ele>184.33333333333334</ele><time>2026-04-04T13:48:57.971Z</time></trkpt><trkpt lat="43.471346" lon="10.7265403"><ele>184.66666666666666</ele><time>2026-04-04T13:48:58.975Z</time></trkpt><trkpt lat="43.4715046" lon="10.7265966"><ele>185.0</ele><time>2026-04-04T13:48:59.978Z</time></trkpt><trkpt lat="43.4716613" lon="10.7266536"><ele>185.0</ele><time>2026-04-04T13:49:00.975Z</time></trkpt><trkpt lat="43.4718108" lon="10.7267103"><ele>185.0</ele><time>2026-04-04T13:49:01.969Z</time></trkpt><trkpt lat="43.4719451" lon="10.726757"><ele>185.0</ele><time>2026-04-04T13:49:02.966Z</time></trkpt><trkpt lat="43.4720594" lon="10.7267985"><ele>185.0</ele><time>2026-04-04T13:49:03.967Z</time></trkpt><trkpt lat="43.4721605" lon="10.7268275"><ele>185.16666666666666</ele><time>2026-04-04T13:49:04.966Z</time></trkpt><trkpt lat="43.4722404" lon="10.7268579"><ele>185.33333333333331</ele><time>2026-04-04T13:49:05.972Z</time></trkpt><trkpt lat="43.4722991" lon="10.7269169"><ele>185.5</ele><time>2026-04-04T13:49:06.955Z</time></trkpt><trkpt lat="43.4723156" lon="10.7270085"><ele>185.66666666666666</ele><time>2026-04-04T13:49:07.965Z</time></trkpt><trkpt lat="43.4722924" lon="10.7271103"><ele>185.83333333333334</ele><time>2026-04-04T13:49:08.955Z</time></trkpt><trkpt lat="43.4722528" lon="10.7272184"><ele>186.0</ele><time>2026-04-04T13:49:09.965Z</time></trkpt><trkpt lat="43.4722004" lon="10.7273311"><ele>188.5</ele><time>2026-04-04T13:49:10.96Z</time></trkpt><trkpt lat="43.4721424" lon="10.7274662"><ele>191.0</ele><time>2026-04-04T13:49:11.959Z</time></trkpt><trkpt lat="43.4720847" lon="10.7276033"><ele>193.5</ele><time>2026-04-04T13:49:12.968Z</time></trkpt><trkpt lat="43.4720291" lon="10.7277436"><ele>196.0</ele><time>2026-04-04T13:49:13.958Z</time></trkpt><trkpt lat="43.4719774" lon="10.7278815"><ele>197.8</ele><time>2026-04-04T13:49:14.968Z</time></trkpt><trkpt lat="43.4719287" lon="10.72801"><ele>199.60000000000002</ele><time>2026-04-04T13:49:15.963Z</time></trkpt><trkpt lat="43.4718941" lon="10.7281324"><ele>201.4</ele><time>2026-04-04T13:49:16.968Z</time></trkpt><trkpt lat="43.4718767" lon="10.728227"><ele>203.2</ele><time>2026-04-04T13:49:17.965Z</time></trkpt><trkpt lat="43.4718887" lon="10.7283378"><ele>205.0</ele><time>2026-04-04T13:49:20.955Z</time></trkpt><trkpt lat="43.4717953" lon="10.7283981"><ele>204.99999999999997</ele><time>2026-04-04T13:50:19.956Z</time></trkpt><trkpt lat="43.4717261" lon="10.7284219"><ele>205.0</ele><time>2026-04-04T13:50:20.965Z</time></trkpt><trkpt lat="43.4716602" lon="10.7284539"><ele>205.0</ele><time>2026-04-04T13:50:21.959Z</time></trkpt><trkpt lat="43.471596" lon="10.7284883"><ele>205.0</ele><time>2026-04-04T13:50:22.97Z</time></trkpt><trkpt lat="43.4715259" lon="10.7285243"><ele>204.99999999999997</ele><time>2026-04-04T13:50:23.97Z</time></trkpt><trkpt lat="43.471449" lon="10.7285566"><ele>205.0</ele><time>2026-04-04T13:50:24.954Z</time></trkpt><trkpt lat="43.4713649" lon="10.728591"><ele>204.8</ele><time>2026-04-04T13:50:25.967Z</time></trkpt><trkpt lat="43.4712762" lon="10.7286311"><ele>204.6</ele><time>2026-04-04T13:50:26.968Z</time></trkpt><trkpt lat="43.4711886" lon="10.7286803"><ele>204.39999999999998</ele><time>2026-04-04T13:50:27.97Z</time></trkpt><trkpt lat="43.471094" lon="10.7287368"><ele>204.2</ele><time>2026-04-04T13:50:28.953Z</time></trkpt><trkpt lat="43.470995" lon="10.7288103"><ele>204.0</ele><time>2026-04-04T13:50:29.974Z</time></trkpt><trkpt lat="43.4709057" lon="10.728893"><ele>204.0</ele><time>2026-04-04T13:50:30.954Z</time></trkpt><trkpt lat="43.4708223" lon="10.7289659"><ele>204.0</ele><time>2026-04-04T13:50:31.969Z</time></trkpt><trkpt lat="43.4707416" lon="10.7290419"><ele>204.0</ele><time>2026-04-04T13:50:32.973Z</time></trkpt><trkpt lat="43.470666" lon="10.7291113"><ele>204.0</ele><time>2026-04-04T13:50:33.967Z</time></trkpt><trkpt lat="43.4705899" lon="10.729171"><ele>204.0</ele><time>2026-04-04T13:50:34.972Z</time></trkpt><trkpt lat="43.4705189" lon="10.7292328"><ele>204.0</ele><time>2026-04-04T13:50:35.959Z</time></trkpt><trkpt lat="43.4704416" lon="10.7292916"><ele>204.0</ele><time>2026-04-04T13:50:36.966Z</time></trkpt><trkpt lat="43.4703621" lon="10.7293565"><ele>204.0</ele><time>2026-04-04T13:50:37.967Z</time></trkpt><trkpt lat="43.4702746" lon="10.7294283"><ele>204.0</ele><time>2026-04-04T13:50:38.968Z</time></trkpt><trkpt lat="43.4701875" lon="10.7295011"><ele>204.0</ele><time>2026-04-04T13:50:39.964Z</time></trkpt><trkpt lat="43.470112" lon="10.7295762"><ele>204.33333333333334</ele><time>2026-04-04T13:50:40.956Z</time></trkpt><trkpt lat="43.4700492" lon="10.7296503"><ele>204.66666666666669</ele><time>2026-04-04T13:50:41.969Z</time></trkpt><trkpt lat="43.4700016" lon="10.7297324"><ele>205.0</ele><time>2026-04-04T13:50:42.968Z</time></trkpt><trkpt lat="43.4699709" lon="10.7298129"><ele>205.33333333333334</ele><time>2026-04-04T13:50:43.975Z</time></trkpt><trkpt lat="43.4699491" lon="10.7299684"><ele>205.66666666666669</ele><time>2026-04-04T13:50:45.962Z</time></trkpt><trkpt lat="43.4699349" lon="10.7300912"><ele>206.0</ele><time>2026-04-04T13:50:47.961Z</time></trkpt><trkpt lat="43.4699791" lon="10.7301621"><ele>206.00000000000003</ele><time>2026-04-04T13:50:50.974Z</time></trkpt><trkpt lat="43.4699927" lon="10.7300719"><ele>206.0</ele><time>2026-04-04T13:50:54.962Z</time></trkpt><trkpt lat="43.4699727" lon="10.7299536"><ele>206.0</ele><time>2026-04-04T13:50:57.958Z</time></trkpt><trkpt lat="43.469971" lon="10.729833"><ele>206.0</ele><time>2026-04-04T13:50:59.955Z</time></trkpt><trkpt lat="43.4700081" lon="10.7296916"><ele>206.00000000000003</ele><time>2026-04-04T13:51:01.967Z</time></trkpt><trkpt lat="43.4700605" lon="10.7296151"><ele>206.0</ele><time>2026-04-04T13:51:02.963Z</time></trkpt><trkpt lat="43.4701257" lon="10.7295472"><ele>206.0</ele><time>2026-04-04T13:51:03.963Z</time></trkpt><trkpt lat="43.4701945" lon="10.7294845"><ele>206.0</ele><time>2026-04-04T13:51:04.964Z</time></trkpt><trkpt lat="43.4702609" lon="10.7294248"><ele>206.0</ele><time>2026-04-04T13:51:05.963Z</time></trkpt><trkpt lat="43.4703196" lon="10.7293746"><ele>206.0</ele><time>2026-04-04T13:51:06.969Z</time></trkpt><trkpt lat="43.4704264" lon="10.7293429"><ele>206.0</ele><time>2026-04-04T13:51:08.959Z</time></trkpt><trkpt lat="43.4704893" lon="10.7294767"><ele>204.50000000000003</ele><time>2026-04-04T13:51:10.957Z</time></trkpt><trkpt lat="43.4705085" lon="10.7295751"><ele>203.0</ele><time>2026-04-04T13:51:11.951Z</time></trkpt><trkpt lat="43.4705318" lon="10.7296822"><ele>201.5</ele><time>2026-04-04T13:51:12.963Z</time></trkpt><trkpt lat="43.4705568" lon="10.7297897"><ele>200.0</ele><time>2026-04-04T13:51:13.964Z</time></trkpt><trkpt lat="43.470583" lon="10.7299051"><ele>198.50000000000003</ele><time>2026-04-04T13:51:14.96Z</time></trkpt><trkpt lat="43.4706069" lon="10.7300258"><ele>197.0</ele><time>2026-04-04T13:51:15.965Z</time></trkpt><trkpt lat="43.4706297" lon="10.7301528"><ele>197.0</ele><time>2026-04-04T13:51:16.97Z</time></trkpt><trkpt lat="43.4706527" lon="10.7302808"><ele>197.0</ele><time>2026-04-04T13:51:17.971Z</time></trkpt><trkpt lat="43.4706773" lon="10.7304054"><ele>197.0</ele><time>2026-04-04T13:51:18.981Z</time></trkpt><trkpt lat="43.4707011" lon="10.7305276"><ele>197.0</ele><time>2026-04-04T13:51:19.959Z</time></trkpt><trkpt lat="43.4707148" lon="10.7306503"><ele>197.0</ele><time>2026-04-04T13:51:20.971Z</time></trkpt><trkpt lat="43.4707196" lon="10.7307816"><ele>197.0</ele><time>2026-04-04T13:51:21.977Z</time></trkpt><trkpt lat="43.4707121" lon="10.7309266"><ele>197.0</ele><time>2026-04-04T13:51:22.968Z</time></trkpt><trkpt lat="43.4706941" lon="10.731082"><ele>197.0</ele><time>2026-04-04T13:51:23.976Z</time></trkpt><trkpt lat="43.4706709" lon="10.7312461"><ele>197.0</ele><time>2026-04-04T13:51:24.974Z</time></trkpt><trkpt lat="43.470648" lon="10.7314186"><ele>196.75</ele><time>2026-04-04T13:51:25.965Z</time></trkpt><trkpt lat="43.4706257" lon="10.7315919"><ele>196.5</ele><time>2026-04-04T13:51:26.955Z</time></trkpt><trkpt lat="43.4706051" lon="10.7317667"><ele>196.25</ele><time>2026-04-04T13:51:27.969Z</time></trkpt><trkpt lat="43.4705798" lon="10.7319292"><ele>196.0</ele><time>2026-04-04T13:51:28.971Z</time></trkpt><trkpt lat="43.4705554" lon="10.7320882"><ele>193.75</ele><time>2026-04-04T13:51:29.964Z</time></trkpt><trkpt lat="43.4705235" lon="10.7322425"><ele>191.5</ele><time>2026-04-04T13:51:30.971Z</time></trkpt><trkpt lat="43.4704939" lon="10.7323931"><ele>189.25</ele><time>2026-04-04T13:51:31.967Z</time></trkpt><trkpt lat="43.4704679" lon="10.7325472"><ele>187.0</ele><time>2026-04-04T13:51:32.97Z</time></trkpt><trkpt lat="43.4704443" lon="10.7327106"><ele>183.75</ele><time>2026-04-04T13:51:33.966Z</time></trkpt><trkpt lat="43.470427" lon="10.7328812"><ele>180.5</ele><time>2026-04-04T13:51:34.966Z</time></trkpt><trkpt lat="43.4704111" lon="10.7330595"><ele>177.25</ele><time>2026-04-04T13:51:35.969Z</time></trkpt><trkpt lat="43.4704022" lon="10.7332438"><ele>174.0</ele><time>2026-04-04T13:51:36.969Z</time></trkpt><trkpt lat="43.4703877" lon="10.7334231"><ele>175.0</ele><time>2026-04-04T13:51:37.979Z</time></trkpt><trkpt lat="43.470372" lon="10.7335961"><ele>176.0</ele><time>2026-04-04T13:51:38.962Z</time></trkpt><trkpt lat="43.4703535" lon="10.7337678"><ele>177.0</ele><time>2026-04-04T13:51:39.961Z</time></trkpt><trkpt lat="43.4703328" lon="10.7339332"><ele>178.0</ele><time>2026-04-04T13:51:40.971Z</time></trkpt><trkpt lat="43.4703192" lon="10.7340926"><ele>178.0</ele><time>2026-04-04T13:51:41.971Z</time></trkpt><trkpt lat="43.4703041" lon="10.734243"><ele>178.0</ele><time>2026-04-04T13:51:42.948Z</time></trkpt><trkpt lat="43.470324" lon="10.7343896"><ele>178.0</ele><time>2026-04-04T13:51:43.963Z</time></trkpt><trkpt lat="43.4703498" lon="10.7345279"><ele>178.0</ele><time>2026-04-04T13:51:44.958Z</time></trkpt><trkpt lat="43.4703701" lon="10.7346583"><ele>178.0</ele><time>2026-04-04T13:51:45.967Z</time></trkpt><trkpt lat="43.4703901" lon="10.7347761"><ele>178.0</ele><time>2026-04-04T13:51:46.959Z</time></trkpt><trkpt lat="43.4703948" lon="10.734872"><ele>178.0</ele><time>2026-04-04T13:51:47.97Z</time></trkpt><trkpt lat="43.4703928" lon="10.7349615"><ele>178.0</ele><time>2026-04-04T13:51:48.967Z</time></trkpt><trkpt lat="43.4703907" lon="10.7350617"><ele>178.0</ele><time>2026-04-04T13:51:49.965Z</time></trkpt><trkpt lat="43.4703775" lon="10.7351723"><ele>178.0</ele><time>2026-04-04T13:51:50.96Z</time></trkpt><trkpt lat="43.4703596" lon="10.7352885"><ele>178.0</ele><time>2026-04-04T13:51:51.962Z</time></trkpt><trkpt lat="43.470341" lon="10.7354058"><ele>174.8</ele><time>2026-04-04T13:51:52.958Z</time></trkpt><trkpt lat="43.4703223" lon="10.7355314"><ele>171.60000000000002</ele><time>2026-04-04T13:51:53.96Z</time></trkpt><trkpt lat="43.4703053" lon="10.735658"><ele>168.39999999999998</ele><time>2026-04-04T13:51:54.969Z</time></trkpt><trkpt lat="43.4702883" lon="10.7357859"><ele>165.2</ele><time>2026-04-04T13:51:55.967Z</time></trkpt><trkpt lat="43.4702701" lon="10.7359095"><ele>162.0</ele><time>2026-04-04T13:51:56.954Z</time></trkpt><trkpt lat="43.4702361" lon="10.73602"><ele>160.6</ele><time>2026-04-04T13:51:57.973Z</time></trkpt><trkpt lat="43.4701908" lon="10.7361232"><ele>159.2</ele><time>2026-04-04T13:51:58.953Z</time></trkpt><trkpt lat="43.470137" lon="10.7362232"><ele>157.8</ele><time>2026-04-04T13:51:59.969Z</time></trkpt><trkpt lat="43.4700853" lon="10.736325"><ele>156.4</ele><time>2026-04-04T13:52:00.962Z</time></trkpt><trkpt lat="43.4700329" lon="10.7364412"><ele>155.0</ele><time>2026-04-04T13:52:01.953Z</time></trkpt><trkpt lat="43.4699769" lon="10.7365645"><ele>155.0</ele><time>2026-04-04T13:52:02.962Z</time></trkpt><trkpt lat="43.4699211" lon="10.7366974"><ele>155.0</ele><time>2026-04-04T13:52:03.96Z</time></trkpt><trkpt lat="43.4698642" lon="10.7368298"><ele>155.0</ele><time>2026-04-04T13:52:04.958Z</time></trkpt><trkpt lat="43.4698068" lon="10.736961"><ele>155.0</ele><time>2026-04-04T13:52:05.977Z</time></trkpt><trkpt lat="43.469742" lon="10.7370846"><ele>155.0</ele><time>2026-04-04T13:52:06.971Z</time></trkpt><trkpt lat="43.4696719" lon="10.7372044"><ele>151.25</ele><time>2026-04-04T13:52:07.961Z</time></trkpt><trkpt lat="43.4696044" lon="10.7373367"><ele>147.5</ele><time>2026-04-04T13:52:08.975Z</time></trkpt><trkpt lat="43.4695382" lon="10.7374749"><ele>143.75</ele><time>2026-04-04T13:52:09.964Z</time></trkpt><trkpt lat="43.4694725" lon="10.7376135"><ele>140.0</ele><time>2026-04-04T13:52:10.972Z</time></trkpt><trkpt lat="43.4694032" lon="10.7377431"><ele>140.0</ele><time>2026-04-04T13:52:11.968Z</time></trkpt><trkpt lat="43.4693238" lon="10.7378561"><ele>140.0</ele><time>2026-04-04T13:52:12.956Z</time></trkpt><trkpt lat="43.4692336" lon="10.7379506"><ele>140.0</ele><time>2026-04-04T13:52:13.967Z</time></trkpt><trkpt lat="43.4691423" lon="10.7380412"><ele>140.0</ele><time>2026-04-04T13:52:14.957Z</time></trkpt><trkpt lat="43.4690307" lon="10.7380806"><ele>140.0</ele><time>2026-04-04T13:52:15.959Z</time></trkpt><trkpt lat="43.4689188" lon="10.7380979"><ele>140.0</ele><time>2026-04-04T13:52:16.963Z</time></trkpt><trkpt lat="43.4688148" lon="10.738103"><ele>140.0</ele><time>2026-04-04T13:52:17.972Z</time></trkpt><trkpt lat="43.4687198" lon="10.7381111"><ele>140.0</ele><time>2026-04-04T13:52:18.96Z</time></trkpt><trkpt lat="43.4686314" lon="10.7381247"><ele>140.0</ele><time>2026-04-04T13:52:19.971Z</time></trkpt><trkpt lat="43.4685519" lon="10.7381471"><ele>139.5</ele><time>2026-04-04T13:52:20.976Z</time></trkpt><trkpt lat="43.468481" lon="10.7381834"><ele>139.0</ele><time>2026-04-04T13:52:21.977Z</time></trkpt><trkpt lat="43.4684142" lon="10.7382363"><ele>138.5</ele><time>2026-04-04T13:52:22.97Z</time></trkpt><trkpt lat="43.468349" lon="10.7382998"><ele>138.0</ele><time>2026-04-04T13:52:23.972Z</time></trkpt><trkpt lat="43.4682892" lon="10.7383745"><ele>137.5</ele><time>2026-04-04T13:52:24.967Z</time></trkpt><trkpt lat="43.4682446" lon="10.7384667"><ele>137.0</ele><time>2026-04-04T13:52:25.976Z</time></trkpt><trkpt lat="43.4682258" lon="10.7385605"><ele>136.33333333333331</ele><time>2026-04-04T13:52:26.964Z</time></trkpt><trkpt lat="43.4682341" lon="10.7386515"><ele>135.66666666666666</ele><time>2026-04-04T13:52:27.963Z</time></trkpt><trkpt lat="43.4682611" lon="10.7387468"><ele>135.0</ele><time>2026-04-04T13:52:28.963Z</time></trkpt><trkpt lat="43.4683046" lon="10.7388454"><ele>134.33333333333334</ele><time>2026-04-04T13:52:29.96Z</time></trkpt><trkpt lat="43.4683592" lon="10.7389465"><ele>133.66666666666669</ele><time>2026-04-04T13:52:30.966Z</time></trkpt><trkpt lat="43.4684186" lon="10.739053"><ele>133.0</ele><time>2026-04-04T13:52:31.956Z</time></trkpt><trkpt lat="43.4684714" lon="10.7391691"><ele>133.0</ele><time>2026-04-04T13:52:32.97Z</time></trkpt><trkpt lat="43.4685093" lon="10.7392943"><ele>133.0</ele><time>2026-04-04T13:52:33.962Z</time></trkpt><trkpt lat="43.4685292" lon="10.7394212"><ele>133.0</ele><time>2026-04-04T13:52:34.953Z</time></trkpt><trkpt lat="43.4685343" lon="10.7395434"><ele>133.0</ele><time>2026-04-04T13:52:35.972Z</time></trkpt><trkpt lat="43.4685308" lon="10.7396706"><ele>133.0</ele><time>2026-04-04T13:52:36.977Z</time></trkpt><trkpt lat="43.4685229" lon="10.7398066"><ele>132.5</ele><time>2026-04-04T13:52:37.959Z</time></trkpt><trkpt lat="43.4685109" lon="10.7399517"><ele>132.0</ele><time>2026-04-04T13:52:38.965Z</time></trkpt><trkpt lat="43.4684962" lon="10.7401068"><ele>131.5</ele><time>2026-04-04T13:52:39.972Z</time></trkpt><trkpt lat="43.4684797" lon="10.7402682"><ele>131.0</ele><time>2026-04-04T13:52:40.968Z</time></trkpt><trkpt lat="43.4684587" lon="10.7404296"><ele>131.0</ele><time>2026-04-04T13:52:41.956Z</time></trkpt><trkpt lat="43.4684218" lon="10.7405819"><ele>131.0</ele><time>2026-04-04T13:52:42.967Z</time></trkpt><trkpt lat="43.4683622" lon="10.7407176"><ele>131.0</ele><time>2026-04-04T13:52:43.977Z</time></trkpt><trkpt lat="43.4682796" lon="10.7408432"><ele>131.0</ele><time>2026-04-04T13:52:44.957Z</time></trkpt><trkpt lat="43.4681853" lon="10.7409614"><ele>130.25</ele><time>2026-04-04T13:52:45.967Z</time></trkpt><trkpt lat="43.4680932" lon="10.741079"><ele>129.5</ele><time>2026-04-04T13:52:46.959Z</time></trkpt><trkpt lat="43.4680077" lon="10.7411995"><ele>128.75</ele><time>2026-04-04T13:52:47.961Z</time></trkpt><trkpt lat="43.4679299" lon="10.7413314"><ele>128.0</ele><time>2026-04-04T13:52:48.954Z</time></trkpt><trkpt lat="43.4678601" lon="10.7414779"><ele>129.25</ele><time>2026-04-04T13:52:49.961Z</time></trkpt><trkpt lat="43.4677978" lon="10.7416335"><ele>130.5</ele><time>2026-04-04T13:52:50.966Z</time></trkpt><trkpt lat="43.4677391" lon="10.7417961"><ele>131.75</ele><time>2026-04-04T13:52:51.972Z</time></trkpt><trkpt lat="43.4676789" lon="10.7419641"><ele>133.0</ele><time>2026-04-04T13:52:52.952Z</time></trkpt><trkpt lat="43.4676169" lon="10.7421339"><ele>133.0</ele><time>2026-04-04T13:52:53.965Z</time></trkpt><trkpt lat="43.4675534" lon="10.7423039"><ele>133.0</ele><time>2026-04-04T13:52:54.955Z</time></trkpt><trkpt lat="43.4674897" lon="10.7424749"><ele>133.0</ele><time>2026-04-04T13:52:55.969Z</time></trkpt><trkpt lat="43.4674336" lon="10.7426527"><ele>133.0</ele><time>2026-04-04T13:52:56.96Z</time></trkpt><trkpt lat="43.4673905" lon="10.7428424"><ele>133.5</ele><time>2026-04-04T13:52:57.95Z</time></trkpt><trkpt lat="43.4673608" lon="10.7430436"><ele>134.0</ele><time>2026-04-04T13:52:58.967Z</time></trkpt><trkpt lat="43.4673379" lon="10.7432473"><ele>134.5</ele><time>2026-04-04T13:52:59.962Z</time></trkpt><trkpt lat="43.4673139" lon="10.743447"><ele>135.0</ele><time>2026-04-04T13:53:00.957Z</time></trkpt><trkpt lat="43.4672899" lon="10.7436348"><ele>135.0</ele><time>2026-04-04T13:53:01.972Z</time></trkpt><trkpt lat="43.4672699" lon="10.7438019"><ele>135.0</ele><time>2026-04-04T13:53:02.963Z</time></trkpt><trkpt lat="43.467256" lon="10.7439503"><ele>135.0</ele><time>2026-04-04T13:53:03.969Z</time></trkpt><trkpt lat="43.4672529" lon="10.7440824"><ele>135.0</ele><time>2026-04-04T13:53:04.969Z</time></trkpt><trkpt lat="43.46727" lon="10.744206"><ele>135.0</ele><time>2026-04-04T13:53:05.967Z</time></trkpt><trkpt lat="43.4673124" lon="10.7443181"><ele>136.25</ele><time>2026-04-04T13:53:06.953Z</time></trkpt><trkpt lat="43.4673807" lon="10.7444151"><ele>137.5</ele><time>2026-04-04T13:53:07.963Z</time></trkpt><trkpt lat="43.4674746" lon="10.744501"><ele>138.75</ele><time>2026-04-04T13:53:08.959Z</time></trkpt><trkpt lat="43.4675942" lon="10.7445904"><ele>140.0</ele><time>2026-04-04T13:53:09.955Z</time></trkpt><trkpt lat="43.4677272" lon="10.7446926"><ele>140.0</ele><time>2026-04-04T13:53:10.949Z</time></trkpt><trkpt lat="43.4678544" lon="10.7447958"><ele>140.0</ele><time>2026-04-04T13:53:11.952Z</time></trkpt><trkpt lat="43.4679749" lon="10.7448987"><ele>140.0</ele><time>2026-04-04T13:53:12.962Z</time></trkpt><trkpt lat="43.4680851" lon="10.7449924"><ele>140.0</ele><time>2026-04-04T13:53:13.974Z</time></trkpt><trkpt lat="43.4681763" lon="10.745099"><ele>138.75</ele><time>2026-04-04T13:53:14.951Z</time></trkpt><trkpt lat="43.4682542" lon="10.7452207"><ele>137.5</ele><time>2026-04-04T13:53:15.96Z</time></trkpt><trkpt lat="43.4683207" lon="10.7453624"><ele>136.25</ele><time>2026-04-04T13:53:16.975Z</time></trkpt><trkpt lat="43.468379" lon="10.7455257"><ele>135.0</ele><time>2026-04-04T13:53:17.967Z</time></trkpt><trkpt lat="43.4684341" lon="10.7457195"><ele>135.0</ele><time>2026-04-04T13:53:18.972Z</time></trkpt><trkpt lat="43.4684833" lon="10.7459189"><ele>135.0</ele><time>2026-04-04T13:53:19.968Z</time></trkpt><trkpt lat="43.4685301" lon="10.7461077"><ele>135.0</ele><time>2026-04-04T13:53:20.953Z</time></trkpt><trkpt lat="43.468577" lon="10.7462841"><ele>135.0</ele><time>2026-04-04T13:53:21.968Z</time></trkpt><trkpt lat="43.4686231" lon="10.7464498"><ele>135.25</ele><time>2026-04-04T13:53:22.946Z</time></trkpt><trkpt lat="43.4686718" lon="10.7466021"><ele>135.5</ele><time>2026-04-04T13:53:23.948Z</time></trkpt><trkpt lat="43.468734" lon="10.7467402"><ele>135.75</ele><time>2026-04-04T13:53:24.977Z</time></trkpt><trkpt lat="43.4688142" lon="10.7468622"><ele>136.0</ele><time>2026-04-04T13:53:25.963Z</time></trkpt><trkpt lat="43.4689159" lon="10.7469796"><ele>133.33333333333334</ele><time>2026-04-04T13:53:26.969Z</time></trkpt><trkpt lat="43.4690349" lon="10.7471013"><ele>130.66666666666666</ele><time>2026-04-04T13:53:27.971Z</time></trkpt><trkpt lat="43.4691708" lon="10.7472253"><ele>128.0</ele><time>2026-04-04T13:53:28.961Z</time></trkpt><trkpt lat="43.4693164" lon="10.7473524"><ele>128.0</ele><time>2026-04-04T13:53:29.957Z</time></trkpt><trkpt lat="43.4694593" lon="10.74748"><ele>128.0</ele><time>2026-04-04T13:53:30.965Z</time></trkpt><trkpt lat="43.4695976" lon="10.7476097"><ele>128.0</ele><time>2026-04-04T13:53:31.973Z</time></trkpt><trkpt lat="43.4697312" lon="10.7477347"><ele>125.66666666666666</ele><time>2026-04-04T13:53:32.965Z</time></trkpt><trkpt lat="43.4698628" lon="10.7478498"><ele>123.33333333333334</ele><time>2026-04-04T13:53:33.969Z</time></trkpt><trkpt lat="43.4699965" lon="10.7479538"><ele>121.0</ele><time>2026-04-04T13:53:34.975Z</time></trkpt><trkpt lat="43.4701318" lon="10.7480475"><ele>121.0</ele><time>2026-04-04T13:53:35.958Z</time></trkpt><trkpt lat="43.4702725" lon="10.748134"><ele>121.0</ele><time>2026-04-04T13:53:36.961Z</time></trkpt><trkpt lat="43.4704159" lon="10.748218"><ele>121.0</ele><time>2026-04-04T13:53:37.957Z</time></trkpt><trkpt lat="43.4705619" lon="10.7483016"><ele>121.33333333333334</ele><time>2026-04-04T13:53:38.967Z</time></trkpt><trkpt lat="43.4707052" lon="10.7483855"><ele>121.66666666666666</ele><time>2026-04-04T13:53:39.962Z</time></trkpt><trkpt lat="43.4708439" lon="10.7484749"><ele>122.0</ele><time>2026-04-04T13:53:40.969Z</time></trkpt><trkpt lat="43.4709732" lon="10.748571"><ele>121.75</ele><time>2026-04-04T13:53:41.958Z</time></trkpt><trkpt lat="43.4710892" lon="10.7486775"><ele>121.5</ele><time>2026-04-04T13:53:42.953Z</time></trkpt><trkpt lat="43.4711921" lon="10.7488023"><ele>121.25</ele><time>2026-04-04T13:53:43.97Z</time></trkpt><trkpt lat="43.4712804" lon="10.748945"><ele>121.0</ele><time>2026-04-04T13:53:44.96Z</time></trkpt><trkpt lat="43.4713605" lon="10.7491081"><ele>121.0</ele><time>2026-04-04T13:53:45.973Z</time></trkpt><trkpt lat="43.471441" lon="10.7492897"><ele>121.0</ele><time>2026-04-04T13:53:46.969Z</time></trkpt><trkpt lat="43.4715199" lon="10.7494911"><ele>121.0</ele><time>2026-04-04T13:53:47.971Z</time></trkpt><trkpt lat="43.4715993" lon="10.7497005"><ele>121.66666666666667</ele><time>2026-04-04T13:53:48.956Z</time></trkpt><trkpt lat="43.4716776" lon="10.7499047"><ele>122.33333333333334</ele><time>2026-04-04T13:53:49.972Z</time></trkpt><trkpt lat="43.4717505" lon="10.7501018"><ele>123.0</ele><time>2026-04-04T13:53:50.959Z</time></trkpt><trkpt lat="43.4718163" lon="10.7502976"><ele>123.0</ele><time>2026-04-04T13:53:51.955Z</time></trkpt><trkpt lat="43.4718745" lon="10.7504943"><ele>123.0</ele><time>2026-04-04T13:53:52.955Z</time></trkpt><trkpt lat="43.4719279" lon="10.7506938"><ele>123.0</ele><time>2026-04-04T13:53:53.964Z</time></trkpt><trkpt lat="43.4719788" lon="10.7508935"><ele>123.33333333333334</ele><time>2026-04-04T13:53:54.96Z</time></trkpt><trkpt lat="43.472029" lon="10.7510936"><ele>123.66666666666667</ele><time>2026-04-04T13:53:55.972Z</time></trkpt><trkpt lat="43.4720815" lon="10.7512926"><ele>124.0</ele><time>2026-04-04T13:53:56.955Z</time></trkpt><trkpt lat="43.472135" lon="10.7514906"><ele>124.0</ele><time>2026-04-04T13:53:57.966Z</time></trkpt><trkpt lat="43.4721888" lon="10.7516869"><ele>124.0</ele><time>2026-04-04T13:53:58.959Z</time></trkpt><trkpt lat="43.4722429" lon="10.7518846"><ele>124.0</ele><time>2026-04-04T13:53:59.956Z</time></trkpt><trkpt lat="43.4722989" lon="10.7520857"><ele>124.66666666666667</ele><time>2026-04-04T13:54:00.968Z</time></trkpt><trkpt lat="43.472354" lon="10.7522912"><ele>125.33333333333334</ele><time>2026-04-04T13:54:01.977Z</time></trkpt><trkpt lat="43.472409" lon="10.7524997"><ele>126.0</ele><time>2026-04-04T13:54:02.961Z</time></trkpt><trkpt lat="43.4724628" lon="10.7527062"><ele>126.0</ele><time>2026-04-04T13:54:03.979Z</time></trkpt><trkpt lat="43.4725185" lon="10.7529093"><ele>126.0</ele><time>2026-04-04T13:54:04.968Z</time></trkpt><trkpt lat="43.4725742" lon="10.7531107"><ele>126.0</ele><time>2026-04-04T13:54:05.974Z</time></trkpt><trkpt lat="43.4726278" lon="10.7533129"><ele>126.0</ele><time>2026-04-04T13:54:06.956Z</time></trkpt><trkpt lat="43.4726792" lon="10.7535172"><ele>126.0</ele><time>2026-04-04T13:54:07.976Z</time></trkpt><trkpt lat="43.4727311" lon="10.7537238"><ele>126.0</ele><time>2026-04-04T13:54:08.961Z</time></trkpt><trkpt lat="43.4727848" lon="10.7539304"><ele>126.0</ele><time>2026-04-04T13:54:09.972Z</time></trkpt><trkpt lat="43.4728416" lon="10.7541333"><ele>126.0</ele><time>2026-04-04T13:54:10.978Z</time></trkpt><trkpt lat="43.4729051" lon="10.7543318"><ele>126.0</ele><time>2026-04-04T13:54:11.962Z</time></trkpt><trkpt lat="43.4729768" lon="10.7545267"><ele>126.0</ele><time>2026-04-04T13:54:12.971Z</time></trkpt><trkpt lat="43.4730532" lon="10.7547204"><ele>126.0</ele><time>2026-04-04T13:54:13.972Z</time></trkpt><trkpt lat="43.4731302" lon="10.7549145"><ele>126.0</ele><time>2026-04-04T13:54:14.977Z</time></trkpt><trkpt lat="43.4732076" lon="10.7551094"><ele>126.33333333333334</ele><time>2026-04-04T13:54:15.96Z</time></trkpt><trkpt lat="43.4732808" lon="10.7553056"><ele>126.66666666666667</ele><time>2026-04-04T13:54:16.974Z</time></trkpt><trkpt lat="43.4733462" lon="10.7555042"><ele>127.0</ele><time>2026-04-04T13:54:17.964Z</time></trkpt><trkpt lat="43.4734077" lon="10.755704"><ele>127.0</ele><time>2026-04-04T13:54:18.96Z</time></trkpt><trkpt lat="43.4734696" lon="10.7559006"><ele>127.0</ele><time>2026-04-04T13:54:19.968Z</time></trkpt><trkpt lat="43.4735309" lon="10.7560923"><ele>127.0</ele><time>2026-04-04T13:54:20.977Z</time></trkpt><trkpt lat="43.4735926" lon="10.7562792"><ele>126.75</ele><time>2026-04-04T13:54:21.975Z</time></trkpt><trkpt lat="43.4736547" lon="10.7564592"><ele>126.5</ele><time>2026-04-04T13:54:22.958Z</time></trkpt><trkpt lat="43.4737191" lon="10.7566224"><ele>126.25</ele><time>2026-04-04T13:54:23.971Z</time></trkpt><trkpt lat="43.4737898" lon="10.7567669"><ele>126.0</ele><time>2026-04-04T13:54:24.964Z</time></trkpt><trkpt lat="43.4738718" lon="10.7569015"><ele>126.5</ele><time>2026-04-04T13:54:25.971Z</time></trkpt><trkpt lat="43.4739703" lon="10.7570348"><ele>127.0</ele><time>2026-04-04T13:54:26.96Z</time></trkpt><trkpt lat="43.4740839" lon="10.7571659"><ele>127.5</ele><time>2026-04-04T13:54:27.961Z</time></trkpt><trkpt lat="43.4742028" lon="10.7572897"><ele>128.0</ele><time>2026-04-04T13:54:28.965Z</time></trkpt><trkpt lat="43.4743219" lon="10.7574112"><ele>128.0</ele><time>2026-04-04T13:54:29.965Z</time></trkpt><trkpt lat="43.4744363" lon="10.757529"><ele>128.0</ele><time>2026-04-04T13:54:30.973Z</time></trkpt><trkpt lat="43.4745472" lon="10.7576448"><ele>128.0</ele><time>2026-04-04T13:54:31.974Z</time></trkpt><trkpt lat="43.474652" lon="10.757754"><ele>128.0</ele><time>2026-04-04T13:54:32.971Z</time></trkpt><trkpt lat="43.4747478" lon="10.757849"><ele>126.60000000000001</ele><time>2026-04-04T13:54:33.966Z</time></trkpt><trkpt lat="43.4748325" lon="10.7579212"><ele>125.20000000000002</ele><time>2026-04-04T13:54:34.974Z</time></trkpt><trkpt lat="43.4749051" lon="10.7580015"><ele>123.8</ele><time>2026-04-04T13:54:35.968Z</time></trkpt><trkpt lat="43.4749692" lon="10.758103"><ele>122.4</ele><time>2026-04-04T13:54:36.968Z</time></trkpt><trkpt lat="43.4750287" lon="10.7582158"><ele>121.0</ele><time>2026-04-04T13:54:37.97Z</time></trkpt><trkpt lat="43.4750754" lon="10.7583428"><ele>121.0</ele><time>2026-04-04T13:54:38.956Z</time></trkpt><trkpt lat="43.4751014" lon="10.758473"><ele>121.0</ele><time>2026-04-04T13:54:39.959Z</time></trkpt><trkpt lat="43.475129" lon="10.7586115"><ele>121.0</ele><time>2026-04-04T13:54:40.971Z</time></trkpt><trkpt lat="43.4751551" lon="10.7587477"><ele>121.0</ele><time>2026-04-04T13:54:41.967Z</time></trkpt><trkpt lat="43.4751796" lon="10.7588869"><ele>121.0</ele><time>2026-04-04T13:54:42.975Z</time></trkpt><trkpt lat="43.4751972" lon="10.7590309"><ele>119.8</ele><time>2026-04-04T13:54:43.951Z</time></trkpt><trkpt lat="43.4752102" lon="10.7591796"><ele>118.6</ele><time>2026-04-04T13:54:44.964Z</time></trkpt><trkpt lat="43.475219" lon="10.7593296"><ele>117.4</ele><time>2026-04-04T13:54:45.961Z</time></trkpt><trkpt lat="43.4752255" lon="10.7594754"><ele>116.2</ele><time>2026-04-04T13:54:46.977Z</time></trkpt><trkpt lat="43.4752318" lon="10.7596162"><ele>115.0</ele><time>2026-04-04T13:54:47.959Z</time></trkpt><trkpt lat="43.4752377" lon="10.7597516"><ele>114.6</ele><time>2026-04-04T13:54:48.971Z</time></trkpt><trkpt lat="43.4752437" lon="10.7598872"><ele>114.2</ele><time>2026-04-04T13:54:49.961Z</time></trkpt><trkpt lat="43.4752527" lon="10.7600111"><ele>113.80000000000001</ele><time>2026-04-04T13:54:50.965Z</time></trkpt><trkpt lat="43.4752525" lon="10.7601442"><ele>113.4</ele><time>2026-04-04T13:54:51.95Z</time></trkpt><trkpt lat="43.4752538" lon="10.7602953"><ele>113.0</ele><time>2026-04-04T13:54:52.968Z</time></trkpt><trkpt lat="43.4752476" lon="10.7604537"><ele>111.5</ele><time>2026-04-04T13:54:53.97Z</time></trkpt><trkpt lat="43.4752322" lon="10.7606145"><ele>110.0</ele><time>2026-04-04T13:54:54.972Z</time></trkpt><trkpt lat="43.475208" lon="10.7607672"><ele>108.5</ele><time>2026-04-04T13:54:55.966Z</time></trkpt><trkpt lat="43.4751648" lon="10.7609099"><ele>107.0</ele><time>2026-04-04T13:54:56.963Z</time></trkpt><trkpt lat="43.4750987" lon="10.7610503"><ele>104.0</ele><time>2026-04-04T13:54:57.965Z</time></trkpt><trkpt lat="43.475017" lon="10.761177"><ele>101.0</ele><time>2026-04-04T13:54:58.978Z</time></trkpt><trkpt lat="43.4749211" lon="10.7612867"><ele>98.0</ele><time>2026-04-04T13:54:59.965Z</time></trkpt><trkpt lat="43.4748161" lon="10.7613847"><ele>95.0</ele><time>2026-04-04T13:55:00.952Z</time></trkpt><trkpt lat="43.4747041" lon="10.761479"><ele>96.25</ele><time>2026-04-04T13:55:01.971Z</time></trkpt><trkpt lat="43.4745856" lon="10.7615764"><ele>97.5</ele><time>2026-04-04T13:55:02.975Z</time></trkpt><trkpt lat="43.4744653" lon="10.7616764"><ele>98.75</ele><time>2026-04-04T13:55:03.969Z</time></trkpt><trkpt lat="43.4743501" lon="10.7617795"><ele>100.0</ele><time>2026-04-04T13:55:04.98Z</time></trkpt><trkpt lat="43.4742362" lon="10.7618783"><ele>97.25</ele><time>2026-04-04T13:55:05.97Z</time></trkpt><trkpt lat="43.4741238" lon="10.7619766"><ele>94.5</ele><time>2026-04-04T13:55:06.961Z</time></trkpt><trkpt lat="43.4740139" lon="10.7620699"><ele>91.75</ele><time>2026-04-04T13:55:07.97Z</time></trkpt><trkpt lat="43.4739071" lon="10.7621576"><ele>89.0</ele><time>2026-04-04T13:55:08.967Z</time></trkpt><trkpt lat="43.473801" lon="10.7622439"><ele>89.0</ele><time>2026-04-04T13:55:09.982Z</time></trkpt><trkpt lat="43.473694" lon="10.7623264"><ele>89.0</ele><time>2026-04-04T13:55:10.973Z</time></trkpt><trkpt lat="43.4735876" lon="10.7624066"><ele>89.0</ele><time>2026-04-04T13:55:11.967Z</time></trkpt><trkpt lat="43.4734807" lon="10.7624869"><ele>89.0</ele><time>2026-04-04T13:55:12.962Z</time></trkpt><trkpt lat="43.4733716" lon="10.7625644"><ele>89.0</ele><time>2026-04-04T13:55:13.969Z</time></trkpt><trkpt lat="43.4732655" lon="10.7626467"><ele>89.0</ele><time>2026-04-04T13:55:14.969Z</time></trkpt><trkpt lat="43.4731752" lon="10.7627518"><ele>89.0</ele><time>2026-04-04T13:55:15.963Z</time></trkpt><trkpt lat="43.4731148" lon="10.7628775"><ele>89.0</ele><time>2026-04-04T13:55:16.982Z</time></trkpt><trkpt lat="43.4730804" lon="10.7630004"><ele>89.0</ele><time>2026-04-04T13:55:17.975Z</time></trkpt><trkpt lat="43.4730528" lon="10.763107"><ele>88.0</ele><time>2026-04-04T13:55:18.975Z</time></trkpt><trkpt lat="43.4730404" lon="10.7631985"><ele>87.0</ele><time>2026-04-04T13:55:19.975Z</time></trkpt><trkpt lat="43.4730269" lon="10.763291"><ele>86.0</ele><time>2026-04-04T13:55:22.97Z</time></trkpt><trkpt lat="43.4731044" lon="10.7633672"><ele>85.0</ele><time>2026-04-04T13:55:25.97Z</time></trkpt><trkpt lat="43.4732347" lon="10.7633871"><ele>84.0</ele><time>2026-04-04T13:55:27.96Z</time></trkpt><trkpt lat="43.4733208" lon="10.7633978"><ele>83.0</ele><time>2026-04-04T13:55:28.979Z</time></trkpt><trkpt lat="43.4734204" lon="10.7634136"><ele>83.0</ele><time>2026-04-04T13:55:29.967Z</time></trkpt><trkpt lat="43.4735295" lon="10.7634322"><ele>83.0</ele><time>2026-04-04T13:55:30.967Z</time></trkpt><trkpt lat="43.4736458" lon="10.7634503"><ele>83.0</ele><time>2026-04-04T13:55:31.97Z</time></trkpt><trkpt lat="43.4737748" lon="10.7634699"><ele>83.0</ele><time>2026-04-04T13:55:32.963Z</time></trkpt><trkpt lat="43.4739153" lon="10.7634903"><ele>82.75</ele><time>2026-04-04T13:55:33.969Z</time></trkpt><trkpt lat="43.4740621" lon="10.763512"><ele>82.5</ele><time>2026-04-04T13:55:34.974Z</time></trkpt><trkpt lat="43.4742104" lon="10.7635297"><ele>82.25</ele><time>2026-04-04T13:55:35.971Z</time></trkpt><trkpt lat="43.4743611" lon="10.7635353"><ele>82.0</ele><time>2026-04-04T13:55:36.966Z</time></trkpt><trkpt lat="43.4745183" lon="10.763525"><ele>82.33333333333333</ele><time>2026-04-04T13:55:37.972Z</time></trkpt><trkpt lat="43.4746793" lon="10.7635025"><ele>82.66666666666667</ele><time>2026-04-04T13:55:38.971Z</time></trkpt><trkpt lat="43.4748418" lon="10.7634696"><ele>83.0</ele><time>2026-04-04T13:55:39.954Z</time></trkpt><trkpt lat="43.4750105" lon="10.7634279"><ele>83.0</ele><time>2026-04-04T13:55:40.979Z</time></trkpt><trkpt lat="43.47518" lon="10.7633846"><ele>83.0</ele><time>2026-04-04T13:55:41.977Z</time></trkpt><trkpt lat="43.4753501" lon="10.7633355"><ele>83.0</ele><time>2026-04-04T13:55:42.974Z</time></trkpt><trkpt lat="43.4755191" lon="10.7632852"><ele>82.66666666666667</ele><time>2026-04-04T13:55:43.97Z</time></trkpt><trkpt lat="43.4756892" lon="10.7632342"><ele>82.33333333333333</ele><time>2026-04-04T13:55:44.958Z</time></trkpt><trkpt lat="43.4758585" lon="10.7631838"><ele>82.0</ele><time>2026-04-04T13:55:45.97Z</time></trkpt><trkpt lat="43.4760209" lon="10.7631327"><ele>82.0</ele><time>2026-04-04T13:55:46.968Z</time></trkpt><trkpt lat="43.4761731" lon="10.7630749"><ele>82.0</ele><time>2026-04-04T13:55:47.976Z</time></trkpt><trkpt lat="43.4763131" lon="10.7629947"><ele>82.0</ele><time>2026-04-04T13:55:48.959Z</time></trkpt><trkpt lat="43.4764251" lon="10.7628564"><ele>80.33333333333333</ele><time>2026-04-04T13:55:49.966Z</time></trkpt><trkpt lat="43.4765151" lon="10.7626796"><ele>78.66666666666667</ele><time>2026-04-04T13:55:50.963Z</time></trkpt><trkpt lat="43.47658" lon="10.7624687"><ele>77.0</ele><time>2026-04-04T13:55:51.974Z</time></trkpt><trkpt lat="43.4766215" lon="10.7622364"><ele>77.0</ele><time>2026-04-04T13:55:52.967Z</time></trkpt><trkpt lat="43.476641" lon="10.76199"><ele>77.0</ele><time>2026-04-04T13:55:53.957Z</time></trkpt><trkpt lat="43.4766514" lon="10.7617352"><ele>77.0</ele><time>2026-04-04T13:55:54.971Z</time></trkpt><trkpt lat="43.4766704" lon="10.7614778"><ele>76.66666666666667</ele><time>2026-04-04T13:55:55.954Z</time></trkpt><trkpt lat="43.476704" lon="10.7612244"><ele>76.33333333333333</ele><time>2026-04-04T13:55:56.973Z</time></trkpt><trkpt lat="43.4767538" lon="10.7609767"><ele>76.0</ele><time>2026-04-04T13:55:57.969Z</time></trkpt><trkpt lat="43.4768178" lon="10.7607346"><ele>76.66666666666666</ele><time>2026-04-04T13:55:58.965Z</time></trkpt><trkpt lat="43.4768905" lon="10.7604941"><ele>77.33333333333333</ele><time>2026-04-04T13:55:59.956Z</time></trkpt><trkpt lat="43.4769643" lon="10.7602538"><ele>78.0</ele><time>2026-04-04T13:56:00.962Z</time></trkpt><trkpt lat="43.4770389" lon="10.7600127"><ele>75.33333333333333</ele><time>2026-04-04T13:56:01.974Z</time></trkpt><trkpt lat="43.4771132" lon="10.7597722"><ele>72.66666666666666</ele><time>2026-04-04T13:56:02.971Z</time></trkpt><trkpt lat="43.4771871" lon="10.7595307"><ele>70.0</ele><time>2026-04-04T13:56:03.966Z</time></trkpt><trkpt lat="43.4772604" lon="10.7592886"><ele>70.0</ele><time>2026-04-04T13:56:04.964Z</time></trkpt><trkpt lat="43.4773362" lon="10.7590479"><ele>70.0</ele><time>2026-04-04T13:56:05.96Z</time></trkpt><trkpt lat="43.4774139" lon="10.7588085"><ele>70.0</ele><time>2026-04-04T13:56:06.97Z</time></trkpt><trkpt lat="43.4774916" lon="10.7585689"><ele>71.0</ele><time>2026-04-04T13:56:07.962Z</time></trkpt><trkpt lat="43.4775669" lon="10.7583281"><ele>72.0</ele><time>2026-04-04T13:56:08.966Z</time></trkpt><trkpt lat="43.4776397" lon="10.7580859"><ele>73.0</ele><time>2026-04-04T13:56:09.971Z</time></trkpt><trkpt lat="43.4777109" lon="10.7578449"><ele>74.0</ele><time>2026-04-04T13:56:10.968Z</time></trkpt><trkpt lat="43.4777816" lon="10.7576067"><ele>75.0</ele><time>2026-04-04T13:56:11.959Z</time></trkpt><trkpt lat="43.4778522" lon="10.7573718"><ele>76.0</ele><time>2026-04-04T13:56:12.968Z</time></trkpt><trkpt lat="43.4779231" lon="10.7571403"><ele>75.33333333333333</ele><time>2026-04-04T13:56:13.958Z</time></trkpt><trkpt lat="43.4779923" lon="10.7569148"><ele>74.66666666666667</ele><time>2026-04-04T13:56:14.977Z</time></trkpt><trkpt lat="43.4780611" lon="10.7567057"><ele>74.0</ele><time>2026-04-04T13:56:15.983Z</time></trkpt><trkpt lat="43.4781311" lon="10.7565132"><ele>74.0</ele><time>2026-04-04T13:56:16.962Z</time></trkpt><trkpt lat="43.4782067" lon="10.7563459"><ele>74.0</ele><time>2026-04-04T13:56:17.977Z</time></trkpt><trkpt lat="43.4782892" lon="10.7561987"><ele>74.0</ele><time>2026-04-04T13:56:18.974Z</time></trkpt><trkpt lat="43.4783702" lon="10.7560715"><ele>74.0</ele><time>2026-04-04T13:56:19.957Z</time></trkpt><trkpt lat="43.4784462" lon="10.7559582"><ele>74.2</ele><time>2026-04-04T13:56:20.963Z</time></trkpt><trkpt lat="43.4785171" lon="10.7558523"><ele>74.4</ele><time>2026-04-04T13:56:21.965Z</time></trkpt><trkpt lat="43.4785886" lon="10.7557478"><ele>74.6</ele><time>2026-04-04T13:56:22.964Z</time></trkpt><trkpt lat="43.4786617" lon="10.7556462"><ele>74.8</ele><time>2026-04-04T13:56:23.984Z</time></trkpt><trkpt lat="43.4787281" lon="10.7555542"><ele>75.0</ele><time>2026-04-04T13:56:24.957Z</time></trkpt><trkpt lat="43.4787911" lon="10.7554658"><ele>75.0</ele><time>2026-04-04T13:56:25.947Z</time></trkpt><trkpt lat="43.4788502" lon="10.7553794"><ele>75.0</ele><time>2026-04-04T13:56:26.962Z</time></trkpt><trkpt lat="43.4789076" lon="10.7552936"><ele>75.0</ele><time>2026-04-04T13:56:27.967Z</time></trkpt><trkpt lat="43.4789649" lon="10.7552086"><ele>75.0</ele><time>2026-04-04T13:56:28.948Z</time></trkpt><trkpt lat="43.4790188" lon="10.7551316"><ele>75.0</ele><time>2026-04-04T13:56:29.972Z</time></trkpt><trkpt lat="43.4790688" lon="10.7550625"><ele>75.0</ele><time>2026-04-04T13:56:30.964Z</time></trkpt><trkpt lat="43.479144" lon="10.7549455"><ele>75.0</ele><time>2026-04-04T13:56:32.968Z</time></trkpt><trkpt lat="43.479133" lon="10.7548566"><ele>75.0</ele><time>2026-04-04T13:56:34.968Z</time></trkpt><trkpt lat="43.4790714" lon="10.7548189"><ele>75.0</ele><time>2026-04-04T13:56:36.959Z</time></trkpt><trkpt lat="43.4789707" lon="10.7547813"><ele>75.0</ele><time>2026-04-04T13:56:38.971Z</time></trkpt><trkpt lat="43.4788926" lon="10.7547545"><ele>75.0</ele><time>2026-04-04T13:56:39.948Z</time></trkpt><trkpt lat="43.4788034" lon="10.7547268"><ele>75.0</ele><time>2026-04-04T13:56:40.961Z</time></trkpt><trkpt lat="43.4787101" lon="10.7547041"><ele>75.6</ele><time>2026-04-04T13:56:41.959Z</time></trkpt><trkpt lat="43.4786037" lon="10.7546969"><ele>76.2</ele><time>2026-04-04T13:56:42.963Z</time></trkpt><trkpt lat="43.4784915" lon="10.7547034"><ele>76.8</ele><time>2026-04-04T13:56:43.957Z</time></trkpt><trkpt lat="43.478378" lon="10.7547166"><ele>77.4</ele><time>2026-04-04T13:56:44.972Z</time></trkpt><trkpt lat="43.4782674" lon="10.7547263"><ele>78.0</ele><time>2026-04-04T13:56:45.964Z</time></trkpt><trkpt lat="43.4781712" lon="10.7547219"><ele>78.0</ele><time>2026-04-04T13:56:46.959Z</time></trkpt><trkpt lat="43.4780854" lon="10.7546931"><ele>78.0</ele><time>2026-04-04T13:56:47.964Z</time></trkpt><trkpt lat="43.4780057" lon="10.7546426"><ele>78.0</ele><time>2026-04-04T13:56:48.967Z</time></trkpt><trkpt lat="43.4779232" lon="10.7545707"><ele>78.0</ele><time>2026-04-04T13:56:49.953Z</time></trkpt><trkpt lat="43.4778456" lon="10.7544871"><ele>78.0</ele><time>2026-04-04T13:56:50.959Z</time></trkpt><trkpt lat="43.4777817" lon="10.7544021"><ele>79.6</ele><time>2026-04-04T13:56:51.968Z</time></trkpt><trkpt lat="43.4777267" lon="10.754305"><ele>81.19999999999999</ele><time>2026-04-04T13:56:52.964Z</time></trkpt><trkpt lat="43.477683" lon="10.7541967"><ele>82.8</ele><time>2026-04-04T13:56:53.967Z</time></trkpt><trkpt lat="43.4776484" lon="10.7540749"><ele>84.39999999999999</ele><time>2026-04-04T13:56:54.975Z</time></trkpt><trkpt lat="43.4776133" lon="10.7539401"><ele>86.0</ele><time>2026-04-04T13:56:55.973Z</time></trkpt><trkpt lat="43.4775786" lon="10.7538099"><ele>86.0</ele><time>2026-04-04T13:56:56.969Z</time></trkpt><trkpt lat="43.4775513" lon="10.7536833"><ele>86.0</ele><time>2026-04-04T13:56:57.952Z</time></trkpt><trkpt lat="43.4775369" lon="10.7535539"><ele>86.0</ele><time>2026-04-04T13:56:58.974Z</time></trkpt><trkpt lat="43.4775346" lon="10.7534251"><ele>86.0</ele><time>2026-04-04T13:56:59.971Z</time></trkpt><trkpt lat="43.4775497" lon="10.7532939"><ele>86.0</ele><time>2026-04-04T13:57:00.967Z</time></trkpt><trkpt lat="43.4775824" lon="10.7531562"><ele>88.0</ele><time>2026-04-04T13:57:01.974Z</time></trkpt><trkpt lat="43.4776357" lon="10.7530112"><ele>90.0</ele><time>2026-04-04T13:57:02.962Z</time></trkpt><trkpt lat="43.4777059" lon="10.7528622"><ele>92.0</ele><time>2026-04-04T13:57:03.974Z</time></trkpt><trkpt lat="43.477785" lon="10.7527194"><ele>94.0</ele><time>2026-04-04T13:57:04.957Z</time></trkpt><trkpt lat="43.4778651" lon="10.7525874"><ele>97.2</ele><time>2026-04-04T13:57:05.97Z</time></trkpt><trkpt lat="43.4779408" lon="10.7524619"><ele>100.4</ele><time>2026-04-04T13:57:06.958Z</time></trkpt><trkpt lat="43.4780133" lon="10.7523459"><ele>103.6</ele><time>2026-04-04T13:57:07.961Z</time></trkpt><trkpt lat="43.478082" lon="10.7522397"><ele>106.8</ele><time>2026-04-04T13:57:08.979Z</time></trkpt><trkpt lat="43.4781466" lon="10.7521414"><ele>110.0</ele><time>2026-04-04T13:57:09.969Z</time></trkpt><trkpt lat="43.4782072" lon="10.7520491"><ele>110.0</ele><time>2026-04-04T13:57:10.975Z</time></trkpt><trkpt lat="43.4782587" lon="10.751964"><ele>110.0</ele><time>2026-04-04T13:57:11.962Z</time></trkpt><trkpt lat="43.4783012" lon="10.7518726"><ele>110.0</ele><time>2026-04-04T13:57:12.957Z</time></trkpt><trkpt lat="43.478333" lon="10.7517899"><ele>110.0</ele><time>2026-04-04T13:57:13.958Z</time></trkpt><trkpt lat="43.4783967" lon="10.7516593"><ele>110.0</ele><time>2026-04-04T13:57:15.971Z</time></trkpt><trkpt lat="43.4784921" lon="10.7515769"><ele>110.66666666666666</ele><time>2026-04-04T13:57:17.976Z</time></trkpt><trkpt lat="43.4785509" lon="10.7515317"><ele>111.33333333333333</ele><time>2026-04-04T13:57:18.973Z</time></trkpt><trkpt lat="43.4786039" lon="10.7514663"><ele>112.0</ele><time>2026-04-04T13:57:19.96Z</time></trkpt><trkpt lat="43.4786494" lon="10.7513813"><ele>112.66666666666666</ele><time>2026-04-04T13:57:20.965Z</time></trkpt><trkpt lat="43.4786897" lon="10.7512766"><ele>113.33333333333333</ele><time>2026-04-04T13:57:21.968Z</time></trkpt><trkpt lat="43.4787245" lon="10.7511539"><ele>114.0</ele><time>2026-04-04T13:57:22.957Z</time></trkpt><trkpt lat="43.4787543" lon="10.7510179"><ele>113.0</ele><time>2026-04-04T13:57:23.948Z</time></trkpt><trkpt lat="43.4787864" lon="10.7508643"><ele>112.0</ele><time>2026-04-04T13:57:24.963Z</time></trkpt><trkpt lat="43.478818" lon="10.7506964"><ele>111.0</ele><time>2026-04-04T13:57:25.966Z</time></trkpt><trkpt lat="43.4788482" lon="10.7505179"><ele>110.0</ele><time>2026-04-04T13:57:26.966Z</time></trkpt><trkpt lat="43.4788799" lon="10.750337"><ele>110.75</ele><time>2026-04-04T13:57:27.973Z</time></trkpt><trkpt lat="43.4789192" lon="10.750158"><ele>111.5</ele><time>2026-04-04T13:57:28.971Z</time></trkpt><trkpt lat="43.4789643" lon="10.7499826"><ele>112.25</ele><time>2026-04-04T13:57:29.959Z</time></trkpt><trkpt lat="43.4790067" lon="10.7498076"><ele>113.0</ele><time>2026-04-04T13:57:30.958Z</time></trkpt><trkpt lat="43.4790443" lon="10.7496238"><ele>113.0</ele><time>2026-04-04T13:57:31.95Z</time></trkpt><trkpt lat="43.4790783" lon="10.7494326"><ele>113.0</ele><time>2026-04-04T13:57:32.959Z</time></trkpt><trkpt lat="43.4791129" lon="10.7492408"><ele>113.0</ele><time>2026-04-04T13:57:33.965Z</time></trkpt><trkpt lat="43.4791517" lon="10.7490542"><ele>113.0</ele><time>2026-04-04T13:57:34.954Z</time></trkpt><trkpt lat="43.4791919" lon="10.7488782"><ele>113.5</ele><time>2026-04-04T13:57:35.964Z</time></trkpt><trkpt lat="43.4792366" lon="10.7487124"><ele>114.0</ele><time>2026-04-04T13:57:36.959Z</time></trkpt><trkpt lat="43.4792897" lon="10.7485547"><ele>114.5</ele><time>2026-04-04T13:57:37.963Z</time></trkpt><trkpt lat="43.4793511" lon="10.7483998"><ele>115.0</ele><time>2026-04-04T13:57:38.959Z</time></trkpt><trkpt lat="43.4794182" lon="10.7482434"><ele>115.25</ele><time>2026-04-04T13:57:39.972Z</time></trkpt><trkpt lat="43.4794869" lon="10.7480854"><ele>115.5</ele><time>2026-04-04T13:57:40.955Z</time></trkpt><trkpt lat="43.479562" lon="10.7479298"><ele>115.75</ele><time>2026-04-04T13:57:41.959Z</time></trkpt><trkpt lat="43.4796371" lon="10.7477774"><ele>116.0</ele><time>2026-04-04T13:57:42.962Z</time></trkpt><trkpt lat="43.4797116" lon="10.747624"><ele>116.0</ele><time>2026-04-04T13:57:43.969Z</time></trkpt><trkpt lat="43.4797814" lon="10.7474671"><ele>116.0</ele><time>2026-04-04T13:57:44.957Z</time></trkpt><trkpt lat="43.4798435" lon="10.7473054"><ele>116.0</ele><time>2026-04-04T13:57:45.967Z</time></trkpt><trkpt lat="43.4799058" lon="10.7471555"><ele>116.0</ele><time>2026-04-04T13:57:46.968Z</time></trkpt><trkpt lat="43.4799581" lon="10.7470155"><ele>116.25</ele><time>2026-04-04T13:57:47.973Z</time></trkpt><trkpt lat="43.4800085" lon="10.746872"><ele>116.5</ele><time>2026-04-04T13:57:48.959Z</time></trkpt><trkpt lat="43.4800598" lon="10.7467145"><ele>116.75</ele><time>2026-04-04T13:57:49.962Z</time></trkpt><trkpt lat="43.4801101" lon="10.7465557"><ele>117.0</ele><time>2026-04-04T13:57:50.961Z</time></trkpt><trkpt lat="43.480162" lon="10.7463927"><ele>117.0</ele><time>2026-04-04T13:57:51.974Z</time></trkpt><trkpt lat="43.4802146" lon="10.7462235"><ele>117.0</ele><time>2026-04-04T13:57:52.956Z</time></trkpt><trkpt lat="43.4802691" lon="10.7460492"><ele>117.0</ele><time>2026-04-04T13:57:53.986Z</time></trkpt><trkpt lat="43.4803251" lon="10.7458751"><ele>117.0</ele><time>2026-04-04T13:57:54.974Z</time></trkpt><trkpt lat="43.4803797" lon="10.7457008"><ele>115.75</ele><time>2026-04-04T13:57:55.973Z</time></trkpt><trkpt lat="43.480434" lon="10.7455236"><ele>114.5</ele><time>2026-04-04T13:57:56.965Z</time></trkpt><trkpt lat="43.4804887" lon="10.7453449"><ele>113.25</ele><time>2026-04-04T13:57:57.964Z</time></trkpt><trkpt lat="43.4805436" lon="10.7451692"><ele>112.0</ele><time>2026-04-04T13:57:58.966Z</time></trkpt><trkpt lat="43.4806027" lon="10.745001"><ele>112.0</ele><time>2026-04-04T13:57:59.972Z</time></trkpt><trkpt lat="43.4806657" lon="10.7448388"><ele>112.0</ele><time>2026-04-04T13:58:00.973Z</time></trkpt><trkpt lat="43.4807242" lon="10.7446754"><ele>112.0</ele><time>2026-04-04T13:58:01.963Z</time></trkpt><trkpt lat="43.4807762" lon="10.7445085"><ele>112.0</ele><time>2026-04-04T13:58:02.981Z</time></trkpt><trkpt lat="43.4808224" lon="10.7443392"><ele>112.25</ele><time>2026-04-04T13:58:03.977Z</time></trkpt><trkpt lat="43.480868" lon="10.7441654"><ele>112.5</ele><time>2026-04-04T13:58:04.972Z</time></trkpt><trkpt lat="43.4809128" lon="10.7439863"><ele>112.75</ele><time>2026-04-04T13:58:05.963Z</time></trkpt><trkpt lat="43.4809544" lon="10.7438045"><ele>113.0</ele><time>2026-04-04T13:58:06.967Z</time></trkpt><trkpt lat="43.4809997" lon="10.7436239"><ele>113.25</ele><time>2026-04-04T13:58:07.966Z</time></trkpt><trkpt lat="43.4810534" lon="10.7434449"><ele>113.5</ele><time>2026-04-04T13:58:08.962Z</time></trkpt><trkpt lat="43.4811061" lon="10.7432631"><ele>113.75</ele><time>2026-04-04T13:58:09.962Z</time></trkpt><trkpt lat="43.481157" lon="10.7430832"><ele>114.0</ele><time>2026-04-04T13:58:10.966Z</time></trkpt><trkpt lat="43.4812123" lon="10.7429216"><ele>114.0</ele><time>2026-04-04T13:58:11.972Z</time></trkpt><trkpt lat="43.48127" lon="10.7427827"><ele>114.0</ele><time>2026-04-04T13:58:12.956Z</time></trkpt><trkpt lat="43.4813167" lon="10.7426466"><ele>114.0</ele><time>2026-04-04T13:58:13.97Z</time></trkpt><trkpt lat="43.4813474" lon="10.7425034"><ele>114.0</ele><time>2026-04-04T13:58:14.974Z</time></trkpt><trkpt lat="43.4813766" lon="10.7423589"><ele>114.0</ele><time>2026-04-04T13:58:15.955Z</time></trkpt><trkpt lat="43.4813738" lon="10.7422062"><ele>114.25</ele><time>2026-04-04T13:58:16.965Z</time></trkpt><trkpt lat="43.4813591" lon="10.742049"><ele>114.5</ele><time>2026-04-04T13:58:17.96Z</time></trkpt><trkpt lat="43.4813318" lon="10.7418853"><ele>114.75</ele><time>2026-04-04T13:58:18.977Z</time></trkpt><trkpt lat="43.4812954" lon="10.7417284"><ele>115.0</ele><time>2026-04-04T13:58:19.957Z</time></trkpt><trkpt lat="43.4812574" lon="10.7415791"><ele>116.0</ele><time>2026-04-04T13:58:20.957Z</time></trkpt><trkpt lat="43.4812172" lon="10.741436"><ele>117.0</ele><time>2026-04-04T13:58:21.959Z</time></trkpt><trkpt lat="43.4811778" lon="10.7412936"><ele>118.0</ele><time>2026-04-04T13:58:22.965Z</time></trkpt><trkpt lat="43.4811375" lon="10.7411491"><ele>119.0</ele><time>2026-04-04T13:58:23.973Z</time></trkpt><trkpt lat="43.4810968" lon="10.7409932"><ele>119.5</ele><time>2026-04-04T13:58:24.961Z</time></trkpt><trkpt lat="43.4810647" lon="10.7408258"><ele>120.0</ele><time>2026-04-04T13:58:25.968Z</time></trkpt><trkpt lat="43.4810464" lon="10.7406508"><ele>120.5</ele><time>2026-04-04T13:58:26.975Z</time></trkpt><trkpt lat="43.4810417" lon="10.7404714"><ele>121.0</ele><time>2026-04-04T13:58:27.972Z</time></trkpt><trkpt lat="43.4810362" lon="10.7402929"><ele>120.5</ele><time>2026-04-04T13:58:28.954Z</time></trkpt><trkpt lat="43.4810357" lon="10.7401259"><ele>120.0</ele><time>2026-04-04T13:58:29.961Z</time></trkpt><trkpt lat="43.4810288" lon="10.739971"><ele>119.5</ele><time>2026-04-04T13:58:30.965Z</time></trkpt><trkpt lat="43.481012" lon="10.7398182"><ele>119.0</ele><time>2026-04-04T13:58:31.962Z</time></trkpt><trkpt lat="43.4809846" lon="10.7396655"><ele>119.0</ele><time>2026-04-04T13:58:32.967Z</time></trkpt><trkpt lat="43.4809439" lon="10.7395128"><ele>119.0</ele><time>2026-04-04T13:58:33.972Z</time></trkpt><trkpt lat="43.4808957" lon="10.7393541"><ele>119.0</ele><time>2026-04-04T13:58:34.958Z</time></trkpt><trkpt lat="43.4808575" lon="10.7391919"><ele>119.0</ele><time>2026-04-04T13:58:35.964Z</time></trkpt><trkpt lat="43.4808254" lon="10.7390291"><ele>118.6</ele><time>2026-04-04T13:58:36.954Z</time></trkpt><trkpt lat="43.4807999" lon="10.738871"><ele>118.2</ele><time>2026-04-04T13:58:37.962Z</time></trkpt><trkpt lat="43.4807769" lon="10.7387237"><ele>117.79999999999998</ele><time>2026-04-04T13:58:38.972Z</time></trkpt><trkpt lat="43.4807644" lon="10.7385832"><ele>117.39999999999999</ele><time>2026-04-04T13:58:39.962Z</time></trkpt><trkpt lat="43.4807638" lon="10.7384423"><ele>117.0</ele><time>2026-04-04T13:58:40.975Z</time></trkpt><trkpt lat="43.4807557" lon="10.7382915"><ele>117.0</ele><time>2026-04-04T13:58:41.979Z</time></trkpt><trkpt lat="43.4807443" lon="10.7381445"><ele>116.99999999999999</ele><time>2026-04-04T13:58:42.97Z</time></trkpt><trkpt lat="43.4807348" lon="10.7380031"><ele>116.99999999999999</ele><time>2026-04-04T13:58:43.969Z</time></trkpt><trkpt lat="43.4807243" lon="10.7378758"><ele>117.0</ele><time>2026-04-04T13:58:44.987Z</time></trkpt><trkpt lat="43.4806957" lon="10.7377559"><ele>117.0</ele><time>2026-04-04T13:58:45.968Z</time></trkpt><trkpt lat="43.4806482" lon="10.7376424"><ele>117.39999999999999</ele><time>2026-04-04T13:58:46.955Z</time></trkpt><trkpt lat="43.4805841" lon="10.7375364"><ele>117.79999999999998</ele><time>2026-04-04T13:58:47.953Z</time></trkpt><trkpt lat="43.4805196" lon="10.7374329"><ele>118.2</ele><time>2026-04-04T13:58:48.969Z</time></trkpt><trkpt lat="43.4804299" lon="10.7373342"><ele>118.6</ele><time>2026-04-04T13:58:49.957Z</time></trkpt><trkpt lat="43.4803287" lon="10.7372331"><ele>119.0</ele><time>2026-04-04T13:58:50.97Z</time></trkpt><trkpt lat="43.4802183" lon="10.7371334"><ele>119.5</ele><time>2026-04-04T13:58:51.959Z</time></trkpt><trkpt lat="43.4801059" lon="10.7370345"><ele>120.0</ele><time>2026-04-04T13:58:52.973Z</time></trkpt><trkpt lat="43.4799944" lon="10.7369362"><ele>120.5</ele><time>2026-04-04T13:58:53.958Z</time></trkpt><trkpt lat="43.4798867" lon="10.7368343"><ele>121.0</ele><time>2026-04-04T13:58:54.959Z</time></trkpt><trkpt lat="43.4797862" lon="10.7367221"><ele>121.5</ele><time>2026-04-04T13:58:55.961Z</time></trkpt><trkpt lat="43.479694" lon="10.7366078"><ele>122.0</ele><time>2026-04-04T13:58:56.973Z</time></trkpt><trkpt lat="43.4795989" lon="10.7364941"><ele>122.5</ele><time>2026-04-04T13:58:57.954Z</time></trkpt><trkpt lat="43.4794973" lon="10.7363928"><ele>123.0</ele><time>2026-04-04T13:58:58.966Z</time></trkpt><trkpt lat="43.4793837" lon="10.7363101"><ele>124.25</ele><time>2026-04-04T13:58:59.972Z</time></trkpt><trkpt lat="43.4792659" lon="10.7362367"><ele>125.5</ele><time>2026-04-04T13:59:00.962Z</time></trkpt><trkpt lat="43.4791512" lon="10.7361599"><ele>126.75</ele><time>2026-04-04T13:59:01.974Z</time></trkpt><trkpt lat="43.4790486" lon="10.7360676"><ele>128.0</ele><time>2026-04-04T13:59:02.961Z</time></trkpt><trkpt lat="43.4789643" lon="10.735955"><ele>130.5</ele><time>2026-04-04T13:59:03.967Z</time></trkpt><trkpt lat="43.4789041" lon="10.7358284"><ele>133.0</ele><time>2026-04-04T13:59:04.951Z</time></trkpt><trkpt lat="43.4788585" lon="10.7356889"><ele>135.5</ele><time>2026-04-04T13:59:05.961Z</time></trkpt><trkpt lat="43.4788186" lon="10.7355399"><ele>138.0</ele><time>2026-04-04T13:59:06.958Z</time></trkpt><trkpt lat="43.4787832" lon="10.7353814"><ele>142.0</ele><time>2026-04-04T13:59:07.956Z</time></trkpt><trkpt lat="43.4787475" lon="10.7352199"><ele>146.0</ele><time>2026-04-04T13:59:08.957Z</time></trkpt><trkpt lat="43.4787108" lon="10.7350489"><ele>150.0</ele><time>2026-04-04T13:59:09.973Z</time></trkpt><trkpt lat="43.4786751" lon="10.7348776"><ele>154.0</ele><time>2026-04-04T13:59:10.969Z</time></trkpt><trkpt lat="43.4786443" lon="10.7347043"><ele>154.0</ele><time>2026-04-04T13:59:11.955Z</time></trkpt><trkpt lat="43.4786258" lon="10.7345318"><ele>154.0</ele><time>2026-04-04T13:59:12.961Z</time></trkpt><trkpt lat="43.4786089" lon="10.734367"><ele>154.0</ele><time>2026-04-04T13:59:13.959Z</time></trkpt><trkpt lat="43.4786044" lon="10.7342074"><ele>154.0</ele><time>2026-04-04T13:59:14.962Z</time></trkpt><trkpt lat="43.4785887" lon="10.7340553"><ele>155.2</ele><time>2026-04-04T13:59:15.973Z</time></trkpt><trkpt lat="43.4785582" lon="10.7339141"><ele>156.4</ele><time>2026-04-04T13:59:16.952Z</time></trkpt><trkpt lat="43.478518" lon="10.7337832"><ele>157.6</ele><time>2026-04-04T13:59:17.963Z</time></trkpt><trkpt lat="43.4784799" lon="10.7336502"><ele>158.8</ele><time>2026-04-04T13:59:18.97Z</time></trkpt><trkpt lat="43.4784351" lon="10.7335316"><ele>160.0</ele><time>2026-04-04T13:59:19.948Z</time></trkpt><trkpt lat="43.4783935" lon="10.7334237"><ele>160.6</ele><time>2026-04-04T13:59:20.977Z</time></trkpt><trkpt lat="43.4783116" lon="10.7333738"><ele>161.2</ele><time>2026-04-04T13:59:21.971Z</time></trkpt><trkpt lat="43.4782291" lon="10.7333192"><ele>161.8</ele><time>2026-04-04T13:59:22.97Z</time></trkpt><trkpt lat="43.4781637" lon="10.7332176"><ele>162.4</ele><time>2026-04-04T13:59:23.974Z</time></trkpt><trkpt lat="43.4781035" lon="10.7330901"><ele>163.0</ele><time>2026-04-04T13:59:24.969Z</time></trkpt><trkpt lat="43.4780352" lon="10.7329551"><ele>163.0</ele><time>2026-04-04T13:59:25.969Z</time></trkpt><trkpt lat="43.4779669" lon="10.7328296"><ele>163.0</ele><time>2026-04-04T13:59:26.972Z</time></trkpt><trkpt lat="43.4779132" lon="10.7327093"><ele>163.0</ele><time>2026-04-04T13:59:27.948Z</time></trkpt><trkpt lat="43.4778752" lon="10.7325835"><ele>163.0</ele><time>2026-04-04T13:59:28.96Z</time></trkpt><trkpt lat="43.4778544" lon="10.7324521"><ele>163.0</ele><time>2026-04-04T13:59:29.946Z</time></trkpt><trkpt lat="43.4778396" lon="10.7323259"><ele>164.0</ele><time>2026-04-04T13:59:30.972Z</time></trkpt><trkpt lat="43.4778228" lon="10.73221"><ele>165.0</ele><time>2026-04-04T13:59:31.969Z</time></trkpt><trkpt lat="43.4778054" lon="10.7321005"><ele>166.0</ele><time>2026-04-04T13:59:32.965Z</time></trkpt><trkpt lat="43.4778202" lon="10.7319614"><ele>167.0</ele><time>2026-04-04T13:59:34.969Z</time></trkpt><trkpt lat="43.4779102" lon="10.7318466"><ele>168.0</ele><time>2026-04-04T13:59:36.97Z</time></trkpt><trkpt lat="43.4779823" lon="10.7317905"><ele>168.0</ele><time>2026-04-04T13:59:37.97Z</time></trkpt><trkpt lat="43.4780461" lon="10.7316933"><ele>168.0</ele><time>2026-04-04T13:59:38.971Z</time></trkpt><trkpt lat="43.478096" lon="10.73156"><ele>168.0</ele><time>2026-04-04T13:59:39.965Z</time></trkpt><trkpt lat="43.4781267" lon="10.7314032"><ele>168.0</ele><time>2026-04-04T13:59:40.972Z</time></trkpt><trkpt lat="43.4781472" lon="10.7312342"><ele>168.0</ele><time>2026-04-04T13:59:41.964Z</time></trkpt><trkpt lat="43.4781696" lon="10.7310606"><ele>169.2</ele><time>2026-04-04T13:59:42.967Z</time></trkpt><trkpt lat="43.4781907" lon="10.7308935"><ele>170.4</ele><time>2026-04-04T13:59:43.974Z</time></trkpt><trkpt lat="43.478233" lon="10.7307608"><ele>171.6</ele><time>2026-04-04T13:59:44.975Z</time></trkpt><trkpt lat="43.4783026" lon="10.7306696"><ele>172.79999999999998</ele><time>2026-04-04T13:59:45.96Z</time></trkpt><trkpt lat="43.4783995" lon="10.7306117"><ele>174.0</ele><time>2026-04-04T13:59:46.965Z</time></trkpt><trkpt lat="43.4784999" lon="10.7305579"><ele>174.0</ele><time>2026-04-04T13:59:47.97Z</time></trkpt><trkpt lat="43.4786216" lon="10.7305128"><ele>174.0</ele><time>2026-04-04T13:59:48.969Z</time></trkpt><trkpt lat="43.478741" lon="10.7304578"><ele>174.0</ele><time>2026-04-04T13:59:49.97Z</time></trkpt><trkpt lat="43.4788514" lon="10.7303796"><ele>174.0</ele><time>2026-04-04T13:59:50.948Z</time></trkpt><trkpt lat="43.4789489" lon="10.7302744"><ele>170.75</ele><time>2026-04-04T13:59:51.96Z</time></trkpt><trkpt lat="43.4790284" lon="10.7301385"><ele>167.5</ele><time>2026-04-04T13:59:52.957Z</time></trkpt><trkpt lat="43.4790854" lon="10.7299812"><ele>164.25</ele><time>2026-04-04T13:59:53.97Z</time></trkpt><trkpt lat="43.4791291" lon="10.7298439"><ele>161.0</ele><time>2026-04-04T13:59:54.947Z</time></trkpt><trkpt lat="43.4791794" lon="10.7297368"><ele>161.0</ele><time>2026-04-04T13:59:55.955Z</time></trkpt><trkpt lat="43.4792489" lon="10.7296617"><ele>161.0</ele><time>2026-04-04T13:59:56.971Z</time></trkpt><trkpt lat="43.4793405" lon="10.7296293"><ele>161.0</ele><time>2026-04-04T13:59:57.971Z</time></trkpt><trkpt lat="43.4794515" lon="10.7296356"><ele>161.0</ele><time>2026-04-04T13:59:58.965Z</time></trkpt><trkpt lat="43.4795724" lon="10.7296444"><ele>161.0</ele><time>2026-04-04T13:59:59.962Z</time></trkpt><trkpt lat="43.4797173" lon="10.7296286"><ele>156.66666666666666</ele><time>2026-04-04T14:00:00.965Z</time></trkpt><trkpt lat="43.4798701" lon="10.7295928"><ele>152.33333333333334</ele><time>2026-04-04T14:00:01.966Z</time></trkpt><trkpt lat="43.4800269" lon="10.7295595"><ele>148.0</ele><time>2026-04-04T14:00:02.963Z</time></trkpt><trkpt lat="43.4801794" lon="10.7295411"><ele>148.0</ele><time>2026-04-04T14:00:03.952Z</time></trkpt><trkpt lat="43.4803332" lon="10.7295443"><ele>148.0</ele><time>2026-04-04T14:00:04.964Z</time></trkpt><trkpt lat="43.4804889" lon="10.7295526"><ele>148.0</ele><time>2026-04-04T14:00:05.97Z</time></trkpt><trkpt lat="43.4806388" lon="10.729601"><ele>146.66666666666669</ele><time>2026-04-04T14:00:06.959Z</time></trkpt><trkpt lat="43.4807861" lon="10.7296396"><ele>145.33333333333334</ele><time>2026-04-04T14:00:07.966Z</time></trkpt><trkpt lat="43.4809429" lon="10.729665"><ele>144.0</ele><time>2026-04-04T14:00:08.961Z</time></trkpt><trkpt lat="43.4811025" lon="10.7296831"><ele>144.0</ele><time>2026-04-04T14:00:09.954Z</time></trkpt><trkpt lat="43.4812636" lon="10.7297143"><ele>144.0</ele><time>2026-04-04T14:00:10.97Z</time></trkpt><trkpt lat="43.481422" lon="10.7297426"><ele>144.0</ele><time>2026-04-04T14:00:11.969Z</time></trkpt><trkpt lat="43.4815797" lon="10.7297745"><ele>144.33333333333334</ele><time>2026-04-04T14:00:12.974Z</time></trkpt><trkpt lat="43.4817398" lon="10.7298235"><ele>144.66666666666669</ele><time>2026-04-04T14:00:13.951Z</time></trkpt><trkpt lat="43.4818987" lon="10.7298796"><ele>145.0</ele><time>2026-04-04T14:00:14.971Z</time></trkpt><trkpt lat="43.4820595" lon="10.7299544"><ele>144.33333333333334</ele><time>2026-04-04T14:00:15.966Z</time></trkpt><trkpt lat="43.4822215" lon="10.7300279"><ele>143.66666666666666</ele><time>2026-04-04T14:00:16.97Z</time></trkpt><trkpt lat="43.4823727" lon="10.7300921"><ele>143.0</ele><time>2026-04-04T14:00:17.979Z</time></trkpt><trkpt lat="43.4825038" lon="10.7301358"><ele>143.0</ele><time>2026-04-04T14:00:18.97Z</time></trkpt><trkpt lat="43.4826071" lon="10.7301605"><ele>143.0</ele><time>2026-04-04T14:00:19.962Z</time></trkpt><trkpt lat="43.4826987" lon="10.7301786"><ele>143.0</ele><time>2026-04-04T14:00:20.974Z</time></trkpt><trkpt lat="43.4827722" lon="10.7302126"><ele>143.0</ele><time>2026-04-04T14:00:21.972Z</time></trkpt><trkpt lat="43.4828501" lon="10.7303036"><ele>143.0</ele><time>2026-04-04T14:00:22.975Z</time></trkpt><trkpt lat="43.4829176" lon="10.7304064"><ele>143.20000000000002</ele><time>2026-04-04T14:00:23.956Z</time></trkpt><trkpt lat="43.4829853" lon="10.7305162"><ele>143.4</ele><time>2026-04-04T14:00:24.975Z</time></trkpt><trkpt lat="43.4830531" lon="10.7306282"><ele>143.60000000000002</ele><time>2026-04-04T14:00:25.955Z</time></trkpt><trkpt lat="43.4831249" lon="10.7307398"><ele>143.8</ele><time>2026-04-04T14:00:26.961Z</time></trkpt><trkpt lat="43.4831879" lon="10.7308428"><ele>144.0</ele><time>2026-04-04T14:00:27.971Z</time></trkpt><trkpt lat="43.4832477" lon="10.7309396"><ele>144.0</ele><time>2026-04-04T14:00:28.96Z</time></trkpt><trkpt lat="43.4833061" lon="10.7310353"><ele>144.0</ele><time>2026-04-04T14:00:29.972Z</time></trkpt><trkpt lat="43.4833653" lon="10.7311284"><ele>144.0</ele><time>2026-04-04T14:00:30.966Z</time></trkpt><trkpt lat="43.4834355" lon="10.7312296"><ele>144.0</ele><time>2026-04-04T14:00:31.961Z</time></trkpt><trkpt lat="43.4834997" lon="10.7313258"><ele>144.0</ele><time>2026-04-04T14:00:32.968Z</time></trkpt><trkpt lat="43.4835604" lon="10.7314201"><ele>142.8</ele><time>2026-04-04T14:00:33.965Z</time></trkpt><trkpt lat="43.4836223" lon="10.7315224"><ele>141.60000000000002</ele><time>2026-04-04T14:00:34.966Z</time></trkpt><trkpt lat="43.4836867" lon="10.7316263"><ele>140.4</ele><time>2026-04-04T14:00:35.966Z</time></trkpt><trkpt lat="43.4837516" lon="10.731732"><ele>139.20000000000002</ele><time>2026-04-04T14:00:36.957Z</time></trkpt><trkpt lat="43.4838147" lon="10.7318402"><ele>138.0</ele><time>2026-04-04T14:00:37.972Z</time></trkpt><trkpt lat="43.4838754" lon="10.7319492"><ele>137.16666666666666</ele><time>2026-04-04T14:00:38.972Z</time></trkpt><trkpt lat="43.4839357" lon="10.7320457"><ele>136.33333333333334</ele><time>2026-04-04T14:00:39.966Z</time></trkpt><trkpt lat="43.4839982" lon="10.7321336"><ele>135.5</ele><time>2026-04-04T14:00:40.964Z</time></trkpt><trkpt lat="43.4840497" lon="10.7322163"><ele>134.66666666666669</ele><time>2026-04-04T14:00:41.957Z</time></trkpt><trkpt lat="43.484098" lon="10.7323007"><ele>133.83333333333334</ele><time>2026-04-04T14:00:42.963Z</time></trkpt><trkpt lat="43.4841468" lon="10.7323826"><ele>133.0</ele><time>2026-04-04T14:00:43.985Z</time></trkpt><trkpt lat="43.4841925" lon="10.7324586"><ele>133.0</ele><time>2026-04-04T14:00:44.95Z</time></trkpt><trkpt lat="43.4842358" lon="10.7325222"><ele>133.0</ele><time>2026-04-04T14:00:45.973Z</time></trkpt><trkpt lat="43.4843233" lon="10.73263"><ele>133.0</ele><time>2026-04-04T14:00:47.956Z</time></trkpt><trkpt lat="43.4843656" lon="10.7326995"><ele>133.0</ele><time>2026-04-04T14:00:48.962Z</time></trkpt><trkpt lat="43.4844119" lon="10.7327711"><ele>133.0</ele><time>2026-04-04T14:00:49.956Z</time></trkpt><trkpt lat="43.4844612" lon="10.7328398"><ele>133.0</ele><time>2026-04-04T14:00:50.963Z</time></trkpt><trkpt lat="43.484512" lon="10.7329081"><ele>133.16666666666669</ele><time>2026-04-04T14:00:51.967Z</time></trkpt><trkpt lat="43.4845604" lon="10.7329805"><ele>133.33333333333334</ele><time>2026-04-04T14:00:52.961Z</time></trkpt><trkpt lat="43.4846049" lon="10.7330496"><ele>133.5</ele><time>2026-04-04T14:00:53.963Z</time></trkpt><trkpt lat="43.4846757" lon="10.7331755"><ele>133.66666666666666</ele><time>2026-04-04T14:00:55.97Z</time></trkpt><trkpt lat="43.4847451" lon="10.7333038"><ele>133.83333333333331</ele><time>2026-04-04T14:00:57.968Z</time></trkpt><trkpt lat="43.4847843" lon="10.7333769"><ele>134.0</ele><time>2026-04-04T14:00:58.964Z</time></trkpt><trkpt lat="43.4848292" lon="10.7334466"><ele>134.0</ele><time>2026-04-04T14:00:59.956Z</time></trkpt><trkpt lat="43.484876" lon="10.7335145"><ele>134.0</ele><time>2026-04-04T14:01:00.953Z</time></trkpt><trkpt lat="43.4849253" lon="10.7335767"><ele>134.0</ele><time>2026-04-04T14:01:01.958Z</time></trkpt><trkpt lat="43.4850131" lon="10.7336786"><ele>134.0</ele><time>2026-04-04T14:01:03.97Z</time></trkpt><trkpt lat="43.4851087" lon="10.7337901"><ele>134.0</ele><time>2026-04-04T14:01:05.968Z</time></trkpt><trkpt lat="43.4851717" lon="10.7338589"><ele>133.5</ele><time>2026-04-04T14:01:06.967Z</time></trkpt><trkpt lat="43.4852354" lon="10.7339284"><ele>133.0</ele><time>2026-04-04T14:01:07.971Z</time></trkpt><trkpt lat="43.4852926" lon="10.733994"><ele>132.5</ele><time>2026-04-04T14:01:08.957Z</time></trkpt><trkpt lat="43.4853513" lon="10.7340546"><ele>132.0</ele><time>2026-04-04T14:01:09.975Z</time></trkpt><trkpt lat="43.4854153" lon="10.7341249"><ele>131.5</ele><time>2026-04-04T14:01:10.953Z</time></trkpt><trkpt lat="43.4854799" lon="10.734199"><ele>131.0</ele><time>2026-04-04T14:01:11.963Z</time></trkpt><trkpt lat="43.4855399" lon="10.7342656"><ele>129.83333333333331</ele><time>2026-04-04T14:01:12.962Z</time></trkpt><trkpt lat="43.4855964" lon="10.734327"><ele>128.66666666666666</ele><time>2026-04-04T14:01:13.95Z</time></trkpt><trkpt lat="43.4856496" lon="10.734386"><ele>127.5</ele><time>2026-04-04T14:01:14.972Z</time></trkpt><trkpt lat="43.4857023" lon="10.7344495"><ele>126.33333333333334</ele><time>2026-04-04T14:01:15.961Z</time></trkpt><trkpt lat="43.4857543" lon="10.7345184"><ele>125.16666666666667</ele><time>2026-04-04T14:01:16.954Z</time></trkpt><trkpt lat="43.4858095" lon="10.7346083"><ele>124.0</ele><time>2026-04-04T14:01:17.955Z</time></trkpt><trkpt lat="43.4858618" lon="10.7346984"><ele>123.83333333333334</ele><time>2026-04-04T14:01:18.961Z</time></trkpt><trkpt lat="43.4859102" lon="10.7347951"><ele>123.66666666666667</ele><time>2026-04-04T14:01:19.97Z</time></trkpt><trkpt lat="43.4859515" lon="10.7348909"><ele>123.5</ele><time>2026-04-04T14:01:20.973Z</time></trkpt><trkpt lat="43.4859821" lon="10.7349834"><ele>123.33333333333334</ele><time>2026-04-04T14:01:21.954Z</time></trkpt><trkpt lat="43.4860117" lon="10.7350791"><ele>123.16666666666667</ele><time>2026-04-04T14:01:22.955Z</time></trkpt><trkpt lat="43.486033" lon="10.7351792"><ele>123.0</ele><time>2026-04-04T14:01:23.963Z</time></trkpt><trkpt lat="43.486052" lon="10.7352748"><ele>122.16666666666667</ele><time>2026-04-04T14:01:24.957Z</time></trkpt><trkpt lat="43.4860771" lon="10.7353631"><ele>121.33333333333334</ele><time>2026-04-04T14:01:25.973Z</time></trkpt><trkpt lat="43.4861172" lon="10.7354402"><ele>120.5</ele><time>2026-04-04T14:01:26.975Z</time></trkpt><trkpt lat="43.4861926" lon="10.7355449"><ele>119.66666666666667</ele><time>2026-04-04T14:01:28.97Z</time></trkpt><trkpt lat="43.4862434" lon="10.7356334"><ele>118.83333333333334</ele><time>2026-04-04T14:01:30.968Z</time></trkpt><trkpt lat="43.4862857" lon="10.7357172"><ele>118.0</ele><time>2026-04-04T14:01:32.956Z</time></trkpt><trkpt lat="43.486337" lon="10.7357947"><ele>117.83333333333334</ele><time>2026-04-04T14:01:35.948Z</time></trkpt><trkpt lat="43.486386" lon="10.7358643"><ele>117.66666666666667</ele><time>2026-04-04T14:01:38.961Z</time></trkpt><trkpt lat="43.486451" lon="10.735943"><ele>117.5</ele><time>2026-04-04T14:01:41.956Z</time></trkpt><trkpt lat="43.4865117" lon="10.7360263"><ele>117.33333333333334</ele><time>2026-04-04T14:01:43.964Z</time></trkpt><trkpt lat="43.4865853" lon="10.7361261"><ele>117.16666666666667</ele><time>2026-04-04T14:01:45.945Z</time></trkpt><trkpt lat="43.4866514" lon="10.7362204"><ele>117.0</ele><time>2026-04-04T14:01:47.948Z</time></trkpt><trkpt lat="43.4867107" lon="10.7363033"><ele>116.39999999999999</ele><time>2026-04-04T14:01:50.969Z</time></trkpt><trkpt lat="43.4867593" lon="10.7363756"><ele>115.79999999999998</ele><time>2026-04-04T14:01:52.979Z</time></trkpt><trkpt lat="43.4868213" lon="10.7364715"><ele>115.2</ele><time>2026-04-04T14:01:54.969Z</time></trkpt><trkpt lat="43.486887" lon="10.7365642"><ele>114.6</ele><time>2026-04-04T14:01:56.945Z</time></trkpt><trkpt lat="43.4869882" lon="10.7366367"><ele>114.0</ele><time>2026-04-04T14:01:58.953Z</time></trkpt><trkpt lat="43.4871012" lon="10.7367163"><ele>113.0</ele><time>2026-04-04T14:02:00.955Z</time></trkpt><trkpt lat="43.4871629" lon="10.7367773"><ele>112.0</ele><time>2026-04-04T14:02:01.974Z</time></trkpt><trkpt lat="43.4872231" lon="10.7368386"><ele>111.0</ele><time>2026-04-04T14:02:02.97Z</time></trkpt><trkpt lat="43.4872792" lon="10.7369094"><ele>110.0</ele><time>2026-04-04T14:02:03.956Z</time></trkpt><trkpt lat="43.487338" lon="10.7369854"><ele>109.0</ele><time>2026-04-04T14:02:04.972Z</time></trkpt><trkpt lat="43.487397" lon="10.7370648"><ele>108.0</ele><time>2026-04-04T14:02:05.965Z</time></trkpt><trkpt lat="43.4874573" lon="10.7371459"><ele>107.5</ele><time>2026-04-04T14:02:06.972Z</time></trkpt><trkpt lat="43.4875234" lon="10.7372239"><ele>107.0</ele><time>2026-04-04T14:02:07.954Z</time></trkpt><trkpt lat="43.48759" lon="10.7373012"><ele>106.5</ele><time>2026-04-04T14:02:08.972Z</time></trkpt><trkpt lat="43.4876568" lon="10.7373789"><ele>106.0</ele><time>2026-04-04T14:02:09.955Z</time></trkpt><trkpt lat="43.487723" lon="10.7374583"><ele>105.5</ele><time>2026-04-04T14:02:10.959Z</time></trkpt><trkpt lat="43.4877873" lon="10.7375343"><ele>105.0</ele><time>2026-04-04T14:02:11.967Z</time></trkpt><trkpt lat="43.487852" lon="10.7376089"><ele>105.0</ele><time>2026-04-04T14:02:12.967Z</time></trkpt><trkpt lat="43.4879192" lon="10.7376875"><ele>105.0</ele><time>2026-04-04T14:02:13.958Z</time></trkpt><trkpt lat="43.4879888" lon="10.73777"><ele>105.0</ele><time>2026-04-04T14:02:14.966Z</time></trkpt><trkpt lat="43.4880567" lon="10.7378544"><ele>105.0</ele><time>2026-04-04T14:02:15.946Z</time></trkpt><trkpt lat="43.4881216" lon="10.737939"><ele>105.0</ele><time>2026-04-04T14:02:16.954Z</time></trkpt><trkpt lat="43.4881854" lon="10.7380216"><ele>105.0</ele><time>2026-04-04T14:02:17.962Z</time></trkpt><trkpt lat="43.4882454" lon="10.7381004"><ele>104.0</ele><time>2026-04-04T14:02:18.95Z</time></trkpt><trkpt lat="43.4883015" lon="10.7381783"><ele>103.0</ele><time>2026-04-04T14:02:19.974Z</time></trkpt><trkpt lat="43.4883579" lon="10.7382578"><ele>102.0</ele><time>2026-04-04T14:02:20.948Z</time></trkpt><trkpt lat="43.488415" lon="10.7383432"><ele>101.0</ele><time>2026-04-04T14:02:21.951Z</time></trkpt><trkpt lat="43.4884667" lon="10.7384324"><ele>100.0</ele><time>2026-04-04T14:02:22.951Z</time></trkpt><trkpt lat="43.4885098" lon="10.7385169"><ele>99.0</ele><time>2026-04-04T14:02:23.96Z</time></trkpt><trkpt lat="43.4885504" lon="10.7385933"><ele>98.83333333333333</ele><time>2026-04-04T14:02:24.967Z</time></trkpt><trkpt lat="43.4886069" lon="10.738667"><ele>98.66666666666666</ele><time>2026-04-04T14:02:25.975Z</time></trkpt><trkpt lat="43.4886626" lon="10.7387454"><ele>98.5</ele><time>2026-04-04T14:02:26.956Z</time></trkpt><trkpt lat="43.4887199" lon="10.7388322"><ele>98.33333333333333</ele><time>2026-04-04T14:02:27.957Z</time></trkpt><trkpt lat="43.488779" lon="10.7389254"><ele>98.16666666666666</ele><time>2026-04-04T14:02:28.953Z</time></trkpt><trkpt lat="43.4888376" lon="10.7390185"><ele>98.0</ele><time>2026-04-04T14:02:29.983Z</time></trkpt><trkpt lat="43.4888939" lon="10.7391063"><ele>96.83333333333333</ele><time>2026-04-04T14:02:30.959Z</time></trkpt><trkpt lat="43.4889493" lon="10.7391905"><ele>95.66666666666666</ele><time>2026-04-04T14:02:31.961Z</time></trkpt><trkpt lat="43.4890008" lon="10.7392719"><ele>94.5</ele><time>2026-04-04T14:02:32.952Z</time></trkpt><trkpt lat="43.4890475" lon="10.7393567"><ele>93.33333333333333</ele><time>2026-04-04T14:02:33.961Z</time></trkpt><trkpt lat="43.4890904" lon="10.7394482"><ele>92.16666666666666</ele><time>2026-04-04T14:02:34.948Z</time></trkpt><trkpt lat="43.4891365" lon="10.7395399"><ele>91.0</ele><time>2026-04-04T14:02:35.948Z</time></trkpt><trkpt lat="43.4891737" lon="10.7396482"><ele>90.83333333333333</ele><time>2026-04-04T14:02:36.957Z</time></trkpt><trkpt lat="43.4892077" lon="10.7397577"><ele>90.66666666666666</ele><time>2026-04-04T14:02:37.961Z</time></trkpt><trkpt lat="43.4892399" lon="10.7398603"><ele>90.5</ele><time>2026-04-04T14:02:38.961Z</time></trkpt><trkpt lat="43.4892707" lon="10.7399577"><ele>90.33333333333333</ele><time>2026-04-04T14:02:39.953Z</time></trkpt><trkpt lat="43.4892976" lon="10.7400475"><ele>90.16666666666667</ele><time>2026-04-04T14:02:40.956Z</time></trkpt><trkpt lat="43.4893469" lon="10.7401818"><ele>90.0</ele><time>2026-04-04T14:02:42.975Z</time></trkpt><trkpt lat="43.4894004" lon="10.7402298"><ele>90.0</ele><time>2026-04-04T14:02:43.964Z</time></trkpt><trkpt lat="43.4894659" lon="10.7402681"><ele>90.0</ele><time>2026-04-04T14:02:44.954Z</time></trkpt><trkpt lat="43.4895388" lon="10.7403023"><ele>90.0</ele><time>2026-04-04T14:02:45.965Z</time></trkpt><trkpt lat="43.4896132" lon="10.7403315"><ele>90.0</ele><time>2026-04-04T14:02:46.952Z</time></trkpt><trkpt lat="43.4896882" lon="10.7403582"><ele>90.0</ele><time>2026-04-04T14:02:47.973Z</time></trkpt><trkpt lat="43.4897686" lon="10.7403758"><ele>90.0</ele><time>2026-04-04T14:02:48.969Z</time></trkpt><trkpt lat="43.4898443" lon="10.7403941"><ele>88.28571428571428</ele><time>2026-04-04T14:02:49.96Z</time></trkpt><trkpt lat="43.4899149" lon="10.7404121"><ele>86.57142857142858</ele><time>2026-04-04T14:02:50.959Z</time></trkpt><trkpt lat="43.4899867" lon="10.7404333"><ele>84.85714285714286</ele><time>2026-04-04T14:02:51.971Z</time></trkpt><trkpt lat="43.4900581" lon="10.7404637"><ele>83.14285714285714</ele><time>2026-04-04T14:02:52.951Z</time></trkpt><trkpt lat="43.4901219" lon="10.7405084"><ele>81.42857142857142</ele><time>2026-04-04T14:02:53.959Z</time></trkpt><trkpt lat="43.4901732" lon="10.7405723"><ele>79.71428571428572</ele><time>2026-04-04T14:02:54.955Z</time></trkpt><trkpt lat="43.4902108" lon="10.7406563"><ele>78.0</ele><time>2026-04-04T14:02:55.971Z</time></trkpt><trkpt lat="43.4902342" lon="10.7407475"><ele>78.0</ele><time>2026-04-04T14:02:56.961Z</time></trkpt><trkpt lat="43.4902465" lon="10.7408415"><ele>78.0</ele><time>2026-04-04T14:02:57.961Z</time></trkpt><trkpt lat="43.4902492" lon="10.7409329"><ele>78.0</ele><time>2026-04-04T14:02:58.965Z</time></trkpt><trkpt lat="43.4902429" lon="10.7410736"><ele>78.0</ele><time>2026-04-04T14:03:00.944Z</time></trkpt><trkpt lat="43.4902691" lon="10.7411632"><ele>78.0</ele><time>2026-04-04T14:03:02.967Z</time></trkpt><trkpt lat="43.4903594" lon="10.7411606"><ele>78.0</ele><time>2026-04-04T14:03:04.963Z</time></trkpt><trkpt lat="43.4904532" lon="10.7410543"><ele>76.66666666666667</ele><time>2026-04-04T14:03:06.954Z</time></trkpt><trkpt lat="43.4904963" lon="10.7409869"><ele>75.33333333333333</ele><time>2026-04-04T14:03:07.963Z</time></trkpt><trkpt lat="43.4905863" lon="10.740873"><ele>74.0</ele><time>2026-04-04T14:03:09.95Z</time></trkpt><trkpt lat="43.4906708" lon="10.7407938"><ele>72.66666666666666</ele><time>2026-04-04T14:03:11.97Z</time></trkpt><trkpt lat="43.4907353" lon="10.7407726"><ele>71.33333333333333</ele><time>2026-04-04T14:03:13.947Z</time></trkpt><trkpt lat="43.4908011" lon="10.7407171"><ele>70.0</ele><time>2026-04-04T14:03:21.972Z</time></trkpt><trkpt lat="43.4908545" lon="10.7406593"><ele>70.0</ele><time>2026-04-04T14:03:23.98Z</time></trkpt><trkpt lat="43.4909253" lon="10.7405818"><ele>70.0</ele><time>2026-04-04T14:03:25.954Z</time></trkpt><trkpt lat="43.4910276" lon="10.7404995"><ele>70.0</ele><time>2026-04-04T14:03:27.947Z</time></trkpt><trkpt lat="43.4910974" lon="10.7404809"><ele>70.0</ele><time>2026-04-04T14:03:28.952Z</time></trkpt><trkpt lat="43.4911643" lon="10.740483"><ele>70.0</ele><time>2026-04-04T14:03:29.957Z</time></trkpt><trkpt lat="43.4912278" lon="10.7405"><ele>70.0</ele><time>2026-04-04T14:03:30.962Z</time></trkpt><trkpt lat="43.4912949" lon="10.7405298"><ele>69.66666666666666</ele><time>2026-04-04T14:03:31.95Z</time></trkpt><trkpt lat="43.4913647" lon="10.740574"><ele>69.33333333333333</ele><time>2026-04-04T14:03:32.947Z</time></trkpt><trkpt lat="43.4914351" lon="10.7406199"><ele>69.0</ele><time>2026-04-04T14:03:33.965Z</time></trkpt><trkpt lat="43.4915073" lon="10.7406746"><ele>68.66666666666667</ele><time>2026-04-04T14:03:34.967Z</time></trkpt><trkpt lat="43.4915804" lon="10.7407298"><ele>68.33333333333334</ele><time>2026-04-04T14:03:35.974Z</time></trkpt><trkpt lat="43.4916578" lon="10.7407866"><ele>68.0</ele><time>2026-04-04T14:03:36.963Z</time></trkpt><trkpt lat="43.4917402" lon="10.740849"><ele>68.0</ele><time>2026-04-04T14:03:37.971Z</time></trkpt><trkpt lat="43.4918272" lon="10.7409134"><ele>68.0</ele><time>2026-04-04T14:03:38.956Z</time></trkpt><trkpt lat="43.4919181" lon="10.7409826"><ele>68.0</ele><time>2026-04-04T14:03:39.958Z</time></trkpt><trkpt lat="43.4920127" lon="10.7410564"><ele>68.0</ele><time>2026-04-04T14:03:40.946Z</time></trkpt><trkpt lat="43.4921091" lon="10.7411307"><ele>68.0</ele><time>2026-04-04T14:03:41.967Z</time></trkpt><trkpt lat="43.4922054" lon="10.7412063"><ele>67.75</ele><time>2026-04-04T14:03:42.958Z</time></trkpt><trkpt lat="43.4923059" lon="10.7412816"><ele>67.5</ele><time>2026-04-04T14:03:43.953Z</time></trkpt><trkpt lat="43.4924107" lon="10.741357"><ele>67.25</ele><time>2026-04-04T14:03:44.968Z</time></trkpt><trkpt lat="43.4925194" lon="10.7414251"><ele>67.0</ele><time>2026-04-04T14:03:45.958Z</time></trkpt><trkpt lat="43.4926306" lon="10.741494"><ele>67.0</ele><time>2026-04-04T14:03:46.949Z</time></trkpt><trkpt lat="43.4927416" lon="10.7415627"><ele>67.0</ele><time>2026-04-04T14:03:47.953Z</time></trkpt><trkpt lat="43.4928466" lon="10.7416295"><ele>67.0</ele><time>2026-04-04T14:03:48.948Z</time></trkpt><trkpt lat="43.4929444" lon="10.7416931"><ele>67.0</ele><time>2026-04-04T14:03:49.958Z</time></trkpt><trkpt lat="43.4930255" lon="10.7417574"><ele>67.0</ele><time>2026-04-04T14:03:50.965Z</time></trkpt><trkpt lat="43.4930795" lon="10.7418324"><ele>66.0</ele><time>2026-04-04T14:03:51.968Z</time></trkpt><trkpt lat="43.4931084" lon="10.7419278"><ele>65.0</ele><time>2026-04-04T14:03:52.956Z</time></trkpt><trkpt lat="43.4931103" lon="10.7420282"><ele>64.0</ele><time>2026-04-04T14:03:53.959Z</time></trkpt><trkpt lat="43.4930902" lon="10.7421241"><ele>63.0</ele><time>2026-04-04T14:03:54.948Z</time></trkpt><trkpt lat="43.4930648" lon="10.7422087"><ele>61.99999999999999</ele><time>2026-04-04T14:03:55.959Z</time></trkpt><trkpt lat="43.4930414" lon="10.7423492"><ele>61.0</ele><time>2026-04-04T14:03:57.965Z</time></trkpt><trkpt lat="43.4930644" lon="10.7424603"><ele>60.99999999999999</ele><time>2026-04-04T14:03:59.959Z</time></trkpt><trkpt lat="43.4931106" lon="10.7425544"><ele>61.0</ele><time>2026-04-04T14:04:01.966Z</time></trkpt><trkpt lat="43.4931626" lon="10.7426676"><ele>61.0</ele><time>2026-04-04T14:04:03.973Z</time></trkpt><trkpt lat="43.4932238" lon="10.7428031"><ele>61.0</ele><time>2026-04-04T14:04:05.957Z</time></trkpt><trkpt lat="43.4932627" lon="10.7428846"><ele>60.99999999999999</ele><time>2026-04-04T14:04:06.959Z</time></trkpt><trkpt lat="43.493304" lon="10.7429714"><ele>61.0</ele><time>2026-04-04T14:04:07.96Z</time></trkpt><trkpt lat="43.4933457" lon="10.7430579"><ele>60.4</ele><time>2026-04-04T14:04:08.97Z</time></trkpt><trkpt lat="43.4933774" lon="10.7432052"><ele>59.8</ele><time>2026-04-04T14:04:10.971Z</time></trkpt><trkpt lat="43.4933847" lon="10.7433491"><ele>59.199999999999996</ele><time>2026-04-04T14:04:12.969Z</time></trkpt><trkpt lat="43.4933684" lon="10.743477"><ele>58.599999999999994</ele><time>2026-04-04T14:04:14.967Z</time></trkpt><trkpt lat="43.4932977" lon="10.7435978"><ele>58.0</ele><time>2026-04-04T14:04:16.964Z</time></trkpt><trkpt lat="43.493241" lon="10.7436626"><ele>57.666666666666664</ele><time>2026-04-04T14:04:17.973Z</time></trkpt><trkpt lat="43.4931716" lon="10.7437343"><ele>57.33333333333333</ele><time>2026-04-04T14:04:18.966Z</time></trkpt><trkpt lat="43.4931032" lon="10.7438084"><ele>57.0</ele><time>2026-04-04T14:04:19.961Z</time></trkpt><trkpt lat="43.4930485" lon="10.7438748"><ele>56.66666666666667</ele><time>2026-04-04T14:04:20.969Z</time></trkpt><trkpt lat="43.4929916" lon="10.743984"><ele>56.333333333333336</ele><time>2026-04-04T14:04:22.956Z</time></trkpt><trkpt lat="43.4930081" lon="10.7440837"><ele>56.0</ele><time>2026-04-04T14:04:25.963Z</time></trkpt><trkpt lat="43.4930437" lon="10.744212"><ele>56.00000000000001</ele><time>2026-04-04T14:04:27.958Z</time></trkpt><trkpt lat="43.4930664" lon="10.7443"><ele>56.0</ele><time>2026-04-04T14:04:28.967Z</time></trkpt><trkpt lat="43.4930904" lon="10.7444004"><ele>56.0</ele><time>2026-04-04T14:04:29.948Z</time></trkpt><trkpt lat="43.4931176" lon="10.7445131"><ele>56.0</ele><time>2026-04-04T14:04:30.964Z</time></trkpt><trkpt lat="43.4931411" lon="10.7446407"><ele>56.00000000000001</ele><time>2026-04-04T14:04:31.972Z</time></trkpt><trkpt lat="43.4931655" lon="10.7447755"><ele>56.0</ele><time>2026-04-04T14:04:32.968Z</time></trkpt><trkpt lat="43.49319" lon="10.7449117"><ele>56.4</ele><time>2026-04-04T14:04:33.979Z</time></trkpt><trkpt lat="43.4932162" lon="10.7450546"><ele>56.8</ele><time>2026-04-04T14:04:34.955Z</time></trkpt><trkpt lat="43.493242" lon="10.7451991"><ele>57.199999999999996</ele><time>2026-04-04T14:04:35.967Z</time></trkpt><trkpt lat="43.4932675" lon="10.7453422"><ele>57.599999999999994</ele><time>2026-04-04T14:04:36.964Z</time></trkpt><trkpt lat="43.493297" lon="10.7454914"><ele>58.0</ele><time>2026-04-04T14:04:37.973Z</time></trkpt><trkpt lat="43.4933243" lon="10.7456383"><ele>58.25</ele><time>2026-04-04T14:04:38.95Z</time></trkpt><trkpt lat="43.4933529" lon="10.7457914"><ele>58.5</ele><time>2026-04-04T14:04:39.968Z</time></trkpt><trkpt lat="43.4933827" lon="10.7459441"><ele>58.75</ele><time>2026-04-04T14:04:40.951Z</time></trkpt><trkpt lat="43.4934124" lon="10.7460977"><ele>59.0</ele><time>2026-04-04T14:04:41.961Z</time></trkpt><trkpt lat="43.493441" lon="10.7462491"><ele>59.2</ele><time>2026-04-04T14:04:42.961Z</time></trkpt><trkpt lat="43.4934681" lon="10.7463919"><ele>59.400000000000006</ele><time>2026-04-04T14:04:43.971Z</time></trkpt><trkpt lat="43.4934937" lon="10.7465332"><ele>59.6</ele><time>2026-04-04T14:04:44.951Z</time></trkpt><trkpt lat="43.4935195" lon="10.7466749"><ele>59.8</ele><time>2026-04-04T14:04:45.973Z</time></trkpt><trkpt lat="43.4935477" lon="10.7468128"><ele>60.0</ele><time>2026-04-04T14:04:46.958Z</time></trkpt><trkpt lat="43.4935745" lon="10.7469438"><ele>60.0</ele><time>2026-04-04T14:04:47.965Z</time></trkpt><trkpt lat="43.4935969" lon="10.7470537"><ele>60.0</ele><time>2026-04-04T14:04:48.951Z</time></trkpt><trkpt lat="43.4936303" lon="10.7471526"><ele>60.0</ele><time>2026-04-04T14:04:49.956Z</time></trkpt><trkpt lat="43.4936581" lon="10.7472579"><ele>60.0</ele><time>2026-04-04T14:04:50.971Z</time></trkpt><trkpt lat="43.493679" lon="10.7473589"><ele>60.0</ele><time>2026-04-04T14:04:51.957Z</time></trkpt><trkpt lat="43.4937018" lon="10.7474547"><ele>60.0</ele><time>2026-04-04T14:04:52.949Z</time></trkpt><trkpt lat="43.4937206" lon="10.7475511"><ele>60.0</ele><time>2026-04-04T14:04:53.959Z</time></trkpt><trkpt lat="43.493738" lon="10.7476547"><ele>60.0</ele><time>2026-04-04T14:04:54.957Z</time></trkpt><trkpt lat="43.4937552" lon="10.7477609"><ele>60.0</ele><time>2026-04-04T14:04:55.967Z</time></trkpt><trkpt lat="43.4937746" lon="10.7478676"><ele>60.0</ele><time>2026-04-04T14:04:56.96Z</time></trkpt><trkpt lat="43.4937966" lon="10.7479683"><ele>60.0</ele><time>2026-04-04T14:04:57.977Z</time></trkpt><trkpt lat="43.4938163" lon="10.7480634"><ele>60.0</ele><time>2026-04-04T14:04:58.949Z</time></trkpt><trkpt lat="43.4938338" lon="10.748159"><ele>60.0</ele><time>2026-04-04T14:04:59.969Z</time></trkpt><trkpt lat="43.4938464" lon="10.7482494"><ele>60.0</ele><time>2026-04-04T14:05:00.958Z</time></trkpt><trkpt lat="43.4938602" lon="10.7483404"><ele>60.0</ele><time>2026-04-04T14:05:01.959Z</time></trkpt><trkpt lat="43.4938734" lon="10.7484364"><ele>60.0</ele><time>2026-04-04T14:05:02.965Z</time></trkpt><trkpt lat="43.4938895" lon="10.7485401"><ele>60.0</ele><time>2026-04-04T14:05:03.961Z</time></trkpt><trkpt lat="43.4939106" lon="10.7486526"><ele>60.0</ele><time>2026-04-04T14:05:04.955Z</time></trkpt><trkpt lat="43.4939341" lon="10.7487739"><ele>60.4</ele><time>2026-04-04T14:05:05.962Z</time></trkpt><trkpt lat="43.4939596" lon="10.7489011"><ele>60.8</ele><time>2026-04-04T14:05:06.96Z</time></trkpt><trkpt lat="43.4939856" lon="10.7490308"><ele>61.2</ele><time>2026-04-04T14:05:07.953Z</time></trkpt><trkpt lat="43.4940108" lon="10.7491632"><ele>61.6</ele><time>2026-04-04T14:05:08.958Z</time></trkpt><trkpt lat="43.4940365" lon="10.7492962"><ele>62.0</ele><time>2026-04-04T14:05:09.97Z</time></trkpt><trkpt lat="43.4940611" lon="10.7494217"><ele>62.66666666666667</ele><time>2026-04-04T14:05:10.963Z</time></trkpt><trkpt lat="43.4940832" lon="10.7495311"><ele>63.333333333333336</ele><time>2026-04-04T14:05:11.964Z</time></trkpt><trkpt lat="43.4941039" lon="10.7496246"><ele>64.0</ele><time>2026-04-04T14:05:12.973Z</time></trkpt><trkpt lat="43.4941433" lon="10.7497677"><ele>64.66666666666667</ele><time>2026-04-04T14:05:14.977Z</time></trkpt><trkpt lat="43.4941961" lon="10.7498352"><ele>65.33333333333333</ele><time>2026-04-04T14:05:16.956Z</time></trkpt><trkpt lat="43.4942741" lon="10.7498382"><ele>66.0</ele><time>2026-04-04T14:05:18.963Z</time></trkpt><trkpt lat="43.494377" lon="10.7498069"><ele>66.0</ele><time>2026-04-04T14:05:20.957Z</time></trkpt><trkpt lat="43.4944935" lon="10.7497687"><ele>66.0</ele><time>2026-04-04T14:05:22.949Z</time></trkpt><trkpt lat="43.4945561" lon="10.7497482"><ele>66.0</ele><time>2026-04-04T14:05:23.972Z</time></trkpt><trkpt lat="43.4946258" lon="10.7497273"><ele>66.0</ele><time>2026-04-04T14:05:24.958Z</time></trkpt><trkpt lat="43.4946962" lon="10.7497073"><ele>66.0</ele><time>2026-04-04T14:05:25.968Z</time></trkpt><trkpt lat="43.4947682" lon="10.7496884"><ele>66.0</ele><time>2026-04-04T14:05:26.969Z</time></trkpt><trkpt lat="43.4948385" lon="10.7496681"><ele>65.5</ele><time>2026-04-04T14:05:27.974Z</time></trkpt><trkpt lat="43.4949012" lon="10.7496436"><ele>65.0</ele><time>2026-04-04T14:05:28.977Z</time></trkpt><trkpt lat="43.4950118" lon="10.7495655"><ele>64.5</ele><time>2026-04-04T14:05:30.957Z</time></trkpt><trkpt lat="43.4950678" lon="10.7495084"><ele>64.0</ele><time>2026-04-04T14:05:31.945Z</time></trkpt><trkpt lat="43.4951283" lon="10.7494441"><ele>63.5</ele><time>2026-04-04T14:05:32.971Z</time></trkpt><trkpt lat="43.495188" lon="10.7493813"><ele>63.0</ele><time>2026-04-04T14:05:33.957Z</time></trkpt><trkpt lat="43.4952438" lon="10.7493253"><ele>63.0</ele><time>2026-04-04T14:05:34.968Z</time></trkpt><trkpt lat="43.4952965" lon="10.7492713"><ele>63.0</ele><time>2026-04-04T14:05:35.965Z</time></trkpt><trkpt lat="43.4953917" lon="10.7491737"><ele>63.0</ele><time>2026-04-04T14:05:37.969Z</time></trkpt><trkpt lat="43.4954463" lon="10.7491266"><ele>63.0</ele><time>2026-04-04T14:05:38.96Z</time></trkpt><trkpt lat="43.4955065" lon="10.7490813"><ele>63.0</ele><time>2026-04-04T14:05:39.975Z</time></trkpt><trkpt lat="43.4955668" lon="10.7490358"><ele>63.0</ele><time>2026-04-04T14:05:40.957Z</time></trkpt><trkpt lat="43.4956275" lon="10.7489891"><ele>63.833333333333336</ele><time>2026-04-04T14:05:41.95Z</time></trkpt><trkpt lat="43.49569" lon="10.7489422"><ele>64.66666666666667</ele><time>2026-04-04T14:05:42.951Z</time></trkpt><trkpt lat="43.4957482" lon="10.7489023"><ele>65.5</ele><time>2026-04-04T14:05:43.977Z</time></trkpt><trkpt lat="43.4958608" lon="10.748844"><ele>66.33333333333334</ele><time>2026-04-04T14:05:45.962Z</time></trkpt><trkpt lat="43.4959225" lon="10.7488255"><ele>67.16666666666667</ele><time>2026-04-04T14:05:46.977Z</time></trkpt><trkpt lat="43.4959905" lon="10.7488091"><ele>68.0</ele><time>2026-04-04T14:05:47.956Z</time></trkpt><trkpt lat="43.4960635" lon="10.7487937"><ele>68.0</ele><time>2026-04-04T14:05:48.947Z</time></trkpt><trkpt lat="43.4961382" lon="10.7487796"><ele>68.0</ele><time>2026-04-04T14:05:49.966Z</time></trkpt><trkpt lat="43.496211" lon="10.7487591"><ele>68.0</ele><time>2026-04-04T14:05:50.955Z</time></trkpt><trkpt lat="43.4962792" lon="10.7487282"><ele>68.0</ele><time>2026-04-04T14:05:51.972Z</time></trkpt><trkpt lat="43.4963421" lon="10.7486923"><ele>68.0</ele><time>2026-04-04T14:05:52.956Z</time></trkpt><trkpt lat="43.4964457" lon="10.7486224"><ele>68.0</ele><time>2026-04-04T14:05:54.958Z</time></trkpt><trkpt lat="43.4965394" lon="10.7485521"><ele>67.5</ele><time>2026-04-04T14:05:56.967Z</time></trkpt><trkpt lat="43.4966606" lon="10.7484977"><ele>67.0</ele><time>2026-04-04T14:05:58.966Z</time></trkpt><trkpt lat="43.496728" lon="10.7484735"><ele>66.5</ele><time>2026-04-04T14:05:59.968Z</time></trkpt><trkpt lat="43.4967965" lon="10.7484476"><ele>66.0</ele><time>2026-04-04T14:06:00.965Z</time></trkpt><trkpt lat="43.4968634" lon="10.7484218"><ele>65.5</ele><time>2026-04-04T14:06:01.973Z</time></trkpt><trkpt lat="43.4969312" lon="10.7483907"><ele>65.0</ele><time>2026-04-04T14:06:02.961Z</time></trkpt><trkpt lat="43.4969996" lon="10.7483561"><ele>65.0</ele><time>2026-04-04T14:06:03.963Z</time></trkpt><trkpt lat="43.4970698" lon="10.7483215"><ele>65.0</ele><time>2026-04-04T14:06:04.969Z</time></trkpt><trkpt lat="43.4971382" lon="10.7482884"><ele>65.0</ele><time>2026-04-04T14:06:05.959Z</time></trkpt><trkpt lat="43.4972008" lon="10.7482587"><ele>65.0</ele><time>2026-04-04T14:06:06.966Z</time></trkpt><trkpt lat="43.4973003" lon="10.7481943"><ele>65.0</ele><time>2026-04-04T14:06:08.955Z</time></trkpt><trkpt lat="43.4973735" lon="10.7481514"><ele>65.0</ele><time>2026-04-04T14:06:10.968Z</time></trkpt><trkpt lat="43.4974427" lon="10.7481768"><ele>64.83333333333334</ele><time>2026-04-04T14:06:12.975Z</time></trkpt><trkpt lat="43.4974969" lon="10.7482891"><ele>64.66666666666667</ele><time>2026-04-04T14:06:14.975Z</time></trkpt><trkpt lat="43.4975483" lon="10.7484485"><ele>64.5</ele><time>2026-04-04T14:06:16.972Z</time></trkpt><trkpt lat="43.4975752" lon="10.7485375"><ele>64.33333333333333</ele><time>2026-04-04T14:06:17.948Z</time></trkpt><trkpt lat="43.4976023" lon="10.7486256"><ele>64.16666666666666</ele><time>2026-04-04T14:06:18.963Z</time></trkpt><trkpt lat="43.4976294" lon="10.7487146"><ele>64.0</ele><time>2026-04-04T14:06:19.954Z</time></trkpt><trkpt lat="43.4976582" lon="10.7488091"><ele>64.8</ele><time>2026-04-04T14:06:20.968Z</time></trkpt><trkpt lat="43.4976915" lon="10.7489166"><ele>65.60000000000001</ele><time>2026-04-04T14:06:21.973Z</time></trkpt><trkpt lat="43.4977284" lon="10.7490385"><ele>66.4</ele><time>2026-04-04T14:06:22.969Z</time></trkpt><trkpt lat="43.4977669" lon="10.7491666"><ele>67.2</ele><time>2026-04-04T14:06:23.961Z</time></trkpt><trkpt lat="43.497807" lon="10.7493006"><ele>68.0</ele><time>2026-04-04T14:06:24.957Z</time></trkpt><trkpt lat="43.4978471" lon="10.7494309"><ele>67.8</ele><time>2026-04-04T14:06:25.957Z</time></trkpt><trkpt lat="43.4978836" lon="10.7495481"><ele>67.6</ele><time>2026-04-04T14:06:26.964Z</time></trkpt><trkpt lat="43.497916" lon="10.7496558"><ele>67.4</ele><time>2026-04-04T14:06:27.949Z</time></trkpt><trkpt lat="43.4979469" lon="10.7497678"><ele>67.2</ele><time>2026-04-04T14:06:28.961Z</time></trkpt><trkpt lat="43.4979778" lon="10.7498871"><ele>67.0</ele><time>2026-04-04T14:06:29.967Z</time></trkpt><trkpt lat="43.4980139" lon="10.7500086"><ele>67.0</ele><time>2026-04-04T14:06:30.968Z</time></trkpt><trkpt lat="43.4980512" lon="10.750129"><ele>67.0</ele><time>2026-04-04T14:06:31.971Z</time></trkpt><trkpt lat="43.4980845" lon="10.7502359"><ele>67.0</ele><time>2026-04-04T14:06:32.953Z</time></trkpt><trkpt lat="43.4981169" lon="10.7503423"><ele>67.0</ele><time>2026-04-04T14:06:33.954Z</time></trkpt><trkpt lat="43.4981499" lon="10.750449"><ele>67.0</ele><time>2026-04-04T14:06:34.968Z</time></trkpt><trkpt lat="43.4981819" lon="10.7505547"><ele>67.0</ele><time>2026-04-04T14:06:35.964Z</time></trkpt><trkpt lat="43.4982166" lon="10.7506647"><ele>67.16666666666666</ele><time>2026-04-04T14:06:36.948Z</time></trkpt><trkpt lat="43.4982496" lon="10.7507737"><ele>67.33333333333333</ele><time>2026-04-04T14:06:37.96Z</time></trkpt><trkpt lat="43.4982821" lon="10.7508785"><ele>67.5</ele><time>2026-04-04T14:06:38.961Z</time></trkpt><trkpt lat="43.4983138" lon="10.7509813"><ele>67.66666666666667</ele><time>2026-04-04T14:06:39.954Z</time></trkpt><trkpt lat="43.4983444" lon="10.7510811"><ele>67.83333333333334</ele><time>2026-04-04T14:06:40.945Z</time></trkpt><trkpt lat="43.4983743" lon="10.7511791"><ele>68.0</ele><time>2026-04-04T14:06:41.959Z</time></trkpt><trkpt lat="43.4984018" lon="10.7512697"><ele>68.4</ele><time>2026-04-04T14:06:42.964Z</time></trkpt><trkpt lat="43.4984491" lon="10.751414"><ele>68.8</ele><time>2026-04-04T14:06:44.966Z</time></trkpt><trkpt lat="43.4984949" lon="10.7515368"><ele>69.2</ele><time>2026-04-04T14:06:46.957Z</time></trkpt><trkpt lat="43.4985314" lon="10.7516539"><ele>69.6</ele><time>2026-04-04T14:06:48.972Z</time></trkpt><trkpt lat="43.498567" lon="10.7517626"><ele>70.0</ele><time>2026-04-04T14:06:50.959Z</time></trkpt><trkpt lat="43.4986024" lon="10.7518913"><ele>70.33333333333333</ele><time>2026-04-04T14:06:52.966Z</time></trkpt><trkpt lat="43.4986411" lon="10.7520326"><ele>70.66666666666666</ele><time>2026-04-04T14:06:54.955Z</time></trkpt><trkpt lat="43.4986777" lon="10.7521403"><ele>71.0</ele><time>2026-04-04T14:06:56.97Z</time></trkpt><trkpt lat="43.4987249" lon="10.7522071"><ele>71.33333333333333</ele><time>2026-04-04T14:06:58.944Z</time></trkpt><trkpt lat="43.4987856" lon="10.7522455"><ele>71.66666666666667</ele><time>2026-04-04T14:07:00.957Z</time></trkpt><trkpt lat="43.4988529" lon="10.7522625"><ele>72.0</ele><time>2026-04-04T14:07:02.966Z</time></trkpt><trkpt lat="43.4989465" lon="10.7522939"><ele>73.0</ele><time>2026-04-04T14:07:05.96Z</time></trkpt><trkpt lat="43.4990119" lon="10.7523522"><ele>74.0</ele><time>2026-04-04T14:07:07.951Z</time></trkpt><trkpt lat="43.4990647" lon="10.7524539"><ele>75.0</ele><time>2026-04-04T14:07:09.97Z</time></trkpt><trkpt lat="43.4991083" lon="10.7525963"><ele>76.0</ele><time>2026-04-04T14:07:11.958Z</time></trkpt><trkpt lat="43.4991457" lon="10.7527584"><ele>77.0</ele><time>2026-04-04T14:07:13.971Z</time></trkpt><trkpt lat="43.4991621" lon="10.752856"><ele>78.33333333333334</ele><time>2026-04-04T14:07:14.971Z</time></trkpt><trkpt lat="43.4991774" lon="10.7529566"><ele>79.66666666666667</ele><time>2026-04-04T14:07:15.965Z</time></trkpt><trkpt lat="43.499192" lon="10.7530648"><ele>81.0</ele><time>2026-04-04T14:07:16.955Z</time></trkpt><trkpt lat="43.4992058" lon="10.7531705"><ele>82.33333333333333</ele><time>2026-04-04T14:07:17.956Z</time></trkpt><trkpt lat="43.4992196" lon="10.7532768"><ele>83.66666666666666</ele><time>2026-04-04T14:07:18.946Z</time></trkpt><trkpt lat="43.4992322" lon="10.7533758"><ele>85.0</ele><time>2026-04-04T14:07:19.957Z</time></trkpt><trkpt lat="43.4992449" lon="10.753471"><ele>86.0</ele><time>2026-04-04T14:07:20.954Z</time></trkpt><trkpt lat="43.4992553" lon="10.7535622"><ele>87.0</ele><time>2026-04-04T14:07:21.968Z</time></trkpt><trkpt lat="43.4992663" lon="10.7536582"><ele>88.0</ele><time>2026-04-04T14:07:22.965Z</time></trkpt><trkpt lat="43.4992768" lon="10.7537547"><ele>89.0</ele><time>2026-04-04T14:07:23.961Z</time></trkpt><trkpt lat="43.4992871" lon="10.7538537"><ele>90.0</ele><time>2026-04-04T14:07:24.965Z</time></trkpt><trkpt lat="43.499297" lon="10.7539543"><ele>91.0</ele><time>2026-04-04T14:07:25.962Z</time></trkpt><trkpt lat="43.4993068" lon="10.7540519"><ele>92.0</ele><time>2026-04-04T14:07:26.961Z</time></trkpt><trkpt lat="43.499317" lon="10.7541507"><ele>92.0</ele><time>2026-04-04T14:07:27.951Z</time></trkpt><trkpt lat="43.499328" lon="10.7542492"><ele>92.0</ele><time>2026-04-04T14:07:28.954Z</time></trkpt><trkpt lat="43.4993361" lon="10.7543396"><ele>92.0</ele><time>2026-04-04T14:07:29.964Z</time></trkpt><trkpt lat="43.4993539" lon="10.7545033"><ele>92.0</ele><time>2026-04-04T14:07:31.947Z</time></trkpt><trkpt lat="43.4993672" lon="10.7546564"><ele>92.0</ele><time>2026-04-04T14:07:33.958Z</time></trkpt><trkpt lat="43.4993703" lon="10.7547757"><ele>92.66666666666667</ele><time>2026-04-04T14:07:35.972Z</time></trkpt><trkpt lat="43.4993629" lon="10.7548777"><ele>93.33333333333334</ele><time>2026-04-04T14:07:37.969Z</time></trkpt><trkpt lat="43.4993566" lon="10.7549696"><ele>94.0</ele><time>2026-04-04T14:07:39.948Z</time></trkpt><trkpt lat="43.4993175" lon="10.7550623"><ele>94.66666666666667</ele><time>2026-04-04T14:07:47.962Z</time></trkpt><trkpt lat="43.4992639" lon="10.7551585"><ele>95.33333333333333</ele><time>2026-04-04T14:07:49.953Z</time></trkpt><trkpt lat="43.4992429" lon="10.7552412"><ele>96.0</ele><time>2026-04-04T14:07:51.964Z</time></trkpt><trkpt lat="43.4992745" lon="10.7553588"><ele>96.5</ele><time>2026-04-04T14:08:11.961Z</time></trkpt><trkpt lat="43.499324" lon="10.7554965"><ele>97.0</ele><time>2026-04-04T14:08:13.953Z</time></trkpt><trkpt lat="43.4993718" lon="10.7556543"><ele>97.5</ele><time>2026-04-04T14:08:15.957Z</time></trkpt><trkpt lat="43.4993871" lon="10.7557462"><ele>98.0</ele><time>2026-04-04T14:08:16.956Z</time></trkpt><trkpt lat="43.4993937" lon="10.7558437"><ele>98.5</ele><time>2026-04-04T14:08:17.958Z</time></trkpt><trkpt lat="43.4993969" lon="10.7559437"><ele>99.0</ele><time>2026-04-04T14:08:18.966Z</time></trkpt><trkpt lat="43.4994024" lon="10.7560445"><ele>99.42857142857143</ele><time>2026-04-04T14:08:19.959Z</time></trkpt><trkpt lat="43.4994117" lon="10.7561487"><ele>99.85714285714285</ele><time>2026-04-04T14:08:20.961Z</time></trkpt><trkpt lat="43.4994214" lon="10.7562569"><ele>100.28571428571428</ele><time>2026-04-04T14:08:21.974Z</time></trkpt><trkpt lat="43.4994311" lon="10.7563602"><ele>100.71428571428572</ele><time>2026-04-04T14:08:22.963Z</time></trkpt><trkpt lat="43.4994399" lon="10.7564565"><ele>101.14285714285714</ele><time>2026-04-04T14:08:23.953Z</time></trkpt><trkpt lat="43.4994488" lon="10.7565505"><ele>101.57142857142857</ele><time>2026-04-04T14:08:24.961Z</time></trkpt><trkpt lat="43.4994582" lon="10.7566446"><ele>102.0</ele><time>2026-04-04T14:08:25.964Z</time></trkpt><trkpt lat="43.4994687" lon="10.7567385"><ele>102.0</ele><time>2026-04-04T14:08:26.966Z</time></trkpt><trkpt lat="43.4994783" lon="10.7568324"><ele>102.0</ele><time>2026-04-04T14:08:27.967Z</time></trkpt><trkpt lat="43.4994867" lon="10.7569269"><ele>102.0</ele><time>2026-04-04T14:08:28.969Z</time></trkpt><trkpt lat="43.4994977" lon="10.7570305"><ele>102.0</ele><time>2026-04-04T14:08:29.961Z</time></trkpt><trkpt lat="43.4995092" lon="10.7571422"><ele>102.0</ele><time>2026-04-04T14:08:30.97Z</time></trkpt><trkpt lat="43.4995195" lon="10.7572551"><ele>102.0</ele><time>2026-04-04T14:08:31.968Z</time></trkpt><trkpt lat="43.4995292" lon="10.7573681"><ele>102.83333333333333</ele><time>2026-04-04T14:08:32.966Z</time></trkpt><trkpt lat="43.4995388" lon="10.7574771"><ele>103.66666666666666</ele><time>2026-04-04T14:08:33.955Z</time></trkpt><trkpt lat="43.4995483" lon="10.7575824"><ele>104.5</ele><time>2026-04-04T14:08:34.963Z</time></trkpt><trkpt lat="43.4995546" lon="10.7576875"><ele>105.33333333333333</ele><time>2026-04-04T14:08:35.955Z</time></trkpt><trkpt lat="43.4995624" lon="10.7577928"><ele>106.16666666666666</ele><time>2026-04-04T14:08:36.969Z</time></trkpt><trkpt lat="43.4995691" lon="10.7579027"><ele>107.0</ele><time>2026-04-04T14:08:37.962Z</time></trkpt><trkpt lat="43.4995758" lon="10.7580188"><ele>107.83333333333333</ele><time>2026-04-04T14:08:38.959Z</time></trkpt><trkpt lat="43.499583" lon="10.7581408"><ele>108.66666666666666</ele><time>2026-04-04T14:08:39.958Z</time></trkpt><trkpt lat="43.4995887" lon="10.7582645"><ele>109.5</ele><time>2026-04-04T14:08:40.952Z</time></trkpt><trkpt lat="43.4995941" lon="10.758388"><ele>110.33333333333334</ele><time>2026-04-04T14:08:41.953Z</time></trkpt><trkpt lat="43.4996" lon="10.7585092"><ele>111.16666666666667</ele><time>2026-04-04T14:08:42.962Z</time></trkpt><trkpt lat="43.4996051" lon="10.758631"><ele>112.0</ele><time>2026-04-04T14:08:43.967Z</time></trkpt><trkpt lat="43.4996095" lon="10.7587561"><ele>112.6</ele><time>2026-04-04T14:08:44.968Z</time></trkpt><trkpt lat="43.499614" lon="10.7588817"><ele>113.19999999999999</ele><time>2026-04-04T14:08:45.967Z</time></trkpt><trkpt lat="43.4996188" lon="10.7590065"><ele>113.8</ele><time>2026-04-04T14:08:46.958Z</time></trkpt><trkpt lat="43.4996234" lon="10.7591311"><ele>114.4</ele><time>2026-04-04T14:08:47.965Z</time></trkpt><trkpt lat="43.4996267" lon="10.7592562"><ele>115.0</ele><time>2026-04-04T14:08:48.954Z</time></trkpt><trkpt lat="43.49963" lon="10.759385"><ele>116.2</ele><time>2026-04-04T14:08:49.968Z</time></trkpt><trkpt lat="43.4996323" lon="10.7595145"><ele>117.4</ele><time>2026-04-04T14:08:50.958Z</time></trkpt><trkpt lat="43.4996355" lon="10.7596468"><ele>118.6</ele><time>2026-04-04T14:08:51.968Z</time></trkpt><trkpt lat="43.4996402" lon="10.7597777"><ele>119.8</ele><time>2026-04-04T14:08:52.972Z</time></trkpt><trkpt lat="43.4996461" lon="10.7599021"><ele>121.0</ele><time>2026-04-04T14:08:53.966Z</time></trkpt><trkpt lat="43.4996544" lon="10.760022"><ele>121.00000000000001</ele><time>2026-04-04T14:08:54.965Z</time></trkpt><trkpt lat="43.4996652" lon="10.7601378"><ele>121.0</ele><time>2026-04-04T14:08:55.972Z</time></trkpt><trkpt lat="43.4996789" lon="10.760252"><ele>121.0</ele><time>2026-04-04T14:08:56.974Z</time></trkpt><trkpt lat="43.4996949" lon="10.7603675"><ele>121.0</ele><time>2026-04-04T14:08:57.971Z</time></trkpt><trkpt lat="43.499712" lon="10.7604823"><ele>121.00000000000001</ele><time>2026-04-04T14:08:58.972Z</time></trkpt><trkpt lat="43.4997316" lon="10.7605975"><ele>121.0</ele><time>2026-04-04T14:08:59.958Z</time></trkpt><trkpt lat="43.4997526" lon="10.7607157"><ele>121.50000000000001</ele><time>2026-04-04T14:09:00.958Z</time></trkpt><trkpt lat="43.4997741" lon="10.7608342"><ele>122.0</ele><time>2026-04-04T14:09:01.962Z</time></trkpt><trkpt lat="43.4997982" lon="10.7609526"><ele>122.5</ele><time>2026-04-04T14:09:02.967Z</time></trkpt><trkpt lat="43.4998217" lon="10.7610693"><ele>123.0</ele><time>2026-04-04T14:09:03.956Z</time></trkpt><trkpt lat="43.499846" lon="10.7611843"><ele>123.50000000000001</ele><time>2026-04-04T14:09:04.956Z</time></trkpt><trkpt lat="43.4998715" lon="10.7612961"><ele>124.0</ele><time>2026-04-04T14:09:05.962Z</time></trkpt><trkpt lat="43.4998981" lon="10.7614072"><ele>124.33333333333334</ele><time>2026-04-04T14:09:06.966Z</time></trkpt><trkpt lat="43.4999276" lon="10.7615153"><ele>124.66666666666667</ele><time>2026-04-04T14:09:07.969Z</time></trkpt><trkpt lat="43.4999575" lon="10.761621"><ele>125.0</ele><time>2026-04-04T14:09:08.962Z</time></trkpt><trkpt lat="43.4999866" lon="10.7617218"><ele>125.33333333333334</ele><time>2026-04-04T14:09:09.977Z</time></trkpt><trkpt lat="43.5000166" lon="10.7618147"><ele>125.66666666666667</ele><time>2026-04-04T14:09:10.959Z</time></trkpt><trkpt lat="43.5000438" lon="10.7619046"><ele>126.0</ele><time>2026-04-04T14:09:11.968Z</time></trkpt><trkpt lat="43.5000708" lon="10.7619923"><ele>127.14285714285714</ele><time>2026-04-04T14:09:12.959Z</time></trkpt><trkpt lat="43.5000966" lon="10.7620778"><ele>128.28571428571428</ele><time>2026-04-04T14:09:13.962Z</time></trkpt><trkpt lat="43.5001242" lon="10.7621655"><ele>129.42857142857144</ele><time>2026-04-04T14:09:14.963Z</time></trkpt><trkpt lat="43.5001522" lon="10.7622543"><ele>130.57142857142856</ele><time>2026-04-04T14:09:15.963Z</time></trkpt><trkpt lat="43.5001812" lon="10.7623474"><ele>131.71428571428572</ele><time>2026-04-04T14:09:16.957Z</time></trkpt><trkpt lat="43.5002085" lon="10.7624368"><ele>132.85714285714286</ele><time>2026-04-04T14:09:17.965Z</time></trkpt><trkpt lat="43.5002347" lon="10.7625239"><ele>134.0</ele><time>2026-04-04T14:09:18.962Z</time></trkpt><trkpt lat="43.5002652" lon="10.7626659"><ele>133.33333333333331</ele><time>2026-04-04T14:09:20.956Z</time></trkpt><trkpt lat="43.5002592" lon="10.7627705"><ele>132.66666666666666</ele><time>2026-04-04T14:09:22.95Z</time></trkpt><trkpt lat="43.5002202" lon="10.7628696"><ele>132.0</ele><time>2026-04-04T14:09:24.955Z</time></trkpt><trkpt lat="43.5001482" lon="10.7629446"><ele>131.33333333333334</ele><time>2026-04-04T14:09:26.953Z</time></trkpt><trkpt lat="43.5000915" lon="10.7629907"><ele>130.66666666666669</ele><time>2026-04-04T14:09:28.968Z</time></trkpt><trkpt lat="43.5001091" lon="10.7630867"><ele>130.0</ele><time>2026-04-04T14:09:39.975Z</time></trkpt><trkpt lat="43.5002157" lon="10.7631127"><ele>130.0</ele><time>2026-04-04T14:09:41.95Z</time></trkpt><trkpt lat="43.500285" lon="10.7631297"><ele>130.0</ele><time>2026-04-04T14:09:42.969Z</time></trkpt><trkpt lat="43.5003621" lon="10.7631582"><ele>130.0</ele><time>2026-04-04T14:09:43.972Z</time></trkpt><trkpt lat="43.500445" lon="10.7631897"><ele>130.0</ele><time>2026-04-04T14:09:44.962Z</time></trkpt><trkpt lat="43.5005401" lon="10.7632216"><ele>130.0</ele><time>2026-04-04T14:09:45.972Z</time></trkpt><trkpt lat="43.5006398" lon="10.7632538"><ele>130.0</ele><time>2026-04-04T14:09:46.971Z</time></trkpt><trkpt lat="43.5007418" lon="10.7632854"><ele>132.2</ele><time>2026-04-04T14:09:47.957Z</time></trkpt><trkpt lat="43.5008421" lon="10.7633212"><ele>134.4</ele><time>2026-04-04T14:09:48.957Z</time></trkpt><trkpt lat="43.5009383" lon="10.7633605"><ele>136.6</ele><time>2026-04-04T14:09:49.96Z</time></trkpt><trkpt lat="43.5010283" lon="10.7634006"><ele>138.8</ele><time>2026-04-04T14:09:50.962Z</time></trkpt><trkpt lat="43.5011108" lon="10.7634511"><ele>141.0</ele><time>2026-04-04T14:09:51.962Z</time></trkpt><trkpt lat="43.501187" lon="10.7635199"><ele>143.2</ele><time>2026-04-04T14:09:52.974Z</time></trkpt><trkpt lat="43.5012603" lon="10.7636127"><ele>145.39999999999998</ele><time>2026-04-04T14:09:53.947Z</time></trkpt><trkpt lat="43.5013348" lon="10.7637209"><ele>147.6</ele><time>2026-04-04T14:09:54.959Z</time></trkpt><trkpt lat="43.501413" lon="10.7638327"><ele>149.79999999999998</ele><time>2026-04-04T14:09:55.954Z</time></trkpt><trkpt lat="43.5014944" lon="10.7639453"><ele>152.0</ele><time>2026-04-04T14:09:56.971Z</time></trkpt><trkpt lat="43.5015808" lon="10.7640486"><ele>152.0</ele><time>2026-04-04T14:09:57.954Z</time></trkpt><trkpt lat="43.5016634" lon="10.7641432"><ele>152.0</ele><time>2026-04-04T14:09:58.958Z</time></trkpt><trkpt lat="43.5017361" lon="10.7642467"><ele>152.0</ele><time>2026-04-04T14:09:59.956Z</time></trkpt><trkpt lat="43.5017973" lon="10.7643664"><ele>152.0</ele><time>2026-04-04T14:10:00.967Z</time></trkpt><trkpt lat="43.5018477" lon="10.7644964"><ele>152.0</ele><time>2026-04-04T14:10:01.958Z</time></trkpt><trkpt lat="43.5018982" lon="10.7646245"><ele>151.75</ele><time>2026-04-04T14:10:02.959Z</time></trkpt><trkpt lat="43.5019584" lon="10.764745"><ele>151.5</ele><time>2026-04-04T14:10:03.97Z</time></trkpt><trkpt lat="43.5020325" lon="10.7648613"><ele>151.25</ele><time>2026-04-04T14:10:04.961Z</time></trkpt><trkpt lat="43.5021177" lon="10.7649778"><ele>151.0</ele><time>2026-04-04T14:10:05.976Z</time></trkpt><trkpt lat="43.5022077" lon="10.765091"><ele>150.75</ele><time>2026-04-04T14:10:06.978Z</time></trkpt><trkpt lat="43.5022992" lon="10.7652047"><ele>150.5</ele><time>2026-04-04T14:10:07.972Z</time></trkpt><trkpt lat="43.5023936" lon="10.7653142"><ele>150.25</ele><time>2026-04-04T14:10:08.98Z</time></trkpt><trkpt lat="43.5024912" lon="10.7654141"><ele>150.0</ele><time>2026-04-04T14:10:09.972Z</time></trkpt><trkpt lat="43.5025944" lon="10.7655031"><ele>150.0</ele><time>2026-04-04T14:10:10.95Z</time></trkpt><trkpt lat="43.5027031" lon="10.7655736"><ele>150.0</ele><time>2026-04-04T14:10:11.96Z</time></trkpt><trkpt lat="43.5028221" lon="10.7656269"><ele>150.0</ele><time>2026-04-04T14:10:12.968Z</time></trkpt><trkpt lat="43.5029543" lon="10.7656657"><ele>150.0</ele><time>2026-04-04T14:10:13.961Z</time></trkpt><trkpt lat="43.5030931" lon="10.7656975"><ele>151.75</ele><time>2026-04-04T14:10:14.973Z</time></trkpt><trkpt lat="43.5032226" lon="10.7657286"><ele>153.5</ele><time>2026-04-04T14:10:15.98Z</time></trkpt><trkpt lat="43.5033396" lon="10.7657523"><ele>155.25</ele><time>2026-04-04T14:10:16.972Z</time></trkpt><trkpt lat="43.5034483" lon="10.7657639"><ele>157.0</ele><time>2026-04-04T14:10:17.973Z</time></trkpt><trkpt lat="43.5035497" lon="10.7657725"><ele>157.0</ele><time>2026-04-04T14:10:18.955Z</time></trkpt><trkpt lat="43.5036441" lon="10.7657702"><ele>157.0</ele><time>2026-04-04T14:10:19.977Z</time></trkpt><trkpt lat="43.5037295" lon="10.7657667"><ele>157.0</ele><time>2026-04-04T14:10:20.976Z</time></trkpt><trkpt lat="43.5038088" lon="10.7657548"><ele>157.0</ele><time>2026-04-04T14:10:21.954Z</time></trkpt><trkpt lat="43.5038837" lon="10.7657441"><ele>157.0</ele><time>2026-04-04T14:10:22.973Z</time></trkpt><trkpt lat="43.5039591" lon="10.7657367"><ele>157.0</ele><time>2026-04-04T14:10:23.963Z</time></trkpt><trkpt lat="43.5040332" lon="10.7657505"><ele>156.5</ele><time>2026-04-04T14:10:24.969Z</time></trkpt><trkpt lat="43.5041145" lon="10.765789"><ele>156.0</ele><time>2026-04-04T14:10:25.953Z</time></trkpt><trkpt lat="43.504194" lon="10.765835"><ele>155.5</ele><time>2026-04-04T14:10:26.958Z</time></trkpt><trkpt lat="43.5042666" lon="10.7658791"><ele>155.0</ele><time>2026-04-04T14:10:27.963Z</time></trkpt><trkpt lat="43.5043334" lon="10.7659351"><ele>154.5</ele><time>2026-04-04T14:10:28.962Z</time></trkpt><trkpt lat="43.5043995" lon="10.7660297"><ele>154.0</ele><time>2026-04-04T14:10:29.957Z</time></trkpt><trkpt lat="43.5044425" lon="10.7661497"><ele>154.0</ele><time>2026-04-04T14:10:30.967Z</time></trkpt><trkpt lat="43.5044828" lon="10.7662612"><ele>154.0</ele><time>2026-04-04T14:10:31.95Z</time></trkpt><trkpt lat="43.5045319" lon="10.7663645"><ele>154.0</ele><time>2026-04-04T14:10:32.977Z</time></trkpt><trkpt lat="43.5045879" lon="10.7664634"><ele>154.0</ele><time>2026-04-04T14:10:33.967Z</time></trkpt><trkpt lat="43.5046406" lon="10.7665584"><ele>154.0</ele><time>2026-04-04T14:10:34.966Z</time></trkpt><trkpt lat="43.5046915" lon="10.7666509"><ele>154.0</ele><time>2026-04-04T14:10:35.961Z</time></trkpt><trkpt lat="43.5047356" lon="10.7667382"><ele>154.0</ele><time>2026-04-04T14:10:36.961Z</time></trkpt><trkpt lat="43.5047798" lon="10.7668211"><ele>154.0</ele><time>2026-04-04T14:10:37.954Z</time></trkpt><trkpt lat="43.5048375" lon="10.7668902"><ele>154.0</ele><time>2026-04-04T14:10:38.961Z</time></trkpt><trkpt lat="43.5048955" lon="10.7669374"><ele>154.0</ele><time>2026-04-04T14:10:39.965Z</time></trkpt><trkpt lat="43.5049818" lon="10.7670078"><ele>154.0</ele><time>2026-04-04T14:10:41.966Z</time></trkpt><trkpt lat="43.5050401" lon="10.7670527"><ele>154.0</ele><time>2026-04-04T14:10:43.957Z</time></trkpt><trkpt lat="43.5050533" lon="10.767205"><ele>154.0</ele><time>2026-04-04T14:10:46.955Z</time></trkpt><trkpt lat="43.5050254" lon="10.7672964"><ele>154.0</ele><time>2026-04-04T14:10:47.966Z</time></trkpt><trkpt lat="43.5049935" lon="10.7674131"><ele>154.0</ele><time>2026-04-04T14:10:48.958Z</time></trkpt><trkpt lat="43.5049568" lon="10.7675491"><ele>154.0</ele><time>2026-04-04T14:10:49.969Z</time></trkpt><trkpt lat="43.5049177" lon="10.7677037"><ele>154.0</ele><time>2026-04-04T14:10:50.948Z</time></trkpt><trkpt lat="43.5048724" lon="10.7678766"><ele>153.0</ele><time>2026-04-04T14:10:51.965Z</time></trkpt><trkpt lat="43.5048193" lon="10.7680476"><ele>152.0</ele><time>2026-04-04T14:10:52.959Z</time></trkpt><trkpt lat="43.5047665" lon="10.7682223"><ele>151.0</ele><time>2026-04-04T14:10:53.963Z</time></trkpt><trkpt lat="43.5047116" lon="10.7683941"><ele>150.0</ele><time>2026-04-04T14:10:54.971Z</time></trkpt><trkpt lat="43.504658" lon="10.7685663"><ele>150.0</ele><time>2026-04-04T14:10:55.965Z</time></trkpt><trkpt lat="43.504626" lon="10.7687485"><ele>150.0</ele><time>2026-04-04T14:10:56.961Z</time></trkpt><trkpt lat="43.5046332" lon="10.7689357"><ele>150.0</ele><time>2026-04-04T14:10:57.959Z</time></trkpt><trkpt lat="43.5046694" lon="10.7691101"><ele>150.0</ele><time>2026-04-04T14:10:58.968Z</time></trkpt><trkpt lat="43.5047345" lon="10.7692679"><ele>152.5</ele><time>2026-04-04T14:10:59.962Z</time></trkpt><trkpt lat="43.5048187" lon="10.7694062"><ele>155.0</ele><time>2026-04-04T14:11:00.958Z</time></trkpt><trkpt lat="43.5049031" lon="10.769539"><ele>157.5</ele><time>2026-04-04T14:11:01.952Z</time></trkpt><trkpt lat="43.5049853" lon="10.7696791"><ele>160.0</ele><time>2026-04-04T14:11:02.961Z</time></trkpt><trkpt lat="43.505039" lon="10.7698332"><ele>160.0</ele><time>2026-04-04T14:11:03.957Z</time></trkpt><trkpt lat="43.5050612" lon="10.7700072"><ele>160.0</ele><time>2026-04-04T14:11:04.964Z</time></trkpt><trkpt lat="43.5050805" lon="10.7701889"><ele>160.0</ele><time>2026-04-04T14:11:05.965Z</time></trkpt><trkpt lat="43.5050688" lon="10.7703837"><ele>160.0</ele><time>2026-04-04T14:11:06.969Z</time></trkpt><trkpt lat="43.5050527" lon="10.7705794"><ele>161.25</ele><time>2026-04-04T14:11:07.958Z</time></trkpt><trkpt lat="43.5050308" lon="10.7707771"><ele>162.5</ele><time>2026-04-04T14:11:08.961Z</time></trkpt><trkpt lat="43.5050128" lon="10.7709721"><ele>163.75</ele><time>2026-04-04T14:11:09.961Z</time></trkpt><trkpt lat="43.5050155" lon="10.7711661"><ele>165.0</ele><time>2026-04-04T14:11:10.963Z</time></trkpt><trkpt lat="43.5050445" lon="10.7713567"><ele>165.25</ele><time>2026-04-04T14:11:11.96Z</time></trkpt><trkpt lat="43.5050864" lon="10.7715453"><ele>165.5</ele><time>2026-04-04T14:11:12.961Z</time></trkpt><trkpt lat="43.5051384" lon="10.7717327"><ele>165.75</ele><time>2026-04-04T14:11:13.967Z</time></trkpt><trkpt lat="43.5051996" lon="10.7719166"><ele>166.0</ele><time>2026-04-04T14:11:14.966Z</time></trkpt><trkpt lat="43.5052705" lon="10.7720958"><ele>164.5</ele><time>2026-04-04T14:11:15.962Z</time></trkpt><trkpt lat="43.5053525" lon="10.7722692"><ele>163.0</ele><time>2026-04-04T14:11:16.96Z</time></trkpt><trkpt lat="43.5054471" lon="10.7724275"><ele>161.5</ele><time>2026-04-04T14:11:17.97Z</time></trkpt><trkpt lat="43.5055615" lon="10.7725583"><ele>160.0</ele><time>2026-04-04T14:11:18.964Z</time></trkpt><trkpt lat="43.5056924" lon="10.7726596"><ele>164.33333333333334</ele><time>2026-04-04T14:11:19.946Z</time></trkpt><trkpt lat="43.5058227" lon="10.7727573"><ele>168.66666666666666</ele><time>2026-04-04T14:11:20.964Z</time></trkpt><trkpt lat="43.5059663" lon="10.7728412"><ele>173.0</ele><time>2026-04-04T14:11:21.959Z</time></trkpt><trkpt lat="43.5061099" lon="10.7729247"><ele>174.33333333333331</ele><time>2026-04-04T14:11:22.965Z</time></trkpt><trkpt lat="43.5062596" lon="10.7729959"><ele>175.66666666666666</ele><time>2026-04-04T14:11:23.949Z</time></trkpt><trkpt lat="43.5064067" lon="10.7730646"><ele>177.0</ele><time>2026-04-04T14:11:24.955Z</time></trkpt><trkpt lat="43.5065516" lon="10.7730821"><ele>177.0</ele><time>2026-04-04T14:11:25.95Z</time></trkpt><trkpt lat="43.5066853" lon="10.7730853"><ele>177.0</ele><time>2026-04-04T14:11:26.966Z</time></trkpt><trkpt lat="43.5068085" lon="10.7731032"><ele>177.0</ele><time>2026-04-04T14:11:27.961Z</time></trkpt><trkpt lat="43.5069271" lon="10.773164"><ele>177.0</ele><time>2026-04-04T14:11:28.972Z</time></trkpt><trkpt lat="43.5070366" lon="10.7732614"><ele>177.0</ele><time>2026-04-04T14:11:29.967Z</time></trkpt><trkpt lat="43.507148" lon="10.7733607"><ele>177.0</ele><time>2026-04-04T14:11:30.953Z</time></trkpt><trkpt lat="43.5072526" lon="10.7734531"><ele>177.0</ele><time>2026-04-04T14:11:31.957Z</time></trkpt><trkpt lat="43.5073675" lon="10.7735194"><ele>177.0</ele><time>2026-04-04T14:11:32.971Z</time></trkpt><trkpt lat="43.5074953" lon="10.7735348"><ele>175.0</ele><time>2026-04-04T14:11:33.969Z</time></trkpt><trkpt lat="43.5076192" lon="10.7735263"><ele>173.0</ele><time>2026-04-04T14:11:34.956Z</time></trkpt><trkpt lat="43.507744" lon="10.7735228"><ele>171.0</ele><time>2026-04-04T14:11:35.959Z</time></trkpt><trkpt lat="43.5078501" lon="10.7735227"><ele>169.0</ele><time>2026-04-04T14:11:36.972Z</time></trkpt><trkpt lat="43.507957" lon="10.7735485"><ele>167.79999999999998</ele><time>2026-04-04T14:11:37.962Z</time></trkpt><trkpt lat="43.5080609" lon="10.7735984"><ele>166.6</ele><time>2026-04-04T14:11:38.973Z</time></trkpt><trkpt lat="43.5081645" lon="10.7736578"><ele>165.4</ele><time>2026-04-04T14:11:39.96Z</time></trkpt><trkpt lat="43.5082677" lon="10.773721"><ele>164.2</ele><time>2026-04-04T14:11:40.963Z</time></trkpt><trkpt lat="43.5083707" lon="10.7737881"><ele>163.0</ele><time>2026-04-04T14:11:41.972Z</time></trkpt><trkpt lat="43.5084762" lon="10.7738542"><ele>163.0</ele><time>2026-04-04T14:11:42.964Z</time></trkpt><trkpt lat="43.5085806" lon="10.7739298"><ele>163.0</ele><time>2026-04-04T14:11:43.977Z</time></trkpt><trkpt lat="43.5086755" lon="10.7740009"><ele>163.0</ele><time>2026-04-04T14:11:44.952Z</time></trkpt><trkpt lat="43.508755" lon="10.7740585"><ele>163.0</ele><time>2026-04-04T14:11:45.972Z</time></trkpt><trkpt lat="43.5088276" lon="10.7741101"><ele>163.0</ele><time>2026-04-04T14:11:46.966Z</time></trkpt><trkpt lat="43.5088795" lon="10.7741719"><ele>162.16666666666669</ele><time>2026-04-04T14:11:47.968Z</time></trkpt><trkpt lat="43.5088766" lon="10.7743444"><ele>161.33333333333334</ele><time>2026-04-04T14:11:49.969Z</time></trkpt><trkpt lat="43.5088463" lon="10.7744362"><ele>160.5</ele><time>2026-04-04T14:11:50.948Z</time></trkpt><trkpt lat="43.5088179" lon="10.7745372"><ele>159.66666666666666</ele><time>2026-04-04T14:11:51.959Z</time></trkpt><trkpt lat="43.508825" lon="10.7746443"><ele>158.83333333333331</ele><time>2026-04-04T14:11:52.961Z</time></trkpt><trkpt lat="43.5088697" lon="10.7747381"><ele>158.0</ele><time>2026-04-04T14:11:53.967Z</time></trkpt><trkpt lat="43.5089391" lon="10.7748124"><ele>158.0</ele><time>2026-04-04T14:11:54.971Z</time></trkpt><trkpt lat="43.509012" lon="10.7748715"><ele>158.0</ele><time>2026-04-04T14:11:55.967Z</time></trkpt><trkpt lat="43.5090901" lon="10.7748979"><ele>158.0</ele><time>2026-04-04T14:11:56.959Z</time></trkpt><trkpt lat="43.5091744" lon="10.7748839"><ele>158.0</ele><time>2026-04-04T14:11:57.959Z</time></trkpt><trkpt lat="43.5092589" lon="10.7748247"><ele>158.0</ele><time>2026-04-04T14:11:58.955Z</time></trkpt><trkpt lat="43.509342" lon="10.7747634"><ele>158.0</ele><time>2026-04-04T14:11:59.968Z</time></trkpt><trkpt lat="43.5094168" lon="10.7746769"><ele>158.0</ele><time>2026-04-04T14:12:00.973Z</time></trkpt><trkpt lat="43.5094948" lon="10.7746294"><ele>158.0</ele><time>2026-04-04T14:12:01.973Z</time></trkpt><trkpt lat="43.5096017" lon="10.7746285"><ele>158.0</ele><time>2026-04-04T14:12:03.963Z</time></trkpt><trkpt lat="43.5096483" lon="10.7747619"><ele>158.0</ele><time>2026-04-04T14:12:05.968Z</time></trkpt><trkpt lat="43.5096109" lon="10.7749538"><ele>158.0</ele><time>2026-04-04T14:12:07.967Z</time></trkpt><trkpt lat="43.5095619" lon="10.7750586"><ele>158.0</ele><time>2026-04-04T14:12:08.97Z</time></trkpt><trkpt lat="43.509518" lon="10.7751577"><ele>158.0</ele><time>2026-04-04T14:12:09.967Z</time></trkpt><trkpt lat="43.5094854" lon="10.7752461"><ele>158.0</ele><time>2026-04-04T14:12:10.967Z</time></trkpt><trkpt lat="43.5094857" lon="10.7754095"><ele>158.0</ele><time>2026-04-04T14:12:12.969Z</time></trkpt><trkpt lat="43.509604" lon="10.7755006"><ele>158.0</ele><time>2026-04-04T14:12:14.952Z</time></trkpt><trkpt lat="43.5096844" lon="10.7755324"><ele>154.0</ele><time>2026-04-04T14:12:15.958Z</time></trkpt><trkpt lat="43.509763" lon="10.7755656"><ele>150.0</ele><time>2026-04-04T14:12:16.971Z</time></trkpt><trkpt lat="43.50983" lon="10.7756564"><ele>146.0</ele><time>2026-04-04T14:12:17.956Z</time></trkpt><trkpt lat="43.5098915" lon="10.7757725"><ele>142.0</ele><time>2026-04-04T14:12:18.968Z</time></trkpt><trkpt lat="43.5099603" lon="10.7759068"><ele>138.0</ele><time>2026-04-04T14:12:19.974Z</time></trkpt><trkpt lat="43.5100319" lon="10.7760445"><ele>136.0</ele><time>2026-04-04T14:12:20.967Z</time></trkpt><trkpt lat="43.5101246" lon="10.7761851"><ele>134.0</ele><time>2026-04-04T14:12:21.973Z</time></trkpt><trkpt lat="43.5102324" lon="10.7763154"><ele>132.0</ele><time>2026-04-04T14:12:22.963Z</time></trkpt><trkpt lat="43.510334" lon="10.7764373"><ele>130.0</ele><time>2026-04-04T14:12:23.97Z</time></trkpt><trkpt lat="43.5104333" lon="10.7765743"><ele>130.0</ele><time>2026-04-04T14:12:24.957Z</time></trkpt><trkpt lat="43.5105293" lon="10.7767233"><ele>130.0</ele><time>2026-04-04T14:12:25.954Z</time></trkpt><trkpt lat="43.5106245" lon="10.7768763"><ele>130.0</ele><time>2026-04-04T14:12:26.973Z</time></trkpt><trkpt lat="43.5107201" lon="10.7770399"><ele>130.0</ele><time>2026-04-04T14:12:27.965Z</time></trkpt><trkpt lat="43.5108215" lon="10.7772034"><ele>130.33333333333334</ele><time>2026-04-04T14:12:28.977Z</time></trkpt><trkpt lat="43.5109221" lon="10.7773626"><ele>130.66666666666666</ele><time>2026-04-04T14:12:29.97Z</time></trkpt><trkpt lat="43.5110268" lon="10.7775184"><ele>131.0</ele><time>2026-04-04T14:12:30.969Z</time></trkpt><trkpt lat="43.5111372" lon="10.7776673"><ele>130.0</ele><time>2026-04-04T14:12:31.956Z</time></trkpt><trkpt lat="43.5112442" lon="10.777807"><ele>129.0</ele><time>2026-04-04T14:12:32.956Z</time></trkpt><trkpt lat="43.5113459" lon="10.7779366"><ele>128.0</ele><time>2026-04-04T14:12:33.97Z</time></trkpt><trkpt lat="43.5114457" lon="10.7780617"><ele>127.0</ele><time>2026-04-04T14:12:34.97Z</time></trkpt><trkpt lat="43.5115327" lon="10.7781902"><ele>127.0</ele><time>2026-04-04T14:12:35.965Z</time></trkpt><trkpt lat="43.5116117" lon="10.7783141"><ele>127.0</ele><time>2026-04-04T14:12:36.957Z</time></trkpt><trkpt lat="43.5116894" lon="10.7784377"><ele>127.0</ele><time>2026-04-04T14:12:37.956Z</time></trkpt><trkpt lat="43.5117605" lon="10.7785697"><ele>127.0</ele><time>2026-04-04T14:12:38.954Z</time></trkpt><trkpt lat="43.5118193" lon="10.778713"><ele>126.0</ele><time>2026-04-04T14:12:39.968Z</time></trkpt><trkpt lat="43.5118803" lon="10.7788535"><ele>125.0</ele><time>2026-04-04T14:12:40.968Z</time></trkpt><trkpt lat="43.5119684" lon="10.7789766"><ele>124.0</ele><time>2026-04-04T14:12:41.953Z</time></trkpt><trkpt lat="43.5120612" lon="10.7791064"><ele>123.0</ele><time>2026-04-04T14:12:42.98Z</time></trkpt><trkpt lat="43.5121565" lon="10.7792339"><ele>122.25</ele><time>2026-04-04T14:12:43.961Z</time></trkpt><trkpt lat="43.5122494" lon="10.7793643"><ele>121.5</ele><time>2026-04-04T14:12:44.971Z</time></trkpt><trkpt lat="43.5123494" lon="10.7795012"><ele>120.75</ele><time>2026-04-04T14:12:45.965Z</time></trkpt><trkpt lat="43.5124556" lon="10.7796386"><ele>120.0</ele><time>2026-04-04T14:12:46.974Z</time></trkpt><trkpt lat="43.5125638" lon="10.779783"><ele>120.0</ele><time>2026-04-04T14:12:47.961Z</time></trkpt><trkpt lat="43.512675" lon="10.7799327"><ele>120.0</ele><time>2026-04-04T14:12:48.967Z</time></trkpt><trkpt lat="43.5127856" lon="10.7800812"><ele>120.0</ele><time>2026-04-04T14:12:49.972Z</time></trkpt><trkpt lat="43.5128969" lon="10.7802299"><ele>118.25</ele><time>2026-04-04T14:12:50.969Z</time></trkpt><trkpt lat="43.5130015" lon="10.7803702"><ele>116.5</ele><time>2026-04-04T14:12:51.953Z</time></trkpt><trkpt lat="43.5130973" lon="10.7805053"><ele>114.75</ele><time>2026-04-04T14:12:52.969Z</time></trkpt><trkpt lat="43.5131959" lon="10.7806144"><ele>113.0</ele><time>2026-04-04T14:12:53.957Z</time></trkpt><trkpt lat="43.5132967" lon="10.7807135"><ele>113.0</ele><time>2026-04-04T14:12:54.975Z</time></trkpt><trkpt lat="43.513414" lon="10.7807755"><ele>113.0</ele><time>2026-04-04T14:12:55.972Z</time></trkpt><trkpt lat="43.5135478" lon="10.7808138"><ele>113.0</ele><time>2026-04-04T14:12:56.972Z</time></trkpt><trkpt lat="43.5136717" lon="10.7809013"><ele>113.0</ele><time>2026-04-04T14:12:57.973Z</time></trkpt><trkpt lat="43.5137891" lon="10.7810329"><ele>111.0</ele><time>2026-04-04T14:12:58.967Z</time></trkpt><trkpt lat="43.5138991" lon="10.7811915"><ele>109.0</ele><time>2026-04-04T14:12:59.968Z</time></trkpt><trkpt lat="43.5140078" lon="10.781352"><ele>107.0</ele><time>2026-04-04T14:13:00.969Z</time></trkpt><trkpt lat="43.5141014" lon="10.7815363"><ele>107.0</ele><time>2026-04-04T14:13:01.968Z</time></trkpt><trkpt lat="43.5141804" lon="10.7817278"><ele>107.0</ele><time>2026-04-04T14:13:02.968Z</time></trkpt><trkpt lat="43.5142591" lon="10.781923"><ele>107.0</ele><time>2026-04-04T14:13:03.946Z</time></trkpt><trkpt lat="43.5143197" lon="10.7821387"><ele>107.33333333333333</ele><time>2026-04-04T14:13:04.963Z</time></trkpt><trkpt lat="43.5143698" lon="10.7823562"><ele>107.66666666666666</ele><time>2026-04-04T14:13:05.961Z</time></trkpt><trkpt lat="43.514416" lon="10.7825738"><ele>108.0</ele><time>2026-04-04T14:13:06.972Z</time></trkpt><trkpt lat="43.5144594" lon="10.7827935"><ele>107.66666666666666</ele><time>2026-04-04T14:13:07.968Z</time></trkpt><trkpt lat="43.5144982" lon="10.7830002"><ele>107.33333333333333</ele><time>2026-04-04T14:13:08.97Z</time></trkpt><trkpt lat="43.5145493" lon="10.7832104"><ele>107.0</ele><time>2026-04-04T14:13:09.971Z</time></trkpt><trkpt lat="43.5146027" lon="10.7834255"><ele>108.33333333333333</ele><time>2026-04-04T14:13:10.973Z</time></trkpt><trkpt lat="43.5146768" lon="10.783641"><ele>109.66666666666666</ele><time>2026-04-04T14:13:11.97Z</time></trkpt><trkpt lat="43.5147629" lon="10.7838453"><ele>111.0</ele><time>2026-04-04T14:13:12.969Z</time></trkpt><trkpt lat="43.5148491" lon="10.7840509"><ele>111.0</ele><time>2026-04-04T14:13:13.967Z</time></trkpt><trkpt lat="43.5149223" lon="10.7842441"><ele>111.0</ele><time>2026-04-04T14:13:14.977Z</time></trkpt><trkpt lat="43.5149999" lon="10.7844432"><ele>111.0</ele><time>2026-04-04T14:13:15.959Z</time></trkpt><trkpt lat="43.5150782" lon="10.7846359"><ele>109.0</ele><time>2026-04-04T14:13:16.963Z</time></trkpt><trkpt lat="43.515169" lon="10.7848207"><ele>107.0</ele><time>2026-04-04T14:13:17.971Z</time></trkpt><trkpt lat="43.5152787" lon="10.7849867"><ele>105.0</ele><time>2026-04-04T14:13:18.949Z</time></trkpt><trkpt lat="43.5154053" lon="10.7851352"><ele>105.66666666666666</ele><time>2026-04-04T14:13:19.957Z</time></trkpt><trkpt lat="43.5155297" lon="10.7852767"><ele>106.33333333333333</ele><time>2026-04-04T14:13:20.954Z</time></trkpt><trkpt lat="43.5156459" lon="10.7854104"><ele>107.0</ele><time>2026-04-04T14:13:21.972Z</time></trkpt><trkpt lat="43.515753" lon="10.7855334"><ele>107.0</ele><time>2026-04-04T14:13:22.97Z</time></trkpt><trkpt lat="43.5158444" lon="10.78565"><ele>106.99999999999999</ele><time>2026-04-04T14:13:23.968Z</time></trkpt><trkpt lat="43.5159158" lon="10.7857716"><ele>106.99999999999999</ele><time>2026-04-04T14:13:24.967Z</time></trkpt><trkpt lat="43.5159671" lon="10.7858995"><ele>107.0</ele><time>2026-04-04T14:13:25.96Z</time></trkpt><trkpt lat="43.5159943" lon="10.7860297"><ele>107.0</ele><time>2026-04-04T14:13:26.968Z</time></trkpt><trkpt lat="43.5159921" lon="10.7861541"><ele>105.19999999999999</ele><time>2026-04-04T14:13:27.971Z</time></trkpt><trkpt lat="43.5159545" lon="10.7862577"><ele>103.39999999999999</ele><time>2026-04-04T14:13:28.964Z</time></trkpt><trkpt lat="43.5158867" lon="10.7863158"><ele>101.6</ele><time>2026-04-04T14:13:29.961Z</time></trkpt><trkpt lat="43.5158012" lon="10.786321"><ele>99.80000000000001</ele><time>2026-04-04T14:13:30.949Z</time></trkpt><trkpt lat="43.5157035" lon="10.7862934"><ele>98.0</ele><time>2026-04-04T14:13:31.971Z</time></trkpt><trkpt lat="43.5155912" lon="10.7862557"><ele>98.0</ele><time>2026-04-04T14:13:32.969Z</time></trkpt><trkpt lat="43.5154651" lon="10.7862167"><ele>98.0</ele><time>2026-04-04T14:13:33.96Z</time></trkpt><trkpt lat="43.5153309" lon="10.7861741"><ele>98.0</ele><time>2026-04-04T14:13:34.963Z</time></trkpt><trkpt lat="43.5151946" lon="10.7861358"><ele>98.0</ele><time>2026-04-04T14:13:35.965Z</time></trkpt><trkpt lat="43.5150553" lon="10.7860967"><ele>98.0</ele><time>2026-04-04T14:13:36.972Z</time></trkpt><trkpt lat="43.5149276" lon="10.7860467"><ele>98.0</ele><time>2026-04-04T14:13:37.973Z</time></trkpt><trkpt lat="43.5148122" lon="10.7860013"><ele>98.0</ele><time>2026-04-04T14:13:38.969Z</time></trkpt><trkpt lat="43.5147057" lon="10.7859666"><ele>98.0</ele><time>2026-04-04T14:13:39.966Z</time></trkpt><trkpt lat="43.5146058" lon="10.7859691"><ele>94.0</ele><time>2026-04-04T14:13:40.969Z</time></trkpt><trkpt lat="43.5145103" lon="10.786026"><ele>90.0</ele><time>2026-04-04T14:13:41.953Z</time></trkpt><trkpt lat="43.5144198" lon="10.7861377"><ele>86.0</ele><time>2026-04-04T14:13:42.962Z</time></trkpt><trkpt lat="43.514334" lon="10.7862864"><ele>82.0</ele><time>2026-04-04T14:13:43.959Z</time></trkpt><trkpt lat="43.5142518" lon="10.7864426"><ele>82.0</ele><time>2026-04-04T14:13:44.971Z</time></trkpt><trkpt lat="43.5141676" lon="10.7865798"><ele>82.0</ele><time>2026-04-04T14:13:45.969Z</time></trkpt><trkpt lat="43.5140911" lon="10.7867061"><ele>82.0</ele><time>2026-04-04T14:13:46.971Z</time></trkpt><trkpt lat="43.5140232" lon="10.7868259"><ele>82.0</ele><time>2026-04-04T14:13:47.958Z</time></trkpt><trkpt lat="43.5139676" lon="10.7869732"><ele>81.0</ele><time>2026-04-04T14:13:48.957Z</time></trkpt><trkpt lat="43.5139314" lon="10.7871428"><ele>80.0</ele><time>2026-04-04T14:13:49.969Z</time></trkpt><trkpt lat="43.5139028" lon="10.7873278"><ele>79.0</ele><time>2026-04-04T14:13:50.975Z</time></trkpt><trkpt lat="43.5138738" lon="10.7875214"><ele>78.0</ele><time>2026-04-04T14:13:51.962Z</time></trkpt><trkpt lat="43.5138439" lon="10.7877113"><ele>76.75</ele><time>2026-04-04T14:13:52.975Z</time></trkpt><trkpt lat="43.5138207" lon="10.7878954"><ele>75.5</ele><time>2026-04-04T14:13:53.973Z</time></trkpt><trkpt lat="43.5138185" lon="10.7880737"><ele>74.25</ele><time>2026-04-04T14:13:54.972Z</time></trkpt><trkpt lat="43.5138469" lon="10.7882485"><ele>73.0</ele><time>2026-04-04T14:13:55.968Z</time></trkpt><trkpt lat="43.5138819" lon="10.7884206"><ele>72.66666666666666</ele><time>2026-04-04T14:13:56.968Z</time></trkpt><trkpt lat="43.5139535" lon="10.7885958"><ele>72.33333333333333</ele><time>2026-04-04T14:13:57.969Z</time></trkpt><trkpt lat="43.5140302" lon="10.788773"><ele>72.0</ele><time>2026-04-04T14:13:58.967Z</time></trkpt><trkpt lat="43.5141097" lon="10.7889635"><ele>72.0</ele><time>2026-04-04T14:13:59.967Z</time></trkpt><trkpt lat="43.5141858" lon="10.7891621"><ele>72.0</ele><time>2026-04-04T14:14:00.974Z</time></trkpt><trkpt lat="43.5142617" lon="10.7893449"><ele>72.0</ele><time>2026-04-04T14:14:01.968Z</time></trkpt><trkpt lat="43.5143349" lon="10.7895102"><ele>72.0</ele><time>2026-04-04T14:14:02.954Z</time></trkpt><trkpt lat="43.5143902" lon="10.7896492"><ele>72.0</ele><time>2026-04-04T14:14:03.97Z</time></trkpt><trkpt lat="43.5144341" lon="10.7897642"><ele>72.0</ele><time>2026-04-04T14:14:04.978Z</time></trkpt><trkpt lat="43.5144639" lon="10.789848"><ele>72.0</ele><time>2026-04-04T14:14:05.957Z</time></trkpt><trkpt lat="43.5144835" lon="10.7899368"><ele>72.0</ele><time>2026-04-04T14:14:08.971Z</time></trkpt><trkpt lat="43.5145602" lon="10.7900296"><ele>72.0</ele><time>2026-04-04T14:14:15.969Z</time></trkpt><trkpt lat="43.5146261" lon="10.7900444"><ele>71.8</ele><time>2026-04-04T14:14:16.97Z</time></trkpt><trkpt lat="43.5147082" lon="10.7900529"><ele>71.6</ele><time>2026-04-04T14:14:17.969Z</time></trkpt><trkpt lat="43.514812" lon="10.7900609"><ele>71.39999999999999</ele><time>2026-04-04T14:14:18.962Z</time></trkpt><trkpt lat="43.5149347" lon="10.7900728"><ele>71.2</ele><time>2026-04-04T14:14:19.97Z</time></trkpt><trkpt lat="43.5150669" lon="10.7900889"><ele>71.0</ele><time>2026-04-04T14:14:20.964Z</time></trkpt><trkpt lat="43.5152131" lon="10.7901092"><ele>71.0</ele><time>2026-04-04T14:14:21.97Z</time></trkpt><trkpt lat="43.5153734" lon="10.7901293"><ele>71.0</ele><time>2026-04-04T14:14:22.954Z</time></trkpt><trkpt lat="43.5155377" lon="10.7901512"><ele>71.0</ele><time>2026-04-04T14:14:23.968Z</time></trkpt><trkpt lat="43.5157083" lon="10.7901781"><ele>71.0</ele><time>2026-04-04T14:14:24.968Z</time></trkpt><trkpt lat="43.5158888" lon="10.7902072"><ele>71.0</ele><time>2026-04-04T14:14:25.961Z</time></trkpt><trkpt lat="43.5160785" lon="10.7902367"><ele>71.0</ele><time>2026-04-04T14:14:26.968Z</time></trkpt><trkpt lat="43.516275" lon="10.7902666"><ele>71.66666666666667</ele><time>2026-04-04T14:14:27.958Z</time></trkpt><trkpt lat="43.5164782" lon="10.7902954"><ele>72.33333333333333</ele><time>2026-04-04T14:14:28.965Z</time></trkpt><trkpt lat="43.5166867" lon="10.7903253"><ele>73.0</ele><time>2026-04-04T14:14:29.965Z</time></trkpt><trkpt lat="43.5168971" lon="10.7903594"><ele>72.33333333333333</ele><time>2026-04-04T14:14:30.964Z</time></trkpt><trkpt lat="43.5171051" lon="10.7903976"><ele>71.66666666666667</ele><time>2026-04-04T14:14:31.972Z</time></trkpt><trkpt lat="43.5173099" lon="10.7904359"><ele>71.0</ele><time>2026-04-04T14:14:32.976Z</time></trkpt><trkpt lat="43.5175052" lon="10.79047"><ele>71.0</ele><time>2026-04-04T14:14:33.975Z</time></trkpt><trkpt lat="43.5176897" lon="10.7904963"><ele>71.0</ele><time>2026-04-04T14:14:34.965Z</time></trkpt><trkpt lat="43.5178696" lon="10.790511"><ele>71.0</ele><time>2026-04-04T14:14:35.973Z</time></trkpt><trkpt lat="43.5180355" lon="10.7904804"><ele>71.0</ele><time>2026-04-04T14:14:36.958Z</time></trkpt><trkpt lat="43.5181905" lon="10.7904173"><ele>71.0</ele><time>2026-04-04T14:14:37.972Z</time></trkpt><trkpt lat="43.5183324" lon="10.7903175"><ele>71.0</ele><time>2026-04-04T14:14:38.969Z</time></trkpt><trkpt lat="43.5184642" lon="10.7901877"><ele>71.33333333333334</ele><time>2026-04-04T14:14:39.975Z</time></trkpt><trkpt lat="43.518596" lon="10.7900444"><ele>71.66666666666667</ele><time>2026-04-04T14:14:40.966Z</time></trkpt><trkpt lat="43.518734" lon="10.7898997"><ele>72.0</ele><time>2026-04-04T14:14:41.974Z</time></trkpt><trkpt lat="43.5188754" lon="10.7897551"><ele>72.0</ele><time>2026-04-04T14:14:42.971Z</time></trkpt><trkpt lat="43.5190175" lon="10.7896126"><ele>72.0</ele><time>2026-04-04T14:14:43.955Z</time></trkpt><trkpt lat="43.519159" lon="10.7894727"><ele>72.0</ele><time>2026-04-04T14:14:44.951Z</time></trkpt><trkpt lat="43.519298" lon="10.7893317"><ele>72.0</ele><time>2026-04-04T14:14:45.958Z</time></trkpt><trkpt lat="43.5194306" lon="10.7891813"><ele>72.0</ele><time>2026-04-04T14:14:46.959Z</time></trkpt><trkpt lat="43.5195547" lon="10.7890132"><ele>72.0</ele><time>2026-04-04T14:14:47.962Z</time></trkpt><trkpt lat="43.5196687" lon="10.7888231"><ele>71.66666666666667</ele><time>2026-04-04T14:14:48.976Z</time></trkpt><trkpt lat="43.51978" lon="10.788623"><ele>71.33333333333334</ele><time>2026-04-04T14:14:49.971Z</time></trkpt><trkpt lat="43.5198917" lon="10.7884166"><ele>71.0</ele><time>2026-04-04T14:14:50.967Z</time></trkpt><trkpt lat="43.5200049" lon="10.7882044"><ele>71.0</ele><time>2026-04-04T14:14:51.97Z</time></trkpt><trkpt lat="43.520119" lon="10.7879884"><ele>71.0</ele><time>2026-04-04T14:14:52.962Z</time></trkpt><trkpt lat="43.5202318" lon="10.787771"><ele>71.0</ele><time>2026-04-04T14:14:53.97Z</time></trkpt><trkpt lat="43.5203458" lon="10.7875545"><ele>70.0</ele><time>2026-04-04T14:14:54.966Z</time></trkpt><trkpt lat="43.5204607" lon="10.7873391"><ele>69.0</ele><time>2026-04-04T14:14:55.972Z</time></trkpt><trkpt lat="43.5205752" lon="10.7871244"><ele>68.0</ele><time>2026-04-04T14:14:56.955Z</time></trkpt><trkpt lat="43.5206875" lon="10.7869118"><ele>68.33333333333334</ele><time>2026-04-04T14:14:57.971Z</time></trkpt><trkpt lat="43.5207961" lon="10.7867004"><ele>68.66666666666667</ele><time>2026-04-04T14:14:58.973Z</time></trkpt><trkpt lat="43.5209017" lon="10.7864988"><ele>69.0</ele><time>2026-04-04T14:14:59.969Z</time></trkpt><trkpt lat="43.5210073" lon="10.7863128"><ele>69.0</ele><time>2026-04-04T14:15:00.967Z</time></trkpt><trkpt lat="43.5211156" lon="10.7861484"><ele>69.0</ele><time>2026-04-04T14:15:01.975Z</time></trkpt><trkpt lat="43.5212235" lon="10.7860132"><ele>69.0</ele><time>2026-04-04T14:15:02.97Z</time></trkpt><trkpt lat="43.5213344" lon="10.7859027"><ele>69.0</ele><time>2026-04-04T14:15:03.973Z</time></trkpt><trkpt lat="43.5214478" lon="10.7858148"><ele>68.5</ele><time>2026-04-04T14:15:04.952Z</time></trkpt><trkpt lat="43.5215627" lon="10.7857396"><ele>68.0</ele><time>2026-04-04T14:15:05.976Z</time></trkpt><trkpt lat="43.5216787" lon="10.7856698"><ele>67.5</ele><time>2026-04-04T14:15:06.972Z</time></trkpt><trkpt lat="43.5217943" lon="10.7856018"><ele>67.0</ele><time>2026-04-04T14:15:07.958Z</time></trkpt><trkpt lat="43.5219058" lon="10.7855341"><ele>67.0</ele><time>2026-04-04T14:15:08.974Z</time></trkpt><trkpt lat="43.5220092" lon="10.7854694"><ele>67.0</ele><time>2026-04-04T14:15:09.956Z</time></trkpt><trkpt lat="43.5221048" lon="10.7854101"><ele>67.0</ele><time>2026-04-04T14:15:10.956Z</time></trkpt><trkpt lat="43.5221893" lon="10.7853591"><ele>67.0</ele><time>2026-04-04T14:15:11.953Z</time></trkpt><trkpt lat="43.5222584" lon="10.7853242"><ele>67.0</ele><time>2026-04-04T14:15:12.962Z</time></trkpt><trkpt lat="43.5223681" lon="10.7853362"><ele>67.4</ele><time>2026-04-04T14:15:14.962Z</time></trkpt><trkpt lat="43.5224745" lon="10.7854462"><ele>67.80000000000001</ele><time>2026-04-04T14:15:16.976Z</time></trkpt><trkpt lat="43.5225237" lon="10.7855342"><ele>68.2</ele><time>2026-04-04T14:15:17.974Z</time></trkpt><trkpt lat="43.5225613" lon="10.7856428"><ele>68.60000000000001</ele><time>2026-04-04T14:15:18.959Z</time></trkpt><trkpt lat="43.5225792" lon="10.7857658"><ele>69.0</ele><time>2026-04-04T14:15:19.974Z</time></trkpt><trkpt lat="43.5225829" lon="10.785904"><ele>69.25</ele><time>2026-04-04T14:15:20.966Z</time></trkpt><trkpt lat="43.5225791" lon="10.7860538"><ele>69.5</ele><time>2026-04-04T14:15:21.964Z</time></trkpt><trkpt lat="43.5225742" lon="10.7862108"><ele>69.75</ele><time>2026-04-04T14:15:22.966Z</time></trkpt><trkpt lat="43.5225747" lon="10.7863684"><ele>70.0</ele><time>2026-04-04T14:15:23.968Z</time></trkpt><trkpt lat="43.5225825" lon="10.7865293"><ele>70.0</ele><time>2026-04-04T14:15:24.961Z</time></trkpt><trkpt lat="43.5225969" lon="10.7866892"><ele>70.0</ele><time>2026-04-04T14:15:25.963Z</time></trkpt><trkpt lat="43.522618" lon="10.7868614"><ele>70.0</ele><time>2026-04-04T14:15:26.966Z</time></trkpt><trkpt lat="43.5226462" lon="10.7870436"><ele>70.0</ele><time>2026-04-04T14:15:27.958Z</time></trkpt><trkpt lat="43.5226783" lon="10.7872339"><ele>70.66666666666666</ele><time>2026-04-04T14:15:28.96Z</time></trkpt><trkpt lat="43.5227117" lon="10.787431"><ele>71.33333333333333</ele><time>2026-04-04T14:15:29.975Z</time></trkpt><trkpt lat="43.5227424" lon="10.7876344"><ele>72.0</ele><time>2026-04-04T14:15:30.966Z</time></trkpt><trkpt lat="43.522766" lon="10.7878446"><ele>72.5</ele><time>2026-04-04T14:15:31.963Z</time></trkpt><trkpt lat="43.5227939" lon="10.7880516"><ele>73.0</ele><time>2026-04-04T14:15:32.96Z</time></trkpt><trkpt lat="43.5228227" lon="10.7882537"><ele>73.5</ele><time>2026-04-04T14:15:33.971Z</time></trkpt><trkpt lat="43.5228493" lon="10.7884501"><ele>74.0</ele><time>2026-04-04T14:15:34.957Z</time></trkpt><trkpt lat="43.5228791" lon="10.7886367"><ele>76.5</ele><time>2026-04-04T14:15:35.968Z</time></trkpt><trkpt lat="43.522909" lon="10.7888343"><ele>79.0</ele><time>2026-04-04T14:15:36.96Z</time></trkpt><trkpt lat="43.5229389" lon="10.7890175"><ele>81.5</ele><time>2026-04-04T14:15:37.961Z</time></trkpt><trkpt lat="43.5229653" lon="10.7892025"><ele>84.0</ele><time>2026-04-04T14:15:38.956Z</time></trkpt><trkpt lat="43.5229914" lon="10.7893769"><ele>85.2</ele><time>2026-04-04T14:15:39.968Z</time></trkpt><trkpt lat="43.5230212" lon="10.7895449"><ele>86.4</ele><time>2026-04-04T14:15:40.972Z</time></trkpt><trkpt lat="43.5230515" lon="10.7896946"><ele>87.6</ele><time>2026-04-04T14:15:41.973Z</time></trkpt><trkpt lat="43.5230847" lon="10.7898178"><ele>88.8</ele><time>2026-04-04T14:15:42.966Z</time></trkpt><trkpt lat="43.523111" lon="10.7899169"><ele>90.0</ele><time>2026-04-04T14:15:43.971Z</time></trkpt><trkpt lat="43.5231404" lon="10.7900559"><ele>91.16666666666667</ele><time>2026-04-04T14:15:45.974Z</time></trkpt><trkpt lat="43.5231523" lon="10.7902131"><ele>92.33333333333334</ele><time>2026-04-04T14:15:47.96Z</time></trkpt><trkpt lat="43.5231616" lon="10.7903085"><ele>93.5</ele><time>2026-04-04T14:15:48.965Z</time></trkpt><trkpt lat="43.523173" lon="10.7904243"><ele>94.66666666666667</ele><time>2026-04-04T14:15:49.966Z</time></trkpt><trkpt lat="43.5231852" lon="10.7905443"><ele>95.83333333333334</ele><time>2026-04-04T14:15:50.956Z</time></trkpt><trkpt lat="43.5232028" lon="10.790664"><ele>97.0</ele><time>2026-04-04T14:15:51.962Z</time></trkpt><trkpt lat="43.5232221" lon="10.7907874"><ele>97.0</ele><time>2026-04-04T14:15:52.968Z</time></trkpt><trkpt lat="43.523245" lon="10.7909098"><ele>97.0</ele><time>2026-04-04T14:15:53.957Z</time></trkpt><trkpt lat="43.5232811" lon="10.7910254"><ele>97.0</ele><time>2026-04-04T14:15:54.968Z</time></trkpt><trkpt lat="43.5233306" lon="10.7911254"><ele>97.0</ele><time>2026-04-04T14:15:55.965Z</time></trkpt><trkpt lat="43.5233795" lon="10.7912192"><ele>97.0</ele><time>2026-04-04T14:15:56.953Z</time></trkpt><trkpt lat="43.5234488" lon="10.7913108"><ele>96.19999999999999</ele><time>2026-04-04T14:15:57.95Z</time></trkpt><trkpt lat="43.5235091" lon="10.7914134"><ele>95.4</ele><time>2026-04-04T14:15:58.952Z</time></trkpt><trkpt lat="43.5235612" lon="10.7915164"><ele>94.6</ele><time>2026-04-04T14:15:59.962Z</time></trkpt><trkpt lat="43.5236172" lon="10.7916197"><ele>93.80000000000001</ele><time>2026-04-04T14:16:00.958Z</time></trkpt><trkpt lat="43.5236725" lon="10.7917274"><ele>93.0</ele><time>2026-04-04T14:16:01.959Z</time></trkpt><trkpt lat="43.5237043" lon="10.7918421"><ele>93.0</ele><time>2026-04-04T14:16:02.954Z</time></trkpt><trkpt lat="43.5237197" lon="10.7919653"><ele>93.0</ele><time>2026-04-04T14:16:03.968Z</time></trkpt><trkpt lat="43.5237178" lon="10.7920893"><ele>93.0</ele><time>2026-04-04T14:16:04.975Z</time></trkpt><trkpt lat="43.5237086" lon="10.7922149"><ele>93.0</ele><time>2026-04-04T14:16:05.955Z</time></trkpt><trkpt lat="43.5236848" lon="10.7923458"><ele>93.0</ele><time>2026-04-04T14:16:06.965Z</time></trkpt><trkpt lat="43.5236481" lon="10.792481"><ele>93.0</ele><time>2026-04-04T14:16:07.96Z</time></trkpt><trkpt lat="43.5236056" lon="10.7926223"><ele>93.0</ele><time>2026-04-04T14:16:08.959Z</time></trkpt><trkpt lat="43.5235669" lon="10.7927816"><ele>93.0</ele><time>2026-04-04T14:16:09.959Z</time></trkpt><trkpt lat="43.5235388" lon="10.7929634"><ele>93.0</ele><time>2026-04-04T14:16:10.972Z</time></trkpt><trkpt lat="43.523518" lon="10.7931583"><ele>94.0</ele><time>2026-04-04T14:16:11.974Z</time></trkpt><trkpt lat="43.5235136" lon="10.7933624"><ele>95.0</ele><time>2026-04-04T14:16:12.956Z</time></trkpt><trkpt lat="43.5235197" lon="10.7935695"><ele>96.0</ele><time>2026-04-04T14:16:13.959Z</time></trkpt><trkpt lat="43.5235277" lon="10.7937793"><ele>96.0</ele><time>2026-04-04T14:16:14.955Z</time></trkpt><trkpt lat="43.5235266" lon="10.7939912"><ele>96.0</ele><time>2026-04-04T14:16:15.959Z</time></trkpt><trkpt lat="43.5235182" lon="10.7942012"><ele>96.0</ele><time>2026-04-04T14:16:16.961Z</time></trkpt><trkpt lat="43.5235066" lon="10.7944072"><ele>96.0</ele><time>2026-04-04T14:16:17.956Z</time></trkpt><trkpt lat="43.5234934" lon="10.7946089"><ele>96.0</ele><time>2026-04-04T14:16:18.969Z</time></trkpt><trkpt lat="43.5234804" lon="10.7947926"><ele>96.0</ele><time>2026-04-04T14:16:19.97Z</time></trkpt><trkpt lat="43.5234741" lon="10.7949523"><ele>96.0</ele><time>2026-04-04T14:16:20.977Z</time></trkpt><trkpt lat="43.5234813" lon="10.7950957"><ele>95.0</ele><time>2026-04-04T14:16:21.971Z</time></trkpt><trkpt lat="43.5235008" lon="10.7952405"><ele>94.0</ele><time>2026-04-04T14:16:22.976Z</time></trkpt><trkpt lat="43.5235309" lon="10.7953938"><ele>93.0</ele><time>2026-04-04T14:16:23.956Z</time></trkpt><trkpt lat="43.5235686" lon="10.7955619"><ele>92.0</ele><time>2026-04-04T14:16:24.959Z</time></trkpt><trkpt lat="43.5236142" lon="10.7957335"><ele>92.0</ele><time>2026-04-04T14:16:25.965Z</time></trkpt><trkpt lat="43.5236673" lon="10.7959045"><ele>92.0</ele><time>2026-04-04T14:16:26.951Z</time></trkpt><trkpt lat="43.5237273" lon="10.7960752"><ele>92.0</ele><time>2026-04-04T14:16:27.968Z</time></trkpt><trkpt lat="43.5237877" lon="10.7962395"><ele>92.0</ele><time>2026-04-04T14:16:28.974Z</time></trkpt><trkpt lat="43.5238421" lon="10.7964003"><ele>92.5</ele><time>2026-04-04T14:16:29.959Z</time></trkpt><trkpt lat="43.5238893" lon="10.7965682"><ele>93.0</ele><time>2026-04-04T14:16:30.976Z</time></trkpt><trkpt lat="43.5239294" lon="10.79674"><ele>93.5</ele><time>2026-04-04T14:16:31.96Z</time></trkpt><trkpt lat="43.5239642" lon="10.7969205"><ele>94.0</ele><time>2026-04-04T14:16:32.976Z</time></trkpt><trkpt lat="43.5239921" lon="10.7971026"><ele>94.0</ele><time>2026-04-04T14:16:33.962Z</time></trkpt><trkpt lat="43.5240122" lon="10.7972921"><ele>94.0</ele><time>2026-04-04T14:16:34.964Z</time></trkpt><trkpt lat="43.5240298" lon="10.7974822"><ele>94.0</ele><time>2026-04-04T14:16:35.951Z</time></trkpt><trkpt lat="43.5240416" lon="10.7976848"><ele>94.0</ele><time>2026-04-04T14:16:36.958Z</time></trkpt><trkpt lat="43.5240549" lon="10.7978888"><ele>95.0</ele><time>2026-04-04T14:16:37.955Z</time></trkpt><trkpt lat="43.5240698" lon="10.7980942"><ele>96.0</ele><time>2026-04-04T14:16:38.958Z</time></trkpt><trkpt lat="43.5240896" lon="10.798299"><ele>97.0</ele><time>2026-04-04T14:16:39.96Z</time></trkpt><trkpt lat="43.5241177" lon="10.798501"><ele>98.0</ele><time>2026-04-04T14:16:40.965Z</time></trkpt><trkpt lat="43.5241556" lon="10.7986968"><ele>98.75</ele><time>2026-04-04T14:16:41.976Z</time></trkpt><trkpt lat="43.5241918" lon="10.7988842"><ele>99.5</ele><time>2026-04-04T14:16:42.98Z</time></trkpt><trkpt lat="43.5242202" lon="10.7990691"><ele>100.25</ele><time>2026-04-04T14:16:43.975Z</time></trkpt><trkpt lat="43.5242412" lon="10.7992471"><ele>101.0</ele><time>2026-04-04T14:16:44.975Z</time></trkpt><trkpt lat="43.5242578" lon="10.7994128"><ele>101.5</ele><time>2026-04-04T14:16:45.968Z</time></trkpt><trkpt lat="43.5242657" lon="10.7995682"><ele>102.0</ele><time>2026-04-04T14:16:46.956Z</time></trkpt><trkpt lat="43.524261" lon="10.7997223"><ele>102.5</ele><time>2026-04-04T14:16:47.975Z</time></trkpt><trkpt lat="43.5242437" lon="10.7998752"><ele>103.0</ele><time>2026-04-04T14:16:48.967Z</time></trkpt><trkpt lat="43.5242222" lon="10.8000293"><ele>102.25</ele><time>2026-04-04T14:16:49.959Z</time></trkpt><trkpt lat="43.5242038" lon="10.8001866"><ele>101.5</ele><time>2026-04-04T14:16:50.975Z</time></trkpt><trkpt lat="43.5241914" lon="10.8003488"><ele>100.75</ele><time>2026-04-04T14:16:51.956Z</time></trkpt><trkpt lat="43.5241823" lon="10.8005212"><ele>100.0</ele><time>2026-04-04T14:16:52.979Z</time></trkpt><trkpt lat="43.5241739" lon="10.8006808"><ele>100.0</ele><time>2026-04-04T14:16:53.962Z</time></trkpt><trkpt lat="43.5241615" lon="10.8008256"><ele>100.0</ele><time>2026-04-04T14:16:54.981Z</time></trkpt><trkpt lat="43.5241414" lon="10.80096"><ele>100.0</ele><time>2026-04-04T14:16:55.972Z</time></trkpt><trkpt lat="43.5241126" lon="10.801092"><ele>100.0</ele><time>2026-04-04T14:16:56.973Z</time></trkpt><trkpt lat="43.5240757" lon="10.8012239"><ele>100.0</ele><time>2026-04-04T14:16:57.979Z</time></trkpt><trkpt lat="43.5240289" lon="10.8013592"><ele>98.5</ele><time>2026-04-04T14:16:58.967Z</time></trkpt><trkpt lat="43.5239741" lon="10.8014967"><ele>97.0</ele><time>2026-04-04T14:16:59.969Z</time></trkpt><trkpt lat="43.5239168" lon="10.8016292"><ele>95.5</ele><time>2026-04-04T14:17:00.959Z</time></trkpt><trkpt lat="43.523856" lon="10.8017585"><ele>94.0</ele><time>2026-04-04T14:17:01.956Z</time></trkpt><trkpt lat="43.5237862" lon="10.801882"><ele>96.25</ele><time>2026-04-04T14:17:02.955Z</time></trkpt><trkpt lat="43.5237029" lon="10.8019902"><ele>98.5</ele><time>2026-04-04T14:17:03.957Z</time></trkpt><trkpt lat="43.5236058" lon="10.8020794"><ele>100.75</ele><time>2026-04-04T14:17:04.974Z</time></trkpt><trkpt lat="43.5234999" lon="10.8021509"><ele>103.0</ele><time>2026-04-04T14:17:05.969Z</time></trkpt><trkpt lat="43.5233922" lon="10.8022165"><ele>103.0</ele><time>2026-04-04T14:17:06.97Z</time></trkpt><trkpt lat="43.5232936" lon="10.8022823"><ele>103.0</ele><time>2026-04-04T14:17:07.978Z</time></trkpt><trkpt lat="43.5232091" lon="10.8023551"><ele>103.0</ele><time>2026-04-04T14:17:08.96Z</time></trkpt><trkpt lat="43.5231366" lon="10.8024453"><ele>103.0</ele><time>2026-04-04T14:17:09.974Z</time></trkpt><trkpt lat="43.5230798" lon="10.8025499"><ele>103.0</ele><time>2026-04-04T14:17:10.959Z</time></trkpt><trkpt lat="43.5230335" lon="10.8026663"><ele>103.66666666666667</ele><time>2026-04-04T14:17:11.953Z</time></trkpt><trkpt lat="43.5230008" lon="10.8027963"><ele>104.33333333333334</ele><time>2026-04-04T14:17:12.958Z</time></trkpt><trkpt lat="43.5229799" lon="10.8029308"><ele>105.0</ele><time>2026-04-04T14:17:13.978Z</time></trkpt><trkpt lat="43.5229637" lon="10.8030444"><ele>105.66666666666666</ele><time>2026-04-04T14:17:14.97Z</time></trkpt><trkpt lat="43.5229501" lon="10.8031452"><ele>106.33333333333333</ele><time>2026-04-04T14:17:15.973Z</time></trkpt><trkpt lat="43.5229407" lon="10.8032555"><ele>107.0</ele><time>2026-04-04T14:17:16.956Z</time></trkpt><trkpt lat="43.522937" lon="10.8033779"><ele>106.8</ele><time>2026-04-04T14:17:17.973Z</time></trkpt><trkpt lat="43.5229401" lon="10.8034991"><ele>106.6</ele><time>2026-04-04T14:17:18.952Z</time></trkpt><trkpt lat="43.5229561" lon="10.8036233"><ele>106.39999999999999</ele><time>2026-04-04T14:17:19.974Z</time></trkpt><trkpt lat="43.5229826" lon="10.8037418"><ele>106.19999999999999</ele><time>2026-04-04T14:17:20.96Z</time></trkpt><trkpt lat="43.5230197" lon="10.8038524"><ele>106.0</ele><time>2026-04-04T14:17:21.955Z</time></trkpt><trkpt lat="43.523071" lon="10.8039637"><ele>106.0</ele><time>2026-04-04T14:17:22.974Z</time></trkpt><trkpt lat="43.5231345" lon="10.8040781"><ele>106.0</ele><time>2026-04-04T14:17:23.968Z</time></trkpt><trkpt lat="43.5232011" lon="10.8042036"><ele>106.0</ele><time>2026-04-04T14:17:24.973Z</time></trkpt><trkpt lat="43.523264" lon="10.8043427"><ele>106.0</ele><time>2026-04-04T14:17:25.979Z</time></trkpt><trkpt lat="43.5233213" lon="10.8044894"><ele>104.5</ele><time>2026-04-04T14:17:26.974Z</time></trkpt><trkpt lat="43.5233765" lon="10.8046372"><ele>103.0</ele><time>2026-04-04T14:17:27.974Z</time></trkpt><trkpt lat="43.5234357" lon="10.8047841"><ele>101.5</ele><time>2026-04-04T14:17:28.962Z</time></trkpt><trkpt lat="43.5234999" lon="10.804933"><ele>100.0</ele><time>2026-04-04T14:17:29.954Z</time></trkpt><trkpt lat="43.5235649" lon="10.8050834"><ele>99.75</ele><time>2026-04-04T14:17:30.957Z</time></trkpt><trkpt lat="43.5236229" lon="10.8052418"><ele>99.5</ele><time>2026-04-04T14:17:31.975Z</time></trkpt><trkpt lat="43.5236677" lon="10.8054143"><ele>99.25</ele><time>2026-04-04T14:17:32.976Z</time></trkpt><trkpt lat="43.5237016" lon="10.8055968"><ele>99.0</ele><time>2026-04-04T14:17:33.969Z</time></trkpt><trkpt lat="43.5237351" lon="10.805775"><ele>99.0</ele><time>2026-04-04T14:17:34.97Z</time></trkpt><trkpt lat="43.5237706" lon="10.8059353"><ele>99.0</ele><time>2026-04-04T14:17:35.96Z</time></trkpt><trkpt lat="43.5237997" lon="10.8060815"><ele>99.0</ele><time>2026-04-04T14:17:36.974Z</time></trkpt><trkpt lat="43.5238182" lon="10.8062275"><ele>99.0</ele><time>2026-04-04T14:17:37.969Z</time></trkpt><trkpt lat="43.523821" lon="10.8063795"><ele>99.0</ele><time>2026-04-04T14:17:38.97Z</time></trkpt><trkpt lat="43.5238067" lon="10.8065359"><ele>98.4</ele><time>2026-04-04T14:17:39.96Z</time></trkpt><trkpt lat="43.5237793" lon="10.8066895"><ele>97.80000000000001</ele><time>2026-04-04T14:17:40.957Z</time></trkpt><trkpt lat="43.5237497" lon="10.8068395"><ele>97.19999999999999</ele><time>2026-04-04T14:17:41.963Z</time></trkpt><trkpt lat="43.5237307" lon="10.8069887"><ele>96.6</ele><time>2026-04-04T14:17:42.971Z</time></trkpt><trkpt lat="43.5237289" lon="10.8071412"><ele>96.0</ele><time>2026-04-04T14:17:43.959Z</time></trkpt><trkpt lat="43.5237436" lon="10.8073037"><ele>96.0</ele><time>2026-04-04T14:17:44.969Z</time></trkpt><trkpt lat="43.5237839" lon="10.8074734"><ele>96.0</ele><time>2026-04-04T14:17:45.956Z</time></trkpt><trkpt lat="43.5238302" lon="10.8076387"><ele>96.0</ele><time>2026-04-04T14:17:46.987Z</time></trkpt><trkpt lat="43.523887" lon="10.8078003"><ele>96.0</ele><time>2026-04-04T14:17:47.981Z</time></trkpt><trkpt lat="43.523949" lon="10.8079551"><ele>96.0</ele><time>2026-04-04T14:17:48.976Z</time></trkpt><trkpt lat="43.524007" lon="10.8080985"><ele>96.0</ele><time>2026-04-04T14:17:49.968Z</time></trkpt><trkpt lat="43.5240558" lon="10.8082405"><ele>96.0</ele><time>2026-04-04T14:17:50.974Z</time></trkpt><trkpt lat="43.524086" lon="10.8083871"><ele>96.0</ele><time>2026-04-04T14:17:51.969Z</time></trkpt><trkpt lat="43.5240923" lon="10.8085441"><ele>97.0</ele><time>2026-04-04T14:17:52.964Z</time></trkpt><trkpt lat="43.5240827" lon="10.8087212"><ele>98.0</ele><time>2026-04-04T14:17:53.955Z</time></trkpt><trkpt lat="43.5240657" lon="10.8089074"><ele>99.0</ele><time>2026-04-04T14:17:54.95Z</time></trkpt><trkpt lat="43.5240529" lon="10.8090868"><ele>100.0</ele><time>2026-04-04T14:17:55.96Z</time></trkpt><trkpt lat="43.5240495" lon="10.8092601"><ele>100.75</ele><time>2026-04-04T14:17:56.97Z</time></trkpt><trkpt lat="43.5240613" lon="10.8094248"><ele>101.5</ele><time>2026-04-04T14:17:57.97Z</time></trkpt><trkpt lat="43.5240798" lon="10.8095873"><ele>102.25</ele><time>2026-04-04T14:17:58.974Z</time></trkpt><trkpt lat="43.5241012" lon="10.8097519"><ele>103.0</ele><time>2026-04-04T14:17:59.966Z</time></trkpt><trkpt lat="43.5241225" lon="10.809918"><ele>103.0</ele><time>2026-04-04T14:18:00.976Z</time></trkpt><trkpt lat="43.5241314" lon="10.8100871"><ele>103.0</ele><time>2026-04-04T14:18:01.974Z</time></trkpt><trkpt lat="43.5241206" lon="10.8102545"><ele>103.0</ele><time>2026-04-04T14:18:02.952Z</time></trkpt><trkpt lat="43.524096" lon="10.8104198"><ele>103.0</ele><time>2026-04-04T14:18:03.964Z</time></trkpt><trkpt lat="43.5240592" lon="10.8105838"><ele>103.25</ele><time>2026-04-04T14:18:04.96Z</time></trkpt><trkpt lat="43.5240233" lon="10.8107466"><ele>103.5</ele><time>2026-04-04T14:18:05.982Z</time></trkpt><trkpt lat="43.5239997" lon="10.8109065"><ele>103.75</ele><time>2026-04-04T14:18:06.97Z</time></trkpt><trkpt lat="43.5239767" lon="10.8110618"><ele>104.0</ele><time>2026-04-04T14:18:07.962Z</time></trkpt><trkpt lat="43.5239531" lon="10.8112139"><ele>103.6</ele><time>2026-04-04T14:18:08.964Z</time></trkpt><trkpt lat="43.5239203" lon="10.8113481"><ele>103.2</ele><time>2026-04-04T14:18:09.963Z</time></trkpt><trkpt lat="43.5238801" lon="10.8114632"><ele>102.8</ele><time>2026-04-04T14:18:10.964Z</time></trkpt><trkpt lat="43.5238268" lon="10.8115681"><ele>102.39999999999999</ele><time>2026-04-04T14:18:11.979Z</time></trkpt><trkpt lat="43.5237604" lon="10.8116678"><ele>102.0</ele><time>2026-04-04T14:18:12.97Z</time></trkpt><trkpt lat="43.5236851" lon="10.811767"><ele>104.8</ele><time>2026-04-04T14:18:13.973Z</time></trkpt><trkpt lat="43.5236071" lon="10.8118612"><ele>107.6</ele><time>2026-04-04T14:18:14.973Z</time></trkpt><trkpt lat="43.523531" lon="10.8119392"><ele>110.39999999999999</ele><time>2026-04-04T14:18:15.953Z</time></trkpt><trkpt lat="43.5234498" lon="10.812001"><ele>113.19999999999999</ele><time>2026-04-04T14:18:16.971Z</time></trkpt><trkpt lat="43.5233577" lon="10.8120508"><ele>116.0</ele><time>2026-04-04T14:18:17.962Z</time></trkpt><trkpt lat="43.5232681" lon="10.8120982"><ele>115.99999999999999</ele><time>2026-04-04T14:18:18.969Z</time></trkpt><trkpt lat="43.5231804" lon="10.812144"><ele>116.0</ele><time>2026-04-04T14:18:19.971Z</time></trkpt><trkpt lat="43.5231002" lon="10.8121967"><ele>116.0</ele><time>2026-04-04T14:18:20.97Z</time></trkpt><trkpt lat="43.5230331" lon="10.812264"><ele>116.0</ele><time>2026-04-04T14:18:21.97Z</time></trkpt><trkpt lat="43.5229804" lon="10.8123476"><ele>115.99999999999999</ele><time>2026-04-04T14:18:22.978Z</time></trkpt><trkpt lat="43.522932" lon="10.812434"><ele>116.0</ele><time>2026-04-04T14:18:23.963Z</time></trkpt><trkpt lat="43.5228924" lon="10.8125319"><ele>117.19999999999999</ele><time>2026-04-04T14:18:24.962Z</time></trkpt><trkpt lat="43.5228557" lon="10.8126564"><ele>118.39999999999999</ele><time>2026-04-04T14:18:25.96Z</time></trkpt><trkpt lat="43.5228154" lon="10.812803"><ele>119.6</ele><time>2026-04-04T14:18:26.953Z</time></trkpt><trkpt lat="43.5227733" lon="10.8129409"><ele>120.8</ele><time>2026-04-04T14:18:27.973Z</time></trkpt><trkpt lat="43.5227305" lon="10.8130559"><ele>122.0</ele><time>2026-04-04T14:18:28.963Z</time></trkpt><trkpt lat="43.5226741" lon="10.8131504"><ele>122.0</ele><time>2026-04-04T14:18:29.976Z</time></trkpt><trkpt lat="43.5225927" lon="10.8132305"><ele>121.99999999999999</ele><time>2026-04-04T14:18:30.959Z</time></trkpt><trkpt lat="43.522498" lon="10.8133193"><ele>121.99999999999999</ele><time>2026-04-04T14:18:31.971Z</time></trkpt><trkpt lat="43.5224004" lon="10.8134104"><ele>122.0</ele><time>2026-04-04T14:18:32.949Z</time></trkpt><trkpt lat="43.5223041" lon="10.8135013"><ele>122.0</ele><time>2026-04-04T14:18:33.975Z</time></trkpt><trkpt lat="43.5222166" lon="10.8135907"><ele>122.6</ele><time>2026-04-04T14:18:34.951Z</time></trkpt><trkpt lat="43.5221348" lon="10.8136768"><ele>123.19999999999999</ele><time>2026-04-04T14:18:35.964Z</time></trkpt><trkpt lat="43.5220728" lon="10.8137678"><ele>123.8</ele><time>2026-04-04T14:18:36.969Z</time></trkpt><trkpt lat="43.5220365" lon="10.8138808"><ele>124.4</ele><time>2026-04-04T14:18:37.961Z</time></trkpt><trkpt lat="43.522005" lon="10.8140076"><ele>125.0</ele><time>2026-04-04T14:18:38.973Z</time></trkpt><trkpt lat="43.5219721" lon="10.8141481"><ele>125.6</ele><time>2026-04-04T14:18:39.962Z</time></trkpt><trkpt lat="43.5219392" lon="10.8142884"><ele>126.2</ele><time>2026-04-04T14:18:40.951Z</time></trkpt><trkpt lat="43.5219064" lon="10.8144289"><ele>126.80000000000001</ele><time>2026-04-04T14:18:41.971Z</time></trkpt><trkpt lat="43.5218615" lon="10.8145567"><ele>127.4</ele><time>2026-04-04T14:18:42.966Z</time></trkpt><trkpt lat="43.5218146" lon="10.8146672"><ele>128.0</ele><time>2026-04-04T14:18:43.967Z</time></trkpt><trkpt lat="43.5217753" lon="10.8147643"><ele>128.0</ele><time>2026-04-04T14:18:44.975Z</time></trkpt><trkpt lat="43.521753" lon="10.8148503"><ele>128.0</ele><time>2026-04-04T14:18:45.973Z</time></trkpt><trkpt lat="43.5217299" lon="10.8149493"><ele>128.0</ele><time>2026-04-04T14:18:46.969Z</time></trkpt><trkpt lat="43.5217205" lon="10.8150963"><ele>128.0</ele><time>2026-04-04T14:18:47.969Z</time></trkpt><trkpt lat="43.5217115" lon="10.8152617"><ele>128.0</ele><time>2026-04-04T14:18:48.964Z</time></trkpt><trkpt lat="43.5217098" lon="10.8154196"><ele>127.83333333333333</ele><time>2026-04-04T14:18:49.968Z</time></trkpt><trkpt lat="43.5217072" lon="10.8155573"><ele>127.66666666666666</ele><time>2026-04-04T14:18:50.968Z</time></trkpt><trkpt lat="43.5217062" lon="10.8156745"><ele>127.5</ele><time>2026-04-04T14:18:51.979Z</time></trkpt><trkpt lat="43.5217112" lon="10.8157839"><ele>127.33333333333334</ele><time>2026-04-04T14:18:52.971Z</time></trkpt><trkpt lat="43.5217351" lon="10.8158997"><ele>127.16666666666667</ele><time>2026-04-04T14:18:53.952Z</time></trkpt><trkpt lat="43.5217765" lon="10.8160167"><ele>127.0</ele><time>2026-04-04T14:18:54.969Z</time></trkpt><trkpt lat="43.5218409" lon="10.8161283"><ele>126.39999999999999</ele><time>2026-04-04T14:18:55.963Z</time></trkpt><trkpt lat="43.5219107" lon="10.816241"><ele>125.79999999999998</ele><time>2026-04-04T14:18:56.977Z</time></trkpt><trkpt lat="43.52198" lon="10.8163518"><ele>125.2</ele><time>2026-04-04T14:18:57.95Z</time></trkpt><trkpt lat="43.5220423" lon="10.816469"><ele>124.6</ele><time>2026-04-04T14:18:58.973Z</time></trkpt><trkpt lat="43.52208" lon="10.8165989"><ele>124.0</ele><time>2026-04-04T14:18:59.963Z</time></trkpt><trkpt lat="43.522105" lon="10.8167179"><ele>123.6</ele><time>2026-04-04T14:19:00.966Z</time></trkpt><trkpt lat="43.5221087" lon="10.8168224"><ele>123.2</ele><time>2026-04-04T14:19:01.953Z</time></trkpt><trkpt lat="43.5221131" lon="10.8169134"><ele>122.79999999999998</ele><time>2026-04-04T14:19:02.974Z</time></trkpt><trkpt lat="43.5221329" lon="10.8170893"><ele>122.39999999999999</ele><time>2026-04-04T14:19:04.963Z</time></trkpt><trkpt lat="43.5221647" lon="10.8172455"><ele>122.0</ele><time>2026-04-04T14:19:06.973Z</time></trkpt><trkpt lat="43.5221982" lon="10.8174077"><ele>122.0</ele><time>2026-04-04T14:19:08.977Z</time></trkpt><trkpt lat="43.5222446" lon="10.8175237"><ele>121.99999999999999</ele><time>2026-04-04T14:19:10.965Z</time></trkpt><trkpt lat="43.5223432" lon="10.8175587"><ele>121.99999999999999</ele><time>2026-04-04T14:19:12.977Z</time></trkpt><trkpt lat="43.5224653" lon="10.8175228"><ele>122.0</ele><time>2026-04-04T14:19:14.965Z</time></trkpt><trkpt lat="43.5225288" lon="10.8175065"><ele>122.0</ele><time>2026-04-04T14:19:15.976Z</time></trkpt><trkpt lat="43.5225919" lon="10.817486"><ele>121.99999999999999</ele><time>2026-04-04T14:19:16.97Z</time></trkpt><trkpt lat="43.5226626" lon="10.8174637"><ele>122.0</ele><time>2026-04-04T14:19:17.963Z</time></trkpt><trkpt lat="43.5227304" lon="10.8174434"><ele>121.99999999999999</ele><time>2026-04-04T14:19:18.976Z</time></trkpt><trkpt lat="43.5228001" lon="10.8174258"><ele>121.99999999999999</ele><time>2026-04-04T14:19:19.97Z</time></trkpt><trkpt lat="43.5228696" lon="10.817411"><ele>122.0</ele><time>2026-04-04T14:19:20.958Z</time></trkpt><trkpt lat="43.5229327" lon="10.817396"><ele>121.99999999999999</ele><time>2026-04-04T14:19:21.966Z</time></trkpt><trkpt lat="43.5229939" lon="10.8173723"><ele>121.99999999999999</ele><time>2026-04-04T14:19:22.957Z</time></trkpt><trkpt lat="43.5231035" lon="10.8173128"><ele>119.33333333333333</ele><time>2026-04-04T14:19:24.963Z</time></trkpt><trkpt lat="43.5232186" lon="10.8172509"><ele>116.66666666666666</ele><time>2026-04-04T14:19:26.97Z</time></trkpt><trkpt lat="43.5232832" lon="10.8172234"><ele>114.0</ele><time>2026-04-04T14:19:27.953Z</time></trkpt><trkpt lat="43.5233497" lon="10.8172114"><ele>111.33333333333334</ele><time>2026-04-04T14:19:28.972Z</time></trkpt><trkpt lat="43.5234218" lon="10.8171984"><ele>108.66666666666667</ele><time>2026-04-04T14:19:29.962Z</time></trkpt><trkpt lat="43.5234878" lon="10.8171823"><ele>106.0</ele><time>2026-04-04T14:19:30.975Z</time></trkpt><trkpt lat="43.5235502" lon="10.8171549"><ele>106.0</ele><time>2026-04-04T14:19:31.976Z</time></trkpt><trkpt lat="43.5236538" lon="10.8171121"><ele>106.0</ele><time>2026-04-04T14:19:33.961Z</time></trkpt><trkpt lat="43.523723" lon="10.8171667"><ele>106.0</ele><time>2026-04-04T14:19:35.969Z</time></trkpt><trkpt lat="43.5237128" lon="10.8172915"><ele>106.0</ele><time>2026-04-04T14:19:37.966Z</time></trkpt><trkpt lat="43.5236536" lon="10.8174031"><ele>106.0</ele><time>2026-04-04T14:19:39.97Z</time></trkpt><trkpt lat="43.5236542" lon="10.8175222"><ele>106.00000000000001</ele><time>2026-04-04T14:19:41.965Z</time></trkpt><trkpt lat="43.5237303" lon="10.817585"><ele>106.0</ele><time>2026-04-04T14:19:43.955Z</time></trkpt><trkpt lat="43.523804" lon="10.8175842"><ele>106.0</ele><time>2026-04-04T14:19:44.976Z</time></trkpt><trkpt lat="43.5238813" lon="10.8175802"><ele>106.0</ele><time>2026-04-04T14:19:45.974Z</time></trkpt><trkpt lat="43.5239622" lon="10.8175682"><ele>106.00000000000001</ele><time>2026-04-04T14:19:46.951Z</time></trkpt><trkpt lat="43.5240381" lon="10.8175672"><ele>106.0</ele><time>2026-04-04T14:19:47.963Z</time></trkpt><trkpt lat="43.5241151" lon="10.8175562"><ele>103.83333333333334</ele><time>2026-04-04T14:19:48.959Z</time></trkpt><trkpt lat="43.5241939" lon="10.817544"><ele>101.66666666666667</ele><time>2026-04-04T14:19:49.965Z</time></trkpt><trkpt lat="43.5242686" lon="10.8175311"><ele>99.5</ele><time>2026-04-04T14:19:50.966Z</time></trkpt><trkpt lat="43.5243466" lon="10.817515"><ele>97.33333333333334</ele><time>2026-04-04T14:19:51.967Z</time></trkpt><trkpt lat="43.5244218" lon="10.8174936"><ele>95.16666666666667</ele><time>2026-04-04T14:19:52.973Z</time></trkpt><trkpt lat="43.524484" lon="10.8174572"><ele>93.0</ele><time>2026-04-04T14:19:53.973Z</time></trkpt><trkpt lat="43.524542" lon="10.8173964"><ele>90.4</ele><time>2026-04-04T14:19:54.954Z</time></trkpt><trkpt lat="43.5245911" lon="10.8173168"><ele>87.80000000000001</ele><time>2026-04-04T14:19:55.959Z</time></trkpt><trkpt lat="43.5246295" lon="10.8172187"><ele>85.2</ele><time>2026-04-04T14:19:56.963Z</time></trkpt><trkpt lat="43.5246812" lon="10.817109"><ele>82.6</ele><time>2026-04-04T14:19:57.97Z</time></trkpt><trkpt lat="43.5247406" lon="10.8169932"><ele>80.0</ele><time>2026-04-04T14:19:58.963Z</time></trkpt><trkpt lat="43.5248002" lon="10.8168837"><ele>81.0</ele><time>2026-04-04T14:19:59.948Z</time></trkpt><trkpt lat="43.5248616" lon="10.8167667"><ele>82.0</ele><time>2026-04-04T14:20:00.961Z</time></trkpt><trkpt lat="43.5249246" lon="10.8166469"><ele>83.0</ele><time>2026-04-04T14:20:01.972Z</time></trkpt><trkpt lat="43.5249865" lon="10.8165219"><ele>84.0</ele><time>2026-04-04T14:20:02.954Z</time></trkpt><trkpt lat="43.5250415" lon="10.8164113"><ele>85.0</ele><time>2026-04-04T14:20:03.975Z</time></trkpt><trkpt lat="43.5250856" lon="10.8163316"><ele>85.0</ele><time>2026-04-04T14:20:04.96Z</time></trkpt><trkpt lat="43.5251356" lon="10.816266"><ele>85.0</ele><time>2026-04-04T14:20:05.954Z</time></trkpt><trkpt lat="43.5251944" lon="10.8162253"><ele>85.0</ele><time>2026-04-04T14:20:06.954Z</time></trkpt><trkpt lat="43.5252716" lon="10.8162285"><ele>85.0</ele><time>2026-04-04T14:20:07.962Z</time></trkpt><trkpt lat="43.5253555" lon="10.8162513"><ele>85.0</ele><time>2026-04-04T14:20:08.968Z</time></trkpt><trkpt lat="43.5254353" lon="10.8163158"><ele>85.0</ele><time>2026-04-04T14:20:09.955Z</time></trkpt><trkpt lat="43.5255098" lon="10.8164161"><ele>84.8</ele><time>2026-04-04T14:20:10.964Z</time></trkpt><trkpt lat="43.5255776" lon="10.8165263"><ele>84.6</ele><time>2026-04-04T14:20:11.961Z</time></trkpt><trkpt lat="43.5256414" lon="10.8166346"><ele>84.4</ele><time>2026-04-04T14:20:12.969Z</time></trkpt><trkpt lat="43.5256978" lon="10.8167308"><ele>84.2</ele><time>2026-04-04T14:20:13.964Z</time></trkpt><trkpt lat="43.5257479" lon="10.8168152"><ele>84.0</ele><time>2026-04-04T14:20:14.956Z</time></trkpt><trkpt lat="43.5258005" lon="10.8168986"><ele>84.0</ele><time>2026-04-04T14:20:15.955Z</time></trkpt><trkpt lat="43.5258608" lon="10.8169805"><ele>84.0</ele><time>2026-04-04T14:20:16.972Z</time></trkpt><trkpt lat="43.5259239" lon="10.8170648"><ele>84.0</ele><time>2026-04-04T14:20:17.971Z</time></trkpt><trkpt lat="43.5259844" lon="10.8171494"><ele>84.0</ele><time>2026-04-04T14:20:18.966Z</time></trkpt><trkpt lat="43.5260456" lon="10.8172417"><ele>84.0</ele><time>2026-04-04T14:20:19.966Z</time></trkpt><trkpt lat="43.5261026" lon="10.8173338"><ele>84.0</ele><time>2026-04-04T14:20:20.957Z</time></trkpt><trkpt lat="43.526154" lon="10.8174224"><ele>84.0</ele><time>2026-04-04T14:20:21.973Z</time></trkpt><trkpt lat="43.5261812" lon="10.8175264"><ele>84.0</ele><time>2026-04-04T14:20:22.962Z</time></trkpt><trkpt lat="43.5262075" lon="10.817628"><ele>84.0</ele><time>2026-04-04T14:20:23.953Z</time></trkpt><trkpt lat="43.5262395" lon="10.8177261"><ele>84.0</ele><time>2026-04-04T14:20:24.968Z</time></trkpt><trkpt lat="43.5262718" lon="10.8178259"><ele>84.0</ele><time>2026-04-04T14:20:25.969Z</time></trkpt><trkpt lat="43.5263277" lon="10.8179267"><ele>84.0</ele><time>2026-04-04T14:20:26.971Z</time></trkpt><trkpt lat="43.5263847" lon="10.8180289"><ele>84.83333333333333</ele><time>2026-04-04T14:20:27.977Z</time></trkpt><trkpt lat="43.5264478" lon="10.8181329"><ele>85.66666666666667</ele><time>2026-04-04T14:20:28.963Z</time></trkpt><trkpt lat="43.5265052" lon="10.818228"><ele>86.5</ele><time>2026-04-04T14:20:29.975Z</time></trkpt><trkpt lat="43.526564" lon="10.8183184"><ele>87.33333333333334</ele><time>2026-04-04T14:20:30.972Z</time></trkpt><trkpt lat="43.5266234" lon="10.818392"><ele>88.16666666666667</ele><time>2026-04-04T14:20:31.954Z</time></trkpt><trkpt lat="43.5266784" lon="10.8184518"><ele>89.0</ele><time>2026-04-04T14:20:32.967Z</time></trkpt><trkpt lat="43.5267601" lon="10.8185203"><ele>89.0</ele><time>2026-04-04T14:20:34.969Z</time></trkpt><trkpt lat="43.5268624" lon="10.8184845"><ele>89.0</ele><time>2026-04-04T14:20:37.968Z</time></trkpt><trkpt lat="43.5269125" lon="10.8184123"><ele>89.0</ele><time>2026-04-04T14:20:38.965Z</time></trkpt><trkpt lat="43.5269696" lon="10.818301"><ele>89.0</ele><time>2026-04-04T14:20:39.982Z</time></trkpt><trkpt lat="43.527028" lon="10.8181817"><ele>89.0</ele><time>2026-04-04T14:20:40.952Z</time></trkpt><trkpt lat="43.5270897" lon="10.8180524"><ele>87.75</ele><time>2026-04-04T14:20:41.967Z</time></trkpt><trkpt lat="43.5271582" lon="10.8179166"><ele>86.5</ele><time>2026-04-04T14:20:42.96Z</time></trkpt><trkpt lat="43.5272265" lon="10.8177758"><ele>85.25</ele><time>2026-04-04T14:20:43.968Z</time></trkpt><trkpt lat="43.5272934" lon="10.8176411"><ele>84.0</ele><time>2026-04-04T14:20:44.966Z</time></trkpt><trkpt lat="43.527357" lon="10.8175168"><ele>84.0</ele><time>2026-04-04T14:20:45.967Z</time></trkpt><trkpt lat="43.5274344" lon="10.8174197"><ele>84.0</ele><time>2026-04-04T14:20:46.966Z</time></trkpt><trkpt lat="43.5275212" lon="10.8173382"><ele>84.0</ele><time>2026-04-04T14:20:47.966Z</time></trkpt><trkpt lat="43.5276094" lon="10.8172665"><ele>84.0</ele><time>2026-04-04T14:20:48.948Z</time></trkpt><trkpt lat="43.5276875" lon="10.8171865"><ele>84.0</ele><time>2026-04-04T14:20:49.958Z</time></trkpt><trkpt lat="43.527748" lon="10.8170885"><ele>84.0</ele><time>2026-04-04T14:20:50.956Z</time></trkpt><trkpt lat="43.5277962" lon="10.8169615"><ele>84.0</ele><time>2026-04-04T14:20:51.962Z</time></trkpt><trkpt lat="43.5278407" lon="10.8168079"><ele>84.0</ele><time>2026-04-04T14:20:52.97Z</time></trkpt><trkpt lat="43.5278926" lon="10.8166449"><ele>84.0</ele><time>2026-04-04T14:20:53.96Z</time></trkpt><trkpt lat="43.5279494" lon="10.8164802"><ele>85.5</ele><time>2026-04-04T14:20:54.961Z</time></trkpt><trkpt lat="43.5280066" lon="10.8163257"><ele>87.0</ele><time>2026-04-04T14:20:55.971Z</time></trkpt><trkpt lat="43.5280613" lon="10.8161792"><ele>88.5</ele><time>2026-04-04T14:20:56.964Z</time></trkpt><trkpt lat="43.5281328" lon="10.8160641"><ele>90.0</ele><time>2026-04-04T14:20:57.957Z</time></trkpt><trkpt lat="43.5282146" lon="10.8159961"><ele>90.0</ele><time>2026-04-04T14:20:58.961Z</time></trkpt><trkpt lat="43.528302" lon="10.8159805"><ele>90.0</ele><time>2026-04-04T14:20:59.963Z</time></trkpt><trkpt lat="43.528396" lon="10.8159976"><ele>90.0</ele><time>2026-04-04T14:21:00.953Z</time></trkpt><trkpt lat="43.5284969" lon="10.8160254"><ele>90.0</ele><time>2026-04-04T14:21:01.971Z</time></trkpt><trkpt lat="43.5286042" lon="10.8160552"><ele>90.0</ele><time>2026-04-04T14:21:02.952Z</time></trkpt><trkpt lat="43.5287164" lon="10.8160791"><ele>92.25</ele><time>2026-04-04T14:21:03.957Z</time></trkpt><trkpt lat="43.5288315" lon="10.8160882"><ele>94.5</ele><time>2026-04-04T14:21:04.963Z</time></trkpt><trkpt lat="43.5289477" lon="10.8160705"><ele>96.75</ele><time>2026-04-04T14:21:05.953Z</time></trkpt><trkpt lat="43.5290634" lon="10.8160278"><ele>99.0</ele><time>2026-04-04T14:21:06.97Z</time></trkpt><trkpt lat="43.5291774" lon="10.8159713"><ele>103.75</ele><time>2026-04-04T14:21:07.965Z</time></trkpt><trkpt lat="43.5292919" lon="10.8159152"><ele>108.5</ele><time>2026-04-04T14:21:08.963Z</time></trkpt><trkpt lat="43.5294093" lon="10.8158664"><ele>113.25</ele><time>2026-04-04T14:21:09.969Z</time></trkpt><trkpt lat="43.5295248" lon="10.8158251"><ele>118.0</ele><time>2026-04-04T14:21:10.965Z</time></trkpt><trkpt lat="43.5296392" lon="10.8157854"><ele>119.2</ele><time>2026-04-04T14:21:11.962Z</time></trkpt><trkpt lat="43.529752" lon="10.8157533"><ele>120.4</ele><time>2026-04-04T14:21:12.975Z</time></trkpt><trkpt lat="43.5298615" lon="10.8157267"><ele>121.60000000000001</ele><time>2026-04-04T14:21:13.965Z</time></trkpt><trkpt lat="43.5299679" lon="10.8157018"><ele>122.80000000000001</ele><time>2026-04-04T14:21:14.961Z</time></trkpt><trkpt lat="43.5300756" lon="10.8156866"><ele>124.0</ele><time>2026-04-04T14:21:15.957Z</time></trkpt><trkpt lat="43.5301861" lon="10.8156704"><ele>124.0</ele><time>2026-04-04T14:21:16.973Z</time></trkpt><trkpt lat="43.5302954" lon="10.8156535"><ele>124.0</ele><time>2026-04-04T14:21:17.951Z</time></trkpt><trkpt lat="43.5304043" lon="10.8156369"><ele>124.0</ele><time>2026-04-04T14:21:18.958Z</time></trkpt><trkpt lat="43.530511" lon="10.8156188"><ele>124.0</ele><time>2026-04-04T14:21:19.957Z</time></trkpt><trkpt lat="43.5306171" lon="10.8155993"><ele>124.0</ele><time>2026-04-04T14:21:20.967Z</time></trkpt><trkpt lat="43.5307279" lon="10.8155891"><ele>124.75</ele><time>2026-04-04T14:21:21.961Z</time></trkpt><trkpt lat="43.5308432" lon="10.8156102"><ele>125.5</ele><time>2026-04-04T14:21:22.965Z</time></trkpt><trkpt lat="43.5309645" lon="10.8156544"><ele>126.25</ele><time>2026-04-04T14:21:23.966Z</time></trkpt><trkpt lat="43.5310917" lon="10.8157059"><ele>127.0</ele><time>2026-04-04T14:21:24.945Z</time></trkpt><trkpt lat="43.53122" lon="10.8157582"><ele>128.25</ele><time>2026-04-04T14:21:25.969Z</time></trkpt><trkpt lat="43.5313466" lon="10.8158011"><ele>129.5</ele><time>2026-04-04T14:21:26.973Z</time></trkpt><trkpt lat="43.5314737" lon="10.8158264"><ele>130.75</ele><time>2026-04-04T14:21:27.97Z</time></trkpt><trkpt lat="43.5316026" lon="10.8158344"><ele>132.0</ele><time>2026-04-04T14:21:28.954Z</time></trkpt><trkpt lat="43.5317295" lon="10.8158387"><ele>132.0</ele><time>2026-04-04T14:21:29.973Z</time></trkpt><trkpt lat="43.5318496" lon="10.8158552"><ele>132.0</ele><time>2026-04-04T14:21:30.977Z</time></trkpt><trkpt lat="43.5319599" lon="10.8158955"><ele>132.0</ele><time>2026-04-04T14:21:31.962Z</time></trkpt><trkpt lat="43.5320629" lon="10.8159575"><ele>132.0</ele><time>2026-04-04T14:21:32.955Z</time></trkpt><trkpt lat="43.5321645" lon="10.8160379"><ele>133.5</ele><time>2026-04-04T14:21:33.947Z</time></trkpt><trkpt lat="43.532269" lon="10.8161281"><ele>135.0</ele><time>2026-04-04T14:21:34.964Z</time></trkpt><trkpt lat="43.5323727" lon="10.816216"><ele>136.5</ele><time>2026-04-04T14:21:35.971Z</time></trkpt><trkpt lat="43.5324794" lon="10.8162888"><ele>138.0</ele><time>2026-04-04T14:21:36.975Z</time></trkpt><trkpt lat="43.5325851" lon="10.8163598"><ele>138.0</ele><time>2026-04-04T14:21:37.963Z</time></trkpt><trkpt lat="43.5327013" lon="10.8164007"><ele>138.0</ele><time>2026-04-04T14:21:38.966Z</time></trkpt><trkpt lat="43.5328239" lon="10.816436"><ele>138.0</ele><time>2026-04-04T14:21:39.963Z</time></trkpt><trkpt lat="43.5329469" lon="10.81648"><ele>138.0</ele><time>2026-04-04T14:21:40.969Z</time></trkpt><trkpt lat="43.5330795" lon="10.8165447"><ele>137.75</ele><time>2026-04-04T14:21:41.978Z</time></trkpt><trkpt lat="43.5332107" lon="10.8166095"><ele>137.5</ele><time>2026-04-04T14:21:42.974Z</time></trkpt><trkpt lat="43.5333315" lon="10.8166685"><ele>137.25</ele><time>2026-04-04T14:21:43.965Z</time></trkpt><trkpt lat="43.5334394" lon="10.8167209"><ele>137.0</ele><time>2026-04-04T14:21:44.973Z</time></trkpt><trkpt lat="43.5335286" lon="10.8167543"><ele>137.0</ele><time>2026-04-04T14:21:45.965Z</time></trkpt><trkpt lat="43.5336213" lon="10.8167616"><ele>137.0</ele><time>2026-04-04T14:21:46.954Z</time></trkpt><trkpt lat="43.5337246" lon="10.8167399"><ele>137.0</ele><time>2026-04-04T14:21:47.949Z</time></trkpt><trkpt lat="43.5338436" lon="10.8166932"><ele>137.0</ele><time>2026-04-04T14:21:48.962Z</time></trkpt><trkpt lat="43.5339744" lon="10.8166562"><ele>138.5</ele><time>2026-04-04T14:21:49.977Z</time></trkpt><trkpt lat="43.5341123" lon="10.8166399"><ele>140.0</ele><time>2026-04-04T14:21:50.972Z</time></trkpt><trkpt lat="43.5342619" lon="10.8166412"><ele>141.5</ele><time>2026-04-04T14:21:51.954Z</time></trkpt><trkpt lat="43.5344149" lon="10.816652"><ele>143.0</ele><time>2026-04-04T14:21:52.967Z</time></trkpt><trkpt lat="43.5345652" lon="10.8166674"><ele>145.25</ele><time>2026-04-04T14:21:53.971Z</time></trkpt><trkpt lat="43.5347064" lon="10.816682"><ele>147.5</ele><time>2026-04-04T14:21:54.971Z</time></trkpt><trkpt lat="43.5348155" lon="10.8167054"><ele>149.75</ele><time>2026-04-04T14:21:55.966Z</time></trkpt><trkpt lat="43.5349129" lon="10.8167143"><ele>152.0</ele><time>2026-04-04T14:21:56.979Z</time></trkpt><trkpt lat="43.535014" lon="10.8166942"><ele>152.0</ele><time>2026-04-04T14:21:57.977Z</time></trkpt><trkpt lat="43.5351164" lon="10.8166373"><ele>152.0</ele><time>2026-04-04T14:21:58.963Z</time></trkpt><trkpt lat="43.5352236" lon="10.8165758"><ele>152.0</ele><time>2026-04-04T14:21:59.96Z</time></trkpt><trkpt lat="43.5353353" lon="10.8164811"><ele>152.0</ele><time>2026-04-04T14:22:00.955Z</time></trkpt><trkpt lat="43.5354532" lon="10.8163716"><ele>155.0</ele><time>2026-04-04T14:22:01.972Z</time></trkpt><trkpt lat="43.5355746" lon="10.8162545"><ele>158.0</ele><time>2026-04-04T14:22:02.957Z</time></trkpt><trkpt lat="43.5356928" lon="10.8161393"><ele>161.0</ele><time>2026-04-04T14:22:03.965Z</time></trkpt><trkpt lat="43.5358012" lon="10.8160323"><ele>164.0</ele><time>2026-04-04T14:22:04.963Z</time></trkpt><trkpt lat="43.5359066" lon="10.8159379"><ele>164.0</ele><time>2026-04-04T14:22:05.968Z</time></trkpt><trkpt lat="43.5360158" lon="10.8158558"><ele>164.0</ele><time>2026-04-04T14:22:06.954Z</time></trkpt><trkpt lat="43.5361235" lon="10.8157847"><ele>164.0</ele><time>2026-04-04T14:22:07.959Z</time></trkpt><trkpt lat="43.5362343" lon="10.8157284"><ele>164.0</ele><time>2026-04-04T14:22:08.975Z</time></trkpt><trkpt lat="43.5363434" lon="10.815676"><ele>165.6</ele><time>2026-04-04T14:22:09.974Z</time></trkpt><trkpt lat="43.5364583" lon="10.8156403"><ele>167.2</ele><time>2026-04-04T14:22:10.983Z</time></trkpt><trkpt lat="43.5365656" lon="10.8156233"><ele>168.79999999999998</ele><time>2026-04-04T14:22:11.96Z</time></trkpt><trkpt lat="43.5366583" lon="10.815622"><ele>170.39999999999998</ele><time>2026-04-04T14:22:12.986Z</time></trkpt><trkpt lat="43.5367445" lon="10.8156235"><ele>172.0</ele><time>2026-04-04T14:22:13.975Z</time></trkpt><trkpt lat="43.5368172" lon="10.8156271"><ele>172.0</ele><time>2026-04-04T14:22:14.963Z</time></trkpt><trkpt lat="43.536891" lon="10.8156157"><ele>172.0</ele><time>2026-04-04T14:22:15.971Z</time></trkpt><trkpt lat="43.5369599" lon="10.8155719"><ele>172.0</ele><time>2026-04-04T14:22:16.951Z</time></trkpt><trkpt lat="43.5370245" lon="10.815492"><ele>172.0</ele><time>2026-04-04T14:22:17.966Z</time></trkpt><trkpt lat="43.5370795" lon="10.8153964"><ele>172.0</ele><time>2026-04-04T14:22:18.961Z</time></trkpt><trkpt lat="43.5371274" lon="10.8153051"><ele>172.0</ele><time>2026-04-04T14:22:19.97Z</time></trkpt><trkpt lat="43.5371655" lon="10.8152216"><ele>170.33333333333334</ele><time>2026-04-04T14:22:20.966Z</time></trkpt><trkpt lat="43.5372157" lon="10.8150992"><ele>168.66666666666669</ele><time>2026-04-04T14:22:22.973Z</time></trkpt><trkpt lat="43.5372877" lon="10.8150721"><ele>167.0</ele><time>2026-04-04T14:22:25.97Z</time></trkpt><trkpt lat="43.5373334" lon="10.8151639"><ele>165.33333333333334</ele><time>2026-04-04T14:22:27.967Z</time></trkpt><trkpt lat="43.5373724" lon="10.815304"><ele>163.66666666666666</ele><time>2026-04-04T14:22:29.955Z</time></trkpt><trkpt lat="43.5373981" lon="10.8153944"><ele>162.0</ele><time>2026-04-04T14:22:30.973Z</time></trkpt><trkpt lat="43.5374256" lon="10.8154954"><ele>162.0</ele><time>2026-04-04T14:22:31.97Z</time></trkpt><trkpt lat="43.5374581" lon="10.8156054"><ele>162.0</ele><time>2026-04-04T14:22:32.974Z</time></trkpt><trkpt lat="43.5374946" lon="10.8157254"><ele>162.0</ele><time>2026-04-04T14:22:33.969Z</time></trkpt><trkpt lat="43.5375306" lon="10.8158509"><ele>162.0</ele><time>2026-04-04T14:22:34.969Z</time></trkpt><trkpt lat="43.5375667" lon="10.8159724"><ele>162.0</ele><time>2026-04-04T14:22:35.977Z</time></trkpt><trkpt lat="43.5376004" lon="10.8160778"><ele>163.14285714285714</ele><time>2026-04-04T14:22:36.977Z</time></trkpt><trkpt lat="43.5376328" lon="10.8161636"><ele>164.28571428571428</ele><time>2026-04-04T14:22:37.979Z</time></trkpt><trkpt lat="43.5376636" lon="10.8162453"><ele>165.42857142857144</ele><time>2026-04-04T14:22:38.967Z</time></trkpt><trkpt lat="43.5376937" lon="10.8163222"><ele>166.57142857142856</ele><time>2026-04-04T14:22:39.977Z</time></trkpt><trkpt lat="43.5377273" lon="10.8164062"><ele>167.7142857142857</ele><time>2026-04-04T14:22:40.975Z</time></trkpt><trkpt lat="43.5377677" lon="10.8165004"><ele>168.85714285714286</ele><time>2026-04-04T14:22:41.979Z</time></trkpt><trkpt lat="43.5378133" lon="10.8166003"><ele>170.0</ele><time>2026-04-04T14:22:42.974Z</time></trkpt><trkpt lat="43.5378608" lon="10.8167048"><ele>168.0</ele><time>2026-04-04T14:22:43.955Z</time></trkpt><trkpt lat="43.5379092" lon="10.8168124"><ele>166.0</ele><time>2026-04-04T14:22:44.977Z</time></trkpt><trkpt lat="43.5379583" lon="10.8169258"><ele>164.0</ele><time>2026-04-04T14:22:45.977Z</time></trkpt><trkpt lat="43.5380089" lon="10.8170427"><ele>162.0</ele><time>2026-04-04T14:22:46.96Z</time></trkpt><trkpt lat="43.5380625" lon="10.8171652"><ele>160.0</ele><time>2026-04-04T14:22:47.969Z</time></trkpt><trkpt lat="43.5381203" lon="10.8172958"><ele>160.0</ele><time>2026-04-04T14:22:48.979Z</time></trkpt><trkpt lat="43.5381817" lon="10.817435"><ele>160.0</ele><time>2026-04-04T14:22:49.973Z</time></trkpt><trkpt lat="43.5382431" lon="10.8175773"><ele>160.0</ele><time>2026-04-04T14:22:50.979Z</time></trkpt><trkpt lat="43.538307" lon="10.8177244"><ele>160.0</ele><time>2026-04-04T14:22:51.967Z</time></trkpt><trkpt lat="43.5383713" lon="10.8178736"><ele>162.75</ele><time>2026-04-04T14:22:52.972Z</time></trkpt><trkpt lat="43.5384357" lon="10.8180224"><ele>165.5</ele><time>2026-04-04T14:22:53.972Z</time></trkpt><trkpt lat="43.5385002" lon="10.8181755"><ele>168.25</ele><time>2026-04-04T14:22:54.961Z</time></trkpt><trkpt lat="43.538558" lon="10.8183338"><ele>171.0</ele><time>2026-04-04T14:22:55.962Z</time></trkpt><trkpt lat="43.5386029" lon="10.8184948"><ele>171.25</ele><time>2026-04-04T14:22:56.973Z</time></trkpt><trkpt lat="43.5386359" lon="10.8186574"><ele>171.5</ele><time>2026-04-04T14:22:57.967Z</time></trkpt><trkpt lat="43.5386631" lon="10.8188173"><ele>171.75</ele><time>2026-04-04T14:22:58.977Z</time></trkpt><trkpt lat="43.5386886" lon="10.8189728"><ele>172.0</ele><time>2026-04-04T14:22:59.979Z</time></trkpt><trkpt lat="43.5387188" lon="10.819127"><ele>170.0</ele><time>2026-04-04T14:23:00.96Z</time></trkpt><trkpt lat="43.538756" lon="10.8192849"><ele>168.0</ele><time>2026-04-04T14:23:01.956Z</time></trkpt><trkpt lat="43.5387999" lon="10.8194491"><ele>166.0</ele><time>2026-04-04T14:23:02.966Z</time></trkpt><trkpt lat="43.5388519" lon="10.8196231"><ele>164.0</ele><time>2026-04-04T14:23:03.96Z</time></trkpt><trkpt lat="43.5389035" lon="10.8198043"><ele>164.0</ele><time>2026-04-04T14:23:04.978Z</time></trkpt><trkpt lat="43.5389523" lon="10.8199879"><ele>164.0</ele><time>2026-04-04T14:23:05.96Z</time></trkpt><trkpt lat="43.5389974" lon="10.8201842"><ele>164.0</ele><time>2026-04-04T14:23:06.974Z</time></trkpt><trkpt lat="43.539032" lon="10.8203897"><ele>164.0</ele><time>2026-04-04T14:23:07.965Z</time></trkpt><trkpt lat="43.5390549" lon="10.8206009"><ele>164.66666666666666</ele><time>2026-04-04T14:23:08.977Z</time></trkpt><trkpt lat="43.5390768" lon="10.8208109"><ele>165.33333333333334</ele><time>2026-04-04T14:23:09.978Z</time></trkpt><trkpt lat="43.5390749" lon="10.8210276"><ele>166.0</ele><time>2026-04-04T14:23:10.973Z</time></trkpt><trkpt lat="43.5390748" lon="10.8212438"><ele>166.33333333333334</ele><time>2026-04-04T14:23:11.971Z</time></trkpt><trkpt lat="43.5390756" lon="10.8214582"><ele>166.66666666666666</ele><time>2026-04-04T14:23:12.972Z</time></trkpt><trkpt lat="43.5390917" lon="10.8216736"><ele>167.0</ele><time>2026-04-04T14:23:13.956Z</time></trkpt><trkpt lat="43.5391134" lon="10.821885"><ele>167.66666666666666</ele><time>2026-04-04T14:23:14.972Z</time></trkpt><trkpt lat="43.5391389" lon="10.8220991"><ele>168.33333333333334</ele><time>2026-04-04T14:23:15.966Z</time></trkpt><trkpt lat="43.5391696" lon="10.8223136"><ele>169.0</ele><time>2026-04-04T14:23:16.967Z</time></trkpt><trkpt lat="43.5392022" lon="10.822528"><ele>169.0</ele><time>2026-04-04T14:23:17.964Z</time></trkpt><trkpt lat="43.5392358" lon="10.8227398"><ele>169.0</ele><time>2026-04-04T14:23:18.972Z</time></trkpt><trkpt lat="43.5392697" lon="10.8229497"><ele>169.0</ele><time>2026-04-04T14:23:19.976Z</time></trkpt><trkpt lat="43.5393026" lon="10.8231615"><ele>169.0</ele><time>2026-04-04T14:23:20.977Z</time></trkpt><trkpt lat="43.5393331" lon="10.8233746"><ele>169.0</ele><time>2026-04-04T14:23:21.973Z</time></trkpt><trkpt lat="43.5393635" lon="10.823587"><ele>169.0</ele><time>2026-04-04T14:23:22.979Z</time></trkpt><trkpt lat="43.5393939" lon="10.8237924"><ele>167.75</ele><time>2026-04-04T14:23:23.954Z</time></trkpt><trkpt lat="43.539421" lon="10.8239935"><ele>166.5</ele><time>2026-04-04T14:23:24.981Z</time></trkpt><trkpt lat="43.5394457" lon="10.8241878"><ele>165.25</ele><time>2026-04-04T14:23:25.975Z</time></trkpt><trkpt lat="43.5394715" lon="10.8243812"><ele>164.0</ele><time>2026-04-04T14:23:26.981Z</time></trkpt><trkpt lat="43.539498" lon="10.8245768"><ele>163.25</ele><time>2026-04-04T14:23:27.975Z</time></trkpt><trkpt lat="43.5395249" lon="10.8247765"><ele>162.5</ele><time>2026-04-04T14:23:28.975Z</time></trkpt><trkpt lat="43.5395532" lon="10.8249772"><ele>161.75</ele><time>2026-04-04T14:23:29.978Z</time></trkpt><trkpt lat="43.5395817" lon="10.8251751"><ele>161.0</ele><time>2026-04-04T14:23:30.986Z</time></trkpt><trkpt lat="43.5396106" lon="10.8253739"><ele>160.5</ele><time>2026-04-04T14:23:31.951Z</time></trkpt><trkpt lat="43.5396406" lon="10.8255747"><ele>160.0</ele><time>2026-04-04T14:23:32.963Z</time></trkpt><trkpt lat="43.5396709" lon="10.8257773"><ele>159.5</ele><time>2026-04-04T14:23:33.957Z</time></trkpt><trkpt lat="43.5397001" lon="10.8259737"><ele>159.0</ele><time>2026-04-04T14:23:34.962Z</time></trkpt><trkpt lat="43.5397285" lon="10.8261635"><ele>158.25</ele><time>2026-04-04T14:23:35.978Z</time></trkpt><trkpt lat="43.5397585" lon="10.8263531"><ele>157.5</ele><time>2026-04-04T14:23:36.973Z</time></trkpt><trkpt lat="43.539787" lon="10.8265458"><ele>156.75</ele><time>2026-04-04T14:23:37.978Z</time></trkpt><trkpt lat="43.5398134" lon="10.8267389"><ele>156.0</ele><time>2026-04-04T14:23:38.957Z</time></trkpt><trkpt lat="43.539841" lon="10.826928"><ele>154.75</ele><time>2026-04-04T14:23:39.974Z</time></trkpt><trkpt lat="43.539865" lon="10.8271081"><ele>153.5</ele><time>2026-04-04T14:23:40.963Z</time></trkpt><trkpt lat="43.5398877" lon="10.8272777"><ele>152.25</ele><time>2026-04-04T14:23:41.974Z</time></trkpt><trkpt lat="43.5399102" lon="10.8274404"><ele>151.0</ele><time>2026-04-04T14:23:42.952Z</time></trkpt><trkpt lat="43.5399296" lon="10.8275859"><ele>151.0</ele><time>2026-04-04T14:23:43.953Z</time></trkpt><trkpt lat="43.5399459" lon="10.8277093"><ele>151.0</ele><time>2026-04-04T14:23:44.969Z</time></trkpt><trkpt lat="43.5399599" lon="10.8278121"><ele>151.0</ele><time>2026-04-04T14:23:45.969Z</time></trkpt><trkpt lat="43.5399875" lon="10.8279614"><ele>151.0</ele><time>2026-04-04T14:23:47.96Z</time></trkpt><trkpt lat="43.5400462" lon="10.8280309"><ele>151.0</ele><time>2026-04-04T14:23:49.951Z</time></trkpt><trkpt lat="43.5401384" lon="10.8279731"><ele>151.0</ele><time>2026-04-04T14:23:51.987Z</time></trkpt><trkpt lat="43.5401819" lon="10.8278969"><ele>151.0</ele><time>2026-04-04T14:23:52.965Z</time></trkpt><trkpt lat="43.5402363" lon="10.8277911"><ele>151.0</ele><time>2026-04-04T14:23:53.966Z</time></trkpt><trkpt lat="43.5402988" lon="10.8276693"><ele>151.0</ele><time>2026-04-04T14:23:54.97Z</time></trkpt><trkpt lat="43.5403658" lon="10.8275401"><ele>151.0</ele><time>2026-04-04T14:23:55.962Z</time></trkpt><trkpt lat="43.5404338" lon="10.8274017"><ele>149.0</ele><time>2026-04-04T14:23:56.974Z</time></trkpt><trkpt lat="43.5404963" lon="10.8272522"><ele>147.0</ele><time>2026-04-04T14:23:57.952Z</time></trkpt><trkpt lat="43.5405508" lon="10.8270917"><ele>145.0</ele><time>2026-04-04T14:23:58.958Z</time></trkpt><trkpt lat="43.5406013" lon="10.8269212"><ele>143.0</ele><time>2026-04-04T14:23:59.963Z</time></trkpt><trkpt lat="43.5406501" lon="10.8267416"><ele>143.0</ele><time>2026-04-04T14:24:00.952Z</time></trkpt><trkpt lat="43.5407006" lon="10.8265546"><ele>143.0</ele><time>2026-04-04T14:24:01.948Z</time></trkpt><trkpt lat="43.5407522" lon="10.8263632"><ele>143.0</ele><time>2026-04-04T14:24:02.972Z</time></trkpt><trkpt lat="43.5408032" lon="10.8261696"><ele>143.0</ele><time>2026-04-04T14:24:03.964Z</time></trkpt><trkpt lat="43.5408505" lon="10.8259814"><ele>142.5</ele><time>2026-04-04T14:24:04.977Z</time></trkpt><trkpt lat="43.5408941" lon="10.8258011"><ele>142.0</ele><time>2026-04-04T14:24:05.976Z</time></trkpt><trkpt lat="43.5409382" lon="10.825625"><ele>141.5</ele><time>2026-04-04T14:24:06.975Z</time></trkpt><trkpt lat="43.5409842" lon="10.825452"><ele>141.0</ele><time>2026-04-04T14:24:07.985Z</time></trkpt><trkpt lat="43.5410324" lon="10.8252809"><ele>141.0</ele><time>2026-04-04T14:24:08.973Z</time></trkpt><trkpt lat="43.5410805" lon="10.8251081"><ele>141.0</ele><time>2026-04-04T14:24:09.98Z</time></trkpt><trkpt lat="43.5411295" lon="10.8249323"><ele>141.0</ele><time>2026-04-04T14:24:10.962Z</time></trkpt><trkpt lat="43.5411829" lon="10.8247513"><ele>141.0</ele><time>2026-04-04T14:24:11.967Z</time></trkpt><trkpt lat="43.5412375" lon="10.8245725"><ele>137.0</ele><time>2026-04-04T14:24:12.978Z</time></trkpt><trkpt lat="43.5412962" lon="10.8243908"><ele>133.0</ele><time>2026-04-04T14:24:13.981Z</time></trkpt><trkpt lat="43.5413564" lon="10.8242057"><ele>129.0</ele><time>2026-04-04T14:24:14.961Z</time></trkpt><trkpt lat="43.5414175" lon="10.8240193"><ele>125.0</ele><time>2026-04-04T14:24:15.979Z</time></trkpt><trkpt lat="43.5414784" lon="10.8238333"><ele>125.0</ele><time>2026-04-04T14:24:16.957Z</time></trkpt><trkpt lat="43.5415369" lon="10.8236458"><ele>125.0</ele><time>2026-04-04T14:24:17.974Z</time></trkpt><trkpt lat="43.5415918" lon="10.8234658"><ele>125.0</ele><time>2026-04-04T14:24:18.978Z</time></trkpt><trkpt lat="43.5416427" lon="10.8232931"><ele>125.0</ele><time>2026-04-04T14:24:19.956Z</time></trkpt><trkpt lat="43.5416872" lon="10.8231326"><ele>125.0</ele><time>2026-04-04T14:24:20.959Z</time></trkpt><trkpt lat="43.5417266" lon="10.822986"><ele>125.0</ele><time>2026-04-04T14:24:21.977Z</time></trkpt><trkpt lat="43.5417559" lon="10.8228438"><ele>125.0</ele><time>2026-04-04T14:24:22.978Z</time></trkpt><trkpt lat="43.541774" lon="10.8226989"><ele>125.0</ele><time>2026-04-04T14:24:23.968Z</time></trkpt><trkpt lat="43.5417825" lon="10.8225469"><ele>125.0</ele><time>2026-04-04T14:24:24.977Z</time></trkpt><trkpt lat="43.5417873" lon="10.822391"><ele>124.4</ele><time>2026-04-04T14:24:25.976Z</time></trkpt><trkpt lat="43.541791" lon="10.822234"><ele>123.8</ele><time>2026-04-04T14:24:26.951Z</time></trkpt><trkpt lat="43.5417982" lon="10.8220834"><ele>123.19999999999999</ele><time>2026-04-04T14:24:27.971Z</time></trkpt><trkpt lat="43.5418151" lon="10.8219401"><ele>122.6</ele><time>2026-04-04T14:24:28.952Z</time></trkpt><trkpt lat="43.5418458" lon="10.8218035"><ele>122.0</ele><time>2026-04-04T14:24:29.963Z</time></trkpt><trkpt lat="43.5418912" lon="10.8216695"><ele>121.5</ele><time>2026-04-04T14:24:30.958Z</time></trkpt><trkpt lat="43.5419503" lon="10.8215396"><ele>121.0</ele><time>2026-04-04T14:24:31.978Z</time></trkpt><trkpt lat="43.5420204" lon="10.8214128"><ele>120.5</ele><time>2026-04-04T14:24:32.963Z</time></trkpt><trkpt lat="43.5420937" lon="10.8212864"><ele>120.0</ele><time>2026-04-04T14:24:33.976Z</time></trkpt><trkpt lat="43.5421619" lon="10.8211579"><ele>116.0</ele><time>2026-04-04T14:24:34.964Z</time></trkpt><trkpt lat="43.5422197" lon="10.8210273"><ele>112.0</ele><time>2026-04-04T14:24:35.965Z</time></trkpt><trkpt lat="43.5422696" lon="10.8208867"><ele>108.0</ele><time>2026-04-04T14:24:36.96Z</time></trkpt><trkpt lat="43.5423147" lon="10.8207334"><ele>104.0</ele><time>2026-04-04T14:24:37.975Z</time></trkpt><trkpt lat="43.5423583" lon="10.8205682"><ele>104.0</ele><time>2026-04-04T14:24:38.961Z</time></trkpt><trkpt lat="43.5424011" lon="10.8203958"><ele>104.0</ele><time>2026-04-04T14:24:39.978Z</time></trkpt><trkpt lat="43.5424416" lon="10.8202237"><ele>104.0</ele><time>2026-04-04T14:24:40.965Z</time></trkpt><trkpt lat="43.5424784" lon="10.820054"><ele>104.0</ele><time>2026-04-04T14:24:41.971Z</time></trkpt><trkpt lat="43.54251" lon="10.8198867"><ele>103.25</ele><time>2026-04-04T14:24:42.962Z</time></trkpt><trkpt lat="43.5425341" lon="10.8197147"><ele>102.5</ele><time>2026-04-04T14:24:43.967Z</time></trkpt><trkpt lat="43.5425522" lon="10.8195357"><ele>101.75</ele><time>2026-04-04T14:24:44.969Z</time></trkpt><trkpt lat="43.5425679" lon="10.8193508"><ele>101.0</ele><time>2026-04-04T14:24:45.977Z</time></trkpt><trkpt lat="43.5425823" lon="10.8191596"><ele>100.0</ele><time>2026-04-04T14:24:46.962Z</time></trkpt><trkpt lat="43.542596" lon="10.8189641"><ele>99.0</ele><time>2026-04-04T14:24:47.964Z</time></trkpt><trkpt lat="43.5426083" lon="10.8187699"><ele>98.0</ele><time>2026-04-04T14:24:48.976Z</time></trkpt><trkpt lat="43.5426186" lon="10.8185821"><ele>97.0</ele><time>2026-04-04T14:24:49.969Z</time></trkpt><trkpt lat="43.5426285" lon="10.8184005"><ele>95.75</ele><time>2026-04-04T14:24:50.981Z</time></trkpt><trkpt lat="43.5426371" lon="10.8182272"><ele>94.5</ele><time>2026-04-04T14:24:51.972Z</time></trkpt><trkpt lat="43.5426453" lon="10.8180634"><ele>93.25</ele><time>2026-04-04T14:24:52.976Z</time></trkpt><trkpt lat="43.5426544" lon="10.8179131"><ele>92.0</ele><time>2026-04-04T14:24:53.973Z</time></trkpt><trkpt lat="43.5426687" lon="10.8177784"><ele>92.0</ele><time>2026-04-04T14:24:54.975Z</time></trkpt><trkpt lat="43.5426908" lon="10.8176557"><ele>92.0</ele><time>2026-04-04T14:24:55.968Z</time></trkpt><trkpt lat="43.5427246" lon="10.8175437"><ele>92.0</ele><time>2026-04-04T14:24:56.966Z</time></trkpt><trkpt lat="43.5427709" lon="10.817435"><ele>92.0</ele><time>2026-04-04T14:24:57.95Z</time></trkpt><trkpt lat="43.5428325" lon="10.8173335"><ele>92.0</ele><time>2026-04-04T14:24:58.961Z</time></trkpt><trkpt lat="43.5429134" lon="10.8172436"><ele>89.0</ele><time>2026-04-04T14:24:59.963Z</time></trkpt><trkpt lat="43.5430125" lon="10.8171701"><ele>86.0</ele><time>2026-04-04T14:25:00.957Z</time></trkpt><trkpt lat="43.5431329" lon="10.8171069"><ele>83.0</ele><time>2026-04-04T14:25:01.971Z</time></trkpt><trkpt lat="43.5432668" lon="10.817045"><ele>80.0</ele><time>2026-04-04T14:25:02.976Z</time></trkpt><trkpt lat="43.5434015" lon="10.816986"><ele>80.0</ele><time>2026-04-04T14:25:03.971Z</time></trkpt><trkpt lat="43.5435348" lon="10.8169284"><ele>80.0</ele><time>2026-04-04T14:25:04.977Z</time></trkpt><trkpt lat="43.5436597" lon="10.8168708"><ele>80.0</ele><time>2026-04-04T14:25:05.973Z</time></trkpt><trkpt lat="43.5437761" lon="10.8168209"><ele>80.0</ele><time>2026-04-04T14:25:06.962Z</time></trkpt><trkpt lat="43.5438854" lon="10.8167789"><ele>80.6</ele><time>2026-04-04T14:25:07.967Z</time></trkpt><trkpt lat="43.5439882" lon="10.816756"><ele>81.2</ele><time>2026-04-04T14:25:08.976Z</time></trkpt><trkpt lat="43.5440845" lon="10.8167578"><ele>81.80000000000001</ele><time>2026-04-04T14:25:09.956Z</time></trkpt><trkpt lat="43.5441748" lon="10.8167892"><ele>82.4</ele><time>2026-04-04T14:25:10.97Z</time></trkpt><trkpt lat="43.5442529" lon="10.8168541"><ele>83.0</ele><time>2026-04-04T14:25:11.973Z</time></trkpt><trkpt lat="43.5443214" lon="10.816954"><ele>83.0</ele><time>2026-04-04T14:25:12.975Z</time></trkpt><trkpt lat="43.5443766" lon="10.8170818"><ele>83.0</ele><time>2026-04-04T14:25:13.977Z</time></trkpt><trkpt lat="43.5444145" lon="10.8172319"><ele>83.0</ele><time>2026-04-04T14:25:14.966Z</time></trkpt><trkpt lat="43.544443" lon="10.8174082"><ele>83.0</ele><time>2026-04-04T14:25:15.959Z</time></trkpt><trkpt lat="43.5444688" lon="10.8176114"><ele>83.0</ele><time>2026-04-04T14:25:16.969Z</time></trkpt><trkpt lat="43.544494" lon="10.817826"><ele>83.0</ele><time>2026-04-04T14:25:17.967Z</time></trkpt><trkpt lat="43.5445178" lon="10.8180462"><ele>83.0</ele><time>2026-04-04T14:25:18.975Z</time></trkpt><trkpt lat="43.5445429" lon="10.8182769"><ele>88.66666666666667</ele><time>2026-04-04T14:25:19.967Z</time></trkpt><trkpt lat="43.5445707" lon="10.8185184"><ele>94.33333333333334</ele><time>2026-04-04T14:25:20.97Z</time></trkpt><trkpt lat="43.5445994" lon="10.81875"><ele>100.0</ele><time>2026-04-04T14:25:21.977Z</time></trkpt><trkpt lat="43.5446268" lon="10.8189625"><ele>100.0</ele><time>2026-04-04T14:25:22.979Z</time></trkpt><trkpt lat="43.5446548" lon="10.8191602"><ele>100.0</ele><time>2026-04-04T14:25:23.955Z</time></trkpt><trkpt lat="43.5446857" lon="10.8193421"><ele>100.0</ele><time>2026-04-04T14:25:24.976Z</time></trkpt><trkpt lat="43.5447249" lon="10.819509"><ele>100.0</ele><time>2026-04-04T14:25:25.974Z</time></trkpt><trkpt lat="43.5447752" lon="10.8196565"><ele>99.25</ele><time>2026-04-04T14:25:26.958Z</time></trkpt><trkpt lat="43.5448397" lon="10.8197939"><ele>98.5</ele><time>2026-04-04T14:25:27.97Z</time></trkpt><trkpt lat="43.5449192" lon="10.8199198"><ele>97.75</ele><time>2026-04-04T14:25:28.974Z</time></trkpt><trkpt lat="43.5450172" lon="10.820041"><ele>97.0</ele><time>2026-04-04T14:25:29.956Z</time></trkpt><trkpt lat="43.5451251" lon="10.8201597"><ele>96.5</ele><time>2026-04-04T14:25:30.983Z</time></trkpt><trkpt lat="43.5452247" lon="10.8202778"><ele>96.0</ele><time>2026-04-04T14:25:31.961Z</time></trkpt><trkpt lat="43.5453068" lon="10.8204067"><ele>95.5</ele><time>2026-04-04T14:25:32.962Z</time></trkpt><trkpt lat="43.5453706" lon="10.8205508"><ele>95.0</ele><time>2026-04-04T14:25:33.948Z</time></trkpt><trkpt lat="43.5454187" lon="10.8207107"><ele>99.66666666666667</ele><time>2026-04-04T14:25:34.964Z</time></trkpt><trkpt lat="43.5454569" lon="10.8208949"><ele>104.33333333333334</ele><time>2026-04-04T14:25:35.972Z</time></trkpt><trkpt lat="43.5454967" lon="10.8210989"><ele>109.0</ele><time>2026-04-04T14:25:36.949Z</time></trkpt><trkpt lat="43.5455352" lon="10.8213182"><ele>109.33333333333334</ele><time>2026-04-04T14:25:37.98Z</time></trkpt><trkpt lat="43.5455722" lon="10.8215349"><ele>109.66666666666666</ele><time>2026-04-04T14:25:38.961Z</time></trkpt><trkpt lat="43.5456096" lon="10.8217383"><ele>110.0</ele><time>2026-04-04T14:25:39.974Z</time></trkpt><trkpt lat="43.5456519" lon="10.8219218"><ele>110.0</ele><time>2026-04-04T14:25:40.967Z</time></trkpt><trkpt lat="43.5457046" lon="10.8220989"><ele>110.0</ele><time>2026-04-04T14:25:41.963Z</time></trkpt><trkpt lat="43.5457659" lon="10.8222667"><ele>110.0</ele><time>2026-04-04T14:25:42.978Z</time></trkpt><trkpt lat="43.5458324" lon="10.8224241"><ele>110.0</ele><time>2026-04-04T14:25:43.962Z</time></trkpt><trkpt lat="43.5458937" lon="10.8225632"><ele>109.49999999999999</ele><time>2026-04-04T14:25:44.964Z</time></trkpt><trkpt lat="43.545951" lon="10.8226804"><ele>109.0</ele><time>2026-04-04T14:25:45.969Z</time></trkpt><trkpt lat="43.546007" lon="10.8227748"><ele>108.5</ele><time>2026-04-04T14:25:46.972Z</time></trkpt><trkpt lat="43.5460651" lon="10.8228482"><ele>108.0</ele><time>2026-04-04T14:25:47.971Z</time></trkpt><trkpt lat="43.5461284" lon="10.8228909"><ele>107.49999999999999</ele><time>2026-04-04T14:25:48.963Z</time></trkpt><trkpt lat="43.5461979" lon="10.8229005"><ele>107.0</ele><time>2026-04-04T14:25:49.975Z</time></trkpt><trkpt lat="43.546267" lon="10.8228725"><ele>110.0</ele><time>2026-04-04T14:25:50.962Z</time></trkpt><trkpt lat="43.5463264" lon="10.8228092"><ele>112.99999999999999</ele><time>2026-04-04T14:25:51.961Z</time></trkpt><trkpt lat="43.5463719" lon="10.822717"><ele>115.99999999999999</ele><time>2026-04-04T14:25:52.964Z</time></trkpt><trkpt lat="43.5464073" lon="10.822601"><ele>119.0</ele><time>2026-04-04T14:25:53.957Z</time></trkpt><trkpt lat="43.5464392" lon="10.8224623"><ele>122.0</ele><time>2026-04-04T14:25:54.958Z</time></trkpt><trkpt lat="43.5464723" lon="10.8223055"><ele>122.5</ele><time>2026-04-04T14:25:55.962Z</time></trkpt><trkpt lat="43.5465068" lon="10.8221312"><ele>123.0</ele><time>2026-04-04T14:25:56.973Z</time></trkpt><trkpt lat="43.5465451" lon="10.8219377"><ele>123.5</ele><time>2026-04-04T14:25:57.955Z</time></trkpt><trkpt lat="43.5465887" lon="10.8217213"><ele>124.0</ele><time>2026-04-04T14:25:58.957Z</time></trkpt><trkpt lat="43.5466382" lon="10.8214853"><ele>125.0</ele><time>2026-04-04T14:25:59.955Z</time></trkpt><trkpt lat="43.5466908" lon="10.8212403"><ele>126.0</ele><time>2026-04-04T14:26:00.958Z</time></trkpt><trkpt lat="43.5467405" lon="10.8210201"><ele>127.0</ele><time>2026-04-04T14:26:01.97Z</time></trkpt><trkpt lat="43.5467854" lon="10.8208305"><ele>127.33333333333334</ele><time>2026-04-04T14:26:02.977Z</time></trkpt><trkpt lat="43.5468224" lon="10.8206757"><ele>127.66666666666667</ele><time>2026-04-04T14:26:03.974Z</time></trkpt><trkpt lat="43.5468571" lon="10.8205569"><ele>128.0</ele><time>2026-04-04T14:26:04.984Z</time></trkpt><trkpt lat="43.5468993" lon="10.820467"><ele>128.33333333333334</ele><time>2026-04-04T14:26:05.978Z</time></trkpt><trkpt lat="43.5469389" lon="10.8203872"><ele>128.66666666666666</ele><time>2026-04-04T14:26:06.964Z</time></trkpt><trkpt lat="43.5470017" lon="10.8203545"><ele>129.0</ele><time>2026-04-04T14:26:07.96Z</time></trkpt><trkpt lat="43.5470692" lon="10.8203517"><ele>132.0</ele><time>2026-04-04T14:26:08.974Z</time></trkpt><trkpt lat="43.5471398" lon="10.8203829"><ele>135.0</ele><time>2026-04-04T14:26:09.967Z</time></trkpt><trkpt lat="43.5472068" lon="10.8204422"><ele>138.0</ele><time>2026-04-04T14:26:10.964Z</time></trkpt><trkpt lat="43.5472696" lon="10.8205289"><ele>141.0</ele><time>2026-04-04T14:26:11.954Z</time></trkpt><trkpt lat="43.5473408" lon="10.8206421"><ele>144.0</ele><time>2026-04-04T14:26:12.971Z</time></trkpt><trkpt lat="43.5474234" lon="10.8207785"><ele>144.0</ele><time>2026-04-04T14:26:13.955Z</time></trkpt><trkpt lat="43.5475172" lon="10.8209228"><ele>144.0</ele><time>2026-04-04T14:26:14.963Z</time></trkpt><trkpt lat="43.5476144" lon="10.8210574"><ele>144.0</ele><time>2026-04-04T14:26:15.966Z</time></trkpt><trkpt lat="43.5477034" lon="10.8211826"><ele>144.0</ele><time>2026-04-04T14:26:16.963Z</time></trkpt><trkpt lat="43.5477925" lon="10.8213049"><ele>144.75</ele><time>2026-04-04T14:26:17.975Z</time></trkpt><trkpt lat="43.5478826" lon="10.8214262"><ele>145.5</ele><time>2026-04-04T14:26:18.952Z</time></trkpt><trkpt lat="43.5479754" lon="10.8215549"><ele>146.25</ele><time>2026-04-04T14:26:19.975Z</time></trkpt><trkpt lat="43.5480715" lon="10.8216928"><ele>147.0</ele><time>2026-04-04T14:26:20.967Z</time></trkpt><trkpt lat="43.5481673" lon="10.821828"><ele>148.75</ele><time>2026-04-04T14:26:21.959Z</time></trkpt><trkpt lat="43.5482608" lon="10.8219509"><ele>150.5</ele><time>2026-04-04T14:26:22.961Z</time></trkpt><trkpt lat="43.5483499" lon="10.8220606"><ele>152.25</ele><time>2026-04-04T14:26:23.974Z</time></trkpt><trkpt lat="43.5484396" lon="10.8221575"><ele>154.0</ele><time>2026-04-04T14:26:24.974Z</time></trkpt><trkpt lat="43.5485352" lon="10.8222427"><ele>154.0</ele><time>2026-04-04T14:26:25.981Z</time></trkpt><trkpt lat="43.5486391" lon="10.8223143"><ele>154.0</ele><time>2026-04-04T14:26:26.965Z</time></trkpt><trkpt lat="43.5487516" lon="10.8223754"><ele>154.0</ele><time>2026-04-04T14:26:27.97Z</time></trkpt><trkpt lat="43.548876" lon="10.8224249"><ele>154.0</ele><time>2026-04-04T14:26:28.973Z</time></trkpt><trkpt lat="43.5490163" lon="10.822466"><ele>151.0</ele><time>2026-04-04T14:26:29.977Z</time></trkpt><trkpt lat="43.5491732" lon="10.8225047"><ele>148.0</ele><time>2026-04-04T14:26:30.974Z</time></trkpt><trkpt lat="43.5493382" lon="10.8225449"><ele>145.0</ele><time>2026-04-04T14:26:31.974Z</time></trkpt><trkpt lat="43.549517" lon="10.8225865"><ele>143.33333333333334</ele><time>2026-04-04T14:26:32.97Z</time></trkpt><trkpt lat="43.5497029" lon="10.8226308"><ele>141.66666666666666</ele><time>2026-04-04T14:26:33.965Z</time></trkpt><trkpt lat="43.5498902" lon="10.8226787"><ele>140.0</ele><time>2026-04-04T14:26:34.979Z</time></trkpt><trkpt lat="43.5500789" lon="10.8227267"><ele>142.33333333333331</ele><time>2026-04-04T14:26:35.972Z</time></trkpt><trkpt lat="43.5502645" lon="10.8227749"><ele>144.66666666666666</ele><time>2026-04-04T14:26:36.98Z</time></trkpt><trkpt lat="43.5504376" lon="10.8228258"><ele>147.0</ele><time>2026-04-04T14:26:37.971Z</time></trkpt><trkpt lat="43.5505936" lon="10.8228756"><ele>147.0</ele><time>2026-04-04T14:26:38.961Z</time></trkpt><trkpt lat="43.5507288" lon="10.822917"><ele>147.0</ele><time>2026-04-04T14:26:39.971Z</time></trkpt><trkpt lat="43.5508488" lon="10.822941"><ele>147.0</ele><time>2026-04-04T14:26:40.961Z</time></trkpt><trkpt lat="43.5509646" lon="10.822951"><ele>147.0</ele><time>2026-04-04T14:26:41.984Z</time></trkpt><trkpt lat="43.5510777" lon="10.8229533"><ele>147.0</ele><time>2026-04-04T14:26:42.97Z</time></trkpt><trkpt lat="43.551185" lon="10.8229494"><ele>147.0</ele><time>2026-04-04T14:26:43.968Z</time></trkpt><trkpt lat="43.5512823" lon="10.8229364"><ele>147.0</ele><time>2026-04-04T14:26:44.951Z</time></trkpt><trkpt lat="43.5513761" lon="10.8229162"><ele>147.0</ele><time>2026-04-04T14:26:45.959Z</time></trkpt><trkpt lat="43.5514625" lon="10.8228524"><ele>147.0</ele><time>2026-04-04T14:26:46.981Z</time></trkpt><trkpt lat="43.5515537" lon="10.8227514"><ele>143.66666666666666</ele><time>2026-04-04T14:26:47.978Z</time></trkpt><trkpt lat="43.5516501" lon="10.8226124"><ele>140.33333333333331</ele><time>2026-04-04T14:26:48.976Z</time></trkpt><trkpt lat="43.5517521" lon="10.8224376"><ele>137.0</ele><time>2026-04-04T14:26:49.966Z</time></trkpt><trkpt lat="43.5518632" lon="10.8222366"><ele>137.0</ele><time>2026-04-04T14:26:50.964Z</time></trkpt><trkpt lat="43.5519814" lon="10.8220219"><ele>137.0</ele><time>2026-04-04T14:26:51.956Z</time></trkpt><trkpt lat="43.5520992" lon="10.8218082"><ele>137.0</ele><time>2026-04-04T14:26:52.955Z</time></trkpt><trkpt lat="43.5522128" lon="10.8215974"><ele>135.0</ele><time>2026-04-04T14:26:53.973Z</time></trkpt><trkpt lat="43.5523264" lon="10.8213866"><ele>133.0</ele><time>2026-04-04T14:26:54.966Z</time></trkpt><trkpt lat="43.5524403" lon="10.8211841"><ele>131.0</ele><time>2026-04-04T14:26:55.966Z</time></trkpt><trkpt lat="43.5525483" lon="10.8209825"><ele>129.33333333333331</ele><time>2026-04-04T14:26:56.977Z</time></trkpt><trkpt lat="43.552657" lon="10.8207839"><ele>127.66666666666666</ele><time>2026-04-04T14:26:57.962Z</time></trkpt><trkpt lat="43.5527639" lon="10.8205895"><ele>126.0</ele><time>2026-04-04T14:26:58.974Z</time></trkpt><trkpt lat="43.5528692" lon="10.8203979"><ele>126.66666666666666</ele><time>2026-04-04T14:26:59.973Z</time></trkpt><trkpt lat="43.5529743" lon="10.8202095"><ele>127.33333333333333</ele><time>2026-04-04T14:27:00.959Z</time></trkpt><trkpt lat="43.553079" lon="10.8200244"><ele>128.0</ele><time>2026-04-04T14:27:01.971Z</time></trkpt><trkpt lat="43.5531829" lon="10.8198373"><ele>126.0</ele><time>2026-04-04T14:27:02.958Z</time></trkpt><trkpt lat="43.5532844" lon="10.8196504"><ele>124.0</ele><time>2026-04-04T14:27:03.975Z</time></trkpt><trkpt lat="43.5533856" lon="10.8194647"><ele>122.0</ele><time>2026-04-04T14:27:04.968Z</time></trkpt><trkpt lat="43.5534855" lon="10.8192802"><ele>120.0</ele><time>2026-04-04T14:27:05.971Z</time></trkpt><trkpt lat="43.5535855" lon="10.8190973"><ele>118.0</ele><time>2026-04-04T14:27:06.963Z</time></trkpt><trkpt lat="43.5536858" lon="10.8189172"><ele>116.0</ele><time>2026-04-04T14:27:07.97Z</time></trkpt><trkpt lat="43.5537874" lon="10.8187377"><ele>115.0</ele><time>2026-04-04T14:27:08.961Z</time></trkpt><trkpt lat="43.5538887" lon="10.8185555"><ele>114.0</ele><time>2026-04-04T14:27:09.974Z</time></trkpt><trkpt lat="43.5539902" lon="10.818371"><ele>113.0</ele><time>2026-04-04T14:27:10.954Z</time></trkpt><trkpt lat="43.5540912" lon="10.8181833"><ele>111.66666666666666</ele><time>2026-04-04T14:27:11.955Z</time></trkpt><trkpt lat="43.5541928" lon="10.8179961"><ele>110.33333333333334</ele><time>2026-04-04T14:27:12.956Z</time></trkpt><trkpt lat="43.5542947" lon="10.8178122"><ele>109.0</ele><time>2026-04-04T14:27:13.958Z</time></trkpt><trkpt lat="43.5543958" lon="10.8176326"><ele>107.0</ele><time>2026-04-04T14:27:14.959Z</time></trkpt><trkpt lat="43.5544931" lon="10.8174579"><ele>105.0</ele><time>2026-04-04T14:27:15.977Z</time></trkpt><trkpt lat="43.5545877" lon="10.817286"><ele>103.0</ele><time>2026-04-04T14:27:16.972Z</time></trkpt><trkpt lat="43.5546814" lon="10.817114"><ele>102.33333333333334</ele><time>2026-04-04T14:27:17.976Z</time></trkpt><trkpt lat="43.5547765" lon="10.8169432"><ele>101.66666666666666</ele><time>2026-04-04T14:27:18.959Z</time></trkpt><trkpt lat="43.5548708" lon="10.8167734"><ele>101.0</ele><time>2026-04-04T14:27:19.969Z</time></trkpt><trkpt lat="43.554961" lon="10.8166114"><ele>100.0</ele><time>2026-04-04T14:27:20.97Z</time></trkpt><trkpt lat="43.5550457" lon="10.81646"><ele>99.0</ele><time>2026-04-04T14:27:21.965Z</time></trkpt><trkpt lat="43.5551268" lon="10.8163153"><ele>98.0</ele><time>2026-04-04T14:27:22.97Z</time></trkpt><trkpt lat="43.555203" lon="10.8161788"><ele>97.0</ele><time>2026-04-04T14:27:23.98Z</time></trkpt><trkpt lat="43.5552762" lon="10.8160504"><ele>95.5</ele><time>2026-04-04T14:27:24.972Z</time></trkpt><trkpt lat="43.55535" lon="10.8159303"><ele>94.0</ele><time>2026-04-04T14:27:25.976Z</time></trkpt><trkpt lat="43.5554273" lon="10.8158215"><ele>92.5</ele><time>2026-04-04T14:27:26.96Z</time></trkpt><trkpt lat="43.555515" lon="10.815725"><ele>91.0</ele><time>2026-04-04T14:27:27.969Z</time></trkpt><trkpt lat="43.5556188" lon="10.8156445"><ele>90.5</ele><time>2026-04-04T14:27:28.953Z</time></trkpt><trkpt lat="43.5557387" lon="10.8155747"><ele>90.0</ele><time>2026-04-04T14:27:29.968Z</time></trkpt><trkpt lat="43.555875" lon="10.8155121"><ele>89.5</ele><time>2026-04-04T14:27:30.965Z</time></trkpt><trkpt lat="43.5560188" lon="10.8154598"><ele>89.0</ele><time>2026-04-04T14:27:31.98Z</time></trkpt><trkpt lat="43.5561769" lon="10.8154076"><ele>87.0</ele><time>2026-04-04T14:27:32.959Z</time></trkpt><trkpt lat="43.5563293" lon="10.8153533"><ele>85.0</ele><time>2026-04-04T14:27:33.971Z</time></trkpt><trkpt lat="43.5564714" lon="10.8153024"><ele>83.0</ele><time>2026-04-04T14:27:34.969Z</time></trkpt><trkpt lat="43.5566123" lon="10.8152548"><ele>81.0</ele><time>2026-04-04T14:27:35.959Z</time></trkpt><trkpt lat="43.556744" lon="10.8152163"><ele>81.0</ele><time>2026-04-04T14:27:36.976Z</time></trkpt><trkpt lat="43.5568735" lon="10.8151838"><ele>81.0</ele><time>2026-04-04T14:27:37.954Z</time></trkpt><trkpt lat="43.5570093" lon="10.8151721"><ele>81.0</ele><time>2026-04-04T14:27:38.961Z</time></trkpt><trkpt lat="43.5571508" lon="10.8151794"><ele>81.0</ele><time>2026-04-04T14:27:39.975Z</time></trkpt><trkpt lat="43.5573057" lon="10.8152073"><ele>79.66666666666667</ele><time>2026-04-04T14:27:40.971Z</time></trkpt><trkpt lat="43.5574707" lon="10.8152499"><ele>78.33333333333334</ele><time>2026-04-04T14:27:41.956Z</time></trkpt><trkpt lat="43.5576484" lon="10.815296"><ele>77.0</ele><time>2026-04-04T14:27:42.972Z</time></trkpt><trkpt lat="43.557839" lon="10.8153442"><ele>78.0</ele><time>2026-04-04T14:27:43.964Z</time></trkpt><trkpt lat="43.5580303" lon="10.8153903"><ele>79.0</ele><time>2026-04-04T14:27:44.968Z</time></trkpt><trkpt lat="43.5582241" lon="10.8154331"><ele>80.0</ele><time>2026-04-04T14:27:45.968Z</time></trkpt><trkpt lat="43.5584155" lon="10.8154771"><ele>80.0</ele><time>2026-04-04T14:27:46.958Z</time></trkpt><trkpt lat="43.558602" lon="10.815521"><ele>80.0</ele><time>2026-04-04T14:27:47.973Z</time></trkpt><trkpt lat="43.5587839" lon="10.815564"><ele>80.0</ele><time>2026-04-04T14:27:48.982Z</time></trkpt><trkpt lat="43.5589588" lon="10.8156044"><ele>80.33333333333334</ele><time>2026-04-04T14:27:49.963Z</time></trkpt><trkpt lat="43.5591234" lon="10.8156414"><ele>80.66666666666667</ele><time>2026-04-04T14:27:50.977Z</time></trkpt><trkpt lat="43.5592741" lon="10.8156773"><ele>81.0</ele><time>2026-04-04T14:27:51.969Z</time></trkpt><trkpt lat="43.5594102" lon="10.8157189"><ele>80.0</ele><time>2026-04-04T14:27:52.957Z</time></trkpt><trkpt lat="43.5595373" lon="10.815774"><ele>79.0</ele><time>2026-04-04T14:27:53.967Z</time></trkpt><trkpt lat="43.5596607" lon="10.8158482"><ele>78.0</ele><time>2026-04-04T14:27:54.965Z</time></trkpt><trkpt lat="43.5597853" lon="10.8159435"><ele>77.0</ele><time>2026-04-04T14:27:55.956Z</time></trkpt><trkpt lat="43.5599168" lon="10.8160532"><ele>80.66666666666667</ele><time>2026-04-04T14:27:56.96Z</time></trkpt><trkpt lat="43.5600606" lon="10.8161875"><ele>84.33333333333333</ele><time>2026-04-04T14:27:57.985Z</time></trkpt><trkpt lat="43.5602" lon="10.8163286"><ele>88.0</ele><time>2026-04-04T14:27:58.963Z</time></trkpt><trkpt lat="43.5603358" lon="10.816465"><ele>87.0</ele><time>2026-04-04T14:27:59.963Z</time></trkpt><trkpt lat="43.5604685" lon="10.816593"><ele>86.0</ele><time>2026-04-04T14:28:00.961Z</time></trkpt><trkpt lat="43.5605963" lon="10.8167175"><ele>85.0</ele><time>2026-04-04T14:28:01.975Z</time></trkpt><trkpt lat="43.5607189" lon="10.8168458"><ele>85.0</ele><time>2026-04-04T14:28:02.973Z</time></trkpt><trkpt lat="43.5608301" lon="10.8169846"><ele>85.0</ele><time>2026-04-04T14:28:03.956Z</time></trkpt><trkpt lat="43.5609347" lon="10.8171348"><ele>85.0</ele><time>2026-04-04T14:28:04.958Z</time></trkpt><trkpt lat="43.561032" lon="10.8172935"><ele>85.0</ele><time>2026-04-04T14:28:05.974Z</time></trkpt><trkpt lat="43.5611268" lon="10.8174578"><ele>85.0</ele><time>2026-04-04T14:28:06.961Z</time></trkpt><trkpt lat="43.5612231" lon="10.8176276"><ele>85.0</ele><time>2026-04-04T14:28:07.952Z</time></trkpt><trkpt lat="43.5613211" lon="10.8178011"><ele>84.0</ele><time>2026-04-04T14:28:08.973Z</time></trkpt><trkpt lat="43.5614195" lon="10.8179761"><ele>83.0</ele><time>2026-04-04T14:28:09.981Z</time></trkpt><trkpt lat="43.5615192" lon="10.8181497"><ele>82.0</ele><time>2026-04-04T14:28:10.961Z</time></trkpt><trkpt lat="43.5616195" lon="10.8183208"><ele>83.5</ele><time>2026-04-04T14:28:11.969Z</time></trkpt><trkpt lat="43.5617166" lon="10.8184864"><ele>85.0</ele><time>2026-04-04T14:28:12.971Z</time></trkpt><trkpt lat="43.5618064" lon="10.8186422"><ele>86.5</ele><time>2026-04-04T14:28:13.958Z</time></trkpt><trkpt lat="43.5618856" lon="10.8187806"><ele>88.0</ele><time>2026-04-04T14:28:14.966Z</time></trkpt><trkpt lat="43.561958" lon="10.8189037"><ele>88.0</ele><time>2026-04-04T14:28:15.95Z</time></trkpt><trkpt lat="43.562028" lon="10.8190116"><ele>88.0</ele><time>2026-04-04T14:28:16.962Z</time></trkpt><trkpt lat="43.5621053" lon="10.8191014"><ele>88.0</ele><time>2026-04-04T14:28:17.964Z</time></trkpt><trkpt lat="43.5621946" lon="10.8191679"><ele>88.0</ele><time>2026-04-04T14:28:18.981Z</time></trkpt><trkpt lat="43.5622928" lon="10.8192039"><ele>88.0</ele><time>2026-04-04T14:28:19.972Z</time></trkpt><trkpt lat="43.5623961" lon="10.8192092"><ele>87.0</ele><time>2026-04-04T14:28:20.967Z</time></trkpt><trkpt lat="43.5625017" lon="10.8191816"><ele>86.0</ele><time>2026-04-04T14:28:21.968Z</time></trkpt><trkpt lat="43.5626147" lon="10.8191232"><ele>85.0</ele><time>2026-04-04T14:28:22.964Z</time></trkpt><trkpt lat="43.5627395" lon="10.8190388"><ele>84.0</ele><time>2026-04-04T14:28:23.955Z</time></trkpt><trkpt lat="43.5628738" lon="10.8189431"><ele>82.75</ele><time>2026-04-04T14:28:24.965Z</time></trkpt><trkpt lat="43.5630126" lon="10.8188463"><ele>81.5</ele><time>2026-04-04T14:28:25.957Z</time></trkpt><trkpt lat="43.5631462" lon="10.8187537"><ele>80.25</ele><time>2026-04-04T14:28:26.955Z</time></trkpt><trkpt lat="43.5632661" lon="10.8186735"><ele>79.0</ele><time>2026-04-04T14:28:27.971Z</time></trkpt><trkpt lat="43.5633758" lon="10.8186065"><ele>79.0</ele><time>2026-04-04T14:28:28.964Z</time></trkpt><trkpt lat="43.5634791" lon="10.8185581"><ele>79.0</ele><time>2026-04-04T14:28:29.963Z</time></trkpt><trkpt lat="43.5635773" lon="10.8185393"><ele>79.0</ele><time>2026-04-04T14:28:30.968Z</time></trkpt><trkpt lat="43.5636715" lon="10.818553"><ele>79.0</ele><time>2026-04-04T14:28:31.975Z</time></trkpt><trkpt lat="43.5637629" lon="10.8185959"><ele>79.0</ele><time>2026-04-04T14:28:32.975Z</time></trkpt><trkpt lat="43.5638449" lon="10.8186637"><ele>81.0</ele><time>2026-04-04T14:28:33.972Z</time></trkpt><trkpt lat="43.5639223" lon="10.8187611"><ele>83.0</ele><time>2026-04-04T14:28:34.958Z</time></trkpt><trkpt lat="43.5640036" lon="10.818885"><ele>85.0</ele><time>2026-04-04T14:28:35.966Z</time></trkpt><trkpt lat="43.5640707" lon="10.81906"><ele>87.0</ele><time>2026-04-04T14:28:36.973Z</time></trkpt><trkpt lat="43.564142" lon="10.8192519"><ele>86.33333333333333</ele><time>2026-04-04T14:28:37.963Z</time></trkpt><trkpt lat="43.5642275" lon="10.8194603"><ele>85.66666666666666</ele><time>2026-04-04T14:28:38.952Z</time></trkpt><trkpt lat="43.5643211" lon="10.8196877"><ele>85.0</ele><time>2026-04-04T14:28:39.975Z</time></trkpt><trkpt lat="43.5644485" lon="10.8199061"><ele>89.66666666666666</ele><time>2026-04-04T14:28:40.976Z</time></trkpt><trkpt lat="43.5646028" lon="10.8201078"><ele>94.33333333333333</ele><time>2026-04-04T14:28:41.972Z</time></trkpt><trkpt lat="43.5647783" lon="10.8203039"><ele>99.0</ele><time>2026-04-04T14:28:42.977Z</time></trkpt><trkpt lat="43.5649541" lon="10.8204933"><ele>99.0</ele><time>2026-04-04T14:28:43.971Z</time></trkpt><trkpt lat="43.5651111" lon="10.8206773"><ele>99.0</ele><time>2026-04-04T14:28:44.959Z</time></trkpt><trkpt lat="43.5652541" lon="10.8208388"><ele>99.0</ele><time>2026-04-04T14:28:45.974Z</time></trkpt><trkpt lat="43.5653806" lon="10.8209815"><ele>99.0</ele><time>2026-04-04T14:28:46.977Z</time></trkpt><trkpt lat="43.5655072" lon="10.821103"><ele>99.0</ele><time>2026-04-04T14:28:47.956Z</time></trkpt><trkpt lat="43.565642" lon="10.8211943"><ele>99.0</ele><time>2026-04-04T14:28:48.983Z</time></trkpt><trkpt lat="43.5657857" lon="10.8212535"><ele>99.0</ele><time>2026-04-04T14:28:49.974Z</time></trkpt><trkpt lat="43.5659375" lon="10.8212936"><ele>99.0</ele><time>2026-04-04T14:28:50.975Z</time></trkpt><trkpt lat="43.5660943" lon="10.8213289"><ele>99.0</ele><time>2026-04-04T14:28:51.965Z</time></trkpt><trkpt lat="43.5662532" lon="10.8213706"><ele>102.66666666666666</ele><time>2026-04-04T14:28:52.951Z</time></trkpt><trkpt lat="43.5664157" lon="10.8214206"><ele>106.33333333333333</ele><time>2026-04-04T14:28:53.955Z</time></trkpt><trkpt lat="43.5665829" lon="10.8214756"><ele>110.0</ele><time>2026-04-04T14:28:54.955Z</time></trkpt><trkpt lat="43.5667472" lon="10.8215287"><ele>110.0</ele><time>2026-04-04T14:28:55.951Z</time></trkpt><trkpt lat="43.5669102" lon="10.8215781"><ele>110.0</ele><time>2026-04-04T14:28:56.966Z</time></trkpt><trkpt lat="43.5670714" lon="10.8216276"><ele>110.0</ele><time>2026-04-04T14:28:57.968Z</time></trkpt><trkpt lat="43.5672325" lon="10.8216781"><ele>115.33333333333333</ele><time>2026-04-04T14:28:58.974Z</time></trkpt><trkpt lat="43.5673906" lon="10.8217283"><ele>120.66666666666666</ele><time>2026-04-04T14:28:59.98Z</time></trkpt><trkpt lat="43.5675476" lon="10.8217691"><ele>126.0</ele><time>2026-04-04T14:29:00.971Z</time></trkpt><trkpt lat="43.5677035" lon="10.8218084"><ele>127.0</ele><time>2026-04-04T14:29:01.975Z</time></trkpt><trkpt lat="43.5678549" lon="10.8218453"><ele>128.0</ele><time>2026-04-04T14:29:02.971Z</time></trkpt><trkpt lat="43.5679927" lon="10.8218859"><ele>129.0</ele><time>2026-04-04T14:29:03.951Z</time></trkpt><trkpt lat="43.5681108" lon="10.8219494"><ele>130.0</ele><time>2026-04-04T14:29:04.982Z</time></trkpt><trkpt lat="43.568209" lon="10.8220481"><ele>130.0</ele><time>2026-04-04T14:29:05.971Z</time></trkpt><trkpt lat="43.5682805" lon="10.8221794"><ele>130.0</ele><time>2026-04-04T14:29:06.955Z</time></trkpt><trkpt lat="43.5683227" lon="10.8223321"><ele>130.0</ele><time>2026-04-04T14:29:07.964Z</time></trkpt><trkpt lat="43.5683454" lon="10.822497"><ele>130.0</ele><time>2026-04-04T14:29:08.961Z</time></trkpt><trkpt lat="43.5683594" lon="10.8226723"><ele>129.75</ele><time>2026-04-04T14:29:09.974Z</time></trkpt><trkpt lat="43.5683725" lon="10.8228529"><ele>129.5</ele><time>2026-04-04T14:29:10.975Z</time></trkpt><trkpt lat="43.5683849" lon="10.8230385"><ele>129.25</ele><time>2026-04-04T14:29:11.956Z</time></trkpt><trkpt lat="43.568398" lon="10.8232224"><ele>129.0</ele><time>2026-04-04T14:29:12.97Z</time></trkpt><trkpt lat="43.5684111" lon="10.8234047"><ele>129.5</ele><time>2026-04-04T14:29:13.975Z</time></trkpt><trkpt lat="43.5684241" lon="10.8235844"><ele>130.0</ele><time>2026-04-04T14:29:14.975Z</time></trkpt><trkpt lat="43.5684376" lon="10.82376"><ele>130.5</ele><time>2026-04-04T14:29:15.975Z</time></trkpt><trkpt lat="43.5684558" lon="10.8239311"><ele>131.0</ele><time>2026-04-04T14:29:16.98Z</time></trkpt><trkpt lat="43.5684786" lon="10.8240986"><ele>131.0</ele><time>2026-04-04T14:29:17.978Z</time></trkpt><trkpt lat="43.5684986" lon="10.824266"><ele>131.0</ele><time>2026-04-04T14:29:18.956Z</time></trkpt><trkpt lat="43.568516" lon="10.82443"><ele>131.0</ele><time>2026-04-04T14:29:19.976Z</time></trkpt><trkpt lat="43.5685325" lon="10.8245807"><ele>131.0</ele><time>2026-04-04T14:29:20.954Z</time></trkpt><trkpt lat="43.5685484" lon="10.8247117"><ele>131.83333333333331</ele><time>2026-04-04T14:29:21.961Z</time></trkpt><trkpt lat="43.5685652" lon="10.8248252"><ele>132.66666666666666</ele><time>2026-04-04T14:29:22.962Z</time></trkpt><trkpt lat="43.5685845" lon="10.8249216"><ele>133.5</ele><time>2026-04-04T14:29:23.963Z</time></trkpt><trkpt lat="43.5686165" lon="10.8250579"><ele>134.33333333333334</ele><time>2026-04-04T14:29:25.972Z</time></trkpt><trkpt lat="43.5687094" lon="10.8250807"><ele>135.16666666666669</ele><time>2026-04-04T14:29:28.955Z</time></trkpt><trkpt lat="43.5687647" lon="10.8249825"><ele>136.0</ele><time>2026-04-04T14:29:30.962Z</time></trkpt><trkpt lat="43.5687796" lon="10.824883"><ele>136.2</ele><time>2026-04-04T14:30:47.967Z</time></trkpt><trkpt lat="43.5688729" lon="10.8247777"><ele>136.39999999999998</ele><time>2026-04-04T14:30:50.958Z</time></trkpt><trkpt lat="43.5689334" lon="10.8247194"><ele>136.6</ele><time>2026-04-04T14:30:51.969Z</time></trkpt><trkpt lat="43.5690009" lon="10.8246451"><ele>136.79999999999998</ele><time>2026-04-04T14:30:52.966Z</time></trkpt><trkpt lat="43.5690749" lon="10.8245478"><ele>137.0</ele><time>2026-04-04T14:30:53.954Z</time></trkpt><trkpt lat="43.569153" lon="10.8244315"><ele>138.0</ele><time>2026-04-04T14:30:54.953Z</time></trkpt><trkpt lat="43.5692295" lon="10.8243086"><ele>139.0</ele><time>2026-04-04T14:30:55.973Z</time></trkpt><trkpt lat="43.5693084" lon="10.8241793"><ele>140.0</ele><time>2026-04-04T14:30:56.97Z</time></trkpt><trkpt lat="43.5693901" lon="10.8240449"><ele>141.0</ele><time>2026-04-04T14:30:57.977Z</time></trkpt><trkpt lat="43.5694723" lon="10.8239001"><ele>139.5</ele><time>2026-04-04T14:30:58.971Z</time></trkpt><trkpt lat="43.5695502" lon="10.8237531"><ele>138.0</ele><time>2026-04-04T14:30:59.967Z</time></trkpt><trkpt lat="43.5696252" lon="10.8235965"><ele>136.5</ele><time>2026-04-04T14:31:00.964Z</time></trkpt><trkpt lat="43.5696944" lon="10.8234275"><ele>135.0</ele><time>2026-04-04T14:31:01.963Z</time></trkpt><trkpt lat="43.569757" lon="10.8232444"><ele>135.0</ele><time>2026-04-04T14:31:02.965Z</time></trkpt><trkpt lat="43.5698139" lon="10.8230509"><ele>135.0</ele><time>2026-04-04T14:31:03.951Z</time></trkpt><trkpt lat="43.5698662" lon="10.8228494"><ele>135.0</ele><time>2026-04-04T14:31:04.962Z</time></trkpt><trkpt lat="43.5699138" lon="10.8226406"><ele>135.33333333333334</ele><time>2026-04-04T14:31:05.961Z</time></trkpt><trkpt lat="43.5699558" lon="10.8224273"><ele>135.66666666666669</ele><time>2026-04-04T14:31:06.962Z</time></trkpt><trkpt lat="43.5699927" lon="10.822211"><ele>136.0</ele><time>2026-04-04T14:31:07.957Z</time></trkpt><trkpt lat="43.5700327" lon="10.8219927"><ele>136.33333333333334</ele><time>2026-04-04T14:31:08.964Z</time></trkpt><trkpt lat="43.5700781" lon="10.8217744"><ele>136.66666666666666</ele><time>2026-04-04T14:31:09.976Z</time></trkpt><trkpt lat="43.5701306" lon="10.8215588"><ele>137.0</ele><time>2026-04-04T14:31:10.97Z</time></trkpt><trkpt lat="43.5701897" lon="10.8213489"><ele>137.0</ele><time>2026-04-04T14:31:11.985Z</time></trkpt><trkpt lat="43.5702597" lon="10.8211465"><ele>137.0</ele><time>2026-04-04T14:31:12.956Z</time></trkpt><trkpt lat="43.5703414" lon="10.8209551"><ele>137.0</ele><time>2026-04-04T14:31:13.965Z</time></trkpt><trkpt lat="43.5704377" lon="10.8207782"><ele>132.66666666666666</ele><time>2026-04-04T14:31:14.978Z</time></trkpt><trkpt lat="43.570544" lon="10.8206229"><ele>128.33333333333334</ele><time>2026-04-04T14:31:15.975Z</time></trkpt><trkpt lat="43.5706592" lon="10.8204943"><ele>124.0</ele><time>2026-04-04T14:31:16.956Z</time></trkpt><trkpt lat="43.5707892" lon="10.8203944"><ele>124.0</ele><time>2026-04-04T14:31:17.957Z</time></trkpt><trkpt lat="43.5709334" lon="10.8203264"><ele>124.0</ele><time>2026-04-04T14:31:18.963Z</time></trkpt><trkpt lat="43.5710871" lon="10.8202901"><ele>124.0</ele><time>2026-04-04T14:31:19.959Z</time></trkpt><trkpt lat="43.5712431" lon="10.8202722"><ele>120.0</ele><time>2026-04-04T14:31:20.984Z</time></trkpt><trkpt lat="43.5714006" lon="10.8202584"><ele>116.0</ele><time>2026-04-04T14:31:21.956Z</time></trkpt><trkpt lat="43.5715583" lon="10.8202441"><ele>112.0</ele><time>2026-04-04T14:31:22.965Z</time></trkpt><trkpt lat="43.5717161" lon="10.8202311"><ele>112.0</ele><time>2026-04-04T14:31:23.975Z</time></trkpt><trkpt lat="43.5718737" lon="10.8202328"><ele>112.0</ele><time>2026-04-04T14:31:24.974Z</time></trkpt><trkpt lat="43.5720304" lon="10.8202215"><ele>112.0</ele><time>2026-04-04T14:31:25.957Z</time></trkpt><trkpt lat="43.5721843" lon="10.8202113"><ele>111.75</ele><time>2026-04-04T14:31:26.974Z</time></trkpt><trkpt lat="43.5723328" lon="10.8201915"><ele>111.5</ele><time>2026-04-04T14:31:27.971Z</time></trkpt><trkpt lat="43.5724722" lon="10.8201483"><ele>111.25</ele><time>2026-04-04T14:31:28.98Z</time></trkpt><trkpt lat="43.5726011" lon="10.8200689"><ele>111.0</ele><time>2026-04-04T14:31:29.966Z</time></trkpt><trkpt lat="43.5727109" lon="10.8199516"><ele>110.5</ele><time>2026-04-04T14:31:30.966Z</time></trkpt><trkpt lat="43.5728007" lon="10.8198025"><ele>110.0</ele><time>2026-04-04T14:31:31.965Z</time></trkpt><trkpt lat="43.5728664" lon="10.8196293"><ele>109.5</ele><time>2026-04-04T14:31:32.965Z</time></trkpt><trkpt lat="43.5729175" lon="10.8194356"><ele>109.0</ele><time>2026-04-04T14:31:33.973Z</time></trkpt><trkpt lat="43.5729631" lon="10.8192268"><ele>109.0</ele><time>2026-04-04T14:31:34.973Z</time></trkpt><trkpt lat="43.5730126" lon="10.819008"><ele>109.0</ele><time>2026-04-04T14:31:35.98Z</time></trkpt><trkpt lat="43.5730658" lon="10.8187819"><ele>109.0</ele><time>2026-04-04T14:31:36.954Z</time></trkpt><trkpt lat="43.5731149" lon="10.8185493"><ele>107.66666666666667</ele><time>2026-04-04T14:31:37.974Z</time></trkpt><trkpt lat="43.5731657" lon="10.8183071"><ele>106.33333333333334</ele><time>2026-04-04T14:31:38.963Z</time></trkpt><trkpt lat="43.5732154" lon="10.8180628"><ele>105.0</ele><time>2026-04-04T14:31:39.974Z</time></trkpt><trkpt lat="43.5732648" lon="10.8178136"><ele>103.33333333333334</ele><time>2026-04-04T14:31:40.957Z</time></trkpt><trkpt lat="43.5733152" lon="10.8175613"><ele>101.66666666666667</ele><time>2026-04-04T14:31:41.951Z</time></trkpt><trkpt lat="43.5733615" lon="10.8173072"><ele>100.0</ele><time>2026-04-04T14:31:42.965Z</time></trkpt><trkpt lat="43.5734061" lon="10.8170528"><ele>99.0</ele><time>2026-04-04T14:31:43.986Z</time></trkpt><trkpt lat="43.5734505" lon="10.8167991"><ele>98.0</ele><time>2026-04-04T14:31:44.973Z</time></trkpt><trkpt lat="43.5735003" lon="10.8165486"><ele>97.0</ele><time>2026-04-04T14:31:45.97Z</time></trkpt><trkpt lat="43.5735584" lon="10.8163048"><ele>97.0</ele><time>2026-04-04T14:31:46.97Z</time></trkpt><trkpt lat="43.5736297" lon="10.8160757"><ele>97.0</ele><time>2026-04-04T14:31:47.978Z</time></trkpt><trkpt lat="43.5737153" lon="10.8158614"><ele>97.0</ele><time>2026-04-04T14:31:48.975Z</time></trkpt><trkpt lat="43.573812" lon="10.8156634"><ele>95.0</ele><time>2026-04-04T14:31:49.974Z</time></trkpt><trkpt lat="43.5739116" lon="10.8154815"><ele>93.0</ele><time>2026-04-04T14:31:50.959Z</time></trkpt><trkpt lat="43.5740084" lon="10.8153095"><ele>91.0</ele><time>2026-04-04T14:31:51.97Z</time></trkpt><trkpt lat="43.5740997" lon="10.8151449"><ele>90.5</ele><time>2026-04-04T14:31:52.959Z</time></trkpt><trkpt lat="43.5741855" lon="10.814989"><ele>90.0</ele><time>2026-04-04T14:31:53.983Z</time></trkpt><trkpt lat="43.5742659" lon="10.8148468"><ele>89.5</ele><time>2026-04-04T14:31:54.978Z</time></trkpt><trkpt lat="43.5743398" lon="10.8147164"><ele>89.0</ele><time>2026-04-04T14:31:55.957Z</time></trkpt><trkpt lat="43.5744077" lon="10.8146015"><ele>89.0</ele><time>2026-04-04T14:31:56.982Z</time></trkpt><trkpt lat="43.574473" lon="10.8145054"><ele>89.0</ele><time>2026-04-04T14:31:57.967Z</time></trkpt><trkpt lat="43.5745445" lon="10.8144418"><ele>89.0</ele><time>2026-04-04T14:31:58.961Z</time></trkpt><trkpt lat="43.5746267" lon="10.8144153"><ele>89.0</ele><time>2026-04-04T14:31:59.979Z</time></trkpt><trkpt lat="43.574719" lon="10.8143824"><ele>89.0</ele><time>2026-04-04T14:32:00.972Z</time></trkpt><trkpt lat="43.5747977" lon="10.8144146"><ele>89.0</ele><time>2026-04-04T14:32:01.957Z</time></trkpt><trkpt lat="43.5748517" lon="10.8145145"><ele>87.4</ele><time>2026-04-04T14:32:02.973Z</time></trkpt><trkpt lat="43.5748915" lon="10.8146386"><ele>85.80000000000001</ele><time>2026-04-04T14:32:03.973Z</time></trkpt><trkpt lat="43.574915" lon="10.8147766"><ele>84.19999999999999</ele><time>2026-04-04T14:32:04.957Z</time></trkpt><trkpt lat="43.5749252" lon="10.8149296"><ele>82.6</ele><time>2026-04-04T14:32:05.98Z</time></trkpt><trkpt lat="43.5749185" lon="10.8151014"><ele>81.0</ele><time>2026-04-04T14:32:06.975Z</time></trkpt><trkpt lat="43.5748984" lon="10.8152895"><ele>81.0</ele><time>2026-04-04T14:32:07.956Z</time></trkpt><trkpt lat="43.5748727" lon="10.8154917"><ele>81.0</ele><time>2026-04-04T14:32:08.978Z</time></trkpt><trkpt lat="43.5748449" lon="10.8156974"><ele>81.0</ele><time>2026-04-04T14:32:09.969Z</time></trkpt><trkpt lat="43.574816" lon="10.8159124"><ele>81.33333333333333</ele><time>2026-04-04T14:32:10.963Z</time></trkpt><trkpt lat="43.5747884" lon="10.8161284"><ele>81.66666666666666</ele><time>2026-04-04T14:32:11.972Z</time></trkpt><trkpt lat="43.5747634" lon="10.8163347"><ele>82.0</ele><time>2026-04-04T14:32:12.973Z</time></trkpt><trkpt lat="43.574739" lon="10.8165319"><ele>82.0</ele><time>2026-04-04T14:32:13.96Z</time></trkpt><trkpt lat="43.5747153" lon="10.8167189"><ele>82.0</ele><time>2026-04-04T14:32:14.967Z</time></trkpt><trkpt lat="43.5746992" lon="10.8169042"><ele>82.0</ele><time>2026-04-04T14:32:15.953Z</time></trkpt><trkpt lat="43.5746895" lon="10.8170952"><ele>82.0</ele><time>2026-04-04T14:32:16.974Z</time></trkpt><trkpt lat="43.5746924" lon="10.81729"><ele>81.5</ele><time>2026-04-04T14:32:17.968Z</time></trkpt><trkpt lat="43.5747039" lon="10.8174834"><ele>81.0</ele><time>2026-04-04T14:32:18.956Z</time></trkpt><trkpt lat="43.5747542" lon="10.8176618"><ele>80.5</ele><time>2026-04-04T14:32:19.967Z</time></trkpt><trkpt lat="43.5748266" lon="10.8178196"><ele>80.0</ele><time>2026-04-04T14:32:20.966Z</time></trkpt><trkpt lat="43.5749113" lon="10.8179588"><ele>80.0</ele><time>2026-04-04T14:32:21.967Z</time></trkpt><trkpt lat="43.5750044" lon="10.8180887"><ele>80.0</ele><time>2026-04-04T14:32:22.965Z</time></trkpt><trkpt lat="43.5751056" lon="10.8182171"><ele>80.0</ele><time>2026-04-04T14:32:23.973Z</time></trkpt><trkpt lat="43.5752111" lon="10.8183455"><ele>80.0</ele><time>2026-04-04T14:32:24.969Z</time></trkpt><trkpt lat="43.575317" lon="10.8184761"><ele>80.75</ele><time>2026-04-04T14:32:25.969Z</time></trkpt><trkpt lat="43.5754204" lon="10.8186084"><ele>81.5</ele><time>2026-04-04T14:32:26.975Z</time></trkpt><trkpt lat="43.5755187" lon="10.8187332"><ele>82.25</ele><time>2026-04-04T14:32:27.966Z</time></trkpt><trkpt lat="43.5756091" lon="10.8188473"><ele>83.0</ele><time>2026-04-04T14:32:28.963Z</time></trkpt><trkpt lat="43.575689" lon="10.8189556"><ele>83.0</ele><time>2026-04-04T14:32:29.946Z</time></trkpt><trkpt lat="43.5757661" lon="10.8190651"><ele>83.0</ele><time>2026-04-04T14:32:30.964Z</time></trkpt><trkpt lat="43.5758405" lon="10.8191763"><ele>83.0</ele><time>2026-04-04T14:32:31.973Z</time></trkpt><trkpt lat="43.5759098" lon="10.8192935"><ele>83.0</ele><time>2026-04-04T14:32:32.955Z</time></trkpt><trkpt lat="43.5759721" lon="10.8194187"><ele>83.0</ele><time>2026-04-04T14:32:33.962Z</time></trkpt><trkpt lat="43.5760244" lon="10.8195514"><ele>83.0</ele><time>2026-04-04T14:32:34.975Z</time></trkpt><trkpt lat="43.5760708" lon="10.8196828"><ele>83.0</ele><time>2026-04-04T14:32:35.974Z</time></trkpt><trkpt lat="43.5760895" lon="10.8198177"><ele>83.0</ele><time>2026-04-04T14:32:36.977Z</time></trkpt><trkpt lat="43.5760968" lon="10.8199385"><ele>83.0</ele><time>2026-04-04T14:32:37.966Z</time></trkpt><trkpt lat="43.5760965" lon="10.8200591"><ele>83.0</ele><time>2026-04-04T14:32:38.975Z</time></trkpt><trkpt lat="43.5760878" lon="10.8201835"><ele>83.0</ele><time>2026-04-04T14:32:39.97Z</time></trkpt><trkpt lat="43.5760767" lon="10.82031"><ele>83.0</ele><time>2026-04-04T14:32:40.978Z</time></trkpt><trkpt lat="43.5760606" lon="10.8204418"><ele>83.0</ele><time>2026-04-04T14:32:41.964Z</time></trkpt><trkpt lat="43.5760436" lon="10.8205812"><ele>83.0</ele><time>2026-04-04T14:32:42.974Z</time></trkpt><trkpt lat="43.576021" lon="10.8207184"><ele>83.0</ele><time>2026-04-04T14:32:43.963Z</time></trkpt><trkpt lat="43.5759955" lon="10.8208435"><ele>83.0</ele><time>2026-04-04T14:32:44.967Z</time></trkpt><trkpt lat="43.5759735" lon="10.8209545"><ele>83.0</ele><time>2026-04-04T14:32:45.977Z</time></trkpt><trkpt lat="43.5759553" lon="10.8210535"><ele>83.0</ele><time>2026-04-04T14:32:46.967Z</time></trkpt><trkpt lat="43.575943" lon="10.8211394"><ele>83.0</ele><time>2026-04-04T14:32:47.974Z</time></trkpt><trkpt lat="43.5759222" lon="10.821258"><ele>83.0</ele><time>2026-04-04T14:32:49.959Z</time></trkpt><trkpt lat="43.5759081" lon="10.82137"><ele>83.0</ele><time>2026-04-04T14:32:52.975Z</time></trkpt><trkpt lat="43.5759281" lon="10.8214624"><ele>82.83333333333334</ele><time>2026-04-04T14:33:14.975Z</time></trkpt><trkpt lat="43.5759649" lon="10.8215384"><ele>82.66666666666667</ele><time>2026-04-04T14:34:20.963Z</time></trkpt><trkpt lat="43.5759802" lon="10.8216747"><ele>82.5</ele><time>2026-04-04T14:34:22.966Z</time></trkpt><trkpt lat="43.5759498" lon="10.8218362"><ele>82.33333333333333</ele><time>2026-04-04T14:34:24.968Z</time></trkpt><trkpt lat="43.5759225" lon="10.8219194"><ele>82.16666666666666</ele><time>2026-04-04T14:34:25.978Z</time></trkpt><trkpt lat="43.5758918" lon="10.8220018"><ele>82.0</ele><time>2026-04-04T14:34:26.952Z</time></trkpt><trkpt lat="43.575858" lon="10.8220855"><ele>81.83333333333333</ele><time>2026-04-04T14:34:27.972Z</time></trkpt><trkpt lat="43.5758217" lon="10.8221712"><ele>81.66666666666666</ele><time>2026-04-04T14:34:28.973Z</time></trkpt><trkpt lat="43.5757818" lon="10.8222572"><ele>81.5</ele><time>2026-04-04T14:34:29.965Z</time></trkpt><trkpt lat="43.5757376" lon="10.8223426"><ele>81.33333333333333</ele><time>2026-04-04T14:34:30.97Z</time></trkpt><trkpt lat="43.5756893" lon="10.822428"><ele>81.16666666666667</ele><time>2026-04-04T14:34:31.956Z</time></trkpt><trkpt lat="43.5756401" lon="10.822515"><ele>81.0</ele><time>2026-04-04T14:34:32.971Z</time></trkpt><trkpt lat="43.5755885" lon="10.8226036"><ele>81.33333333333333</ele><time>2026-04-04T14:34:33.975Z</time></trkpt><trkpt lat="43.5755336" lon="10.8226904"><ele>81.66666666666667</ele><time>2026-04-04T14:34:34.973Z</time></trkpt><trkpt lat="43.5754801" lon="10.8227763"><ele>82.0</ele><time>2026-04-04T14:34:35.968Z</time></trkpt><trkpt lat="43.5754263" lon="10.822854"><ele>82.33333333333334</ele><time>2026-04-04T14:34:36.973Z</time></trkpt><trkpt lat="43.5753624" lon="10.822929"><ele>82.66666666666667</ele><time>2026-04-04T14:34:37.971Z</time></trkpt><trkpt lat="43.5752986" lon="10.8230065"><ele>83.0</ele><time>2026-04-04T14:34:38.976Z</time></trkpt><trkpt lat="43.5752426" lon="10.8230822"><ele>83.28571428571428</ele><time>2026-04-04T14:34:39.971Z</time></trkpt><trkpt lat="43.5751985" lon="10.8231527"><ele>83.57142857142858</ele><time>2026-04-04T14:34:40.972Z</time></trkpt><trkpt lat="43.575161" lon="10.8232317"><ele>83.85714285714286</ele><time>2026-04-04T14:34:41.966Z</time></trkpt><trkpt lat="43.5751215" lon="10.8233149"><ele>84.14285714285714</ele><time>2026-04-04T14:34:42.974Z</time></trkpt><trkpt lat="43.575091" lon="10.8234137"><ele>84.42857142857142</ele><time>2026-04-04T14:34:43.969Z</time></trkpt><trkpt lat="43.5750718" lon="10.8235148"><ele>84.71428571428572</ele><time>2026-04-04T14:34:44.973Z</time></trkpt><trkpt lat="43.5750638" lon="10.8236158"><ele>85.0</ele><time>2026-04-04T14:34:45.973Z</time></trkpt><trkpt lat="43.5750684" lon="10.8237171"><ele>86.83333333333333</ele><time>2026-04-04T14:34:46.968Z</time></trkpt><trkpt lat="43.5750803" lon="10.8238137"><ele>88.66666666666666</ele><time>2026-04-04T14:34:47.967Z</time></trkpt><trkpt lat="43.5751003" lon="10.8239008"><ele>90.5</ele><time>2026-04-04T14:34:48.971Z</time></trkpt><trkpt lat="43.575129" lon="10.8239931"><ele>92.33333333333333</ele><time>2026-04-04T14:34:49.973Z</time></trkpt><trkpt lat="43.5751612" lon="10.8240946"><ele>94.16666666666667</ele><time>2026-04-04T14:34:50.969Z</time></trkpt><trkpt lat="43.5751938" lon="10.8242015"><ele>96.0</ele><time>2026-04-04T14:34:51.976Z</time></trkpt><trkpt lat="43.575218" lon="10.824314"><ele>97.83333333333333</ele><time>2026-04-04T14:34:52.968Z</time></trkpt><trkpt lat="43.5752261" lon="10.8244355"><ele>99.66666666666666</ele><time>2026-04-04T14:34:53.956Z</time></trkpt><trkpt lat="43.5752324" lon="10.8245532"><ele>101.5</ele><time>2026-04-04T14:34:54.965Z</time></trkpt><trkpt lat="43.5752142" lon="10.8246732"><ele>103.33333333333333</ele><time>2026-04-04T14:34:55.959Z</time></trkpt><trkpt lat="43.5751881" lon="10.8247907"><ele>105.16666666666666</ele><time>2026-04-04T14:34:56.95Z</time></trkpt><trkpt lat="43.5751545" lon="10.8249099"><ele>107.0</ele><time>2026-04-04T14:34:57.964Z</time></trkpt><trkpt lat="43.5751135" lon="10.8250241"><ele>107.0</ele><time>2026-04-04T14:34:58.958Z</time></trkpt><trkpt lat="43.5750682" lon="10.8251394"><ele>106.99999999999999</ele><time>2026-04-04T14:34:59.962Z</time></trkpt><trkpt lat="43.5750212" lon="10.8252577"><ele>106.99999999999999</ele><time>2026-04-04T14:35:00.976Z</time></trkpt><trkpt lat="43.5749814" lon="10.8253759"><ele>107.0</ele><time>2026-04-04T14:35:01.962Z</time></trkpt><trkpt lat="43.5749576" lon="10.8254936"><ele>107.0</ele><time>2026-04-04T14:35:02.958Z</time></trkpt><trkpt lat="43.57495" lon="10.825618"><ele>108.39999999999999</ele><time>2026-04-04T14:35:03.951Z</time></trkpt><trkpt lat="43.5749433" lon="10.8257463"><ele>109.79999999999998</ele><time>2026-04-04T14:35:04.963Z</time></trkpt><trkpt lat="43.5749444" lon="10.8258876"><ele>111.2</ele><time>2026-04-04T14:35:05.95Z</time></trkpt><trkpt lat="43.5749431" lon="10.826025"><ele>112.6</ele><time>2026-04-04T14:35:06.957Z</time></trkpt><trkpt lat="43.5749385" lon="10.8261643"><ele>114.0</ele><time>2026-04-04T14:35:07.97Z</time></trkpt><trkpt lat="43.5749332" lon="10.8263056"><ele>115.6</ele><time>2026-04-04T14:35:08.96Z</time></trkpt><trkpt lat="43.5749262" lon="10.8264472"><ele>117.2</ele><time>2026-04-04T14:35:09.955Z</time></trkpt><trkpt lat="43.5749107" lon="10.8265787"><ele>118.79999999999998</ele><time>2026-04-04T14:35:10.971Z</time></trkpt><trkpt lat="43.5748856" lon="10.826699"><ele>120.39999999999999</ele><time>2026-04-04T14:35:11.968Z</time></trkpt><trkpt lat="43.574854" lon="10.8268174"><ele>122.0</ele><time>2026-04-04T14:35:12.959Z</time></trkpt><trkpt lat="43.5748204" lon="10.8269348"><ele>123.83333333333333</ele><time>2026-04-04T14:35:13.977Z</time></trkpt><trkpt lat="43.5747895" lon="10.8270495"><ele>125.66666666666666</ele><time>2026-04-04T14:35:14.953Z</time></trkpt><trkpt lat="43.5747627" lon="10.8271548"><ele>127.5</ele><time>2026-04-04T14:35:15.959Z</time></trkpt><trkpt lat="43.5747621" lon="10.8272611"><ele>129.33333333333334</ele><time>2026-04-04T14:35:16.975Z</time></trkpt><trkpt lat="43.5747734" lon="10.8273695"><ele>131.16666666666669</ele><time>2026-04-04T14:35:17.972Z</time></trkpt><trkpt lat="43.5747861" lon="10.8274812"><ele>133.0</ele><time>2026-04-04T14:35:18.963Z</time></trkpt><trkpt lat="43.5748157" lon="10.8275863"><ele>134.5</ele><time>2026-04-04T14:35:19.972Z</time></trkpt><trkpt lat="43.5748449" lon="10.827693"><ele>136.0</ele><time>2026-04-04T14:35:20.975Z</time></trkpt><trkpt lat="43.5748912" lon="10.827791"><ele>137.5</ele><time>2026-04-04T14:35:21.977Z</time></trkpt><trkpt lat="43.5749363" lon="10.8278932"><ele>139.0</ele><time>2026-04-04T14:35:22.969Z</time></trkpt><trkpt lat="43.5749789" lon="10.8279904"><ele>140.5</ele><time>2026-04-04T14:35:23.954Z</time></trkpt><trkpt lat="43.5750196" lon="10.8280847"><ele>142.0</ele><time>2026-04-04T14:35:24.975Z</time></trkpt><trkpt lat="43.5750615" lon="10.8281806"><ele>142.0</ele><time>2026-04-04T14:35:25.965Z</time></trkpt><trkpt lat="43.5751079" lon="10.8282775"><ele>142.0</ele><time>2026-04-04T14:35:26.966Z</time></trkpt><trkpt lat="43.5751594" lon="10.8283762"><ele>142.0</ele><time>2026-04-04T14:35:27.956Z</time></trkpt><trkpt lat="43.5752109" lon="10.8284755"><ele>142.0</ele><time>2026-04-04T14:35:28.968Z</time></trkpt><trkpt lat="43.5752558" lon="10.8285704"><ele>142.0</ele><time>2026-04-04T14:35:29.956Z</time></trkpt><trkpt lat="43.5752926" lon="10.8286644"><ele>142.0</ele><time>2026-04-04T14:35:30.976Z</time></trkpt><trkpt lat="43.5753222" lon="10.8287702"><ele>142.33333333333334</ele><time>2026-04-04T14:35:31.966Z</time></trkpt><trkpt lat="43.5753413" lon="10.8288878"><ele>142.66666666666669</ele><time>2026-04-04T14:35:32.963Z</time></trkpt><trkpt lat="43.5753495" lon="10.8290016"><ele>143.0</ele><time>2026-04-04T14:35:33.961Z</time></trkpt><trkpt lat="43.5753509" lon="10.8291153"><ele>143.33333333333334</ele><time>2026-04-04T14:35:34.971Z</time></trkpt><trkpt lat="43.5753515" lon="10.8292322"><ele>143.66666666666666</ele><time>2026-04-04T14:35:35.968Z</time></trkpt><trkpt lat="43.5753344" lon="10.8293577"><ele>144.0</ele><time>2026-04-04T14:35:36.956Z</time></trkpt><trkpt lat="43.5753148" lon="10.8294885"><ele>143.4</ele><time>2026-04-04T14:35:37.961Z</time></trkpt><trkpt lat="43.5752967" lon="10.8296291"><ele>142.8</ele><time>2026-04-04T14:35:38.955Z</time></trkpt><trkpt lat="43.5752799" lon="10.8297716"><ele>142.2</ele><time>2026-04-04T14:35:39.971Z</time></trkpt><trkpt lat="43.575287" lon="10.8299183"><ele>141.6</ele><time>2026-04-04T14:35:40.973Z</time></trkpt><trkpt lat="43.5753071" lon="10.8300617"><ele>141.0</ele><time>2026-04-04T14:35:41.975Z</time></trkpt><trkpt lat="43.5753382" lon="10.8302026"><ele>142.0</ele><time>2026-04-04T14:35:42.958Z</time></trkpt><trkpt lat="43.5753787" lon="10.8303343"><ele>143.0</ele><time>2026-04-04T14:35:43.961Z</time></trkpt><trkpt lat="43.5754297" lon="10.8304624"><ele>144.0</ele><time>2026-04-04T14:35:44.967Z</time></trkpt><trkpt lat="43.57549" lon="10.8305851"><ele>145.0</ele><time>2026-04-04T14:35:45.954Z</time></trkpt><trkpt lat="43.5755559" lon="10.8307025"><ele>146.0</ele><time>2026-04-04T14:35:46.975Z</time></trkpt><trkpt lat="43.5756207" lon="10.8308175"><ele>146.0</ele><time>2026-04-04T14:35:47.957Z</time></trkpt><trkpt lat="43.5756754" lon="10.8309236"><ele>146.0</ele><time>2026-04-04T14:35:48.961Z</time></trkpt><trkpt lat="43.5757256" lon="10.8310261"><ele>146.0</ele><time>2026-04-04T14:35:49.973Z</time></trkpt><trkpt lat="43.5757339" lon="10.8311499"><ele>146.0</ele><time>2026-04-04T14:35:50.963Z</time></trkpt><trkpt lat="43.5757176" lon="10.8312927"><ele>146.0</ele><time>2026-04-04T14:35:51.973Z</time></trkpt><trkpt lat="43.5756823" lon="10.8314606"><ele>146.5</ele><time>2026-04-04T14:35:52.97Z</time></trkpt><trkpt lat="43.5756393" lon="10.8316572"><ele>147.0</ele><time>2026-04-04T14:35:53.974Z</time></trkpt><trkpt lat="43.5755979" lon="10.8318615"><ele>147.5</ele><time>2026-04-04T14:35:54.975Z</time></trkpt><trkpt lat="43.5755568" lon="10.8320459"><ele>148.0</ele><time>2026-04-04T14:35:55.974Z</time></trkpt><trkpt lat="43.5755109" lon="10.8322137"><ele>148.8</ele><time>2026-04-04T14:35:56.965Z</time></trkpt><trkpt lat="43.5754632" lon="10.832362"><ele>149.60000000000002</ele><time>2026-04-04T14:35:57.949Z</time></trkpt><trkpt lat="43.5754245" lon="10.8324928"><ele>150.39999999999998</ele><time>2026-04-04T14:35:58.974Z</time></trkpt><trkpt lat="43.575401" lon="10.8326044"><ele>151.2</ele><time>2026-04-04T14:35:59.948Z</time></trkpt><trkpt lat="43.5753955" lon="10.8327049"><ele>152.0</ele><time>2026-04-04T14:36:00.952Z</time></trkpt><trkpt lat="43.575411" lon="10.8328043"><ele>152.6</ele><time>2026-04-04T14:36:01.959Z</time></trkpt><trkpt lat="43.5754463" lon="10.8329005"><ele>153.2</ele><time>2026-04-04T14:36:02.974Z</time></trkpt><trkpt lat="43.5754986" lon="10.8329919"><ele>153.8</ele><time>2026-04-04T14:36:03.962Z</time></trkpt><trkpt lat="43.5755671" lon="10.8330844"><ele>154.4</ele><time>2026-04-04T14:36:04.959Z</time></trkpt><trkpt lat="43.5756458" lon="10.8331724"><ele>155.0</ele><time>2026-04-04T14:36:05.963Z</time></trkpt><trkpt lat="43.5757328" lon="10.8332546"><ele>155.0</ele><time>2026-04-04T14:36:06.974Z</time></trkpt><trkpt lat="43.5758273" lon="10.8333292"><ele>155.0</ele><time>2026-04-04T14:36:07.974Z</time></trkpt><trkpt lat="43.5759277" lon="10.8333956"><ele>155.0</ele><time>2026-04-04T14:36:08.952Z</time></trkpt><trkpt lat="43.5760328" lon="10.8334519"><ele>155.0</ele><time>2026-04-04T14:36:09.96Z</time></trkpt><trkpt lat="43.5761405" lon="10.8335026"><ele>155.0</ele><time>2026-04-04T14:36:10.958Z</time></trkpt><trkpt lat="43.5762497" lon="10.8335532"><ele>154.25</ele><time>2026-04-04T14:36:11.972Z</time></trkpt><trkpt lat="43.57636" lon="10.8336026"><ele>153.5</ele><time>2026-04-04T14:36:12.975Z</time></trkpt><trkpt lat="43.5764731" lon="10.8336473"><ele>152.75</ele><time>2026-04-04T14:36:13.957Z</time></trkpt><trkpt lat="43.5765919" lon="10.8336922"><ele>152.0</ele><time>2026-04-04T14:36:14.978Z</time></trkpt><trkpt lat="43.5767129" lon="10.8337387"><ele>152.0</ele><time>2026-04-04T14:36:15.955Z</time></trkpt><trkpt lat="43.5768345" lon="10.8337913"><ele>152.0</ele><time>2026-04-04T14:36:16.957Z</time></trkpt><trkpt lat="43.5769513" lon="10.8338543"><ele>152.0</ele><time>2026-04-04T14:36:17.957Z</time></trkpt><trkpt lat="43.5770603" lon="10.8339342"><ele>152.0</ele><time>2026-04-04T14:36:18.968Z</time></trkpt><trkpt lat="43.5771604" lon="10.8340337"><ele>152.5</ele><time>2026-04-04T14:36:19.97Z</time></trkpt><trkpt lat="43.5772536" lon="10.8341513"><ele>153.0</ele><time>2026-04-04T14:36:20.962Z</time></trkpt><trkpt lat="43.5773437" lon="10.8342818"><ele>153.5</ele><time>2026-04-04T14:36:21.954Z</time></trkpt><trkpt lat="43.5774317" lon="10.8344218"><ele>154.0</ele><time>2026-04-04T14:36:22.973Z</time></trkpt><trkpt lat="43.57752" lon="10.8345692"><ele>156.0</ele><time>2026-04-04T14:36:23.962Z</time></trkpt><trkpt lat="43.577607" lon="10.8347179"><ele>158.0</ele><time>2026-04-04T14:36:24.956Z</time></trkpt><trkpt lat="43.5776887" lon="10.8348694"><ele>160.0</ele><time>2026-04-04T14:36:25.955Z</time></trkpt><trkpt lat="43.5777644" lon="10.8350254"><ele>162.0</ele><time>2026-04-04T14:36:26.962Z</time></trkpt><trkpt lat="43.5778396" lon="10.8351813"><ele>163.8</ele><time>2026-04-04T14:36:27.952Z</time></trkpt><trkpt lat="43.5779155" lon="10.835319"><ele>165.6</ele><time>2026-04-04T14:36:28.968Z</time></trkpt><trkpt lat="43.5779899" lon="10.8354372"><ele>167.4</ele><time>2026-04-04T14:36:29.961Z</time></trkpt><trkpt lat="43.5780658" lon="10.8355373"><ele>169.20000000000002</ele><time>2026-04-04T14:36:30.951Z</time></trkpt><trkpt lat="43.5781429" lon="10.835619"><ele>171.0</ele><time>2026-04-04T14:36:31.957Z</time></trkpt><trkpt lat="43.5782243" lon="10.8356848"><ele>171.0</ele><time>2026-04-04T14:36:32.972Z</time></trkpt><trkpt lat="43.5783129" lon="10.8357316"><ele>171.0</ele><time>2026-04-04T14:36:33.961Z</time></trkpt><trkpt lat="43.5784051" lon="10.8357611"><ele>171.0</ele><time>2026-04-04T14:36:34.973Z</time></trkpt><trkpt lat="43.5784963" lon="10.8357888"><ele>171.0</ele><time>2026-04-04T14:36:35.951Z</time></trkpt><trkpt lat="43.5785943" lon="10.8358004"><ele>171.0</ele><time>2026-04-04T14:36:36.957Z</time></trkpt><trkpt lat="43.5786992" lon="10.8358125"><ele>171.0</ele><time>2026-04-04T14:36:37.968Z</time></trkpt><trkpt lat="43.5788063" lon="10.835836"><ele>171.0</ele><time>2026-04-04T14:36:38.974Z</time></trkpt><trkpt lat="43.5789049" lon="10.8358687"><ele>171.0</ele><time>2026-04-04T14:36:39.971Z</time></trkpt><trkpt lat="43.5789809" lon="10.8358948"><ele>171.0</ele><time>2026-04-04T14:36:40.976Z</time></trkpt><trkpt lat="43.5790774" lon="10.8358808"><ele>171.0</ele><time>2026-04-04T14:36:42.958Z</time></trkpt><trkpt lat="43.5791747" lon="10.8358345"><ele>171.0</ele><time>2026-04-04T14:36:44.971Z</time></trkpt><trkpt lat="43.5792724" lon="10.835786"><ele>171.0</ele><time>2026-04-04T14:36:46.966Z</time></trkpt><trkpt lat="43.5793652" lon="10.8357429"><ele>171.0</ele><time>2026-04-04T14:36:48.97Z</time></trkpt><trkpt lat="43.5794804" lon="10.8356951"><ele>171.0</ele><time>2026-04-04T14:36:50.957Z</time></trkpt><trkpt lat="43.5795547" lon="10.8356772"><ele>171.0</ele><time>2026-04-04T14:36:51.956Z</time></trkpt><trkpt lat="43.5796373" lon="10.8356662"><ele>170.0</ele><time>2026-04-04T14:36:52.968Z</time></trkpt><trkpt lat="43.5797214" lon="10.8356631"><ele>169.0</ele><time>2026-04-04T14:36:53.964Z</time></trkpt><trkpt lat="43.5798006" lon="10.8356663"><ele>168.0</ele><time>2026-04-04T14:36:54.973Z</time></trkpt><trkpt lat="43.5798748" lon="10.835669"><ele>167.0</ele><time>2026-04-04T14:36:55.965Z</time></trkpt><trkpt lat="43.5799427" lon="10.8356703"><ele>166.0</ele><time>2026-04-04T14:36:56.965Z</time></trkpt><trkpt lat="43.5800073" lon="10.8356739"><ele>165.0</ele><time>2026-04-04T14:36:57.978Z</time></trkpt><trkpt lat="43.5801308" lon="10.8356841"><ele>165.0</ele><time>2026-04-04T14:36:59.964Z</time></trkpt><trkpt lat="43.5802469" lon="10.8357028"><ele>165.0</ele><time>2026-04-04T14:37:01.974Z</time></trkpt><trkpt lat="43.580345" lon="10.8357275"><ele>165.0</ele><time>2026-04-04T14:37:03.98Z</time></trkpt><trkpt lat="43.5804498" lon="10.8357226"><ele>165.0</ele><time>2026-04-04T14:37:05.98Z</time></trkpt><trkpt lat="43.5805704" lon="10.8357226"><ele>165.0</ele><time>2026-04-04T14:37:07.974Z</time></trkpt><trkpt lat="43.580691" lon="10.8356996"><ele>164.83333333333334</ele><time>2026-04-04T14:37:09.953Z</time></trkpt><trkpt lat="43.5807931" lon="10.835611"><ele>164.66666666666666</ele><time>2026-04-04T14:37:11.969Z</time></trkpt><trkpt lat="43.580846" lon="10.8355508"><ele>164.5</ele><time>2026-04-04T14:37:12.966Z</time></trkpt><trkpt lat="43.5808935" lon="10.8354696"><ele>164.33333333333331</ele><time>2026-04-04T14:37:13.959Z</time></trkpt><trkpt lat="43.5809398" lon="10.8353874"><ele>164.16666666666666</ele><time>2026-04-04T14:37:14.961Z</time></trkpt><trkpt lat="43.5809825" lon="10.8353089"><ele>164.0</ele><time>2026-04-04T14:37:15.97Z</time></trkpt><trkpt lat="43.5810236" lon="10.8352413"><ele>164.0</ele><time>2026-04-04T14:37:16.969Z</time></trkpt><trkpt lat="43.5811064" lon="10.8351501"><ele>164.0</ele><time>2026-04-04T14:37:18.971Z</time></trkpt><trkpt lat="43.5811983" lon="10.8351163"><ele>164.0</ele><time>2026-04-04T14:37:20.974Z</time></trkpt><trkpt lat="43.5812653" lon="10.8351434"><ele>164.0</ele><time>2026-04-04T14:37:22.967Z</time></trkpt><trkpt lat="43.5813282" lon="10.835189"><ele>164.0</ele><time>2026-04-04T14:37:26.968Z</time></trkpt><trkpt lat="43.5814024" lon="10.8352335"><ele>164.0</ele><time>2026-04-04T14:37:28.956Z</time></trkpt><trkpt lat="43.5815011" lon="10.8353034"><ele>163.0</ele><time>2026-04-04T14:37:30.972Z</time></trkpt><trkpt lat="43.5816008" lon="10.8353805"><ele>162.0</ele><time>2026-04-04T14:37:32.967Z</time></trkpt><trkpt lat="43.581683" lon="10.8354385"><ele>161.0</ele><time>2026-04-04T14:37:34.962Z</time></trkpt><trkpt lat="43.5817676" lon="10.8354973"><ele>160.0</ele><time>2026-04-04T14:37:36.966Z</time></trkpt><trkpt lat="43.5818502" lon="10.8355907"><ele>159.0</ele><time>2026-04-04T14:37:38.957Z</time></trkpt><trkpt lat="43.5818965" lon="10.8357211"><ele>159.0</ele><time>2026-04-04T14:37:40.971Z</time></trkpt><trkpt lat="43.5819462" lon="10.8358715"><ele>159.0</ele><time>2026-04-04T14:37:42.963Z</time></trkpt><trkpt lat="43.5819971" lon="10.8360116"><ele>159.0</ele><time>2026-04-04T14:37:44.968Z</time></trkpt><trkpt lat="43.5820452" lon="10.8361575"><ele>159.0</ele><time>2026-04-04T14:37:46.96Z</time></trkpt><trkpt lat="43.5820808" lon="10.8362985"><ele>158.75</ele><time>2026-04-04T14:37:48.955Z</time></trkpt><trkpt lat="43.5821204" lon="10.8364511"><ele>158.5</ele><time>2026-04-04T14:37:50.955Z</time></trkpt><trkpt lat="43.5821574" lon="10.8365988"><ele>158.25</ele><time>2026-04-04T14:37:52.949Z</time></trkpt><trkpt lat="43.5822043" lon="10.8367383"><ele>158.0</ele><time>2026-04-04T14:37:54.963Z</time></trkpt><trkpt lat="43.5822849" lon="10.8368463"><ele>158.0</ele><time>2026-04-04T14:37:56.969Z</time></trkpt><trkpt lat="43.58237" lon="10.8368986"><ele>158.0</ele><time>2026-04-04T14:37:58.967Z</time></trkpt><trkpt lat="43.5824698" lon="10.8369189"><ele>158.0</ele><time>2026-04-04T14:38:16.963Z</time></trkpt><trkpt lat="43.5825623" lon="10.8369454"><ele>158.0</ele><time>2026-04-04T14:38:18.964Z</time></trkpt><trkpt lat="43.5826582" lon="10.8369766"><ele>158.0</ele><time>2026-04-04T14:38:20.954Z</time></trkpt><trkpt lat="43.5827488" lon="10.8370072"><ele>158.0</ele><time>2026-04-04T14:38:22.954Z</time></trkpt><trkpt lat="43.582838" lon="10.8370329"><ele>158.0</ele><time>2026-04-04T14:38:24.957Z</time></trkpt><trkpt lat="43.5829317" lon="10.8370605"><ele>158.0</ele><time>2026-04-04T14:38:26.964Z</time></trkpt><trkpt lat="43.5830169" lon="10.8370854"><ele>158.0</ele><time>2026-04-04T14:38:28.971Z</time></trkpt><trkpt lat="43.5830945" lon="10.8371101"><ele>158.0</ele><time>2026-04-04T14:38:30.97Z</time></trkpt><trkpt lat="43.5831666" lon="10.8371302"><ele>158.0</ele><time>2026-04-04T14:38:32.979Z</time></trkpt><trkpt lat="43.5832331" lon="10.837157"><ele>159.0</ele><time>2026-04-04T14:38:34.958Z</time></trkpt><trkpt lat="43.5833051" lon="10.8371831"><ele>160.0</ele><time>2026-04-04T14:38:36.969Z</time></trkpt><trkpt lat="43.5833763" lon="10.8372075"><ele>161.0</ele><time>2026-04-04T14:38:38.969Z</time></trkpt><trkpt lat="43.5834362" lon="10.8372583"><ele>162.0</ele><time>2026-04-04T14:38:40.955Z</time></trkpt><trkpt lat="43.5835036" lon="10.837325"><ele>163.0</ele><time>2026-04-04T14:38:42.969Z</time></trkpt><trkpt lat="43.5835893" lon="10.8373872"><ele>164.0</ele><time>2026-04-04T14:38:44.979Z</time></trkpt><trkpt lat="43.5836856" lon="10.8374187"><ele>164.6</ele><time>2026-04-04T14:38:46.971Z</time></trkpt><trkpt lat="43.5837838" lon="10.8374427"><ele>165.2</ele><time>2026-04-04T14:38:48.952Z</time></trkpt><trkpt lat="43.583885" lon="10.8374628"><ele>165.79999999999998</ele><time>2026-04-04T14:38:50.965Z</time></trkpt><trkpt lat="43.5839802" lon="10.8375163"><ele>166.39999999999998</ele><time>2026-04-04T14:38:52.963Z</time></trkpt><trkpt lat="43.5840535" lon="10.8376129"><ele>167.0</ele><time>2026-04-04T14:38:54.976Z</time></trkpt><trkpt lat="43.5841314" lon="10.8376962"><ele>167.0</ele><time>2026-04-04T14:38:56.98Z</time></trkpt><trkpt lat="43.5841973" lon="10.8377499"><ele>167.0</ele><time>2026-04-04T14:38:58.954Z</time></trkpt><trkpt lat="43.584254" lon="10.8377906"><ele>167.0</ele><time>2026-04-04T14:39:00.965Z</time></trkpt><trkpt lat="43.5843155" lon="10.8378374"><ele>167.0</ele><time>2026-04-04T14:39:02.959Z</time></trkpt><trkpt lat="43.5843937" lon="10.8379058"><ele>167.0</ele><time>2026-04-04T14:39:04.957Z</time></trkpt><trkpt lat="43.5844851" lon="10.8380106"><ele>167.0</ele><time>2026-04-04T14:39:06.965Z</time></trkpt><trkpt lat="43.5845334" lon="10.8380667"><ele>167.16666666666666</ele><time>2026-04-04T14:39:07.957Z</time></trkpt><trkpt lat="43.5845848" lon="10.8381255"><ele>167.33333333333331</ele><time>2026-04-04T14:39:08.981Z</time></trkpt><trkpt lat="43.5846379" lon="10.838188"><ele>167.5</ele><time>2026-04-04T14:39:09.951Z</time></trkpt><trkpt lat="43.5846979" lon="10.8382615"><ele>167.66666666666666</ele><time>2026-04-04T14:39:10.96Z</time></trkpt><trkpt lat="43.5847575" lon="10.838339"><ele>167.83333333333334</ele><time>2026-04-04T14:39:11.957Z</time></trkpt><trkpt lat="43.5848157" lon="10.8384137"><ele>168.0</ele><time>2026-04-04T14:39:12.971Z</time></trkpt><trkpt lat="43.5848711" lon="10.8384824"><ele>168.0</ele><time>2026-04-04T14:39:13.963Z</time></trkpt><trkpt lat="43.5849249" lon="10.838545"><ele>168.0</ele><time>2026-04-04T14:39:14.95Z</time></trkpt><trkpt lat="43.5849797" lon="10.8386016"><ele>168.0</ele><time>2026-04-04T14:39:15.963Z</time></trkpt><trkpt lat="43.585041" lon="10.8386591"><ele>168.0</ele><time>2026-04-04T14:39:16.96Z</time></trkpt><trkpt lat="43.5851086" lon="10.8387137"><ele>168.0</ele><time>2026-04-04T14:39:17.972Z</time></trkpt><trkpt lat="43.5851776" lon="10.8387616"><ele>168.0</ele><time>2026-04-04T14:39:18.958Z</time></trkpt><trkpt lat="43.5852504" lon="10.8388106"><ele>168.0</ele><time>2026-04-04T14:39:19.968Z</time></trkpt><trkpt lat="43.5853234" lon="10.8388619"><ele>170.66666666666666</ele><time>2026-04-04T14:39:20.959Z</time></trkpt><trkpt lat="43.5853953" lon="10.8389033"><ele>173.33333333333334</ele><time>2026-04-04T14:39:21.955Z</time></trkpt><trkpt lat="43.5854629" lon="10.8389198"><ele>176.0</ele><time>2026-04-04T14:39:22.956Z</time></trkpt><trkpt lat="43.5855681" lon="10.8389104"><ele>178.66666666666669</ele><time>2026-04-04T14:39:24.972Z</time></trkpt><trkpt lat="43.5856382" lon="10.8388992"><ele>181.33333333333334</ele><time>2026-04-04T14:39:29.966Z</time></trkpt><trkpt lat="43.5857062" lon="10.8389054"><ele>184.0</ele><time>2026-04-04T14:39:31.952Z</time></trkpt><trkpt lat="43.5858106" lon="10.8389337"><ele>184.0</ele><time>2026-04-04T14:39:33.951Z</time></trkpt><trkpt lat="43.5859125" lon="10.8389933"><ele>184.0</ele><time>2026-04-04T14:39:35.953Z</time></trkpt><trkpt lat="43.5859995" lon="10.8390476"><ele>184.0</ele><time>2026-04-04T14:39:37.95Z</time></trkpt><trkpt lat="43.5860598" lon="10.8391078"><ele>184.0</ele><time>2026-04-04T14:39:39.956Z</time></trkpt><trkpt lat="43.5861337" lon="10.8391742"><ele>184.0</ele><time>2026-04-04T14:39:41.954Z</time></trkpt><trkpt lat="43.5862339" lon="10.8392739"><ele>186.0</ele><time>2026-04-04T14:39:43.966Z</time></trkpt><trkpt lat="43.5863251" lon="10.8393666"><ele>188.0</ele><time>2026-04-04T14:39:45.955Z</time></trkpt><trkpt lat="43.5863811" lon="10.8394177"><ele>190.0</ele><time>2026-04-04T14:39:47.97Z</time></trkpt><trkpt lat="43.5864549" lon="10.8394887"><ele>192.0</ele><time>2026-04-04T14:42:03.957Z</time></trkpt><trkpt lat="43.5865014" lon="10.839553"><ele>193.99999999999997</ele><time>2026-04-04T14:42:42.971Z</time></trkpt><trkpt lat="43.5865361" lon="10.8396573"><ele>196.0</ele><time>2026-04-04T14:42:44.955Z</time></trkpt><trkpt lat="43.5865602" lon="10.8397969"><ele>195.99999999999997</ele><time>2026-04-04T14:42:46.973Z</time></trkpt><trkpt lat="43.5865806" lon="10.8399259"><ele>196.0</ele><time>2026-04-04T14:42:48.962Z</time></trkpt><trkpt lat="43.586609" lon="10.8400372"><ele>196.0</ele><time>2026-04-04T14:42:50.959Z</time></trkpt><trkpt lat="43.5866389" lon="10.8401338"><ele>196.0</ele><time>2026-04-04T14:42:52.966Z</time></trkpt><trkpt lat="43.5866646" lon="10.8402169"><ele>195.99999999999997</ele><time>2026-04-04T14:42:54.955Z</time></trkpt><trkpt lat="43.5866901" lon="10.8403017"><ele>196.0</ele><time>2026-04-04T14:42:57.95Z</time></trkpt><trkpt lat="43.5866747" lon="10.8404278"><ele>195.83333333333331</ele><time>2026-04-04T14:43:00.965Z</time></trkpt><trkpt lat="43.5866715" lon="10.8405969"><ele>195.66666666666666</ele><time>2026-04-04T14:43:02.955Z</time></trkpt><trkpt lat="43.5866752" lon="10.8406957"><ele>195.5</ele><time>2026-04-04T14:43:03.977Z</time></trkpt><trkpt lat="43.5866776" lon="10.8407935"><ele>195.33333333333331</ele><time>2026-04-04T14:43:04.97Z</time></trkpt><trkpt lat="43.5866885" lon="10.8408873"><ele>195.16666666666666</ele><time>2026-04-04T14:43:05.957Z</time></trkpt><trkpt lat="43.5866985" lon="10.8409792"><ele>195.0</ele><time>2026-04-04T14:43:06.974Z</time></trkpt><trkpt lat="43.5867121" lon="10.8410702"><ele>194.4</ele><time>2026-04-04T14:43:07.955Z</time></trkpt><trkpt lat="43.5867348" lon="10.8411549"><ele>193.8</ele><time>2026-04-04T14:43:08.955Z</time></trkpt><trkpt lat="43.5868043" lon="10.8412953"><ele>193.2</ele><time>2026-04-04T14:43:10.98Z</time></trkpt><trkpt lat="43.5868853" lon="10.8414141"><ele>192.6</ele><time>2026-04-04T14:43:12.963Z</time></trkpt><trkpt lat="43.586964" lon="10.8415134"><ele>192.0</ele><time>2026-04-04T14:43:14.955Z</time></trkpt><trkpt lat="43.5870693" lon="10.8416072"><ele>191.66666666666666</ele><time>2026-04-04T14:43:16.952Z</time></trkpt><trkpt lat="43.5871318" lon="10.8416537"><ele>191.33333333333334</ele><time>2026-04-04T14:43:17.981Z</time></trkpt><trkpt lat="43.5871967" lon="10.8417028"><ele>191.0</ele><time>2026-04-04T14:43:18.954Z</time></trkpt><trkpt lat="43.5872617" lon="10.8417552"><ele>190.66666666666669</ele><time>2026-04-04T14:43:19.957Z</time></trkpt><trkpt lat="43.5873299" lon="10.8418072"><ele>190.33333333333334</ele><time>2026-04-04T14:43:20.964Z</time></trkpt><trkpt lat="43.5873993" lon="10.8418584"><ele>190.0</ele><time>2026-04-04T14:43:21.956Z</time></trkpt><trkpt lat="43.5874696" lon="10.8419006"><ele>189.4</ele><time>2026-04-04T14:43:22.972Z</time></trkpt><trkpt lat="43.5875346" lon="10.8419358"><ele>188.8</ele><time>2026-04-04T14:43:23.953Z</time></trkpt><trkpt lat="43.5876508" lon="10.8419992"><ele>188.2</ele><time>2026-04-04T14:43:25.968Z</time></trkpt><trkpt lat="43.5877106" lon="10.8420349"><ele>187.6</ele><time>2026-04-04T14:43:26.95Z</time></trkpt><trkpt lat="43.5877687" lon="10.8420684"><ele>187.0</ele><time>2026-04-04T14:43:27.965Z</time></trkpt><trkpt lat="43.587889" lon="10.8421278"><ele>187.0</ele><time>2026-04-04T14:43:29.96Z</time></trkpt><trkpt lat="43.5879512" lon="10.8421608"><ele>187.0</ele><time>2026-04-04T14:43:30.973Z</time></trkpt><trkpt lat="43.5880129" lon="10.842193"><ele>187.0</ele><time>2026-04-04T14:43:31.955Z</time></trkpt><trkpt lat="43.5880792" lon="10.8422241"><ele>187.0</ele><time>2026-04-04T14:43:32.955Z</time></trkpt><trkpt lat="43.5881536" lon="10.8422676"><ele>187.0</ele><time>2026-04-04T14:43:33.956Z</time></trkpt><trkpt lat="43.5882248" lon="10.8423201"><ele>187.0</ele><time>2026-04-04T14:43:34.954Z</time></trkpt><trkpt lat="43.5882952" lon="10.842373"><ele>187.0</ele><time>2026-04-04T14:43:35.965Z</time></trkpt><trkpt lat="43.5883623" lon="10.842443"><ele>187.0</ele><time>2026-04-04T14:43:36.953Z</time></trkpt><trkpt lat="43.5884274" lon="10.8425273"><ele>187.0</ele><time>2026-04-04T14:43:37.955Z</time></trkpt><trkpt lat="43.5884847" lon="10.8426188"><ele>187.0</ele><time>2026-04-04T14:43:38.972Z</time></trkpt><trkpt lat="43.5885375" lon="10.8427113"><ele>187.0</ele><time>2026-04-04T14:43:39.957Z</time></trkpt><trkpt lat="43.5885873" lon="10.8428068"><ele>187.0</ele><time>2026-04-04T14:43:40.973Z</time></trkpt><trkpt lat="43.5886333" lon="10.8429058"><ele>187.0</ele><time>2026-04-04T14:43:41.955Z</time></trkpt><trkpt lat="43.5886789" lon="10.8430106"><ele>186.66666666666669</ele><time>2026-04-04T14:43:42.967Z</time></trkpt><trkpt lat="43.5887243" lon="10.8431165"><ele>186.33333333333334</ele><time>2026-04-04T14:43:43.952Z</time></trkpt><trkpt lat="43.5887689" lon="10.8432195"><ele>186.0</ele><time>2026-04-04T14:43:44.968Z</time></trkpt><trkpt lat="43.5888124" lon="10.8433169"><ele>185.66666666666666</ele><time>2026-04-04T14:43:45.952Z</time></trkpt><trkpt lat="43.5888628" lon="10.8434109"><ele>185.33333333333331</ele><time>2026-04-04T14:43:46.966Z</time></trkpt><trkpt lat="43.5889127" lon="10.8435056"><ele>185.0</ele><time>2026-04-04T14:43:47.956Z</time></trkpt><trkpt lat="43.5889599" lon="10.8435906"><ele>185.0</ele><time>2026-04-04T14:43:48.969Z</time></trkpt><trkpt lat="43.5890026" lon="10.8436658"><ele>185.0</ele><time>2026-04-04T14:43:49.969Z</time></trkpt><trkpt lat="43.5890707" lon="10.8437817"><ele>185.0</ele><time>2026-04-04T14:43:51.961Z</time></trkpt><trkpt lat="43.5891393" lon="10.8438949"><ele>185.0</ele><time>2026-04-04T14:43:53.955Z</time></trkpt><trkpt lat="43.5892103" lon="10.8440011"><ele>185.0</ele><time>2026-04-04T14:43:55.963Z</time></trkpt><trkpt lat="43.5892832" lon="10.8441111"><ele>185.0</ele><time>2026-04-04T14:43:57.963Z</time></trkpt><trkpt lat="43.5893629" lon="10.8442427"><ele>185.0</ele><time>2026-04-04T14:43:59.968Z</time></trkpt><trkpt lat="43.5894069" lon="10.8443117"><ele>185.0</ele><time>2026-04-04T14:44:00.952Z</time></trkpt><trkpt lat="43.5894469" lon="10.8444009"><ele>185.0</ele><time>2026-04-04T14:44:01.951Z</time></trkpt><trkpt lat="43.5894764" lon="10.84449"><ele>185.0</ele><time>2026-04-04T14:44:02.961Z</time></trkpt><trkpt lat="43.5895075" lon="10.8445749"><ele>185.0</ele><time>2026-04-04T14:44:03.967Z</time></trkpt><trkpt lat="43.5895427" lon="10.8446527"><ele>185.8</ele><time>2026-04-04T14:44:04.955Z</time></trkpt><trkpt lat="43.5895833" lon="10.8447199"><ele>186.6</ele><time>2026-04-04T14:44:05.969Z</time></trkpt><trkpt lat="43.5896745" lon="10.8448149"><ele>187.39999999999998</ele><time>2026-04-04T14:44:07.963Z</time></trkpt><trkpt lat="43.5897859" lon="10.8448326"><ele>188.2</ele><time>2026-04-04T14:44:09.967Z</time></trkpt><trkpt lat="43.5899095" lon="10.8448439"><ele>189.0</ele><time>2026-04-04T14:44:11.973Z</time></trkpt><trkpt lat="43.5899741" lon="10.8448428"><ele>189.0</ele><time>2026-04-04T14:44:12.968Z</time></trkpt><trkpt lat="43.5900798" lon="10.8448447"><ele>189.0</ele><time>2026-04-04T14:44:14.975Z</time></trkpt><trkpt lat="43.5901435" lon="10.8448364"><ele>189.0</ele><time>2026-04-04T14:44:17.974Z</time></trkpt><trkpt lat="43.5901856" lon="10.8447513"><ele>189.0</ele><time>2026-04-04T14:44:59.97Z</time></trkpt><trkpt lat="43.5902429" lon="10.8446112"><ele>189.0</ele><time>2026-04-04T14:45:01.961Z</time></trkpt><trkpt lat="43.5902829" lon="10.8444899"><ele>189.0</ele><time>2026-04-04T14:45:03.981Z</time></trkpt><trkpt lat="43.5903254" lon="10.8444101"><ele>189.0</ele><time>2026-04-04T14:45:05.967Z</time></trkpt><trkpt lat="43.5904014" lon="10.8443453"><ele>189.0</ele><time>2026-04-04T14:45:07.96Z</time></trkpt><trkpt lat="43.5904657" lon="10.8443225"><ele>189.0</ele><time>2026-04-04T14:45:08.948Z</time></trkpt><trkpt lat="43.5905298" lon="10.8443007"><ele>189.0</ele><time>2026-04-04T14:45:09.96Z</time></trkpt><trkpt lat="43.5906379" lon="10.8442801"><ele>189.0</ele><time>2026-04-04T14:45:11.956Z</time></trkpt><trkpt lat="43.5907327" lon="10.8443443"><ele>192.33333333333334</ele><time>2026-04-04T14:45:13.966Z</time></trkpt><trkpt lat="43.5907779" lon="10.8444133"><ele>195.66666666666669</ele><time>2026-04-04T14:45:14.96Z</time></trkpt><trkpt lat="43.5908237" lon="10.8444782"><ele>199.0</ele><time>2026-04-04T14:45:15.975Z</time></trkpt><trkpt lat="43.590881" lon="10.8445387"><ele>202.33333333333334</ele><time>2026-04-04T14:45:16.95Z</time></trkpt><trkpt lat="43.5909394" lon="10.8445788"><ele>205.66666666666669</ele><time>2026-04-04T14:45:17.956Z</time></trkpt><trkpt lat="43.5910569" lon="10.8446265"><ele>209.0</ele><time>2026-04-04T14:45:19.961Z</time></trkpt><trkpt lat="43.5911758" lon="10.8446385"><ele>209.83333333333334</ele><time>2026-04-04T14:45:21.971Z</time></trkpt><trkpt lat="43.5912726" lon="10.8447137"><ele>210.66666666666669</ele><time>2026-04-04T14:45:23.972Z</time></trkpt><trkpt lat="43.5913212" lon="10.8448715"><ele>211.5</ele><time>2026-04-04T14:45:25.965Z</time></trkpt><trkpt lat="43.5913396" lon="10.8449634"><ele>212.33333333333331</ele><time>2026-04-04T14:45:26.95Z</time></trkpt><trkpt lat="43.591357" lon="10.8450529"><ele>213.16666666666666</ele><time>2026-04-04T14:45:27.958Z</time></trkpt><trkpt lat="43.591381" lon="10.8451439"><ele>214.0</ele><time>2026-04-04T14:45:28.951Z</time></trkpt><trkpt lat="43.5914144" lon="10.8452278"><ele>214.99999999999997</ele><time>2026-04-04T14:45:29.948Z</time></trkpt><trkpt lat="43.5914481" lon="10.8453065"><ele>216.0</ele><time>2026-04-04T14:45:30.952Z</time></trkpt><trkpt lat="43.5915373" lon="10.8454315"><ele>217.0</ele><time>2026-04-04T14:45:32.956Z</time></trkpt><trkpt lat="43.5916099" lon="10.8454656"><ele>218.0</ele><time>2026-04-04T14:45:33.954Z</time></trkpt><trkpt lat="43.5916969" lon="10.8454805"><ele>218.99999999999997</ele><time>2026-04-04T14:45:34.964Z</time></trkpt><trkpt lat="43.5917833" lon="10.8454893"><ele>220.0</ele><time>2026-04-04T14:45:35.956Z</time></trkpt><trkpt lat="43.5918771" lon="10.8454855"><ele>220.0</ele><time>2026-04-04T14:45:36.951Z</time></trkpt><trkpt lat="43.5919757" lon="10.8454848"><ele>220.0</ele><time>2026-04-04T14:45:37.966Z</time></trkpt><trkpt lat="43.5920739" lon="10.845482"><ele>220.0</ele><time>2026-04-04T14:45:38.962Z</time></trkpt><trkpt lat="43.5921711" lon="10.8454816"><ele>220.0</ele><time>2026-04-04T14:45:39.97Z</time></trkpt><trkpt lat="43.5922668" lon="10.845487"><ele>220.0</ele><time>2026-04-04T14:45:40.973Z</time></trkpt><trkpt lat="43.5923618" lon="10.8454929"><ele>220.99999999999997</ele><time>2026-04-04T14:45:41.974Z</time></trkpt><trkpt lat="43.5924566" lon="10.845508"><ele>222.0</ele><time>2026-04-04T14:45:42.975Z</time></trkpt><trkpt lat="43.5925485" lon="10.8455193"><ele>223.0</ele><time>2026-04-04T14:45:43.975Z</time></trkpt><trkpt lat="43.5926321" lon="10.8455293"><ele>224.0</ele><time>2026-04-04T14:45:44.968Z</time></trkpt><trkpt lat="43.5927133" lon="10.8455515"><ele>224.99999999999997</ele><time>2026-04-04T14:45:45.953Z</time></trkpt><trkpt lat="43.5927897" lon="10.8455776"><ele>226.0</ele><time>2026-04-04T14:45:46.963Z</time></trkpt><trkpt lat="43.5928622" lon="10.8456027"><ele>226.49999999999997</ele><time>2026-04-04T14:45:47.973Z</time></trkpt><trkpt lat="43.5929317" lon="10.8456392"><ele>227.0</ele><time>2026-04-04T14:45:48.973Z</time></trkpt><trkpt lat="43.5929959" lon="10.8456693"><ele>227.5</ele><time>2026-04-04T14:45:49.982Z</time></trkpt><trkpt lat="43.5931064" lon="10.8457226"><ele>228.0</ele><time>2026-04-04T14:45:51.954Z</time></trkpt><trkpt lat="43.5931851" lon="10.8457679"><ele>228.49999999999997</ele><time>2026-04-04T14:45:54.968Z</time></trkpt><trkpt lat="43.5932686" lon="10.8458102"><ele>229.0</ele><time>2026-04-04T14:45:56.967Z</time></trkpt><trkpt lat="43.5933318" lon="10.8458418"><ele>228.99999999999997</ele><time>2026-04-04T14:45:57.954Z</time></trkpt><trkpt lat="43.5933978" lon="10.8458768"><ele>229.0</ele><time>2026-04-04T14:45:58.976Z</time></trkpt><trkpt lat="43.5934625" lon="10.8459178"><ele>229.0</ele><time>2026-04-04T14:45:59.961Z</time></trkpt><trkpt lat="43.5935329" lon="10.8459568"><ele>229.0</ele><time>2026-04-04T14:46:00.956Z</time></trkpt><trkpt lat="43.5936071" lon="10.8459869"><ele>228.99999999999997</ele><time>2026-04-04T14:46:01.969Z</time></trkpt><trkpt lat="43.5936883" lon="10.8460129"><ele>229.0</ele><time>2026-04-04T14:46:02.968Z</time></trkpt><trkpt lat="43.593768" lon="10.8460433"><ele>227.66666666666666</ele><time>2026-04-04T14:46:03.974Z</time></trkpt><trkpt lat="43.5938465" lon="10.8460739"><ele>226.33333333333331</ele><time>2026-04-04T14:46:04.962Z</time></trkpt><trkpt lat="43.5939258" lon="10.8461056"><ele>225.0</ele><time>2026-04-04T14:46:05.964Z</time></trkpt><trkpt lat="43.594004" lon="10.8461416"><ele>223.66666666666669</ele><time>2026-04-04T14:46:06.953Z</time></trkpt><trkpt lat="43.5940797" lon="10.8461723"><ele>222.33333333333334</ele><time>2026-04-04T14:46:07.967Z</time></trkpt><trkpt lat="43.5941534" lon="10.8462011"><ele>221.0</ele><time>2026-04-04T14:46:08.965Z</time></trkpt><trkpt lat="43.5942325" lon="10.8462096"><ele>221.0</ele><time>2026-04-04T14:46:09.97Z</time></trkpt><trkpt lat="43.5943175" lon="10.8462292"><ele>221.00000000000003</ele><time>2026-04-04T14:46:10.974Z</time></trkpt><trkpt lat="43.5944025" lon="10.8462524"><ele>221.00000000000003</ele><time>2026-04-04T14:46:11.96Z</time></trkpt><trkpt lat="43.5944913" lon="10.8463041"><ele>221.0</ele><time>2026-04-04T14:46:12.95Z</time></trkpt><trkpt lat="43.5945812" lon="10.8463536"><ele>221.0</ele><time>2026-04-04T14:46:13.975Z</time></trkpt><trkpt lat="43.5946635" lon="10.8464005"><ele>220.83333333333334</ele><time>2026-04-04T14:46:14.957Z</time></trkpt><trkpt lat="43.5947361" lon="10.8464432"><ele>220.66666666666669</ele><time>2026-04-04T14:46:15.976Z</time></trkpt><trkpt lat="43.5948003" lon="10.8464847"><ele>220.5</ele><time>2026-04-04T14:46:16.957Z</time></trkpt><trkpt lat="43.5949024" lon="10.8465717"><ele>220.33333333333331</ele><time>2026-04-04T14:46:18.955Z</time></trkpt><trkpt lat="43.5949721" lon="10.8466742"><ele>220.16666666666666</ele><time>2026-04-04T14:46:20.966Z</time></trkpt><trkpt lat="43.5950032" lon="10.8467531"><ele>220.0</ele><time>2026-04-04T14:46:34.962Z</time></trkpt><trkpt lat="43.5950288" lon="10.8468526"><ele>219.8</ele><time>2026-04-04T14:46:36.971Z</time></trkpt><trkpt lat="43.5950602" lon="10.84703"><ele>219.6</ele><time>2026-04-04T14:46:38.982Z</time></trkpt><trkpt lat="43.5950789" lon="10.8471326"><ele>219.39999999999998</ele><time>2026-04-04T14:46:39.982Z</time></trkpt><trkpt lat="43.5951013" lon="10.8472448"><ele>219.2</ele><time>2026-04-04T14:46:40.953Z</time></trkpt><trkpt lat="43.5951238" lon="10.8473581"><ele>219.0</ele><time>2026-04-04T14:46:41.963Z</time></trkpt><trkpt lat="43.5951452" lon="10.8474711"><ele>219.0</ele><time>2026-04-04T14:46:42.957Z</time></trkpt><trkpt lat="43.5951643" lon="10.8475835"><ele>219.0</ele><time>2026-04-04T14:46:43.969Z</time></trkpt><trkpt lat="43.5951848" lon="10.8476909"><ele>219.0</ele><time>2026-04-04T14:46:44.957Z</time></trkpt><trkpt lat="43.5952041" lon="10.8477959"><ele>219.0</ele><time>2026-04-04T14:46:45.965Z</time></trkpt><trkpt lat="43.5952235" lon="10.8478999"><ele>219.0</ele><time>2026-04-04T14:46:46.961Z</time></trkpt><trkpt lat="43.5952414" lon="10.8480099"><ele>219.0</ele><time>2026-04-04T14:46:47.952Z</time></trkpt><trkpt lat="43.5952615" lon="10.8481253"><ele>218.79999999999998</ele><time>2026-04-04T14:46:48.974Z</time></trkpt><trkpt lat="43.5952811" lon="10.8482485"><ele>218.59999999999997</ele><time>2026-04-04T14:46:49.959Z</time></trkpt><trkpt lat="43.5953008" lon="10.8483742"><ele>218.4</ele><time>2026-04-04T14:46:50.966Z</time></trkpt><trkpt lat="43.5953151" lon="10.8485095"><ele>218.2</ele><time>2026-04-04T14:46:51.949Z</time></trkpt><trkpt lat="43.5953291" lon="10.8486458"><ele>218.0</ele><time>2026-04-04T14:46:52.952Z</time></trkpt><trkpt lat="43.5953386" lon="10.8487736"><ele>216.66666666666669</ele><time>2026-04-04T14:46:53.97Z</time></trkpt><trkpt lat="43.5953424" lon="10.8488998"><ele>215.33333333333334</ele><time>2026-04-04T14:46:54.966Z</time></trkpt><trkpt lat="43.5953445" lon="10.8490286"><ele>214.0</ele><time>2026-04-04T14:46:55.967Z</time></trkpt><trkpt lat="43.5953422" lon="10.8491466"><ele>212.66666666666669</ele><time>2026-04-04T14:46:56.967Z</time></trkpt><trkpt lat="43.5953392" lon="10.8492605"><ele>211.33333333333334</ele><time>2026-04-04T14:46:57.968Z</time></trkpt><trkpt lat="43.595335" lon="10.8493731"><ele>210.0</ele><time>2026-04-04T14:46:58.957Z</time></trkpt><trkpt lat="43.5953287" lon="10.849489"><ele>210.0</ele><time>2026-04-04T14:46:59.955Z</time></trkpt><trkpt lat="43.5953227" lon="10.8496068"><ele>210.0</ele><time>2026-04-04T14:47:00.96Z</time></trkpt><trkpt lat="43.5953209" lon="10.8497376"><ele>210.0</ele><time>2026-04-04T14:47:01.96Z</time></trkpt><trkpt lat="43.5953223" lon="10.8498825"><ele>210.0</ele><time>2026-04-04T14:47:02.967Z</time></trkpt><trkpt lat="43.5953372" lon="10.8500103"><ele>210.0</ele><time>2026-04-04T14:47:03.958Z</time></trkpt><trkpt lat="43.595352" lon="10.8501322"><ele>208.0</ele><time>2026-04-04T14:47:04.961Z</time></trkpt><trkpt lat="43.5953641" lon="10.8502507"><ele>206.0</ele><time>2026-04-04T14:47:05.966Z</time></trkpt><trkpt lat="43.5953522" lon="10.8503699"><ele>204.0</ele><time>2026-04-04T14:47:06.961Z</time></trkpt><trkpt lat="43.5953287" lon="10.8504884"><ele>202.0</ele><time>2026-04-04T14:47:07.97Z</time></trkpt><trkpt lat="43.5952947" lon="10.8505997"><ele>200.0</ele><time>2026-04-04T14:47:08.969Z</time></trkpt><trkpt lat="43.595265" lon="10.8507085"><ele>198.0</ele><time>2026-04-04T14:47:09.972Z</time></trkpt><trkpt lat="43.595252" lon="10.8508197"><ele>197.83333333333334</ele><time>2026-04-04T14:47:10.973Z</time></trkpt><trkpt lat="43.5952567" lon="10.8509356"><ele>197.66666666666669</ele><time>2026-04-04T14:47:11.958Z</time></trkpt><trkpt lat="43.5952744" lon="10.8510521"><ele>197.5</ele><time>2026-04-04T14:47:12.965Z</time></trkpt><trkpt lat="43.595299" lon="10.8511652"><ele>197.33333333333334</ele><time>2026-04-04T14:47:13.971Z</time></trkpt><trkpt lat="43.5953308" lon="10.8512658"><ele>197.16666666666669</ele><time>2026-04-04T14:47:14.965Z</time></trkpt><trkpt lat="43.5953611" lon="10.8513591"><ele>197.0</ele><time>2026-04-04T14:47:15.951Z</time></trkpt><trkpt lat="43.5954187" lon="10.8514316"><ele>198.50000000000003</ele><time>2026-04-04T14:47:16.966Z</time></trkpt><trkpt lat="43.5954768" lon="10.8514993"><ele>200.0</ele><time>2026-04-04T14:47:17.965Z</time></trkpt><trkpt lat="43.5955446" lon="10.8515531"><ele>201.5</ele><time>2026-04-04T14:47:18.972Z</time></trkpt><trkpt lat="43.5956298" lon="10.8515712"><ele>203.0</ele><time>2026-04-04T14:47:19.951Z</time></trkpt><trkpt lat="43.5957233" lon="10.8515716"><ele>204.50000000000003</ele><time>2026-04-04T14:47:20.955Z</time></trkpt><trkpt lat="43.5958191" lon="10.8515592"><ele>206.0</ele><time>2026-04-04T14:47:21.954Z</time></trkpt><trkpt lat="43.5959186" lon="10.8515449"><ele>206.0</ele><time>2026-04-04T14:47:22.961Z</time></trkpt><trkpt lat="43.5960225" lon="10.8515187"><ele>206.0</ele><time>2026-04-04T14:47:23.964Z</time></trkpt><trkpt lat="43.5961284" lon="10.8514982"><ele>206.0</ele><time>2026-04-04T14:47:24.962Z</time></trkpt><trkpt lat="43.5962364" lon="10.8514814"><ele>206.0</ele><time>2026-04-04T14:47:25.976Z</time></trkpt><trkpt lat="43.5963428" lon="10.8514693"><ele>206.0</ele><time>2026-04-04T14:47:26.97Z</time></trkpt><trkpt lat="43.5964422" lon="10.8514621"><ele>205.0</ele><time>2026-04-04T14:47:27.955Z</time></trkpt><trkpt lat="43.5965361" lon="10.8514699"><ele>204.0</ele><time>2026-04-04T14:47:28.981Z</time></trkpt><trkpt lat="43.5966307" lon="10.8514951"><ele>203.0</ele><time>2026-04-04T14:47:29.963Z</time></trkpt><trkpt lat="43.5967249" lon="10.8515383"><ele>202.0</ele><time>2026-04-04T14:47:30.954Z</time></trkpt><trkpt lat="43.5968189" lon="10.8515814"><ele>201.0</ele><time>2026-04-04T14:47:31.963Z</time></trkpt><trkpt lat="43.5969102" lon="10.8516319"><ele>201.0</ele><time>2026-04-04T14:47:32.964Z</time></trkpt><trkpt lat="43.5969947" lon="10.8516792"><ele>201.0</ele><time>2026-04-04T14:47:33.97Z</time></trkpt><trkpt lat="43.5970764" lon="10.8517203"><ele>201.0</ele><time>2026-04-04T14:47:34.974Z</time></trkpt><trkpt lat="43.5971646" lon="10.8517352"><ele>201.0</ele><time>2026-04-04T14:47:35.959Z</time></trkpt><trkpt lat="43.5972604" lon="10.851729"><ele>201.0</ele><time>2026-04-04T14:47:36.965Z</time></trkpt><trkpt lat="43.5973582" lon="10.851722"><ele>201.4</ele><time>2026-04-04T14:47:37.952Z</time></trkpt><trkpt lat="43.5974562" lon="10.8517013"><ele>201.8</ele><time>2026-04-04T14:47:38.954Z</time></trkpt><trkpt lat="43.5975587" lon="10.8516734"><ele>202.20000000000002</ele><time>2026-04-04T14:47:39.969Z</time></trkpt><trkpt lat="43.5976628" lon="10.8516466"><ele>202.60000000000002</ele><time>2026-04-04T14:47:40.957Z</time></trkpt><trkpt lat="43.5977686" lon="10.8516191"><ele>203.0</ele><time>2026-04-04T14:47:41.966Z</time></trkpt><trkpt lat="43.5978728" lon="10.851596"><ele>203.4</ele><time>2026-04-04T14:47:42.969Z</time></trkpt><trkpt lat="43.5979738" lon="10.8515925"><ele>203.8</ele><time>2026-04-04T14:47:43.967Z</time></trkpt><trkpt lat="43.5980708" lon="10.8516027"><ele>204.2</ele><time>2026-04-04T14:47:44.967Z</time></trkpt><trkpt lat="43.5981691" lon="10.8516293"><ele>204.6</ele><time>2026-04-04T14:47:45.96Z</time></trkpt><trkpt lat="43.5982689" lon="10.8516608"><ele>205.0</ele><time>2026-04-04T14:47:46.951Z</time></trkpt><trkpt lat="43.5983675" lon="10.851694"><ele>205.0</ele><time>2026-04-04T14:47:47.957Z</time></trkpt><trkpt lat="43.5984697" lon="10.8517352"><ele>205.0</ele><time>2026-04-04T14:47:48.953Z</time></trkpt><trkpt lat="43.5985719" lon="10.8517805"><ele>205.0</ele><time>2026-04-04T14:47:49.967Z</time></trkpt><trkpt lat="43.5986653" lon="10.8518355"><ele>205.0</ele><time>2026-04-04T14:47:50.96Z</time></trkpt><trkpt lat="43.5987502" lon="10.8519093"><ele>205.0</ele><time>2026-04-04T14:47:51.954Z</time></trkpt><trkpt lat="43.5988285" lon="10.8520011"><ele>204.4</ele><time>2026-04-04T14:47:52.978Z</time></trkpt><trkpt lat="43.5989138" lon="10.8520948"><ele>203.8</ele><time>2026-04-04T14:47:53.97Z</time></trkpt><trkpt lat="43.5990039" lon="10.8521837"><ele>203.2</ele><time>2026-04-04T14:47:54.967Z</time></trkpt><trkpt lat="43.5990936" lon="10.8522609"><ele>202.6</ele><time>2026-04-04T14:47:55.962Z</time></trkpt><trkpt lat="43.5991847" lon="10.8523262"><ele>202.0</ele><time>2026-04-04T14:47:56.971Z</time></trkpt><trkpt lat="43.5992652" lon="10.8523805"><ele>201.99999999999997</ele><time>2026-04-04T14:47:57.96Z</time></trkpt><trkpt lat="43.5993355" lon="10.8524278"><ele>202.0</ele><time>2026-04-04T14:47:58.951Z</time></trkpt><trkpt lat="43.599447" lon="10.8525037"><ele>202.0</ele><time>2026-04-04T14:48:00.952Z</time></trkpt><trkpt lat="43.5995095" lon="10.8525394"><ele>202.0</ele><time>2026-04-04T14:48:01.972Z</time></trkpt><trkpt lat="43.5995853" lon="10.8525778"><ele>201.99999999999997</ele><time>2026-04-04T14:48:02.952Z</time></trkpt><trkpt lat="43.5996667" lon="10.8526041"><ele>202.0</ele><time>2026-04-04T14:48:03.963Z</time></trkpt><trkpt lat="43.5997488" lon="10.8526217"><ele>197.39999999999998</ele><time>2026-04-04T14:48:04.965Z</time></trkpt><trkpt lat="43.5998351" lon="10.8526319"><ele>192.79999999999998</ele><time>2026-04-04T14:48:05.951Z</time></trkpt><trkpt lat="43.5999282" lon="10.8526354"><ele>188.2</ele><time>2026-04-04T14:48:06.957Z</time></trkpt><trkpt lat="43.6000356" lon="10.8526386"><ele>183.6</ele><time>2026-04-04T14:48:07.963Z</time></trkpt><trkpt lat="43.600152" lon="10.8526445"><ele>179.0</ele><time>2026-04-04T14:48:08.962Z</time></trkpt><trkpt lat="43.600272" lon="10.8526499"><ele>178.6</ele><time>2026-04-04T14:48:09.974Z</time></trkpt><trkpt lat="43.6003881" lon="10.8526595"><ele>178.2</ele><time>2026-04-04T14:48:10.97Z</time></trkpt><trkpt lat="43.6004991" lon="10.8526677"><ele>177.79999999999998</ele><time>2026-04-04T14:48:11.951Z</time></trkpt><trkpt lat="43.6006098" lon="10.8526763"><ele>177.39999999999998</ele><time>2026-04-04T14:48:12.956Z</time></trkpt><trkpt lat="43.6007112" lon="10.8526815"><ele>177.0</ele><time>2026-04-04T14:48:13.958Z</time></trkpt><trkpt lat="43.6008089" lon="10.8526913"><ele>177.0</ele><time>2026-04-04T14:48:14.962Z</time></trkpt><trkpt lat="43.6009023" lon="10.8526996"><ele>177.0</ele><time>2026-04-04T14:48:15.969Z</time></trkpt><trkpt lat="43.6009872" lon="10.8527077"><ele>177.0</ele><time>2026-04-04T14:48:16.959Z</time></trkpt><trkpt lat="43.6010691" lon="10.85273"><ele>177.0</ele><time>2026-04-04T14:48:17.958Z</time></trkpt><trkpt lat="43.6011427" lon="10.852765"><ele>177.0</ele><time>2026-04-04T14:48:18.969Z</time></trkpt><trkpt lat="43.6012104" lon="10.8528128"><ele>177.0</ele><time>2026-04-04T14:48:19.966Z</time></trkpt><trkpt lat="43.6012773" lon="10.8528528"><ele>178.39999999999998</ele><time>2026-04-04T14:48:20.961Z</time></trkpt><trkpt lat="43.6013366" lon="10.8529224"><ele>179.79999999999998</ele><time>2026-04-04T14:48:21.963Z</time></trkpt><trkpt lat="43.6013955" lon="10.8529894"><ele>181.2</ele><time>2026-04-04T14:48:22.958Z</time></trkpt><trkpt lat="43.6014648" lon="10.8530704"><ele>182.6</ele><time>2026-04-04T14:48:23.952Z</time></trkpt><trkpt lat="43.6015432" lon="10.8531597"><ele>184.0</ele><time>2026-04-04T14:48:24.962Z</time></trkpt><trkpt lat="43.6016312" lon="10.8532599"><ele>184.0</ele><time>2026-04-04T14:48:25.967Z</time></trkpt><trkpt lat="43.60172" lon="10.8533622"><ele>184.0</ele><time>2026-04-04T14:48:26.973Z</time></trkpt><trkpt lat="43.6018074" lon="10.8534633"><ele>184.0</ele><time>2026-04-04T14:48:27.953Z</time></trkpt><trkpt lat="43.6018947" lon="10.8535646"><ele>184.0</ele><time>2026-04-04T14:48:28.967Z</time></trkpt><trkpt lat="43.6019795" lon="10.8536608"><ele>182.75</ele><time>2026-04-04T14:48:29.963Z</time></trkpt><trkpt lat="43.6020759" lon="10.8537643"><ele>181.5</ele><time>2026-04-04T14:48:30.969Z</time></trkpt><trkpt lat="43.6021773" lon="10.8538799"><ele>180.25</ele><time>2026-04-04T14:48:31.951Z</time></trkpt><trkpt lat="43.6022799" lon="10.8539943"><ele>179.0</ele><time>2026-04-04T14:48:32.963Z</time></trkpt><trkpt lat="43.6023896" lon="10.854116"><ele>179.0</ele><time>2026-04-04T14:48:33.972Z</time></trkpt><trkpt lat="43.6025007" lon="10.8542356"><ele>179.0</ele><time>2026-04-04T14:48:34.949Z</time></trkpt><trkpt lat="43.6026134" lon="10.8543589"><ele>179.0</ele><time>2026-04-04T14:48:35.974Z</time></trkpt><trkpt lat="43.6027266" lon="10.8544874"><ele>179.0</ele><time>2026-04-04T14:48:36.978Z</time></trkpt><trkpt lat="43.6028412" lon="10.8546152"><ele>177.25</ele><time>2026-04-04T14:48:37.966Z</time></trkpt><trkpt lat="43.6029572" lon="10.8547432"><ele>175.5</ele><time>2026-04-04T14:48:38.973Z</time></trkpt><trkpt lat="43.6030744" lon="10.8548717"><ele>173.75</ele><time>2026-04-04T14:48:39.969Z</time></trkpt><trkpt lat="43.6031931" lon="10.8549964"><ele>172.0</ele><time>2026-04-04T14:48:40.961Z</time></trkpt><trkpt lat="43.6033106" lon="10.8551198"><ele>173.5</ele><time>2026-04-04T14:48:41.954Z</time></trkpt><trkpt lat="43.6034251" lon="10.8552477"><ele>175.0</ele><time>2026-04-04T14:48:42.962Z</time></trkpt><trkpt lat="43.6035387" lon="10.8553708"><ele>176.5</ele><time>2026-04-04T14:48:43.959Z</time></trkpt><trkpt lat="43.6036519" lon="10.8554961"><ele>178.0</ele><time>2026-04-04T14:48:44.965Z</time></trkpt><trkpt lat="43.6037646" lon="10.8556141"><ele>178.0</ele><time>2026-04-04T14:48:45.962Z</time></trkpt><trkpt lat="43.6038742" lon="10.8557325"><ele>178.0</ele><time>2026-04-04T14:48:46.976Z</time></trkpt><trkpt lat="43.6039832" lon="10.8558514"><ele>178.0</ele><time>2026-04-04T14:48:47.971Z</time></trkpt><trkpt lat="43.6040906" lon="10.8559669"><ele>178.0</ele><time>2026-04-04T14:48:48.965Z</time></trkpt><trkpt lat="43.6041938" lon="10.8560789"><ele>178.4</ele><time>2026-04-04T14:48:49.959Z</time></trkpt><trkpt lat="43.6042936" lon="10.8561833"><ele>178.8</ele><time>2026-04-04T14:48:50.962Z</time></trkpt><trkpt lat="43.604377" lon="10.8562795"><ele>179.2</ele><time>2026-04-04T14:48:51.97Z</time></trkpt><trkpt lat="43.6044469" lon="10.8563706"><ele>179.6</ele><time>2026-04-04T14:48:52.978Z</time></trkpt><trkpt lat="43.6045106" lon="10.8564683"><ele>180.0</ele><time>2026-04-04T14:48:53.972Z</time></trkpt><trkpt lat="43.6045709" lon="10.8565881"><ele>179.75</ele><time>2026-04-04T14:48:54.974Z</time></trkpt><trkpt lat="43.604629" lon="10.8567214"><ele>179.5</ele><time>2026-04-04T14:48:55.953Z</time></trkpt><trkpt lat="43.6046881" lon="10.8568565"><ele>179.25</ele><time>2026-04-04T14:48:56.967Z</time></trkpt><trkpt lat="43.6047399" lon="10.8570035"><ele>179.0</ele><time>2026-04-04T14:48:57.954Z</time></trkpt><trkpt lat="43.6047884" lon="10.8571523"><ele>179.0</ele><time>2026-04-04T14:48:58.975Z</time></trkpt><trkpt lat="43.6048356" lon="10.8573103"><ele>179.0</ele><time>2026-04-04T14:48:59.96Z</time></trkpt><trkpt lat="43.6048689" lon="10.857484"><ele>179.0</ele><time>2026-04-04T14:49:00.972Z</time></trkpt><trkpt lat="43.6048954" lon="10.8576625"><ele>179.0</ele><time>2026-04-04T14:49:01.966Z</time></trkpt><trkpt lat="43.604921" lon="10.857828"><ele>179.75</ele><time>2026-04-04T14:49:02.953Z</time></trkpt><trkpt lat="43.6049527" lon="10.8579818"><ele>180.5</ele><time>2026-04-04T14:49:03.97Z</time></trkpt><trkpt lat="43.604992" lon="10.8581333"><ele>181.25</ele><time>2026-04-04T14:49:04.965Z</time></trkpt><trkpt lat="43.6050463" lon="10.85828"><ele>182.0</ele><time>2026-04-04T14:49:05.956Z</time></trkpt><trkpt lat="43.6051044" lon="10.8584237"><ele>181.5</ele><time>2026-04-04T14:49:06.969Z</time></trkpt><trkpt lat="43.6051614" lon="10.8585775"><ele>181.0</ele><time>2026-04-04T14:49:07.959Z</time></trkpt><trkpt lat="43.6052173" lon="10.858738"><ele>180.5</ele><time>2026-04-04T14:49:08.959Z</time></trkpt><trkpt lat="43.6052699" lon="10.8588951"><ele>180.0</ele><time>2026-04-04T14:49:09.957Z</time></trkpt><trkpt lat="43.6053189" lon="10.8590514"><ele>178.5</ele><time>2026-04-04T14:49:10.955Z</time></trkpt><trkpt lat="43.6053688" lon="10.8592092"><ele>177.0</ele><time>2026-04-04T14:49:11.964Z</time></trkpt><trkpt lat="43.6054147" lon="10.8593638"><ele>175.5</ele><time>2026-04-04T14:49:12.965Z</time></trkpt><trkpt lat="43.6054539" lon="10.8595091"><ele>174.0</ele><time>2026-04-04T14:49:13.966Z</time></trkpt><trkpt lat="43.6054891" lon="10.8596479"><ele>173.2</ele><time>2026-04-04T14:49:14.971Z</time></trkpt><trkpt lat="43.605501" lon="10.8597844"><ele>172.39999999999998</ele><time>2026-04-04T14:49:15.971Z</time></trkpt><trkpt lat="43.6055067" lon="10.8599323"><ele>171.6</ele><time>2026-04-04T14:49:16.969Z</time></trkpt><trkpt lat="43.6055092" lon="10.8600905"><ele>170.8</ele><time>2026-04-04T14:49:17.969Z</time></trkpt><trkpt lat="43.6055123" lon="10.8602486"><ele>170.0</ele><time>2026-04-04T14:49:18.953Z</time></trkpt><trkpt lat="43.6055166" lon="10.8603954"><ele>170.0</ele><time>2026-04-04T14:49:19.957Z</time></trkpt><trkpt lat="43.605522" lon="10.8605365"><ele>170.0</ele><time>2026-04-04T14:49:20.956Z</time></trkpt><trkpt lat="43.6055221" lon="10.8606733"><ele>170.0</ele><time>2026-04-04T14:49:21.966Z</time></trkpt><trkpt lat="43.6055251" lon="10.8608097"><ele>170.0</ele><time>2026-04-04T14:49:22.972Z</time></trkpt><trkpt lat="43.6055361" lon="10.8609537"><ele>170.0</ele><time>2026-04-04T14:49:23.973Z</time></trkpt><trkpt lat="43.6055442" lon="10.8610983"><ele>170.0</ele><time>2026-04-04T14:49:24.97Z</time></trkpt><trkpt lat="43.6055536" lon="10.861252"><ele>170.0</ele><time>2026-04-04T14:49:25.962Z</time></trkpt><trkpt lat="43.6055851" lon="10.8614057"><ele>170.0</ele><time>2026-04-04T14:49:26.974Z</time></trkpt><trkpt lat="43.6056171" lon="10.8615646"><ele>170.0</ele><time>2026-04-04T14:49:27.966Z</time></trkpt><trkpt lat="43.6056523" lon="10.8617296"><ele>170.25</ele><time>2026-04-04T14:49:28.971Z</time></trkpt><trkpt lat="43.6056871" lon="10.8618948"><ele>170.5</ele><time>2026-04-04T14:49:29.964Z</time></trkpt><trkpt lat="43.6057271" lon="10.862055"><ele>170.75</ele><time>2026-04-04T14:49:30.964Z</time></trkpt><trkpt lat="43.605763" lon="10.8622111"><ele>171.0</ele><time>2026-04-04T14:49:31.965Z</time></trkpt><trkpt lat="43.6057918" lon="10.8623739"><ele>171.0</ele><time>2026-04-04T14:49:32.961Z</time></trkpt><trkpt lat="43.6058095" lon="10.8625182"><ele>171.0</ele><time>2026-04-04T14:49:33.963Z</time></trkpt><trkpt lat="43.6058295" lon="10.8626596"><ele>171.0</ele><time>2026-04-04T14:49:34.973Z</time></trkpt><trkpt lat="43.6058503" lon="10.8628016"><ele>171.0</ele><time>2026-04-04T14:49:35.964Z</time></trkpt><trkpt lat="43.6058853" lon="10.8629411"><ele>171.0</ele><time>2026-04-04T14:49:36.961Z</time></trkpt><trkpt lat="43.6059414" lon="10.8630659"><ele>171.60000000000002</ele><time>2026-04-04T14:49:37.967Z</time></trkpt><trkpt lat="43.6060083" lon="10.8631768"><ele>172.2</ele><time>2026-04-04T14:49:38.954Z</time></trkpt><trkpt lat="43.6060813" lon="10.8632701"><ele>172.8</ele><time>2026-04-04T14:49:39.963Z</time></trkpt><trkpt lat="43.6061726" lon="10.8633354"><ele>173.39999999999998</ele><time>2026-04-04T14:49:40.963Z</time></trkpt><trkpt lat="43.6062723" lon="10.8633767"><ele>174.0</ele><time>2026-04-04T14:49:41.956Z</time></trkpt><trkpt lat="43.6063673" lon="10.8634084"><ele>171.66666666666666</ele><time>2026-04-04T14:49:42.949Z</time></trkpt><trkpt lat="43.6064548" lon="10.8634442"><ele>169.33333333333334</ele><time>2026-04-04T14:49:43.972Z</time></trkpt><trkpt lat="43.6065348" lon="10.863481"><ele>167.0</ele><time>2026-04-04T14:49:44.953Z</time></trkpt><trkpt lat="43.6066111" lon="10.8635162"><ele>164.66666666666669</ele><time>2026-04-04T14:49:45.972Z</time></trkpt><trkpt lat="43.6066771" lon="10.8635445"><ele>162.33333333333334</ele><time>2026-04-04T14:49:46.965Z</time></trkpt><trkpt lat="43.6067827" lon="10.8635876"><ele>160.0</ele><time>2026-04-04T14:49:48.964Z</time></trkpt><trkpt lat="43.6068808" lon="10.8636285"><ele>160.0</ele><time>2026-04-04T14:49:50.974Z</time></trkpt><trkpt lat="43.6069704" lon="10.8636655"><ele>160.0</ele><time>2026-04-04T14:49:52.968Z</time></trkpt><trkpt lat="43.6070732" lon="10.863709"><ele>160.0</ele><time>2026-04-04T14:49:54.963Z</time></trkpt><trkpt lat="43.6072132" lon="10.863719"><ele>160.0</ele><time>2026-04-04T14:49:56.959Z</time></trkpt><trkpt lat="43.6073088" lon="10.8636935"><ele>160.0</ele><time>2026-04-04T14:49:57.966Z</time></trkpt><trkpt lat="43.6074065" lon="10.863647"><ele>158.0</ele><time>2026-04-04T14:49:58.963Z</time></trkpt><trkpt lat="43.6075043" lon="10.8635933"><ele>156.0</ele><time>2026-04-04T14:49:59.965Z</time></trkpt><trkpt lat="43.6075956" lon="10.8635209"><ele>154.0</ele><time>2026-04-04T14:50:00.966Z</time></trkpt><trkpt lat="43.6076897" lon="10.8634501"><ele>152.0</ele><time>2026-04-04T14:50:01.971Z</time></trkpt><trkpt lat="43.6077749" lon="10.8633822"><ele>150.0</ele><time>2026-04-04T14:50:02.968Z</time></trkpt><trkpt lat="43.607854" lon="10.8633116"><ele>148.5</ele><time>2026-04-04T14:50:03.957Z</time></trkpt><trkpt lat="43.6079269" lon="10.8632456"><ele>147.0</ele><time>2026-04-04T14:50:04.951Z</time></trkpt><trkpt lat="43.6079925" lon="10.8631843"><ele>145.5</ele><time>2026-04-04T14:50:05.96Z</time></trkpt><trkpt lat="43.6080476" lon="10.8631298"><ele>144.0</ele><time>2026-04-04T14:50:06.959Z</time></trkpt><trkpt lat="43.6081079" lon="10.8630785"><ele>142.5</ele><time>2026-04-04T14:50:07.964Z</time></trkpt><trkpt lat="43.6081798" lon="10.863047"><ele>141.0</ele><time>2026-04-04T14:50:08.969Z</time></trkpt><trkpt lat="43.6082774" lon="10.8630441"><ele>141.0</ele><time>2026-04-04T14:50:09.959Z</time></trkpt><trkpt lat="43.6083773" lon="10.8630419"><ele>141.0</ele><time>2026-04-04T14:50:10.967Z</time></trkpt><trkpt lat="43.6084959" lon="10.8630697"><ele>141.0</ele><time>2026-04-04T14:50:11.965Z</time></trkpt><trkpt lat="43.6086218" lon="10.8630962"><ele>141.0</ele><time>2026-04-04T14:50:12.968Z</time></trkpt><trkpt lat="43.6087488" lon="10.8631202"><ele>139.0</ele><time>2026-04-04T14:50:13.965Z</time></trkpt><trkpt lat="43.6088813" lon="10.8631462"><ele>137.0</ele><time>2026-04-04T14:50:14.969Z</time></trkpt><trkpt lat="43.6090097" lon="10.8631753"><ele>135.0</ele><time>2026-04-04T14:50:15.959Z</time></trkpt><trkpt lat="43.609123" lon="10.8632226"><ele>133.0</ele><time>2026-04-04T14:50:16.955Z</time></trkpt><trkpt lat="43.6092415" lon="10.8632645"><ele>133.0</ele><time>2026-04-04T14:50:17.973Z</time></trkpt><trkpt lat="43.6093609" lon="10.8633036"><ele>133.0</ele><time>2026-04-04T14:50:18.973Z</time></trkpt><trkpt lat="43.6094819" lon="10.8633385"><ele>133.0</ele><time>2026-04-04T14:50:19.963Z</time></trkpt><trkpt lat="43.609605" lon="10.8633687"><ele>133.0</ele><time>2026-04-04T14:50:20.981Z</time></trkpt><trkpt lat="43.6097308" lon="10.8633906"><ele>133.0</ele><time>2026-04-04T14:50:21.968Z</time></trkpt><trkpt lat="43.6098567" lon="10.863403"><ele>133.0</ele><time>2026-04-04T14:50:22.956Z</time></trkpt><trkpt lat="43.609971" lon="10.8634067"><ele>133.0</ele><time>2026-04-04T14:50:23.967Z</time></trkpt><trkpt lat="43.6100695" lon="10.8634037"><ele>133.0</ele><time>2026-04-04T14:50:24.971Z</time></trkpt><trkpt lat="43.6101538" lon="10.8634042"><ele>133.0</ele><time>2026-04-04T14:50:25.953Z</time></trkpt><trkpt lat="43.6102309" lon="10.8634076"><ele>133.0</ele><time>2026-04-04T14:50:26.962Z</time></trkpt><trkpt lat="43.6102954" lon="10.863416"><ele>133.0</ele><time>2026-04-04T14:50:27.967Z</time></trkpt><trkpt lat="43.6103595" lon="10.863441"><ele>133.0</ele><time>2026-04-04T14:50:28.963Z</time></trkpt><trkpt lat="43.6104178" lon="10.863489"><ele>133.0</ele><time>2026-04-04T14:50:29.97Z</time></trkpt><trkpt lat="43.6104645" lon="10.8635654"><ele>133.0</ele><time>2026-04-04T14:50:30.964Z</time></trkpt><trkpt lat="43.6104924" lon="10.8637038"><ele>133.0</ele><time>2026-04-04T14:50:31.967Z</time></trkpt><trkpt lat="43.6105175" lon="10.8638391"><ele>133.0</ele><time>2026-04-04T14:50:32.96Z</time></trkpt><trkpt lat="43.6105458" lon="10.8639868"><ele>133.0</ele><time>2026-04-04T14:50:33.974Z</time></trkpt><trkpt lat="43.6105702" lon="10.8641205"><ele>133.0</ele><time>2026-04-04T14:50:34.975Z</time></trkpt><trkpt lat="43.6106189" lon="10.864237"><ele>133.0</ele><time>2026-04-04T14:50:35.964Z</time></trkpt><trkpt lat="43.610692" lon="10.8643399"><ele>133.0</ele><time>2026-04-04T14:50:36.972Z</time></trkpt><trkpt lat="43.6107929" lon="10.8644408"><ele>133.25</ele><time>2026-04-04T14:50:37.964Z</time></trkpt><trkpt lat="43.6109094" lon="10.8645402"><ele>133.5</ele><time>2026-04-04T14:50:38.963Z</time></trkpt><trkpt lat="43.6110241" lon="10.8646453"><ele>133.75</ele><time>2026-04-04T14:50:39.97Z</time></trkpt><trkpt lat="43.6111269" lon="10.8647657"><ele>134.0</ele><time>2026-04-04T14:50:40.963Z</time></trkpt><trkpt lat="43.6112121" lon="10.8648785"><ele>134.0</ele><time>2026-04-04T14:50:41.977Z</time></trkpt><trkpt lat="43.6112805" lon="10.8649723"><ele>134.0</ele><time>2026-04-04T14:50:42.965Z</time></trkpt><trkpt lat="43.6113347" lon="10.865057"><ele>134.0</ele><time>2026-04-04T14:50:43.955Z</time></trkpt><trkpt lat="43.611376" lon="10.865154"><ele>134.0</ele><time>2026-04-04T14:50:44.969Z</time></trkpt><trkpt lat="43.6113995" lon="10.8652751"><ele>134.0</ele><time>2026-04-04T14:50:45.958Z</time></trkpt><trkpt lat="43.6114182" lon="10.8654206"><ele>132.2</ele><time>2026-04-04T14:50:46.961Z</time></trkpt><trkpt lat="43.6114319" lon="10.8655736"><ele>130.4</ele><time>2026-04-04T14:50:47.972Z</time></trkpt><trkpt lat="43.6114583" lon="10.8657179"><ele>128.6</ele><time>2026-04-04T14:50:48.965Z</time></trkpt><trkpt lat="43.6114919" lon="10.8658547"><ele>126.8</ele><time>2026-04-04T14:50:49.969Z</time></trkpt><trkpt lat="43.6115334" lon="10.8659834"><ele>125.0</ele><time>2026-04-04T14:50:50.955Z</time></trkpt><trkpt lat="43.6115818" lon="10.8661133"><ele>122.0</ele><time>2026-04-04T14:50:51.954Z</time></trkpt><trkpt lat="43.6116491" lon="10.8662383"><ele>119.0</ele><time>2026-04-04T14:50:52.969Z</time></trkpt><trkpt lat="43.6117244" lon="10.8663503"><ele>116.0</ele><time>2026-04-04T14:50:53.96Z</time></trkpt><trkpt lat="43.6118039" lon="10.86645"><ele>113.0</ele><time>2026-04-04T14:50:54.958Z</time></trkpt><trkpt lat="43.6118821" lon="10.8665301"><ele>110.0</ele><time>2026-04-04T14:50:55.963Z</time></trkpt><trkpt lat="43.6119622" lon="10.8665816"><ele>111.16666666666666</ele><time>2026-04-04T14:50:56.956Z</time></trkpt><trkpt lat="43.6120356" lon="10.866617"><ele>112.33333333333333</ele><time>2026-04-04T14:50:57.97Z</time></trkpt><trkpt lat="43.6121031" lon="10.8666553"><ele>113.5</ele><time>2026-04-04T14:50:58.972Z</time></trkpt><trkpt lat="43.6121619" lon="10.8667055"><ele>114.66666666666666</ele><time>2026-04-04T14:50:59.97Z</time></trkpt><trkpt lat="43.6122205" lon="10.8667828"><ele>115.83333333333333</ele><time>2026-04-04T14:51:00.97Z</time></trkpt><trkpt lat="43.6122794" lon="10.8668882"><ele>117.0</ele><time>2026-04-04T14:51:01.959Z</time></trkpt><trkpt lat="43.6123287" lon="10.8670076"><ele>114.0</ele><time>2026-04-04T14:51:02.978Z</time></trkpt><trkpt lat="43.612375" lon="10.8671426"><ele>110.99999999999999</ele><time>2026-04-04T14:51:03.962Z</time></trkpt><trkpt lat="43.6124119" lon="10.8672894"><ele>108.0</ele><time>2026-04-04T14:51:04.966Z</time></trkpt><trkpt lat="43.6124508" lon="10.8674331"><ele>105.0</ele><time>2026-04-04T14:51:05.964Z</time></trkpt><trkpt lat="43.6124922" lon="10.8675723"><ele>102.0</ele><time>2026-04-04T14:51:06.955Z</time></trkpt><trkpt lat="43.6125462" lon="10.8677006"><ele>99.8</ele><time>2026-04-04T14:51:07.959Z</time></trkpt><trkpt lat="43.6126055" lon="10.8678221"><ele>97.6</ele><time>2026-04-04T14:51:08.976Z</time></trkpt><trkpt lat="43.6126666" lon="10.8679395"><ele>95.39999999999999</ele><time>2026-04-04T14:51:09.966Z</time></trkpt><trkpt lat="43.6127375" lon="10.8680672"><ele>93.19999999999999</ele><time>2026-04-04T14:51:10.959Z</time></trkpt><trkpt lat="43.6128037" lon="10.8681855"><ele>91.0</ele><time>2026-04-04T14:51:11.961Z</time></trkpt><trkpt lat="43.6128686" lon="10.8682974"><ele>91.0</ele><time>2026-04-04T14:51:12.968Z</time></trkpt><trkpt lat="43.6129394" lon="10.8684009"><ele>91.0</ele><time>2026-04-04T14:51:13.968Z</time></trkpt><trkpt lat="43.6130318" lon="10.8684823"><ele>91.0</ele><time>2026-04-04T14:51:14.966Z</time></trkpt><trkpt lat="43.6131217" lon="10.8685573"><ele>91.0</ele><time>2026-04-04T14:51:15.977Z</time></trkpt><trkpt lat="43.6132129" lon="10.8686205"><ele>91.0</ele><time>2026-04-04T14:51:16.954Z</time></trkpt><trkpt lat="43.6132992" lon="10.8686887"><ele>91.0</ele><time>2026-04-04T14:51:17.972Z</time></trkpt><trkpt lat="43.6133716" lon="10.8687958"><ele>91.0</ele><time>2026-04-04T14:51:18.971Z</time></trkpt><trkpt lat="43.613419" lon="10.8689095"><ele>91.0</ele><time>2026-04-04T14:51:19.979Z</time></trkpt><trkpt lat="43.6134488" lon="10.869013"><ele>91.0</ele><time>2026-04-04T14:51:20.961Z</time></trkpt><trkpt lat="43.6134856" lon="10.8691143"><ele>91.0</ele><time>2026-04-04T14:51:21.959Z</time></trkpt><trkpt lat="43.6135516" lon="10.8691931"><ele>91.0</ele><time>2026-04-04T14:51:22.971Z</time></trkpt><trkpt lat="43.6136311" lon="10.869259"><ele>91.0</ele><time>2026-04-04T14:51:23.96Z</time></trkpt><trkpt lat="43.6137094" lon="10.8693083"><ele>91.0</ele><time>2026-04-04T14:51:24.967Z</time></trkpt><trkpt lat="43.613787" lon="10.8693761"><ele>91.0</ele><time>2026-04-04T14:51:25.97Z</time></trkpt><trkpt lat="43.6138589" lon="10.8694457"><ele>91.0</ele><time>2026-04-04T14:51:26.971Z</time></trkpt><trkpt lat="43.6138975" lon="10.8695424"><ele>91.0</ele><time>2026-04-04T14:51:27.968Z</time></trkpt><trkpt lat="43.6139359" lon="10.8696376"><ele>87.66666666666666</ele><time>2026-04-04T14:51:28.964Z</time></trkpt><trkpt lat="43.6139521" lon="10.8697502"><ele>84.33333333333333</ele><time>2026-04-04T14:51:29.972Z</time></trkpt><trkpt lat="43.6139621" lon="10.8698639"><ele>81.0</ele><time>2026-04-04T14:51:30.949Z</time></trkpt><trkpt lat="43.6139676" lon="10.8699789"><ele>77.66666666666667</ele><time>2026-04-04T14:51:31.967Z</time></trkpt><trkpt lat="43.6139705" lon="10.8700819"><ele>74.33333333333334</ele><time>2026-04-04T14:51:32.968Z</time></trkpt><trkpt lat="43.6139707" lon="10.8701803"><ele>71.0</ele><time>2026-04-04T14:51:33.969Z</time></trkpt><trkpt lat="43.6139594" lon="10.8702716"><ele>70.16666666666667</ele><time>2026-04-04T14:51:34.954Z</time></trkpt><trkpt lat="43.6139224" lon="10.8703491"><ele>69.33333333333334</ele><time>2026-04-04T14:51:35.966Z</time></trkpt><trkpt lat="43.6138635" lon="10.8704106"><ele>68.5</ele><time>2026-04-04T14:51:36.953Z</time></trkpt><trkpt lat="43.6137892" lon="10.8704523"><ele>67.66666666666667</ele><time>2026-04-04T14:51:37.975Z</time></trkpt><trkpt lat="43.6137117" lon="10.8705016"><ele>66.83333333333333</ele><time>2026-04-04T14:51:38.959Z</time></trkpt><trkpt lat="43.6136399" lon="10.8705453"><ele>66.0</ele><time>2026-04-04T14:51:39.964Z</time></trkpt><trkpt lat="43.6135696" lon="10.8705911"><ele>66.0</ele><time>2026-04-04T14:51:40.967Z</time></trkpt><trkpt lat="43.6135013" lon="10.870629"><ele>66.0</ele><time>2026-04-04T14:51:41.973Z</time></trkpt><trkpt lat="43.6134389" lon="10.8706656"><ele>66.0</ele><time>2026-04-04T14:51:42.967Z</time></trkpt><trkpt lat="43.6133637" lon="10.8707991"><ele>66.0</ele><time>2026-04-04T14:51:44.959Z</time></trkpt><trkpt lat="43.6133553" lon="10.8708991"><ele>66.0</ele><time>2026-04-04T14:51:45.968Z</time></trkpt><trkpt lat="43.6133634" lon="10.8710023"><ele>66.0</ele><time>2026-04-04T14:51:46.975Z</time></trkpt><trkpt lat="43.6133805" lon="10.8711516"><ele>65.66666666666667</ele><time>2026-04-04T14:51:48.961Z</time></trkpt><trkpt lat="43.6134238" lon="10.8712466"><ele>65.33333333333333</ele><time>2026-04-04T14:51:51.957Z</time></trkpt><trkpt lat="43.6135006" lon="10.8712237"><ele>65.0</ele><time>2026-04-04T14:51:53.974Z</time></trkpt><trkpt lat="43.6135577" lon="10.8711759"><ele>64.66666666666666</ele><time>2026-04-04T14:51:54.968Z</time></trkpt><trkpt lat="43.6136274" lon="10.8711136"><ele>64.33333333333333</ele><time>2026-04-04T14:51:55.968Z</time></trkpt><trkpt lat="43.6137064" lon="10.871047"><ele>64.0</ele><time>2026-04-04T14:51:56.971Z</time></trkpt><trkpt lat="43.6137928" lon="10.8709804"><ele>63.5</ele><time>2026-04-04T14:51:57.952Z</time></trkpt><trkpt lat="43.6138831" lon="10.8709104"><ele>63.0</ele><time>2026-04-04T14:51:58.977Z</time></trkpt><trkpt lat="43.6139827" lon="10.8708338"><ele>62.5</ele><time>2026-04-04T14:51:59.962Z</time></trkpt><trkpt lat="43.6140875" lon="10.8707508"><ele>62.0</ele><time>2026-04-04T14:52:00.967Z</time></trkpt><trkpt lat="43.6141975" lon="10.8706615"><ele>62.0</ele><time>2026-04-04T14:52:01.963Z</time></trkpt><trkpt lat="43.6143087" lon="10.8705695"><ele>62.0</ele><time>2026-04-04T14:52:02.974Z</time></trkpt><trkpt lat="43.6144184" lon="10.8704787"><ele>62.0</ele><time>2026-04-04T14:52:03.965Z</time></trkpt><trkpt lat="43.6145292" lon="10.8703893"><ele>62.0</ele><time>2026-04-04T14:52:04.962Z</time></trkpt><trkpt lat="43.6146424" lon="10.8702984"><ele>61.75</ele><time>2026-04-04T14:52:05.976Z</time></trkpt><trkpt lat="43.6147576" lon="10.8702094"><ele>61.5</ele><time>2026-04-04T14:52:06.971Z</time></trkpt><trkpt lat="43.6148727" lon="10.8701172"><ele>61.25</ele><time>2026-04-04T14:52:07.962Z</time></trkpt><trkpt lat="43.6149853" lon="10.8700244"><ele>61.0</ele><time>2026-04-04T14:52:08.972Z</time></trkpt><trkpt lat="43.6150963" lon="10.8699389"><ele>61.0</ele><time>2026-04-04T14:52:09.971Z</time></trkpt><trkpt lat="43.615203" lon="10.8698612"><ele>61.0</ele><time>2026-04-04T14:52:10.972Z</time></trkpt><trkpt lat="43.6153056" lon="10.8697833"><ele>61.0</ele><time>2026-04-04T14:52:11.955Z</time></trkpt><trkpt lat="43.6154089" lon="10.8697033"><ele>61.0</ele><time>2026-04-04T14:52:12.96Z</time></trkpt><trkpt lat="43.6155132" lon="10.8696191"><ele>60.0</ele><time>2026-04-04T14:52:13.966Z</time></trkpt><trkpt lat="43.6156182" lon="10.8695353"><ele>59.0</ele><time>2026-04-04T14:52:14.975Z</time></trkpt><trkpt lat="43.6157211" lon="10.8694555"><ele>58.0</ele><time>2026-04-04T14:52:15.96Z</time></trkpt><trkpt lat="43.6158204" lon="10.8693766"><ele>57.0</ele><time>2026-04-04T14:52:16.963Z</time></trkpt><trkpt lat="43.6159204" lon="10.8692955"><ele>57.0</ele><time>2026-04-04T14:52:17.961Z</time></trkpt><trkpt lat="43.6160235" lon="10.869211"><ele>57.0</ele><time>2026-04-04T14:52:18.973Z</time></trkpt><trkpt lat="43.6161319" lon="10.8691224"><ele>57.0</ele><time>2026-04-04T14:52:19.965Z</time></trkpt><trkpt lat="43.6162438" lon="10.8690331"><ele>57.0</ele><time>2026-04-04T14:52:20.972Z</time></trkpt><trkpt lat="43.6163569" lon="10.868945"><ele>57.0</ele><time>2026-04-04T14:52:21.957Z</time></trkpt><trkpt lat="43.6164706" lon="10.8688602"><ele>57.0</ele><time>2026-04-04T14:52:22.969Z</time></trkpt><trkpt lat="43.6165807" lon="10.8687815"><ele>57.0</ele><time>2026-04-04T14:52:23.969Z</time></trkpt><trkpt lat="43.6166814" lon="10.8687053"><ele>57.0</ele><time>2026-04-04T14:52:24.979Z</time></trkpt><trkpt lat="43.6167771" lon="10.8686372"><ele>57.0</ele><time>2026-04-04T14:52:25.969Z</time></trkpt><trkpt lat="43.6168712" lon="10.8685691"><ele>57.0</ele><time>2026-04-04T14:52:26.959Z</time></trkpt><trkpt lat="43.6169558" lon="10.8684846"><ele>57.0</ele><time>2026-04-04T14:52:27.973Z</time></trkpt><trkpt lat="43.6170285" lon="10.8683833"><ele>57.0</ele><time>2026-04-04T14:52:28.977Z</time></trkpt><trkpt lat="43.617079" lon="10.8682668"><ele>57.0</ele><time>2026-04-04T14:52:29.973Z</time></trkpt><trkpt lat="43.6171157" lon="10.8681407"><ele>57.0</ele><time>2026-04-04T14:52:30.97Z</time></trkpt><trkpt lat="43.6171403" lon="10.8680126"><ele>57.0</ele><time>2026-04-04T14:52:31.972Z</time></trkpt><trkpt lat="43.6171646" lon="10.8678856"><ele>57.0</ele><time>2026-04-04T14:52:32.973Z</time></trkpt><trkpt lat="43.617199" lon="10.8677597"><ele>57.0</ele><time>2026-04-04T14:52:33.963Z</time></trkpt><trkpt lat="43.6172394" lon="10.8676393"><ele>57.0</ele><time>2026-04-04T14:52:34.966Z</time></trkpt><trkpt lat="43.6172765" lon="10.8675286"><ele>56.833333333333336</ele><time>2026-04-04T14:52:35.975Z</time></trkpt><trkpt lat="43.6173145" lon="10.8674364"><ele>56.66666666666667</ele><time>2026-04-04T14:52:36.963Z</time></trkpt><trkpt lat="43.6173351" lon="10.8673505"><ele>56.5</ele><time>2026-04-04T14:52:37.967Z</time></trkpt><trkpt lat="43.6173451" lon="10.8671955"><ele>56.333333333333336</ele><time>2026-04-04T14:52:39.97Z</time></trkpt><trkpt lat="43.6173066" lon="10.8671219"><ele>56.16666666666667</ele><time>2026-04-04T14:52:40.974Z</time></trkpt><trkpt lat="43.6172315" lon="10.8670499"><ele>56.0</ele><time>2026-04-04T14:52:41.955Z</time></trkpt><trkpt lat="43.6171452" lon="10.86698"><ele>56.00000000000001</ele><time>2026-04-04T14:52:42.977Z</time></trkpt><trkpt lat="43.6170612" lon="10.8669026"><ele>56.0</ele><time>2026-04-04T14:52:43.953Z</time></trkpt><trkpt lat="43.6169829" lon="10.8668345"><ele>56.0</ele><time>2026-04-04T14:52:44.962Z</time></trkpt><trkpt lat="43.6169166" lon="10.8667756"><ele>56.0</ele><time>2026-04-04T14:52:45.974Z</time></trkpt><trkpt lat="43.6168624" lon="10.8667038"><ele>56.00000000000001</ele><time>2026-04-04T14:52:46.969Z</time></trkpt><trkpt lat="43.6168275" lon="10.8666146"><ele>56.0</ele><time>2026-04-04T14:52:47.974Z</time></trkpt><trkpt lat="43.6168183" lon="10.8665215"><ele>56.0</ele><time>2026-04-04T14:52:48.969Z</time></trkpt><trkpt lat="43.6168129" lon="10.8664279"><ele>55.99999999999999</ele><time>2026-04-04T14:52:49.953Z</time></trkpt><trkpt lat="43.616848" lon="10.8663409"><ele>55.99999999999999</ele><time>2026-04-04T14:52:50.967Z</time></trkpt><trkpt lat="43.6169026" lon="10.8662473"><ele>56.0</ele><time>2026-04-04T14:52:51.959Z</time></trkpt><trkpt lat="43.6169704" lon="10.8661239"><ele>56.0</ele><time>2026-04-04T14:52:52.966Z</time></trkpt><trkpt lat="43.6170486" lon="10.8659932"><ele>56.75</ele><time>2026-04-04T14:52:53.966Z</time></trkpt><trkpt lat="43.6171257" lon="10.865867"><ele>57.5</ele><time>2026-04-04T14:52:54.954Z</time></trkpt><trkpt lat="43.6171857" lon="10.8657462"><ele>58.25</ele><time>2026-04-04T14:52:55.976Z</time></trkpt><trkpt lat="43.6172392" lon="10.8656154"><ele>59.0</ele><time>2026-04-04T14:52:56.971Z</time></trkpt><trkpt lat="43.617281" lon="10.8654634"><ele>59.0</ele><time>2026-04-04T14:52:57.962Z</time></trkpt><trkpt lat="43.6173205" lon="10.8652983"><ele>59.0</ele><time>2026-04-04T14:52:58.966Z</time></trkpt><trkpt lat="43.6173587" lon="10.8651348"><ele>59.0</ele><time>2026-04-04T14:52:59.97Z</time></trkpt><trkpt lat="43.6173955" lon="10.8649692"><ele>59.0</ele><time>2026-04-04T14:53:00.969Z</time></trkpt><trkpt lat="43.6174311" lon="10.8648042"><ele>59.25</ele><time>2026-04-04T14:53:01.951Z</time></trkpt><trkpt lat="43.617465" lon="10.8646365"><ele>59.5</ele><time>2026-04-04T14:53:02.967Z</time></trkpt><trkpt lat="43.6175004" lon="10.8644703"><ele>59.75</ele><time>2026-04-04T14:53:03.975Z</time></trkpt><trkpt lat="43.6175354" lon="10.8643079"><ele>60.0</ele><time>2026-04-04T14:53:04.959Z</time></trkpt><trkpt lat="43.6175681" lon="10.8641534"><ele>60.666666666666664</ele><time>2026-04-04T14:53:05.966Z</time></trkpt><trkpt lat="43.6175973" lon="10.8640205"><ele>61.33333333333333</ele><time>2026-04-04T14:53:06.965Z</time></trkpt><trkpt lat="43.617621" lon="10.8638982"><ele>62.0</ele><time>2026-04-04T14:53:07.971Z</time></trkpt><trkpt lat="43.6176437" lon="10.8637838"><ele>62.666666666666664</ele><time>2026-04-04T14:53:08.969Z</time></trkpt><trkpt lat="43.6176757" lon="10.8636814"><ele>63.33333333333333</ele><time>2026-04-04T14:53:09.953Z</time></trkpt><trkpt lat="43.6177288" lon="10.8635914"><ele>64.0</ele><time>2026-04-04T14:53:10.971Z</time></trkpt><trkpt lat="43.6177828" lon="10.8635018"><ele>63.2</ele><time>2026-04-04T14:53:11.952Z</time></trkpt><trkpt lat="43.6178517" lon="10.8634135"><ele>62.400000000000006</ele><time>2026-04-04T14:53:12.959Z</time></trkpt><trkpt lat="43.6179134" lon="10.8633069"><ele>61.6</ele><time>2026-04-04T14:53:13.962Z</time></trkpt><trkpt lat="43.6179706" lon="10.8631854"><ele>60.8</ele><time>2026-04-04T14:53:14.953Z</time></trkpt><trkpt lat="43.6180283" lon="10.8630564"><ele>60.0</ele><time>2026-04-04T14:53:15.969Z</time></trkpt><trkpt lat="43.6180898" lon="10.8629221"><ele>60.0</ele><time>2026-04-04T14:53:16.956Z</time></trkpt><trkpt lat="43.6181508" lon="10.8627856"><ele>60.0</ele><time>2026-04-04T14:53:17.958Z</time></trkpt><trkpt lat="43.6182082" lon="10.8626443"><ele>60.0</ele><time>2026-04-04T14:53:18.957Z</time></trkpt><trkpt lat="43.6182662" lon="10.8624973"><ele>60.0</ele><time>2026-04-04T14:53:19.969Z</time></trkpt><trkpt lat="43.6183249" lon="10.8623504"><ele>59.75</ele><time>2026-04-04T14:53:20.965Z</time></trkpt><trkpt lat="43.6183874" lon="10.862192"><ele>59.5</ele><time>2026-04-04T14:53:21.951Z</time></trkpt><trkpt lat="43.6184494" lon="10.8620416"><ele>59.25</ele><time>2026-04-04T14:53:22.975Z</time></trkpt><trkpt lat="43.6185097" lon="10.8618911"><ele>59.0</ele><time>2026-04-04T14:53:23.97Z</time></trkpt><trkpt lat="43.6185671" lon="10.8617475"><ele>59.0</ele><time>2026-04-04T14:53:24.974Z</time></trkpt><trkpt lat="43.6186241" lon="10.8616124"><ele>59.00000000000001</ele><time>2026-04-04T14:53:25.959Z</time></trkpt><trkpt lat="43.6186779" lon="10.8614839"><ele>59.00000000000001</ele><time>2026-04-04T14:53:26.977Z</time></trkpt><trkpt lat="43.61873" lon="10.861362"><ele>59.0</ele><time>2026-04-04T14:53:27.959Z</time></trkpt><trkpt lat="43.6187849" lon="10.8612492"><ele>59.0</ele><time>2026-04-04T14:53:28.972Z</time></trkpt><trkpt lat="43.6188481" lon="10.8611485"><ele>58.6</ele><time>2026-04-04T14:53:29.973Z</time></trkpt><trkpt lat="43.6189095" lon="10.8610561"><ele>58.2</ele><time>2026-04-04T14:53:30.962Z</time></trkpt><trkpt lat="43.6189962" lon="10.8610096"><ele>57.800000000000004</ele><time>2026-04-04T14:53:31.966Z</time></trkpt><trkpt lat="43.619091" lon="10.8609736"><ele>57.400000000000006</ele><time>2026-04-04T14:53:32.976Z</time></trkpt><trkpt lat="43.6191838" lon="10.8609272"><ele>57.0</ele><time>2026-04-04T14:53:33.975Z</time></trkpt><trkpt lat="43.6192736" lon="10.8608667"><ele>57.75</ele><time>2026-04-04T14:53:34.957Z</time></trkpt><trkpt lat="43.6193717" lon="10.8607988"><ele>58.5</ele><time>2026-04-04T14:53:35.957Z</time></trkpt><trkpt lat="43.6194728" lon="10.8607053"><ele>59.25</ele><time>2026-04-04T14:53:36.957Z</time></trkpt><trkpt lat="43.6195741" lon="10.860605"><ele>60.0</ele><time>2026-04-04T14:53:37.974Z</time></trkpt><trkpt lat="43.6196712" lon="10.8605011"><ele>60.0</ele><time>2026-04-04T14:53:38.968Z</time></trkpt><trkpt lat="43.6197692" lon="10.8603962"><ele>60.0</ele><time>2026-04-04T14:53:39.975Z</time></trkpt><trkpt lat="43.6198679" lon="10.8602892"><ele>60.0</ele><time>2026-04-04T14:53:40.965Z</time></trkpt><trkpt lat="43.6199663" lon="10.8601772"><ele>60.0</ele><time>2026-04-04T14:53:41.969Z</time></trkpt><trkpt lat="43.6200641" lon="10.8600644"><ele>60.75</ele><time>2026-04-04T14:53:42.966Z</time></trkpt><trkpt lat="43.620157" lon="10.8599405"><ele>61.5</ele><time>2026-04-04T14:53:43.973Z</time></trkpt><trkpt lat="43.6202467" lon="10.8598077"><ele>62.25</ele><time>2026-04-04T14:53:44.957Z</time></trkpt><trkpt lat="43.6203381" lon="10.8596703"><ele>63.0</ele><time>2026-04-04T14:53:45.966Z</time></trkpt><trkpt lat="43.6204285" lon="10.8595274"><ele>61.25</ele><time>2026-04-04T14:53:46.968Z</time></trkpt><trkpt lat="43.6205218" lon="10.8593791"><ele>59.5</ele><time>2026-04-04T14:53:47.977Z</time></trkpt><trkpt lat="43.6206147" lon="10.8592306"><ele>57.75</ele><time>2026-04-04T14:53:48.965Z</time></trkpt><trkpt lat="43.6207058" lon="10.8590846"><ele>56.0</ele><time>2026-04-04T14:53:49.966Z</time></trkpt><trkpt lat="43.6207947" lon="10.858942"><ele>56.0</ele><time>2026-04-04T14:53:50.969Z</time></trkpt><trkpt lat="43.6208854" lon="10.8588013"><ele>56.0</ele><time>2026-04-04T14:53:51.959Z</time></trkpt><trkpt lat="43.6209736" lon="10.8586674"><ele>56.0</ele><time>2026-04-04T14:53:52.974Z</time></trkpt><trkpt lat="43.62106" lon="10.8585336"><ele>56.0</ele><time>2026-04-04T14:53:53.977Z</time></trkpt><trkpt lat="43.6211457" lon="10.8584002"><ele>55.5</ele><time>2026-04-04T14:53:54.956Z</time></trkpt><trkpt lat="43.6212331" lon="10.858278"><ele>55.0</ele><time>2026-04-04T14:53:55.981Z</time></trkpt><trkpt lat="43.6213285" lon="10.8581694"><ele>54.5</ele><time>2026-04-04T14:53:56.973Z</time></trkpt><trkpt lat="43.6214304" lon="10.8580744"><ele>54.0</ele><time>2026-04-04T14:53:57.959Z</time></trkpt><trkpt lat="43.6215347" lon="10.857984"><ele>54.0</ele><time>2026-04-04T14:53:58.976Z</time></trkpt><trkpt lat="43.6216397" lon="10.8578953"><ele>54.0</ele><time>2026-04-04T14:53:59.965Z</time></trkpt><trkpt lat="43.6217474" lon="10.8578034"><ele>54.0</ele><time>2026-04-04T14:54:00.972Z</time></trkpt><trkpt lat="43.621858" lon="10.857708"><ele>54.0</ele><time>2026-04-04T14:54:01.974Z</time></trkpt><trkpt lat="43.6219694" lon="10.8576129"><ele>53.75</ele><time>2026-04-04T14:54:02.981Z</time></trkpt><trkpt lat="43.6220826" lon="10.8575149"><ele>53.5</ele><time>2026-04-04T14:54:03.964Z</time></trkpt><trkpt lat="43.6221931" lon="10.8574156"><ele>53.25</ele><time>2026-04-04T14:54:04.975Z</time></trkpt><trkpt lat="43.6223037" lon="10.8573208"><ele>53.0</ele><time>2026-04-04T14:54:05.949Z</time></trkpt><trkpt lat="43.6224157" lon="10.8572258"><ele>53.0</ele><time>2026-04-04T14:54:06.962Z</time></trkpt><trkpt lat="43.6225304" lon="10.85713"><ele>53.0</ele><time>2026-04-04T14:54:07.964Z</time></trkpt><trkpt lat="43.6226458" lon="10.8570307"><ele>53.0</ele><time>2026-04-04T14:54:08.965Z</time></trkpt><trkpt lat="43.6227633" lon="10.8569293"><ele>53.0</ele><time>2026-04-04T14:54:09.955Z</time></trkpt><trkpt lat="43.6228811" lon="10.8568272"><ele>52.5</ele><time>2026-04-04T14:54:10.973Z</time></trkpt><trkpt lat="43.6229985" lon="10.8567258"><ele>52.0</ele><time>2026-04-04T14:54:11.966Z</time></trkpt><trkpt lat="43.6231153" lon="10.8566257"><ele>51.5</ele><time>2026-04-04T14:54:12.974Z</time></trkpt><trkpt lat="43.6232316" lon="10.8565264"><ele>51.0</ele><time>2026-04-04T14:54:13.964Z</time></trkpt><trkpt lat="43.6233463" lon="10.8564267"><ele>51.0</ele><time>2026-04-04T14:54:14.948Z</time></trkpt><trkpt lat="43.6234615" lon="10.8563283"><ele>51.0</ele><time>2026-04-04T14:54:15.976Z</time></trkpt><trkpt lat="43.6235737" lon="10.8562357"><ele>51.0</ele><time>2026-04-04T14:54:16.966Z</time></trkpt><trkpt lat="43.6236812" lon="10.8561468"><ele>51.0</ele><time>2026-04-04T14:54:17.966Z</time></trkpt><trkpt lat="43.6237844" lon="10.8560538"><ele>50.75</ele><time>2026-04-04T14:54:18.966Z</time></trkpt><trkpt lat="43.6238773" lon="10.8559488"><ele>50.5</ele><time>2026-04-04T14:54:19.971Z</time></trkpt><trkpt lat="43.623959" lon="10.8558271"><ele>50.25</ele><time>2026-04-04T14:54:20.973Z</time></trkpt><trkpt lat="43.6240326" lon="10.8556903"><ele>50.0</ele><time>2026-04-04T14:54:21.967Z</time></trkpt><trkpt lat="43.6241002" lon="10.8555362"><ele>50.0</ele><time>2026-04-04T14:54:22.98Z</time></trkpt><trkpt lat="43.6241617" lon="10.8553728"><ele>50.0</ele><time>2026-04-04T14:54:23.964Z</time></trkpt><trkpt lat="43.6242149" lon="10.855209"><ele>50.0</ele><time>2026-04-04T14:54:24.961Z</time></trkpt><trkpt lat="43.6242648" lon="10.8550459"><ele>50.0</ele><time>2026-04-04T14:54:25.97Z</time></trkpt><trkpt lat="43.6243145" lon="10.8548867"><ele>50.0</ele><time>2026-04-04T14:54:26.956Z</time></trkpt><trkpt lat="43.6243674" lon="10.8547325"><ele>50.0</ele><time>2026-04-04T14:54:27.96Z</time></trkpt><trkpt lat="43.6244215" lon="10.8545826"><ele>50.0</ele><time>2026-04-04T14:54:28.952Z</time></trkpt><trkpt lat="43.6244821" lon="10.8544366"><ele>50.0</ele><time>2026-04-04T14:54:29.964Z</time></trkpt><trkpt lat="43.6245406" lon="10.8542973"><ele>50.2</ele><time>2026-04-04T14:54:30.978Z</time></trkpt><trkpt lat="43.6246039" lon="10.8541718"><ele>50.4</ele><time>2026-04-04T14:54:31.981Z</time></trkpt><trkpt lat="43.6246643" lon="10.8540503"><ele>50.599999999999994</ele><time>2026-04-04T14:54:32.95Z</time></trkpt><trkpt lat="43.6247316" lon="10.8539321"><ele>50.8</ele><time>2026-04-04T14:54:33.959Z</time></trkpt><trkpt lat="43.6247986" lon="10.8538101"><ele>51.0</ele><time>2026-04-04T14:54:34.982Z</time></trkpt><trkpt lat="43.6248556" lon="10.8536914"><ele>51.0</ele><time>2026-04-04T14:54:35.953Z</time></trkpt><trkpt lat="43.6249044" lon="10.8535793"><ele>51.0</ele><time>2026-04-04T14:54:36.973Z</time></trkpt><trkpt lat="43.6249388" lon="10.8534645"><ele>51.0</ele><time>2026-04-04T14:54:37.966Z</time></trkpt><trkpt lat="43.6249561" lon="10.8533298"><ele>51.0</ele><time>2026-04-04T14:54:38.958Z</time></trkpt><trkpt lat="43.6249592" lon="10.8531808"><ele>51.0</ele><time>2026-04-04T14:54:39.973Z</time></trkpt><trkpt lat="43.6249543" lon="10.8530269"><ele>50.75</ele><time>2026-04-04T14:54:40.964Z</time></trkpt><trkpt lat="43.6249513" lon="10.8528693"><ele>50.5</ele><time>2026-04-04T14:54:41.968Z</time></trkpt><trkpt lat="43.6249473" lon="10.8527119"><ele>50.25</ele><time>2026-04-04T14:54:42.973Z</time></trkpt><trkpt lat="43.6249375" lon="10.85255"><ele>50.0</ele><time>2026-04-04T14:54:43.957Z</time></trkpt><trkpt lat="43.6249052" lon="10.8523662"><ele>50.5</ele><time>2026-04-04T14:54:44.974Z</time></trkpt><trkpt lat="43.6248664" lon="10.8521734"><ele>51.0</ele><time>2026-04-04T14:54:45.97Z</time></trkpt><trkpt lat="43.6248256" lon="10.8519789"><ele>51.5</ele><time>2026-04-04T14:54:46.968Z</time></trkpt><trkpt lat="43.624787" lon="10.8517921"><ele>52.0</ele><time>2026-04-04T14:54:47.962Z</time></trkpt><trkpt lat="43.6247492" lon="10.8516134"><ele>52.166666666666664</ele><time>2026-04-04T14:54:48.975Z</time></trkpt><trkpt lat="43.6247158" lon="10.8514652"><ele>52.33333333333333</ele><time>2026-04-04T14:54:49.978Z</time></trkpt><trkpt lat="43.6246916" lon="10.8513349"><ele>52.5</ele><time>2026-04-04T14:54:50.97Z</time></trkpt><trkpt lat="43.6246756" lon="10.8512181"><ele>52.66666666666667</ele><time>2026-04-04T14:54:51.97Z</time></trkpt><trkpt lat="43.6246734" lon="10.8511207"><ele>52.833333333333336</ele><time>2026-04-04T14:54:52.964Z</time></trkpt><trkpt lat="43.624696" lon="10.8510373"><ele>53.0</ele><time>2026-04-04T14:54:53.97Z</time></trkpt><trkpt lat="43.6247449" lon="10.8509619"><ele>53.5</ele><time>2026-04-04T14:54:54.973Z</time></trkpt><trkpt lat="43.624802" lon="10.8508793"><ele>54.0</ele><time>2026-04-04T14:54:55.98Z</time></trkpt><trkpt lat="43.6248866" lon="10.8507912"><ele>54.5</ele><time>2026-04-04T14:54:56.957Z</time></trkpt><trkpt lat="43.6249788" lon="10.8506716"><ele>55.0</ele><time>2026-04-04T14:54:57.967Z</time></trkpt><trkpt lat="43.6250726" lon="10.8505255"><ele>55.0</ele><time>2026-04-04T14:54:58.976Z</time></trkpt><trkpt lat="43.6251726" lon="10.8503848"><ele>55.0</ele><time>2026-04-04T14:54:59.963Z</time></trkpt><trkpt lat="43.6252774" lon="10.8502554"><ele>55.0</ele><time>2026-04-04T14:55:00.972Z</time></trkpt><trkpt lat="43.6253759" lon="10.8501392"><ele>55.0</ele><time>2026-04-04T14:55:01.974Z</time></trkpt><trkpt lat="43.6254698" lon="10.8500391"><ele>54.2</ele><time>2026-04-04T14:55:02.973Z</time></trkpt><trkpt lat="43.6255556" lon="10.8499489"><ele>53.4</ele><time>2026-04-04T14:55:03.964Z</time></trkpt><trkpt lat="43.625635" lon="10.8498735"><ele>52.599999999999994</ele><time>2026-04-04T14:55:04.974Z</time></trkpt><trkpt lat="43.6257161" lon="10.8498132"><ele>51.8</ele><time>2026-04-04T14:55:05.973Z</time></trkpt><trkpt lat="43.6257975" lon="10.8497578"><ele>51.0</ele><time>2026-04-04T14:55:06.97Z</time></trkpt><trkpt lat="43.6258925" lon="10.8497475"><ele>51.0</ele><time>2026-04-04T14:55:07.981Z</time></trkpt><trkpt lat="43.6260009" lon="10.8497643"><ele>51.0</ele><time>2026-04-04T14:55:08.968Z</time></trkpt><trkpt lat="43.6261243" lon="10.8498075"><ele>51.0</ele><time>2026-04-04T14:55:09.97Z</time></trkpt><trkpt lat="43.6262599" lon="10.849871"><ele>51.0</ele><time>2026-04-04T14:55:10.964Z</time></trkpt><trkpt lat="43.6263997" lon="10.8499352"><ele>50.5</ele><time>2026-04-04T14:55:11.961Z</time></trkpt><trkpt lat="43.626537" lon="10.8499943"><ele>50.0</ele><time>2026-04-04T14:55:12.975Z</time></trkpt><trkpt lat="43.6266622" lon="10.8500524"><ele>49.5</ele><time>2026-04-04T14:55:13.978Z</time></trkpt><trkpt lat="43.6267775" lon="10.8501072"><ele>49.0</ele><time>2026-04-04T14:55:14.972Z</time></trkpt><trkpt lat="43.6268811" lon="10.8501591"><ele>48.99999999999999</ele><time>2026-04-04T14:55:15.951Z</time></trkpt><trkpt lat="43.6269694" lon="10.850203"><ele>49.0</ele><time>2026-04-04T14:55:16.961Z</time></trkpt><trkpt lat="43.6270501" lon="10.8502418"><ele>49.0</ele><time>2026-04-04T14:55:17.971Z</time></trkpt><trkpt lat="43.6271293" lon="10.8502402"><ele>49.0</ele><time>2026-04-04T14:55:18.974Z</time></trkpt><trkpt lat="43.6272077" lon="10.8502085"><ele>48.99999999999999</ele><time>2026-04-04T14:55:19.977Z</time></trkpt><trkpt lat="43.6272729" lon="10.8501439"><ele>49.0</ele><time>2026-04-04T14:55:20.975Z</time></trkpt><trkpt lat="43.6273263" lon="10.8500462"><ele>49.25</ele><time>2026-04-04T14:55:21.97Z</time></trkpt><trkpt lat="43.6273696" lon="10.8499121"><ele>49.5</ele><time>2026-04-04T14:55:22.964Z</time></trkpt><trkpt lat="43.6274086" lon="10.8497566"><ele>49.75</ele><time>2026-04-04T14:55:23.967Z</time></trkpt><trkpt lat="43.6274478" lon="10.8495914"><ele>50.0</ele><time>2026-04-04T14:55:24.977Z</time></trkpt><trkpt lat="43.6274887" lon="10.8494241"><ele>50.5</ele><time>2026-04-04T14:55:25.949Z</time></trkpt><trkpt lat="43.6275311" lon="10.8492608"><ele>51.0</ele><time>2026-04-04T14:55:26.962Z</time></trkpt><trkpt lat="43.6275864" lon="10.8491104"><ele>51.5</ele><time>2026-04-04T14:55:27.956Z</time></trkpt><trkpt lat="43.6276648" lon="10.8489842"><ele>52.0</ele><time>2026-04-04T14:55:28.964Z</time></trkpt><trkpt lat="43.6277635" lon="10.8488888"><ele>51.75</ele><time>2026-04-04T14:55:29.961Z</time></trkpt><trkpt lat="43.6278631" lon="10.8487999"><ele>51.5</ele><time>2026-04-04T14:55:30.972Z</time></trkpt><trkpt lat="43.6279803" lon="10.8487454"><ele>51.25</ele><time>2026-04-04T14:55:31.953Z</time></trkpt><trkpt lat="43.6281011" lon="10.848687"><ele>51.0</ele><time>2026-04-04T14:55:32.955Z</time></trkpt><trkpt lat="43.6282251" lon="10.8486147"><ele>51.0</ele><time>2026-04-04T14:55:33.966Z</time></trkpt><trkpt lat="43.6283496" lon="10.8485363"><ele>51.0</ele><time>2026-04-04T14:55:34.974Z</time></trkpt><trkpt lat="43.628477" lon="10.8484553"><ele>51.0</ele><time>2026-04-04T14:55:35.955Z</time></trkpt><trkpt lat="43.6286067" lon="10.8483615"><ele>51.0</ele><time>2026-04-04T14:55:36.958Z</time></trkpt><trkpt lat="43.6287424" lon="10.848266"><ele>51.66666666666667</ele><time>2026-04-04T14:55:37.974Z</time></trkpt><trkpt lat="43.6288792" lon="10.848166"><ele>52.333333333333336</ele><time>2026-04-04T14:55:38.981Z</time></trkpt><trkpt lat="43.629011" lon="10.8480644"><ele>53.0</ele><time>2026-04-04T14:55:39.953Z</time></trkpt><trkpt lat="43.6291372" lon="10.8479635"><ele>53.0</ele><time>2026-04-04T14:55:40.968Z</time></trkpt><trkpt lat="43.6292564" lon="10.8478613"><ele>53.0</ele><time>2026-04-04T14:55:41.975Z</time></trkpt><trkpt lat="43.6293652" lon="10.8477539"><ele>53.0</ele><time>2026-04-04T14:55:42.95Z</time></trkpt><trkpt lat="43.6294593" lon="10.8476339"><ele>53.0</ele><time>2026-04-04T14:55:43.964Z</time></trkpt><trkpt lat="43.6295397" lon="10.8475062"><ele>52.599999999999994</ele><time>2026-04-04T14:55:44.953Z</time></trkpt><trkpt lat="43.6296151" lon="10.8473834"><ele>52.199999999999996</ele><time>2026-04-04T14:55:45.976Z</time></trkpt><trkpt lat="43.6296948" lon="10.8472784"><ele>51.8</ele><time>2026-04-04T14:55:46.965Z</time></trkpt><trkpt lat="43.629779" lon="10.8472032"><ele>51.4</ele><time>2026-04-04T14:55:47.952Z</time></trkpt><trkpt lat="43.6298496" lon="10.8471599"><ele>51.0</ele><time>2026-04-04T14:55:48.969Z</time></trkpt><trkpt lat="43.6299434" lon="10.8471454"><ele>51.0</ele><time>2026-04-04T14:55:50.969Z</time></trkpt><trkpt lat="43.6300118" lon="10.8471695"><ele>51.0</ele><time>2026-04-04T14:55:54.959Z</time></trkpt><trkpt lat="43.6300727" lon="10.8472372"><ele>51.0</ele><time>2026-04-04T14:55:56.96Z</time></trkpt><trkpt lat="43.6301495" lon="10.8473729"><ele>51.0</ele><time>2026-04-04T14:55:58.967Z</time></trkpt><trkpt lat="43.6301971" lon="10.8474609"><ele>51.0</ele><time>2026-04-04T14:55:59.967Z</time></trkpt><trkpt lat="43.6302508" lon="10.8475639"><ele>51.0</ele><time>2026-04-04T14:56:00.952Z</time></trkpt><trkpt lat="43.6303083" lon="10.8476722"><ele>50.25</ele><time>2026-04-04T14:56:01.978Z</time></trkpt><trkpt lat="43.6303707" lon="10.8477863"><ele>49.5</ele><time>2026-04-04T14:56:02.967Z</time></trkpt><trkpt lat="43.6304368" lon="10.8479072"><ele>48.75</ele><time>2026-04-04T14:56:03.96Z</time></trkpt><trkpt lat="43.6305066" lon="10.8480373"><ele>48.0</ele><time>2026-04-04T14:56:04.96Z</time></trkpt><trkpt lat="43.6305787" lon="10.8481701"><ele>48.0</ele><time>2026-04-04T14:56:05.963Z</time></trkpt><trkpt lat="43.6306518" lon="10.8483053"><ele>48.0</ele><time>2026-04-04T14:56:06.968Z</time></trkpt><trkpt lat="43.630725" lon="10.84844"><ele>48.0</ele><time>2026-04-04T14:56:07.952Z</time></trkpt><trkpt lat="43.6308007" lon="10.8485793"><ele>48.0</ele><time>2026-04-04T14:56:08.955Z</time></trkpt><trkpt lat="43.6308754" lon="10.8487203"><ele>47.75</ele><time>2026-04-04T14:56:09.952Z</time></trkpt><trkpt lat="43.6309453" lon="10.8488546"><ele>47.5</ele><time>2026-04-04T14:56:10.979Z</time></trkpt><trkpt lat="43.6310142" lon="10.8489876"><ele>47.25</ele><time>2026-04-04T14:56:11.966Z</time></trkpt><trkpt lat="43.6310818" lon="10.8491165"><ele>47.0</ele><time>2026-04-04T14:56:12.954Z</time></trkpt><trkpt lat="43.6311521" lon="10.8492449"><ele>47.0</ele><time>2026-04-04T14:56:13.983Z</time></trkpt><trkpt lat="43.6312277" lon="10.8493715"><ele>47.0</ele><time>2026-04-04T14:56:14.959Z</time></trkpt><trkpt lat="43.6313052" lon="10.8494968"><ele>47.0</ele><time>2026-04-04T14:56:15.967Z</time></trkpt><trkpt lat="43.6313816" lon="10.8496218"><ele>47.0</ele><time>2026-04-04T14:56:16.957Z</time></trkpt><trkpt lat="43.6314559" lon="10.8497452"><ele>47.0</ele><time>2026-04-04T14:56:17.967Z</time></trkpt><trkpt lat="43.6315304" lon="10.8498675"><ele>47.0</ele><time>2026-04-04T14:56:18.954Z</time></trkpt><trkpt lat="43.6316074" lon="10.8499916"><ele>47.0</ele><time>2026-04-04T14:56:19.973Z</time></trkpt><trkpt lat="43.6316874" lon="10.850121"><ele>47.0</ele><time>2026-04-04T14:56:20.955Z</time></trkpt><trkpt lat="43.6317718" lon="10.850258"><ele>47.25</ele><time>2026-04-04T14:56:21.968Z</time></trkpt><trkpt lat="43.6318578" lon="10.8504002"><ele>47.5</ele><time>2026-04-04T14:56:22.977Z</time></trkpt><trkpt lat="43.6319442" lon="10.850543"><ele>47.75</ele><time>2026-04-04T14:56:23.979Z</time></trkpt><trkpt lat="43.6320287" lon="10.8506891"><ele>48.0</ele><time>2026-04-04T14:56:24.962Z</time></trkpt><trkpt lat="43.6321065" lon="10.8508254"><ele>48.166666666666664</ele><time>2026-04-04T14:56:25.968Z</time></trkpt><trkpt lat="43.6321796" lon="10.8509486"><ele>48.33333333333333</ele><time>2026-04-04T14:56:26.958Z</time></trkpt><trkpt lat="43.6322451" lon="10.8510569"><ele>48.5</ele><time>2026-04-04T14:56:27.967Z</time></trkpt><trkpt lat="43.6323034" lon="10.8511459"><ele>48.666666666666664</ele><time>2026-04-04T14:56:28.962Z</time></trkpt><trkpt lat="43.6323519" lon="10.8512236"><ele>48.83333333333333</ele><time>2026-04-04T14:56:29.958Z</time></trkpt><trkpt lat="43.6323925" lon="10.8512924"><ele>49.0</ele><time>2026-04-04T14:56:30.978Z</time></trkpt><trkpt lat="43.6324411" lon="10.8514004"><ele>49.2</ele><time>2026-04-04T14:56:32.958Z</time></trkpt><trkpt lat="43.6323459" lon="10.8515209"><ele>49.400000000000006</ele><time>2026-04-04T14:56:34.954Z</time></trkpt><trkpt lat="43.6322851" lon="10.851597"><ele>49.6</ele><time>2026-04-04T14:56:35.961Z</time></trkpt><trkpt lat="43.6322171" lon="10.8516846"><ele>49.8</ele><time>2026-04-04T14:56:36.949Z</time></trkpt><trkpt lat="43.6321439" lon="10.8517784"><ele>50.0</ele><time>2026-04-04T14:56:37.983Z</time></trkpt><trkpt lat="43.6320658" lon="10.8518766"><ele>50.25</ele><time>2026-04-04T14:56:38.963Z</time></trkpt><trkpt lat="43.63198" lon="10.8519819"><ele>50.5</ele><time>2026-04-04T14:56:39.958Z</time></trkpt><trkpt lat="43.6318856" lon="10.8521"><ele>50.75</ele><time>2026-04-04T14:56:40.976Z</time></trkpt><trkpt lat="43.6317835" lon="10.8522317"><ele>51.0</ele><time>2026-04-04T14:56:41.961Z</time></trkpt><trkpt lat="43.6316726" lon="10.8523716"><ele>51.0</ele><time>2026-04-04T14:56:42.975Z</time></trkpt><trkpt lat="43.6315602" lon="10.8525118"><ele>51.0</ele><time>2026-04-04T14:56:43.961Z</time></trkpt><trkpt lat="43.6314438" lon="10.8526585"><ele>51.0</ele><time>2026-04-04T14:56:44.953Z</time></trkpt><trkpt lat="43.6313213" lon="10.8528136"><ele>51.66666666666667</ele><time>2026-04-04T14:56:45.966Z</time></trkpt><trkpt lat="43.6311942" lon="10.8529745"><ele>52.333333333333336</ele><time>2026-04-04T14:56:46.977Z</time></trkpt><trkpt lat="43.6310634" lon="10.8531375"><ele>53.0</ele><time>2026-04-04T14:56:47.963Z</time></trkpt><trkpt lat="43.6309308" lon="10.8533026"><ele>53.0</ele><time>2026-04-04T14:56:48.979Z</time></trkpt><trkpt lat="43.6307962" lon="10.8534676"><ele>53.0</ele><time>2026-04-04T14:56:49.974Z</time></trkpt><trkpt lat="43.630661" lon="10.8536352"><ele>53.0</ele><time>2026-04-04T14:56:50.966Z</time></trkpt><trkpt lat="43.6305254" lon="10.8538067"><ele>53.0</ele><time>2026-04-04T14:56:51.962Z</time></trkpt><trkpt lat="43.6303885" lon="10.8539813"><ele>53.0</ele><time>2026-04-04T14:56:52.962Z</time></trkpt><trkpt lat="43.6302506" lon="10.8541572"><ele>53.0</ele><time>2026-04-04T14:56:53.962Z</time></trkpt><trkpt lat="43.6301137" lon="10.8543317"><ele>52.0</ele><time>2026-04-04T14:56:54.954Z</time></trkpt><trkpt lat="43.6299765" lon="10.8544968"><ele>51.0</ele><time>2026-04-04T14:56:55.964Z</time></trkpt><trkpt lat="43.6298428" lon="10.8546607"><ele>50.0</ele><time>2026-04-04T14:56:56.967Z</time></trkpt><trkpt lat="43.6297079" lon="10.854829"><ele>50.0</ele><time>2026-04-04T14:56:57.966Z</time></trkpt><trkpt lat="43.629571" lon="10.8550001"><ele>50.0</ele><time>2026-04-04T14:56:58.982Z</time></trkpt><trkpt lat="43.6294333" lon="10.8551741"><ele>50.0</ele><time>2026-04-04T14:56:59.976Z</time></trkpt><trkpt lat="43.6292959" lon="10.8553501"><ele>51.0</ele><time>2026-04-04T14:57:00.971Z</time></trkpt><trkpt lat="43.6291588" lon="10.8555277"><ele>52.0</ele><time>2026-04-04T14:57:01.962Z</time></trkpt><trkpt lat="43.6290238" lon="10.8557054"><ele>53.0</ele><time>2026-04-04T14:57:02.955Z</time></trkpt><trkpt lat="43.6288878" lon="10.8558859"><ele>52.66666666666667</ele><time>2026-04-04T14:57:03.975Z</time></trkpt><trkpt lat="43.6287524" lon="10.856069"><ele>52.33333333333333</ele><time>2026-04-04T14:57:04.978Z</time></trkpt><trkpt lat="43.628618" lon="10.8562533"><ele>52.0</ele><time>2026-04-04T14:57:05.978Z</time></trkpt><trkpt lat="43.6284873" lon="10.8564405"><ele>52.0</ele><time>2026-04-04T14:57:06.959Z</time></trkpt><trkpt lat="43.6283616" lon="10.8566307"><ele>52.0</ele><time>2026-04-04T14:57:07.964Z</time></trkpt><trkpt lat="43.6282387" lon="10.8568224"><ele>52.0</ele><time>2026-04-04T14:57:08.948Z</time></trkpt><trkpt lat="43.6281177" lon="10.857017"><ele>52.666666666666664</ele><time>2026-04-04T14:57:09.964Z</time></trkpt><trkpt lat="43.6279987" lon="10.8572141"><ele>53.33333333333333</ele><time>2026-04-04T14:57:10.961Z</time></trkpt><trkpt lat="43.6278785" lon="10.8574075"><ele>54.0</ele><time>2026-04-04T14:57:11.95Z</time></trkpt><trkpt lat="43.6277662" lon="10.857611"><ele>52.33333333333333</ele><time>2026-04-04T14:57:12.959Z</time></trkpt><trkpt lat="43.6276533" lon="10.8578149"><ele>50.666666666666664</ele><time>2026-04-04T14:57:13.959Z</time></trkpt><trkpt lat="43.6275413" lon="10.8580112"><ele>49.0</ele><time>2026-04-04T14:57:14.979Z</time></trkpt><trkpt lat="43.6274361" lon="10.8581914"><ele>49.0</ele><time>2026-04-04T14:57:15.954Z</time></trkpt><trkpt lat="43.6273363" lon="10.858348"><ele>49.0</ele><time>2026-04-04T14:57:16.977Z</time></trkpt><trkpt lat="43.6272371" lon="10.8584831"><ele>49.0</ele><time>2026-04-04T14:57:17.966Z</time></trkpt><trkpt lat="43.6271358" lon="10.8585917"><ele>49.0</ele><time>2026-04-04T14:57:18.962Z</time></trkpt><trkpt lat="43.6270325" lon="10.8586803"><ele>49.25</ele><time>2026-04-04T14:57:19.974Z</time></trkpt><trkpt lat="43.6269245" lon="10.8587614"><ele>49.5</ele><time>2026-04-04T14:57:20.973Z</time></trkpt><trkpt lat="43.626805" lon="10.8588306"><ele>49.75</ele><time>2026-04-04T14:57:21.977Z</time></trkpt><trkpt lat="43.6266753" lon="10.858885"><ele>50.0</ele><time>2026-04-04T14:57:22.968Z</time></trkpt><trkpt lat="43.6265393" lon="10.8589328"><ele>50.0</ele><time>2026-04-04T14:57:23.975Z</time></trkpt><trkpt lat="43.6263975" lon="10.8589639"><ele>50.0</ele><time>2026-04-04T14:57:24.972Z</time></trkpt><trkpt lat="43.6262586" lon="10.8589628"><ele>50.0</ele><time>2026-04-04T14:57:25.962Z</time></trkpt><trkpt lat="43.6261319" lon="10.8589427"><ele>50.0</ele><time>2026-04-04T14:57:26.953Z</time></trkpt><trkpt lat="43.6260167" lon="10.8589205"><ele>50.16666666666667</ele><time>2026-04-04T14:57:27.955Z</time></trkpt><trkpt lat="43.6259221" lon="10.8588999"><ele>50.333333333333336</ele><time>2026-04-04T14:57:28.971Z</time></trkpt><trkpt lat="43.6258329" lon="10.8588884"><ele>50.5</ele><time>2026-04-04T14:57:29.966Z</time></trkpt><trkpt lat="43.625748" lon="10.8588826"><ele>50.66666666666667</ele><time>2026-04-04T14:57:30.957Z</time></trkpt><trkpt lat="43.6256611" lon="10.8588914"><ele>50.833333333333336</ele><time>2026-04-04T14:57:31.973Z</time></trkpt><trkpt lat="43.6255734" lon="10.8589256"><ele>51.0</ele><time>2026-04-04T14:57:32.974Z</time></trkpt><trkpt lat="43.6254884" lon="10.8589841"><ele>51.0</ele><time>2026-04-04T14:57:33.966Z</time></trkpt><trkpt lat="43.6254079" lon="10.8590659"><ele>51.0</ele><time>2026-04-04T14:57:34.959Z</time></trkpt><trkpt lat="43.6253288" lon="10.8591659"><ele>51.0</ele><time>2026-04-04T14:57:35.974Z</time></trkpt><trkpt lat="43.6252497" lon="10.8592823"><ele>51.0</ele><time>2026-04-04T14:57:36.967Z</time></trkpt><trkpt lat="43.625165" lon="10.8594103"><ele>51.0</ele><time>2026-04-04T14:57:37.961Z</time></trkpt><trkpt lat="43.6250738" lon="10.8595487"><ele>51.0</ele><time>2026-04-04T14:57:38.966Z</time></trkpt><trkpt lat="43.6249804" lon="10.8596934"><ele>51.0</ele><time>2026-04-04T14:57:39.97Z</time></trkpt><trkpt lat="43.6248867" lon="10.8598421"><ele>51.0</ele><time>2026-04-04T14:57:40.964Z</time></trkpt><trkpt lat="43.6247947" lon="10.8599925"><ele>51.0</ele><time>2026-04-04T14:57:41.975Z</time></trkpt><trkpt lat="43.6247083" lon="10.8601489"><ele>50.75</ele><time>2026-04-04T14:57:42.952Z</time></trkpt><trkpt lat="43.6246338" lon="10.8603154"><ele>50.5</ele><time>2026-04-04T14:57:43.96Z</time></trkpt><trkpt lat="43.6245689" lon="10.8604852"><ele>50.25</ele><time>2026-04-04T14:57:44.958Z</time></trkpt><trkpt lat="43.6245082" lon="10.8606493"><ele>50.0</ele><time>2026-04-04T14:57:45.966Z</time></trkpt><trkpt lat="43.6244483" lon="10.860808"><ele>50.5</ele><time>2026-04-04T14:57:46.977Z</time></trkpt><trkpt lat="43.6243874" lon="10.860967"><ele>51.0</ele><time>2026-04-04T14:57:47.972Z</time></trkpt><trkpt lat="43.6243254" lon="10.861131"><ele>51.5</ele><time>2026-04-04T14:57:48.967Z</time></trkpt><trkpt lat="43.6242629" lon="10.8612998"><ele>52.0</ele><time>2026-04-04T14:57:49.958Z</time></trkpt><trkpt lat="43.6242022" lon="10.861467"><ele>52.0</ele><time>2026-04-04T14:57:50.974Z</time></trkpt><trkpt lat="43.6241435" lon="10.8616293"><ele>52.0</ele><time>2026-04-04T14:57:51.962Z</time></trkpt><trkpt lat="43.6240868" lon="10.8617834"><ele>52.0</ele><time>2026-04-04T14:57:52.974Z</time></trkpt><trkpt lat="43.624032" lon="10.8619248"><ele>52.0</ele><time>2026-04-04T14:57:53.963Z</time></trkpt><trkpt lat="43.6239786" lon="10.8620612"><ele>52.0</ele><time>2026-04-04T14:57:54.961Z</time></trkpt><trkpt lat="43.6239262" lon="10.8621931"><ele>52.0</ele><time>2026-04-04T14:57:55.97Z</time></trkpt><trkpt lat="43.6238766" lon="10.8623211"><ele>52.0</ele><time>2026-04-04T14:57:56.952Z</time></trkpt><trkpt lat="43.6238291" lon="10.8624447"><ele>52.0</ele><time>2026-04-04T14:57:57.949Z</time></trkpt><trkpt lat="43.6237829" lon="10.8625624"><ele>52.0</ele><time>2026-04-04T14:57:58.967Z</time></trkpt><trkpt lat="43.623738" lon="10.8626772"><ele>51.99999999999999</ele><time>2026-04-04T14:57:59.968Z</time></trkpt><trkpt lat="43.6236966" lon="10.862784"><ele>52.0</ele><time>2026-04-04T14:58:00.961Z</time></trkpt><trkpt lat="43.6236616" lon="10.8628742"><ele>52.0</ele><time>2026-04-04T14:58:01.98Z</time></trkpt><trkpt lat="43.6236139" lon="10.8629999"><ele>52.0</ele><time>2026-04-04T14:58:03.969Z</time></trkpt><trkpt lat="43.6236203" lon="10.8630958"><ele>51.99999999999999</ele><time>2026-04-04T14:58:05.964Z</time></trkpt><trkpt lat="43.623698" lon="10.8631749"><ele>52.0</ele><time>2026-04-04T14:58:07.955Z</time></trkpt><trkpt lat="43.6237586" lon="10.8632233"><ele>52.0</ele><time>2026-04-04T14:58:08.967Z</time></trkpt><trkpt lat="43.6238292" lon="10.8632781"><ele>52.0</ele><time>2026-04-04T14:58:09.974Z</time></trkpt><trkpt lat="43.6239085" lon="10.8633391"><ele>52.0</ele><time>2026-04-04T14:58:10.968Z</time></trkpt><trkpt lat="43.6239972" lon="10.8634092"><ele>52.0</ele><time>2026-04-04T14:58:11.951Z</time></trkpt><trkpt lat="43.6240931" lon="10.8634849"><ele>52.0</ele><time>2026-04-04T14:58:12.961Z</time></trkpt><trkpt lat="43.6241945" lon="10.863566"><ele>51.75</ele><time>2026-04-04T14:58:13.953Z</time></trkpt><trkpt lat="43.6243046" lon="10.863651"><ele>51.5</ele><time>2026-04-04T14:58:14.97Z</time></trkpt><trkpt lat="43.6244175" lon="10.8637398"><ele>51.25</ele><time>2026-04-04T14:58:15.97Z</time></trkpt><trkpt lat="43.6245322" lon="10.8638313"><ele>51.0</ele><time>2026-04-04T14:58:16.954Z</time></trkpt><trkpt lat="43.6246462" lon="10.8639212"><ele>52.0</ele><time>2026-04-04T14:58:17.974Z</time></trkpt><trkpt lat="43.6247586" lon="10.8640103"><ele>53.0</ele><time>2026-04-04T14:58:18.971Z</time></trkpt><trkpt lat="43.6248688" lon="10.8640992"><ele>54.0</ele><time>2026-04-04T14:58:19.951Z</time></trkpt><trkpt lat="43.6249788" lon="10.8641876"><ele>55.0</ele><time>2026-04-04T14:58:20.954Z</time></trkpt><trkpt lat="43.625089" lon="10.8642763"><ele>54.75</ele><time>2026-04-04T14:58:21.958Z</time></trkpt><trkpt lat="43.6252005" lon="10.8643655"><ele>54.5</ele><time>2026-04-04T14:58:22.956Z</time></trkpt><trkpt lat="43.6253122" lon="10.8644547"><ele>54.25</ele><time>2026-04-04T14:58:23.973Z</time></trkpt><trkpt lat="43.6254237" lon="10.8645436"><ele>54.0</ele><time>2026-04-04T14:58:24.962Z</time></trkpt><trkpt lat="43.6255352" lon="10.8646331"><ele>55.25</ele><time>2026-04-04T14:58:25.955Z</time></trkpt><trkpt lat="43.6256458" lon="10.8647226"><ele>56.5</ele><time>2026-04-04T14:58:26.968Z</time></trkpt><trkpt lat="43.6257557" lon="10.8648119"><ele>57.75</ele><time>2026-04-04T14:58:27.967Z</time></trkpt><trkpt lat="43.6258646" lon="10.8648995"><ele>59.0</ele><time>2026-04-04T14:58:28.951Z</time></trkpt><trkpt lat="43.6259716" lon="10.8649856"><ele>59.0</ele><time>2026-04-04T14:58:29.952Z</time></trkpt><trkpt lat="43.6260736" lon="10.8650668"><ele>59.00000000000001</ele><time>2026-04-04T14:58:30.967Z</time></trkpt><trkpt lat="43.6261653" lon="10.8651373"><ele>59.00000000000001</ele><time>2026-04-04T14:58:31.964Z</time></trkpt><trkpt lat="43.6262519" lon="10.8651964"><ele>59.0</ele><time>2026-04-04T14:58:32.967Z</time></trkpt><trkpt lat="43.6263273" lon="10.8652389"><ele>59.0</ele><time>2026-04-04T14:58:33.968Z</time></trkpt><trkpt lat="43.6263954" lon="10.8652603"><ele>60.6</ele><time>2026-04-04T14:58:34.972Z</time></trkpt><trkpt lat="43.6264967" lon="10.8651862"><ele>62.2</ele><time>2026-04-04T14:58:36.96Z</time></trkpt><trkpt lat="43.626529" lon="10.8650915"><ele>63.800000000000004</ele><time>2026-04-04T14:58:37.969Z</time></trkpt><trkpt lat="43.626564" lon="10.8649861"><ele>65.4</ele><time>2026-04-04T14:58:38.967Z</time></trkpt><trkpt lat="43.6266031" lon="10.8648636"><ele>67.0</ele><time>2026-04-04T14:58:39.974Z</time></trkpt><trkpt lat="43.6266493" lon="10.8647371"><ele>67.0</ele><time>2026-04-04T14:58:40.97Z</time></trkpt><trkpt lat="43.6266956" lon="10.8645996"><ele>67.0</ele><time>2026-04-04T14:58:41.963Z</time></trkpt><trkpt lat="43.6267392" lon="10.8644599"><ele>67.0</ele><time>2026-04-04T14:58:42.967Z</time></trkpt><trkpt lat="43.6267896" lon="10.8643055"><ele>67.0</ele><time>2026-04-04T14:58:43.956Z</time></trkpt><trkpt lat="43.6268448" lon="10.8641449"><ele>68.25</ele><time>2026-04-04T14:58:44.962Z</time></trkpt><trkpt lat="43.6268976" lon="10.8639868"><ele>69.5</ele><time>2026-04-04T14:58:45.967Z</time></trkpt><trkpt lat="43.6269526" lon="10.8638341"><ele>70.75</ele><time>2026-04-04T14:58:46.969Z</time></trkpt><trkpt lat="43.6270078" lon="10.8636818"><ele>72.0</ele><time>2026-04-04T14:58:47.969Z</time></trkpt><trkpt lat="43.6270643" lon="10.8635292"><ele>71.2</ele><time>2026-04-04T14:58:48.966Z</time></trkpt><trkpt lat="43.6271215" lon="10.8633781"><ele>70.4</ele><time>2026-04-04T14:58:49.971Z</time></trkpt><trkpt lat="43.6271753" lon="10.8632349"><ele>69.6</ele><time>2026-04-04T14:58:50.963Z</time></trkpt><trkpt lat="43.6272199" lon="10.8631036"><ele>68.8</ele><time>2026-04-04T14:58:51.971Z</time></trkpt><trkpt lat="43.6272507" lon="10.8629827"><ele>68.0</ele><time>2026-04-04T14:58:52.963Z</time></trkpt><trkpt lat="43.6272594" lon="10.8628731"><ele>67.99999999999999</ele><time>2026-04-04T14:58:53.969Z</time></trkpt><trkpt lat="43.6272348" lon="10.8627811"><ele>68.0</ele><time>2026-04-04T14:58:54.96Z</time></trkpt><trkpt lat="43.6271897" lon="10.8627015"><ele>68.0</ele><time>2026-04-04T14:58:55.963Z</time></trkpt><trkpt lat="43.6271434" lon="10.8626279"><ele>68.0</ele><time>2026-04-04T14:58:56.965Z</time></trkpt><trkpt lat="43.6270988" lon="10.8625475"><ele>68.0</ele><time>2026-04-04T14:58:57.971Z</time></trkpt><trkpt lat="43.6270665" lon="10.8624542"><ele>67.99999999999999</ele><time>2026-04-04T14:58:58.962Z</time></trkpt><trkpt lat="43.6270497" lon="10.8623517"><ele>68.0</ele><time>2026-04-04T14:58:59.976Z</time></trkpt><trkpt lat="43.627046" lon="10.862246"><ele>68.5</ele><time>2026-04-04T14:59:00.959Z</time></trkpt><trkpt lat="43.6270522" lon="10.8621355"><ele>69.0</ele><time>2026-04-04T14:59:01.968Z</time></trkpt><trkpt lat="43.627071" lon="10.8620216"><ele>69.5</ele><time>2026-04-04T14:59:02.965Z</time></trkpt><trkpt lat="43.6271003" lon="10.861907"><ele>70.0</ele><time>2026-04-04T14:59:03.967Z</time></trkpt><trkpt lat="43.6271393" lon="10.8617998"><ele>70.5</ele><time>2026-04-04T14:59:04.964Z</time></trkpt><trkpt lat="43.6271814" lon="10.8617158"><ele>71.0</ele><time>2026-04-04T14:59:05.957Z</time></trkpt><trkpt lat="43.6272247" lon="10.8616457"><ele>71.83333333333334</ele><time>2026-04-04T14:59:06.964Z</time></trkpt><trkpt lat="43.6272739" lon="10.8615751"><ele>72.66666666666667</ele><time>2026-04-04T14:59:07.968Z</time></trkpt><trkpt lat="43.6273273" lon="10.8615117"><ele>73.5</ele><time>2026-04-04T14:59:08.969Z</time></trkpt><trkpt lat="43.6273812" lon="10.8614588"><ele>74.33333333333333</ele><time>2026-04-04T14:59:09.98Z</time></trkpt><trkpt lat="43.6274872" lon="10.8613775"><ele>75.16666666666666</ele><time>2026-04-04T14:59:11.978Z</time></trkpt><trkpt lat="43.6275925" lon="10.8613189"><ele>76.0</ele><time>2026-04-04T14:59:13.96Z</time></trkpt><trkpt lat="43.6276837" lon="10.8613562"><ele>76.0</ele><time>2026-04-04T14:59:15.975Z</time></trkpt><trkpt lat="43.627698" lon="10.8614635"><ele>76.0</ele><time>2026-04-04T14:59:17.964Z</time></trkpt><trkpt lat="43.6276976" lon="10.8616057"><ele>76.0</ele><time>2026-04-04T14:59:19.976Z</time></trkpt><trkpt lat="43.627774" lon="10.8616763"><ele>76.0</ele><time>2026-04-04T14:59:21.973Z</time></trkpt><trkpt lat="43.6278898" lon="10.8616218"><ele>76.0</ele><time>2026-04-04T14:59:23.951Z</time></trkpt><trkpt lat="43.627952" lon="10.8615816"><ele>77.83333333333333</ele><time>2026-04-04T14:59:24.963Z</time></trkpt><trkpt lat="43.6280205" lon="10.8615326"><ele>79.66666666666666</ele><time>2026-04-04T14:59:25.969Z</time></trkpt><trkpt lat="43.6280916" lon="10.8614868"><ele>81.5</ele><time>2026-04-04T14:59:26.948Z</time></trkpt><trkpt lat="43.6281671" lon="10.8614437"><ele>83.33333333333333</ele><time>2026-04-04T14:59:27.977Z</time></trkpt><trkpt lat="43.6282401" lon="10.8614067"><ele>85.16666666666667</ele><time>2026-04-04T14:59:28.957Z</time></trkpt><trkpt lat="43.6283127" lon="10.8613769"><ele>87.0</ele><time>2026-04-04T14:59:29.965Z</time></trkpt><trkpt lat="43.6283878" lon="10.8613552"><ele>87.0</ele><time>2026-04-04T14:59:30.946Z</time></trkpt><trkpt lat="43.6284656" lon="10.8613445"><ele>87.0</ele><time>2026-04-04T14:59:31.963Z</time></trkpt><trkpt lat="43.6285432" lon="10.8613485"><ele>87.0</ele><time>2026-04-04T14:59:32.956Z</time></trkpt><trkpt lat="43.6286177" lon="10.8613558"><ele>87.0</ele><time>2026-04-04T14:59:33.971Z</time></trkpt><trkpt lat="43.6286914" lon="10.8613847"><ele>87.0</ele><time>2026-04-04T14:59:34.958Z</time></trkpt><trkpt lat="43.6287669" lon="10.8614126"><ele>87.0</ele><time>2026-04-04T14:59:35.962Z</time></trkpt><trkpt lat="43.6288407" lon="10.8614632"><ele>88.83333333333333</ele><time>2026-04-04T14:59:36.955Z</time></trkpt><trkpt lat="43.6289212" lon="10.8615134"><ele>90.66666666666666</ele><time>2026-04-04T14:59:37.97Z</time></trkpt><trkpt lat="43.6290023" lon="10.8615649"><ele>92.5</ele><time>2026-04-04T14:59:38.959Z</time></trkpt><trkpt lat="43.6290796" lon="10.8616196"><ele>94.33333333333333</ele><time>2026-04-04T14:59:39.959Z</time></trkpt><trkpt lat="43.6291525" lon="10.8616775"><ele>96.16666666666666</ele><time>2026-04-04T14:59:40.96Z</time></trkpt><trkpt lat="43.6292111" lon="10.8617353"><ele>98.0</ele><time>2026-04-04T14:59:41.956Z</time></trkpt><trkpt lat="43.6292637" lon="10.8617889"><ele>98.0</ele><time>2026-04-04T14:59:42.972Z</time></trkpt><trkpt lat="43.6293562" lon="10.8618789"><ele>98.0</ele><time>2026-04-04T14:59:44.969Z</time></trkpt><trkpt lat="43.6294327" lon="10.8619818"><ele>98.0</ele><time>2026-04-04T14:59:46.967Z</time></trkpt><trkpt lat="43.6294858" lon="10.8621218"><ele>98.0</ele><time>2026-04-04T14:59:48.978Z</time></trkpt><trkpt lat="43.6295545" lon="10.8622139"><ele>98.0</ele><time>2026-04-04T14:59:50.968Z</time></trkpt><trkpt lat="43.6296472" lon="10.8622915"><ele>102.2</ele><time>2026-04-04T14:59:53.959Z</time></trkpt><trkpt lat="43.6297354" lon="10.8624044"><ele>106.4</ele><time>2026-04-04T14:59:55.964Z</time></trkpt><trkpt lat="43.6297993" lon="10.862536"><ele>110.60000000000001</ele><time>2026-04-04T14:59:57.954Z</time></trkpt><trkpt lat="43.6298326" lon="10.8626752"><ele>114.80000000000001</ele><time>2026-04-04T14:59:59.961Z</time></trkpt><trkpt lat="43.6298399" lon="10.8627975"><ele>119.0</ele><time>2026-04-04T15:00:01.961Z</time></trkpt><trkpt lat="43.6298344" lon="10.8629271"><ele>118.99999999999999</ele><time>2026-04-04T15:00:03.977Z</time></trkpt><trkpt lat="43.6298247" lon="10.8630853"><ele>119.0</ele><time>2026-04-04T15:00:05.961Z</time></trkpt><trkpt lat="43.6298134" lon="10.8631824"><ele>119.0</ele><time>2026-04-04T15:00:06.965Z</time></trkpt><trkpt lat="43.6297967" lon="10.8632856"><ele>119.0</ele><time>2026-04-04T15:00:07.95Z</time></trkpt><trkpt lat="43.6297643" lon="10.8633794"><ele>118.99999999999999</ele><time>2026-04-04T15:00:08.957Z</time></trkpt><trkpt lat="43.6297319" lon="10.8634652"><ele>119.0</ele><time>2026-04-04T15:00:09.963Z</time></trkpt><trkpt lat="43.6296639" lon="10.8635202"><ele>117.66666666666666</ele><time>2026-04-04T15:00:10.958Z</time></trkpt><trkpt lat="43.6295945" lon="10.863575"><ele>116.33333333333333</ele><time>2026-04-04T15:00:11.963Z</time></trkpt><trkpt lat="43.6295244" lon="10.8636372"><ele>115.0</ele><time>2026-04-04T15:00:12.965Z</time></trkpt><trkpt lat="43.6294649" lon="10.8637152"><ele>113.66666666666666</ele><time>2026-04-04T15:00:13.971Z</time></trkpt><trkpt lat="43.6294126" lon="10.8637954"><ele>112.33333333333333</ele><time>2026-04-04T15:00:14.949Z</time></trkpt><trkpt lat="43.6293735" lon="10.8638813"><ele>111.0</ele><time>2026-04-04T15:00:15.968Z</time></trkpt><trkpt lat="43.6293421" lon="10.8639778"><ele>111.19999999999999</ele><time>2026-04-04T15:00:16.953Z</time></trkpt><trkpt lat="43.629319" lon="10.8640936"><ele>111.39999999999999</ele><time>2026-04-04T15:00:17.954Z</time></trkpt><trkpt lat="43.6293009" lon="10.864231"><ele>111.6</ele><time>2026-04-04T15:00:18.961Z</time></trkpt><trkpt lat="43.6292852" lon="10.8643715"><ele>111.8</ele><time>2026-04-04T15:00:19.968Z</time></trkpt><trkpt lat="43.6292676" lon="10.8645114"><ele>112.0</ele><time>2026-04-04T15:00:20.948Z</time></trkpt><trkpt lat="43.6292425" lon="10.8646425"><ele>112.0</ele><time>2026-04-04T15:00:21.964Z</time></trkpt><trkpt lat="43.6292049" lon="10.8647627"><ele>111.99999999999999</ele><time>2026-04-04T15:00:22.966Z</time></trkpt><trkpt lat="43.6291517" lon="10.8648737"><ele>111.99999999999999</ele><time>2026-04-04T15:00:23.976Z</time></trkpt><trkpt lat="43.6290952" lon="10.8649868"><ele>112.0</ele><time>2026-04-04T15:00:24.982Z</time></trkpt><trkpt lat="43.6290226" lon="10.865099"><ele>112.0</ele><time>2026-04-04T15:00:25.962Z</time></trkpt><trkpt lat="43.6289498" lon="10.8652195"><ele>113.8</ele><time>2026-04-04T15:00:26.968Z</time></trkpt><trkpt lat="43.6288767" lon="10.8653403"><ele>115.6</ele><time>2026-04-04T15:00:27.964Z</time></trkpt><trkpt lat="43.6288215" lon="10.8654736"><ele>117.39999999999999</ele><time>2026-04-04T15:00:28.951Z</time></trkpt><trkpt lat="43.6287803" lon="10.8656122"><ele>119.19999999999999</ele><time>2026-04-04T15:00:29.969Z</time></trkpt><trkpt lat="43.6287517" lon="10.8657504"><ele>121.0</ele><time>2026-04-04T15:00:30.966Z</time></trkpt><trkpt lat="43.6287323" lon="10.8658842"><ele>122.4</ele><time>2026-04-04T15:00:31.957Z</time></trkpt><trkpt lat="43.6287253" lon="10.8660164"><ele>123.8</ele><time>2026-04-04T15:00:32.954Z</time></trkpt><trkpt lat="43.6287332" lon="10.8661462"><ele>125.20000000000002</ele><time>2026-04-04T15:00:33.971Z</time></trkpt><trkpt lat="43.6287584" lon="10.8662764"><ele>126.60000000000001</ele><time>2026-04-04T15:00:34.961Z</time></trkpt><trkpt lat="43.6287868" lon="10.866411"><ele>128.0</ele><time>2026-04-04T15:00:35.969Z</time></trkpt><trkpt lat="43.6288497" lon="10.8665485"><ele>128.0</ele><time>2026-04-04T15:00:36.97Z</time></trkpt><trkpt lat="43.6289141" lon="10.8666853"><ele>128.0</ele><time>2026-04-04T15:00:37.954Z</time></trkpt><trkpt lat="43.6289845" lon="10.8668194"><ele>128.0</ele><time>2026-04-04T15:00:38.975Z</time></trkpt><trkpt lat="43.6290501" lon="10.8669611"><ele>128.0</ele><time>2026-04-04T15:00:39.963Z</time></trkpt><trkpt lat="43.6291071" lon="10.8671106"><ele>128.25</ele><time>2026-04-04T15:00:40.969Z</time></trkpt><trkpt lat="43.6291634" lon="10.867267"><ele>128.5</ele><time>2026-04-04T15:00:41.959Z</time></trkpt><trkpt lat="43.6292222" lon="10.867424"><ele>128.75</ele><time>2026-04-04T15:00:42.954Z</time></trkpt><trkpt lat="43.6292814" lon="10.8675712"><ele>129.0</ele><time>2026-04-04T15:00:43.969Z</time></trkpt><trkpt lat="43.6293415" lon="10.8677117"><ele>127.0</ele><time>2026-04-04T15:00:44.962Z</time></trkpt><trkpt lat="43.629401" lon="10.8678462"><ele>125.0</ele><time>2026-04-04T15:00:45.97Z</time></trkpt><trkpt lat="43.629459" lon="10.867977"><ele>123.0</ele><time>2026-04-04T15:00:46.965Z</time></trkpt><trkpt lat="43.6295087" lon="10.8680934"><ele>121.0</ele><time>2026-04-04T15:00:47.953Z</time></trkpt><trkpt lat="43.6295591" lon="10.8682095"><ele>119.0</ele><time>2026-04-04T15:00:48.954Z</time></trkpt><trkpt lat="43.6296055" lon="10.8683178"><ele>122.80000000000001</ele><time>2026-04-04T15:00:49.971Z</time></trkpt><trkpt lat="43.6296458" lon="10.8684295"><ele>126.60000000000001</ele><time>2026-04-04T15:00:50.953Z</time></trkpt><trkpt lat="43.6296756" lon="10.8685447"><ele>130.4</ele><time>2026-04-04T15:00:51.973Z</time></trkpt><trkpt lat="43.6296899" lon="10.8686728"><ele>134.20000000000002</ele><time>2026-04-04T15:00:52.955Z</time></trkpt><trkpt lat="43.6296985" lon="10.8688061"><ele>138.0</ele><time>2026-04-04T15:00:53.961Z</time></trkpt><trkpt lat="43.6297068" lon="10.8689425"><ele>138.0</ele><time>2026-04-04T15:00:54.972Z</time></trkpt><trkpt lat="43.6297149" lon="10.8690737"><ele>138.0</ele><time>2026-04-04T15:00:55.97Z</time></trkpt><trkpt lat="43.6297264" lon="10.8692073"><ele>138.0</ele><time>2026-04-04T15:00:56.958Z</time></trkpt><trkpt lat="43.6297368" lon="10.8693393"><ele>138.0</ele><time>2026-04-04T15:00:57.972Z</time></trkpt><trkpt lat="43.6297509" lon="10.8694699"><ele>138.0</ele><time>2026-04-04T15:00:58.964Z</time></trkpt><trkpt lat="43.6297717" lon="10.8696007"><ele>137.8</ele><time>2026-04-04T15:00:59.958Z</time></trkpt><trkpt lat="43.6297956" lon="10.8697324"><ele>137.60000000000002</ele><time>2026-04-04T15:01:00.97Z</time></trkpt><trkpt lat="43.6298261" lon="10.8698698"><ele>137.39999999999998</ele><time>2026-04-04T15:01:01.957Z</time></trkpt><trkpt lat="43.629862" lon="10.8700091"><ele>137.2</ele><time>2026-04-04T15:01:02.959Z</time></trkpt><trkpt lat="43.6299041" lon="10.8701402"><ele>137.0</ele><time>2026-04-04T15:01:03.969Z</time></trkpt><trkpt lat="43.6299465" lon="10.8702683"><ele>137.79999999999998</ele><time>2026-04-04T15:01:04.966Z</time></trkpt><trkpt lat="43.629987" lon="10.8703959"><ele>138.6</ele><time>2026-04-04T15:01:05.974Z</time></trkpt><trkpt lat="43.6300153" lon="10.8705342"><ele>139.39999999999998</ele><time>2026-04-04T15:01:06.971Z</time></trkpt><trkpt lat="43.6300167" lon="10.8706836"><ele>140.2</ele><time>2026-04-04T15:01:07.965Z</time></trkpt><trkpt lat="43.6300143" lon="10.8708246"><ele>141.0</ele><time>2026-04-04T15:01:08.958Z</time></trkpt><trkpt lat="43.6299978" lon="10.8709725"><ele>142.4</ele><time>2026-04-04T15:01:09.976Z</time></trkpt><trkpt lat="43.6299743" lon="10.8711191"><ele>143.8</ele><time>2026-04-04T15:01:10.966Z</time></trkpt><trkpt lat="43.6299497" lon="10.871261"><ele>145.20000000000002</ele><time>2026-04-04T15:01:11.977Z</time></trkpt><trkpt lat="43.6299223" lon="10.871397"><ele>146.6</ele><time>2026-04-04T15:01:12.974Z</time></trkpt><trkpt lat="43.6298925" lon="10.8715269"><ele>148.0</ele><time>2026-04-04T15:01:13.968Z</time></trkpt><trkpt lat="43.6298525" lon="10.8716481"><ele>148.0</ele><time>2026-04-04T15:01:14.969Z</time></trkpt><trkpt lat="43.6298135" lon="10.8717721"><ele>148.0</ele><time>2026-04-04T15:01:15.96Z</time></trkpt><trkpt lat="43.6297791" lon="10.8719033"><ele>148.0</ele><time>2026-04-04T15:01:16.959Z</time></trkpt><trkpt lat="43.6297456" lon="10.8720322"><ele>148.0</ele><time>2026-04-04T15:01:17.955Z</time></trkpt><trkpt lat="43.6297074" lon="10.8721624"><ele>148.0</ele><time>2026-04-04T15:01:18.976Z</time></trkpt><trkpt lat="43.6296632" lon="10.8722891"><ele>147.8</ele><time>2026-04-04T15:01:19.975Z</time></trkpt><trkpt lat="43.6296127" lon="10.8724212"><ele>147.60000000000002</ele><time>2026-04-04T15:01:20.967Z</time></trkpt><trkpt lat="43.6295612" lon="10.8725569"><ele>147.39999999999998</ele><time>2026-04-04T15:01:21.968Z</time></trkpt><trkpt lat="43.6295111" lon="10.872689"><ele>147.2</ele><time>2026-04-04T15:01:22.965Z</time></trkpt><trkpt lat="43.6294644" lon="10.8728108"><ele>147.0</ele><time>2026-04-04T15:01:23.961Z</time></trkpt><trkpt lat="43.6294271" lon="10.872925"><ele>149.33333333333334</ele><time>2026-04-04T15:01:24.969Z</time></trkpt><trkpt lat="43.6293974" lon="10.8730428"><ele>151.66666666666666</ele><time>2026-04-04T15:01:25.969Z</time></trkpt><trkpt lat="43.6293819" lon="10.873162"><ele>154.0</ele><time>2026-04-04T15:01:26.967Z</time></trkpt><trkpt lat="43.629379" lon="10.8732826"><ele>156.33333333333331</ele><time>2026-04-04T15:01:27.966Z</time></trkpt><trkpt lat="43.6293789" lon="10.8734015"><ele>158.66666666666666</ele><time>2026-04-04T15:01:28.967Z</time></trkpt><trkpt lat="43.6293783" lon="10.8735188"><ele>161.0</ele><time>2026-04-04T15:01:29.955Z</time></trkpt><trkpt lat="43.6293671" lon="10.8736353"><ele>162.0</ele><time>2026-04-04T15:01:30.97Z</time></trkpt><trkpt lat="43.6293365" lon="10.8737529"><ele>163.0</ele><time>2026-04-04T15:01:31.958Z</time></trkpt><trkpt lat="43.6292948" lon="10.8738829"><ele>164.0</ele><time>2026-04-04T15:01:32.963Z</time></trkpt><trkpt lat="43.6292559" lon="10.874013"><ele>165.0</ele><time>2026-04-04T15:01:33.959Z</time></trkpt><trkpt lat="43.6292169" lon="10.8741323"><ele>166.0</ele><time>2026-04-04T15:01:34.951Z</time></trkpt><trkpt lat="43.6291786" lon="10.8742492"><ele>166.5</ele><time>2026-04-04T15:01:35.969Z</time></trkpt><trkpt lat="43.629144" lon="10.8743536"><ele>167.0</ele><time>2026-04-04T15:01:36.957Z</time></trkpt><trkpt lat="43.6290994" lon="10.8744506"><ele>167.5</ele><time>2026-04-04T15:01:37.973Z</time></trkpt><trkpt lat="43.6290548" lon="10.8745514"><ele>168.0</ele><time>2026-04-04T15:01:38.95Z</time></trkpt><trkpt lat="43.6290235" lon="10.8746524"><ele>168.5</ele><time>2026-04-04T15:01:39.958Z</time></trkpt><trkpt lat="43.6290239" lon="10.8747441"><ele>169.0</ele><time>2026-04-04T15:01:40.974Z</time></trkpt><trkpt lat="43.6290433" lon="10.8748323"><ele>169.0</ele><time>2026-04-04T15:01:41.963Z</time></trkpt><trkpt lat="43.6290691" lon="10.8749262"><ele>169.0</ele><time>2026-04-04T15:01:42.96Z</time></trkpt><trkpt lat="43.6291037" lon="10.8750346"><ele>169.0</ele><time>2026-04-04T15:01:43.968Z</time></trkpt><trkpt lat="43.6291448" lon="10.8751481"><ele>169.0</ele><time>2026-04-04T15:01:44.975Z</time></trkpt><trkpt lat="43.6292001" lon="10.8752436"><ele>169.0</ele><time>2026-04-04T15:01:45.954Z</time></trkpt><trkpt lat="43.629258" lon="10.8753137"><ele>169.0</ele><time>2026-04-04T15:01:46.968Z</time></trkpt><trkpt lat="43.6293312" lon="10.8753752"><ele>169.0</ele><time>2026-04-04T15:01:47.973Z</time></trkpt><trkpt lat="43.6294043" lon="10.875441"><ele>169.0</ele><time>2026-04-04T15:01:48.95Z</time></trkpt><trkpt lat="43.6294771" lon="10.8755032"><ele>169.0</ele><time>2026-04-04T15:01:49.966Z</time></trkpt><trkpt lat="43.6295462" lon="10.8755634"><ele>169.0</ele><time>2026-04-04T15:01:50.971Z</time></trkpt><trkpt lat="43.6296057" lon="10.8756151"><ele>169.0</ele><time>2026-04-04T15:01:51.969Z</time></trkpt><trkpt lat="43.6297019" lon="10.8756769"><ele>169.0</ele><time>2026-04-04T15:01:53.966Z</time></trkpt><trkpt lat="43.6297949" lon="10.8757258"><ele>169.0</ele><time>2026-04-04T15:01:55.967Z</time></trkpt><trkpt lat="43.6298876" lon="10.8757937"><ele>169.0</ele><time>2026-04-04T15:01:57.973Z</time></trkpt><trkpt lat="43.6299318" lon="10.8758618"><ele>169.0</ele><time>2026-04-04T15:01:58.953Z</time></trkpt><trkpt lat="43.6299728" lon="10.8759394"><ele>169.0</ele><time>2026-04-04T15:01:59.96Z</time></trkpt><trkpt lat="43.6300143" lon="10.8760265"><ele>169.0</ele><time>2026-04-04T15:02:00.973Z</time></trkpt><trkpt lat="43.6300578" lon="10.8761213"><ele>169.0</ele><time>2026-04-04T15:02:01.971Z</time></trkpt><trkpt lat="43.630096" lon="10.8762067"><ele>169.39999999999998</ele><time>2026-04-04T15:02:02.953Z</time></trkpt><trkpt lat="43.6301393" lon="10.8763113"><ele>169.8</ele><time>2026-04-04T15:02:04.998Z</time></trkpt><trkpt lat="43.630212" lon="10.8764577"><ele>170.2</ele><time>2026-04-04T15:02:07.952Z</time></trkpt><trkpt lat="43.6302548" lon="10.8765484"><ele>170.60000000000002</ele><time>2026-04-04T15:02:08.96Z</time></trkpt><trkpt lat="43.6302977" lon="10.8766391"><ele>171.0</ele><time>2026-04-04T15:02:09.961Z</time></trkpt><trkpt lat="43.6303458" lon="10.876739"><ele>170.60000000000002</ele><time>2026-04-04T15:02:10.966Z</time></trkpt><trkpt lat="43.6304077" lon="10.87685"><ele>170.2</ele><time>2026-04-04T15:02:11.967Z</time></trkpt><trkpt lat="43.6304762" lon="10.8769634"><ele>169.8</ele><time>2026-04-04T15:02:12.958Z</time></trkpt><trkpt lat="43.6305454" lon="10.8770769"><ele>169.39999999999998</ele><time>2026-04-04T15:02:13.963Z</time></trkpt><trkpt lat="43.6306094" lon="10.8771967"><ele>169.0</ele><time>2026-04-04T15:02:14.965Z</time></trkpt><trkpt lat="43.6306717" lon="10.8773158"><ele>169.0</ele><time>2026-04-04T15:02:15.969Z</time></trkpt><trkpt lat="43.630737" lon="10.8774355"><ele>169.0</ele><time>2026-04-04T15:02:16.957Z</time></trkpt><trkpt lat="43.6308141" lon="10.877547"><ele>169.0</ele><time>2026-04-04T15:02:17.961Z</time></trkpt><trkpt lat="43.630903" lon="10.8776525"><ele>169.0</ele><time>2026-04-04T15:02:18.972Z</time></trkpt><trkpt lat="43.6309962" lon="10.8777571"><ele>169.75</ele><time>2026-04-04T15:02:19.963Z</time></trkpt><trkpt lat="43.6310882" lon="10.8778642"><ele>170.5</ele><time>2026-04-04T15:02:20.976Z</time></trkpt><trkpt lat="43.6311787" lon="10.8779698"><ele>171.25</ele><time>2026-04-04T15:02:21.966Z</time></trkpt><trkpt lat="43.6312659" lon="10.8780706"><ele>172.0</ele><time>2026-04-04T15:02:22.973Z</time></trkpt><trkpt lat="43.6313513" lon="10.8781691"><ele>172.6</ele><time>2026-04-04T15:02:23.967Z</time></trkpt><trkpt lat="43.6314347" lon="10.8782644"><ele>173.2</ele><time>2026-04-04T15:02:24.965Z</time></trkpt><trkpt lat="43.6315188" lon="10.8783565"><ele>173.8</ele><time>2026-04-04T15:02:25.956Z</time></trkpt><trkpt lat="43.6316005" lon="10.8784509"><ele>174.4</ele><time>2026-04-04T15:02:26.958Z</time></trkpt><trkpt lat="43.6316805" lon="10.8785426"><ele>175.0</ele><time>2026-04-04T15:02:27.976Z</time></trkpt><trkpt lat="43.6317602" lon="10.8786345"><ele>176.0</ele><time>2026-04-04T15:02:28.973Z</time></trkpt><trkpt lat="43.6318387" lon="10.8787226"><ele>177.0</ele><time>2026-04-04T15:02:29.957Z</time></trkpt><trkpt lat="43.6319116" lon="10.8788047"><ele>178.0</ele><time>2026-04-04T15:02:30.955Z</time></trkpt><trkpt lat="43.6319834" lon="10.8788708"><ele>179.0</ele><time>2026-04-04T15:02:31.965Z</time></trkpt><trkpt lat="43.632059" lon="10.8789241"><ele>180.0</ele><time>2026-04-04T15:02:32.955Z</time></trkpt><trkpt lat="43.6321393" lon="10.8789761"><ele>182.5</ele><time>2026-04-04T15:02:33.962Z</time></trkpt><trkpt lat="43.6322128" lon="10.8790231"><ele>185.0</ele><time>2026-04-04T15:02:34.952Z</time></trkpt><trkpt lat="43.6322821" lon="10.8790571"><ele>187.5</ele><time>2026-04-04T15:02:35.961Z</time></trkpt><trkpt lat="43.6323542" lon="10.8790765"><ele>190.0</ele><time>2026-04-04T15:02:36.954Z</time></trkpt><trkpt lat="43.6324313" lon="10.8790771"><ele>192.5</ele><time>2026-04-04T15:02:37.969Z</time></trkpt><trkpt lat="43.6325043" lon="10.8790642"><ele>195.0</ele><time>2026-04-04T15:02:38.961Z</time></trkpt><trkpt lat="43.6326014" lon="10.879076"><ele>195.0</ele><time>2026-04-04T15:02:40.962Z</time></trkpt><trkpt lat="43.632655" lon="10.8791411"><ele>195.0</ele><time>2026-04-04T15:02:42.966Z</time></trkpt><trkpt lat="43.6326209" lon="10.8792236"><ele>195.0</ele><time>2026-04-04T15:02:44.947Z</time></trkpt><trkpt lat="43.6325322" lon="10.8793045"><ele>195.0</ele><time>2026-04-04T15:02:46.97Z</time></trkpt><trkpt lat="43.6324798" lon="10.8794426"><ele>195.0</ele><time>2026-04-04T15:02:48.974Z</time></trkpt><trkpt lat="43.6324936" lon="10.8795632"><ele>195.0</ele><time>2026-04-04T15:02:50.959Z</time></trkpt><trkpt lat="43.6325892" lon="10.8796566"><ele>195.57142857142856</ele><time>2026-04-04T15:02:52.961Z</time></trkpt><trkpt lat="43.6326556" lon="10.8796891"><ele>196.14285714285714</ele><time>2026-04-04T15:02:53.982Z</time></trkpt><trkpt lat="43.6327237" lon="10.8797186"><ele>196.71428571428572</ele><time>2026-04-04T15:02:54.955Z</time></trkpt><trkpt lat="43.6327932" lon="10.8797432"><ele>197.28571428571428</ele><time>2026-04-04T15:02:55.962Z</time></trkpt><trkpt lat="43.6328664" lon="10.8797687"><ele>197.85714285714286</ele><time>2026-04-04T15:02:56.963Z</time></trkpt><trkpt lat="43.632942" lon="10.8797886"><ele>198.42857142857142</ele><time>2026-04-04T15:02:57.963Z</time></trkpt><trkpt lat="43.6330144" lon="10.8797949"><ele>199.0</ele><time>2026-04-04T15:02:58.958Z</time></trkpt><trkpt lat="43.6330827" lon="10.8797828"><ele>200.99999999999997</ele><time>2026-04-04T15:02:59.972Z</time></trkpt><trkpt lat="43.6331495" lon="10.8797568"><ele>203.0</ele><time>2026-04-04T15:03:00.958Z</time></trkpt><trkpt lat="43.6332144" lon="10.8797295"><ele>205.0</ele><time>2026-04-04T15:03:01.964Z</time></trkpt><trkpt lat="43.6332781" lon="10.8797003"><ele>207.0</ele><time>2026-04-04T15:03:02.969Z</time></trkpt><trkpt lat="43.6333396" lon="10.8796728"><ele>209.0</ele><time>2026-04-04T15:03:03.964Z</time></trkpt><trkpt lat="43.6334021" lon="10.8796425"><ele>210.99999999999997</ele><time>2026-04-04T15:03:04.971Z</time></trkpt><trkpt lat="43.6334635" lon="10.8795984"><ele>213.0</ele><time>2026-04-04T15:03:05.957Z</time></trkpt><trkpt lat="43.6335244" lon="10.8795556"><ele>212.4</ele><time>2026-04-04T15:03:06.96Z</time></trkpt><trkpt lat="43.6336393" lon="10.8795165"><ele>211.8</ele><time>2026-04-04T15:03:08.964Z</time></trkpt><trkpt lat="43.6337695" lon="10.8795819"><ele>211.2</ele><time>2026-04-04T15:03:10.954Z</time></trkpt><trkpt lat="43.6338334" lon="10.8796431"><ele>210.6</ele><time>2026-04-04T15:03:11.967Z</time></trkpt><trkpt lat="43.6338986" lon="10.8797062"><ele>210.0</ele><time>2026-04-04T15:03:12.976Z</time></trkpt><trkpt lat="43.633969" lon="10.8797654"><ele>210.0</ele><time>2026-04-04T15:03:13.968Z</time></trkpt><trkpt lat="43.634049" lon="10.8798183"><ele>210.0</ele><time>2026-04-04T15:03:14.974Z</time></trkpt><trkpt lat="43.6341281" lon="10.8798656"><ele>210.0</ele><time>2026-04-04T15:03:15.976Z</time></trkpt><trkpt lat="43.6342006" lon="10.8799128"><ele>210.0</ele><time>2026-04-04T15:03:16.966Z</time></trkpt><trkpt lat="43.6342725" lon="10.8799589"><ele>210.0</ele><time>2026-04-04T15:03:17.974Z</time></trkpt><trkpt lat="43.6343438" lon="10.8800028"><ele>210.0</ele><time>2026-04-04T15:03:18.958Z</time></trkpt><trkpt lat="43.6344162" lon="10.8800465"><ele>208.0</ele><time>2026-04-04T15:03:19.977Z</time></trkpt><trkpt lat="43.634491" lon="10.8800899"><ele>206.0</ele><time>2026-04-04T15:03:20.958Z</time></trkpt><trkpt lat="43.6345658" lon="10.8801333"><ele>204.0</ele><time>2026-04-04T15:03:21.953Z</time></trkpt><trkpt lat="43.63464" lon="10.8801805"><ele>202.0</ele><time>2026-04-04T15:03:22.978Z</time></trkpt><trkpt lat="43.6347122" lon="10.8802326"><ele>200.0</ele><time>2026-04-04T15:03:23.957Z</time></trkpt><trkpt lat="43.6347838" lon="10.8802875"><ele>198.0</ele><time>2026-04-04T15:03:24.977Z</time></trkpt><trkpt lat="43.6348543" lon="10.8803427"><ele>197.33333333333334</ele><time>2026-04-04T15:03:25.956Z</time></trkpt><trkpt lat="43.6349239" lon="10.8803912"><ele>196.66666666666669</ele><time>2026-04-04T15:03:26.969Z</time></trkpt><trkpt lat="43.6349928" lon="10.8804361"><ele>196.0</ele><time>2026-04-04T15:03:27.958Z</time></trkpt><trkpt lat="43.6350591" lon="10.8804787"><ele>195.33333333333334</ele><time>2026-04-04T15:03:28.977Z</time></trkpt><trkpt lat="43.6351201" lon="10.880524"><ele>194.66666666666669</ele><time>2026-04-04T15:03:29.957Z</time></trkpt><trkpt lat="43.6352089" lon="10.8806307"><ele>194.0</ele><time>2026-04-04T15:03:31.959Z</time></trkpt><trkpt lat="43.6352579" lon="10.8807642"><ele>194.0</ele><time>2026-04-04T15:03:33.96Z</time></trkpt><trkpt lat="43.6352499" lon="10.8808618"><ele>194.0</ele><time>2026-04-04T15:03:34.97Z</time></trkpt><trkpt lat="43.6352419" lon="10.8809593"><ele>194.0</ele><time>2026-04-04T15:03:35.966Z</time></trkpt><trkpt lat="43.635233" lon="10.8810489"><ele>194.0</ele><time>2026-04-04T15:03:36.967Z</time></trkpt><trkpt lat="43.6352302" lon="10.8811407"><ele>194.0</ele><time>2026-04-04T15:03:37.961Z</time></trkpt><trkpt lat="43.6352605" lon="10.881236"><ele>194.0</ele><time>2026-04-04T15:03:38.952Z</time></trkpt><trkpt lat="43.635302" lon="10.881321"><ele>194.0</ele><time>2026-04-04T15:03:39.949Z</time></trkpt><trkpt lat="43.6353347" lon="10.8814092"><ele>190.79999999999998</ele><time>2026-04-04T15:03:40.958Z</time></trkpt><trkpt lat="43.63537" lon="10.8815139"><ele>187.6</ele><time>2026-04-04T15:03:41.959Z</time></trkpt><trkpt lat="43.6354093" lon="10.8816266"><ele>184.4</ele><time>2026-04-04T15:03:42.974Z</time></trkpt><trkpt lat="43.6354489" lon="10.8817529"><ele>181.2</ele><time>2026-04-04T15:03:43.962Z</time></trkpt><trkpt lat="43.6354837" lon="10.8819047"><ele>178.0</ele><time>2026-04-04T15:03:44.96Z</time></trkpt><trkpt lat="43.6355193" lon="10.8820595"><ele>177.60000000000002</ele><time>2026-04-04T15:03:45.973Z</time></trkpt><trkpt lat="43.6355532" lon="10.8822024"><ele>177.20000000000002</ele><time>2026-04-04T15:03:46.954Z</time></trkpt><trkpt lat="43.6355881" lon="10.8823335"><ele>176.8</ele><time>2026-04-04T15:03:47.963Z</time></trkpt><trkpt lat="43.6356238" lon="10.8824629"><ele>176.4</ele><time>2026-04-04T15:03:48.972Z</time></trkpt><trkpt lat="43.6356729" lon="10.8825739"><ele>176.0</ele><time>2026-04-04T15:03:49.97Z</time></trkpt><trkpt lat="43.6357103" lon="10.8826862"><ele>176.0</ele><time>2026-04-04T15:03:50.967Z</time></trkpt><trkpt lat="43.6357295" lon="10.8828052"><ele>176.0</ele><time>2026-04-04T15:03:51.961Z</time></trkpt><trkpt lat="43.6357371" lon="10.8829348"><ele>176.0</ele><time>2026-04-04T15:03:52.953Z</time></trkpt><trkpt lat="43.6357476" lon="10.883066"><ele>176.0</ele><time>2026-04-04T15:03:53.958Z</time></trkpt><trkpt lat="43.6357598" lon="10.8831806"><ele>176.0</ele><time>2026-04-04T15:03:54.981Z</time></trkpt><trkpt lat="43.6357719" lon="10.8832848"><ele>176.0</ele><time>2026-04-04T15:03:55.961Z</time></trkpt><trkpt lat="43.6357832" lon="10.8833818"><ele>175.0</ele><time>2026-04-04T15:03:56.957Z</time></trkpt><trkpt lat="43.6357936" lon="10.883478"><ele>174.0</ele><time>2026-04-04T15:03:57.962Z</time></trkpt><trkpt lat="43.6358026" lon="10.8835744"><ele>173.0</ele><time>2026-04-04T15:03:58.961Z</time></trkpt><trkpt lat="43.6358057" lon="10.8836725"><ele>172.0</ele><time>2026-04-04T15:03:59.972Z</time></trkpt><trkpt lat="43.6358043" lon="10.8837762"><ele>171.0</ele><time>2026-04-04T15:04:00.967Z</time></trkpt><trkpt lat="43.6357851" lon="10.8838979"><ele>170.0</ele><time>2026-04-04T15:04:01.959Z</time></trkpt><trkpt lat="43.6357598" lon="10.8840151"><ele>170.0</ele><time>2026-04-04T15:04:02.973Z</time></trkpt><trkpt lat="43.635735" lon="10.8841316"><ele>170.0</ele><time>2026-04-04T15:04:03.952Z</time></trkpt><trkpt lat="43.6357062" lon="10.8842375"><ele>170.0</ele><time>2026-04-04T15:04:04.973Z</time></trkpt><trkpt lat="43.6356734" lon="10.8843411"><ele>170.0</ele><time>2026-04-04T15:04:05.957Z</time></trkpt><trkpt lat="43.6356303" lon="10.8844432"><ele>170.0</ele><time>2026-04-04T15:04:06.956Z</time></trkpt><trkpt lat="43.6355765" lon="10.8845494"><ele>170.0</ele><time>2026-04-04T15:04:07.957Z</time></trkpt><trkpt lat="43.6355233" lon="10.8846503"><ele>168.6</ele><time>2026-04-04T15:04:08.957Z</time></trkpt><trkpt lat="43.6354701" lon="10.884742"><ele>167.2</ele><time>2026-04-04T15:04:09.978Z</time></trkpt><trkpt lat="43.6354136" lon="10.8848345"><ele>165.8</ele><time>2026-04-04T15:04:10.947Z</time></trkpt><trkpt lat="43.6353614" lon="10.8849289"><ele>164.4</ele><time>2026-04-04T15:04:11.963Z</time></trkpt><trkpt lat="43.6353221" lon="10.8850502"><ele>163.0</ele><time>2026-04-04T15:04:12.965Z</time></trkpt><trkpt lat="43.6352899" lon="10.88518"><ele>163.0</ele><time>2026-04-04T15:04:13.962Z</time></trkpt><trkpt lat="43.635258" lon="10.8853115"><ele>163.0</ele><time>2026-04-04T15:04:14.956Z</time></trkpt><trkpt lat="43.6352283" lon="10.8854382"><ele>163.0</ele><time>2026-04-04T15:04:15.976Z</time></trkpt><trkpt lat="43.6351997" lon="10.885562"><ele>163.0</ele><time>2026-04-04T15:04:16.963Z</time></trkpt><trkpt lat="43.6351748" lon="10.8856821"><ele>163.0</ele><time>2026-04-04T15:04:17.964Z</time></trkpt><trkpt lat="43.6351489" lon="10.8858034"><ele>162.0</ele><time>2026-04-04T15:04:18.955Z</time></trkpt><trkpt lat="43.6351241" lon="10.8859287"><ele>161.0</ele><time>2026-04-04T15:04:19.962Z</time></trkpt><trkpt lat="43.6350972" lon="10.8860696"><ele>160.0</ele><time>2026-04-04T15:04:20.964Z</time></trkpt><trkpt lat="43.6350679" lon="10.886204"><ele>159.0</ele><time>2026-04-04T15:04:21.964Z</time></trkpt><trkpt lat="43.6350358" lon="10.8863277"><ele>158.0</ele><time>2026-04-04T15:04:22.971Z</time></trkpt><trkpt lat="43.6350039" lon="10.8864449"><ele>158.0</ele><time>2026-04-04T15:04:23.959Z</time></trkpt><trkpt lat="43.634977" lon="10.8865613"><ele>158.0</ele><time>2026-04-04T15:04:24.97Z</time></trkpt><trkpt lat="43.6349521" lon="10.8866846"><ele>158.0</ele><time>2026-04-04T15:04:25.97Z</time></trkpt><trkpt lat="43.6349312" lon="10.8868088"><ele>158.0</ele><time>2026-04-04T15:04:26.966Z</time></trkpt><trkpt lat="43.6349127" lon="10.8869392"><ele>158.0</ele><time>2026-04-04T15:04:27.965Z</time></trkpt><trkpt lat="43.6349041" lon="10.8870719"><ele>158.20000000000002</ele><time>2026-04-04T15:04:28.969Z</time></trkpt><trkpt lat="43.6349059" lon="10.8872098"><ele>158.4</ele><time>2026-04-04T15:04:29.969Z</time></trkpt><trkpt lat="43.6349145" lon="10.88735"><ele>158.60000000000002</ele><time>2026-04-04T15:04:30.971Z</time></trkpt><trkpt lat="43.6349241" lon="10.8874933"><ele>158.8</ele><time>2026-04-04T15:04:31.956Z</time></trkpt><trkpt lat="43.6349347" lon="10.8876388"><ele>159.0</ele><time>2026-04-04T15:04:32.957Z</time></trkpt><trkpt lat="43.6349487" lon="10.8877823"><ele>160.0</ele><time>2026-04-04T15:04:33.957Z</time></trkpt><trkpt lat="43.6349686" lon="10.8879253"><ele>161.0</ele><time>2026-04-04T15:04:34.968Z</time></trkpt><trkpt lat="43.6349888" lon="10.8880692"><ele>162.0</ele><time>2026-04-04T15:04:35.971Z</time></trkpt><trkpt lat="43.6350167" lon="10.8882116"><ele>163.0</ele><time>2026-04-04T15:04:36.962Z</time></trkpt><trkpt lat="43.6350421" lon="10.8883526"><ele>164.0</ele><time>2026-04-04T15:04:37.955Z</time></trkpt><trkpt lat="43.6350645" lon="10.8885001"><ele>164.6</ele><time>2026-04-04T15:04:38.967Z</time></trkpt><trkpt lat="43.6350877" lon="10.8886503"><ele>165.2</ele><time>2026-04-04T15:04:39.949Z</time></trkpt><trkpt lat="43.6350958" lon="10.888804"><ele>165.79999999999998</ele><time>2026-04-04T15:04:40.971Z</time></trkpt><trkpt lat="43.6351015" lon="10.8889515"><ele>166.39999999999998</ele><time>2026-04-04T15:04:41.967Z</time></trkpt><trkpt lat="43.6350863" lon="10.889097"><ele>167.0</ele><time>2026-04-04T15:04:42.964Z</time></trkpt><trkpt lat="43.6350623" lon="10.8892407"><ele>166.6</ele><time>2026-04-04T15:04:43.958Z</time></trkpt><trkpt lat="43.6350281" lon="10.8893841"><ele>166.2</ele><time>2026-04-04T15:04:44.957Z</time></trkpt><trkpt lat="43.6349893" lon="10.8895229"><ele>165.8</ele><time>2026-04-04T15:04:45.979Z</time></trkpt><trkpt lat="43.6349505" lon="10.8896634"><ele>165.4</ele><time>2026-04-04T15:04:46.976Z</time></trkpt><trkpt lat="43.634915" lon="10.8898222"><ele>165.0</ele><time>2026-04-04T15:04:47.962Z</time></trkpt><trkpt lat="43.6348753" lon="10.8899743"><ele>164.75</ele><time>2026-04-04T15:04:48.958Z</time></trkpt><trkpt lat="43.6348336" lon="10.8901276"><ele>164.5</ele><time>2026-04-04T15:04:49.961Z</time></trkpt><trkpt lat="43.6347875" lon="10.8902863"><ele>164.25</ele><time>2026-04-04T15:04:50.971Z</time></trkpt><trkpt lat="43.6347387" lon="10.8904501"><ele>164.0</ele><time>2026-04-04T15:04:51.967Z</time></trkpt><trkpt lat="43.63469" lon="10.8906158"><ele>164.0</ele><time>2026-04-04T15:04:52.96Z</time></trkpt><trkpt lat="43.6346432" lon="10.8907772"><ele>164.0</ele><time>2026-04-04T15:04:53.96Z</time></trkpt><trkpt lat="43.6345976" lon="10.8909379"><ele>164.0</ele><time>2026-04-04T15:04:54.97Z</time></trkpt><trkpt lat="43.6345564" lon="10.891096"><ele>164.0</ele><time>2026-04-04T15:04:55.958Z</time></trkpt><trkpt lat="43.6345236" lon="10.8912511"><ele>164.0</ele><time>2026-04-04T15:04:56.969Z</time></trkpt><trkpt lat="43.6344957" lon="10.8913999"><ele>164.0</ele><time>2026-04-04T15:04:57.954Z</time></trkpt><trkpt lat="43.6344627" lon="10.8915407"><ele>164.0</ele><time>2026-04-04T15:04:58.97Z</time></trkpt><trkpt lat="43.634425" lon="10.8916732"><ele>164.0</ele><time>2026-04-04T15:04:59.974Z</time></trkpt><trkpt lat="43.6343837" lon="10.8917943"><ele>164.0</ele><time>2026-04-04T15:05:00.965Z</time></trkpt><trkpt lat="43.6343443" lon="10.8919061"><ele>164.66666666666666</ele><time>2026-04-04T15:05:01.965Z</time></trkpt><trkpt lat="43.6342928" lon="10.8919952"><ele>165.33333333333331</ele><time>2026-04-04T15:05:02.969Z</time></trkpt><trkpt lat="43.634247" lon="10.892077"><ele>166.0</ele><time>2026-04-04T15:05:03.966Z</time></trkpt><trkpt lat="43.6342173" lon="10.8921678"><ele>166.66666666666666</ele><time>2026-04-04T15:05:04.963Z</time></trkpt><trkpt lat="43.6341887" lon="10.8922602"><ele>167.33333333333334</ele><time>2026-04-04T15:05:05.963Z</time></trkpt><trkpt lat="43.6341804" lon="10.8923648"><ele>168.0</ele><time>2026-04-04T15:05:06.978Z</time></trkpt><trkpt lat="43.6341794" lon="10.8924874"><ele>167.16666666666666</ele><time>2026-04-04T15:05:07.95Z</time></trkpt><trkpt lat="43.6341738" lon="10.8926189"><ele>166.33333333333334</ele><time>2026-04-04T15:05:08.962Z</time></trkpt><trkpt lat="43.6341664" lon="10.8927481"><ele>165.5</ele><time>2026-04-04T15:05:09.967Z</time></trkpt><trkpt lat="43.6341593" lon="10.8928718"><ele>164.66666666666669</ele><time>2026-04-04T15:05:10.96Z</time></trkpt><trkpt lat="43.6341522" lon="10.8929843"><ele>163.83333333333334</ele><time>2026-04-04T15:05:11.97Z</time></trkpt><trkpt lat="43.6341367" lon="10.8930905"><ele>163.0</ele><time>2026-04-04T15:05:12.952Z</time></trkpt><trkpt lat="43.6341135" lon="10.8931925"><ele>163.0</ele><time>2026-04-04T15:05:13.969Z</time></trkpt><trkpt lat="43.6340724" lon="10.8932867"><ele>163.0</ele><time>2026-04-04T15:05:14.973Z</time></trkpt><trkpt lat="43.634016" lon="10.8933703"><ele>163.0</ele><time>2026-04-04T15:05:15.968Z</time></trkpt><trkpt lat="43.633938" lon="10.8934389"><ele>163.0</ele><time>2026-04-04T15:05:16.953Z</time></trkpt><trkpt lat="43.6338449" lon="10.8935049"><ele>163.0</ele><time>2026-04-04T15:05:17.965Z</time></trkpt><trkpt lat="43.6337593" lon="10.8935729"><ele>161.83333333333334</ele><time>2026-04-04T15:05:18.964Z</time></trkpt><trkpt lat="43.6336801" lon="10.8936461"><ele>160.66666666666669</ele><time>2026-04-04T15:05:19.968Z</time></trkpt><trkpt lat="43.6336145" lon="10.8937105"><ele>159.5</ele><time>2026-04-04T15:05:20.972Z</time></trkpt><trkpt lat="43.6335565" lon="10.8937868"><ele>158.33333333333334</ele><time>2026-04-04T15:05:21.971Z</time></trkpt><trkpt lat="43.633513" lon="10.8938795"><ele>157.16666666666666</ele><time>2026-04-04T15:05:22.967Z</time></trkpt><trkpt lat="43.6334729" lon="10.8939778"><ele>156.0</ele><time>2026-04-04T15:05:23.973Z</time></trkpt><trkpt lat="43.6334626" lon="10.8941302"><ele>153.75</ele><time>2026-04-04T15:05:24.969Z</time></trkpt><trkpt lat="43.6334602" lon="10.8942971"><ele>151.5</ele><time>2026-04-04T15:05:25.95Z</time></trkpt><trkpt lat="43.6334569" lon="10.8944644"><ele>149.25</ele><time>2026-04-04T15:05:26.972Z</time></trkpt><trkpt lat="43.6334496" lon="10.8946242"><ele>147.0</ele><time>2026-04-04T15:05:27.969Z</time></trkpt><trkpt lat="43.6334424" lon="10.8947762"><ele>147.0</ele><time>2026-04-04T15:05:28.956Z</time></trkpt><trkpt lat="43.6334345" lon="10.8949175"><ele>147.0</ele><time>2026-04-04T15:05:29.975Z</time></trkpt><trkpt lat="43.633427" lon="10.8950476"><ele>147.0</ele><time>2026-04-04T15:05:30.96Z</time></trkpt><trkpt lat="43.633416" lon="10.8951722"><ele>147.0</ele><time>2026-04-04T15:05:31.965Z</time></trkpt><trkpt lat="43.6334029" lon="10.8952903"><ele>147.0</ele><time>2026-04-04T15:05:32.964Z</time></trkpt><trkpt lat="43.6333574" lon="10.8953962"><ele>146.4</ele><time>2026-04-04T15:05:33.973Z</time></trkpt><trkpt lat="43.6332988" lon="10.8954943"><ele>145.79999999999998</ele><time>2026-04-04T15:05:34.95Z</time></trkpt><trkpt lat="43.6332356" lon="10.8955916"><ele>145.2</ele><time>2026-04-04T15:05:35.969Z</time></trkpt><trkpt lat="43.6331585" lon="10.8956908"><ele>144.6</ele><time>2026-04-04T15:05:36.965Z</time></trkpt><trkpt lat="43.633085" lon="10.8958007"><ele>144.0</ele><time>2026-04-04T15:05:37.974Z</time></trkpt><trkpt lat="43.6330079" lon="10.8959161"><ele>142.75</ele><time>2026-04-04T15:05:38.97Z</time></trkpt><trkpt lat="43.632922" lon="10.896029"><ele>141.5</ele><time>2026-04-04T15:05:39.959Z</time></trkpt><trkpt lat="43.6328307" lon="10.896144"><ele>140.25</ele><time>2026-04-04T15:05:40.952Z</time></trkpt><trkpt lat="43.6327444" lon="10.8962621"><ele>139.0</ele><time>2026-04-04T15:05:41.972Z</time></trkpt><trkpt lat="43.6326696" lon="10.8963991"><ele>141.25</ele><time>2026-04-04T15:05:42.965Z</time></trkpt><trkpt lat="43.6326084" lon="10.8965493"><ele>143.5</ele><time>2026-04-04T15:05:43.964Z</time></trkpt><trkpt lat="43.6325504" lon="10.8967063"><ele>145.75</ele><time>2026-04-04T15:05:44.968Z</time></trkpt><trkpt lat="43.632493" lon="10.8968667"><ele>148.0</ele><time>2026-04-04T15:05:45.971Z</time></trkpt><trkpt lat="43.6324344" lon="10.8970374"><ele>148.0</ele><time>2026-04-04T15:05:46.948Z</time></trkpt><trkpt lat="43.6323761" lon="10.8972123"><ele>148.0</ele><time>2026-04-04T15:05:47.964Z</time></trkpt><trkpt lat="43.6323173" lon="10.8973862"><ele>148.0</ele><time>2026-04-04T15:05:48.959Z</time></trkpt><trkpt lat="43.6322567" lon="10.8975578"><ele>148.0</ele><time>2026-04-04T15:05:49.961Z</time></trkpt><trkpt lat="43.6321967" lon="10.8977268"><ele>147.25</ele><time>2026-04-04T15:05:50.97Z</time></trkpt><trkpt lat="43.6321377" lon="10.8978935"><ele>146.5</ele><time>2026-04-04T15:05:51.962Z</time></trkpt><trkpt lat="43.6320807" lon="10.8980561"><ele>145.75</ele><time>2026-04-04T15:05:52.963Z</time></trkpt><trkpt lat="43.6320228" lon="10.8982182"><ele>145.0</ele><time>2026-04-04T15:05:53.975Z</time></trkpt><trkpt lat="43.6319625" lon="10.8983762"><ele>145.75</ele><time>2026-04-04T15:05:54.968Z</time></trkpt><trkpt lat="43.6319088" lon="10.8985294"><ele>146.5</ele><time>2026-04-04T15:05:55.951Z</time></trkpt><trkpt lat="43.6318578" lon="10.8986755"><ele>147.25</ele><time>2026-04-04T15:05:56.956Z</time></trkpt><trkpt lat="43.6318117" lon="10.898815"><ele>148.0</ele><time>2026-04-04T15:05:57.973Z</time></trkpt><trkpt lat="43.6317644" lon="10.8989498"><ele>148.0</ele><time>2026-04-04T15:05:58.962Z</time></trkpt><trkpt lat="43.631716" lon="10.8990809"><ele>148.0</ele><time>2026-04-04T15:05:59.975Z</time></trkpt><trkpt lat="43.6316677" lon="10.899214"><ele>148.0</ele><time>2026-04-04T15:06:00.968Z</time></trkpt><trkpt lat="43.6316199" lon="10.8993471"><ele>148.0</ele><time>2026-04-04T15:06:01.973Z</time></trkpt><trkpt lat="43.6315703" lon="10.8994814"><ele>148.0</ele><time>2026-04-04T15:06:02.978Z</time></trkpt><trkpt lat="43.6315215" lon="10.8996187"><ele>148.0</ele><time>2026-04-04T15:06:03.961Z</time></trkpt><trkpt lat="43.6314729" lon="10.8997592"><ele>148.0</ele><time>2026-04-04T15:06:04.978Z</time></trkpt><trkpt lat="43.631425" lon="10.8998982"><ele>148.0</ele><time>2026-04-04T15:06:05.975Z</time></trkpt><trkpt lat="43.6313783" lon="10.9000346"><ele>148.0</ele><time>2026-04-04T15:06:06.956Z</time></trkpt><trkpt lat="43.6313331" lon="10.9001687"><ele>148.0</ele><time>2026-04-04T15:06:07.97Z</time></trkpt><trkpt lat="43.6312969" lon="10.9002982"><ele>148.0</ele><time>2026-04-04T15:06:08.959Z</time></trkpt><trkpt lat="43.6312712" lon="10.9004232"><ele>148.0</ele><time>2026-04-04T15:06:09.978Z</time></trkpt><trkpt lat="43.6312562" lon="10.9005343"><ele>148.0</ele><time>2026-04-04T15:06:10.967Z</time></trkpt><trkpt lat="43.6312549" lon="10.9006361"><ele>148.0</ele><time>2026-04-04T15:06:11.955Z</time></trkpt><trkpt lat="43.6312551" lon="10.9007301"><ele>148.0</ele><time>2026-04-04T15:06:12.968Z</time></trkpt><trkpt lat="43.6312675" lon="10.9008237"><ele>148.0</ele><time>2026-04-04T15:06:13.956Z</time></trkpt><trkpt lat="43.6312969" lon="10.9009391"><ele>148.0</ele><time>2026-04-04T15:06:14.965Z</time></trkpt><trkpt lat="43.6313613" lon="10.9011044"><ele>148.0</ele><time>2026-04-04T15:06:15.971Z</time></trkpt><trkpt lat="43.6314106" lon="10.9012698"><ele>148.0</ele><time>2026-04-04T15:06:16.968Z</time></trkpt><trkpt lat="43.631464" lon="10.9014485"><ele>148.0</ele><time>2026-04-04T15:06:17.956Z</time></trkpt><trkpt lat="43.6315016" lon="10.9016136"><ele>147.20000000000002</ele><time>2026-04-04T15:06:18.972Z</time></trkpt><trkpt lat="43.6315352" lon="10.9017549"><ele>146.4</ele><time>2026-04-04T15:06:19.951Z</time></trkpt><trkpt lat="43.6315676" lon="10.9018855"><ele>145.60000000000002</ele><time>2026-04-04T15:06:20.964Z</time></trkpt><trkpt lat="43.6316155" lon="10.9019892"><ele>144.8</ele><time>2026-04-04T15:06:21.964Z</time></trkpt><trkpt lat="43.6316773" lon="10.9020729"><ele>144.0</ele><time>2026-04-04T15:06:22.978Z</time></trkpt><trkpt lat="43.6317556" lon="10.9021356"><ele>144.0</ele><time>2026-04-04T15:06:23.948Z</time></trkpt><trkpt lat="43.631847" lon="10.902186"><ele>144.0</ele><time>2026-04-04T15:06:24.971Z</time></trkpt><trkpt lat="43.6319492" lon="10.9022297"><ele>144.0</ele><time>2026-04-04T15:06:25.964Z</time></trkpt><trkpt lat="43.6320512" lon="10.9022769"><ele>144.0</ele><time>2026-04-04T15:06:26.963Z</time></trkpt><trkpt lat="43.6321512" lon="10.9023379"><ele>144.0</ele><time>2026-04-04T15:06:27.97Z</time></trkpt><trkpt lat="43.6322528" lon="10.9024067"><ele>145.8</ele><time>2026-04-04T15:06:28.972Z</time></trkpt><trkpt lat="43.6323569" lon="10.9024682"><ele>147.60000000000002</ele><time>2026-04-04T15:06:29.971Z</time></trkpt><trkpt lat="43.6324621" lon="10.9025187"><ele>149.4</ele><time>2026-04-04T15:06:30.964Z</time></trkpt><trkpt lat="43.6325661" lon="10.9025542"><ele>151.20000000000002</ele><time>2026-04-04T15:06:31.958Z</time></trkpt><trkpt lat="43.6326701" lon="10.9025653"><ele>153.0</ele><time>2026-04-04T15:06:32.951Z</time></trkpt><trkpt lat="43.6327705" lon="10.9025731"><ele>153.66666666666666</ele><time>2026-04-04T15:06:33.967Z</time></trkpt><trkpt lat="43.6328598" lon="10.9025601"><ele>154.33333333333334</ele><time>2026-04-04T15:06:34.97Z</time></trkpt><trkpt lat="43.6329399" lon="10.9025466"><ele>155.0</ele><time>2026-04-04T15:06:35.955Z</time></trkpt><trkpt lat="43.6330146" lon="10.9025352"><ele>155.66666666666669</ele><time>2026-04-04T15:06:36.974Z</time></trkpt><trkpt lat="43.6330887" lon="10.9025325"><ele>156.33333333333334</ele><time>2026-04-04T15:06:37.96Z</time></trkpt><trkpt lat="43.6331619" lon="10.9025309"><ele>157.0</ele><time>2026-04-04T15:06:38.956Z</time></trkpt><trkpt lat="43.6332358" lon="10.9025311"><ele>157.0</ele><time>2026-04-04T15:06:39.968Z</time></trkpt><trkpt lat="43.6333098" lon="10.9025442"><ele>157.0</ele><time>2026-04-04T15:06:40.979Z</time></trkpt><trkpt lat="43.6333832" lon="10.9025716"><ele>157.0</ele><time>2026-04-04T15:06:41.968Z</time></trkpt><trkpt lat="43.6334546" lon="10.902614"><ele>157.0</ele><time>2026-04-04T15:06:42.969Z</time></trkpt><trkpt lat="43.633525" lon="10.9026694"><ele>157.0</ele><time>2026-04-04T15:06:43.972Z</time></trkpt><trkpt lat="43.6335945" lon="10.9027311"><ele>157.0</ele><time>2026-04-04T15:06:44.949Z</time></trkpt><trkpt lat="43.6336639" lon="10.9027926"><ele>155.6</ele><time>2026-04-04T15:06:45.959Z</time></trkpt><trkpt lat="43.6337355" lon="10.9028536"><ele>154.2</ele><time>2026-04-04T15:06:46.973Z</time></trkpt><trkpt lat="43.6338145" lon="10.9029075"><ele>152.8</ele><time>2026-04-04T15:06:47.958Z</time></trkpt><trkpt lat="43.6338972" lon="10.9029597"><ele>151.4</ele><time>2026-04-04T15:06:48.97Z</time></trkpt><trkpt lat="43.6339912" lon="10.9029933"><ele>150.0</ele><time>2026-04-04T15:06:49.968Z</time></trkpt><trkpt lat="43.6340911" lon="10.9030108"><ele>150.0</ele><time>2026-04-04T15:06:50.972Z</time></trkpt><trkpt lat="43.634194" lon="10.9030063"><ele>150.0</ele><time>2026-04-04T15:06:51.964Z</time></trkpt><trkpt lat="43.6342968" lon="10.9029828"><ele>150.0</ele><time>2026-04-04T15:06:52.96Z</time></trkpt><trkpt lat="43.6344112" lon="10.9029164"><ele>150.0</ele><time>2026-04-04T15:06:53.97Z</time></trkpt><trkpt lat="43.6345335" lon="10.9028452"><ele>150.75</ele><time>2026-04-04T15:06:54.961Z</time></trkpt><trkpt lat="43.634657" lon="10.9027713"><ele>151.5</ele><time>2026-04-04T15:06:55.978Z</time></trkpt><trkpt lat="43.6347742" lon="10.9026858"><ele>152.25</ele><time>2026-04-04T15:06:56.971Z</time></trkpt><trkpt lat="43.634887" lon="10.902595"><ele>153.0</ele><time>2026-04-04T15:06:57.967Z</time></trkpt><trkpt lat="43.6349992" lon="10.9025055"><ele>153.0</ele><time>2026-04-04T15:06:58.961Z</time></trkpt><trkpt lat="43.635126" lon="10.9024412"><ele>153.0</ele><time>2026-04-04T15:06:59.964Z</time></trkpt><trkpt lat="43.6352559" lon="10.9023897"><ele>153.0</ele><time>2026-04-04T15:07:00.974Z</time></trkpt><trkpt lat="43.6353875" lon="10.9023393"><ele>153.0</ele><time>2026-04-04T15:07:01.97Z</time></trkpt><trkpt lat="43.6355231" lon="10.9023088"><ele>153.5</ele><time>2026-04-04T15:07:02.971Z</time></trkpt><trkpt lat="43.6356599" lon="10.9022721"><ele>154.0</ele><time>2026-04-04T15:07:03.961Z</time></trkpt><trkpt lat="43.6357962" lon="10.9022321"><ele>154.5</ele><time>2026-04-04T15:07:04.966Z</time></trkpt><trkpt lat="43.6359296" lon="10.9021892"><ele>155.0</ele><time>2026-04-04T15:07:05.97Z</time></trkpt><trkpt lat="43.6360616" lon="10.902153"><ele>156.0</ele><time>2026-04-04T15:07:06.966Z</time></trkpt><trkpt lat="43.6361914" lon="10.9021194"><ele>157.0</ele><time>2026-04-04T15:07:07.971Z</time></trkpt><trkpt lat="43.6363152" lon="10.902085"><ele>158.0</ele><time>2026-04-04T15:07:08.969Z</time></trkpt><trkpt lat="43.6364307" lon="10.9020512"><ele>159.0</ele><time>2026-04-04T15:07:09.961Z</time></trkpt><trkpt lat="43.6365403" lon="10.9020209"><ele>159.0</ele><time>2026-04-04T15:07:10.984Z</time></trkpt><trkpt lat="43.6366427" lon="10.902001"><ele>159.0</ele><time>2026-04-04T15:07:11.976Z</time></trkpt><trkpt lat="43.6367354" lon="10.9020212"><ele>159.0</ele><time>2026-04-04T15:07:12.976Z</time></trkpt><trkpt lat="43.6368292" lon="10.9020457"><ele>159.0</ele><time>2026-04-04T15:07:13.977Z</time></trkpt><trkpt lat="43.6369173" lon="10.902107"><ele>159.0</ele><time>2026-04-04T15:07:14.97Z</time></trkpt><trkpt lat="43.6370064" lon="10.9021712"><ele>158.25</ele><time>2026-04-04T15:07:15.97Z</time></trkpt><trkpt lat="43.6370997" lon="10.9022403"><ele>157.5</ele><time>2026-04-04T15:07:16.969Z</time></trkpt><trkpt lat="43.6372029" lon="10.9023095"><ele>156.75</ele><time>2026-04-04T15:07:17.959Z</time></trkpt><trkpt lat="43.6373141" lon="10.9023854"><ele>156.0</ele><time>2026-04-04T15:07:18.966Z</time></trkpt><trkpt lat="43.6374214" lon="10.9024628"><ele>156.0</ele><time>2026-04-04T15:07:19.966Z</time></trkpt><trkpt lat="43.637529" lon="10.9025319"><ele>156.0</ele><time>2026-04-04T15:07:20.97Z</time></trkpt><trkpt lat="43.6376358" lon="10.9025925"><ele>156.0</ele><time>2026-04-04T15:07:21.958Z</time></trkpt><trkpt lat="43.6377443" lon="10.9026517"><ele>156.0</ele><time>2026-04-04T15:07:22.962Z</time></trkpt><trkpt lat="43.637854" lon="10.9027039"><ele>157.75</ele><time>2026-04-04T15:07:23.952Z</time></trkpt><trkpt lat="43.6379672" lon="10.902743"><ele>159.5</ele><time>2026-04-04T15:07:24.971Z</time></trkpt><trkpt lat="43.6380808" lon="10.9027731"><ele>161.25</ele><time>2026-04-04T15:07:25.961Z</time></trkpt><trkpt lat="43.6381939" lon="10.9028026"><ele>163.0</ele><time>2026-04-04T15:07:26.969Z</time></trkpt><trkpt lat="43.6383061" lon="10.9028279"><ele>163.0</ele><time>2026-04-04T15:07:27.962Z</time></trkpt><trkpt lat="43.6384189" lon="10.902852"><ele>163.0</ele><time>2026-04-04T15:07:28.958Z</time></trkpt><trkpt lat="43.6385318" lon="10.902871"><ele>163.0</ele><time>2026-04-04T15:07:29.957Z</time></trkpt><trkpt lat="43.6386421" lon="10.9028803"><ele>163.0</ele><time>2026-04-04T15:07:30.96Z</time></trkpt><trkpt lat="43.6387514" lon="10.9028786"><ele>163.0</ele><time>2026-04-04T15:07:31.98Z</time></trkpt><trkpt lat="43.6388571" lon="10.9028776"><ele>164.0</ele><time>2026-04-04T15:07:32.963Z</time></trkpt><trkpt lat="43.6389582" lon="10.9028759"><ele>165.0</ele><time>2026-04-04T15:07:33.971Z</time></trkpt><trkpt lat="43.6390519" lon="10.9028801"><ele>166.0</ele><time>2026-04-04T15:07:34.949Z</time></trkpt><trkpt lat="43.6391395" lon="10.9028843"><ele>167.0</ele><time>2026-04-04T15:07:35.97Z</time></trkpt><trkpt lat="43.6392208" lon="10.9028993"><ele>168.0</ele><time>2026-04-04T15:07:36.95Z</time></trkpt><trkpt lat="43.6393031" lon="10.9029409"><ele>168.0</ele><time>2026-04-04T15:07:37.973Z</time></trkpt><trkpt lat="43.639379" lon="10.9029832"><ele>168.0</ele><time>2026-04-04T15:07:38.982Z</time></trkpt><trkpt lat="43.6394471" lon="10.9030253"><ele>168.0</ele><time>2026-04-04T15:07:39.971Z</time></trkpt><trkpt lat="43.6395154" lon="10.9030664"><ele>168.0</ele><time>2026-04-04T15:07:40.959Z</time></trkpt><trkpt lat="43.6395728" lon="10.9031112"><ele>168.0</ele><time>2026-04-04T15:07:41.971Z</time></trkpt><trkpt lat="43.639604" lon="10.9031879"><ele>168.0</ele><time>2026-04-04T15:07:42.965Z</time></trkpt><trkpt lat="43.6396136" lon="10.9032832"><ele>168.0</ele><time>2026-04-04T15:07:43.951Z</time></trkpt><trkpt lat="43.639594" lon="10.9033805"><ele>166.66666666666666</ele><time>2026-04-04T15:07:44.958Z</time></trkpt><trkpt lat="43.6395654" lon="10.9034775"><ele>165.33333333333334</ele><time>2026-04-04T15:07:45.967Z</time></trkpt><trkpt lat="43.6395319" lon="10.9035684"><ele>164.0</ele><time>2026-04-04T15:07:46.955Z</time></trkpt><trkpt lat="43.6394994" lon="10.9036569"><ele>162.66666666666669</ele><time>2026-04-04T15:07:47.978Z</time></trkpt><trkpt lat="43.6394678" lon="10.903747"><ele>161.33333333333334</ele><time>2026-04-04T15:07:48.956Z</time></trkpt><trkpt lat="43.6394309" lon="10.9038513"><ele>160.0</ele><time>2026-04-04T15:07:49.963Z</time></trkpt><trkpt lat="43.6393901" lon="10.9039701"><ele>160.0</ele><time>2026-04-04T15:07:50.979Z</time></trkpt><trkpt lat="43.6393461" lon="10.9041097"><ele>160.0</ele><time>2026-04-04T15:07:51.956Z</time></trkpt><trkpt lat="43.639301" lon="10.9042306"><ele>160.0</ele><time>2026-04-04T15:07:52.973Z</time></trkpt><trkpt lat="43.639258" lon="10.9043506"><ele>160.0</ele><time>2026-04-04T15:07:53.972Z</time></trkpt><trkpt lat="43.6392118" lon="10.9044583"><ele>160.0</ele><time>2026-04-04T15:07:54.973Z</time></trkpt><trkpt lat="43.6391728" lon="10.9045597"><ele>158.0</ele><time>2026-04-04T15:07:55.947Z</time></trkpt><trkpt lat="43.6391397" lon="10.904652"><ele>156.0</ele><time>2026-04-04T15:07:56.966Z</time></trkpt><trkpt lat="43.639111" lon="10.904737"><ele>154.0</ele><time>2026-04-04T15:07:57.975Z</time></trkpt><trkpt lat="43.639119" lon="10.9048252"><ele>152.0</ele><time>2026-04-04T15:07:58.971Z</time></trkpt><trkpt lat="43.6391551" lon="10.9049119"><ele>150.0</ele><time>2026-04-04T15:07:59.97Z</time></trkpt><trkpt lat="43.6392052" lon="10.9050112"><ele>148.0</ele><time>2026-04-04T15:08:00.952Z</time></trkpt><trkpt lat="43.6392638" lon="10.9051145"><ele>146.20000000000002</ele><time>2026-04-04T15:08:01.957Z</time></trkpt><trkpt lat="43.639323" lon="10.9052122"><ele>144.4</ele><time>2026-04-04T15:08:02.969Z</time></trkpt><trkpt lat="43.6393749" lon="10.9053156"><ele>142.60000000000002</ele><time>2026-04-04T15:08:03.964Z</time></trkpt><trkpt lat="43.6394157" lon="10.9054371"><ele>140.8</ele><time>2026-04-04T15:08:04.958Z</time></trkpt><trkpt lat="43.6394474" lon="10.9055776"><ele>139.0</ele><time>2026-04-04T15:08:05.977Z</time></trkpt><trkpt lat="43.63947" lon="10.9057292"><ele>138.5</ele><time>2026-04-04T15:08:06.958Z</time></trkpt><trkpt lat="43.6394919" lon="10.9058801"><ele>138.0</ele><time>2026-04-04T15:08:07.973Z</time></trkpt><trkpt lat="43.6395134" lon="10.9060282"><ele>137.5</ele><time>2026-04-04T15:08:08.96Z</time></trkpt><trkpt lat="43.6395392" lon="10.906186"><ele>137.0</ele><time>2026-04-04T15:08:09.965Z</time></trkpt><trkpt lat="43.6395751" lon="10.9063552"><ele>134.75</ele><time>2026-04-04T15:08:10.954Z</time></trkpt><trkpt lat="43.6396127" lon="10.9065246"><ele>132.5</ele><time>2026-04-04T15:08:11.962Z</time></trkpt><trkpt lat="43.6396526" lon="10.9067024"><ele>130.25</ele><time>2026-04-04T15:08:12.96Z</time></trkpt><trkpt lat="43.6396962" lon="10.9068843"><ele>128.0</ele><time>2026-04-04T15:08:13.97Z</time></trkpt><trkpt lat="43.6397378" lon="10.9070738"><ele>127.25</ele><time>2026-04-04T15:08:14.955Z</time></trkpt><trkpt lat="43.6397748" lon="10.9072694"><ele>126.5</ele><time>2026-04-04T15:08:15.959Z</time></trkpt><trkpt lat="43.6398133" lon="10.9074597"><ele>125.75</ele><time>2026-04-04T15:08:16.958Z</time></trkpt><trkpt lat="43.6398527" lon="10.9076493"><ele>125.0</ele><time>2026-04-04T15:08:17.978Z</time></trkpt><trkpt lat="43.6398894" lon="10.9078302"><ele>124.75</ele><time>2026-04-04T15:08:18.963Z</time></trkpt><trkpt lat="43.6399253" lon="10.9080093"><ele>124.5</ele><time>2026-04-04T15:08:19.962Z</time></trkpt><trkpt lat="43.6399617" lon="10.9081839"><ele>124.25</ele><time>2026-04-04T15:08:20.957Z</time></trkpt><trkpt lat="43.6399939" lon="10.9083553"><ele>124.0</ele><time>2026-04-04T15:08:21.957Z</time></trkpt><trkpt lat="43.6400144" lon="10.9085258"><ele>123.75</ele><time>2026-04-04T15:08:22.962Z</time></trkpt><trkpt lat="43.6400153" lon="10.9086988"><ele>123.5</ele><time>2026-04-04T15:08:23.966Z</time></trkpt><trkpt lat="43.6399994" lon="10.908874"><ele>123.25</ele><time>2026-04-04T15:08:24.953Z</time></trkpt><trkpt lat="43.6399716" lon="10.9090551"><ele>123.0</ele><time>2026-04-04T15:08:25.976Z</time></trkpt><trkpt lat="43.6399393" lon="10.9092411"><ele>122.75</ele><time>2026-04-04T15:08:26.972Z</time></trkpt><trkpt lat="43.6399055" lon="10.9094321"><ele>122.5</ele><time>2026-04-04T15:08:27.963Z</time></trkpt><trkpt lat="43.6398726" lon="10.9096224"><ele>122.25</ele><time>2026-04-04T15:08:28.963Z</time></trkpt><trkpt lat="43.6398397" lon="10.9098136"><ele>122.0</ele><time>2026-04-04T15:08:29.95Z</time></trkpt><trkpt lat="43.6398036" lon="10.9100011"><ele>122.5</ele><time>2026-04-04T15:08:30.952Z</time></trkpt><trkpt lat="43.6397678" lon="10.910184"><ele>123.0</ele><time>2026-04-04T15:08:31.967Z</time></trkpt><trkpt lat="43.6397362" lon="10.9103617"><ele>123.5</ele><time>2026-04-04T15:08:32.965Z</time></trkpt><trkpt lat="43.6397101" lon="10.9105243"><ele>124.0</ele><time>2026-04-04T15:08:33.97Z</time></trkpt><trkpt lat="43.6397073" lon="10.9106889"><ele>124.0</ele><time>2026-04-04T15:08:34.967Z</time></trkpt><trkpt lat="43.6397375" lon="10.9108558"><ele>124.0</ele><time>2026-04-04T15:08:35.964Z</time></trkpt><trkpt lat="43.6397663" lon="10.9110241"><ele>124.0</ele><time>2026-04-04T15:08:36.97Z</time></trkpt><trkpt lat="43.6398022" lon="10.9111999"><ele>124.0</ele><time>2026-04-04T15:08:37.949Z</time></trkpt><trkpt lat="43.6398357" lon="10.9113731"><ele>124.5</ele><time>2026-04-04T15:08:38.964Z</time></trkpt><trkpt lat="43.6398658" lon="10.9115344"><ele>125.0</ele><time>2026-04-04T15:08:39.967Z</time></trkpt><trkpt lat="43.6399007" lon="10.9116925"><ele>125.5</ele><time>2026-04-04T15:08:40.965Z</time></trkpt><trkpt lat="43.6399539" lon="10.9118311"><ele>126.0</ele><time>2026-04-04T15:08:41.955Z</time></trkpt><trkpt lat="43.640027" lon="10.9119663"><ele>126.25</ele><time>2026-04-04T15:08:42.951Z</time></trkpt><trkpt lat="43.6401042" lon="10.9121051"><ele>126.5</ele><time>2026-04-04T15:08:43.963Z</time></trkpt><trkpt lat="43.6401735" lon="10.9122292"><ele>126.75</ele><time>2026-04-04T15:08:44.958Z</time></trkpt><trkpt lat="43.640244" lon="10.9123482"><ele>127.0</ele><time>2026-04-04T15:08:45.976Z</time></trkpt><trkpt lat="43.6403173" lon="10.9124669"><ele>124.5</ele><time>2026-04-04T15:08:46.972Z</time></trkpt><trkpt lat="43.640391" lon="10.912595"><ele>122.0</ele><time>2026-04-04T15:08:47.953Z</time></trkpt><trkpt lat="43.6404745" lon="10.9127268"><ele>119.5</ele><time>2026-04-04T15:08:48.967Z</time></trkpt><trkpt lat="43.6405504" lon="10.9128508"><ele>117.0</ele><time>2026-04-04T15:08:49.965Z</time></trkpt><trkpt lat="43.640624" lon="10.9129785"><ele>117.0</ele><time>2026-04-04T15:08:50.966Z</time></trkpt><trkpt lat="43.6406946" lon="10.913109"><ele>117.0</ele><time>2026-04-04T15:08:51.973Z</time></trkpt><trkpt lat="43.6407636" lon="10.9132385"><ele>117.0</ele><time>2026-04-04T15:08:52.97Z</time></trkpt><trkpt lat="43.640837" lon="10.9133683"><ele>117.0</ele><time>2026-04-04T15:08:53.962Z</time></trkpt><trkpt lat="43.6409086" lon="10.9134938"><ele>115.8</ele><time>2026-04-04T15:08:54.978Z</time></trkpt><trkpt lat="43.640978" lon="10.9136186"><ele>114.6</ele><time>2026-04-04T15:08:55.962Z</time></trkpt><trkpt lat="43.6410439" lon="10.9137374"><ele>113.39999999999999</ele><time>2026-04-04T15:08:56.966Z</time></trkpt><trkpt lat="43.6411013" lon="10.9138498"><ele>112.19999999999999</ele><time>2026-04-04T15:08:57.975Z</time></trkpt><trkpt lat="43.6411478" lon="10.9139585"><ele>111.0</ele><time>2026-04-04T15:08:58.964Z</time></trkpt><trkpt lat="43.641189" lon="10.9140599"><ele>111.0</ele><time>2026-04-04T15:08:59.978Z</time></trkpt><trkpt lat="43.6411988" lon="10.9141626"><ele>111.0</ele><time>2026-04-04T15:09:00.951Z</time></trkpt><trkpt lat="43.641185" lon="10.9142596"><ele>111.0</ele><time>2026-04-04T15:09:01.969Z</time></trkpt><trkpt lat="43.6411494" lon="10.9143532"><ele>111.0</ele><time>2026-04-04T15:09:02.964Z</time></trkpt><trkpt lat="43.6410935" lon="10.9144375"><ele>111.0</ele><time>2026-04-04T15:09:03.968Z</time></trkpt><trkpt lat="43.6410275" lon="10.9145319"><ele>111.0</ele><time>2026-04-04T15:09:04.966Z</time></trkpt><trkpt lat="43.6409392" lon="10.914625"><ele>111.0</ele><time>2026-04-04T15:09:05.98Z</time></trkpt><trkpt lat="43.6408579" lon="10.9147204"><ele>111.0</ele><time>2026-04-04T15:09:06.967Z</time></trkpt><trkpt lat="43.6407913" lon="10.9148173"><ele>111.0</ele><time>2026-04-04T15:09:07.965Z</time></trkpt><trkpt lat="43.6407356" lon="10.9149294"><ele>111.0</ele><time>2026-04-04T15:09:08.971Z</time></trkpt><trkpt lat="43.6406804" lon="10.9150537"><ele>111.0</ele><time>2026-04-04T15:09:09.964Z</time></trkpt><trkpt lat="43.6406207" lon="10.9151826"><ele>111.19999999999999</ele><time>2026-04-04T15:09:10.96Z</time></trkpt><trkpt lat="43.6405624" lon="10.9153185"><ele>111.39999999999999</ele><time>2026-04-04T15:09:11.959Z</time></trkpt><trkpt lat="43.640507" lon="10.9154442"><ele>111.6</ele><time>2026-04-04T15:09:12.971Z</time></trkpt><trkpt lat="43.6404609" lon="10.915563"><ele>111.8</ele><time>2026-04-04T15:09:13.968Z</time></trkpt><trkpt lat="43.6404177" lon="10.9156794"><ele>112.0</ele><time>2026-04-04T15:09:14.976Z</time></trkpt><trkpt lat="43.6403877" lon="10.915787"><ele>112.0</ele><time>2026-04-04T15:09:15.958Z</time></trkpt><trkpt lat="43.6403821" lon="10.9158957"><ele>111.99999999999999</ele><time>2026-04-04T15:09:16.96Z</time></trkpt><trkpt lat="43.6404191" lon="10.9160194"><ele>111.99999999999999</ele><time>2026-04-04T15:09:17.972Z</time></trkpt><trkpt lat="43.6404892" lon="10.9161363"><ele>112.0</ele><time>2026-04-04T15:09:18.974Z</time></trkpt><trkpt lat="43.6405448" lon="10.9162462"><ele>112.0</ele><time>2026-04-04T15:09:19.949Z</time></trkpt><trkpt lat="43.6405875" lon="10.9163685"><ele>112.25</ele><time>2026-04-04T15:09:20.967Z</time></trkpt><trkpt lat="43.6405972" lon="10.9165091"><ele>112.5</ele><time>2026-04-04T15:09:21.956Z</time></trkpt><trkpt lat="43.6405678" lon="10.9166712"><ele>112.75</ele><time>2026-04-04T15:09:22.974Z</time></trkpt><trkpt lat="43.6405306" lon="10.9168468"><ele>113.0</ele><time>2026-04-04T15:09:23.961Z</time></trkpt><trkpt lat="43.6404916" lon="10.9170251"><ele>113.0</ele><time>2026-04-04T15:09:24.956Z</time></trkpt><trkpt lat="43.6404509" lon="10.9172192"><ele>113.0</ele><time>2026-04-04T15:09:25.958Z</time></trkpt><trkpt lat="43.6404076" lon="10.9174203"><ele>113.0</ele><time>2026-04-04T15:09:26.949Z</time></trkpt><trkpt lat="43.6403681" lon="10.9176212"><ele>113.0</ele><time>2026-04-04T15:09:27.965Z</time></trkpt><trkpt lat="43.6403309" lon="10.9177998"><ele>115.25</ele><time>2026-04-04T15:09:28.953Z</time></trkpt><trkpt lat="43.6402941" lon="10.917963"><ele>117.5</ele><time>2026-04-04T15:09:29.981Z</time></trkpt><trkpt lat="43.640254" lon="10.9181304"><ele>119.75</ele><time>2026-04-04T15:09:30.955Z</time></trkpt><trkpt lat="43.6402104" lon="10.9182919"><ele>122.0</ele><time>2026-04-04T15:09:31.971Z</time></trkpt><trkpt lat="43.64017" lon="10.9184707"><ele>122.0</ele><time>2026-04-04T15:09:32.965Z</time></trkpt><trkpt lat="43.6401274" lon="10.9186548"><ele>122.0</ele><time>2026-04-04T15:09:33.965Z</time></trkpt><trkpt lat="43.64009" lon="10.9188412"><ele>122.0</ele><time>2026-04-04T15:09:34.962Z</time></trkpt><trkpt lat="43.6400549" lon="10.9190219"><ele>122.0</ele><time>2026-04-04T15:09:35.97Z</time></trkpt><trkpt lat="43.6400258" lon="10.9191811"><ele>122.19999999999999</ele><time>2026-04-04T15:09:36.953Z</time></trkpt><trkpt lat="43.6399988" lon="10.9193288"><ele>122.39999999999999</ele><time>2026-04-04T15:09:37.961Z</time></trkpt><trkpt lat="43.6399801" lon="10.919463"><ele>122.60000000000001</ele><time>2026-04-04T15:09:38.972Z</time></trkpt><trkpt lat="43.6399653" lon="10.9195802"><ele>122.80000000000001</ele><time>2026-04-04T15:09:39.97Z</time></trkpt><trkpt lat="43.6399619" lon="10.919695"><ele>123.0</ele><time>2026-04-04T15:09:40.952Z</time></trkpt><trkpt lat="43.6399856" lon="10.9198299"><ele>123.0</ele><time>2026-04-04T15:09:41.964Z</time></trkpt><trkpt lat="43.6400435" lon="10.9199932"><ele>123.0</ele><time>2026-04-04T15:09:42.966Z</time></trkpt><trkpt lat="43.6401072" lon="10.9201506"><ele>123.0</ele><time>2026-04-04T15:09:43.98Z</time></trkpt><trkpt lat="43.6401855" lon="10.9203053"><ele>123.0</ele><time>2026-04-04T15:09:44.958Z</time></trkpt><trkpt lat="43.6402714" lon="10.9204384"><ele>121.25</ele><time>2026-04-04T15:09:45.956Z</time></trkpt><trkpt lat="43.6403726" lon="10.9205623"><ele>119.5</ele><time>2026-04-04T15:09:46.968Z</time></trkpt><trkpt lat="43.6404747" lon="10.9206701"><ele>117.75</ele><time>2026-04-04T15:09:47.963Z</time></trkpt><trkpt lat="43.6405773" lon="10.9207729"><ele>116.0</ele><time>2026-04-04T15:09:48.953Z</time></trkpt><trkpt lat="43.640693" lon="10.920845"><ele>116.75</ele><time>2026-04-04T15:09:49.97Z</time></trkpt><trkpt lat="43.6408136" lon="10.9209102"><ele>117.5</ele><time>2026-04-04T15:09:50.961Z</time></trkpt><trkpt lat="43.6409329" lon="10.9209815"><ele>118.25</ele><time>2026-04-04T15:09:51.956Z</time></trkpt><trkpt lat="43.6410508" lon="10.921054"><ele>119.0</ele><time>2026-04-04T15:09:52.954Z</time></trkpt><trkpt lat="43.6411571" lon="10.9211553"><ele>116.5</ele><time>2026-04-04T15:09:53.957Z</time></trkpt><trkpt lat="43.6412654" lon="10.9212588"><ele>114.0</ele><time>2026-04-04T15:09:54.956Z</time></trkpt><trkpt lat="43.6413675" lon="10.9213599"><ele>111.5</ele><time>2026-04-04T15:09:55.963Z</time></trkpt><trkpt lat="43.6414548" lon="10.9214683"><ele>109.0</ele><time>2026-04-04T15:09:56.976Z</time></trkpt><trkpt lat="43.6415285" lon="10.9215859"><ele>109.0</ele><time>2026-04-04T15:09:57.971Z</time></trkpt><trkpt lat="43.6415966" lon="10.9217108"><ele>109.0</ele><time>2026-04-04T15:09:58.969Z</time></trkpt><trkpt lat="43.6416601" lon="10.9218398"><ele>109.0</ele><time>2026-04-04T15:09:59.954Z</time></trkpt><trkpt lat="43.641721" lon="10.9219616"><ele>109.0</ele><time>2026-04-04T15:10:00.97Z</time></trkpt><trkpt lat="43.6417804" lon="10.9220737"><ele>109.0</ele><time>2026-04-04T15:10:01.969Z</time></trkpt><trkpt lat="43.6418461" lon="10.9221752"><ele>109.0</ele><time>2026-04-04T15:10:02.964Z</time></trkpt><trkpt lat="43.641926" lon="10.9222571"><ele>109.0</ele><time>2026-04-04T15:10:03.971Z</time></trkpt><trkpt lat="43.642019" lon="10.9223182"><ele>109.0</ele><time>2026-04-04T15:10:04.97Z</time></trkpt><trkpt lat="43.6421204" lon="10.9223629"><ele>109.0</ele><time>2026-04-04T15:10:05.985Z</time></trkpt><trkpt lat="43.642226" lon="10.9224015"><ele>109.0</ele><time>2026-04-04T15:10:06.951Z</time></trkpt><trkpt lat="43.6423294" lon="10.9224366"><ele>109.0</ele><time>2026-04-04T15:10:07.975Z</time></trkpt><trkpt lat="43.6424305" lon="10.9224712"><ele>109.0</ele><time>2026-04-04T15:10:08.955Z</time></trkpt><trkpt lat="43.6425295" lon="10.9225061"><ele>109.0</ele><time>2026-04-04T15:10:09.956Z</time></trkpt><trkpt lat="43.6426269" lon="10.9225389"><ele>109.0</ele><time>2026-04-04T15:10:10.958Z</time></trkpt><trkpt lat="43.6427201" lon="10.9225748"><ele>109.0</ele><time>2026-04-04T15:10:11.973Z</time></trkpt><trkpt lat="43.6428095" lon="10.9226117"><ele>107.80000000000001</ele><time>2026-04-04T15:10:12.971Z</time></trkpt><trkpt lat="43.6429006" lon="10.9226536"><ele>106.60000000000001</ele><time>2026-04-04T15:10:13.97Z</time></trkpt><trkpt lat="43.6429921" lon="10.922699"><ele>105.4</ele><time>2026-04-04T15:10:14.964Z</time></trkpt><trkpt lat="43.6430862" lon="10.92274"><ele>104.2</ele><time>2026-04-04T15:10:15.955Z</time></trkpt><trkpt lat="43.6431787" lon="10.9227914"><ele>103.0</ele><time>2026-04-04T15:10:16.968Z</time></trkpt><trkpt lat="43.6432695" lon="10.9228411"><ele>103.0</ele><time>2026-04-04T15:10:17.956Z</time></trkpt><trkpt lat="43.6433613" lon="10.9228886"><ele>103.0</ele><time>2026-04-04T15:10:18.967Z</time></trkpt><trkpt lat="43.6434492" lon="10.9229428"><ele>103.0</ele><time>2026-04-04T15:10:19.972Z</time></trkpt><trkpt lat="43.6435342" lon="10.9229967"><ele>103.0</ele><time>2026-04-04T15:10:20.958Z</time></trkpt><trkpt lat="43.6436164" lon="10.9230768"><ele>103.0</ele><time>2026-04-04T15:10:21.951Z</time></trkpt><trkpt lat="43.6437061" lon="10.9231707"><ele>101.75</ele><time>2026-04-04T15:10:22.955Z</time></trkpt><trkpt lat="43.6438008" lon="10.9232701"><ele>100.5</ele><time>2026-04-04T15:10:23.975Z</time></trkpt><trkpt lat="43.6439002" lon="10.923371"><ele>99.25</ele><time>2026-04-04T15:10:24.96Z</time></trkpt><trkpt lat="43.6440025" lon="10.9234753"><ele>98.0</ele><time>2026-04-04T15:10:25.968Z</time></trkpt><trkpt lat="43.6441122" lon="10.9235822"><ele>98.0</ele><time>2026-04-04T15:10:26.962Z</time></trkpt><trkpt lat="43.6442168" lon="10.9236901"><ele>98.0</ele><time>2026-04-04T15:10:27.952Z</time></trkpt><trkpt lat="43.6443229" lon="10.9237992"><ele>98.0</ele><time>2026-04-04T15:10:28.967Z</time></trkpt><trkpt lat="43.6444296" lon="10.9239116"><ele>98.0</ele><time>2026-04-04T15:10:29.972Z</time></trkpt><trkpt lat="43.6445368" lon="10.9240316"><ele>97.75</ele><time>2026-04-04T15:10:30.957Z</time></trkpt><trkpt lat="43.6446422" lon="10.9241485"><ele>97.5</ele><time>2026-04-04T15:10:31.969Z</time></trkpt><trkpt lat="43.6447476" lon="10.9242638"><ele>97.25</ele><time>2026-04-04T15:10:32.971Z</time></trkpt><trkpt lat="43.6448475" lon="10.9243726"><ele>97.0</ele><time>2026-04-04T15:10:33.955Z</time></trkpt><trkpt lat="43.6449366" lon="10.9244743"><ele>98.33333333333334</ele><time>2026-04-04T15:10:34.963Z</time></trkpt><trkpt lat="43.6450178" lon="10.9245685"><ele>99.66666666666667</ele><time>2026-04-04T15:10:35.966Z</time></trkpt><trkpt lat="43.6450859" lon="10.9246393"><ele>101.0</ele><time>2026-04-04T15:10:36.971Z</time></trkpt><trkpt lat="43.6451537" lon="10.9247077"><ele>102.33333333333334</ele><time>2026-04-04T15:10:37.956Z</time></trkpt><trkpt lat="43.6452351" lon="10.9247297"><ele>103.66666666666667</ele><time>2026-04-04T15:10:38.976Z</time></trkpt><trkpt lat="43.6453214" lon="10.9247071"><ele>105.0</ele><time>2026-04-04T15:10:39.966Z</time></trkpt><trkpt lat="43.6454185" lon="10.924667"><ele>105.6</ele><time>2026-04-04T15:10:40.966Z</time></trkpt><trkpt lat="43.64552" lon="10.924622"><ele>106.2</ele><time>2026-04-04T15:10:41.966Z</time></trkpt><trkpt lat="43.6456339" lon="10.9245625"><ele>106.80000000000001</ele><time>2026-04-04T15:10:42.96Z</time></trkpt><trkpt lat="43.6457418" lon="10.9245199"><ele>107.4</ele><time>2026-04-04T15:10:43.973Z</time></trkpt><trkpt lat="43.6458399" lon="10.9244803"><ele>108.0</ele><time>2026-04-04T15:10:44.966Z</time></trkpt><trkpt lat="43.6459253" lon="10.9244531"><ele>108.0</ele><time>2026-04-04T15:10:45.975Z</time></trkpt><trkpt lat="43.6459988" lon="10.9244784"><ele>108.0</ele><time>2026-04-04T15:10:46.964Z</time></trkpt><trkpt lat="43.6460737" lon="10.924508"><ele>108.0</ele><time>2026-04-04T15:10:47.963Z</time></trkpt><trkpt lat="43.6461362" lon="10.9245815"><ele>108.0</ele><time>2026-04-04T15:10:48.959Z</time></trkpt><trkpt lat="43.6461963" lon="10.9246944"><ele>108.0</ele><time>2026-04-04T15:10:49.974Z</time></trkpt><trkpt lat="43.646243" lon="10.924828"><ele>108.0</ele><time>2026-04-04T15:10:50.967Z</time></trkpt><trkpt lat="43.6462835" lon="10.9249568"><ele>105.4</ele><time>2026-04-04T15:10:51.96Z</time></trkpt><trkpt lat="43.6463187" lon="10.9250761"><ele>102.80000000000001</ele><time>2026-04-04T15:10:52.962Z</time></trkpt><trkpt lat="43.6463406" lon="10.9252037"><ele>100.2</ele><time>2026-04-04T15:10:53.981Z</time></trkpt><trkpt lat="43.6463629" lon="10.9253367"><ele>97.6</ele><time>2026-04-04T15:10:54.975Z</time></trkpt><trkpt lat="43.6463662" lon="10.925482"><ele>95.0</ele><time>2026-04-04T15:10:55.97Z</time></trkpt><trkpt lat="43.6463742" lon="10.9256328"><ele>95.0</ele><time>2026-04-04T15:10:56.97Z</time></trkpt><trkpt lat="43.6463856" lon="10.9257893"><ele>95.0</ele><time>2026-04-04T15:10:57.951Z</time></trkpt><trkpt lat="43.6463963" lon="10.9259454"><ele>95.0</ele><time>2026-04-04T15:10:58.973Z</time></trkpt><trkpt lat="43.646409" lon="10.9261022"><ele>95.0</ele><time>2026-04-04T15:10:59.963Z</time></trkpt><trkpt lat="43.6464199" lon="10.9262615"><ele>95.6</ele><time>2026-04-04T15:11:00.967Z</time></trkpt><trkpt lat="43.6464307" lon="10.926417"><ele>96.2</ele><time>2026-04-04T15:11:01.97Z</time></trkpt><trkpt lat="43.6464401" lon="10.9265755"><ele>96.80000000000001</ele><time>2026-04-04T15:11:02.979Z</time></trkpt><trkpt lat="43.6464527" lon="10.9267276"><ele>97.4</ele><time>2026-04-04T15:11:03.978Z</time></trkpt><trkpt lat="43.6464637" lon="10.9268708"><ele>98.0</ele><time>2026-04-04T15:11:04.964Z</time></trkpt><trkpt lat="43.6464693" lon="10.9269921"><ele>97.49999999999999</ele><time>2026-04-04T15:11:05.958Z</time></trkpt><trkpt lat="43.6464611" lon="10.9270993"><ele>97.0</ele><time>2026-04-04T15:11:06.97Z</time></trkpt><trkpt lat="43.6464387" lon="10.9272062"><ele>96.5</ele><time>2026-04-04T15:11:07.973Z</time></trkpt><trkpt lat="43.6464005" lon="10.9273134"><ele>96.0</ele><time>2026-04-04T15:11:08.97Z</time></trkpt><trkpt lat="43.6463633" lon="10.9274234"><ele>95.5</ele><time>2026-04-04T15:11:09.982Z</time></trkpt><trkpt lat="43.6463509" lon="10.9275524"><ele>95.0</ele><time>2026-04-04T15:11:10.975Z</time></trkpt><trkpt lat="43.6463676" lon="10.9277041"><ele>95.0</ele><time>2026-04-04T15:11:11.96Z</time></trkpt><trkpt lat="43.6463961" lon="10.9278627"><ele>95.0</ele><time>2026-04-04T15:11:12.966Z</time></trkpt><trkpt lat="43.6464234" lon="10.9280156"><ele>95.0</ele><time>2026-04-04T15:11:13.958Z</time></trkpt><trkpt lat="43.6464498" lon="10.9281605"><ele>95.0</ele><time>2026-04-04T15:11:14.953Z</time></trkpt><trkpt lat="43.6464753" lon="10.9282987"><ele>95.0</ele><time>2026-04-04T15:11:15.973Z</time></trkpt><trkpt lat="43.6464972" lon="10.9284295"><ele>94.33333333333334</ele><time>2026-04-04T15:11:16.975Z</time></trkpt><trkpt lat="43.6465262" lon="10.9285394"><ele>93.66666666666667</ele><time>2026-04-04T15:11:17.977Z</time></trkpt><trkpt lat="43.6465771" lon="10.9286135"><ele>93.0</ele><time>2026-04-04T15:11:18.967Z</time></trkpt><trkpt lat="43.6466273" lon="10.9286782"><ele>92.33333333333333</ele><time>2026-04-04T15:11:19.964Z</time></trkpt><trkpt lat="43.6467239" lon="10.9286413"><ele>91.66666666666666</ele><time>2026-04-04T15:11:20.97Z</time></trkpt><trkpt lat="43.6468326" lon="10.9285928"><ele>91.0</ele><time>2026-04-04T15:11:21.98Z</time></trkpt><trkpt lat="43.6469732" lon="10.9284963"><ele>88.0</ele><time>2026-04-04T15:11:22.981Z</time></trkpt><trkpt lat="43.6471219" lon="10.9284031"><ele>85.0</ele><time>2026-04-04T15:11:23.963Z</time></trkpt><trkpt lat="43.6472675" lon="10.9283123"><ele>82.0</ele><time>2026-04-04T15:11:24.964Z</time></trkpt><trkpt lat="43.6474159" lon="10.9282211"><ele>82.0</ele><time>2026-04-04T15:11:25.969Z</time></trkpt><trkpt lat="43.6475584" lon="10.9281387"><ele>82.0</ele><time>2026-04-04T15:11:26.973Z</time></trkpt><trkpt lat="43.6476956" lon="10.9280613"><ele>82.0</ele><time>2026-04-04T15:11:27.976Z</time></trkpt><trkpt lat="43.6478266" lon="10.9279825"><ele>82.0</ele><time>2026-04-04T15:11:28.975Z</time></trkpt><trkpt lat="43.6479452" lon="10.9278906"><ele>80.0</ele><time>2026-04-04T15:11:29.972Z</time></trkpt><trkpt lat="43.6480524" lon="10.9277811"><ele>78.0</ele><time>2026-04-04T15:11:30.973Z</time></trkpt><trkpt lat="43.6481497" lon="10.9276626"><ele>76.0</ele><time>2026-04-04T15:11:31.972Z</time></trkpt><trkpt lat="43.6482444" lon="10.9275387"><ele>74.0</ele><time>2026-04-04T15:11:32.97Z</time></trkpt><trkpt lat="43.6483413" lon="10.9274115"><ele>74.0</ele><time>2026-04-04T15:11:33.976Z</time></trkpt><trkpt lat="43.6484384" lon="10.9272799"><ele>74.0</ele><time>2026-04-04T15:11:34.976Z</time></trkpt><trkpt lat="43.6485363" lon="10.9271455"><ele>74.0</ele><time>2026-04-04T15:11:35.965Z</time></trkpt><trkpt lat="43.6486356" lon="10.9270114"><ele>74.0</ele><time>2026-04-04T15:11:36.975Z</time></trkpt><trkpt lat="43.6487371" lon="10.9268734"><ele>71.5</ele><time>2026-04-04T15:11:37.961Z</time></trkpt><trkpt lat="43.6488382" lon="10.9267355"><ele>69.0</ele><time>2026-04-04T15:11:38.958Z</time></trkpt><trkpt lat="43.6489344" lon="10.9266014"><ele>66.5</ele><time>2026-04-04T15:11:39.956Z</time></trkpt><trkpt lat="43.649027" lon="10.9264707"><ele>64.0</ele><time>2026-04-04T15:11:40.978Z</time></trkpt><trkpt lat="43.6491122" lon="10.9263483"><ele>64.0</ele><time>2026-04-04T15:11:41.974Z</time></trkpt><trkpt lat="43.6491889" lon="10.9262416"><ele>64.0</ele><time>2026-04-04T15:11:42.962Z</time></trkpt><trkpt lat="43.6492685" lon="10.9261678"><ele>64.0</ele><time>2026-04-04T15:11:43.968Z</time></trkpt><trkpt lat="43.6493549" lon="10.9261484"><ele>64.0</ele><time>2026-04-04T15:11:44.98Z</time></trkpt><trkpt lat="43.6494459" lon="10.9261373"><ele>64.0</ele><time>2026-04-04T15:11:45.972Z</time></trkpt><trkpt lat="43.6495301" lon="10.9262504"><ele>61.25</ele><time>2026-04-04T15:11:46.968Z</time></trkpt><trkpt lat="43.6496134" lon="10.9263973"><ele>58.5</ele><time>2026-04-04T15:11:47.955Z</time></trkpt><trkpt lat="43.6497066" lon="10.9265451"><ele>55.75</ele><time>2026-04-04T15:11:48.97Z</time></trkpt><trkpt lat="43.6497957" lon="10.9266905"><ele>53.0</ele><time>2026-04-04T15:11:49.964Z</time></trkpt><trkpt lat="43.6498802" lon="10.926833"><ele>52.599999999999994</ele><time>2026-04-04T15:11:50.964Z</time></trkpt><trkpt lat="43.6499503" lon="10.9269499"><ele>52.199999999999996</ele><time>2026-04-04T15:11:51.97Z</time></trkpt><trkpt lat="43.6500336" lon="10.9270235"><ele>51.8</ele><time>2026-04-04T15:11:52.966Z</time></trkpt><trkpt lat="43.6501182" lon="10.9270904"><ele>51.4</ele><time>2026-04-04T15:11:53.954Z</time></trkpt><trkpt lat="43.6502405" lon="10.9270896"><ele>51.0</ele><time>2026-04-04T15:11:54.978Z</time></trkpt><trkpt lat="43.650384" lon="10.9270518"><ele>49.5</ele><time>2026-04-04T15:11:55.968Z</time></trkpt><trkpt lat="43.6505336" lon="10.9270277"><ele>48.0</ele><time>2026-04-04T15:11:56.975Z</time></trkpt><trkpt lat="43.6506772" lon="10.9270092"><ele>46.5</ele><time>2026-04-04T15:11:57.963Z</time></trkpt><trkpt lat="43.6508186" lon="10.9269936"><ele>45.0</ele><time>2026-04-04T15:11:58.97Z</time></trkpt><trkpt lat="43.6509574" lon="10.9269743"><ele>45.0</ele><time>2026-04-04T15:11:59.968Z</time></trkpt><trkpt lat="43.6510925" lon="10.9269529"><ele>45.0</ele><time>2026-04-04T15:12:00.952Z</time></trkpt><trkpt lat="43.6512253" lon="10.9269371"><ele>45.0</ele><time>2026-04-04T15:12:01.975Z</time></trkpt><trkpt lat="43.6513488" lon="10.9269236"><ele>45.0</ele><time>2026-04-04T15:12:02.963Z</time></trkpt><trkpt lat="43.6514735" lon="10.9269129"><ele>44.0</ele><time>2026-04-04T15:12:03.961Z</time></trkpt><trkpt lat="43.6515928" lon="10.9269015"><ele>43.0</ele><time>2026-04-04T15:12:04.964Z</time></trkpt><trkpt lat="43.6517049" lon="10.9268919"><ele>42.0</ele><time>2026-04-04T15:12:05.977Z</time></trkpt><trkpt lat="43.6518134" lon="10.9268819"><ele>41.0</ele><time>2026-04-04T15:12:06.965Z</time></trkpt><trkpt lat="43.6519123" lon="10.9268719"><ele>40.0</ele><time>2026-04-04T15:12:07.957Z</time></trkpt><trkpt lat="43.6519993" lon="10.9268642"><ele>40.0</ele><time>2026-04-04T15:12:08.974Z</time></trkpt><trkpt lat="43.652069" lon="10.9268542"><ele>40.0</ele><time>2026-04-04T15:12:09.956Z</time></trkpt><trkpt lat="43.6521753" lon="10.9268258"><ele>40.0</ele><time>2026-04-04T15:12:11.982Z</time></trkpt><trkpt lat="43.6522728" lon="10.926736"><ele>40.0</ele><time>2026-04-04T15:12:13.98Z</time></trkpt><trkpt lat="43.6523276" lon="10.9266549"><ele>40.0</ele><time>2026-04-04T15:12:14.974Z</time></trkpt><trkpt lat="43.6523884" lon="10.9265587"><ele>39.75</ele><time>2026-04-04T15:12:15.968Z</time></trkpt><trkpt lat="43.6524484" lon="10.9264297"><ele>39.5</ele><time>2026-04-04T15:12:16.98Z</time></trkpt><trkpt lat="43.6525083" lon="10.926293"><ele>39.25</ele><time>2026-04-04T15:12:17.976Z</time></trkpt><trkpt lat="43.6525737" lon="10.9261423"><ele>39.0</ele><time>2026-04-04T15:12:18.958Z</time></trkpt><trkpt lat="43.6526438" lon="10.9259704"><ele>39.333333333333336</ele><time>2026-04-04T15:12:19.974Z</time></trkpt><trkpt lat="43.652705" lon="10.9257796"><ele>39.66666666666667</ele><time>2026-04-04T15:12:20.975Z</time></trkpt><trkpt lat="43.6527699" lon="10.9255713"><ele>40.0</ele><time>2026-04-04T15:12:21.978Z</time></trkpt><trkpt lat="43.6528177" lon="10.9253455"><ele>40.0</ele><time>2026-04-04T15:12:22.977Z</time></trkpt><trkpt lat="43.6528605" lon="10.9251192"><ele>40.0</ele><time>2026-04-04T15:12:23.966Z</time></trkpt><trkpt lat="43.6528975" lon="10.9248946"><ele>40.0</ele><time>2026-04-04T15:12:24.978Z</time></trkpt><trkpt lat="43.652919" lon="10.9246709"><ele>41.66666666666667</ele><time>2026-04-04T15:12:25.969Z</time></trkpt><trkpt lat="43.6529181" lon="10.9244475"><ele>43.333333333333336</ele><time>2026-04-04T15:12:26.976Z</time></trkpt><trkpt lat="43.6529055" lon="10.9242278"><ele>45.0</ele><time>2026-04-04T15:12:27.98Z</time></trkpt><trkpt lat="43.652891" lon="10.9240192"><ele>45.25</ele><time>2026-04-04T15:12:28.953Z</time></trkpt><trkpt lat="43.6528771" lon="10.9238306"><ele>45.5</ele><time>2026-04-04T15:12:29.981Z</time></trkpt><trkpt lat="43.6528849" lon="10.9236591"><ele>45.75</ele><time>2026-04-04T15:12:30.967Z</time></trkpt><trkpt lat="43.6529295" lon="10.9235041"><ele>46.0</ele><time>2026-04-04T15:12:31.971Z</time></trkpt><trkpt lat="43.6530141" lon="10.9233661"><ele>46.333333333333336</ele><time>2026-04-04T15:12:32.978Z</time></trkpt><trkpt lat="43.6531152" lon="10.9232328"><ele>46.666666666666664</ele><time>2026-04-04T15:12:33.973Z</time></trkpt><trkpt lat="43.6532544" lon="10.9231005"><ele>47.0</ele><time>2026-04-04T15:12:34.976Z</time></trkpt><trkpt lat="43.6534013" lon="10.9229547"><ele>47.0</ele><time>2026-04-04T15:12:35.972Z</time></trkpt><trkpt lat="43.6535589" lon="10.9228003"><ele>47.0</ele><time>2026-04-04T15:12:36.979Z</time></trkpt><trkpt lat="43.6537236" lon="10.9226577"><ele>47.0</ele><time>2026-04-04T15:12:37.967Z</time></trkpt><trkpt lat="43.6538926" lon="10.9225316"><ele>46.0</ele><time>2026-04-04T15:12:38.952Z</time></trkpt><trkpt lat="43.65407" lon="10.9224269"><ele>45.0</ele><time>2026-04-04T15:12:39.977Z</time></trkpt><trkpt lat="43.6542503" lon="10.9223423"><ele>44.0</ele><time>2026-04-04T15:12:40.971Z</time></trkpt><trkpt lat="43.6544291" lon="10.922262"><ele>44.0</ele><time>2026-04-04T15:12:41.975Z</time></trkpt><trkpt lat="43.6546022" lon="10.9221779"><ele>44.0</ele><time>2026-04-04T15:12:42.979Z</time></trkpt><trkpt lat="43.6547737" lon="10.9220907"><ele>44.0</ele><time>2026-04-04T15:12:43.97Z</time></trkpt><trkpt lat="43.654938" lon="10.9219991"><ele>44.0</ele><time>2026-04-04T15:12:44.95Z</time></trkpt><trkpt lat="43.6550972" lon="10.9219007"><ele>44.0</ele><time>2026-04-04T15:12:45.978Z</time></trkpt><trkpt lat="43.6552492" lon="10.9217895"><ele>44.0</ele><time>2026-04-04T15:12:46.969Z</time></trkpt><trkpt lat="43.6553926" lon="10.9216611"><ele>43.666666666666664</ele><time>2026-04-04T15:12:47.974Z</time></trkpt><trkpt lat="43.6555331" lon="10.9215264"><ele>43.333333333333336</ele><time>2026-04-04T15:12:48.981Z</time></trkpt><trkpt lat="43.6556698" lon="10.9213887"><ele>43.0</ele><time>2026-04-04T15:12:49.96Z</time></trkpt><trkpt lat="43.6557965" lon="10.9212473"><ele>43.0</ele><time>2026-04-04T15:12:50.966Z</time></trkpt><trkpt lat="43.6559061" lon="10.9210984"><ele>43.0</ele><time>2026-04-04T15:12:51.967Z</time></trkpt><trkpt lat="43.6560049" lon="10.920941"><ele>43.0</ele><time>2026-04-04T15:12:52.972Z</time></trkpt><trkpt lat="43.6560902" lon="10.920771"><ele>41.0</ele><time>2026-04-04T15:12:53.959Z</time></trkpt><trkpt lat="43.6561559" lon="10.9205841"><ele>39.0</ele><time>2026-04-04T15:12:54.981Z</time></trkpt><trkpt lat="43.6562068" lon="10.9203813"><ele>37.0</ele><time>2026-04-04T15:12:55.969Z</time></trkpt><trkpt lat="43.6562524" lon="10.9201748"><ele>36.75</ele><time>2026-04-04T15:12:56.968Z</time></trkpt><trkpt lat="43.6563078" lon="10.9199814"><ele>36.5</ele><time>2026-04-04T15:12:57.967Z</time></trkpt><trkpt lat="43.6563846" lon="10.9198059"><ele>36.25</ele><time>2026-04-04T15:12:58.967Z</time></trkpt><trkpt lat="43.6564854" lon="10.9196562"><ele>36.0</ele><time>2026-04-04T15:12:59.954Z</time></trkpt><trkpt lat="43.6566107" lon="10.9195437"><ele>36.0</ele><time>2026-04-04T15:13:00.965Z</time></trkpt><trkpt lat="43.6567437" lon="10.9194546"><ele>36.0</ele><time>2026-04-04T15:13:01.983Z</time></trkpt><trkpt lat="43.6568901" lon="10.9193977"><ele>36.0</ele><time>2026-04-04T15:13:02.954Z</time></trkpt><trkpt lat="43.6570358" lon="10.9193379"><ele>36.0</ele><time>2026-04-04T15:13:03.966Z</time></trkpt><trkpt lat="43.6571839" lon="10.9192702"><ele>36.0</ele><time>2026-04-04T15:13:04.962Z</time></trkpt><trkpt lat="43.6573332" lon="10.9192058"><ele>36.0</ele><time>2026-04-04T15:13:05.951Z</time></trkpt><trkpt lat="43.6574852" lon="10.9191427"><ele>36.0</ele><time>2026-04-04T15:13:06.974Z</time></trkpt><trkpt lat="43.6576408" lon="10.919093"><ele>36.0</ele><time>2026-04-04T15:13:07.974Z</time></trkpt><trkpt lat="43.6577986" lon="10.9190763"><ele>36.0</ele><time>2026-04-04T15:13:08.969Z</time></trkpt><trkpt lat="43.6579594" lon="10.9190888"><ele>36.333333333333336</ele><time>2026-04-04T15:13:09.973Z</time></trkpt><trkpt lat="43.6581216" lon="10.9191143"><ele>36.66666666666667</ele><time>2026-04-04T15:13:10.971Z</time></trkpt><trkpt lat="43.6582866" lon="10.9191496"><ele>37.0</ele><time>2026-04-04T15:13:11.972Z</time></trkpt><trkpt lat="43.6584415" lon="10.9191814"><ele>37.0</ele><time>2026-04-04T15:13:12.961Z</time></trkpt><trkpt lat="43.6585768" lon="10.9192002"><ele>37.0</ele><time>2026-04-04T15:13:13.961Z</time></trkpt><trkpt lat="43.6587036" lon="10.9191914"><ele>37.0</ele><time>2026-04-04T15:13:14.974Z</time></trkpt><trkpt lat="43.658833" lon="10.9191597"><ele>37.0</ele><time>2026-04-04T15:13:15.96Z</time></trkpt><trkpt lat="43.6589572" lon="10.9190645"><ele>36.333333333333336</ele><time>2026-04-04T15:13:16.977Z</time></trkpt><trkpt lat="43.6590778" lon="10.9189391"><ele>35.666666666666664</ele><time>2026-04-04T15:13:17.96Z</time></trkpt><trkpt lat="43.6592039" lon="10.9187909"><ele>35.0</ele><time>2026-04-04T15:13:18.973Z</time></trkpt><trkpt lat="43.6593328" lon="10.9186368"><ele>35.33333333333333</ele><time>2026-04-04T15:13:19.97Z</time></trkpt><trkpt lat="43.6594675" lon="10.9184805"><ele>35.666666666666664</ele><time>2026-04-04T15:13:20.968Z</time></trkpt><trkpt lat="43.6596061" lon="10.9183211"><ele>36.0</ele><time>2026-04-04T15:13:21.961Z</time></trkpt><trkpt lat="43.6597468" lon="10.91816"><ele>36.666666666666664</ele><time>2026-04-04T15:13:22.97Z</time></trkpt><trkpt lat="43.6598894" lon="10.9180024"><ele>37.33333333333333</ele><time>2026-04-04T15:13:23.963Z</time></trkpt><trkpt lat="43.660036" lon="10.9178551"><ele>38.0</ele><time>2026-04-04T15:13:24.975Z</time></trkpt><trkpt lat="43.660193" lon="10.9177331"><ele>38.33333333333333</ele><time>2026-04-04T15:13:25.953Z</time></trkpt><trkpt lat="43.6603592" lon="10.917643"><ele>38.666666666666664</ele><time>2026-04-04T15:13:26.954Z</time></trkpt><trkpt lat="43.6605304" lon="10.9175705"><ele>39.0</ele><time>2026-04-04T15:13:27.976Z</time></trkpt><trkpt lat="43.6607022" lon="10.9175045"><ele>39.0</ele><time>2026-04-04T15:13:28.971Z</time></trkpt><trkpt lat="43.6608752" lon="10.9174411"><ele>39.0</ele><time>2026-04-04T15:13:29.958Z</time></trkpt><trkpt lat="43.6610476" lon="10.9173807"><ele>39.0</ele><time>2026-04-04T15:13:30.956Z</time></trkpt><trkpt lat="43.6612193" lon="10.9173165"><ele>38.0</ele><time>2026-04-04T15:13:31.964Z</time></trkpt><trkpt lat="43.6613885" lon="10.9172464"><ele>37.0</ele><time>2026-04-04T15:13:32.953Z</time></trkpt><trkpt lat="43.6615548" lon="10.9171673"><ele>36.0</ele><time>2026-04-04T15:13:33.957Z</time></trkpt><trkpt lat="43.6617112" lon="10.9170629"><ele>36.0</ele><time>2026-04-04T15:13:34.975Z</time></trkpt><trkpt lat="43.661853" lon="10.9169513"><ele>36.0</ele><time>2026-04-04T15:13:35.957Z</time></trkpt><trkpt lat="43.6619595" lon="10.9167651"><ele>36.0</ele><time>2026-04-04T15:13:36.982Z</time></trkpt><trkpt lat="43.6620497" lon="10.9165648"><ele>35.333333333333336</ele><time>2026-04-04T15:13:37.954Z</time></trkpt><trkpt lat="43.6621329" lon="10.9163554"><ele>34.66666666666667</ele><time>2026-04-04T15:13:38.962Z</time></trkpt><trkpt lat="43.6622223" lon="10.9161557"><ele>34.0</ele><time>2026-04-04T15:13:39.972Z</time></trkpt><trkpt lat="43.6623229" lon="10.91597"><ele>34.66666666666667</ele><time>2026-04-04T15:13:40.979Z</time></trkpt><trkpt lat="43.6624316" lon="10.915795"><ele>35.333333333333336</ele><time>2026-04-04T15:13:41.963Z</time></trkpt><trkpt lat="43.6625448" lon="10.9156319"><ele>36.0</ele><time>2026-04-04T15:13:42.953Z</time></trkpt><trkpt lat="43.6626539" lon="10.9154837"><ele>36.0</ele><time>2026-04-04T15:13:43.959Z</time></trkpt><trkpt lat="43.6627579" lon="10.9153422"><ele>36.0</ele><time>2026-04-04T15:13:44.977Z</time></trkpt><trkpt lat="43.6628524" lon="10.9152178"><ele>36.0</ele><time>2026-04-04T15:13:45.967Z</time></trkpt><trkpt lat="43.6629384" lon="10.9151138"><ele>36.0</ele><time>2026-04-04T15:13:46.975Z</time></trkpt><trkpt lat="43.663014" lon="10.9150235"><ele>35.666666666666664</ele><time>2026-04-04T15:13:47.97Z</time></trkpt><trkpt lat="43.6630774" lon="10.9149508"><ele>35.333333333333336</ele><time>2026-04-04T15:13:48.98Z</time></trkpt><trkpt lat="43.6631491" lon="10.9148746"><ele>35.0</ele><time>2026-04-04T15:13:50.959Z</time></trkpt><trkpt lat="43.6632284" lon="10.9148795"><ele>34.66666666666667</ele><time>2026-04-04T15:14:19.961Z</time></trkpt><trkpt lat="43.6633129" lon="10.9149829"><ele>34.333333333333336</ele><time>2026-04-04T15:14:21.97Z</time></trkpt><trkpt lat="43.6633443" lon="10.9150774"><ele>34.0</ele><time>2026-04-04T15:14:22.956Z</time></trkpt><trkpt lat="43.6633851" lon="10.9151993"><ele>34.0</ele><time>2026-04-04T15:14:23.973Z</time></trkpt><trkpt lat="43.6634408" lon="10.9153287"><ele>34.0</ele><time>2026-04-04T15:14:24.978Z</time></trkpt><trkpt lat="43.6634921" lon="10.9154805"><ele>34.0</ele><time>2026-04-04T15:14:25.973Z</time></trkpt><trkpt lat="43.6635589" lon="10.9156305"><ele>34.0</ele><time>2026-04-04T15:14:26.955Z</time></trkpt><trkpt lat="43.6636433" lon="10.915773"><ele>34.25</ele><time>2026-04-04T15:14:27.955Z</time></trkpt><trkpt lat="43.6637388" lon="10.9159154"><ele>34.5</ele><time>2026-04-04T15:14:28.975Z</time></trkpt><trkpt lat="43.6638445" lon="10.9160635"><ele>34.75</ele><time>2026-04-04T15:14:29.963Z</time></trkpt><trkpt lat="43.6639583" lon="10.9162158"><ele>35.0</ele><time>2026-04-04T15:14:30.973Z</time></trkpt><trkpt lat="43.6640797" lon="10.9163722"><ele>35.0</ele><time>2026-04-04T15:14:31.966Z</time></trkpt><trkpt lat="43.6642026" lon="10.9165268"><ele>35.0</ele><time>2026-04-04T15:14:32.966Z</time></trkpt><trkpt lat="43.6643259" lon="10.916679"><ele>35.0</ele><time>2026-04-04T15:14:33.966Z</time></trkpt><trkpt lat="43.6644503" lon="10.9168323"><ele>34.666666666666664</ele><time>2026-04-04T15:14:34.975Z</time></trkpt><trkpt lat="43.6645747" lon="10.9169817"><ele>34.333333333333336</ele><time>2026-04-04T15:14:35.97Z</time></trkpt><trkpt lat="43.6647001" lon="10.9171439"><ele>34.0</ele><time>2026-04-04T15:14:36.973Z</time></trkpt><trkpt lat="43.664826" lon="10.9173082"><ele>34.0</ele><time>2026-04-04T15:14:37.978Z</time></trkpt><trkpt lat="43.6649536" lon="10.9174753"><ele>34.0</ele><time>2026-04-04T15:14:38.975Z</time></trkpt><trkpt lat="43.6650827" lon="10.9176437"><ele>34.0</ele><time>2026-04-04T15:14:39.972Z</time></trkpt><trkpt lat="43.6652137" lon="10.9178157"><ele>34.333333333333336</ele><time>2026-04-04T15:14:40.971Z</time></trkpt><trkpt lat="43.6653479" lon="10.917988"><ele>34.666666666666664</ele><time>2026-04-04T15:14:41.958Z</time></trkpt><trkpt lat="43.6654846" lon="10.9181611"><ele>35.0</ele><time>2026-04-04T15:14:42.978Z</time></trkpt><trkpt lat="43.665619" lon="10.9183331"><ele>35.33333333333333</ele><time>2026-04-04T15:14:43.971Z</time></trkpt><trkpt lat="43.6657569" lon="10.9185106"><ele>35.666666666666664</ele><time>2026-04-04T15:14:44.965Z</time></trkpt><trkpt lat="43.6658934" lon="10.9186867"><ele>36.0</ele><time>2026-04-04T15:14:45.97Z</time></trkpt><trkpt lat="43.666025" lon="10.9188582"><ele>36.0</ele><time>2026-04-04T15:14:46.957Z</time></trkpt><trkpt lat="43.6661508" lon="10.919027"><ele>36.0</ele><time>2026-04-04T15:14:47.984Z</time></trkpt><trkpt lat="43.6662664" lon="10.9191881"><ele>36.0</ele><time>2026-04-04T15:14:48.978Z</time></trkpt><trkpt lat="43.6663638" lon="10.919372"><ele>36.0</ele><time>2026-04-04T15:14:49.957Z</time></trkpt><trkpt lat="43.6664537" lon="10.9195597"><ele>36.0</ele><time>2026-04-04T15:14:50.959Z</time></trkpt><trkpt lat="43.6665407" lon="10.9197639"><ele>36.0</ele><time>2026-04-04T15:14:51.958Z</time></trkpt><trkpt lat="43.6666265" lon="10.9199742"><ele>35.666666666666664</ele><time>2026-04-04T15:14:52.971Z</time></trkpt><trkpt lat="43.6666988" lon="10.920197"><ele>35.33333333333333</ele><time>2026-04-04T15:14:53.958Z</time></trkpt><trkpt lat="43.6667779" lon="10.9204072"><ele>35.0</ele><time>2026-04-04T15:14:54.977Z</time></trkpt><trkpt lat="43.6668596" lon="10.9206141"><ele>35.0</ele><time>2026-04-04T15:14:55.959Z</time></trkpt><trkpt lat="43.6669404" lon="10.9208186"><ele>35.0</ele><time>2026-04-04T15:14:56.962Z</time></trkpt><trkpt lat="43.6670207" lon="10.9210214"><ele>35.0</ele><time>2026-04-04T15:14:57.969Z</time></trkpt><trkpt lat="43.6671006" lon="10.9212197"><ele>34.666666666666664</ele><time>2026-04-04T15:14:58.971Z</time></trkpt><trkpt lat="43.667183" lon="10.9214174"><ele>34.333333333333336</ele><time>2026-04-04T15:14:59.96Z</time></trkpt><trkpt lat="43.6672654" lon="10.9216192"><ele>34.0</ele><time>2026-04-04T15:15:00.968Z</time></trkpt><trkpt lat="43.6673478" lon="10.9218217"><ele>34.0</ele><time>2026-04-04T15:15:01.985Z</time></trkpt><trkpt lat="43.6674325" lon="10.9220236"><ele>34.0</ele><time>2026-04-04T15:15:02.984Z</time></trkpt><trkpt lat="43.6675164" lon="10.9222137"><ele>34.0</ele><time>2026-04-04T15:15:03.976Z</time></trkpt><trkpt lat="43.667594" lon="10.9223971"><ele>34.2</ele><time>2026-04-04T15:15:04.977Z</time></trkpt><trkpt lat="43.6676626" lon="10.9225663"><ele>34.4</ele><time>2026-04-04T15:15:05.983Z</time></trkpt><trkpt lat="43.667724" lon="10.922707"><ele>34.6</ele><time>2026-04-04T15:15:06.977Z</time></trkpt><trkpt lat="43.6677823" lon="10.9228132"><ele>34.8</ele><time>2026-04-04T15:15:07.967Z</time></trkpt><trkpt lat="43.6678466" lon="10.9228764"><ele>35.0</ele><time>2026-04-04T15:15:08.966Z</time></trkpt><trkpt lat="43.6679154" lon="10.9229116"><ele>34.75</ele><time>2026-04-04T15:15:09.97Z</time></trkpt><trkpt lat="43.668006" lon="10.9228675"><ele>34.5</ele><time>2026-04-04T15:15:10.974Z</time></trkpt><trkpt lat="43.6680979" lon="10.9227852"><ele>34.25</ele><time>2026-04-04T15:15:11.958Z</time></trkpt><trkpt lat="43.6682002" lon="10.9226778"><ele>34.0</ele><time>2026-04-04T15:15:12.979Z</time></trkpt><trkpt lat="43.6683149" lon="10.9225598"><ele>34.0</ele><time>2026-04-04T15:15:13.977Z</time></trkpt><trkpt lat="43.6684366" lon="10.9224335"><ele>34.0</ele><time>2026-04-04T15:15:14.968Z</time></trkpt><trkpt lat="43.6685634" lon="10.9223041"><ele>34.0</ele><time>2026-04-04T15:15:15.954Z</time></trkpt><trkpt lat="43.6686986" lon="10.9221663"><ele>34.333333333333336</ele><time>2026-04-04T15:15:16.978Z</time></trkpt><trkpt lat="43.6688468" lon="10.9220142"><ele>34.666666666666664</ele><time>2026-04-04T15:15:17.981Z</time></trkpt><trkpt lat="43.6690103" lon="10.9218515"><ele>35.0</ele><time>2026-04-04T15:15:18.97Z</time></trkpt><trkpt lat="43.6691877" lon="10.9216765"><ele>35.0</ele><time>2026-04-04T15:15:19.962Z</time></trkpt><trkpt lat="43.6693762" lon="10.9214871"><ele>35.0</ele><time>2026-04-04T15:15:20.983Z</time></trkpt><trkpt lat="43.669577" lon="10.9212829"><ele>35.0</ele><time>2026-04-04T15:15:21.963Z</time></trkpt><trkpt lat="43.6697765" lon="10.92108"><ele>35.0</ele><time>2026-04-04T15:15:22.97Z</time></trkpt><trkpt lat="43.669974" lon="10.9208808"><ele>35.0</ele><time>2026-04-04T15:15:23.96Z</time></trkpt><trkpt lat="43.6701714" lon="10.9206837"><ele>35.0</ele><time>2026-04-04T15:15:24.973Z</time></trkpt><trkpt lat="43.6703677" lon="10.9204876"><ele>34.5</ele><time>2026-04-04T15:15:25.964Z</time></trkpt><trkpt lat="43.6705617" lon="10.9202948"><ele>34.0</ele><time>2026-04-04T15:15:26.991Z</time></trkpt><trkpt lat="43.6707527" lon="10.9201071"><ele>34.0</ele><time>2026-04-04T15:15:27.956Z</time></trkpt><trkpt lat="43.6709397" lon="10.9199221"><ele>34.0</ele><time>2026-04-04T15:15:28.978Z</time></trkpt><trkpt lat="43.6711234" lon="10.9197381"><ele>34.333333333333336</ele><time>2026-04-04T15:15:29.976Z</time></trkpt><trkpt lat="43.6713058" lon="10.9195572"><ele>34.666666666666664</ele><time>2026-04-04T15:15:30.976Z</time></trkpt><trkpt lat="43.671487" lon="10.9193806"><ele>35.0</ele><time>2026-04-04T15:15:31.98Z</time></trkpt><trkpt lat="43.6716684" lon="10.9192105"><ele>35.0</ele><time>2026-04-04T15:15:32.977Z</time></trkpt><trkpt lat="43.6718512" lon="10.9190484"><ele>35.0</ele><time>2026-04-04T15:15:33.979Z</time></trkpt><trkpt lat="43.6720342" lon="10.9188965"><ele>35.0</ele><time>2026-04-04T15:15:34.98Z</time></trkpt><trkpt lat="43.6722166" lon="10.9187527"><ele>35.0</ele><time>2026-04-04T15:15:35.96Z</time></trkpt><trkpt lat="43.6724024" lon="10.9186233"><ele>35.0</ele><time>2026-04-04T15:15:36.985Z</time></trkpt><trkpt lat="43.6725944" lon="10.9184996"><ele>35.0</ele><time>2026-04-04T15:15:37.971Z</time></trkpt><trkpt lat="43.6727881" lon="10.9183811"><ele>35.0</ele><time>2026-04-04T15:15:38.968Z</time></trkpt><trkpt lat="43.6729851" lon="10.9182712"><ele>35.0</ele><time>2026-04-04T15:15:39.971Z</time></trkpt><trkpt lat="43.6731857" lon="10.9181707"><ele>35.0</ele><time>2026-04-04T15:15:40.971Z</time></trkpt><trkpt lat="43.6733878" lon="10.9180764"><ele>35.0</ele><time>2026-04-04T15:15:41.973Z</time></trkpt><trkpt lat="43.6735908" lon="10.9179901"><ele>35.0</ele><time>2026-04-04T15:15:42.962Z</time></trkpt><trkpt lat="43.6737951" lon="10.9179106"><ele>35.0</ele><time>2026-04-04T15:15:43.977Z</time></trkpt><trkpt lat="43.6740005" lon="10.9178377"><ele>34.666666666666664</ele><time>2026-04-04T15:15:44.974Z</time></trkpt><trkpt lat="43.6742092" lon="10.917772"><ele>34.333333333333336</ele><time>2026-04-04T15:15:45.975Z</time></trkpt><trkpt lat="43.6744185" lon="10.9177108"><ele>34.0</ele><time>2026-04-04T15:15:46.979Z</time></trkpt><trkpt lat="43.6746257" lon="10.9176543"><ele>34.0</ele><time>2026-04-04T15:15:47.966Z</time></trkpt><trkpt lat="43.6748326" lon="10.917598"><ele>34.0</ele><time>2026-04-04T15:15:48.971Z</time></trkpt><trkpt lat="43.6750441" lon="10.9175461"><ele>34.0</ele><time>2026-04-04T15:15:49.968Z</time></trkpt><trkpt lat="43.6752556" lon="10.9174977"><ele>33.66666666666667</ele><time>2026-04-04T15:15:50.979Z</time></trkpt><trkpt lat="43.675469" lon="10.9174497"><ele>33.333333333333336</ele><time>2026-04-04T15:15:51.962Z</time></trkpt><trkpt lat="43.675678" lon="10.9174053"><ele>33.0</ele><time>2026-04-04T15:15:52.96Z</time></trkpt><trkpt lat="43.6758866" lon="10.9173568"><ele>33.0</ele><time>2026-04-04T15:15:53.974Z</time></trkpt><trkpt lat="43.6760904" lon="10.9173089"><ele>33.0</ele><time>2026-04-04T15:15:54.985Z</time></trkpt><trkpt lat="43.6762876" lon="10.9172619"><ele>33.0</ele><time>2026-04-04T15:15:55.961Z</time></trkpt><trkpt lat="43.6764741" lon="10.9172077"><ele>33.0</ele><time>2026-04-04T15:15:56.978Z</time></trkpt><trkpt lat="43.6766492" lon="10.9171338"><ele>33.0</ele><time>2026-04-04T15:15:57.976Z</time></trkpt><trkpt lat="43.6768114" lon="10.9170286"><ele>33.0</ele><time>2026-04-04T15:15:58.97Z</time></trkpt><trkpt lat="43.676964" lon="10.916902"><ele>32.666666666666664</ele><time>2026-04-04T15:15:59.972Z</time></trkpt><trkpt lat="43.6770838" lon="10.916727"><ele>32.33333333333333</ele><time>2026-04-04T15:16:00.967Z</time></trkpt><trkpt lat="43.6771942" lon="10.9165301"><ele>32.0</ele><time>2026-04-04T15:16:01.977Z</time></trkpt><trkpt lat="43.677301" lon="10.9163344"><ele>32.0</ele><time>2026-04-04T15:16:02.99Z</time></trkpt><trkpt lat="43.6774044" lon="10.9161519"><ele>32.0</ele><time>2026-04-04T15:16:03.959Z</time></trkpt><trkpt lat="43.6775011" lon="10.9159895"><ele>32.0</ele><time>2026-04-04T15:16:04.976Z</time></trkpt><trkpt lat="43.6776001" lon="10.9158493"><ele>32.25</ele><time>2026-04-04T15:16:05.979Z</time></trkpt><trkpt lat="43.6777099" lon="10.9157477"><ele>32.5</ele><time>2026-04-04T15:16:06.98Z</time></trkpt><trkpt lat="43.6778286" lon="10.9156994"><ele>32.75</ele><time>2026-04-04T15:16:07.965Z</time></trkpt><trkpt lat="43.6779464" lon="10.9156856"><ele>33.0</ele><time>2026-04-04T15:16:08.983Z</time></trkpt><trkpt lat="43.6780574" lon="10.9157479"><ele>33.0</ele><time>2026-04-04T15:16:09.965Z</time></trkpt><trkpt lat="43.6781381" lon="10.9158443"><ele>33.0</ele><time>2026-04-04T15:16:10.96Z</time></trkpt><trkpt lat="43.6781824" lon="10.915964"><ele>33.0</ele><time>2026-04-04T15:16:11.957Z</time></trkpt><trkpt lat="43.6781943" lon="10.9160975"><ele>33.0</ele><time>2026-04-04T15:16:12.975Z</time></trkpt><trkpt lat="43.6781925" lon="10.9162346"><ele>33.0</ele><time>2026-04-04T15:16:13.968Z</time></trkpt><trkpt lat="43.6781949" lon="10.9163625"><ele>33.4</ele><time>2026-04-04T15:16:14.969Z</time></trkpt><trkpt lat="43.6782146" lon="10.9164809"><ele>33.8</ele><time>2026-04-04T15:16:15.977Z</time></trkpt><trkpt lat="43.6782618" lon="10.9165853"><ele>34.2</ele><time>2026-04-04T15:16:16.963Z</time></trkpt><trkpt lat="43.6783313" lon="10.9166618"><ele>34.6</ele><time>2026-04-04T15:16:17.965Z</time></trkpt><trkpt lat="43.6784136" lon="10.9167182"><ele>35.0</ele><time>2026-04-04T15:16:18.978Z</time></trkpt><trkpt lat="43.6785068" lon="10.9166987"><ele>35.0</ele><time>2026-04-04T15:16:19.984Z</time></trkpt><trkpt lat="43.678589" lon="10.9166407"><ele>35.0</ele><time>2026-04-04T15:16:20.96Z</time></trkpt><trkpt lat="43.6786548" lon="10.9165468"><ele>35.0</ele><time>2026-04-04T15:16:21.967Z</time></trkpt><trkpt lat="43.6787091" lon="10.9164225"><ele>35.0</ele><time>2026-04-04T15:16:22.978Z</time></trkpt><trkpt lat="43.6787597" lon="10.9162795"><ele>35.0</ele><time>2026-04-04T15:16:23.965Z</time></trkpt><trkpt lat="43.6788263" lon="10.9161315"><ele>34.75</ele><time>2026-04-04T15:16:24.975Z</time></trkpt><trkpt lat="43.678919" lon="10.915988"><ele>34.5</ele><time>2026-04-04T15:16:25.983Z</time></trkpt><trkpt lat="43.6790359" lon="10.9158551"><ele>34.25</ele><time>2026-04-04T15:16:26.964Z</time></trkpt><trkpt lat="43.6791613" lon="10.9157248"><ele>34.0</ele><time>2026-04-04T15:16:27.971Z</time></trkpt><trkpt lat="43.6792907" lon="10.9155846"><ele>34.0</ele><time>2026-04-04T15:16:28.95Z</time></trkpt><trkpt lat="43.6794267" lon="10.9154337"><ele>34.0</ele><time>2026-04-04T15:16:29.978Z</time></trkpt><trkpt lat="43.6795679" lon="10.9152759"><ele>34.0</ele><time>2026-04-04T15:16:30.982Z</time></trkpt><trkpt lat="43.6797155" lon="10.9151088"><ele>34.0</ele><time>2026-04-04T15:16:31.978Z</time></trkpt><trkpt lat="43.6798701" lon="10.9149358"><ele>34.0</ele><time>2026-04-04T15:16:32.976Z</time></trkpt><trkpt lat="43.6800273" lon="10.9147599"><ele>34.0</ele><time>2026-04-04T15:16:33.982Z</time></trkpt><trkpt lat="43.6801923" lon="10.9145805"><ele>34.0</ele><time>2026-04-04T15:16:34.973Z</time></trkpt><trkpt lat="43.6803584" lon="10.9144034"><ele>34.0</ele><time>2026-04-04T15:16:35.979Z</time></trkpt><trkpt lat="43.6805354" lon="10.9142382"><ele>34.0</ele><time>2026-04-04T15:16:36.973Z</time></trkpt><trkpt lat="43.680722" lon="10.9140835"><ele>34.0</ele><time>2026-04-04T15:16:37.966Z</time></trkpt><trkpt lat="43.6809126" lon="10.9139414"><ele>34.0</ele><time>2026-04-04T15:16:38.968Z</time></trkpt><trkpt lat="43.6810989" lon="10.9138121"><ele>34.0</ele><time>2026-04-04T15:16:39.969Z</time></trkpt><trkpt lat="43.6812846" lon="10.9136947"><ele>34.0</ele><time>2026-04-04T15:16:40.973Z</time></trkpt><trkpt lat="43.6814706" lon="10.9135867"><ele>34.0</ele><time>2026-04-04T15:16:41.976Z</time></trkpt><trkpt lat="43.6816559" lon="10.9134897"><ele>34.0</ele><time>2026-04-04T15:16:42.982Z</time></trkpt><trkpt lat="43.6818421" lon="10.9134056"><ele>33.333333333333336</ele><time>2026-04-04T15:16:43.974Z</time></trkpt><trkpt lat="43.6820287" lon="10.9133295"><ele>32.666666666666664</ele><time>2026-04-04T15:16:44.97Z</time></trkpt><trkpt lat="43.6822145" lon="10.9132621"><ele>32.0</ele><time>2026-04-04T15:16:45.976Z</time></trkpt><trkpt lat="43.6824003" lon="10.9132052"><ele>32.0</ele><time>2026-04-04T15:16:46.962Z</time></trkpt><trkpt lat="43.6825872" lon="10.9131555"><ele>32.0</ele><time>2026-04-04T15:16:47.979Z</time></trkpt><trkpt lat="43.6827745" lon="10.9131089"><ele>32.0</ele><time>2026-04-04T15:16:48.971Z</time></trkpt><trkpt lat="43.6829619" lon="10.9130653"><ele>32.0</ele><time>2026-04-04T15:16:49.968Z</time></trkpt><trkpt lat="43.6831514" lon="10.9130235"><ele>32.0</ele><time>2026-04-04T15:16:50.962Z</time></trkpt><trkpt lat="43.6833423" lon="10.9129835"><ele>32.0</ele><time>2026-04-04T15:16:51.962Z</time></trkpt><trkpt lat="43.6835341" lon="10.9129444"><ele>31.333333333333332</ele><time>2026-04-04T15:16:52.981Z</time></trkpt><trkpt lat="43.6837262" lon="10.9129063"><ele>30.666666666666664</ele><time>2026-04-04T15:16:53.969Z</time></trkpt><trkpt lat="43.6839186" lon="10.9128685"><ele>30.0</ele><time>2026-04-04T15:16:54.971Z</time></trkpt><trkpt lat="43.6841108" lon="10.9128303"><ele>30.0</ele><time>2026-04-04T15:16:55.956Z</time></trkpt><trkpt lat="43.6843017" lon="10.9127907"><ele>30.0</ele><time>2026-04-04T15:16:56.974Z</time></trkpt><trkpt lat="43.684493" lon="10.9127499"><ele>30.0</ele><time>2026-04-04T15:16:57.976Z</time></trkpt><trkpt lat="43.6846851" lon="10.9127076"><ele>30.333333333333336</ele><time>2026-04-04T15:16:58.962Z</time></trkpt><trkpt lat="43.6848794" lon="10.9126647"><ele>30.666666666666668</ele><time>2026-04-04T15:16:59.974Z</time></trkpt><trkpt lat="43.685077" lon="10.9126219"><ele>31.0</ele><time>2026-04-04T15:17:00.972Z</time></trkpt><trkpt lat="43.6852763" lon="10.9125798"><ele>31.333333333333336</ele><time>2026-04-04T15:17:01.964Z</time></trkpt><trkpt lat="43.6854771" lon="10.9125358"><ele>31.666666666666664</ele><time>2026-04-04T15:17:02.98Z</time></trkpt><trkpt lat="43.685679" lon="10.9124887"><ele>32.0</ele><time>2026-04-04T15:17:03.97Z</time></trkpt><trkpt lat="43.6858807" lon="10.9124361"><ele>32.0</ele><time>2026-04-04T15:17:04.982Z</time></trkpt><trkpt lat="43.6860813" lon="10.912378"><ele>32.0</ele><time>2026-04-04T15:17:05.973Z</time></trkpt><trkpt lat="43.6862813" lon="10.9123141"><ele>32.0</ele><time>2026-04-04T15:17:06.979Z</time></trkpt><trkpt lat="43.6864791" lon="10.9122417"><ele>31.666666666666664</ele><time>2026-04-04T15:17:07.976Z</time></trkpt><trkpt lat="43.6866749" lon="10.9121639"><ele>31.333333333333336</ele><time>2026-04-04T15:17:08.979Z</time></trkpt><trkpt lat="43.686865" lon="10.9120852"><ele>31.0</ele><time>2026-04-04T15:17:09.967Z</time></trkpt><trkpt lat="43.6870428" lon="10.9120095"><ele>31.0</ele><time>2026-04-04T15:17:10.98Z</time></trkpt><trkpt lat="43.687203" lon="10.9119401"><ele>31.0</ele><time>2026-04-04T15:17:11.987Z</time></trkpt><trkpt lat="43.6873479" lon="10.9118869"><ele>31.0</ele><time>2026-04-04T15:17:12.983Z</time></trkpt><trkpt lat="43.687453" lon="10.9118557"><ele>31.0</ele><time>2026-04-04T15:17:13.967Z</time></trkpt><trkpt lat="43.6875403" lon="10.9118462"><ele>31.000000000000004</ele><time>2026-04-04T15:17:14.985Z</time></trkpt><trkpt lat="43.6876159" lon="10.9118504"><ele>31.0</ele><time>2026-04-04T15:17:15.978Z</time></trkpt><trkpt lat="43.6876871" lon="10.9118627"><ele>31.0</ele><time>2026-04-04T15:17:16.979Z</time></trkpt><trkpt lat="43.6877534" lon="10.911872"><ele>31.0</ele><time>2026-04-04T15:17:17.965Z</time></trkpt><trkpt lat="43.6878185" lon="10.9118619"><ele>31.000000000000004</ele><time>2026-04-04T15:17:18.969Z</time></trkpt><trkpt lat="43.6879306" lon="10.911826"><ele>31.0</ele><time>2026-04-04T15:17:20.97Z</time></trkpt><trkpt lat="43.6880243" lon="10.9117974"><ele>32.0</ele><time>2026-04-04T15:17:22.977Z</time></trkpt><trkpt lat="43.6881046" lon="10.91178"><ele>32.0</ele><time>2026-04-04T15:17:24.972Z</time></trkpt><trkpt lat="43.6881685" lon="10.9117204"><ele>31.0</ele><time>2026-04-04T15:17:27.977Z</time></trkpt></trkseg></trk></gpx>